<?xml version="1.0" encoding="UTF-8" standalone="no" ?>
<gpx xmlns="http://www.topografix.com/GPX/1/1" xmlns:xsi="http://www.w3.org/2001/XMLSchema-instance" xsi:schemaLocation="http://www.topografix.com/GPX/1/1 http://www.topografix.com/GPX/1/1/gpx.xsd" version="1.1" creator="VisuGPX - https://www.visugpx.com">
  <metadata>
    <name>LO GRAN XAMAN</name>
    <desc><![CDATA[LO GRAN XAMAN DESDE VILANOVA DE MEIA]]></desc>
  </metadata>
  <trk>
    <name><![CDATA[LO GRAN XAMAN]]></name>
    <trkseg>
      <trkpt lat="41.99487" lon="1.02331">
        <ele>640.9</ele>
        <time>2019-01-30T23:45:54Z</time>
      </trkpt>
      <trkpt lat="41.99506" lon="1.02339">
        <ele>641.9</ele>
        <time>2019-01-30T23:46:05Z</time>
      </trkpt>
      <trkpt lat="41.99514" lon="1.02346">
        <ele>642.3</ele>
        <time>2019-01-30T23:46:10Z</time>
      </trkpt>
      <trkpt lat="41.99522" lon="1.02356">
        <ele>642.3</ele>
        <time>2019-01-30T23:46:16Z</time>
      </trkpt>
      <trkpt lat="41.99533" lon="1.02356">
        <ele>642.8</ele>
        <time>2019-01-30T23:46:23Z</time>
      </trkpt>
      <trkpt lat="41.99553" lon="1.02343">
        <ele>644.3</ele>
        <time>2019-01-30T23:46:35Z</time>
      </trkpt>
      <trkpt lat="41.99557" lon="1.02333">
        <ele>645.3</ele>
        <time>2019-01-30T23:46:40Z</time>
      </trkpt>
      <trkpt lat="41.99586" lon="1.0232">
        <ele>653.5</ele>
        <time>2019-01-30T23:46:58Z</time>
      </trkpt>
      <trkpt lat="41.99596" lon="1.02308">
        <ele>653.5</ele>
        <time>2019-01-30T23:47:05Z</time>
      </trkpt>
      <trkpt lat="41.99611" lon="1.02295">
        <ele>656.8</ele>
        <time>2019-01-30T23:47:16Z</time>
      </trkpt>
      <trkpt lat="41.99625" lon="1.02291">
        <ele>658.2</ele>
        <time>2019-01-30T23:47:24Z</time>
      </trkpt>
      <trkpt lat="41.99636" lon="1.02292">
        <ele>659.7</ele>
        <time>2019-01-30T23:47:30Z</time>
      </trkpt>
      <trkpt lat="41.99636" lon="1.02284">
        <ele>661.6</ele>
        <time>2019-01-30T23:47:34Z</time>
      </trkpt>
      <trkpt lat="41.99628" lon="1.02279">
        <ele>662.5</ele>
        <time>2019-01-30T23:47:39Z</time>
      </trkpt>
      <trkpt lat="41.99617" lon="1.02275">
        <ele>663</ele>
        <time>2019-01-30T23:47:45Z</time>
      </trkpt>
      <trkpt lat="41.99609" lon="1.02267">
        <ele>664</ele>
        <time>2019-01-30T23:47:51Z</time>
      </trkpt>
      <trkpt lat="41.99601" lon="1.02263">
        <ele>664.9</ele>
        <time>2019-01-30T23:47:56Z</time>
      </trkpt>
      <trkpt lat="41.99592" lon="1.02257">
        <ele>666.3</ele>
        <time>2019-01-30T23:48:01Z</time>
      </trkpt>
      <trkpt lat="41.99588" lon="1.02245">
        <ele>667.9</ele>
        <time>2019-01-30T23:48:07Z</time>
      </trkpt>
      <trkpt lat="41.99584" lon="1.02229">
        <ele>669.7</ele>
        <time>2019-01-30T23:48:14Z</time>
      </trkpt>
      <trkpt lat="41.99583" lon="1.02214">
        <ele>670.7</ele>
        <time>2019-01-30T23:48:21Z</time>
      </trkpt>
      <trkpt lat="41.99591" lon="1.022">
        <ele>673.1</ele>
        <time>2019-01-30T23:48:28Z</time>
      </trkpt>
      <trkpt lat="41.996" lon="1.02186">
        <ele>674.1</ele>
        <time>2019-01-30T23:48:36Z</time>
      </trkpt>
      <trkpt lat="41.99608" lon="1.02174">
        <ele>675</ele>
        <time>2019-01-30T23:48:43Z</time>
      </trkpt>
      <trkpt lat="41.99618" lon="1.02166">
        <ele>676.9</ele>
        <time>2019-01-30T23:48:49Z</time>
      </trkpt>
      <trkpt lat="41.99627" lon="1.02157">
        <ele>677.9</ele>
        <time>2019-01-30T23:48:56Z</time>
      </trkpt>
      <trkpt lat="41.99633" lon="1.02147">
        <ele>679.8</ele>
        <time>2019-01-30T23:49:01Z</time>
      </trkpt>
      <trkpt lat="41.9964" lon="1.02138">
        <ele>681.2</ele>
        <time>2019-01-30T23:49:07Z</time>
      </trkpt>
      <trkpt lat="41.99648" lon="1.02129">
        <ele>683.3</ele>
        <time>2019-01-30T23:49:13Z</time>
      </trkpt>
      <trkpt lat="41.99652" lon="1.02118">
        <ele>684.7</ele>
        <time>2019-01-30T23:49:18Z</time>
      </trkpt>
      <trkpt lat="41.99659" lon="1.02108">
        <ele>686.6</ele>
        <time>2019-01-30T23:49:24Z</time>
      </trkpt>
      <trkpt lat="41.99668" lon="1.02103">
        <ele>688.9</ele>
        <time>2019-01-30T23:49:29Z</time>
      </trkpt>
      <trkpt lat="41.99679" lon="1.02098">
        <ele>691.8</ele>
        <time>2019-01-30T23:49:36Z</time>
      </trkpt>
      <trkpt lat="41.99686" lon="1.02092">
        <ele>694.7</ele>
        <time>2019-01-30T23:49:40Z</time>
      </trkpt>
      <trkpt lat="41.99693" lon="1.02083">
        <ele>696.6</ele>
        <time>2019-01-30T23:49:46Z</time>
      </trkpt>
      <trkpt lat="41.99703" lon="1.02078">
        <ele>699.5</ele>
        <time>2019-01-30T23:49:52Z</time>
      </trkpt>
      <trkpt lat="41.99714" lon="1.02075">
        <ele>701.9</ele>
        <time>2019-01-30T23:49:59Z</time>
      </trkpt>
      <trkpt lat="41.99724" lon="1.02071">
        <ele>705.3</ele>
        <time>2019-01-30T23:50:04Z</time>
      </trkpt>
      <trkpt lat="41.99731" lon="1.0208">
        <ele>707.7</ele>
        <time>2019-01-30T23:50:10Z</time>
      </trkpt>
      <trkpt lat="41.99738" lon="1.02087">
        <ele>710.6</ele>
        <time>2019-01-30T23:50:15Z</time>
      </trkpt>
      <trkpt lat="41.99747" lon="1.02092">
        <ele>712.5</ele>
        <time>2019-01-30T23:50:21Z</time>
      </trkpt>
      <trkpt lat="41.99755" lon="1.02102">
        <ele>715</ele>
        <time>2019-01-30T23:50:27Z</time>
      </trkpt>
      <trkpt lat="41.99765" lon="1.02102">
        <ele>715.9</ele>
        <time>2019-01-30T23:50:32Z</time>
      </trkpt>
      <trkpt lat="41.99772" lon="1.02097">
        <ele>716.4</ele>
        <time>2019-01-30T23:50:37Z</time>
      </trkpt>
      <trkpt lat="41.9978" lon="1.02092">
        <ele>717.8</ele>
        <time>2019-01-30T23:50:42Z</time>
      </trkpt>
      <trkpt lat="41.99788" lon="1.02085">
        <ele>719.8</ele>
        <time>2019-01-30T23:50:47Z</time>
      </trkpt>
      <trkpt lat="41.99797" lon="1.02079">
        <ele>722.1</ele>
        <time>2019-01-30T23:50:53Z</time>
      </trkpt>
      <trkpt lat="41.99805" lon="1.02071">
        <ele>724.5</ele>
        <time>2019-01-30T23:50:59Z</time>
      </trkpt>
      <trkpt lat="41.99811" lon="1.02063">
        <ele>727</ele>
        <time>2019-01-30T23:51:04Z</time>
      </trkpt>
      <trkpt lat="41.9982" lon="1.02054">
        <ele>729.3</ele>
        <time>2019-01-30T23:51:10Z</time>
      </trkpt>
      <trkpt lat="41.9983" lon="1.0205">
        <ele>730.7</ele>
        <time>2019-01-30T23:51:16Z</time>
      </trkpt>
      <trkpt lat="41.99836" lon="1.02042">
        <ele>732.7</ele>
        <time>2019-01-30T23:51:21Z</time>
      </trkpt>
      <trkpt lat="41.99844" lon="1.02035">
        <ele>735.7</ele>
        <time>2019-01-30T23:51:27Z</time>
      </trkpt>
      <trkpt lat="41.9985" lon="1.02026">
        <ele>738.1</ele>
        <time>2019-01-30T23:51:32Z</time>
      </trkpt>
      <trkpt lat="41.99856" lon="1.02015">
        <ele>738.9</ele>
        <time>2019-01-30T23:51:38Z</time>
      </trkpt>
      <trkpt lat="41.99863" lon="1.02004">
        <ele>739.9</ele>
        <time>2019-01-30T23:51:44Z</time>
      </trkpt>
      <trkpt lat="41.99869" lon="1.01993">
        <ele>741.9</ele>
        <time>2019-01-30T23:51:49Z</time>
      </trkpt>
      <trkpt lat="41.99877" lon="1.01985">
        <ele>744.7</ele>
        <time>2019-01-30T23:51:55Z</time>
      </trkpt>
      <trkpt lat="41.99884" lon="1.01974">
        <ele>745.6</ele>
        <time>2019-01-30T23:52:01Z</time>
      </trkpt>
      <trkpt lat="41.99889" lon="1.01963">
        <ele>746.7</ele>
        <time>2019-01-30T23:52:07Z</time>
      </trkpt>
      <trkpt lat="41.99897" lon="1.01953">
        <ele>748</ele>
        <time>2019-01-30T23:52:13Z</time>
      </trkpt>
      <trkpt lat="41.99905" lon="1.01943">
        <ele>750.9</ele>
        <time>2019-01-30T23:52:19Z</time>
      </trkpt>
      <trkpt lat="41.99911" lon="1.0193">
        <ele>753.3</ele>
        <time>2019-01-30T23:52:26Z</time>
      </trkpt>
      <trkpt lat="41.99918" lon="1.01919">
        <ele>753.4</ele>
        <time>2019-01-30T23:52:32Z</time>
      </trkpt>
      <trkpt lat="41.99924" lon="1.01907">
        <ele>753.8</ele>
        <time>2019-01-30T23:52:38Z</time>
      </trkpt>
      <trkpt lat="41.99932" lon="1.01897">
        <ele>753.4</ele>
        <time>2019-01-30T23:52:44Z</time>
      </trkpt>
      <trkpt lat="41.9994" lon="1.01888">
        <ele>754.9</ele>
        <time>2019-01-30T23:52:51Z</time>
      </trkpt>
      <trkpt lat="41.99944" lon="1.01876">
        <ele>754.8</ele>
        <time>2019-01-30T23:52:56Z</time>
      </trkpt>
      <trkpt lat="41.99949" lon="1.01864">
        <ele>755.7</ele>
        <time>2019-01-30T23:53:02Z</time>
      </trkpt>
      <trkpt lat="41.99955" lon="1.01854">
        <ele>758.1</ele>
        <time>2019-01-30T23:53:07Z</time>
      </trkpt>
      <trkpt lat="41.99965" lon="1.01844">
        <ele>761</ele>
        <time>2019-01-30T23:53:14Z</time>
      </trkpt>
      <trkpt lat="41.99974" lon="1.01833">
        <ele>764</ele>
        <time>2019-01-30T23:53:21Z</time>
      </trkpt>
      <trkpt lat="41.99981" lon="1.01825">
        <ele>765.4</ele>
        <time>2019-01-30T23:53:27Z</time>
      </trkpt>
      <trkpt lat="41.99989" lon="1.01815">
        <ele>768.8</ele>
        <time>2019-01-30T23:53:33Z</time>
      </trkpt>
      <trkpt lat="41.99997" lon="1.01803">
        <ele>771.6</ele>
        <time>2019-01-30T23:53:40Z</time>
      </trkpt>
      <trkpt lat="42.00001" lon="1.01792">
        <ele>773.5</ele>
        <time>2019-01-30T23:53:45Z</time>
      </trkpt>
      <trkpt lat="42.00008" lon="1.0178">
        <ele>777</ele>
        <time>2019-01-30T23:53:51Z</time>
      </trkpt>
      <trkpt lat="42.00012" lon="1.01766">
        <ele>779.4</ele>
        <time>2019-01-30T23:53:58Z</time>
      </trkpt>
      <trkpt lat="42.00015" lon="1.01752">
        <ele>780.3</ele>
        <time>2019-01-30T23:54:04Z</time>
      </trkpt>
      <trkpt lat="42.00023" lon="1.0174">
        <ele>780.7</ele>
        <time>2019-01-30T23:54:11Z</time>
      </trkpt>
      <trkpt lat="42.00033" lon="1.01733">
        <ele>782.2</ele>
        <time>2019-01-30T23:54:17Z</time>
      </trkpt>
      <trkpt lat="42.00042" lon="1.01726">
        <ele>783.6</ele>
        <time>2019-01-30T23:54:23Z</time>
      </trkpt>
      <trkpt lat="42.00049" lon="1.01717">
        <ele>784.6</ele>
        <time>2019-01-30T23:54:28Z</time>
      </trkpt>
      <trkpt lat="42.00053" lon="1.01707">
        <ele>787.5</ele>
        <time>2019-01-30T23:54:34Z</time>
      </trkpt>
      <trkpt lat="42.00057" lon="1.01694">
        <ele>789</ele>
        <time>2019-01-30T23:54:39Z</time>
      </trkpt>
      <trkpt lat="42.00064" lon="1.01683">
        <ele>790</ele>
        <time>2019-01-30T23:54:45Z</time>
      </trkpt>
      <trkpt lat="42.0007" lon="1.01672">
        <ele>792.4</ele>
        <time>2019-01-30T23:54:51Z</time>
      </trkpt>
      <trkpt lat="42.00079" lon="1.01666">
        <ele>793.2</ele>
        <time>2019-01-30T23:54:57Z</time>
      </trkpt>
      <trkpt lat="42.00087" lon="1.0166">
        <ele>795.7</ele>
        <time>2019-01-30T23:55:03Z</time>
      </trkpt>
      <trkpt lat="42.00096" lon="1.01652">
        <ele>797.7</ele>
        <time>2019-01-30T23:55:08Z</time>
      </trkpt>
      <trkpt lat="42.00104" lon="1.01646">
        <ele>798</ele>
        <time>2019-01-30T23:55:14Z</time>
      </trkpt>
      <trkpt lat="42.00112" lon="1.01639">
        <ele>799.5</ele>
        <time>2019-01-30T23:55:19Z</time>
      </trkpt>
      <trkpt lat="42.0012" lon="1.01631">
        <ele>800.4</ele>
        <time>2019-01-30T23:55:25Z</time>
      </trkpt>
      <trkpt lat="42.0013" lon="1.01626">
        <ele>801.9</ele>
        <time>2019-01-30T23:55:31Z</time>
      </trkpt>
      <trkpt lat="42.00139" lon="1.0162">
        <ele>803.4</ele>
        <time>2019-01-30T23:55:37Z</time>
      </trkpt>
      <trkpt lat="42.00147" lon="1.01613">
        <ele>804.4</ele>
        <time>2019-01-30T23:55:42Z</time>
      </trkpt>
      <trkpt lat="42.00157" lon="1.01608">
        <ele>806.8</ele>
        <time>2019-01-30T23:55:49Z</time>
      </trkpt>
      <trkpt lat="42.00168" lon="1.01608">
        <ele>808.7</ele>
        <time>2019-01-30T23:55:55Z</time>
      </trkpt>
      <trkpt lat="42.00179" lon="1.01604">
        <ele>811.6</ele>
        <time>2019-01-30T23:56:01Z</time>
      </trkpt>
      <trkpt lat="42.0019" lon="1.01599">
        <ele>812.6</ele>
        <time>2019-01-30T23:56:08Z</time>
      </trkpt>
      <trkpt lat="42.00201" lon="1.01594">
        <ele>813.5</ele>
        <time>2019-01-30T23:56:14Z</time>
      </trkpt>
      <trkpt lat="42.00213" lon="1.01594">
        <ele>815.8</ele>
        <time>2019-01-30T23:56:21Z</time>
      </trkpt>
      <trkpt lat="42.00224" lon="1.01591">
        <ele>817.7</ele>
        <time>2019-01-30T23:56:28Z</time>
      </trkpt>
      <trkpt lat="42.00235" lon="1.01587">
        <ele>821.1</ele>
        <time>2019-01-30T23:56:34Z</time>
      </trkpt>
      <trkpt lat="42.00246" lon="1.01581">
        <ele>821.7</ele>
        <time>2019-01-30T23:56:41Z</time>
      </trkpt>
      <trkpt lat="42.00256" lon="1.01576">
        <ele>823.5</ele>
        <time>2019-01-30T23:56:47Z</time>
      </trkpt>
      <trkpt lat="42.00263" lon="1.01567">
        <ele>825</ele>
        <time>2019-01-30T23:56:53Z</time>
      </trkpt>
      <trkpt lat="42.00275" lon="1.01561">
        <ele>828.4</ele>
        <time>2019-01-30T23:57:00Z</time>
      </trkpt>
      <trkpt lat="42.00279" lon="1.01584">
        <ele>837.1</ele>
        <time>2019-01-30T23:57:10Z</time>
      </trkpt>
      <trkpt lat="42.00276" lon="1.01614">
        <ele>845.2</ele>
        <time>2019-01-30T23:57:23Z</time>
      </trkpt>
      <trkpt lat="42.00278" lon="1.01612">
        <ele>846.7</ele>
        <time>2019-01-30T23:57:24Z</time>
      </trkpt>
      <trkpt lat="42.00284" lon="1.01614">
        <ele>848</ele>
        <time>2019-01-30T23:57:27Z</time>
      </trkpt>
      <trkpt lat="42.00286" lon="1.01617">
        <ele>850.4</ele>
        <time>2019-01-30T23:57:29Z</time>
      </trkpt>
      <trkpt lat="42.00292" lon="1.01608">
        <ele>852.4</ele>
        <time>2019-01-30T23:57:34Z</time>
      </trkpt>
      <trkpt lat="42.00296" lon="1.01619">
        <ele>853.8</ele>
        <time>2019-01-30T23:57:40Z</time>
      </trkpt>
      <trkpt lat="42.00292" lon="1.01636">
        <ele>856.7</ele>
        <time>2019-01-30T23:57:47Z</time>
      </trkpt>
      <trkpt lat="42.00283" lon="1.01648">
        <ele>859.7</ele>
        <time>2019-01-30T23:57:54Z</time>
      </trkpt>
      <trkpt lat="42.00291" lon="1.01647">
        <ele>863.9</ele>
        <time>2019-01-30T23:57:59Z</time>
      </trkpt>
      <trkpt lat="42.00299" lon="1.01641">
        <ele>866.4</ele>
        <time>2019-01-30T23:58:04Z</time>
      </trkpt>
      <trkpt lat="42.00308" lon="1.01641">
        <ele>868.2</ele>
        <time>2019-01-30T23:58:09Z</time>
      </trkpt>
      <trkpt lat="42.00313" lon="1.0163">
        <ele>869.8</ele>
        <time>2019-01-30T23:58:14Z</time>
      </trkpt>
      <trkpt lat="42.00318" lon="1.01618">
        <ele>870.7</ele>
        <time>2019-01-30T23:58:20Z</time>
      </trkpt>
      <trkpt lat="42.00319" lon="1.01606">
        <ele>872.5</ele>
        <time>2019-01-30T23:58:25Z</time>
      </trkpt>
      <trkpt lat="42.00326" lon="1.01594">
        <ele>873</ele>
        <time>2019-01-30T23:58:32Z</time>
      </trkpt>
      <trkpt lat="42.0033" lon="1.01582">
        <ele>873.5</ele>
        <time>2019-01-30T23:58:37Z</time>
      </trkpt>
      <trkpt lat="42.0033" lon="1.0157">
        <ele>873.5</ele>
        <time>2019-01-30T23:58:43Z</time>
      </trkpt>
      <trkpt lat="42.00341" lon="1.01563">
        <ele>874.6</ele>
        <time>2019-01-30T23:58:50Z</time>
      </trkpt>
      <trkpt lat="42.0035" lon="1.01555">
        <ele>874.5</ele>
        <time>2019-01-30T23:58:56Z</time>
      </trkpt>
      <trkpt lat="42.00358" lon="1.01549">
        <ele>876</ele>
        <time>2019-01-30T23:59:01Z</time>
      </trkpt>
      <trkpt lat="42.00367" lon="1.0154">
        <ele>880.2</ele>
        <time>2019-01-30T23:59:08Z</time>
      </trkpt>
      <trkpt lat="42.00378" lon="1.01544">
        <ele>884.2</ele>
        <time>2019-01-30T23:59:14Z</time>
      </trkpt>
      <trkpt lat="42.00388" lon="1.01549">
        <ele>887.1</ele>
        <time>2019-01-30T23:59:20Z</time>
      </trkpt>
      <trkpt lat="42.00397" lon="1.01556">
        <ele>887.5</ele>
        <time>2019-01-30T23:59:26Z</time>
      </trkpt>
      <trkpt lat="42.004" lon="1.01569">
        <ele>891.8</ele>
        <time>2019-01-30T23:59:32Z</time>
      </trkpt>
      <trkpt lat="42.00396" lon="1.01584">
        <ele>896.6</ele>
        <time>2019-01-30T23:59:39Z</time>
      </trkpt>
      <trkpt lat="42.00397" lon="1.01595">
        <ele>897.1</ele>
        <time>2019-01-30T23:59:44Z</time>
      </trkpt>
      <trkpt lat="42.00399" lon="1.01608">
        <ele>900</ele>
        <time>2019-01-30T23:59:49Z</time>
      </trkpt>
      <trkpt lat="42.00401" lon="1.01619">
        <ele>902.4</ele>
        <time>2019-01-30T23:59:54Z</time>
      </trkpt>
      <trkpt lat="42.00405" lon="1.01633">
        <ele>907.6</ele>
        <time>2019-01-31T00:00:00Z</time>
      </trkpt>
      <trkpt lat="42.00413" lon="1.01636">
        <ele>907.7</ele>
        <time>2019-01-31T00:00:05Z</time>
      </trkpt>
      <trkpt lat="42.00413" lon="1.01648">
        <ele>907.7</ele>
        <time>2019-01-31T00:00:10Z</time>
      </trkpt>
      <trkpt lat="42.00419" lon="1.01658">
        <ele>909.1</ele>
        <time>2019-01-31T00:00:16Z</time>
      </trkpt>
      <trkpt lat="42.00418" lon="1.01675">
        <ele>913.9</ele>
        <time>2019-01-31T00:00:23Z</time>
      </trkpt>
      <trkpt lat="42.00412" lon="1.01686">
        <ele>920.7</ele>
        <time>2019-01-31T00:00:29Z</time>
      </trkpt>
      <trkpt lat="42.00398" lon="1.01691">
        <ele>927.3</ele>
        <time>2019-01-31T00:00:37Z</time>
      </trkpt>
      <trkpt lat="42.00398" lon="1.01699">
        <ele>930.7</ele>
        <time>2019-01-31T00:00:41Z</time>
      </trkpt>
      <trkpt lat="42.00389" lon="1.01709">
        <ele>933.1</ele>
        <time>2019-01-31T00:00:47Z</time>
      </trkpt>
      <trkpt lat="42.00375" lon="1.01716">
        <ele>936.1</ele>
        <time>2019-01-31T00:00:56Z</time>
      </trkpt>
      <trkpt lat="42.00367" lon="1.01722">
        <ele>937</ele>
        <time>2019-01-31T00:01:01Z</time>
      </trkpt>
      <trkpt lat="42.00365" lon="1.01736">
        <ele>938</ele>
        <time>2019-01-31T00:01:07Z</time>
      </trkpt>
      <trkpt lat="42.00361" lon="1.01749">
        <ele>939</ele>
        <time>2019-01-31T00:01:13Z</time>
      </trkpt>
      <trkpt lat="42.00356" lon="1.01766">
        <ele>938</ele>
        <time>2019-01-31T00:01:21Z</time>
      </trkpt>
      <trkpt lat="42.00349" lon="1.01781">
        <ele>937.5</ele>
        <time>2019-01-31T00:01:28Z</time>
      </trkpt>
      <trkpt lat="42.0034" lon="1.01793">
        <ele>938.9</ele>
        <time>2019-01-31T00:01:35Z</time>
      </trkpt>
      <trkpt lat="42.00331" lon="1.01802">
        <ele>937.5</ele>
        <time>2019-01-31T00:01:42Z</time>
      </trkpt>
      <trkpt lat="42.00319" lon="1.01808">
        <ele>938.4</ele>
        <time>2019-01-31T00:01:49Z</time>
      </trkpt>
      <trkpt lat="42.0031" lon="1.01817">
        <ele>936.9</ele>
        <time>2019-01-31T00:01:56Z</time>
      </trkpt>
      <trkpt lat="42.00303" lon="1.01826">
        <ele>937.9</ele>
        <time>2019-01-31T00:02:01Z</time>
      </trkpt>
      <trkpt lat="42.00295" lon="1.01835">
        <ele>937</ele>
        <time>2019-01-31T00:02:07Z</time>
      </trkpt>
      <trkpt lat="42.00287" lon="1.01838">
        <ele>936</ele>
        <time>2019-01-31T00:02:12Z</time>
      </trkpt>
      <trkpt lat="42.00281" lon="1.01849">
        <ele>934.6</ele>
        <time>2019-01-31T00:02:18Z</time>
      </trkpt>
      <trkpt lat="42.0028" lon="1.01864">
        <ele>933.1</ele>
        <time>2019-01-31T00:02:24Z</time>
      </trkpt>
      <trkpt lat="42.00281" lon="1.01876">
        <ele>932.6</ele>
        <time>2019-01-31T00:02:29Z</time>
      </trkpt>
      <trkpt lat="42.00282" lon="1.01889">
        <ele>932.1</ele>
        <time>2019-01-31T00:02:35Z</time>
      </trkpt>
      <trkpt lat="42.00283" lon="1.01903">
        <ele>931.7</ele>
        <time>2019-01-31T00:02:41Z</time>
      </trkpt>
      <trkpt lat="42.00285" lon="1.01916">
        <ele>931.3</ele>
        <time>2019-01-31T00:02:46Z</time>
      </trkpt>
      <trkpt lat="42.00285" lon="1.01928">
        <ele>930.7</ele>
        <time>2019-01-31T00:02:52Z</time>
      </trkpt>
      <trkpt lat="42.00286" lon="1.01943">
        <ele>930.2</ele>
        <time>2019-01-31T00:02:58Z</time>
      </trkpt>
      <trkpt lat="42.00284" lon="1.01956">
        <ele>930.2</ele>
        <time>2019-01-31T00:03:03Z</time>
      </trkpt>
      <trkpt lat="42.00284" lon="1.0197">
        <ele>929.8</ele>
        <time>2019-01-31T00:03:09Z</time>
      </trkpt>
      <trkpt lat="42.00288" lon="1.01985">
        <ele>930.8</ele>
        <time>2019-01-31T00:03:16Z</time>
      </trkpt>
      <trkpt lat="42.00295" lon="1.01997">
        <ele>930.7</ele>
        <time>2019-01-31T00:03:23Z</time>
      </trkpt>
      <trkpt lat="42.00308" lon="1.01996">
        <ele>929.4</ele>
        <time>2019-01-31T00:03:30Z</time>
      </trkpt>
      <trkpt lat="42.00317" lon="1.01987">
        <ele>927.8</ele>
        <time>2019-01-31T00:03:37Z</time>
      </trkpt>
      <trkpt lat="42.00327" lon="1.01981">
        <ele>927.3</ele>
        <time>2019-01-31T00:03:43Z</time>
      </trkpt>
      <trkpt lat="42.00339" lon="1.01977">
        <ele>926</ele>
        <time>2019-01-31T00:03:50Z</time>
      </trkpt>
      <trkpt lat="42.00349" lon="1.01972">
        <ele>925</ele>
        <time>2019-01-31T00:03:56Z</time>
      </trkpt>
      <trkpt lat="42.00361" lon="1.01966">
        <ele>924.1</ele>
        <time>2019-01-31T00:04:03Z</time>
      </trkpt>
      <trkpt lat="42.00372" lon="1.01961">
        <ele>921.6</ele>
        <time>2019-01-31T00:04:10Z</time>
      </trkpt>
      <trkpt lat="42.00385" lon="1.01955">
        <ele>923.5</ele>
        <time>2019-01-31T00:04:18Z</time>
      </trkpt>
      <trkpt lat="42.00397" lon="1.01953">
        <ele>923.5</ele>
        <time>2019-01-31T00:04:25Z</time>
      </trkpt>
      <trkpt lat="42.00408" lon="1.01951">
        <ele>921.6</ele>
        <time>2019-01-31T00:04:31Z</time>
      </trkpt>
      <trkpt lat="42.00424" lon="1.01949">
        <ele>919.6</ele>
        <time>2019-01-31T00:04:40Z</time>
      </trkpt>
      <trkpt lat="42.00436" lon="1.01944">
        <ele>918.7</ele>
        <time>2019-01-31T00:04:47Z</time>
      </trkpt>
      <trkpt lat="42.00445" lon="1.01937">
        <ele>918.8</ele>
        <time>2019-01-31T00:04:53Z</time>
      </trkpt>
      <trkpt lat="42.00454" lon="1.01928">
        <ele>917.7</ele>
        <time>2019-01-31T00:05:00Z</time>
      </trkpt>
      <trkpt lat="42.0046" lon="1.01916">
        <ele>915.4</ele>
        <time>2019-01-31T00:05:06Z</time>
      </trkpt>
      <trkpt lat="42.00463" lon="1.01902">
        <ele>913.5</ele>
        <time>2019-01-31T00:05:12Z</time>
      </trkpt>
      <trkpt lat="42.00467" lon="1.01889">
        <ele>912.9</ele>
        <time>2019-01-31T00:05:18Z</time>
      </trkpt>
      <trkpt lat="42.00476" lon="1.01873">
        <ele>913.4</ele>
        <time>2019-01-31T00:05:26Z</time>
      </trkpt>
      <trkpt lat="42.00479" lon="1.01859">
        <ele>912</ele>
        <time>2019-01-31T00:05:33Z</time>
      </trkpt>
      <trkpt lat="42.00482" lon="1.01843">
        <ele>912</ele>
        <time>2019-01-31T00:05:40Z</time>
      </trkpt>
      <trkpt lat="42.0048" lon="1.01827">
        <ele>911.1</ele>
        <time>2019-01-31T00:05:47Z</time>
      </trkpt>
      <trkpt lat="42.00475" lon="1.01812">
        <ele>910.1</ele>
        <time>2019-01-31T00:05:54Z</time>
      </trkpt>
      <trkpt lat="42.00472" lon="1.01797">
        <ele>909.1</ele>
        <time>2019-01-31T00:06:00Z</time>
      </trkpt>
      <trkpt lat="42.00472" lon="1.0178">
        <ele>907.7</ele>
        <time>2019-01-31T00:06:07Z</time>
      </trkpt>
      <trkpt lat="42.00476" lon="1.01765">
        <ele>906.8</ele>
        <time>2019-01-31T00:06:14Z</time>
      </trkpt>
      <trkpt lat="42.00481" lon="1.01752">
        <ele>905.7</ele>
        <time>2019-01-31T00:06:20Z</time>
      </trkpt>
      <trkpt lat="42.00484" lon="1.01739">
        <ele>904.7</ele>
        <time>2019-01-31T00:06:26Z</time>
      </trkpt>
      <trkpt lat="42.00481" lon="1.01722">
        <ele>903.8</ele>
        <time>2019-01-31T00:06:33Z</time>
      </trkpt>
      <trkpt lat="42.00483" lon="1.01706">
        <ele>902.8</ele>
        <time>2019-01-31T00:06:40Z</time>
      </trkpt>
      <trkpt lat="42.00487" lon="1.01693">
        <ele>902.8</ele>
        <time>2019-01-31T00:06:46Z</time>
      </trkpt>
      <trkpt lat="42.00495" lon="1.01683">
        <ele>901.9</ele>
        <time>2019-01-31T00:06:53Z</time>
      </trkpt>
      <trkpt lat="42.00504" lon="1.01678">
        <ele>901</ele>
        <time>2019-01-31T00:06:58Z</time>
      </trkpt>
      <trkpt lat="42.00513" lon="1.01679">
        <ele>899.5</ele>
        <time>2019-01-31T00:07:04Z</time>
      </trkpt>
      <trkpt lat="42.00523" lon="1.01679">
        <ele>899.5</ele>
        <time>2019-01-31T00:07:09Z</time>
      </trkpt>
      <trkpt lat="42.00533" lon="1.01679">
        <ele>898.5</ele>
        <time>2019-01-31T00:07:15Z</time>
      </trkpt>
      <trkpt lat="42.00543" lon="1.01677">
        <ele>898</ele>
        <time>2019-01-31T00:07:21Z</time>
      </trkpt>
      <trkpt lat="42.00553" lon="1.01678">
        <ele>898</ele>
        <time>2019-01-31T00:07:27Z</time>
      </trkpt>
      <trkpt lat="42.00564" lon="1.01681">
        <ele>897.2</ele>
        <time>2019-01-31T00:07:33Z</time>
      </trkpt>
      <trkpt lat="42.00574" lon="1.01684">
        <ele>896.2</ele>
        <time>2019-01-31T00:07:39Z</time>
      </trkpt>
      <trkpt lat="42.00584" lon="1.01687">
        <ele>894.2</ele>
        <time>2019-01-31T00:07:45Z</time>
      </trkpt>
      <trkpt lat="42.00595" lon="1.01686">
        <ele>894.2</ele>
        <time>2019-01-31T00:07:51Z</time>
      </trkpt>
      <trkpt lat="42.00605" lon="1.0168">
        <ele>892.7</ele>
        <time>2019-01-31T00:07:57Z</time>
      </trkpt>
      <trkpt lat="42.00614" lon="1.01669">
        <ele>892.3</ele>
        <time>2019-01-31T00:08:04Z</time>
      </trkpt>
      <trkpt lat="42.00624" lon="1.01657">
        <ele>890.9</ele>
        <time>2019-01-31T00:08:12Z</time>
      </trkpt>
      <trkpt lat="42.00631" lon="1.01648">
        <ele>889.9</ele>
        <time>2019-01-31T00:08:17Z</time>
      </trkpt>
      <trkpt lat="42.0064" lon="1.01639">
        <ele>889.4</ele>
        <time>2019-01-31T00:08:24Z</time>
      </trkpt>
      <trkpt lat="42.00646" lon="1.01628">
        <ele>889.5</ele>
        <time>2019-01-31T00:08:30Z</time>
      </trkpt>
      <trkpt lat="42.00654" lon="1.01615">
        <ele>888.4</ele>
        <time>2019-01-31T00:08:36Z</time>
      </trkpt>
      <trkpt lat="42.00662" lon="1.01604">
        <ele>887.5</ele>
        <time>2019-01-31T00:08:43Z</time>
      </trkpt>
      <trkpt lat="42.00668" lon="1.01594">
        <ele>886.5</ele>
        <time>2019-01-31T00:08:49Z</time>
      </trkpt>
      <trkpt lat="42.00673" lon="1.01582">
        <ele>886.5</ele>
        <time>2019-01-31T00:08:55Z</time>
      </trkpt>
      <trkpt lat="42.00677" lon="1.01569">
        <ele>886</ele>
        <time>2019-01-31T00:09:00Z</time>
      </trkpt>
      <trkpt lat="42.00681" lon="1.01557">
        <ele>885.1</ele>
        <time>2019-01-31T00:09:06Z</time>
      </trkpt>
      <trkpt lat="42.00685" lon="1.01543">
        <ele>884.6</ele>
        <time>2019-01-31T00:09:13Z</time>
      </trkpt>
      <trkpt lat="42.00691" lon="1.0153">
        <ele>884.6</ele>
        <time>2019-01-31T00:09:19Z</time>
      </trkpt>
      <trkpt lat="42.00698" lon="1.0152">
        <ele>883.2</ele>
        <time>2019-01-31T00:09:25Z</time>
      </trkpt>
      <trkpt lat="42.00705" lon="1.0151">
        <ele>882.2</ele>
        <time>2019-01-31T00:09:31Z</time>
      </trkpt>
      <trkpt lat="42.00714" lon="1.01511">
        <ele>882.3</ele>
        <time>2019-01-31T00:09:36Z</time>
      </trkpt>
      <trkpt lat="42.00716" lon="1.01524">
        <ele>882.3</ele>
        <time>2019-01-31T00:09:41Z</time>
      </trkpt>
      <trkpt lat="42.00717" lon="1.01538">
        <ele>882.2</ele>
        <time>2019-01-31T00:09:47Z</time>
      </trkpt>
      <trkpt lat="42.00721" lon="1.01548">
        <ele>883.2</ele>
        <time>2019-01-31T00:09:52Z</time>
      </trkpt>
      <trkpt lat="42.0073" lon="1.01558">
        <ele>883.1</ele>
        <time>2019-01-31T00:09:59Z</time>
      </trkpt>
      <trkpt lat="42.00737" lon="1.01569">
        <ele>883.1</ele>
        <time>2019-01-31T00:10:05Z</time>
      </trkpt>
      <trkpt lat="42.00742" lon="1.01578">
        <ele>883.2</ele>
        <time>2019-01-31T00:10:10Z</time>
      </trkpt>
      <trkpt lat="42.00747" lon="1.01586">
        <ele>883.2</ele>
        <time>2019-01-31T00:10:14Z</time>
      </trkpt>
      <trkpt lat="42.00751" lon="1.01585">
        <ele>883.2</ele>
        <time>2019-01-31T00:10:17Z</time>
      </trkpt>
      <trkpt lat="42.00758" lon="1.01577">
        <ele>886.5</ele>
        <time>2019-01-31T00:10:22Z</time>
      </trkpt>
      <trkpt lat="42.0077" lon="1.01578">
        <ele>887.1</ele>
        <time>2019-01-31T00:10:29Z</time>
      </trkpt>
      <trkpt lat="42.00779" lon="1.01577">
        <ele>888.5</ele>
        <time>2019-01-31T00:10:34Z</time>
      </trkpt>
      <trkpt lat="42.00789" lon="1.0158">
        <ele>889</ele>
        <time>2019-01-31T00:10:40Z</time>
      </trkpt>
      <trkpt lat="42.008" lon="1.01581">
        <ele>889.9</ele>
        <time>2019-01-31T00:10:46Z</time>
      </trkpt>
      <trkpt lat="42.00813" lon="1.01587">
        <ele>891.9</ele>
        <time>2019-01-31T00:10:54Z</time>
      </trkpt>
      <trkpt lat="42.00823" lon="1.01595">
        <ele>893.7</ele>
        <time>2019-01-31T00:11:01Z</time>
      </trkpt>
      <trkpt lat="42.00832" lon="1.01602">
        <ele>895.1</ele>
        <time>2019-01-31T00:11:06Z</time>
      </trkpt>
      <trkpt lat="42.00841" lon="1.01611">
        <ele>897.1</ele>
        <time>2019-01-31T00:11:13Z</time>
      </trkpt>
      <trkpt lat="42.00849" lon="1.0162">
        <ele>898.5</ele>
        <time>2019-01-31T00:11:19Z</time>
      </trkpt>
      <trkpt lat="42.00857" lon="1.01625">
        <ele>900.4</ele>
        <time>2019-01-31T00:11:24Z</time>
      </trkpt>
      <trkpt lat="42.00866" lon="1.01631">
        <ele>901.5</ele>
        <time>2019-01-31T00:11:29Z</time>
      </trkpt>
      <trkpt lat="42.00876" lon="1.01635">
        <ele>902.3</ele>
        <time>2019-01-31T00:11:36Z</time>
      </trkpt>
      <trkpt lat="42.00889" lon="1.01641">
        <ele>904.4</ele>
        <time>2019-01-31T00:11:43Z</time>
      </trkpt>
      <trkpt lat="42.009" lon="1.01653">
        <ele>906.3</ele>
        <time>2019-01-31T00:11:52Z</time>
      </trkpt>
      <trkpt lat="42.0091" lon="1.0166">
        <ele>908.2</ele>
        <time>2019-01-31T00:11:58Z</time>
      </trkpt>
      <trkpt lat="42.00919" lon="1.01669">
        <ele>911.1</ele>
        <time>2019-01-31T00:12:04Z</time>
      </trkpt>
      <trkpt lat="42.00929" lon="1.01672">
        <ele>913.9</ele>
        <time>2019-01-31T00:12:10Z</time>
      </trkpt>
      <trkpt lat="42.00939" lon="1.01675">
        <ele>917.7</ele>
        <time>2019-01-31T00:12:16Z</time>
      </trkpt>
      <trkpt lat="42.00948" lon="1.01679">
        <ele>919.7</ele>
        <time>2019-01-31T00:12:22Z</time>
      </trkpt>
      <trkpt lat="42.00957" lon="1.01682">
        <ele>921.2</ele>
        <time>2019-01-31T00:12:26Z</time>
      </trkpt>
      <trkpt lat="42.00968" lon="1.01682">
        <ele>923.1</ele>
        <time>2019-01-31T00:12:33Z</time>
      </trkpt>
      <trkpt lat="42.00976" lon="1.01675">
        <ele>925.5</ele>
        <time>2019-01-31T00:12:38Z</time>
      </trkpt>
      <trkpt lat="42.00987" lon="1.01675">
        <ele>927.8</ele>
        <time>2019-01-31T00:12:44Z</time>
      </trkpt>
      <trkpt lat="42.00997" lon="1.01672">
        <ele>927.8</ele>
        <time>2019-01-31T00:12:50Z</time>
      </trkpt>
      <trkpt lat="42.01004" lon="1.01663">
        <ele>927.8</ele>
        <time>2019-01-31T00:12:56Z</time>
      </trkpt>
      <trkpt lat="42.01011" lon="1.01654">
        <ele>927.8</ele>
        <time>2019-01-31T00:13:01Z</time>
      </trkpt>
      <trkpt lat="42.01018" lon="1.01646">
        <ele>929.7</ele>
        <time>2019-01-31T00:13:07Z</time>
      </trkpt>
      <trkpt lat="42.01031" lon="1.01646">
        <ele>931.2</ele>
        <time>2019-01-31T00:13:14Z</time>
      </trkpt>
      <trkpt lat="42.01042" lon="1.01649">
        <ele>931.2</ele>
        <time>2019-01-31T00:13:21Z</time>
      </trkpt>
      <trkpt lat="42.01052" lon="1.01654">
        <ele>935.1</ele>
        <time>2019-01-31T00:13:27Z</time>
      </trkpt>
      <trkpt lat="42.01061" lon="1.01662">
        <ele>938.5</ele>
        <time>2019-01-31T00:13:33Z</time>
      </trkpt>
      <trkpt lat="42.01069" lon="1.01669">
        <ele>940.9</ele>
        <time>2019-01-31T00:13:38Z</time>
      </trkpt>
      <trkpt lat="42.01078" lon="1.01672">
        <ele>944.3</ele>
        <time>2019-01-31T00:13:43Z</time>
      </trkpt>
      <trkpt lat="42.01086" lon="1.01667">
        <ele>945.6</ele>
        <time>2019-01-31T00:13:49Z</time>
      </trkpt>
      <trkpt lat="42.01093" lon="1.01659">
        <ele>947.1</ele>
        <time>2019-01-31T00:13:54Z</time>
      </trkpt>
      <trkpt lat="42.01099" lon="1.0165">
        <ele>948.5</ele>
        <time>2019-01-31T00:13:59Z</time>
      </trkpt>
      <trkpt lat="42.01102" lon="1.01639">
        <ele>948.5</ele>
        <time>2019-01-31T00:14:04Z</time>
      </trkpt>
      <trkpt lat="42.01109" lon="1.01625">
        <ele>949.9</ele>
        <time>2019-01-31T00:14:11Z</time>
      </trkpt>
      <trkpt lat="42.01113" lon="1.01612">
        <ele>951.4</ele>
        <time>2019-01-31T00:14:17Z</time>
      </trkpt>
      <trkpt lat="42.0112" lon="1.01598">
        <ele>952.3</ele>
        <time>2019-01-31T00:14:24Z</time>
      </trkpt>
      <trkpt lat="42.01126" lon="1.01586">
        <ele>953.4</ele>
        <time>2019-01-31T00:14:31Z</time>
      </trkpt>
      <trkpt lat="42.01126" lon="1.0159">
        <ele>952.8</ele>
        <time>2019-01-31T00:14:32Z</time>
      </trkpt>
      <trkpt lat="42.01133" lon="1.01595">
        <ele>954.7</ele>
        <time>2019-01-31T00:14:37Z</time>
      </trkpt>
      <trkpt lat="42.01142" lon="1.01599">
        <ele>958.1</ele>
        <time>2019-01-31T00:14:42Z</time>
      </trkpt>
      <trkpt lat="42.01145" lon="1.01587">
        <ele>959.2</ele>
        <time>2019-01-31T00:14:48Z</time>
      </trkpt>
      <trkpt lat="42.01152" lon="1.01577">
        <ele>960.5</ele>
        <time>2019-01-31T00:14:54Z</time>
      </trkpt>
      <trkpt lat="42.01158" lon="1.01568">
        <ele>963.5</ele>
        <time>2019-01-31T00:14:59Z</time>
      </trkpt>
      <trkpt lat="42.0116" lon="1.01556">
        <ele>966.4</ele>
        <time>2019-01-31T00:15:04Z</time>
      </trkpt>
      <trkpt lat="42.01162" lon="1.01547">
        <ele>964.8</ele>
        <time>2019-01-31T00:15:08Z</time>
      </trkpt>
      <trkpt lat="42.01165" lon="1.01538">
        <ele>965.3</ele>
        <time>2019-01-31T00:15:13Z</time>
      </trkpt>
      <trkpt lat="42.01168" lon="1.01526">
        <ele>967.2</ele>
        <time>2019-01-31T00:15:18Z</time>
      </trkpt>
      <trkpt lat="42.01166" lon="1.01513">
        <ele>967.8</ele>
        <time>2019-01-31T00:15:23Z</time>
      </trkpt>
      <trkpt lat="42.01167" lon="1.015">
        <ele>969.3</ele>
        <time>2019-01-31T00:15:29Z</time>
      </trkpt>
      <trkpt lat="42.01169" lon="1.01486">
        <ele>970.2</ele>
        <time>2019-01-31T00:15:35Z</time>
      </trkpt>
      <trkpt lat="42.01172" lon="1.01474">
        <ele>973.5</ele>
        <time>2019-01-31T00:15:40Z</time>
      </trkpt>
      <trkpt lat="42.01176" lon="1.01458">
        <ele>974.4</ele>
        <time>2019-01-31T00:15:47Z</time>
      </trkpt>
      <trkpt lat="42.0118" lon="1.01445">
        <ele>974.9</ele>
        <time>2019-01-31T00:15:54Z</time>
      </trkpt>
      <trkpt lat="42.01188" lon="1.01437">
        <ele>975.5</ele>
        <time>2019-01-31T00:15:59Z</time>
      </trkpt>
      <trkpt lat="42.01194" lon="1.01425">
        <ele>975.9</ele>
        <time>2019-01-31T00:16:05Z</time>
      </trkpt>
      <trkpt lat="42.01198" lon="1.01413">
        <ele>976.4</ele>
        <time>2019-01-31T00:16:11Z</time>
      </trkpt>
      <trkpt lat="42.01205" lon="1.01404">
        <ele>976.4</ele>
        <time>2019-01-31T00:16:16Z</time>
      </trkpt>
      <trkpt lat="42.01212" lon="1.01398">
        <ele>975.9</ele>
        <time>2019-01-31T00:16:21Z</time>
      </trkpt>
      <trkpt lat="42.01208" lon="1.01387">
        <ele>976.9</ele>
        <time>2019-01-31T00:16:26Z</time>
      </trkpt>
      <trkpt lat="42.01206" lon="1.01375">
        <ele>976.8</ele>
        <time>2019-01-31T00:16:32Z</time>
      </trkpt>
      <trkpt lat="42.01203" lon="1.01364">
        <ele>976.9</ele>
        <time>2019-01-31T00:16:37Z</time>
      </trkpt>
      <trkpt lat="42.012" lon="1.01351">
        <ele>977.4</ele>
        <time>2019-01-31T00:16:42Z</time>
      </trkpt>
      <trkpt lat="42.01196" lon="1.0134">
        <ele>977.4</ele>
        <time>2019-01-31T00:16:47Z</time>
      </trkpt>
      <trkpt lat="42.01191" lon="1.0133">
        <ele>977.3</ele>
        <time>2019-01-31T00:16:53Z</time>
      </trkpt>
      <trkpt lat="42.01186" lon="1.0132">
        <ele>977.4</ele>
        <time>2019-01-31T00:16:58Z</time>
      </trkpt>
      <trkpt lat="42.01181" lon="1.01309">
        <ele>977.9</ele>
        <time>2019-01-31T00:17:03Z</time>
      </trkpt>
      <trkpt lat="42.01174" lon="1.01299">
        <ele>977.9</ele>
        <time>2019-01-31T00:17:09Z</time>
      </trkpt>
      <trkpt lat="42.01167" lon="1.01293">
        <ele>979.7</ele>
        <time>2019-01-31T00:17:14Z</time>
      </trkpt>
      <trkpt lat="42.01158" lon="1.01286">
        <ele>980.7</ele>
        <time>2019-01-31T00:17:20Z</time>
      </trkpt>
      <trkpt lat="42.01153" lon="1.01272">
        <ele>981.7</ele>
        <time>2019-01-31T00:17:26Z</time>
      </trkpt>
      <trkpt lat="42.01155" lon="1.01256">
        <ele>982.7</ele>
        <time>2019-01-31T00:17:33Z</time>
      </trkpt>
      <trkpt lat="42.01159" lon="1.01242">
        <ele>984.2</ele>
        <time>2019-01-31T00:17:40Z</time>
      </trkpt>
      <trkpt lat="42.01161" lon="1.01229">
        <ele>985</ele>
        <time>2019-01-31T00:17:45Z</time>
      </trkpt>
      <trkpt lat="42.01159" lon="1.01215">
        <ele>986</ele>
        <time>2019-01-31T00:17:51Z</time>
      </trkpt>
      <trkpt lat="42.01156" lon="1.01203">
        <ele>987.5</ele>
        <time>2019-01-31T00:17:57Z</time>
      </trkpt>
      <trkpt lat="42.01151" lon="1.01191">
        <ele>988</ele>
        <time>2019-01-31T00:18:02Z</time>
      </trkpt>
      <trkpt lat="42.01148" lon="1.01179">
        <ele>989.9</ele>
        <time>2019-01-31T00:18:08Z</time>
      </trkpt>
      <trkpt lat="42.01145" lon="1.01167">
        <ele>990.8</ele>
        <time>2019-01-31T00:18:13Z</time>
      </trkpt>
      <trkpt lat="42.01142" lon="1.01154">
        <ele>991.7</ele>
        <time>2019-01-31T00:18:19Z</time>
      </trkpt>
      <trkpt lat="42.01136" lon="1.01143">
        <ele>993.7</ele>
        <time>2019-01-31T00:18:25Z</time>
      </trkpt>
      <trkpt lat="42.0113" lon="1.01133">
        <ele>994.6</ele>
        <time>2019-01-31T00:18:31Z</time>
      </trkpt>
      <trkpt lat="42.01125" lon="1.01121">
        <ele>995.7</ele>
        <time>2019-01-31T00:18:36Z</time>
      </trkpt>
      <trkpt lat="42.01122" lon="1.01108">
        <ele>996.2</ele>
        <time>2019-01-31T00:18:42Z</time>
      </trkpt>
      <trkpt lat="42.01122" lon="1.01094">
        <ele>996.6</ele>
        <time>2019-01-31T00:18:48Z</time>
      </trkpt>
      <trkpt lat="42.01123" lon="1.01078">
        <ele>996.6</ele>
        <time>2019-01-31T00:18:55Z</time>
      </trkpt>
      <trkpt lat="42.01125" lon="1.01065">
        <ele>997.1</ele>
        <time>2019-01-31T00:19:00Z</time>
      </trkpt>
      <trkpt lat="42.01127" lon="1.01051">
        <ele>998.1</ele>
        <time>2019-01-31T00:19:06Z</time>
      </trkpt>
      <trkpt lat="42.01129" lon="1.01036">
        <ele>999.1</ele>
        <time>2019-01-31T00:19:13Z</time>
      </trkpt>
      <trkpt lat="42.01128" lon="1.01023">
        <ele>1000</ele>
        <time>2019-01-31T00:19:18Z</time>
      </trkpt>
      <trkpt lat="42.0113" lon="1.01009">
        <ele>1000.4</ele>
        <time>2019-01-31T00:19:24Z</time>
      </trkpt>
      <trkpt lat="42.01133" lon="1.00996">
        <ele>1000.9</ele>
        <time>2019-01-31T00:19:30Z</time>
      </trkpt>
      <trkpt lat="42.01136" lon="1.00983">
        <ele>1001.9</ele>
        <time>2019-01-31T00:19:36Z</time>
      </trkpt>
      <trkpt lat="42.01138" lon="1.00969">
        <ele>1002.8</ele>
        <time>2019-01-31T00:19:42Z</time>
      </trkpt>
      <trkpt lat="42.01139" lon="1.00955">
        <ele>1003.3</ele>
        <time>2019-01-31T00:19:48Z</time>
      </trkpt>
      <trkpt lat="42.01141" lon="1.0094">
        <ele>1003.3</ele>
        <time>2019-01-31T00:19:54Z</time>
      </trkpt>
      <trkpt lat="42.01142" lon="1.00926">
        <ele>1003.8</ele>
        <time>2019-01-31T00:20:00Z</time>
      </trkpt>
      <trkpt lat="42.01143" lon="1.00912">
        <ele>1004.2</ele>
        <time>2019-01-31T00:20:06Z</time>
      </trkpt>
      <trkpt lat="42.01143" lon="1.00898">
        <ele>1004.2</ele>
        <time>2019-01-31T00:20:12Z</time>
      </trkpt>
      <trkpt lat="42.01143" lon="1.00886">
        <ele>1004.8</ele>
        <time>2019-01-31T00:20:17Z</time>
      </trkpt>
      <trkpt lat="42.01144" lon="1.00872">
        <ele>1005.2</ele>
        <time>2019-01-31T00:20:23Z</time>
      </trkpt>
      <trkpt lat="42.01147" lon="1.00858">
        <ele>1005.7</ele>
        <time>2019-01-31T00:20:29Z</time>
      </trkpt>
      <trkpt lat="42.0115" lon="1.00844">
        <ele>1006.2</ele>
        <time>2019-01-31T00:20:36Z</time>
      </trkpt>
      <trkpt lat="42.01154" lon="1.00831">
        <ele>1006.3</ele>
        <time>2019-01-31T00:20:42Z</time>
      </trkpt>
      <trkpt lat="42.01158" lon="1.00819">
        <ele>1006.7</ele>
        <time>2019-01-31T00:20:47Z</time>
      </trkpt>
      <trkpt lat="42.01162" lon="1.00804">
        <ele>1007.2</ele>
        <time>2019-01-31T00:20:54Z</time>
      </trkpt>
      <trkpt lat="42.01167" lon="1.00791">
        <ele>1007.1</ele>
        <time>2019-01-31T00:21:00Z</time>
      </trkpt>
      <trkpt lat="42.01169" lon="1.00778">
        <ele>1007.2</ele>
        <time>2019-01-31T00:21:06Z</time>
      </trkpt>
      <trkpt lat="42.01173" lon="1.00763">
        <ele>1007.1</ele>
        <time>2019-01-31T00:21:12Z</time>
      </trkpt>
      <trkpt lat="42.01175" lon="1.0075">
        <ele>1007.1</ele>
        <time>2019-01-31T00:21:18Z</time>
      </trkpt>
      <trkpt lat="42.01179" lon="1.00738">
        <ele>1007.1</ele>
        <time>2019-01-31T00:21:24Z</time>
      </trkpt>
      <trkpt lat="42.01184" lon="1.00726">
        <ele>1007.2</ele>
        <time>2019-01-31T00:21:30Z</time>
      </trkpt>
      <trkpt lat="42.01188" lon="1.00713">
        <ele>1007.1</ele>
        <time>2019-01-31T00:21:36Z</time>
      </trkpt>
      <trkpt lat="42.01195" lon="1.00704">
        <ele>1007.6</ele>
        <time>2019-01-31T00:21:41Z</time>
      </trkpt>
      <trkpt lat="42.01202" lon="1.00694">
        <ele>1008.1</ele>
        <time>2019-01-31T00:21:47Z</time>
      </trkpt>
      <trkpt lat="42.01207" lon="1.00682">
        <ele>1008.2</ele>
        <time>2019-01-31T00:21:53Z</time>
      </trkpt>
      <trkpt lat="42.01213" lon="1.00671">
        <ele>1008.2</ele>
        <time>2019-01-31T00:21:59Z</time>
      </trkpt>
      <trkpt lat="42.01218" lon="1.00657">
        <ele>1008.2</ele>
        <time>2019-01-31T00:22:05Z</time>
      </trkpt>
      <trkpt lat="42.01225" lon="1.00645">
        <ele>1006.6</ele>
        <time>2019-01-31T00:22:12Z</time>
      </trkpt>
      <trkpt lat="42.01233" lon="1.00636">
        <ele>1006.7</ele>
        <time>2019-01-31T00:22:18Z</time>
      </trkpt>
      <trkpt lat="42.01239" lon="1.00625">
        <ele>1006.6</ele>
        <time>2019-01-31T00:22:23Z</time>
      </trkpt>
      <trkpt lat="42.0124" lon="1.00615">
        <ele>1006.6</ele>
        <time>2019-01-31T00:22:28Z</time>
      </trkpt>
      <trkpt lat="42.01236" lon="1.00604">
        <ele>1006.6</ele>
        <time>2019-01-31T00:22:32Z</time>
      </trkpt>
      <trkpt lat="42.01229" lon="1.00599">
        <ele>1006.6</ele>
        <time>2019-01-31T00:22:37Z</time>
      </trkpt>
      <trkpt lat="42.01221" lon="1.00593">
        <ele>1008.6</ele>
        <time>2019-01-31T00:22:43Z</time>
      </trkpt>
      <trkpt lat="42.01213" lon="1.00585">
        <ele>1010</ele>
        <time>2019-01-31T00:22:48Z</time>
      </trkpt>
      <trkpt lat="42.01205" lon="1.00577">
        <ele>1011.5</ele>
        <time>2019-01-31T00:22:54Z</time>
      </trkpt>
      <trkpt lat="42.01196" lon="1.00568">
        <ele>1012</ele>
        <time>2019-01-31T00:23:00Z</time>
      </trkpt>
      <trkpt lat="42.01188" lon="1.00559">
        <ele>1012.4</ele>
        <time>2019-01-31T00:23:06Z</time>
      </trkpt>
      <trkpt lat="42.01182" lon="1.00549">
        <ele>1012.4</ele>
        <time>2019-01-31T00:23:12Z</time>
      </trkpt>
      <trkpt lat="42.01177" lon="1.00536">
        <ele>1012.5</ele>
        <time>2019-01-31T00:23:18Z</time>
      </trkpt>
      <trkpt lat="42.01175" lon="1.00517">
        <ele>1013.5</ele>
        <time>2019-01-31T00:23:26Z</time>
      </trkpt>
      <trkpt lat="42.01176" lon="1.00502">
        <ele>1013.4</ele>
        <time>2019-01-31T00:23:33Z</time>
      </trkpt>
      <trkpt lat="42.01177" lon="1.00489">
        <ele>1014</ele>
        <time>2019-01-31T00:23:38Z</time>
      </trkpt>
      <trkpt lat="42.01177" lon="1.00475">
        <ele>1014.3</ele>
        <time>2019-01-31T00:23:44Z</time>
      </trkpt>
      <trkpt lat="42.01176" lon="1.00463">
        <ele>1014.8</ele>
        <time>2019-01-31T00:23:49Z</time>
      </trkpt>
      <trkpt lat="42.01174" lon="1.00448">
        <ele>1015.4</ele>
        <time>2019-01-31T00:23:55Z</time>
      </trkpt>
      <trkpt lat="42.01174" lon="1.00434">
        <ele>1016.3</ele>
        <time>2019-01-31T00:24:01Z</time>
      </trkpt>
      <trkpt lat="42.01175" lon="1.0042">
        <ele>1016.8</ele>
        <time>2019-01-31T00:24:08Z</time>
      </trkpt>
      <trkpt lat="42.01173" lon="1.00406">
        <ele>1017.3</ele>
        <time>2019-01-31T00:24:13Z</time>
      </trkpt>
      <trkpt lat="42.01172" lon="1.00393">
        <ele>1017.3</ele>
        <time>2019-01-31T00:24:19Z</time>
      </trkpt>
      <trkpt lat="42.01172" lon="1.00381">
        <ele>1018.2</ele>
        <time>2019-01-31T00:24:24Z</time>
      </trkpt>
      <trkpt lat="42.01172" lon="1.00366">
        <ele>1019.1</ele>
        <time>2019-01-31T00:24:31Z</time>
      </trkpt>
      <trkpt lat="42.01172" lon="1.00353">
        <ele>1019.7</ele>
        <time>2019-01-31T00:24:36Z</time>
      </trkpt>
      <trkpt lat="42.0117" lon="1.00339">
        <ele>1020.1</ele>
        <time>2019-01-31T00:24:42Z</time>
      </trkpt>
      <trkpt lat="42.01169" lon="1.00326">
        <ele>1021.1</ele>
        <time>2019-01-31T00:24:48Z</time>
      </trkpt>
      <trkpt lat="42.01172" lon="1.00313">
        <ele>1022.5</ele>
        <time>2019-01-31T00:24:54Z</time>
      </trkpt>
      <trkpt lat="42.01181" lon="1.00306">
        <ele>1023.6</ele>
        <time>2019-01-31T00:24:59Z</time>
      </trkpt>
      <trkpt lat="42.0119" lon="1.00303">
        <ele>1025.4</ele>
        <time>2019-01-31T00:25:05Z</time>
      </trkpt>
      <trkpt lat="42.01199" lon="1.00297">
        <ele>1026.3</ele>
        <time>2019-01-31T00:25:10Z</time>
      </trkpt>
      <trkpt lat="42.01207" lon="1.00292">
        <ele>1027.9</ele>
        <time>2019-01-31T00:25:16Z</time>
      </trkpt>
      <trkpt lat="42.01212" lon="1.00286">
        <ele>1030.2</ele>
        <time>2019-01-31T00:25:20Z</time>
      </trkpt>
      <trkpt lat="42.01217" lon="1.00277">
        <ele>1031.6</ele>
        <time>2019-01-31T00:25:24Z</time>
      </trkpt>
      <trkpt lat="42.01223" lon="1.00267">
        <ele>1033.2</ele>
        <time>2019-01-31T00:25:30Z</time>
      </trkpt>
      <trkpt lat="42.01228" lon="1.00256">
        <ele>1034</ele>
        <time>2019-01-31T00:25:35Z</time>
      </trkpt>
      <trkpt lat="42.01232" lon="1.00245">
        <ele>1034.5</ele>
        <time>2019-01-31T00:25:40Z</time>
      </trkpt>
      <trkpt lat="42.01236" lon="1.00233">
        <ele>1036</ele>
        <time>2019-01-31T00:25:46Z</time>
      </trkpt>
      <trkpt lat="42.01238" lon="1.00221">
        <ele>1037.4</ele>
        <time>2019-01-31T00:25:51Z</time>
      </trkpt>
      <trkpt lat="42.01239" lon="1.00207">
        <ele>1038.4</ele>
        <time>2019-01-31T00:25:57Z</time>
      </trkpt>
      <trkpt lat="42.01238" lon="1.00194">
        <ele>1038.5</ele>
        <time>2019-01-31T00:26:03Z</time>
      </trkpt>
      <trkpt lat="42.01235" lon="1.0018">
        <ele>1039.4</ele>
        <time>2019-01-31T00:26:09Z</time>
      </trkpt>
      <trkpt lat="42.01235" lon="1.00168">
        <ele>1039.3</ele>
        <time>2019-01-31T00:26:14Z</time>
      </trkpt>
      <trkpt lat="42.01235" lon="1.00154">
        <ele>1039.8</ele>
        <time>2019-01-31T00:26:20Z</time>
      </trkpt>
      <trkpt lat="42.01237" lon="1.00141">
        <ele>1041.3</ele>
        <time>2019-01-31T00:26:26Z</time>
      </trkpt>
      <trkpt lat="42.0124" lon="1.00129">
        <ele>1042.7</ele>
        <time>2019-01-31T00:26:31Z</time>
      </trkpt>
      <trkpt lat="42.01242" lon="1.00116">
        <ele>1043.2</ele>
        <time>2019-01-31T00:26:37Z</time>
      </trkpt>
      <trkpt lat="42.01245" lon="1.00103">
        <ele>1044.1</ele>
        <time>2019-01-31T00:26:42Z</time>
      </trkpt>
      <trkpt lat="42.01251" lon="1.00093">
        <ele>1045.6</ele>
        <time>2019-01-31T00:26:48Z</time>
      </trkpt>
      <trkpt lat="42.01258" lon="1.00084">
        <ele>1047</ele>
        <time>2019-01-31T00:26:53Z</time>
      </trkpt>
      <trkpt lat="42.01265" lon="1.00078">
        <ele>1048.5</ele>
        <time>2019-01-31T00:26:58Z</time>
      </trkpt>
      <trkpt lat="42.01274" lon="1.00073">
        <ele>1050</ele>
        <time>2019-01-31T00:27:04Z</time>
      </trkpt>
      <trkpt lat="42.01283" lon="1.00069">
        <ele>1051.4</ele>
        <time>2019-01-31T00:27:09Z</time>
      </trkpt>
      <trkpt lat="42.01292" lon="1.00065">
        <ele>1052.9</ele>
        <time>2019-01-31T00:27:14Z</time>
      </trkpt>
      <trkpt lat="42.01301" lon="1.00061">
        <ele>1054.3</ele>
        <time>2019-01-31T00:27:20Z</time>
      </trkpt>
      <trkpt lat="42.0131" lon="1.00058">
        <ele>1055.3</ele>
        <time>2019-01-31T00:27:25Z</time>
      </trkpt>
      <trkpt lat="42.01319" lon="1.00056">
        <ele>1056.6</ele>
        <time>2019-01-31T00:27:31Z</time>
      </trkpt>
      <trkpt lat="42.01323" lon="1.0007">
        <ele>1058.1</ele>
        <time>2019-01-31T00:27:37Z</time>
      </trkpt>
      <trkpt lat="42.01324" lon="1.00084">
        <ele>1058.7</ele>
        <time>2019-01-31T00:27:43Z</time>
      </trkpt>
      <trkpt lat="42.01325" lon="1.00099">
        <ele>1059.5</ele>
        <time>2019-01-31T00:27:49Z</time>
      </trkpt>
      <trkpt lat="42.01327" lon="1.00113">
        <ele>1060.5</ele>
        <time>2019-01-31T00:27:55Z</time>
      </trkpt>
      <trkpt lat="42.01327" lon="1.00127">
        <ele>1060.5</ele>
        <time>2019-01-31T00:28:01Z</time>
      </trkpt>
      <trkpt lat="42.01328" lon="1.00141">
        <ele>1061.1</ele>
        <time>2019-01-31T00:28:07Z</time>
      </trkpt>
      <trkpt lat="42.01328" lon="1.00155">
        <ele>1061.1</ele>
        <time>2019-01-31T00:28:13Z</time>
      </trkpt>
      <trkpt lat="42.0133" lon="1.00166">
        <ele>1062.5</ele>
        <time>2019-01-31T00:28:18Z</time>
      </trkpt>
      <trkpt lat="42.01332" lon="1.00179">
        <ele>1063.9</ele>
        <time>2019-01-31T00:28:24Z</time>
      </trkpt>
      <trkpt lat="42.01338" lon="1.00189">
        <ele>1065.9</ele>
        <time>2019-01-31T00:28:29Z</time>
      </trkpt>
      <trkpt lat="42.01344" lon="1.00197">
        <ele>1067.8</ele>
        <time>2019-01-31T00:28:34Z</time>
      </trkpt>
      <trkpt lat="42.0135" lon="1.00208">
        <ele>1069.2</ele>
        <time>2019-01-31T00:28:40Z</time>
      </trkpt>
      <trkpt lat="42.01354" lon="1.0022">
        <ele>1070.6</ele>
        <time>2019-01-31T00:28:45Z</time>
      </trkpt>
      <trkpt lat="42.01359" lon="1.00232">
        <ele>1071.5</ele>
        <time>2019-01-31T00:28:51Z</time>
      </trkpt>
      <trkpt lat="42.01367" lon="1.0024">
        <ele>1072</ele>
        <time>2019-01-31T00:28:57Z</time>
      </trkpt>
      <trkpt lat="42.01375" lon="1.00248">
        <ele>1073.6</ele>
        <time>2019-01-31T00:29:03Z</time>
      </trkpt>
      <trkpt lat="42.01383" lon="1.00256">
        <ele>1074.4</ele>
        <time>2019-01-31T00:29:08Z</time>
      </trkpt>
      <trkpt lat="42.0139" lon="1.00268">
        <ele>1075.5</ele>
        <time>2019-01-31T00:29:15Z</time>
      </trkpt>
      <trkpt lat="42.01397" lon="1.0028">
        <ele>1075.9</ele>
        <time>2019-01-31T00:29:21Z</time>
      </trkpt>
      <trkpt lat="42.01403" lon="1.00291">
        <ele>1076.4</ele>
        <time>2019-01-31T00:29:27Z</time>
      </trkpt>
      <trkpt lat="42.01409" lon="1.00302">
        <ele>1077.8</ele>
        <time>2019-01-31T00:29:33Z</time>
      </trkpt>
      <trkpt lat="42.01415" lon="1.00314">
        <ele>1079.2</ele>
        <time>2019-01-31T00:29:39Z</time>
      </trkpt>
      <trkpt lat="42.0142" lon="1.00325">
        <ele>1079.3</ele>
        <time>2019-01-31T00:29:44Z</time>
      </trkpt>
      <trkpt lat="42.01424" lon="1.00337">
        <ele>1079.7</ele>
        <time>2019-01-31T00:29:50Z</time>
      </trkpt>
      <trkpt lat="42.01428" lon="1.00349">
        <ele>1080.2</ele>
        <time>2019-01-31T00:29:56Z</time>
      </trkpt>
      <trkpt lat="42.0143" lon="1.00363">
        <ele>1080.2</ele>
        <time>2019-01-31T00:30:01Z</time>
      </trkpt>
      <trkpt lat="42.01434" lon="1.00374">
        <ele>1080.7</ele>
        <time>2019-01-31T00:30:07Z</time>
      </trkpt>
      <trkpt lat="42.01438" lon="1.00387">
        <ele>1080.8</ele>
        <time>2019-01-31T00:30:13Z</time>
      </trkpt>
      <trkpt lat="42.01443" lon="1.00402">
        <ele>1079.8</ele>
        <time>2019-01-31T00:30:20Z</time>
      </trkpt>
      <trkpt lat="42.01447" lon="1.00415">
        <ele>1078.3</ele>
        <time>2019-01-31T00:30:26Z</time>
      </trkpt>
      <trkpt lat="42.01454" lon="1.00424">
        <ele>1078.3</ele>
        <time>2019-01-31T00:30:31Z</time>
      </trkpt>
      <trkpt lat="42.01462" lon="1.00432">
        <ele>1078.4</ele>
        <time>2019-01-31T00:30:37Z</time>
      </trkpt>
      <trkpt lat="42.01469" lon="1.00439">
        <ele>1078.3</ele>
        <time>2019-01-31T00:30:42Z</time>
      </trkpt>
      <trkpt lat="42.01477" lon="1.00451">
        <ele>1078.4</ele>
        <time>2019-01-31T00:30:49Z</time>
      </trkpt>
      <trkpt lat="42.01482" lon="1.00463">
        <ele>1078.4</ele>
        <time>2019-01-31T00:30:55Z</time>
      </trkpt>
      <trkpt lat="42.01486" lon="1.00475">
        <ele>1078.3</ele>
        <time>2019-01-31T00:31:01Z</time>
      </trkpt>
      <trkpt lat="42.01492" lon="1.00487">
        <ele>1076.8</ele>
        <time>2019-01-31T00:31:07Z</time>
      </trkpt>
      <trkpt lat="42.01498" lon="1.00496">
        <ele>1076.4</ele>
        <time>2019-01-31T00:31:12Z</time>
      </trkpt>
      <trkpt lat="42.01505" lon="1.00502">
        <ele>1076.4</ele>
        <time>2019-01-31T00:31:17Z</time>
      </trkpt>
      <trkpt lat="42.01513" lon="1.00508">
        <ele>1076.3</ele>
        <time>2019-01-31T00:31:22Z</time>
      </trkpt>
      <trkpt lat="42.01522" lon="1.00513">
        <ele>1077.8</ele>
        <time>2019-01-31T00:31:27Z</time>
      </trkpt>
      <trkpt lat="42.01528" lon="1.00519">
        <ele>1078.4</ele>
        <time>2019-01-31T00:31:32Z</time>
      </trkpt>
      <trkpt lat="42.01539" lon="1.00523">
        <ele>1079.2</ele>
        <time>2019-01-31T00:31:38Z</time>
      </trkpt>
      <trkpt lat="42.01549" lon="1.00532">
        <ele>1079.2</ele>
        <time>2019-01-31T00:31:45Z</time>
      </trkpt>
      <trkpt lat="42.01556" lon="1.00539">
        <ele>1079.3</ele>
        <time>2019-01-31T00:31:50Z</time>
      </trkpt>
      <trkpt lat="42.01564" lon="1.00546">
        <ele>1080.7</ele>
        <time>2019-01-31T00:31:56Z</time>
      </trkpt>
      <trkpt lat="42.01573" lon="1.00553">
        <ele>1081.1</ele>
        <time>2019-01-31T00:32:01Z</time>
      </trkpt>
      <trkpt lat="42.01579" lon="1.00558">
        <ele>1081.6</ele>
        <time>2019-01-31T00:32:05Z</time>
      </trkpt>
      <trkpt lat="42.01587" lon="1.00567">
        <ele>1081.6</ele>
        <time>2019-01-31T00:32:11Z</time>
      </trkpt>
      <trkpt lat="42.01593" lon="1.00576">
        <ele>1082.2</ele>
        <time>2019-01-31T00:32:16Z</time>
      </trkpt>
      <trkpt lat="42.01601" lon="1.00585">
        <ele>1082.1</ele>
        <time>2019-01-31T00:32:22Z</time>
      </trkpt>
      <trkpt lat="42.01608" lon="1.00592">
        <ele>1082.2</ele>
        <time>2019-01-31T00:32:27Z</time>
      </trkpt>
      <trkpt lat="42.01615" lon="1.00601">
        <ele>1083.6</ele>
        <time>2019-01-31T00:32:33Z</time>
      </trkpt>
      <trkpt lat="42.01624" lon="1.00604">
        <ele>1084.6</ele>
        <time>2019-01-31T00:32:38Z</time>
      </trkpt>
      <trkpt lat="42.01633" lon="1.00598">
        <ele>1086.5</ele>
        <time>2019-01-31T00:32:44Z</time>
      </trkpt>
      <trkpt lat="42.01642" lon="1.0059">
        <ele>1088.5</ele>
        <time>2019-01-31T00:32:50Z</time>
      </trkpt>
      <trkpt lat="42.01649" lon="1.00581">
        <ele>1090.3</ele>
        <time>2019-01-31T00:32:55Z</time>
      </trkpt>
      <trkpt lat="42.01657" lon="1.00572">
        <ele>1091.7</ele>
        <time>2019-01-31T00:33:01Z</time>
      </trkpt>
      <trkpt lat="42.01665" lon="1.00563">
        <ele>1094.6</ele>
        <time>2019-01-31T00:33:07Z</time>
      </trkpt>
      <trkpt lat="42.01675" lon="1.00555">
        <ele>1096.6</ele>
        <time>2019-01-31T00:33:14Z</time>
      </trkpt>
      <trkpt lat="42.01686" lon="1.00554">
        <ele>1097.6</ele>
        <time>2019-01-31T00:33:20Z</time>
      </trkpt>
      <trkpt lat="42.01697" lon="1.0056">
        <ele>1099.9</ele>
        <time>2019-01-31T00:33:27Z</time>
      </trkpt>
      <trkpt lat="42.01706" lon="1.00567">
        <ele>1100.4</ele>
        <time>2019-01-31T00:33:33Z</time>
      </trkpt>
      <trkpt lat="42.01715" lon="1.00574">
        <ele>1102.3</ele>
        <time>2019-01-31T00:33:39Z</time>
      </trkpt>
      <trkpt lat="42.01723" lon="1.00583">
        <ele>1103.8</ele>
        <time>2019-01-31T00:33:45Z</time>
      </trkpt>
      <trkpt lat="42.01729" lon="1.00595">
        <ele>1104.7</ele>
        <time>2019-01-31T00:33:51Z</time>
      </trkpt>
      <trkpt lat="42.01732" lon="1.00608">
        <ele>1105.2</ele>
        <time>2019-01-31T00:33:57Z</time>
      </trkpt>
      <trkpt lat="42.01735" lon="1.00622">
        <ele>1105.2</ele>
        <time>2019-01-31T00:34:03Z</time>
      </trkpt>
      <trkpt lat="42.01738" lon="1.00634">
        <ele>1105.2</ele>
        <time>2019-01-31T00:34:08Z</time>
      </trkpt>
      <trkpt lat="42.01741" lon="1.00646">
        <ele>1105.2</ele>
        <time>2019-01-31T00:34:14Z</time>
      </trkpt>
      <trkpt lat="42.01745" lon="1.00656">
        <ele>1105.2</ele>
        <time>2019-01-31T00:34:19Z</time>
      </trkpt>
      <trkpt lat="42.01752" lon="1.00668">
        <ele>1106.7</ele>
        <time>2019-01-31T00:34:25Z</time>
      </trkpt>
      <trkpt lat="42.01755" lon="1.00681">
        <ele>1107.7</ele>
        <time>2019-01-31T00:34:30Z</time>
      </trkpt>
      <trkpt lat="42.01755" lon="1.00694">
        <ele>1109</ele>
        <time>2019-01-31T00:34:36Z</time>
      </trkpt>
      <trkpt lat="42.01753" lon="1.00706">
        <ele>1110.1</ele>
        <time>2019-01-31T00:34:41Z</time>
      </trkpt>
      <trkpt lat="42.0175" lon="1.00719">
        <ele>1111</ele>
        <time>2019-01-31T00:34:47Z</time>
      </trkpt>
      <trkpt lat="42.01748" lon="1.00733">
        <ele>1111.5</ele>
        <time>2019-01-31T00:34:53Z</time>
      </trkpt>
      <trkpt lat="42.01748" lon="1.00748">
        <ele>1111.9</ele>
        <time>2019-01-31T00:35:00Z</time>
      </trkpt>
      <trkpt lat="42.01747" lon="1.00761">
        <ele>1111</ele>
        <time>2019-01-31T00:35:05Z</time>
      </trkpt>
      <trkpt lat="42.01745" lon="1.00775">
        <ele>1109.5</ele>
        <time>2019-01-31T00:35:11Z</time>
      </trkpt>
      <trkpt lat="42.01741" lon="1.00789">
        <ele>1109</ele>
        <time>2019-01-31T00:35:18Z</time>
      </trkpt>
      <trkpt lat="42.01738" lon="1.00803">
        <ele>1109.1</ele>
        <time>2019-01-31T00:35:24Z</time>
      </trkpt>
      <trkpt lat="42.01733" lon="1.00815">
        <ele>1108.5</ele>
        <time>2019-01-31T00:35:30Z</time>
      </trkpt>
      <trkpt lat="42.01728" lon="1.00827">
        <ele>1107.7</ele>
        <time>2019-01-31T00:35:35Z</time>
      </trkpt>
      <trkpt lat="42.01722" lon="1.00838">
        <ele>1106.1</ele>
        <time>2019-01-31T00:35:42Z</time>
      </trkpt>
      <trkpt lat="42.01714" lon="1.00848">
        <ele>1105.3</ele>
        <time>2019-01-31T00:35:48Z</time>
      </trkpt>
      <trkpt lat="42.01707" lon="1.00859">
        <ele>1104.7</ele>
        <time>2019-01-31T00:35:54Z</time>
      </trkpt>
      <trkpt lat="42.01701" lon="1.00869">
        <ele>1104.7</ele>
        <time>2019-01-31T00:35:59Z</time>
      </trkpt>
      <trkpt lat="42.01694" lon="1.00878">
        <ele>1104.7</ele>
        <time>2019-01-31T00:36:05Z</time>
      </trkpt>
      <trkpt lat="42.01688" lon="1.00888">
        <ele>1104.2</ele>
        <time>2019-01-31T00:36:10Z</time>
      </trkpt>
      <trkpt lat="42.01682" lon="1.00898">
        <ele>1103.7</ele>
        <time>2019-01-31T00:36:16Z</time>
      </trkpt>
      <trkpt lat="42.01682" lon="1.0091">
        <ele>1103.7</ele>
        <time>2019-01-31T00:36:21Z</time>
      </trkpt>
      <trkpt lat="42.0169" lon="1.00918">
        <ele>1106.2</ele>
        <time>2019-01-31T00:36:26Z</time>
      </trkpt>
      <trkpt lat="42.01696" lon="1.00919">
        <ele>1108.2</ele>
        <time>2019-01-31T00:36:30Z</time>
      </trkpt>
      <trkpt lat="42.01706" lon="1.00918">
        <ele>1109.5</ele>
        <time>2019-01-31T00:36:35Z</time>
      </trkpt>
      <trkpt lat="42.01716" lon="1.00919">
        <ele>1112.4</ele>
        <time>2019-01-31T00:36:41Z</time>
      </trkpt>
      <trkpt lat="42.01726" lon="1.00918">
        <ele>1115.3</ele>
        <time>2019-01-31T00:36:47Z</time>
      </trkpt>
      <trkpt lat="42.01735" lon="1.00915">
        <ele>1119.2</ele>
        <time>2019-01-31T00:36:52Z</time>
      </trkpt>
      <trkpt lat="42.01745" lon="1.00913">
        <ele>1122.5</ele>
        <time>2019-01-31T00:36:58Z</time>
      </trkpt>
      <trkpt lat="42.01754" lon="1.00907">
        <ele>1125.5</ele>
        <time>2019-01-31T00:37:04Z</time>
      </trkpt>
      <trkpt lat="42.01765" lon="1.00906">
        <ele>1127.9</ele>
        <time>2019-01-31T00:37:10Z</time>
      </trkpt>
      <trkpt lat="42.01773" lon="1.00904">
        <ele>1131.1</ele>
        <time>2019-01-31T00:37:15Z</time>
      </trkpt>
      <trkpt lat="42.01784" lon="1.00898">
        <ele>1135.5</ele>
        <time>2019-01-31T00:37:21Z</time>
      </trkpt>
      <trkpt lat="42.0179" lon="1.00888">
        <ele>1137.5</ele>
        <time>2019-01-31T00:37:27Z</time>
      </trkpt>
      <trkpt lat="42.018" lon="1.00885">
        <ele>1140.3</ele>
        <time>2019-01-31T00:37:33Z</time>
      </trkpt>
      <trkpt lat="42.0181" lon="1.00883">
        <ele>1145.2</ele>
        <time>2019-01-31T00:37:39Z</time>
      </trkpt>
      <trkpt lat="42.01815" lon="1.00874">
        <ele>1148.4</ele>
        <time>2019-01-31T00:37:43Z</time>
      </trkpt>
      <trkpt lat="42.01821" lon="1.00863">
        <ele>1151.4</ele>
        <time>2019-01-31T00:37:49Z</time>
      </trkpt>
      <trkpt lat="42.0183" lon="1.00855">
        <ele>1154.7</ele>
        <time>2019-01-31T00:37:55Z</time>
      </trkpt>
      <trkpt lat="42.01841" lon="1.00854">
        <ele>1157.6</ele>
        <time>2019-01-31T00:38:02Z</time>
      </trkpt>
      <trkpt lat="42.01845" lon="1.00867">
        <ele>1159.6</ele>
        <time>2019-01-31T00:38:08Z</time>
      </trkpt>
      <trkpt lat="42.01849" lon="1.00881">
        <ele>1161.4</ele>
        <time>2019-01-31T00:38:14Z</time>
      </trkpt>
      <trkpt lat="42.0185" lon="1.00886">
        <ele>1163.3</ele>
        <time>2019-01-31T00:38:16Z</time>
      </trkpt>
      <trkpt lat="42.01851" lon="1.00879">
        <ele>1165.3</ele>
        <time>2019-01-31T00:38:19Z</time>
      </trkpt>
      <trkpt lat="42.01857" lon="1.00869">
        <ele>1168.1</ele>
        <time>2019-01-31T00:38:25Z</time>
      </trkpt>
      <trkpt lat="42.01868" lon="1.00863">
        <ele>1173.1</ele>
        <time>2019-01-31T00:38:31Z</time>
      </trkpt>
      <trkpt lat="42.01877" lon="1.00853">
        <ele>1178.3</ele>
        <time>2019-01-31T00:38:38Z</time>
      </trkpt>
      <trkpt lat="42.0189" lon="1.00854">
        <ele>1183.1</ele>
        <time>2019-01-31T00:38:45Z</time>
      </trkpt>
      <trkpt lat="42.01899" lon="1.00864">
        <ele>1191.8</ele>
        <time>2019-01-31T00:38:52Z</time>
      </trkpt>
      <trkpt lat="42.01903" lon="1.00855">
        <ele>1194.2</ele>
        <time>2019-01-31T00:38:56Z</time>
      </trkpt>
      <trkpt lat="42.01913" lon="1.00865">
        <ele>1198.4</ele>
        <time>2019-01-31T00:39:03Z</time>
      </trkpt>
      <trkpt lat="42.01919" lon="1.00863">
        <ele>1204.8</ele>
        <time>2019-01-31T00:39:07Z</time>
      </trkpt>
      <trkpt lat="42.01927" lon="1.00866">
        <ele>1208.1</ele>
        <time>2019-01-31T00:39:12Z</time>
      </trkpt>
      <trkpt lat="42.01934" lon="1.00883">
        <ele>1212.4</ele>
        <time>2019-01-31T00:39:20Z</time>
      </trkpt>
      <trkpt lat="42.0194" lon="1.00891">
        <ele>1218.6</ele>
        <time>2019-01-31T00:39:25Z</time>
      </trkpt>
      <trkpt lat="42.01952" lon="1.00914">
        <ele>1227.4</ele>
        <time>2019-01-31T00:39:37Z</time>
      </trkpt>
      <trkpt lat="42.01953" lon="1.0092">
        <ele>1232.2</ele>
        <time>2019-01-31T00:39:40Z</time>
      </trkpt>
      <trkpt lat="42.01959" lon="1.00912">
        <ele>1237.9</ele>
        <time>2019-01-31T00:39:44Z</time>
      </trkpt>
      <trkpt lat="42.01967" lon="1.00924">
        <ele>1240.2</ele>
        <time>2019-01-31T00:39:51Z</time>
      </trkpt>
      <trkpt lat="42.01969" lon="1.00938">
        <ele>1242.3</ele>
        <time>2019-01-31T00:39:57Z</time>
      </trkpt>
      <trkpt lat="42.01977" lon="1.00944">
        <ele>1251.9</ele>
        <time>2019-01-31T00:40:02Z</time>
      </trkpt>
      <trkpt lat="42.01984" lon="1.00928">
        <ele>1258.6</ele>
        <time>2019-01-31T00:40:10Z</time>
      </trkpt>
      <trkpt lat="42.01987" lon="1.00913">
        <ele>1260.4</ele>
        <time>2019-01-31T00:40:16Z</time>
      </trkpt>
      <trkpt lat="42.01992" lon="1.00901">
        <ele>1262.8</ele>
        <time>2019-01-31T00:40:22Z</time>
      </trkpt>
      <trkpt lat="42.01994" lon="1.00886">
        <ele>1266.7</ele>
        <time>2019-01-31T00:40:29Z</time>
      </trkpt>
      <trkpt lat="42.01996" lon="1.00872">
        <ele>1269.6</ele>
        <time>2019-01-31T00:40:35Z</time>
      </trkpt>
      <trkpt lat="42.01997" lon="1.00858">
        <ele>1271</ele>
        <time>2019-01-31T00:40:41Z</time>
      </trkpt>
      <trkpt lat="42.01998" lon="1.00843">
        <ele>1273.4</ele>
        <time>2019-01-31T00:40:47Z</time>
      </trkpt>
      <trkpt lat="42.0201" lon="1.00825">
        <ele>1279.2</ele>
        <time>2019-01-31T00:40:57Z</time>
      </trkpt>
      <trkpt lat="42.02022" lon="1.00818">
        <ele>1282.2</ele>
        <time>2019-01-31T00:41:05Z</time>
      </trkpt>
      <trkpt lat="42.02031" lon="1.00812">
        <ele>1283.1</ele>
        <time>2019-01-31T00:41:11Z</time>
      </trkpt>
      <trkpt lat="42.02037" lon="1.00802">
        <ele>1284.9</ele>
        <time>2019-01-31T00:41:16Z</time>
      </trkpt>
      <trkpt lat="42.02038" lon="1.00791">
        <ele>1287</ele>
        <time>2019-01-31T00:41:21Z</time>
      </trkpt>
      <trkpt lat="42.02038" lon="1.00778">
        <ele>1289.3</ele>
        <time>2019-01-31T00:41:26Z</time>
      </trkpt>
      <trkpt lat="42.02043" lon="1.00764">
        <ele>1291.7</ele>
        <time>2019-01-31T00:41:33Z</time>
      </trkpt>
      <trkpt lat="42.0204" lon="1.0075">
        <ele>1294.1</ele>
        <time>2019-01-31T00:41:39Z</time>
      </trkpt>
      <trkpt lat="42.02036" lon="1.00739">
        <ele>1295</ele>
        <time>2019-01-31T00:41:45Z</time>
      </trkpt>
      <trkpt lat="42.02035" lon="1.00727">
        <ele>1296</ele>
        <time>2019-01-31T00:41:50Z</time>
      </trkpt>
      <trkpt lat="42.02033" lon="1.00715">
        <ele>1297</ele>
        <time>2019-01-31T00:41:55Z</time>
      </trkpt>
      <trkpt lat="42.02029" lon="1.00702">
        <ele>1298.5</ele>
        <time>2019-01-31T00:42:01Z</time>
      </trkpt>
      <trkpt lat="42.02036" lon="1.00688">
        <ele>1300.8</ele>
        <time>2019-01-31T00:42:08Z</time>
      </trkpt>
      <trkpt lat="42.02046" lon="1.00687">
        <ele>1304.2</ele>
        <time>2019-01-31T00:42:14Z</time>
      </trkpt>
      <trkpt lat="42.02055" lon="1.00676">
        <ele>1311</ele>
        <time>2019-01-31T00:42:21Z</time>
      </trkpt>
      <trkpt lat="42.02068" lon="1.00678">
        <ele>1314.7</ele>
        <time>2019-01-31T00:42:28Z</time>
      </trkpt>
      <trkpt lat="42.02073" lon="1.00672">
        <ele>1318.1</ele>
        <time>2019-01-31T00:42:32Z</time>
      </trkpt>
      <trkpt lat="42.02077" lon="1.00663">
        <ele>1321.5</ele>
        <time>2019-01-31T00:42:36Z</time>
      </trkpt>
      <trkpt lat="42.02085" lon="1.00653">
        <ele>1324.8</ele>
        <time>2019-01-31T00:42:43Z</time>
      </trkpt>
      <trkpt lat="42.02093" lon="1.00656">
        <ele>1329.2</ele>
        <time>2019-01-31T00:42:48Z</time>
      </trkpt>
      <trkpt lat="42.02103" lon="1.00663">
        <ele>1333.6</ele>
        <time>2019-01-31T00:42:54Z</time>
      </trkpt>
      <trkpt lat="42.02109" lon="1.0066">
        <ele>1338.8</ele>
        <time>2019-01-31T00:42:58Z</time>
      </trkpt>
      <trkpt lat="42.02121" lon="1.00657">
        <ele>1344.6</ele>
        <time>2019-01-31T00:43:05Z</time>
      </trkpt>
      <trkpt lat="42.02123" lon="1.00647">
        <ele>1346.6</ele>
        <time>2019-01-31T00:43:09Z</time>
      </trkpt>
      <trkpt lat="42.02125" lon="1.00635">
        <ele>1348</ele>
        <time>2019-01-31T00:43:14Z</time>
      </trkpt>
      <trkpt lat="42.02132" lon="1.00629">
        <ele>1351.3</ele>
        <time>2019-01-31T00:43:19Z</time>
      </trkpt>
      <trkpt lat="42.0214" lon="1.00641">
        <ele>1352.8</ele>
        <time>2019-01-31T00:43:26Z</time>
      </trkpt>
      <trkpt lat="42.02141" lon="1.00638">
        <ele>1354.6</ele>
        <time>2019-01-31T00:43:27Z</time>
      </trkpt>
      <trkpt lat="42.02145" lon="1.00634">
        <ele>1356.6</ele>
        <time>2019-01-31T00:43:30Z</time>
      </trkpt>
      <trkpt lat="42.0215" lon="1.00645">
        <ele>1358.5</ele>
        <time>2019-01-31T00:43:36Z</time>
      </trkpt>
      <trkpt lat="42.02152" lon="1.00659">
        <ele>1361.4</ele>
        <time>2019-01-31T00:43:42Z</time>
      </trkpt>
      <trkpt lat="42.0215" lon="1.0066">
        <ele>1362.9</ele>
        <time>2019-01-31T00:43:43Z</time>
      </trkpt>
      <trkpt lat="42.02157" lon="1.00652">
        <ele>1364.8</ele>
        <time>2019-01-31T00:43:48Z</time>
      </trkpt>
      <trkpt lat="42.02161" lon="1.00662">
        <ele>1368.1</ele>
        <time>2019-01-31T00:43:53Z</time>
      </trkpt>
      <trkpt lat="42.02165" lon="1.00673">
        <ele>1370.6</ele>
        <time>2019-01-31T00:43:58Z</time>
      </trkpt>
      <trkpt lat="42.02167" lon="1.00667">
        <ele>1371.9</ele>
        <time>2019-01-31T00:44:01Z</time>
      </trkpt>
      <trkpt lat="42.02175" lon="1.00669">
        <ele>1374.8</ele>
        <time>2019-01-31T00:44:05Z</time>
      </trkpt>
      <trkpt lat="42.02175" lon="1.00682">
        <ele>1377.7</ele>
        <time>2019-01-31T00:44:11Z</time>
      </trkpt>
      <trkpt lat="42.02176" lon="1.00698">
        <ele>1380.1</ele>
        <time>2019-01-31T00:44:18Z</time>
      </trkpt>
      <trkpt lat="42.02175" lon="1.00712">
        <ele>1383.6</ele>
        <time>2019-01-31T00:44:24Z</time>
      </trkpt>
      <trkpt lat="42.02178" lon="1.00708">
        <ele>1386.8</ele>
        <time>2019-01-31T00:44:26Z</time>
      </trkpt>
      <trkpt lat="42.02184" lon="1.00709">
        <ele>1387.3</ele>
        <time>2019-01-31T00:44:30Z</time>
      </trkpt>
      <trkpt lat="42.02191" lon="1.00714">
        <ele>1391.8</ele>
        <time>2019-01-31T00:44:34Z</time>
      </trkpt>
      <trkpt lat="42.02192" lon="1.00727">
        <ele>1394.6</ele>
        <time>2019-01-31T00:44:40Z</time>
      </trkpt>
      <trkpt lat="42.02193" lon="1.00717">
        <ele>1396.9</ele>
        <time>2019-01-31T00:44:44Z</time>
      </trkpt>
      <trkpt lat="42.02193" lon="1.00704">
        <ele>1398</ele>
        <time>2019-01-31T00:44:49Z</time>
      </trkpt>
      <trkpt lat="42.02198" lon="1.00708">
        <ele>1399.4</ele>
        <time>2019-01-31T00:44:53Z</time>
      </trkpt>
      <trkpt lat="42.02201" lon="1.0072">
        <ele>1400.9</ele>
        <time>2019-01-31T00:44:58Z</time>
      </trkpt>
      <trkpt lat="42.02206" lon="1.00732">
        <ele>1401.7</ele>
        <time>2019-01-31T00:45:04Z</time>
      </trkpt>
      <trkpt lat="42.02212" lon="1.00742">
        <ele>1404.2</ele>
        <time>2019-01-31T00:45:09Z</time>
      </trkpt>
      <trkpt lat="42.02219" lon="1.00751">
        <ele>1406.2</ele>
        <time>2019-01-31T00:45:15Z</time>
      </trkpt>
      <trkpt lat="42.02227" lon="1.00756">
        <ele>1408.5</ele>
        <time>2019-01-31T00:45:20Z</time>
      </trkpt>
      <trkpt lat="42.0223" lon="1.00768">
        <ele>1410.4</ele>
        <time>2019-01-31T00:45:25Z</time>
      </trkpt>
      <trkpt lat="42.02237" lon="1.00765">
        <ele>1411.9</ele>
        <time>2019-01-31T00:45:29Z</time>
      </trkpt>
      <trkpt lat="42.02244" lon="1.00757">
        <ele>1411.9</ele>
        <time>2019-01-31T00:45:34Z</time>
      </trkpt>
      <trkpt lat="42.02251" lon="1.0075">
        <ele>1411.8</ele>
        <time>2019-01-31T00:45:40Z</time>
      </trkpt>
      <trkpt lat="42.02259" lon="1.00744">
        <ele>1412.8</ele>
        <time>2019-01-31T00:45:45Z</time>
      </trkpt>
      <trkpt lat="42.02267" lon="1.00747">
        <ele>1415.2</ele>
        <time>2019-01-31T00:45:49Z</time>
      </trkpt>
      <trkpt lat="42.02274" lon="1.00756">
        <ele>1415.8</ele>
        <time>2019-01-31T00:45:55Z</time>
      </trkpt>
      <trkpt lat="42.02282" lon="1.00755">
        <ele>1416.6</ele>
        <time>2019-01-31T00:46:00Z</time>
      </trkpt>
      <trkpt lat="42.02291" lon="1.00754">
        <ele>1416.7</ele>
        <time>2019-01-31T00:46:05Z</time>
      </trkpt>
      <trkpt lat="42.023" lon="1.00753">
        <ele>1416.2</ele>
        <time>2019-01-31T00:46:10Z</time>
      </trkpt>
      <trkpt lat="42.0231" lon="1.00751">
        <ele>1417.1</ele>
        <time>2019-01-31T00:46:16Z</time>
      </trkpt>
      <trkpt lat="42.02319" lon="1.00748">
        <ele>1413.3</ele>
        <time>2019-01-31T00:46:21Z</time>
      </trkpt>
      <trkpt lat="42.0232" lon="1.0074">
        <ele>1413.4</ele>
        <time>2019-01-31T00:46:25Z</time>
      </trkpt>
      <trkpt lat="42.02313" lon="1.00732">
        <ele>1414.8</ele>
        <time>2019-01-31T00:46:30Z</time>
      </trkpt>
      <trkpt lat="42.02308" lon="1.00721">
        <ele>1415.3</ele>
        <time>2019-01-31T00:46:36Z</time>
      </trkpt>
      <trkpt lat="42.02304" lon="1.00707">
        <ele>1416.2</ele>
        <time>2019-01-31T00:46:42Z</time>
      </trkpt>
      <trkpt lat="42.02302" lon="1.00693">
        <ele>1417.2</ele>
        <time>2019-01-31T00:46:48Z</time>
      </trkpt>
      <trkpt lat="42.02298" lon="1.00682">
        <ele>1418.2</ele>
        <time>2019-01-31T00:46:53Z</time>
      </trkpt>
      <trkpt lat="42.02299" lon="1.00668">
        <ele>1419.6</ele>
        <time>2019-01-31T00:46:59Z</time>
      </trkpt>
      <trkpt lat="42.023" lon="1.00657">
        <ele>1420.6</ele>
        <time>2019-01-31T00:47:04Z</time>
      </trkpt>
      <trkpt lat="42.02293" lon="1.00651">
        <ele>1420.5</ele>
        <time>2019-01-31T00:47:09Z</time>
      </trkpt>
      <trkpt lat="42.02286" lon="1.00642">
        <ele>1420.5</ele>
        <time>2019-01-31T00:47:14Z</time>
      </trkpt>
      <trkpt lat="42.02281" lon="1.0063">
        <ele>1420.5</ele>
        <time>2019-01-31T00:47:20Z</time>
      </trkpt>
      <trkpt lat="42.02278" lon="1.00618">
        <ele>1422.4</ele>
        <time>2019-01-31T00:47:25Z</time>
      </trkpt>
      <trkpt lat="42.02272" lon="1.00609">
        <ele>1422.4</ele>
        <time>2019-01-31T00:47:30Z</time>
      </trkpt>
      <trkpt lat="42.02264" lon="1.00602">
        <ele>1423</ele>
        <time>2019-01-31T00:47:36Z</time>
      </trkpt>
      <trkpt lat="42.02256" lon="1.00594">
        <ele>1423</ele>
        <time>2019-01-31T00:47:41Z</time>
      </trkpt>
      <trkpt lat="42.0225" lon="1.00583">
        <ele>1423.5</ele>
        <time>2019-01-31T00:47:47Z</time>
      </trkpt>
      <trkpt lat="42.02243" lon="1.00574">
        <ele>1423.5</ele>
        <time>2019-01-31T00:47:53Z</time>
      </trkpt>
      <trkpt lat="42.02235" lon="1.0057">
        <ele>1422</ele>
        <time>2019-01-31T00:47:58Z</time>
      </trkpt>
      <trkpt lat="42.02229" lon="1.00563">
        <ele>1421.9</ele>
        <time>2019-01-31T00:48:02Z</time>
      </trkpt>
      <trkpt lat="42.02224" lon="1.00553">
        <ele>1424.4</ele>
        <time>2019-01-31T00:48:08Z</time>
      </trkpt>
      <trkpt lat="42.0222" lon="1.00541">
        <ele>1422.9</ele>
        <time>2019-01-31T00:48:13Z</time>
      </trkpt>
      <trkpt lat="42.02214" lon="1.00531">
        <ele>1422.9</ele>
        <time>2019-01-31T00:48:19Z</time>
      </trkpt>
      <trkpt lat="42.02206" lon="1.00524">
        <ele>1422.9</ele>
        <time>2019-01-31T00:48:24Z</time>
      </trkpt>
      <trkpt lat="42.02202" lon="1.00511">
        <ele>1424.9</ele>
        <time>2019-01-31T00:48:30Z</time>
      </trkpt>
      <trkpt lat="42.02198" lon="1.005">
        <ele>1424.8</ele>
        <time>2019-01-31T00:48:35Z</time>
      </trkpt>
      <trkpt lat="42.02194" lon="1.00489">
        <ele>1425.4</ele>
        <time>2019-01-31T00:48:40Z</time>
      </trkpt>
      <trkpt lat="42.02189" lon="1.00478">
        <ele>1426.4</ele>
        <time>2019-01-31T00:48:46Z</time>
      </trkpt>
      <trkpt lat="42.02185" lon="1.00466">
        <ele>1425.9</ele>
        <time>2019-01-31T00:48:51Z</time>
      </trkpt>
      <trkpt lat="42.02181" lon="1.00454">
        <ele>1427.3</ele>
        <time>2019-01-31T00:48:57Z</time>
      </trkpt>
      <trkpt lat="42.02175" lon="1.00445">
        <ele>1428.3</ele>
        <time>2019-01-31T00:49:02Z</time>
      </trkpt>
      <trkpt lat="42.0217" lon="1.00434">
        <ele>1428.7</ele>
        <time>2019-01-31T00:49:08Z</time>
      </trkpt>
      <trkpt lat="42.02165" lon="1.00421">
        <ele>1430.1</ele>
        <time>2019-01-31T00:49:14Z</time>
      </trkpt>
      <trkpt lat="42.02162" lon="1.00409">
        <ele>1432</ele>
        <time>2019-01-31T00:49:19Z</time>
      </trkpt>
      <trkpt lat="42.02159" lon="1.00398">
        <ele>1432.1</ele>
        <time>2019-01-31T00:49:24Z</time>
      </trkpt>
      <trkpt lat="42.02157" lon="1.00384">
        <ele>1433.6</ele>
        <time>2019-01-31T00:49:30Z</time>
      </trkpt>
      <trkpt lat="42.02161" lon="1.0037">
        <ele>1432.1</ele>
        <time>2019-01-31T00:49:36Z</time>
      </trkpt>
      <trkpt lat="42.02163" lon="1.00357">
        <ele>1432</ele>
        <time>2019-01-31T00:49:42Z</time>
      </trkpt>
      <trkpt lat="42.02167" lon="1.00347">
        <ele>1433.5</ele>
        <time>2019-01-31T00:49:47Z</time>
      </trkpt>
      <trkpt lat="42.02169" lon="1.00334">
        <ele>1433.6</ele>
        <time>2019-01-31T00:49:53Z</time>
      </trkpt>
      <trkpt lat="42.02173" lon="1.00324">
        <ele>1432.1</ele>
        <time>2019-01-31T00:49:58Z</time>
      </trkpt>
      <trkpt lat="42.02178" lon="1.00313">
        <ele>1431.6</ele>
        <time>2019-01-31T00:50:03Z</time>
      </trkpt>
      <trkpt lat="42.02176" lon="1.00299">
        <ele>1434.4</ele>
        <time>2019-01-31T00:50:09Z</time>
      </trkpt>
      <trkpt lat="42.02174" lon="1.00286">
        <ele>1434.9</ele>
        <time>2019-01-31T00:50:14Z</time>
      </trkpt>
      <trkpt lat="42.02172" lon="1.00274">
        <ele>1433.9</ele>
        <time>2019-01-31T00:50:20Z</time>
      </trkpt>
      <trkpt lat="42.02169" lon="1.0026">
        <ele>1435.4</ele>
        <time>2019-01-31T00:50:26Z</time>
      </trkpt>
      <trkpt lat="42.02167" lon="1.00248">
        <ele>1436.9</ele>
        <time>2019-01-31T00:50:31Z</time>
      </trkpt>
      <trkpt lat="42.02161" lon="1.00236">
        <ele>1437.3</ele>
        <time>2019-01-31T00:50:37Z</time>
      </trkpt>
      <trkpt lat="42.02159" lon="1.00223">
        <ele>1438.9</ele>
        <time>2019-01-31T00:50:43Z</time>
      </trkpt>
      <trkpt lat="42.0216" lon="1.00216">
        <ele>1436.8</ele>
        <time>2019-01-31T00:50:46Z</time>
      </trkpt>
      <trkpt lat="42.0216" lon="1.00205">
        <ele>1438.3</ele>
        <time>2019-01-31T00:50:50Z</time>
      </trkpt>
      <trkpt lat="42.02155" lon="1.00194">
        <ele>1438.4</ele>
        <time>2019-01-31T00:50:56Z</time>
      </trkpt>
      <trkpt lat="42.02157" lon="1.00183">
        <ele>1437.9</ele>
        <time>2019-01-31T00:51:01Z</time>
      </trkpt>
      <trkpt lat="42.02159" lon="1.0017">
        <ele>1437.4</ele>
        <time>2019-01-31T00:51:06Z</time>
      </trkpt>
      <trkpt lat="42.02168" lon="1.00167">
        <ele>1436.4</ele>
        <time>2019-01-31T00:51:12Z</time>
      </trkpt>
      <trkpt lat="42.02177" lon="1.00173">
        <ele>1431.5</ele>
        <time>2019-01-31T00:51:17Z</time>
      </trkpt>
      <trkpt lat="42.02183" lon="1.00172">
        <ele>1431.2</ele>
        <time>2019-01-31T00:51:21Z</time>
      </trkpt>
      <trkpt lat="42.0219" lon="1.00165">
        <ele>1428.2</ele>
        <time>2019-01-31T00:51:26Z</time>
      </trkpt>
      <trkpt lat="42.02199" lon="1.00164">
        <ele>1426.4</ele>
        <time>2019-01-31T00:51:31Z</time>
      </trkpt>
      <trkpt lat="42.02204" lon="1.00157">
        <ele>1428.3</ele>
        <time>2019-01-31T00:51:35Z</time>
      </trkpt>
      <trkpt lat="42.02203" lon="1.00142">
        <ele>1428.2</ele>
        <time>2019-01-31T00:51:42Z</time>
      </trkpt>
      <trkpt lat="42.02202" lon="1.00129">
        <ele>1426.3</ele>
        <time>2019-01-31T00:51:48Z</time>
      </trkpt>
      <trkpt lat="42.02198" lon="1.00116">
        <ele>1428.2</ele>
        <time>2019-01-31T00:51:53Z</time>
      </trkpt>
      <trkpt lat="42.02193" lon="1.00104">
        <ele>1425.4</ele>
        <time>2019-01-31T00:51:59Z</time>
      </trkpt>
      <trkpt lat="42.02188" lon="1.00093">
        <ele>1426.8</ele>
        <time>2019-01-31T00:52:05Z</time>
      </trkpt>
      <trkpt lat="42.02184" lon="1.00082">
        <ele>1424.8</ele>
        <time>2019-01-31T00:52:10Z</time>
      </trkpt>
      <trkpt lat="42.02178" lon="1.0007">
        <ele>1422.4</ele>
        <time>2019-01-31T00:52:16Z</time>
      </trkpt>
      <trkpt lat="42.02173" lon="1.0006">
        <ele>1422</ele>
        <time>2019-01-31T00:52:21Z</time>
      </trkpt>
      <trkpt lat="42.02164" lon="1.00053">
        <ele>1423</ele>
        <time>2019-01-31T00:52:27Z</time>
      </trkpt>
      <trkpt lat="42.02157" lon="1.00048">
        <ele>1422</ele>
        <time>2019-01-31T00:52:32Z</time>
      </trkpt>
      <trkpt lat="42.02153" lon="1.00039">
        <ele>1420.5</ele>
        <time>2019-01-31T00:52:36Z</time>
      </trkpt>
      <trkpt lat="42.02151" lon="1.00026">
        <ele>1418.2</ele>
        <time>2019-01-31T00:52:41Z</time>
      </trkpt>
      <trkpt lat="42.0215" lon="1.00015">
        <ele>1415.8</ele>
        <time>2019-01-31T00:52:46Z</time>
      </trkpt>
      <trkpt lat="42.02147" lon="1.00007">
        <ele>1413.9</ele>
        <time>2019-01-31T00:52:50Z</time>
      </trkpt>
      <trkpt lat="42.02144" lon="0.99995">
        <ele>1412.4</ele>
        <time>2019-01-31T00:52:56Z</time>
      </trkpt>
      <trkpt lat="42.02137" lon="0.99988">
        <ele>1412.3</ele>
        <time>2019-01-31T00:53:01Z</time>
      </trkpt>
      <trkpt lat="42.02137" lon="0.99976">
        <ele>1410.4</ele>
        <time>2019-01-31T00:53:06Z</time>
      </trkpt>
      <trkpt lat="42.02131" lon="0.99965">
        <ele>1409.4</ele>
        <time>2019-01-31T00:53:11Z</time>
      </trkpt>
      <trkpt lat="42.02123" lon="0.9995">
        <ele>1409.1</ele>
        <time>2019-01-31T00:53:19Z</time>
      </trkpt>
      <trkpt lat="42.02121" lon="0.99945">
        <ele>1408.1</ele>
        <time>2019-01-31T00:53:22Z</time>
      </trkpt>
      <trkpt lat="42.02116" lon="0.99937">
        <ele>1409.4</ele>
        <time>2019-01-31T00:53:26Z</time>
      </trkpt>
      <trkpt lat="42.02114" lon="0.99929">
        <ele>1407.1</ele>
        <time>2019-01-31T00:53:29Z</time>
      </trkpt>
      <trkpt lat="42.02116" lon="0.99918">
        <ele>1404.6</ele>
        <time>2019-01-31T00:53:35Z</time>
      </trkpt>
      <trkpt lat="42.02119" lon="0.99909">
        <ele>1401.7</ele>
        <time>2019-01-31T00:53:39Z</time>
      </trkpt>
      <trkpt lat="42.02122" lon="0.99899">
        <ele>1399.9</ele>
        <time>2019-01-31T00:53:43Z</time>
      </trkpt>
      <trkpt lat="42.0212" lon="0.99887">
        <ele>1398.5</ele>
        <time>2019-01-31T00:53:48Z</time>
      </trkpt>
      <trkpt lat="42.02117" lon="0.99878">
        <ele>1396.1</ele>
        <time>2019-01-31T00:53:53Z</time>
      </trkpt>
      <trkpt lat="42.02112" lon="0.99869">
        <ele>1393.6</ele>
        <time>2019-01-31T00:53:58Z</time>
      </trkpt>
      <trkpt lat="42.02104" lon="0.99861">
        <ele>1393.6</ele>
        <time>2019-01-31T00:54:03Z</time>
      </trkpt>
      <trkpt lat="42.02101" lon="0.99845">
        <ele>1394.2</ele>
        <time>2019-01-31T00:54:10Z</time>
      </trkpt>
      <trkpt lat="42.02099" lon="0.99829">
        <ele>1393.2</ele>
        <time>2019-01-31T00:54:17Z</time>
      </trkpt>
      <trkpt lat="42.02101" lon="0.99818">
        <ele>1391.8</ele>
        <time>2019-01-31T00:54:22Z</time>
      </trkpt>
      <trkpt lat="42.021" lon="0.99806">
        <ele>1391.2</ele>
        <time>2019-01-31T00:54:27Z</time>
      </trkpt>
      <trkpt lat="42.02099" lon="0.99793">
        <ele>1389.8</ele>
        <time>2019-01-31T00:54:33Z</time>
      </trkpt>
      <trkpt lat="42.02099" lon="0.9978">
        <ele>1387.4</ele>
        <time>2019-01-31T00:54:38Z</time>
      </trkpt>
      <trkpt lat="42.02097" lon="0.99768">
        <ele>1386.9</ele>
        <time>2019-01-31T00:54:43Z</time>
      </trkpt>
      <trkpt lat="42.02095" lon="0.99757">
        <ele>1388.4</ele>
        <time>2019-01-31T00:54:48Z</time>
      </trkpt>
      <trkpt lat="42.02086" lon="0.9975">
        <ele>1389.8</ele>
        <time>2019-01-31T00:54:54Z</time>
      </trkpt>
      <trkpt lat="42.02086" lon="0.99736">
        <ele>1388.3</ele>
        <time>2019-01-31T00:55:00Z</time>
      </trkpt>
      <trkpt lat="42.02091" lon="0.99726">
        <ele>1387.3</ele>
        <time>2019-01-31T00:55:05Z</time>
      </trkpt>
      <trkpt lat="42.02094" lon="0.99711">
        <ele>1386.5</ele>
        <time>2019-01-31T00:55:11Z</time>
      </trkpt>
      <trkpt lat="42.02096" lon="0.99698">
        <ele>1385.4</ele>
        <time>2019-01-31T00:55:17Z</time>
      </trkpt>
      <trkpt lat="42.02098" lon="0.99686">
        <ele>1385.4</ele>
        <time>2019-01-31T00:55:23Z</time>
      </trkpt>
      <trkpt lat="42.02094" lon="0.99676">
        <ele>1386.9</ele>
        <time>2019-01-31T00:55:28Z</time>
      </trkpt>
      <trkpt lat="42.02092" lon="0.99662">
        <ele>1388.4</ele>
        <time>2019-01-31T00:55:34Z</time>
      </trkpt>
      <trkpt lat="42.02089" lon="0.99645">
        <ele>1388.9</ele>
        <time>2019-01-31T00:55:41Z</time>
      </trkpt>
      <trkpt lat="42.02086" lon="0.99634">
        <ele>1390.7</ele>
        <time>2019-01-31T00:55:46Z</time>
      </trkpt>
      <trkpt lat="42.02083" lon="0.99624">
        <ele>1390.8</ele>
        <time>2019-01-31T00:55:51Z</time>
      </trkpt>
      <trkpt lat="42.02081" lon="0.99613">
        <ele>1390.2</ele>
        <time>2019-01-31T00:55:55Z</time>
      </trkpt>
      <trkpt lat="42.02084" lon="0.996">
        <ele>1389.2</ele>
        <time>2019-01-31T00:56:01Z</time>
      </trkpt>
      <trkpt lat="42.02085" lon="0.99587">
        <ele>1389.2</ele>
        <time>2019-01-31T00:56:07Z</time>
      </trkpt>
      <trkpt lat="42.02086" lon="0.99574">
        <ele>1388.4</ele>
        <time>2019-01-31T00:56:12Z</time>
      </trkpt>
      <trkpt lat="42.02089" lon="0.99561">
        <ele>1386.9</ele>
        <time>2019-01-31T00:56:18Z</time>
      </trkpt>
      <trkpt lat="42.02092" lon="0.99549">
        <ele>1384.9</ele>
        <time>2019-01-31T00:56:23Z</time>
      </trkpt>
      <trkpt lat="42.02095" lon="0.99536">
        <ele>1384.1</ele>
        <time>2019-01-31T00:56:29Z</time>
      </trkpt>
      <trkpt lat="42.02099" lon="0.99524">
        <ele>1382.1</ele>
        <time>2019-01-31T00:56:35Z</time>
      </trkpt>
      <trkpt lat="42.021" lon="0.99511">
        <ele>1381.2</ele>
        <time>2019-01-31T00:56:40Z</time>
      </trkpt>
      <trkpt lat="42.02105" lon="0.99499">
        <ele>1379.2</ele>
        <time>2019-01-31T00:56:46Z</time>
      </trkpt>
      <trkpt lat="42.02105" lon="0.99488">
        <ele>1377.2</ele>
        <time>2019-01-31T00:56:51Z</time>
      </trkpt>
      <trkpt lat="42.02104" lon="0.99476">
        <ele>1376.9</ele>
        <time>2019-01-31T00:56:56Z</time>
      </trkpt>
      <trkpt lat="42.02111" lon="0.99463">
        <ele>1374.8</ele>
        <time>2019-01-31T00:57:02Z</time>
      </trkpt>
      <trkpt lat="42.02116" lon="0.99449">
        <ele>1371.9</ele>
        <time>2019-01-31T00:57:09Z</time>
      </trkpt>
      <trkpt lat="42.02118" lon="0.99435">
        <ele>1370.1</ele>
        <time>2019-01-31T00:57:15Z</time>
      </trkpt>
      <trkpt lat="42.02114" lon="0.99424">
        <ele>1369.6</ele>
        <time>2019-01-31T00:57:21Z</time>
      </trkpt>
      <trkpt lat="42.02108" lon="0.99416">
        <ele>1371.1</ele>
        <time>2019-01-31T00:57:25Z</time>
      </trkpt>
      <trkpt lat="42.02102" lon="0.99404">
        <ele>1372.4</ele>
        <time>2019-01-31T00:57:31Z</time>
      </trkpt>
      <trkpt lat="42.02098" lon="0.99392">
        <ele>1374</ele>
        <time>2019-01-31T00:57:37Z</time>
      </trkpt>
      <trkpt lat="42.02098" lon="0.99382">
        <ele>1375.3</ele>
        <time>2019-01-31T00:57:41Z</time>
      </trkpt>
      <trkpt lat="42.02104" lon="0.99369">
        <ele>1372.4</ele>
        <time>2019-01-31T00:57:47Z</time>
      </trkpt>
      <trkpt lat="42.02112" lon="0.99361">
        <ele>1371.5</ele>
        <time>2019-01-31T00:57:53Z</time>
      </trkpt>
      <trkpt lat="42.02117" lon="0.99348">
        <ele>1371</ele>
        <time>2019-01-31T00:57:59Z</time>
      </trkpt>
      <trkpt lat="42.02121" lon="0.99338">
        <ele>1371</ele>
        <time>2019-01-31T00:58:04Z</time>
      </trkpt>
      <trkpt lat="42.02128" lon="0.99332">
        <ele>1370</ele>
        <time>2019-01-31T00:58:09Z</time>
      </trkpt>
      <trkpt lat="42.02133" lon="0.99324">
        <ele>1369.6</ele>
        <time>2019-01-31T00:58:13Z</time>
      </trkpt>
      <trkpt lat="42.02138" lon="0.99316">
        <ele>1366.8</ele>
        <time>2019-01-31T00:58:18Z</time>
      </trkpt>
      <trkpt lat="42.02144" lon="0.9931">
        <ele>1365.8</ele>
        <time>2019-01-31T00:58:22Z</time>
      </trkpt>
      <trkpt lat="42.02151" lon="0.99317">
        <ele>1363.4</ele>
        <time>2019-01-31T00:58:27Z</time>
      </trkpt>
      <trkpt lat="42.02158" lon="0.99314">
        <ele>1359</ele>
        <time>2019-01-31T00:58:31Z</time>
      </trkpt>
      <trkpt lat="42.02158" lon="0.99299">
        <ele>1360.5</ele>
        <time>2019-01-31T00:58:37Z</time>
      </trkpt>
      <trkpt lat="42.02159" lon="0.99288">
        <ele>1358.5</ele>
        <time>2019-01-31T00:58:42Z</time>
      </trkpt>
      <trkpt lat="42.02159" lon="0.99276">
        <ele>1357.6</ele>
        <time>2019-01-31T00:58:47Z</time>
      </trkpt>
      <trkpt lat="42.0216" lon="0.99266">
        <ele>1354.2</ele>
        <time>2019-01-31T00:58:51Z</time>
      </trkpt>
      <trkpt lat="42.02156" lon="0.99257">
        <ele>1353.7</ele>
        <time>2019-01-31T00:58:56Z</time>
      </trkpt>
      <trkpt lat="42.02151" lon="0.99245">
        <ele>1353.2</ele>
        <time>2019-01-31T00:59:02Z</time>
      </trkpt>
      <trkpt lat="42.02146" lon="0.99232">
        <ele>1355.2</ele>
        <time>2019-01-31T00:59:08Z</time>
      </trkpt>
      <trkpt lat="42.02144" lon="0.9922">
        <ele>1352.3</ele>
        <time>2019-01-31T00:59:13Z</time>
      </trkpt>
      <trkpt lat="42.02142" lon="0.99208">
        <ele>1351.4</ele>
        <time>2019-01-31T00:59:18Z</time>
      </trkpt>
      <trkpt lat="42.02142" lon="0.99199">
        <ele>1349</ele>
        <time>2019-01-31T00:59:22Z</time>
      </trkpt>
      <trkpt lat="42.02138" lon="0.99191">
        <ele>1348</ele>
        <time>2019-01-31T00:59:26Z</time>
      </trkpt>
      <trkpt lat="42.02134" lon="0.99177">
        <ele>1348</ele>
        <time>2019-01-31T00:59:32Z</time>
      </trkpt>
      <trkpt lat="42.02132" lon="0.99164">
        <ele>1347.5</ele>
        <time>2019-01-31T00:59:38Z</time>
      </trkpt>
      <trkpt lat="42.02126" lon="0.99153">
        <ele>1349.4</ele>
        <time>2019-01-31T00:59:44Z</time>
      </trkpt>
      <trkpt lat="42.02122" lon="0.99138">
        <ele>1349.4</ele>
        <time>2019-01-31T00:59:51Z</time>
      </trkpt>
      <trkpt lat="42.0212" lon="0.99123">
        <ele>1348.4</ele>
        <time>2019-01-31T00:59:57Z</time>
      </trkpt>
      <trkpt lat="42.02116" lon="0.99109">
        <ele>1351.3</ele>
        <time>2019-01-31T01:00:03Z</time>
      </trkpt>
      <trkpt lat="42.02112" lon="0.99097">
        <ele>1351.4</ele>
        <time>2019-01-31T01:00:09Z</time>
      </trkpt>
      <trkpt lat="42.0211" lon="0.99085">
        <ele>1352.8</ele>
        <time>2019-01-31T01:00:14Z</time>
      </trkpt>
      <trkpt lat="42.02107" lon="0.99073">
        <ele>1354.7</ele>
        <time>2019-01-31T01:00:20Z</time>
      </trkpt>
      <trkpt lat="42.02107" lon="0.99062">
        <ele>1357</ele>
        <time>2019-01-31T01:00:24Z</time>
      </trkpt>
      <trkpt lat="42.02117" lon="0.99059">
        <ele>1351.8</ele>
        <time>2019-01-31T01:00:30Z</time>
      </trkpt>
      <trkpt lat="42.02123" lon="0.99047">
        <ele>1354.6</ele>
        <time>2019-01-31T01:00:36Z</time>
      </trkpt>
      <trkpt lat="42.02132" lon="0.99043">
        <ele>1355.1</ele>
        <time>2019-01-31T01:00:41Z</time>
      </trkpt>
      <trkpt lat="42.0214" lon="0.99045">
        <ele>1350.3</ele>
        <time>2019-01-31T01:00:46Z</time>
      </trkpt>
      <trkpt lat="42.02147" lon="0.99053">
        <ele>1343.7</ele>
        <time>2019-01-31T01:00:51Z</time>
      </trkpt>
      <trkpt lat="42.02156" lon="0.99061">
        <ele>1339.7</ele>
        <time>2019-01-31T01:00:57Z</time>
      </trkpt>
      <trkpt lat="42.02165" lon="0.99066">
        <ele>1335.4</ele>
        <time>2019-01-31T01:01:03Z</time>
      </trkpt>
      <trkpt lat="42.02175" lon="0.99072">
        <ele>1329.3</ele>
        <time>2019-01-31T01:01:09Z</time>
      </trkpt>
      <trkpt lat="42.02184" lon="0.99078">
        <ele>1325.9</ele>
        <time>2019-01-31T01:01:15Z</time>
      </trkpt>
      <trkpt lat="42.02192" lon="0.99085">
        <ele>1322.1</ele>
        <time>2019-01-31T01:01:20Z</time>
      </trkpt>
      <trkpt lat="42.02201" lon="0.99087">
        <ele>1318.6</ele>
        <time>2019-01-31T01:01:26Z</time>
      </trkpt>
      <trkpt lat="42.02209" lon="0.99094">
        <ele>1314.4</ele>
        <time>2019-01-31T01:01:31Z</time>
      </trkpt>
      <trkpt lat="42.02216" lon="0.99099">
        <ele>1309.9</ele>
        <time>2019-01-31T01:01:36Z</time>
      </trkpt>
      <trkpt lat="42.02226" lon="0.99104">
        <ele>1305.6</ele>
        <time>2019-01-31T01:01:42Z</time>
      </trkpt>
      <trkpt lat="42.02231" lon="0.99116">
        <ele>1302.7</ele>
        <time>2019-01-31T01:01:48Z</time>
      </trkpt>
      <trkpt lat="42.02235" lon="0.99126">
        <ele>1298</ele>
        <time>2019-01-31T01:01:52Z</time>
      </trkpt>
      <trkpt lat="42.02244" lon="0.9913">
        <ele>1291.7</ele>
        <time>2019-01-31T01:01:58Z</time>
      </trkpt>
      <trkpt lat="42.0225" lon="0.99141">
        <ele>1288.3</ele>
        <time>2019-01-31T01:02:03Z</time>
      </trkpt>
      <trkpt lat="42.02257" lon="0.99147">
        <ele>1284.5</ele>
        <time>2019-01-31T01:02:08Z</time>
      </trkpt>
      <trkpt lat="42.02266" lon="0.99155">
        <ele>1278.8</ele>
        <time>2019-01-31T01:02:14Z</time>
      </trkpt>
      <trkpt lat="42.02276" lon="0.99157">
        <ele>1275.9</ele>
        <time>2019-01-31T01:02:20Z</time>
      </trkpt>
      <trkpt lat="42.02285" lon="0.99155">
        <ele>1272.1</ele>
        <time>2019-01-31T01:02:25Z</time>
      </trkpt>
      <trkpt lat="42.02295" lon="0.99158">
        <ele>1268.6</ele>
        <time>2019-01-31T01:02:31Z</time>
      </trkpt>
      <trkpt lat="42.02305" lon="0.99164">
        <ele>1264.3</ele>
        <time>2019-01-31T01:02:37Z</time>
      </trkpt>
      <trkpt lat="42.02314" lon="0.99171">
        <ele>1260.4</ele>
        <time>2019-01-31T01:02:43Z</time>
      </trkpt>
      <trkpt lat="42.02329" lon="0.99184">
        <ele>1255.2</ele>
        <time>2019-01-31T01:02:53Z</time>
      </trkpt>
      <trkpt lat="42.02339" lon="0.99192">
        <ele>1250.4</ele>
        <time>2019-01-31T01:03:00Z</time>
      </trkpt>
      <trkpt lat="42.02354" lon="0.99203">
        <ele>1247</ele>
        <time>2019-01-31T01:03:10Z</time>
      </trkpt>
      <trkpt lat="42.02363" lon="0.99209">
        <ele>1244.1</ele>
        <time>2019-01-31T01:03:16Z</time>
      </trkpt>
      <trkpt lat="42.02372" lon="0.99216">
        <ele>1240.8</ele>
        <time>2019-01-31T01:03:22Z</time>
      </trkpt>
      <trkpt lat="42.02381" lon="0.99223">
        <ele>1237.9</ele>
        <time>2019-01-31T01:03:28Z</time>
      </trkpt>
      <trkpt lat="42.0239" lon="0.9923">
        <ele>1236</ele>
        <time>2019-01-31T01:03:33Z</time>
      </trkpt>
      <trkpt lat="42.02398" lon="0.99234">
        <ele>1233.5</ele>
        <time>2019-01-31T01:03:39Z</time>
      </trkpt>
      <trkpt lat="42.02408" lon="0.99239">
        <ele>1232.2</ele>
        <time>2019-01-31T01:03:45Z</time>
      </trkpt>
      <trkpt lat="42.02417" lon="0.99247">
        <ele>1229.8</ele>
        <time>2019-01-31T01:03:50Z</time>
      </trkpt>
      <trkpt lat="42.02427" lon="0.9925">
        <ele>1227.8</ele>
        <time>2019-01-31T01:03:56Z</time>
      </trkpt>
      <trkpt lat="42.02435" lon="0.99256">
        <ele>1225.8</ele>
        <time>2019-01-31T01:04:02Z</time>
      </trkpt>
      <trkpt lat="42.02444" lon="0.99261">
        <ele>1224</ele>
        <time>2019-01-31T01:04:07Z</time>
      </trkpt>
      <trkpt lat="42.02453" lon="0.99264">
        <ele>1222.5</ele>
        <time>2019-01-31T01:04:13Z</time>
      </trkpt>
      <trkpt lat="42.02462" lon="0.99264">
        <ele>1220.5</ele>
        <time>2019-01-31T01:04:18Z</time>
      </trkpt>
      <trkpt lat="42.02472" lon="0.99264">
        <ele>1219.7</ele>
        <time>2019-01-31T01:04:24Z</time>
      </trkpt>
      <trkpt lat="42.02482" lon="0.99264">
        <ele>1218.2</ele>
        <time>2019-01-31T01:04:29Z</time>
      </trkpt>
      <trkpt lat="42.02491" lon="0.99268">
        <ele>1216.2</ele>
        <time>2019-01-31T01:04:35Z</time>
      </trkpt>
      <trkpt lat="42.025" lon="0.99276">
        <ele>1214.3</ele>
        <time>2019-01-31T01:04:41Z</time>
      </trkpt>
      <trkpt lat="42.02507" lon="0.99287">
        <ele>1212.5</ele>
        <time>2019-01-31T01:04:47Z</time>
      </trkpt>
      <trkpt lat="42.02517" lon="0.99293">
        <ele>1211.5</ele>
        <time>2019-01-31T01:04:53Z</time>
      </trkpt>
      <trkpt lat="42.02526" lon="0.99299">
        <ele>1209.1</ele>
        <time>2019-01-31T01:04:59Z</time>
      </trkpt>
      <trkpt lat="42.02535" lon="0.99302">
        <ele>1207.2</ele>
        <time>2019-01-31T01:05:04Z</time>
      </trkpt>
      <trkpt lat="42.02545" lon="0.99305">
        <ele>1205.7</ele>
        <time>2019-01-31T01:05:10Z</time>
      </trkpt>
      <trkpt lat="42.02554" lon="0.99308">
        <ele>1203.7</ele>
        <time>2019-01-31T01:05:15Z</time>
      </trkpt>
      <trkpt lat="42.02564" lon="0.99316">
        <ele>1202.3</ele>
        <time>2019-01-31T01:05:22Z</time>
      </trkpt>
      <trkpt lat="42.02572" lon="0.99326">
        <ele>1199.9</ele>
        <time>2019-01-31T01:05:28Z</time>
      </trkpt>
      <trkpt lat="42.02577" lon="0.9934">
        <ele>1198.5</ele>
        <time>2019-01-31T01:05:35Z</time>
      </trkpt>
      <trkpt lat="42.02582" lon="0.99352">
        <ele>1196.6</ele>
        <time>2019-01-31T01:05:41Z</time>
      </trkpt>
      <trkpt lat="42.0259" lon="0.99364">
        <ele>1195.6</ele>
        <time>2019-01-31T01:05:47Z</time>
      </trkpt>
      <trkpt lat="42.02598" lon="0.99376">
        <ele>1194.1</ele>
        <time>2019-01-31T01:05:54Z</time>
      </trkpt>
      <trkpt lat="42.02606" lon="0.99387">
        <ele>1193.1</ele>
        <time>2019-01-31T01:06:01Z</time>
      </trkpt>
      <trkpt lat="42.02614" lon="0.99398">
        <ele>1192.3</ele>
        <time>2019-01-31T01:06:07Z</time>
      </trkpt>
      <trkpt lat="42.0262" lon="0.9941">
        <ele>1190.8</ele>
        <time>2019-01-31T01:06:14Z</time>
      </trkpt>
      <trkpt lat="42.02627" lon="0.99421">
        <ele>1189.3</ele>
        <time>2019-01-31T01:06:19Z</time>
      </trkpt>
      <trkpt lat="42.02632" lon="0.99435">
        <ele>1187.9</ele>
        <time>2019-01-31T01:06:26Z</time>
      </trkpt>
      <trkpt lat="42.02637" lon="0.99447">
        <ele>1186.9</ele>
        <time>2019-01-31T01:06:32Z</time>
      </trkpt>
      <trkpt lat="42.02642" lon="0.99458">
        <ele>1186</ele>
        <time>2019-01-31T01:06:38Z</time>
      </trkpt>
      <trkpt lat="42.0265" lon="0.99467">
        <ele>1184</ele>
        <time>2019-01-31T01:06:44Z</time>
      </trkpt>
      <trkpt lat="42.02658" lon="0.99474">
        <ele>1183.5</ele>
        <time>2019-01-31T01:06:49Z</time>
      </trkpt>
      <trkpt lat="42.02666" lon="0.99482">
        <ele>1182.6</ele>
        <time>2019-01-31T01:06:55Z</time>
      </trkpt>
      <trkpt lat="42.02676" lon="0.99488">
        <ele>1181.2</ele>
        <time>2019-01-31T01:07:01Z</time>
      </trkpt>
      <trkpt lat="42.02684" lon="0.99493">
        <ele>1179.2</ele>
        <time>2019-01-31T01:07:06Z</time>
      </trkpt>
      <trkpt lat="42.02694" lon="0.99498">
        <ele>1177.8</ele>
        <time>2019-01-31T01:07:12Z</time>
      </trkpt>
      <trkpt lat="42.02704" lon="0.99503">
        <ele>1175.4</ele>
        <time>2019-01-31T01:07:18Z</time>
      </trkpt>
      <trkpt lat="42.02714" lon="0.99506">
        <ele>1173.4</ele>
        <time>2019-01-31T01:07:24Z</time>
      </trkpt>
      <trkpt lat="42.02725" lon="0.99509">
        <ele>1172</ele>
        <time>2019-01-31T01:07:31Z</time>
      </trkpt>
      <trkpt lat="42.02737" lon="0.99507">
        <ele>1170.1</ele>
        <time>2019-01-31T01:07:37Z</time>
      </trkpt>
      <trkpt lat="42.02746" lon="0.99506">
        <ele>1169.2</ele>
        <time>2019-01-31T01:07:43Z</time>
      </trkpt>
      <trkpt lat="42.02756" lon="0.99506">
        <ele>1168.1</ele>
        <time>2019-01-31T01:07:48Z</time>
      </trkpt>
      <trkpt lat="42.02767" lon="0.99508">
        <ele>1167.7</ele>
        <time>2019-01-31T01:07:54Z</time>
      </trkpt>
      <trkpt lat="42.02775" lon="0.99514">
        <ele>1166.8</ele>
        <time>2019-01-31T01:08:00Z</time>
      </trkpt>
      <trkpt lat="42.02784" lon="0.99519">
        <ele>1165.7</ele>
        <time>2019-01-31T01:08:05Z</time>
      </trkpt>
      <trkpt lat="42.02795" lon="0.99523">
        <ele>1164.8</ele>
        <time>2019-01-31T01:08:12Z</time>
      </trkpt>
      <trkpt lat="42.02803" lon="0.99531">
        <ele>1163.3</ele>
        <time>2019-01-31T01:08:17Z</time>
      </trkpt>
      <trkpt lat="42.0281" lon="0.99541">
        <ele>1161.4</ele>
        <time>2019-01-31T01:08:23Z</time>
      </trkpt>
      <trkpt lat="42.02817" lon="0.9955">
        <ele>1159.6</ele>
        <time>2019-01-31T01:08:29Z</time>
      </trkpt>
      <trkpt lat="42.02826" lon="0.99558">
        <ele>1159</ele>
        <time>2019-01-31T01:08:35Z</time>
      </trkpt>
      <trkpt lat="42.02835" lon="0.99564">
        <ele>1157.6</ele>
        <time>2019-01-31T01:08:41Z</time>
      </trkpt>
      <trkpt lat="42.02843" lon="0.99571">
        <ele>1157.7</ele>
        <time>2019-01-31T01:08:46Z</time>
      </trkpt>
      <trkpt lat="42.02849" lon="0.99583">
        <ele>1156.7</ele>
        <time>2019-01-31T01:08:52Z</time>
      </trkpt>
      <trkpt lat="42.02853" lon="0.99595">
        <ele>1155.6</ele>
        <time>2019-01-31T01:08:58Z</time>
      </trkpt>
      <trkpt lat="42.02857" lon="0.99609">
        <ele>1154.3</ele>
        <time>2019-01-31T01:09:04Z</time>
      </trkpt>
      <trkpt lat="42.02865" lon="0.99618">
        <ele>1152.3</ele>
        <time>2019-01-31T01:09:10Z</time>
      </trkpt>
      <trkpt lat="42.02873" lon="0.99625">
        <ele>1150.5</ele>
        <time>2019-01-31T01:09:16Z</time>
      </trkpt>
      <trkpt lat="42.02883" lon="0.99629">
        <ele>1149</ele>
        <time>2019-01-31T01:09:22Z</time>
      </trkpt>
      <trkpt lat="42.02893" lon="0.99633">
        <ele>1148</ele>
        <time>2019-01-31T01:09:28Z</time>
      </trkpt>
      <trkpt lat="42.02902" lon="0.99639">
        <ele>1146.5</ele>
        <time>2019-01-31T01:09:33Z</time>
      </trkpt>
      <trkpt lat="42.02911" lon="0.99643">
        <ele>1144.6</ele>
        <time>2019-01-31T01:09:39Z</time>
      </trkpt>
      <trkpt lat="42.02923" lon="0.99646">
        <ele>1142.7</ele>
        <time>2019-01-31T01:09:46Z</time>
      </trkpt>
      <trkpt lat="42.02932" lon="0.99649">
        <ele>1141.8</ele>
        <time>2019-01-31T01:09:51Z</time>
      </trkpt>
      <trkpt lat="42.02942" lon="0.9965">
        <ele>1140.8</ele>
        <time>2019-01-31T01:09:57Z</time>
      </trkpt>
      <trkpt lat="42.02952" lon="0.99647">
        <ele>1138.8</ele>
        <time>2019-01-31T01:10:03Z</time>
      </trkpt>
      <trkpt lat="42.02962" lon="0.99646">
        <ele>1138</ele>
        <time>2019-01-31T01:10:08Z</time>
      </trkpt>
      <trkpt lat="42.02971" lon="0.99647">
        <ele>1136.9</ele>
        <time>2019-01-31T01:10:14Z</time>
      </trkpt>
      <trkpt lat="42.02979" lon="0.99654">
        <ele>1135.6</ele>
        <time>2019-01-31T01:10:19Z</time>
      </trkpt>
      <trkpt lat="42.02988" lon="0.9966">
        <ele>1134.6</ele>
        <time>2019-01-31T01:10:25Z</time>
      </trkpt>
      <trkpt lat="42.02996" lon="0.99667">
        <ele>1132.7</ele>
        <time>2019-01-31T01:10:30Z</time>
      </trkpt>
      <trkpt lat="42.03004" lon="0.99678">
        <ele>1130.7</ele>
        <time>2019-01-31T01:10:37Z</time>
      </trkpt>
      <trkpt lat="42.03012" lon="0.99685">
        <ele>1130.2</ele>
        <time>2019-01-31T01:10:42Z</time>
      </trkpt>
      <trkpt lat="42.03021" lon="0.9969">
        <ele>1129.2</ele>
        <time>2019-01-31T01:10:48Z</time>
      </trkpt>
      <trkpt lat="42.0303" lon="0.99701">
        <ele>1128.8</ele>
        <time>2019-01-31T01:10:55Z</time>
      </trkpt>
      <trkpt lat="42.03037" lon="0.99712">
        <ele>1127.8</ele>
        <time>2019-01-31T01:11:01Z</time>
      </trkpt>
      <trkpt lat="42.03041" lon="0.99725">
        <ele>1127.8</ele>
        <time>2019-01-31T01:11:07Z</time>
      </trkpt>
      <trkpt lat="42.03045" lon="0.99738">
        <ele>1130.7</ele>
        <time>2019-01-31T01:11:13Z</time>
      </trkpt>
      <trkpt lat="42.03045" lon="0.99753">
        <ele>1131.6</ele>
        <time>2019-01-31T01:11:19Z</time>
      </trkpt>
      <trkpt lat="42.03049" lon="0.99767">
        <ele>1131.7</ele>
        <time>2019-01-31T01:11:25Z</time>
      </trkpt>
      <trkpt lat="42.03049" lon="0.9978">
        <ele>1133.2</ele>
        <time>2019-01-31T01:11:31Z</time>
      </trkpt>
      <trkpt lat="42.03049" lon="0.99795">
        <ele>1134.1</ele>
        <time>2019-01-31T01:11:37Z</time>
      </trkpt>
      <trkpt lat="42.03053" lon="0.99806">
        <ele>1134</ele>
        <time>2019-01-31T01:11:42Z</time>
      </trkpt>
      <trkpt lat="42.03058" lon="0.99817">
        <ele>1134</ele>
        <time>2019-01-31T01:11:48Z</time>
      </trkpt>
      <trkpt lat="42.03065" lon="0.99828">
        <ele>1134</ele>
        <time>2019-01-31T01:11:54Z</time>
      </trkpt>
      <trkpt lat="42.0307" lon="0.99841">
        <ele>1134</ele>
        <time>2019-01-31T01:12:00Z</time>
      </trkpt>
      <trkpt lat="42.03072" lon="0.99857">
        <ele>1130.8</ele>
        <time>2019-01-31T01:12:07Z</time>
      </trkpt>
      <trkpt lat="42.03077" lon="0.99865">
        <ele>1129.2</ele>
        <time>2019-01-31T01:12:12Z</time>
      </trkpt>
      <trkpt lat="42.03085" lon="0.99875">
        <ele>1128.2</ele>
        <time>2019-01-31T01:12:18Z</time>
      </trkpt>
      <trkpt lat="42.03093" lon="0.99887">
        <ele>1126.4</ele>
        <time>2019-01-31T01:12:25Z</time>
      </trkpt>
      <trkpt lat="42.03101" lon="0.99897">
        <ele>1124.4</ele>
        <time>2019-01-31T01:12:31Z</time>
      </trkpt>
      <trkpt lat="42.03108" lon="0.99909">
        <ele>1123.5</ele>
        <time>2019-01-31T01:12:37Z</time>
      </trkpt>
      <trkpt lat="42.03119" lon="0.99911">
        <ele>1121</ele>
        <time>2019-01-31T01:12:44Z</time>
      </trkpt>
      <trkpt lat="42.03129" lon="0.99915">
        <ele>1120.1</ele>
        <time>2019-01-31T01:12:49Z</time>
      </trkpt>
      <trkpt lat="42.03137" lon="0.99921">
        <ele>1118.6</ele>
        <time>2019-01-31T01:12:55Z</time>
      </trkpt>
      <trkpt lat="42.03147" lon="0.99925">
        <ele>1117.7</ele>
        <time>2019-01-31T01:13:01Z</time>
      </trkpt>
      <trkpt lat="42.03157" lon="0.99929">
        <ele>1116.3</ele>
        <time>2019-01-31T01:13:07Z</time>
      </trkpt>
      <trkpt lat="42.03164" lon="0.99938">
        <ele>1115.3</ele>
        <time>2019-01-31T01:13:12Z</time>
      </trkpt>
      <trkpt lat="42.03173" lon="0.99945">
        <ele>1114.4</ele>
        <time>2019-01-31T01:13:18Z</time>
      </trkpt>
      <trkpt lat="42.03183" lon="0.99945">
        <ele>1112.9</ele>
        <time>2019-01-31T01:13:24Z</time>
      </trkpt>
      <trkpt lat="42.03192" lon="0.9994">
        <ele>1111.9</ele>
        <time>2019-01-31T01:13:30Z</time>
      </trkpt>
      <trkpt lat="42.03205" lon="0.9994">
        <ele>1110.1</ele>
        <time>2019-01-31T01:13:37Z</time>
      </trkpt>
      <trkpt lat="42.03215" lon="0.99941">
        <ele>1108.2</ele>
        <time>2019-01-31T01:13:43Z</time>
      </trkpt>
      <trkpt lat="42.03226" lon="0.99943">
        <ele>1106.2</ele>
        <time>2019-01-31T01:13:49Z</time>
      </trkpt>
      <trkpt lat="42.03237" lon="0.99944">
        <ele>1104.7</ele>
        <time>2019-01-31T01:13:55Z</time>
      </trkpt>
      <trkpt lat="42.03247" lon="0.99946">
        <ele>1103.3</ele>
        <time>2019-01-31T01:14:01Z</time>
      </trkpt>
      <trkpt lat="42.03251" lon="0.9994">
        <ele>1102.3</ele>
        <time>2019-01-31T01:14:05Z</time>
      </trkpt>
      <trkpt lat="42.03244" lon="0.9993">
        <ele>1102.4</ele>
        <time>2019-01-31T01:14:11Z</time>
      </trkpt>
      <trkpt lat="42.03236" lon="0.99918">
        <ele>1104.2</ele>
        <time>2019-01-31T01:14:17Z</time>
      </trkpt>
      <trkpt lat="42.03235" lon="0.99904">
        <ele>1105.7</ele>
        <time>2019-01-31T01:14:23Z</time>
      </trkpt>
      <trkpt lat="42.03238" lon="0.99888">
        <ele>1105.7</ele>
        <time>2019-01-31T01:14:30Z</time>
      </trkpt>
      <trkpt lat="42.03239" lon="0.99873">
        <ele>1105.8</ele>
        <time>2019-01-31T01:14:37Z</time>
      </trkpt>
      <trkpt lat="42.03242" lon="0.9986">
        <ele>1105.8</ele>
        <time>2019-01-31T01:14:43Z</time>
      </trkpt>
      <trkpt lat="42.03247" lon="0.99846">
        <ele>1104.3</ele>
        <time>2019-01-31T01:14:49Z</time>
      </trkpt>
      <trkpt lat="42.03254" lon="0.99834">
        <ele>1104.3</ele>
        <time>2019-01-31T01:14:56Z</time>
      </trkpt>
      <trkpt lat="42.03266" lon="0.99822">
        <ele>1104.2</ele>
        <time>2019-01-31T01:15:04Z</time>
      </trkpt>
      <trkpt lat="42.03276" lon="0.99822">
        <ele>1104.2</ele>
        <time>2019-01-31T01:15:10Z</time>
      </trkpt>
      <trkpt lat="42.03286" lon="0.99823">
        <ele>1104.2</ele>
        <time>2019-01-31T01:15:16Z</time>
      </trkpt>
      <trkpt lat="42.03296" lon="0.99823">
        <ele>1104.2</ele>
        <time>2019-01-31T01:15:22Z</time>
      </trkpt>
      <trkpt lat="42.03307" lon="0.99823">
        <ele>1103.4</ele>
        <time>2019-01-31T01:15:28Z</time>
      </trkpt>
      <trkpt lat="42.03317" lon="0.99823">
        <ele>1102.9</ele>
        <time>2019-01-31T01:15:34Z</time>
      </trkpt>
      <trkpt lat="42.03326" lon="0.99829">
        <ele>1101</ele>
        <time>2019-01-31T01:15:39Z</time>
      </trkpt>
      <trkpt lat="42.03333" lon="0.99839">
        <ele>1099.5</ele>
        <time>2019-01-31T01:15:45Z</time>
      </trkpt>
      <trkpt lat="42.0334" lon="0.9985">
        <ele>1096.6</ele>
        <time>2019-01-31T01:15:51Z</time>
      </trkpt>
      <trkpt lat="42.03346" lon="0.99863">
        <ele>1094.7</ele>
        <time>2019-01-31T01:15:58Z</time>
      </trkpt>
      <trkpt lat="42.03353" lon="0.99873">
        <ele>1092.2</ele>
        <time>2019-01-31T01:16:04Z</time>
      </trkpt>
      <trkpt lat="42.03359" lon="0.99886">
        <ele>1092.7</ele>
        <time>2019-01-31T01:16:10Z</time>
      </trkpt>
      <trkpt lat="42.03364" lon="0.99899">
        <ele>1092.7</ele>
        <time>2019-01-31T01:16:16Z</time>
      </trkpt>
      <trkpt lat="42.03368" lon="0.99911">
        <ele>1092.7</ele>
        <time>2019-01-31T01:16:22Z</time>
      </trkpt>
      <trkpt lat="42.03371" lon="0.99922">
        <ele>1092.2</ele>
        <time>2019-01-31T01:16:27Z</time>
      </trkpt>
      <trkpt lat="42.03373" lon="0.99936">
        <ele>1091.8</ele>
        <time>2019-01-31T01:16:33Z</time>
      </trkpt>
      <trkpt lat="42.03376" lon="0.99948">
        <ele>1091.3</ele>
        <time>2019-01-31T01:16:39Z</time>
      </trkpt>
      <trkpt lat="42.03379" lon="0.99963">
        <ele>1090.8</ele>
        <time>2019-01-31T01:16:45Z</time>
      </trkpt>
      <trkpt lat="42.03383" lon="0.99974">
        <ele>1090.4</ele>
        <time>2019-01-31T01:16:50Z</time>
      </trkpt>
      <trkpt lat="42.03387" lon="0.99988">
        <ele>1089.4</ele>
        <time>2019-01-31T01:16:57Z</time>
      </trkpt>
      <trkpt lat="42.0339" lon="1.00001">
        <ele>1088.5</ele>
        <time>2019-01-31T01:17:02Z</time>
      </trkpt>
      <trkpt lat="42.03394" lon="1.00013">
        <ele>1088</ele>
        <time>2019-01-31T01:17:08Z</time>
      </trkpt>
      <trkpt lat="42.034" lon="1.00023">
        <ele>1087.9</ele>
        <time>2019-01-31T01:17:14Z</time>
      </trkpt>
      <trkpt lat="42.03408" lon="1.00028">
        <ele>1086.9</ele>
        <time>2019-01-31T01:17:19Z</time>
      </trkpt>
      <trkpt lat="42.03415" lon="1.00035">
        <ele>1086.4</ele>
        <time>2019-01-31T01:17:24Z</time>
      </trkpt>
      <trkpt lat="42.03423" lon="1.00044">
        <ele>1085.5</ele>
        <time>2019-01-31T01:17:29Z</time>
      </trkpt>
      <trkpt lat="42.03429" lon="1.00056">
        <ele>1084.5</ele>
        <time>2019-01-31T01:17:36Z</time>
      </trkpt>
      <trkpt lat="42.03435" lon="1.00066">
        <ele>1084</ele>
        <time>2019-01-31T01:17:41Z</time>
      </trkpt>
      <trkpt lat="42.03441" lon="1.00079">
        <ele>1083.1</ele>
        <time>2019-01-31T01:17:47Z</time>
      </trkpt>
      <trkpt lat="42.03446" lon="1.00089">
        <ele>1082.7</ele>
        <time>2019-01-31T01:17:53Z</time>
      </trkpt>
      <trkpt lat="42.03453" lon="1.00099">
        <ele>1082.2</ele>
        <time>2019-01-31T01:17:59Z</time>
      </trkpt>
      <trkpt lat="42.03458" lon="1.0011">
        <ele>1081.6</ele>
        <time>2019-01-31T01:18:04Z</time>
      </trkpt>
      <trkpt lat="42.03464" lon="1.00121">
        <ele>1081.2</ele>
        <time>2019-01-31T01:18:10Z</time>
      </trkpt>
      <trkpt lat="42.03472" lon="1.0013">
        <ele>1080.7</ele>
        <time>2019-01-31T01:18:16Z</time>
      </trkpt>
      <trkpt lat="42.03478" lon="1.00139">
        <ele>1080.7</ele>
        <time>2019-01-31T01:18:21Z</time>
      </trkpt>
      <trkpt lat="42.03484" lon="1.00149">
        <ele>1080.2</ele>
        <time>2019-01-31T01:18:27Z</time>
      </trkpt>
      <trkpt lat="42.03492" lon="1.00158">
        <ele>1079.8</ele>
        <time>2019-01-31T01:18:32Z</time>
      </trkpt>
      <trkpt lat="42.03499" lon="1.00164">
        <ele>1079.3</ele>
        <time>2019-01-31T01:18:37Z</time>
      </trkpt>
      <trkpt lat="42.03504" lon="1.00174">
        <ele>1078.7</ele>
        <time>2019-01-31T01:18:42Z</time>
      </trkpt>
      <trkpt lat="42.03511" lon="1.00182">
        <ele>1078.3</ele>
        <time>2019-01-31T01:18:47Z</time>
      </trkpt>
      <trkpt lat="42.03516" lon="1.00192">
        <ele>1078.4</ele>
        <time>2019-01-31T01:18:52Z</time>
      </trkpt>
      <trkpt lat="42.0352" lon="1.00202">
        <ele>1077.3</ele>
        <time>2019-01-31T01:18:57Z</time>
      </trkpt>
      <trkpt lat="42.03527" lon="1.00212">
        <ele>1077.3</ele>
        <time>2019-01-31T01:19:03Z</time>
      </trkpt>
      <trkpt lat="42.03534" lon="1.00222">
        <ele>1077.3</ele>
        <time>2019-01-31T01:19:09Z</time>
      </trkpt>
      <trkpt lat="42.03541" lon="1.00234">
        <ele>1076.8</ele>
        <time>2019-01-31T01:19:16Z</time>
      </trkpt>
      <trkpt lat="42.03544" lon="1.00247">
        <ele>1076.8</ele>
        <time>2019-01-31T01:19:21Z</time>
      </trkpt>
      <trkpt lat="42.03549" lon="1.00259">
        <ele>1076.3</ele>
        <time>2019-01-31T01:19:27Z</time>
      </trkpt>
      <trkpt lat="42.03553" lon="1.00271">
        <ele>1075.4</ele>
        <time>2019-01-31T01:19:33Z</time>
      </trkpt>
      <trkpt lat="42.0356" lon="1.00282">
        <ele>1074.5</ele>
        <time>2019-01-31T01:19:39Z</time>
      </trkpt>
      <trkpt lat="42.03567" lon="1.0029">
        <ele>1073.9</ele>
        <time>2019-01-31T01:19:44Z</time>
      </trkpt>
      <trkpt lat="42.03574" lon="1.00303">
        <ele>1073.1</ele>
        <time>2019-01-31T01:19:51Z</time>
      </trkpt>
      <trkpt lat="42.0358" lon="1.00314">
        <ele>1072.5</ele>
        <time>2019-01-31T01:19:57Z</time>
      </trkpt>
      <trkpt lat="42.03587" lon="1.00322">
        <ele>1072.1</ele>
        <time>2019-01-31T01:20:02Z</time>
      </trkpt>
      <trkpt lat="42.03594" lon="1.00331">
        <ele>1071.6</ele>
        <time>2019-01-31T01:20:08Z</time>
      </trkpt>
      <trkpt lat="42.03601" lon="1.00341">
        <ele>1071.6</ele>
        <time>2019-01-31T01:20:14Z</time>
      </trkpt>
      <trkpt lat="42.03607" lon="1.00354">
        <ele>1071.1</ele>
        <time>2019-01-31T01:20:20Z</time>
      </trkpt>
      <trkpt lat="42.03614" lon="1.00366">
        <ele>1070.1</ele>
        <time>2019-01-31T01:20:26Z</time>
      </trkpt>
      <trkpt lat="42.03622" lon="1.00374">
        <ele>1069.6</ele>
        <time>2019-01-31T01:20:32Z</time>
      </trkpt>
      <trkpt lat="42.03628" lon="1.00366">
        <ele>1069.7</ele>
        <time>2019-01-31T01:20:37Z</time>
      </trkpt>
      <trkpt lat="42.03632" lon="1.00355">
        <ele>1071.2</ele>
        <time>2019-01-31T01:20:42Z</time>
      </trkpt>
      <trkpt lat="42.03636" lon="1.00343">
        <ele>1072.6</ele>
        <time>2019-01-31T01:20:48Z</time>
      </trkpt>
      <trkpt lat="42.03645" lon="1.00335">
        <ele>1073</ele>
        <time>2019-01-31T01:20:54Z</time>
      </trkpt>
      <trkpt lat="42.03654" lon="1.0033">
        <ele>1075</ele>
        <time>2019-01-31T01:20:59Z</time>
      </trkpt>
      <trkpt lat="42.03666" lon="1.00324">
        <ele>1076</ele>
        <time>2019-01-31T01:21:06Z</time>
      </trkpt>
      <trkpt lat="42.03677" lon="1.00319">
        <ele>1076.3</ele>
        <time>2019-01-31T01:21:13Z</time>
      </trkpt>
      <trkpt lat="42.03688" lon="1.00312">
        <ele>1076.9</ele>
        <time>2019-01-31T01:21:20Z</time>
      </trkpt>
      <trkpt lat="42.03697" lon="1.00303">
        <ele>1076.8</ele>
        <time>2019-01-31T01:21:27Z</time>
      </trkpt>
      <trkpt lat="42.03705" lon="1.00292">
        <ele>1077.3</ele>
        <time>2019-01-31T01:21:33Z</time>
      </trkpt>
      <trkpt lat="42.03718" lon="1.00282">
        <ele>1078.7</ele>
        <time>2019-01-31T01:21:42Z</time>
      </trkpt>
      <trkpt lat="42.0373" lon="1.00272">
        <ele>1079.3</ele>
        <time>2019-01-31T01:21:50Z</time>
      </trkpt>
      <trkpt lat="42.03741" lon="1.00264">
        <ele>1080.7</ele>
        <time>2019-01-31T01:21:57Z</time>
      </trkpt>
      <trkpt lat="42.03749" lon="1.00256">
        <ele>1081.2</ele>
        <time>2019-01-31T01:22:03Z</time>
      </trkpt>
      <trkpt lat="42.03757" lon="1.00248">
        <ele>1082.1</ele>
        <time>2019-01-31T01:22:08Z</time>
      </trkpt>
      <trkpt lat="42.03765" lon="1.00241">
        <ele>1080.2</ele>
        <time>2019-01-31T01:22:14Z</time>
      </trkpt>
      <trkpt lat="42.03775" lon="1.00234">
        <ele>1079.3</ele>
        <time>2019-01-31T01:22:20Z</time>
      </trkpt>
      <trkpt lat="42.03785" lon="1.00229">
        <ele>1079.8</ele>
        <time>2019-01-31T01:22:26Z</time>
      </trkpt>
      <trkpt lat="42.03798" lon="1.00226">
        <ele>1079.8</ele>
        <time>2019-01-31T01:22:34Z</time>
      </trkpt>
      <trkpt lat="42.03809" lon="1.00228">
        <ele>1079.7</ele>
        <time>2019-01-31T01:22:40Z</time>
      </trkpt>
      <trkpt lat="42.03819" lon="1.00234">
        <ele>1079.7</ele>
        <time>2019-01-31T01:22:47Z</time>
      </trkpt>
      <trkpt lat="42.03827" lon="1.00242">
        <ele>1079.7</ele>
        <time>2019-01-31T01:22:52Z</time>
      </trkpt>
      <trkpt lat="42.03836" lon="1.00244">
        <ele>1079.8</ele>
        <time>2019-01-31T01:22:57Z</time>
      </trkpt>
      <trkpt lat="42.03846" lon="1.00246">
        <ele>1079.7</ele>
        <time>2019-01-31T01:23:03Z</time>
      </trkpt>
      <trkpt lat="42.03855" lon="1.0025">
        <ele>1079.7</ele>
        <time>2019-01-31T01:23:09Z</time>
      </trkpt>
      <trkpt lat="42.03864" lon="1.00255">
        <ele>1079.8</ele>
        <time>2019-01-31T01:23:14Z</time>
      </trkpt>
      <trkpt lat="42.03873" lon="1.00255">
        <ele>1079.8</ele>
        <time>2019-01-31T01:23:19Z</time>
      </trkpt>
      <trkpt lat="42.03884" lon="1.00257">
        <ele>1079.7</ele>
        <time>2019-01-31T01:23:25Z</time>
      </trkpt>
      <trkpt lat="42.03894" lon="1.00262">
        <ele>1079.7</ele>
        <time>2019-01-31T01:23:31Z</time>
      </trkpt>
      <trkpt lat="42.03901" lon="1.0027">
        <ele>1079.3</ele>
        <time>2019-01-31T01:23:37Z</time>
      </trkpt>
      <trkpt lat="42.0391" lon="1.00276">
        <ele>1080.7</ele>
        <time>2019-01-31T01:23:43Z</time>
      </trkpt>
      <trkpt lat="42.03918" lon="1.0027">
        <ele>1082.1</ele>
        <time>2019-01-31T01:23:48Z</time>
      </trkpt>
      <trkpt lat="42.03924" lon="1.0026">
        <ele>1082.1</ele>
        <time>2019-01-31T01:23:53Z</time>
      </trkpt>
      <trkpt lat="42.03931" lon="1.00251">
        <ele>1082.2</ele>
        <time>2019-01-31T01:23:59Z</time>
      </trkpt>
      <trkpt lat="42.03939" lon="1.00241">
        <ele>1082.2</ele>
        <time>2019-01-31T01:24:05Z</time>
      </trkpt>
      <trkpt lat="42.03947" lon="1.00231">
        <ele>1082.1</ele>
        <time>2019-01-31T01:24:11Z</time>
      </trkpt>
      <trkpt lat="42.03954" lon="1.0022">
        <ele>1082.6</ele>
        <time>2019-01-31T01:24:17Z</time>
      </trkpt>
      <trkpt lat="42.03961" lon="1.00211">
        <ele>1083.6</ele>
        <time>2019-01-31T01:24:23Z</time>
      </trkpt>
      <trkpt lat="42.03968" lon="1.00202">
        <ele>1083.6</ele>
        <time>2019-01-31T01:24:28Z</time>
      </trkpt>
      <trkpt lat="42.03975" lon="1.00193">
        <ele>1083.5</ele>
        <time>2019-01-31T01:24:34Z</time>
      </trkpt>
      <trkpt lat="42.03983" lon="1.00185">
        <ele>1083.5</ele>
        <time>2019-01-31T01:24:40Z</time>
      </trkpt>
      <trkpt lat="42.0399" lon="1.00177">
        <ele>1083.5</ele>
        <time>2019-01-31T01:24:45Z</time>
      </trkpt>
      <trkpt lat="42.03999" lon="1.0017">
        <ele>1081.6</ele>
        <time>2019-01-31T01:24:51Z</time>
      </trkpt>
      <trkpt lat="42.04008" lon="1.00164">
        <ele>1081.6</ele>
        <time>2019-01-31T01:24:57Z</time>
      </trkpt>
      <trkpt lat="42.04018" lon="1.0016">
        <ele>1080.7</ele>
        <time>2019-01-31T01:25:03Z</time>
      </trkpt>
      <trkpt lat="42.04028" lon="1.00159">
        <ele>1080.7</ele>
        <time>2019-01-31T01:25:09Z</time>
      </trkpt>
      <trkpt lat="42.04039" lon="1.00157">
        <ele>1080.3</ele>
        <time>2019-01-31T01:25:14Z</time>
      </trkpt>
      <trkpt lat="42.04049" lon="1.00157">
        <ele>1079.2</ele>
        <time>2019-01-31T01:25:20Z</time>
      </trkpt>
      <trkpt lat="42.04059" lon="1.00153">
        <ele>1079.3</ele>
        <time>2019-01-31T01:25:26Z</time>
      </trkpt>
      <trkpt lat="42.04069" lon="1.00151">
        <ele>1078.4</ele>
        <time>2019-01-31T01:25:32Z</time>
      </trkpt>
      <trkpt lat="42.04079" lon="1.00148">
        <ele>1077.9</ele>
        <time>2019-01-31T01:25:38Z</time>
      </trkpt>
      <trkpt lat="42.04088" lon="1.00144">
        <ele>1076.9</ele>
        <time>2019-01-31T01:25:43Z</time>
      </trkpt>
      <trkpt lat="42.04098" lon="1.00142">
        <ele>1075.9</ele>
        <time>2019-01-31T01:25:49Z</time>
      </trkpt>
      <trkpt lat="42.04108" lon="1.0014">
        <ele>1075.9</ele>
        <time>2019-01-31T01:25:55Z</time>
      </trkpt>
      <trkpt lat="42.04118" lon="1.00139">
        <ele>1074.4</ele>
        <time>2019-01-31T01:26:00Z</time>
      </trkpt>
      <trkpt lat="42.04128" lon="1.00137">
        <ele>1073.9</ele>
        <time>2019-01-31T01:26:06Z</time>
      </trkpt>
      <trkpt lat="42.04139" lon="1.00135">
        <ele>1073</ele>
        <time>2019-01-31T01:26:13Z</time>
      </trkpt>
      <trkpt lat="42.0415" lon="1.00133">
        <ele>1071.6</ele>
        <time>2019-01-31T01:26:19Z</time>
      </trkpt>
      <trkpt lat="42.04161" lon="1.00131">
        <ele>1070.7</ele>
        <time>2019-01-31T01:26:26Z</time>
      </trkpt>
      <trkpt lat="42.04173" lon="1.00129">
        <ele>1070.2</ele>
        <time>2019-01-31T01:26:32Z</time>
      </trkpt>
      <trkpt lat="42.04183" lon="1.00126">
        <ele>1068.6</ele>
        <time>2019-01-31T01:26:38Z</time>
      </trkpt>
      <trkpt lat="42.04194" lon="1.00125">
        <ele>1067.7</ele>
        <time>2019-01-31T01:26:44Z</time>
      </trkpt>
      <trkpt lat="42.04205" lon="1.00124">
        <ele>1067.3</ele>
        <time>2019-01-31T01:26:51Z</time>
      </trkpt>
      <trkpt lat="42.04216" lon="1.00122">
        <ele>1065.8</ele>
        <time>2019-01-31T01:26:57Z</time>
      </trkpt>
      <trkpt lat="42.04228" lon="1.00123">
        <ele>1065.3</ele>
        <time>2019-01-31T01:27:04Z</time>
      </trkpt>
      <trkpt lat="42.04238" lon="1.00127">
        <ele>1064.3</ele>
        <time>2019-01-31T01:27:10Z</time>
      </trkpt>
      <trkpt lat="42.04249" lon="1.00131">
        <ele>1063.9</ele>
        <time>2019-01-31T01:27:17Z</time>
      </trkpt>
      <trkpt lat="42.0426" lon="1.00137">
        <ele>1062.4</ele>
        <time>2019-01-31T01:27:23Z</time>
      </trkpt>
      <trkpt lat="42.0427" lon="1.00144">
        <ele>1061.5</ele>
        <time>2019-01-31T01:27:30Z</time>
      </trkpt>
      <trkpt lat="42.0428" lon="1.0015">
        <ele>1060.5</ele>
        <time>2019-01-31T01:27:36Z</time>
      </trkpt>
      <trkpt lat="42.0429" lon="1.00154">
        <ele>1060</ele>
        <time>2019-01-31T01:27:42Z</time>
      </trkpt>
      <trkpt lat="42.04301" lon="1.00155">
        <ele>1058.7</ele>
        <time>2019-01-31T01:27:48Z</time>
      </trkpt>
      <trkpt lat="42.04312" lon="1.00152">
        <ele>1058.2</ele>
        <time>2019-01-31T01:27:54Z</time>
      </trkpt>
      <trkpt lat="42.04322" lon="1.00149">
        <ele>1057.2</ele>
        <time>2019-01-31T01:28:00Z</time>
      </trkpt>
      <trkpt lat="42.04333" lon="1.00145">
        <ele>1056.7</ele>
        <time>2019-01-31T01:28:07Z</time>
      </trkpt>
      <trkpt lat="42.04344" lon="1.00142">
        <ele>1056.2</ele>
        <time>2019-01-31T01:28:13Z</time>
      </trkpt>
      <trkpt lat="42.04355" lon="1.0014">
        <ele>1055.2</ele>
        <time>2019-01-31T01:28:19Z</time>
      </trkpt>
      <trkpt lat="42.04364" lon="1.00136">
        <ele>1054.3</ele>
        <time>2019-01-31T01:28:25Z</time>
      </trkpt>
      <trkpt lat="42.04374" lon="1.00131">
        <ele>1052.8</ele>
        <time>2019-01-31T01:28:31Z</time>
      </trkpt>
      <trkpt lat="42.04384" lon="1.00125">
        <ele>1052.3</ele>
        <time>2019-01-31T01:28:37Z</time>
      </trkpt>
      <trkpt lat="42.04393" lon="1.00118">
        <ele>1051</ele>
        <time>2019-01-31T01:28:44Z</time>
      </trkpt>
      <trkpt lat="42.04402" lon="1.00109">
        <ele>1050</ele>
        <time>2019-01-31T01:28:50Z</time>
      </trkpt>
      <trkpt lat="42.0441" lon="1.00101">
        <ele>1049.4</ele>
        <time>2019-01-31T01:28:55Z</time>
      </trkpt>
      <trkpt lat="42.04418" lon="1.00094">
        <ele>1048.6</ele>
        <time>2019-01-31T01:29:01Z</time>
      </trkpt>
      <trkpt lat="42.04427" lon="1.00088">
        <ele>1047.5</ele>
        <time>2019-01-31T01:29:07Z</time>
      </trkpt>
      <trkpt lat="42.04436" lon="1.00081">
        <ele>1047.1</ele>
        <time>2019-01-31T01:29:13Z</time>
      </trkpt>
      <trkpt lat="42.04447" lon="1.00077">
        <ele>1046.5</ele>
        <time>2019-01-31T01:29:19Z</time>
      </trkpt>
      <trkpt lat="42.04458" lon="1.00076">
        <ele>1046.1</ele>
        <time>2019-01-31T01:29:26Z</time>
      </trkpt>
      <trkpt lat="42.04469" lon="1.0008">
        <ele>1045.2</ele>
        <time>2019-01-31T01:29:32Z</time>
      </trkpt>
      <trkpt lat="42.04478" lon="1.00086">
        <ele>1044.7</ele>
        <time>2019-01-31T01:29:38Z</time>
      </trkpt>
      <trkpt lat="42.04488" lon="1.00089">
        <ele>1043.2</ele>
        <time>2019-01-31T01:29:44Z</time>
      </trkpt>
      <trkpt lat="42.04498" lon="1.00092">
        <ele>1041.8</ele>
        <time>2019-01-31T01:29:49Z</time>
      </trkpt>
      <trkpt lat="42.04509" lon="1.00091">
        <ele>1041.4</ele>
        <time>2019-01-31T01:29:55Z</time>
      </trkpt>
      <trkpt lat="42.04518" lon="1.00087">
        <ele>1040.4</ele>
        <time>2019-01-31T01:30:01Z</time>
      </trkpt>
      <trkpt lat="42.04527" lon="1.00082">
        <ele>1039.3</ele>
        <time>2019-01-31T01:30:07Z</time>
      </trkpt>
      <trkpt lat="42.04536" lon="1.00076">
        <ele>1038.5</ele>
        <time>2019-01-31T01:30:13Z</time>
      </trkpt>
      <trkpt lat="42.04544" lon="1.00066">
        <ele>1037.4</ele>
        <time>2019-01-31T01:30:19Z</time>
      </trkpt>
      <trkpt lat="42.04552" lon="1.00056">
        <ele>1036.4</ele>
        <time>2019-01-31T01:30:25Z</time>
      </trkpt>
      <trkpt lat="42.0456" lon="1.00045">
        <ele>1035.5</ele>
        <time>2019-01-31T01:30:31Z</time>
      </trkpt>
      <trkpt lat="42.04567" lon="1.00034">
        <ele>1034.5</ele>
        <time>2019-01-31T01:30:38Z</time>
      </trkpt>
      <trkpt lat="42.04574" lon="1.00023">
        <ele>1034.1</ele>
        <time>2019-01-31T01:30:44Z</time>
      </trkpt>
      <trkpt lat="42.04582" lon="1.00012">
        <ele>1033.7</ele>
        <time>2019-01-31T01:30:50Z</time>
      </trkpt>
      <trkpt lat="42.04592" lon="1.00004">
        <ele>1032.6</ele>
        <time>2019-01-31T01:30:57Z</time>
      </trkpt>
      <trkpt lat="42.04602" lon="0.99998">
        <ele>1031.7</ele>
        <time>2019-01-31T01:31:03Z</time>
      </trkpt>
      <trkpt lat="42.04612" lon="0.99993">
        <ele>1030.7</ele>
        <time>2019-01-31T01:31:09Z</time>
      </trkpt>
      <trkpt lat="42.04623" lon="0.99988">
        <ele>1029.7</ele>
        <time>2019-01-31T01:31:16Z</time>
      </trkpt>
      <trkpt lat="42.04633" lon="0.99984">
        <ele>1029.2</ele>
        <time>2019-01-31T01:31:22Z</time>
      </trkpt>
      <trkpt lat="42.04643" lon="0.99979">
        <ele>1027.8</ele>
        <time>2019-01-31T01:31:28Z</time>
      </trkpt>
      <trkpt lat="42.04653" lon="0.99974">
        <ele>1026.3</ele>
        <time>2019-01-31T01:31:34Z</time>
      </trkpt>
      <trkpt lat="42.04664" lon="0.9997">
        <ele>1025.9</ele>
        <time>2019-01-31T01:31:40Z</time>
      </trkpt>
      <trkpt lat="42.04674" lon="0.99966">
        <ele>1025</ele>
        <time>2019-01-31T01:31:46Z</time>
      </trkpt>
      <trkpt lat="42.04684" lon="0.9996">
        <ele>1023.9</ele>
        <time>2019-01-31T01:31:52Z</time>
      </trkpt>
      <trkpt lat="42.04694" lon="0.99955">
        <ele>1023.5</ele>
        <time>2019-01-31T01:31:59Z</time>
      </trkpt>
      <trkpt lat="42.04704" lon="0.99949">
        <ele>1022.1</ele>
        <time>2019-01-31T01:32:05Z</time>
      </trkpt>
      <trkpt lat="42.04714" lon="0.99944">
        <ele>1021.5</ele>
        <time>2019-01-31T01:32:11Z</time>
      </trkpt>
      <trkpt lat="42.04723" lon="0.99939">
        <ele>1020.6</ele>
        <time>2019-01-31T01:32:17Z</time>
      </trkpt>
      <trkpt lat="42.04733" lon="0.99934">
        <ele>1019.7</ele>
        <time>2019-01-31T01:32:23Z</time>
      </trkpt>
      <trkpt lat="42.04741" lon="0.99927">
        <ele>1019.2</ele>
        <time>2019-01-31T01:32:28Z</time>
      </trkpt>
      <trkpt lat="42.0475" lon="0.9992">
        <ele>1018.7</ele>
        <time>2019-01-31T01:32:34Z</time>
      </trkpt>
      <trkpt lat="42.04758" lon="0.99912">
        <ele>1017.7</ele>
        <time>2019-01-31T01:32:40Z</time>
      </trkpt>
      <trkpt lat="42.04766" lon="0.99904">
        <ele>1016.3</ele>
        <time>2019-01-31T01:32:46Z</time>
      </trkpt>
      <trkpt lat="42.04773" lon="0.99894">
        <ele>1015.9</ele>
        <time>2019-01-31T01:32:52Z</time>
      </trkpt>
      <trkpt lat="42.04779" lon="0.99883">
        <ele>1014.9</ele>
        <time>2019-01-31T01:32:57Z</time>
      </trkpt>
      <trkpt lat="42.04784" lon="0.9987">
        <ele>1014</ele>
        <time>2019-01-31T01:33:04Z</time>
      </trkpt>
      <trkpt lat="42.04789" lon="0.99857">
        <ele>1013.5</ele>
        <time>2019-01-31T01:33:10Z</time>
      </trkpt>
      <trkpt lat="42.04794" lon="0.99844">
        <ele>1012.5</ele>
        <time>2019-01-31T01:33:16Z</time>
      </trkpt>
      <trkpt lat="42.04798" lon="0.99831">
        <ele>1011.5</ele>
        <time>2019-01-31T01:33:22Z</time>
      </trkpt>
      <trkpt lat="42.04802" lon="0.99817">
        <ele>1011</ele>
        <time>2019-01-31T01:33:29Z</time>
      </trkpt>
      <trkpt lat="42.04807" lon="0.99802">
        <ele>1009.6</ele>
        <time>2019-01-31T01:33:35Z</time>
      </trkpt>
      <trkpt lat="42.04811" lon="0.99786">
        <ele>1008.6</ele>
        <time>2019-01-31T01:33:42Z</time>
      </trkpt>
      <trkpt lat="42.04814" lon="0.99772">
        <ele>1007.1</ele>
        <time>2019-01-31T01:33:49Z</time>
      </trkpt>
      <trkpt lat="42.04815" lon="0.99757">
        <ele>1006.6</ele>
        <time>2019-01-31T01:33:55Z</time>
      </trkpt>
      <trkpt lat="42.04816" lon="0.99742">
        <ele>1005.8</ele>
        <time>2019-01-31T01:34:01Z</time>
      </trkpt>
      <trkpt lat="42.04816" lon="0.99727">
        <ele>1005.3</ele>
        <time>2019-01-31T01:34:08Z</time>
      </trkpt>
      <trkpt lat="42.04818" lon="0.99713">
        <ele>1004.3</ele>
        <time>2019-01-31T01:34:14Z</time>
      </trkpt>
      <trkpt lat="42.04823" lon="0.99699">
        <ele>1003.4</ele>
        <time>2019-01-31T01:34:20Z</time>
      </trkpt>
      <trkpt lat="42.04829" lon="0.99687">
        <ele>1002.4</ele>
        <time>2019-01-31T01:34:27Z</time>
      </trkpt>
      <trkpt lat="42.04835" lon="0.99675">
        <ele>1001.5</ele>
        <time>2019-01-31T01:34:33Z</time>
      </trkpt>
      <trkpt lat="42.04838" lon="0.99662">
        <ele>1000</ele>
        <time>2019-01-31T01:34:39Z</time>
      </trkpt>
      <trkpt lat="42.04833" lon="0.99649">
        <ele>999</ele>
        <time>2019-01-31T01:34:45Z</time>
      </trkpt>
      <trkpt lat="42.04824" lon="0.99645">
        <ele>997.6</ele>
        <time>2019-01-31T01:34:50Z</time>
      </trkpt>
      <trkpt lat="42.04816" lon="0.99652">
        <ele>997</ele>
        <time>2019-01-31T01:34:56Z</time>
      </trkpt>
      <trkpt lat="42.0481" lon="0.99662">
        <ele>996.1</ele>
        <time>2019-01-31T01:35:02Z</time>
      </trkpt>
      <trkpt lat="42.04804" lon="0.99673">
        <ele>995.7</ele>
        <time>2019-01-31T01:35:07Z</time>
      </trkpt>
      <trkpt lat="42.04801" lon="0.99685">
        <ele>995.6</ele>
        <time>2019-01-31T01:35:13Z</time>
      </trkpt>
      <trkpt lat="42.04797" lon="0.99698">
        <ele>995.6</ele>
        <time>2019-01-31T01:35:19Z</time>
      </trkpt>
      <trkpt lat="42.04794" lon="0.99711">
        <ele>994.7</ele>
        <time>2019-01-31T01:35:24Z</time>
      </trkpt>
      <trkpt lat="42.04789" lon="0.99723">
        <ele>994.1</ele>
        <time>2019-01-31T01:35:30Z</time>
      </trkpt>
      <trkpt lat="42.0478" lon="0.99732">
        <ele>993.2</ele>
        <time>2019-01-31T01:35:37Z</time>
      </trkpt>
      <trkpt lat="42.04769" lon="0.99738">
        <ele>992.3</ele>
        <time>2019-01-31T01:35:44Z</time>
      </trkpt>
      <trkpt lat="42.04758" lon="0.9974">
        <ele>991.8</ele>
        <time>2019-01-31T01:35:50Z</time>
      </trkpt>
      <trkpt lat="42.04748" lon="0.99738">
        <ele>990.9</ele>
        <time>2019-01-31T01:35:56Z</time>
      </trkpt>
      <trkpt lat="42.04737" lon="0.99737">
        <ele>989.8</ele>
        <time>2019-01-31T01:36:02Z</time>
      </trkpt>
      <trkpt lat="42.04727" lon="0.99739">
        <ele>988.4</ele>
        <time>2019-01-31T01:36:08Z</time>
      </trkpt>
      <trkpt lat="42.04718" lon="0.99739">
        <ele>987.5</ele>
        <time>2019-01-31T01:36:13Z</time>
      </trkpt>
      <trkpt lat="42.04708" lon="0.99733">
        <ele>986.9</ele>
        <time>2019-01-31T01:36:19Z</time>
      </trkpt>
      <trkpt lat="42.04701" lon="0.99724">
        <ele>987</ele>
        <time>2019-01-31T01:36:25Z</time>
      </trkpt>
      <trkpt lat="42.04691" lon="0.99715">
        <ele>987</ele>
        <time>2019-01-31T01:36:32Z</time>
      </trkpt>
      <trkpt lat="42.04682" lon="0.9971">
        <ele>986</ele>
        <time>2019-01-31T01:36:37Z</time>
      </trkpt>
      <trkpt lat="42.04673" lon="0.99707">
        <ele>986</ele>
        <time>2019-01-31T01:36:43Z</time>
      </trkpt>
      <trkpt lat="42.04663" lon="0.99705">
        <ele>985.6</ele>
        <time>2019-01-31T01:36:48Z</time>
      </trkpt>
      <trkpt lat="42.04654" lon="0.99703">
        <ele>986.1</ele>
        <time>2019-01-31T01:36:54Z</time>
      </trkpt>
      <trkpt lat="42.04645" lon="0.99701">
        <ele>986</ele>
        <time>2019-01-31T01:36:59Z</time>
      </trkpt>
      <trkpt lat="42.04635" lon="0.99697">
        <ele>987.4</ele>
        <time>2019-01-31T01:37:05Z</time>
      </trkpt>
      <trkpt lat="42.04625" lon="0.99696">
        <ele>987.4</ele>
        <time>2019-01-31T01:37:10Z</time>
      </trkpt>
      <trkpt lat="42.04615" lon="0.99695">
        <ele>987.5</ele>
        <time>2019-01-31T01:37:16Z</time>
      </trkpt>
      <trkpt lat="42.04606" lon="0.99694">
        <ele>987.4</ele>
        <time>2019-01-31T01:37:22Z</time>
      </trkpt>
      <trkpt lat="42.04597" lon="0.99693">
        <ele>987.5</ele>
        <time>2019-01-31T01:37:27Z</time>
      </trkpt>
      <trkpt lat="42.04586" lon="0.99693">
        <ele>987.4</ele>
        <time>2019-01-31T01:37:33Z</time>
      </trkpt>
      <trkpt lat="42.04576" lon="0.99692">
        <ele>986.5</ele>
        <time>2019-01-31T01:37:39Z</time>
      </trkpt>
      <trkpt lat="42.04565" lon="0.99684">
        <ele>985.5</ele>
        <time>2019-01-31T01:37:45Z</time>
      </trkpt>
      <trkpt lat="42.04556" lon="0.99678">
        <ele>984.6</ele>
        <time>2019-01-31T01:37:51Z</time>
      </trkpt>
      <trkpt lat="42.04547" lon="0.99672">
        <ele>983.7</ele>
        <time>2019-01-31T01:37:57Z</time>
      </trkpt>
      <trkpt lat="42.04538" lon="0.99666">
        <ele>983.2</ele>
        <time>2019-01-31T01:38:03Z</time>
      </trkpt>
      <trkpt lat="42.0453" lon="0.99661">
        <ele>982.6</ele>
        <time>2019-01-31T01:38:08Z</time>
      </trkpt>
      <trkpt lat="42.0452" lon="0.99658">
        <ele>981.6</ele>
        <time>2019-01-31T01:38:14Z</time>
      </trkpt>
      <trkpt lat="42.04511" lon="0.99656">
        <ele>981.6</ele>
        <time>2019-01-31T01:38:19Z</time>
      </trkpt>
      <trkpt lat="42.045" lon="0.99654">
        <ele>980.7</ele>
        <time>2019-01-31T01:38:25Z</time>
      </trkpt>
      <trkpt lat="42.04491" lon="0.9965">
        <ele>979.7</ele>
        <time>2019-01-31T01:38:31Z</time>
      </trkpt>
      <trkpt lat="42.04482" lon="0.99644">
        <ele>979.8</ele>
        <time>2019-01-31T01:38:37Z</time>
      </trkpt>
      <trkpt lat="42.04475" lon="0.99635">
        <ele>980.2</ele>
        <time>2019-01-31T01:38:42Z</time>
      </trkpt>
      <trkpt lat="42.04467" lon="0.99631">
        <ele>982.2</ele>
        <time>2019-01-31T01:38:47Z</time>
      </trkpt>
      <trkpt lat="42.04458" lon="0.99627">
        <ele>983.7</ele>
        <time>2019-01-31T01:38:52Z</time>
      </trkpt>
      <trkpt lat="42.04449" lon="0.99624">
        <ele>984.1</ele>
        <time>2019-01-31T01:38:58Z</time>
      </trkpt>
      <trkpt lat="42.0444" lon="0.99621">
        <ele>985.1</ele>
        <time>2019-01-31T01:39:03Z</time>
      </trkpt>
      <trkpt lat="42.0443" lon="0.99618">
        <ele>986</ele>
        <time>2019-01-31T01:39:09Z</time>
      </trkpt>
      <trkpt lat="42.04421" lon="0.99617">
        <ele>988.4</ele>
        <time>2019-01-31T01:39:14Z</time>
      </trkpt>
      <trkpt lat="42.04412" lon="0.99615">
        <ele>989.8</ele>
        <time>2019-01-31T01:39:19Z</time>
      </trkpt>
      <trkpt lat="42.04402" lon="0.99616">
        <ele>989.9</ele>
        <time>2019-01-31T01:39:25Z</time>
      </trkpt>
      <trkpt lat="42.04392" lon="0.99618">
        <ele>989.8</ele>
        <time>2019-01-31T01:39:31Z</time>
      </trkpt>
      <trkpt lat="42.04383" lon="0.99622">
        <ele>990.3</ele>
        <time>2019-01-31T01:39:36Z</time>
      </trkpt>
      <trkpt lat="42.04373" lon="0.99622">
        <ele>990.4</ele>
        <time>2019-01-31T01:39:42Z</time>
      </trkpt>
      <trkpt lat="42.04366" lon="0.99612">
        <ele>990.4</ele>
        <time>2019-01-31T01:39:48Z</time>
      </trkpt>
      <trkpt lat="42.04361" lon="0.99598">
        <ele>990.8</ele>
        <time>2019-01-31T01:39:54Z</time>
      </trkpt>
      <trkpt lat="42.04353" lon="0.9959">
        <ele>990.8</ele>
        <time>2019-01-31T01:40:00Z</time>
      </trkpt>
      <trkpt lat="42.04346" lon="0.99585">
        <ele>989.3</ele>
        <time>2019-01-31T01:40:05Z</time>
      </trkpt>
      <trkpt lat="42.04336" lon="0.99579">
        <ele>989.8</ele>
        <time>2019-01-31T01:40:11Z</time>
      </trkpt>
      <trkpt lat="42.04328" lon="0.99572">
        <ele>989.8</ele>
        <time>2019-01-31T01:40:16Z</time>
      </trkpt>
      <trkpt lat="42.04319" lon="0.99566">
        <ele>990.9</ele>
        <time>2019-01-31T01:40:22Z</time>
      </trkpt>
      <trkpt lat="42.0431" lon="0.99562">
        <ele>991.8</ele>
        <time>2019-01-31T01:40:27Z</time>
      </trkpt>
      <trkpt lat="42.04301" lon="0.99557">
        <ele>992.3</ele>
        <time>2019-01-31T01:40:33Z</time>
      </trkpt>
      <trkpt lat="42.04294" lon="0.99545">
        <ele>992.3</ele>
        <time>2019-01-31T01:40:39Z</time>
      </trkpt>
      <trkpt lat="42.04287" lon="0.99535">
        <ele>992.7</ele>
        <time>2019-01-31T01:40:45Z</time>
      </trkpt>
      <trkpt lat="42.04278" lon="0.99529">
        <ele>994.2</ele>
        <time>2019-01-31T01:40:51Z</time>
      </trkpt>
      <trkpt lat="42.04269" lon="0.99525">
        <ele>996.1</ele>
        <time>2019-01-31T01:40:56Z</time>
      </trkpt>
      <trkpt lat="42.0426" lon="0.9952">
        <ele>996.2</ele>
        <time>2019-01-31T01:41:02Z</time>
      </trkpt>
      <trkpt lat="42.04249" lon="0.99516">
        <ele>996.1</ele>
        <time>2019-01-31T01:41:08Z</time>
      </trkpt>
      <trkpt lat="42.04239" lon="0.99515">
        <ele>996.1</ele>
        <time>2019-01-31T01:41:14Z</time>
      </trkpt>
      <trkpt lat="42.04229" lon="0.9951">
        <ele>996.5</ele>
        <time>2019-01-31T01:41:20Z</time>
      </trkpt>
      <trkpt lat="42.04221" lon="0.99498">
        <ele>997.1</ele>
        <time>2019-01-31T01:41:27Z</time>
      </trkpt>
      <trkpt lat="42.04214" lon="0.99487">
        <ele>997.5</ele>
        <time>2019-01-31T01:41:33Z</time>
      </trkpt>
      <trkpt lat="42.04206" lon="0.99482">
        <ele>997.5</ele>
        <time>2019-01-31T01:41:38Z</time>
      </trkpt>
      <trkpt lat="42.04196" lon="0.99484">
        <ele>997.5</ele>
        <time>2019-01-31T01:41:44Z</time>
      </trkpt>
      <trkpt lat="42.04187" lon="0.99488">
        <ele>998.1</ele>
        <time>2019-01-31T01:41:49Z</time>
      </trkpt>
      <trkpt lat="42.04178" lon="0.99492">
        <ele>998.1</ele>
        <time>2019-01-31T01:41:55Z</time>
      </trkpt>
      <trkpt lat="42.0417" lon="0.99499">
        <ele>996.6</ele>
        <time>2019-01-31T01:42:00Z</time>
      </trkpt>
      <trkpt lat="42.0416" lon="0.99501">
        <ele>995.6</ele>
        <time>2019-01-31T01:42:06Z</time>
      </trkpt>
      <trkpt lat="42.04154" lon="0.99489">
        <ele>994.7</ele>
        <time>2019-01-31T01:42:12Z</time>
      </trkpt>
      <trkpt lat="42.04153" lon="0.99474">
        <ele>993.7</ele>
        <time>2019-01-31T01:42:19Z</time>
      </trkpt>
      <trkpt lat="42.04151" lon="0.9946">
        <ele>992.2</ele>
        <time>2019-01-31T01:42:25Z</time>
      </trkpt>
      <trkpt lat="42.04151" lon="0.99444">
        <ele>991.8</ele>
        <time>2019-01-31T01:42:31Z</time>
      </trkpt>
      <trkpt lat="42.04154" lon="0.9943">
        <ele>990.8</ele>
        <time>2019-01-31T01:42:37Z</time>
      </trkpt>
      <trkpt lat="42.04155" lon="0.99418">
        <ele>989.8</ele>
        <time>2019-01-31T01:42:43Z</time>
      </trkpt>
      <trkpt lat="42.04156" lon="0.99404">
        <ele>989</ele>
        <time>2019-01-31T01:42:49Z</time>
      </trkpt>
      <trkpt lat="42.04157" lon="0.99391">
        <ele>987.9</ele>
        <time>2019-01-31T01:42:55Z</time>
      </trkpt>
      <trkpt lat="42.04163" lon="0.99378">
        <ele>987.5</ele>
        <time>2019-01-31T01:43:01Z</time>
      </trkpt>
      <trkpt lat="42.0417" lon="0.99368">
        <ele>986.5</ele>
        <time>2019-01-31T01:43:07Z</time>
      </trkpt>
      <trkpt lat="42.04174" lon="0.99354">
        <ele>986.6</ele>
        <time>2019-01-31T01:43:13Z</time>
      </trkpt>
      <trkpt lat="42.04177" lon="0.99342">
        <ele>986.6</ele>
        <time>2019-01-31T01:43:18Z</time>
      </trkpt>
      <trkpt lat="42.0418" lon="0.9933">
        <ele>986.5</ele>
        <time>2019-01-31T01:43:24Z</time>
      </trkpt>
      <trkpt lat="42.04186" lon="0.99318">
        <ele>986.5</ele>
        <time>2019-01-31T01:43:30Z</time>
      </trkpt>
      <trkpt lat="42.04192" lon="0.99306">
        <ele>986</ele>
        <time>2019-01-31T01:43:36Z</time>
      </trkpt>
      <trkpt lat="42.04196" lon="0.99294">
        <ele>985</ele>
        <time>2019-01-31T01:43:42Z</time>
      </trkpt>
      <trkpt lat="42.04197" lon="0.99281">
        <ele>984.5</ele>
        <time>2019-01-31T01:43:47Z</time>
      </trkpt>
      <trkpt lat="42.04204" lon="0.99264">
        <ele>983.2</ele>
        <time>2019-01-31T01:43:55Z</time>
      </trkpt>
      <trkpt lat="42.04206" lon="0.9925">
        <ele>982.7</ele>
        <time>2019-01-31T01:44:01Z</time>
      </trkpt>
      <trkpt lat="42.04207" lon="0.99236">
        <ele>981.6</ele>
        <time>2019-01-31T01:44:07Z</time>
      </trkpt>
      <trkpt lat="42.04206" lon="0.99222">
        <ele>980.3</ele>
        <time>2019-01-31T01:44:13Z</time>
      </trkpt>
      <trkpt lat="42.04205" lon="0.99207">
        <ele>979.2</ele>
        <time>2019-01-31T01:44:20Z</time>
      </trkpt>
      <trkpt lat="42.04206" lon="0.99192">
        <ele>977.8</ele>
        <time>2019-01-31T01:44:26Z</time>
      </trkpt>
      <trkpt lat="42.04208" lon="0.99177">
        <ele>976.8</ele>
        <time>2019-01-31T01:44:32Z</time>
      </trkpt>
      <trkpt lat="42.04206" lon="0.99159">
        <ele>976.4</ele>
        <time>2019-01-31T01:44:40Z</time>
      </trkpt>
      <trkpt lat="42.04206" lon="0.99142">
        <ele>976</ele>
        <time>2019-01-31T01:44:47Z</time>
      </trkpt>
      <trkpt lat="42.04204" lon="0.99129">
        <ele>975</ele>
        <time>2019-01-31T01:44:53Z</time>
      </trkpt>
      <trkpt lat="42.04201" lon="0.99113">
        <ele>973.5</ele>
        <time>2019-01-31T01:45:00Z</time>
      </trkpt>
      <trkpt lat="42.04198" lon="0.99098">
        <ele>972.6</ele>
        <time>2019-01-31T01:45:07Z</time>
      </trkpt>
      <trkpt lat="42.04198" lon="0.99085">
        <ele>972.1</ele>
        <time>2019-01-31T01:45:12Z</time>
      </trkpt>
      <trkpt lat="42.04201" lon="0.9907">
        <ele>971.7</ele>
        <time>2019-01-31T01:45:19Z</time>
      </trkpt>
      <trkpt lat="42.04201" lon="0.99054">
        <ele>970.7</ele>
        <time>2019-01-31T01:45:25Z</time>
      </trkpt>
      <trkpt lat="42.04202" lon="0.99037">
        <ele>969.7</ele>
        <time>2019-01-31T01:45:33Z</time>
      </trkpt>
      <trkpt lat="42.04205" lon="0.99019">
        <ele>968.8</ele>
        <time>2019-01-31T01:45:41Z</time>
      </trkpt>
      <trkpt lat="42.04206" lon="0.99005">
        <ele>967.7</ele>
        <time>2019-01-31T01:45:47Z</time>
      </trkpt>
      <trkpt lat="42.04207" lon="0.98992">
        <ele>966.7</ele>
        <time>2019-01-31T01:45:52Z</time>
      </trkpt>
      <trkpt lat="42.04207" lon="0.98977">
        <ele>966.4</ele>
        <time>2019-01-31T01:45:58Z</time>
      </trkpt>
      <trkpt lat="42.04206" lon="0.98963">
        <ele>965.8</ele>
        <time>2019-01-31T01:46:05Z</time>
      </trkpt>
      <trkpt lat="42.04205" lon="0.98949">
        <ele>964.9</ele>
        <time>2019-01-31T01:46:11Z</time>
      </trkpt>
      <trkpt lat="42.04204" lon="0.98934">
        <ele>964</ele>
        <time>2019-01-31T01:46:17Z</time>
      </trkpt>
      <trkpt lat="42.04205" lon="0.9892">
        <ele>962.4</ele>
        <time>2019-01-31T01:46:23Z</time>
      </trkpt>
      <trkpt lat="42.04208" lon="0.98904">
        <ele>961.1</ele>
        <time>2019-01-31T01:46:30Z</time>
      </trkpt>
      <trkpt lat="42.04212" lon="0.98889">
        <ele>959.6</ele>
        <time>2019-01-31T01:46:37Z</time>
      </trkpt>
      <trkpt lat="42.04215" lon="0.98872">
        <ele>958.2</ele>
        <time>2019-01-31T01:46:44Z</time>
      </trkpt>
      <trkpt lat="42.04217" lon="0.98856">
        <ele>956.7</ele>
        <time>2019-01-31T01:46:51Z</time>
      </trkpt>
      <trkpt lat="42.04222" lon="0.98838">
        <ele>955.2</ele>
        <time>2019-01-31T01:46:59Z</time>
      </trkpt>
      <trkpt lat="42.04229" lon="0.98822">
        <ele>953.8</ele>
        <time>2019-01-31T01:47:07Z</time>
      </trkpt>
      <trkpt lat="42.04223" lon="0.9881">
        <ele>952.4</ele>
        <time>2019-01-31T01:47:13Z</time>
      </trkpt>
      <trkpt lat="42.04216" lon="0.98815">
        <ele>951.9</ele>
        <time>2019-01-31T01:47:17Z</time>
      </trkpt>
      <trkpt lat="42.04209" lon="0.98821">
        <ele>951</ele>
        <time>2019-01-31T01:47:22Z</time>
      </trkpt>
      <trkpt lat="42.042" lon="0.98816">
        <ele>950.4</ele>
        <time>2019-01-31T01:47:28Z</time>
      </trkpt>
      <trkpt lat="42.04193" lon="0.98803">
        <ele>950</ele>
        <time>2019-01-31T01:47:35Z</time>
      </trkpt>
      <trkpt lat="42.04191" lon="0.98786">
        <ele>949.4</ele>
        <time>2019-01-31T01:47:42Z</time>
      </trkpt>
      <trkpt lat="42.04193" lon="0.98769">
        <ele>948.6</ele>
        <time>2019-01-31T01:47:49Z</time>
      </trkpt>
      <trkpt lat="42.04192" lon="0.98754">
        <ele>947.1</ele>
        <time>2019-01-31T01:47:56Z</time>
      </trkpt>
      <trkpt lat="42.04188" lon="0.98738">
        <ele>945.6</ele>
        <time>2019-01-31T01:48:03Z</time>
      </trkpt>
      <trkpt lat="42.04182" lon="0.98727">
        <ele>944.6</ele>
        <time>2019-01-31T01:48:09Z</time>
      </trkpt>
      <trkpt lat="42.04176" lon="0.98716">
        <ele>943.7</ele>
        <time>2019-01-31T01:48:15Z</time>
      </trkpt>
      <trkpt lat="42.04168" lon="0.98707">
        <ele>942.2</ele>
        <time>2019-01-31T01:48:20Z</time>
      </trkpt>
      <trkpt lat="42.0416" lon="0.98694">
        <ele>941.3</ele>
        <time>2019-01-31T01:48:27Z</time>
      </trkpt>
      <trkpt lat="42.04155" lon="0.98682">
        <ele>940.9</ele>
        <time>2019-01-31T01:48:33Z</time>
      </trkpt>
      <trkpt lat="42.04148" lon="0.98669">
        <ele>940.4</ele>
        <time>2019-01-31T01:48:40Z</time>
      </trkpt>
      <trkpt lat="42.0414" lon="0.98657">
        <ele>939.4</ele>
        <time>2019-01-31T01:48:47Z</time>
      </trkpt>
      <trkpt lat="42.0413" lon="0.98647">
        <ele>937.9</ele>
        <time>2019-01-31T01:48:54Z</time>
      </trkpt>
      <trkpt lat="42.04122" lon="0.98636">
        <ele>937</ele>
        <time>2019-01-31T01:49:01Z</time>
      </trkpt>
      <trkpt lat="42.04119" lon="0.98619">
        <ele>936.6</ele>
        <time>2019-01-31T01:49:08Z</time>
      </trkpt>
      <trkpt lat="42.04124" lon="0.98601">
        <ele>935.6</ele>
        <time>2019-01-31T01:49:16Z</time>
      </trkpt>
      <trkpt lat="42.04127" lon="0.98583">
        <ele>934.5</ele>
        <time>2019-01-31T01:49:24Z</time>
      </trkpt>
      <trkpt lat="42.04127" lon="0.98566">
        <ele>933.1</ele>
        <time>2019-01-31T01:49:31Z</time>
      </trkpt>
      <trkpt lat="42.04128" lon="0.98547">
        <ele>931.8</ele>
        <time>2019-01-31T01:49:39Z</time>
      </trkpt>
      <trkpt lat="42.04131" lon="0.98532">
        <ele>930.3</ele>
        <time>2019-01-31T01:49:46Z</time>
      </trkpt>
      <trkpt lat="42.04131" lon="0.98514">
        <ele>929.4</ele>
        <time>2019-01-31T01:49:53Z</time>
      </trkpt>
      <trkpt lat="42.04129" lon="0.98499">
        <ele>928.8</ele>
        <time>2019-01-31T01:50:00Z</time>
      </trkpt>
      <trkpt lat="42.04135" lon="0.98483">
        <ele>926.9</ele>
        <time>2019-01-31T01:50:07Z</time>
      </trkpt>
      <trkpt lat="42.04141" lon="0.98492">
        <ele>926</ele>
        <time>2019-01-31T01:50:12Z</time>
      </trkpt>
      <trkpt lat="42.04143" lon="0.98503">
        <ele>925.4</ele>
        <time>2019-01-31T01:50:17Z</time>
      </trkpt>
      <trkpt lat="42.04152" lon="0.98511">
        <ele>925</ele>
        <time>2019-01-31T01:50:23Z</time>
      </trkpt>
      <trkpt lat="42.04165" lon="0.98511">
        <ele>923.5</ele>
        <time>2019-01-31T01:50:31Z</time>
      </trkpt>
      <trkpt lat="42.04175" lon="0.98508">
        <ele>923</ele>
        <time>2019-01-31T01:50:37Z</time>
      </trkpt>
      <trkpt lat="42.04185" lon="0.98504">
        <ele>921.6</ele>
        <time>2019-01-31T01:50:43Z</time>
      </trkpt>
      <trkpt lat="42.04195" lon="0.98499">
        <ele>920.7</ele>
        <time>2019-01-31T01:50:49Z</time>
      </trkpt>
      <trkpt lat="42.04205" lon="0.98494">
        <ele>919.6</ele>
        <time>2019-01-31T01:50:55Z</time>
      </trkpt>
      <trkpt lat="42.04211" lon="0.98484">
        <ele>918.8</ele>
        <time>2019-01-31T01:51:00Z</time>
      </trkpt>
      <trkpt lat="42.04208" lon="0.98476">
        <ele>917.3</ele>
        <time>2019-01-31T01:51:04Z</time>
      </trkpt>
      <trkpt lat="42.042" lon="0.9847">
        <ele>916.8</ele>
        <time>2019-01-31T01:51:10Z</time>
      </trkpt>
      <trkpt lat="42.04192" lon="0.9846">
        <ele>915.9</ele>
        <time>2019-01-31T01:51:16Z</time>
      </trkpt>
      <trkpt lat="42.04187" lon="0.98447">
        <ele>914.5</ele>
        <time>2019-01-31T01:51:22Z</time>
      </trkpt>
      <trkpt lat="42.04183" lon="0.98435">
        <ele>914</ele>
        <time>2019-01-31T01:51:28Z</time>
      </trkpt>
      <trkpt lat="42.04179" lon="0.9842">
        <ele>913</ele>
        <time>2019-01-31T01:51:34Z</time>
      </trkpt>
      <trkpt lat="42.04176" lon="0.98404">
        <ele>912.4</ele>
        <time>2019-01-31T01:51:41Z</time>
      </trkpt>
      <trkpt lat="42.04172" lon="0.98389">
        <ele>911</ele>
        <time>2019-01-31T01:51:48Z</time>
      </trkpt>
      <trkpt lat="42.04167" lon="0.98374">
        <ele>910</ele>
        <time>2019-01-31T01:51:55Z</time>
      </trkpt>
      <trkpt lat="42.04163" lon="0.98361">
        <ele>909.1</ele>
        <time>2019-01-31T01:52:01Z</time>
      </trkpt>
      <trkpt lat="42.04162" lon="0.98346">
        <ele>908.1</ele>
        <time>2019-01-31T01:52:07Z</time>
      </trkpt>
      <trkpt lat="42.04162" lon="0.98331">
        <ele>907.2</ele>
        <time>2019-01-31T01:52:14Z</time>
      </trkpt>
      <trkpt lat="42.04161" lon="0.98315">
        <ele>906.8</ele>
        <time>2019-01-31T01:52:20Z</time>
      </trkpt>
      <trkpt lat="42.04162" lon="0.983">
        <ele>905.2</ele>
        <time>2019-01-31T01:52:27Z</time>
      </trkpt>
      <trkpt lat="42.04164" lon="0.98284">
        <ele>904.8</ele>
        <time>2019-01-31T01:52:34Z</time>
      </trkpt>
      <trkpt lat="42.04163" lon="0.9827">
        <ele>903.8</ele>
        <time>2019-01-31T01:52:40Z</time>
      </trkpt>
      <trkpt lat="42.04159" lon="0.98255">
        <ele>902.8</ele>
        <time>2019-01-31T01:52:46Z</time>
      </trkpt>
      <trkpt lat="42.04157" lon="0.98243">
        <ele>901.4</ele>
        <time>2019-01-31T01:52:52Z</time>
      </trkpt>
      <trkpt lat="42.04156" lon="0.98228">
        <ele>900.9</ele>
        <time>2019-01-31T01:52:58Z</time>
      </trkpt>
      <trkpt lat="42.04157" lon="0.98213">
        <ele>899.6</ele>
        <time>2019-01-31T01:53:05Z</time>
      </trkpt>
      <trkpt lat="42.04157" lon="0.98197">
        <ele>898.1</ele>
        <time>2019-01-31T01:53:11Z</time>
      </trkpt>
      <trkpt lat="42.04157" lon="0.98182">
        <ele>896.7</ele>
        <time>2019-01-31T01:53:18Z</time>
      </trkpt>
      <trkpt lat="42.04154" lon="0.98167">
        <ele>896.2</ele>
        <time>2019-01-31T01:53:24Z</time>
      </trkpt>
      <trkpt lat="42.04154" lon="0.98153">
        <ele>895.2</ele>
        <time>2019-01-31T01:53:30Z</time>
      </trkpt>
      <trkpt lat="42.04152" lon="0.98139">
        <ele>894.7</ele>
        <time>2019-01-31T01:53:36Z</time>
      </trkpt>
      <trkpt lat="42.04154" lon="0.98125">
        <ele>893.2</ele>
        <time>2019-01-31T01:53:42Z</time>
      </trkpt>
      <trkpt lat="42.04156" lon="0.9811">
        <ele>892.8</ele>
        <time>2019-01-31T01:53:49Z</time>
      </trkpt>
      <trkpt lat="42.04154" lon="0.98097">
        <ele>891.4</ele>
        <time>2019-01-31T01:53:54Z</time>
      </trkpt>
      <trkpt lat="42.04151" lon="0.98084">
        <ele>890.8</ele>
        <time>2019-01-31T01:54:00Z</time>
      </trkpt>
      <trkpt lat="42.04147" lon="0.9807">
        <ele>890.3</ele>
        <time>2019-01-31T01:54:06Z</time>
      </trkpt>
      <trkpt lat="42.04145" lon="0.98055">
        <ele>889</ele>
        <time>2019-01-31T01:54:13Z</time>
      </trkpt>
      <trkpt lat="42.04147" lon="0.98039">
        <ele>888</ele>
        <time>2019-01-31T01:54:20Z</time>
      </trkpt>
      <trkpt lat="42.04148" lon="0.98025">
        <ele>887.5</ele>
        <time>2019-01-31T01:54:26Z</time>
      </trkpt>
      <trkpt lat="42.04149" lon="0.9801">
        <ele>886.6</ele>
        <time>2019-01-31T01:54:32Z</time>
      </trkpt>
      <trkpt lat="42.0415" lon="0.97995">
        <ele>885.5</ele>
        <time>2019-01-31T01:54:39Z</time>
      </trkpt>
      <trkpt lat="42.04148" lon="0.97981">
        <ele>884.7</ele>
        <time>2019-01-31T01:54:45Z</time>
      </trkpt>
      <trkpt lat="42.04144" lon="0.97969">
        <ele>883.7</ele>
        <time>2019-01-31T01:54:51Z</time>
      </trkpt>
      <trkpt lat="42.04139" lon="0.97957">
        <ele>882.3</ele>
        <time>2019-01-31T01:54:56Z</time>
      </trkpt>
      <trkpt lat="42.04135" lon="0.97945">
        <ele>881.2</ele>
        <time>2019-01-31T01:55:02Z</time>
      </trkpt>
      <trkpt lat="42.04131" lon="0.97932">
        <ele>880.2</ele>
        <time>2019-01-31T01:55:08Z</time>
      </trkpt>
      <trkpt lat="42.04129" lon="0.97919">
        <ele>879.3</ele>
        <time>2019-01-31T01:55:14Z</time>
      </trkpt>
      <trkpt lat="42.04126" lon="0.97905">
        <ele>877.8</ele>
        <time>2019-01-31T01:55:20Z</time>
      </trkpt>
      <trkpt lat="42.04125" lon="0.9789">
        <ele>876.9</ele>
        <time>2019-01-31T01:55:26Z</time>
      </trkpt>
      <trkpt lat="42.04125" lon="0.97875">
        <ele>875.4</ele>
        <time>2019-01-31T01:55:32Z</time>
      </trkpt>
      <trkpt lat="42.04122" lon="0.97861">
        <ele>874</ele>
        <time>2019-01-31T01:55:38Z</time>
      </trkpt>
      <trkpt lat="42.04125" lon="0.97847">
        <ele>872.1</ele>
        <time>2019-01-31T01:55:44Z</time>
      </trkpt>
      <trkpt lat="42.04133" lon="0.97852">
        <ele>870.7</ele>
        <time>2019-01-31T01:55:50Z</time>
      </trkpt>
      <trkpt lat="42.04133" lon="0.97864">
        <ele>869.8</ele>
        <time>2019-01-31T01:55:55Z</time>
      </trkpt>
      <trkpt lat="42.04139" lon="0.97875">
        <ele>867.8</ele>
        <time>2019-01-31T01:56:00Z</time>
      </trkpt>
      <trkpt lat="42.04151" lon="0.97884">
        <ele>866.4</ele>
        <time>2019-01-31T01:56:08Z</time>
      </trkpt>
      <trkpt lat="42.04162" lon="0.97892">
        <ele>864.8</ele>
        <time>2019-01-31T01:56:15Z</time>
      </trkpt>
      <trkpt lat="42.04172" lon="0.97903">
        <ele>864.4</ele>
        <time>2019-01-31T01:56:23Z</time>
      </trkpt>
      <trkpt lat="42.0418" lon="0.97914">
        <ele>862.9</ele>
        <time>2019-01-31T01:56:29Z</time>
      </trkpt>
      <trkpt lat="42.04192" lon="0.97918">
        <ele>861.1</ele>
        <time>2019-01-31T01:56:36Z</time>
      </trkpt>
      <trkpt lat="42.04198" lon="0.97908">
        <ele>859.2</ele>
        <time>2019-01-31T01:56:42Z</time>
      </trkpt>
      <trkpt lat="42.04195" lon="0.97898">
        <ele>858.1</ele>
        <time>2019-01-31T01:56:46Z</time>
      </trkpt>
      <trkpt lat="42.0419" lon="0.97889">
        <ele>857.2</ele>
        <time>2019-01-31T01:56:51Z</time>
      </trkpt>
      <trkpt lat="42.04183" lon="0.97879">
        <ele>854.8</ele>
        <time>2019-01-31T01:56:57Z</time>
      </trkpt>
      <trkpt lat="42.04178" lon="0.97869">
        <ele>853.4</ele>
        <time>2019-01-31T01:57:02Z</time>
      </trkpt>
      <trkpt lat="42.04176" lon="0.97854">
        <ele>852.9</ele>
        <time>2019-01-31T01:57:09Z</time>
      </trkpt>
      <trkpt lat="42.04177" lon="0.9784">
        <ele>851.9</ele>
        <time>2019-01-31T01:57:15Z</time>
      </trkpt>
      <trkpt lat="42.04175" lon="0.97825">
        <ele>850.4</ele>
        <time>2019-01-31T01:57:21Z</time>
      </trkpt>
      <trkpt lat="42.04176" lon="0.97808">
        <ele>848.5</ele>
        <time>2019-01-31T01:57:28Z</time>
      </trkpt>
      <trkpt lat="42.04187" lon="0.97802">
        <ele>846.7</ele>
        <time>2019-01-31T01:57:35Z</time>
      </trkpt>
      <trkpt lat="42.04196" lon="0.9781">
        <ele>845.6</ele>
        <time>2019-01-31T01:57:41Z</time>
      </trkpt>
      <trkpt lat="42.04206" lon="0.97814">
        <ele>844.7</ele>
        <time>2019-01-31T01:57:48Z</time>
      </trkpt>
      <trkpt lat="42.04217" lon="0.97812">
        <ele>843.7</ele>
        <time>2019-01-31T01:57:54Z</time>
      </trkpt>
      <trkpt lat="42.04218" lon="0.97801">
        <ele>842.3</ele>
        <time>2019-01-31T01:57:58Z</time>
      </trkpt>
      <trkpt lat="42.04213" lon="0.97789">
        <ele>840.9</ele>
        <time>2019-01-31T01:58:04Z</time>
      </trkpt>
      <trkpt lat="42.04208" lon="0.9778">
        <ele>839.5</ele>
        <time>2019-01-31T01:58:09Z</time>
      </trkpt>
      <trkpt lat="42.04201" lon="0.97768">
        <ele>838</ele>
        <time>2019-01-31T01:58:15Z</time>
      </trkpt>
      <trkpt lat="42.04197" lon="0.97754">
        <ele>836.6</ele>
        <time>2019-01-31T01:58:22Z</time>
      </trkpt>
      <trkpt lat="42.04195" lon="0.97738">
        <ele>835</ele>
        <time>2019-01-31T01:58:28Z</time>
      </trkpt>
      <trkpt lat="42.04192" lon="0.97722">
        <ele>834.1</ele>
        <time>2019-01-31T01:58:35Z</time>
      </trkpt>
      <trkpt lat="42.04191" lon="0.9771">
        <ele>833.7</ele>
        <time>2019-01-31T01:58:41Z</time>
      </trkpt>
      <trkpt lat="42.04198" lon="0.97697">
        <ele>832.7</ele>
        <time>2019-01-31T01:58:47Z</time>
      </trkpt>
      <trkpt lat="42.04206" lon="0.97686">
        <ele>831.8</ele>
        <time>2019-01-31T01:58:54Z</time>
      </trkpt>
      <trkpt lat="42.0421" lon="0.97672">
        <ele>830.3</ele>
        <time>2019-01-31T01:59:00Z</time>
      </trkpt>
      <trkpt lat="42.04211" lon="0.97658">
        <ele>828.8</ele>
        <time>2019-01-31T01:59:06Z</time>
      </trkpt>
      <trkpt lat="42.04211" lon="0.97646">
        <ele>827.9</ele>
        <time>2019-01-31T01:59:11Z</time>
      </trkpt>
      <trkpt lat="42.04207" lon="0.97634">
        <ele>827.5</ele>
        <time>2019-01-31T01:59:17Z</time>
      </trkpt>
      <trkpt lat="42.04201" lon="0.97623">
        <ele>825.9</ele>
        <time>2019-01-31T01:59:23Z</time>
      </trkpt>
      <trkpt lat="42.04195" lon="0.97612">
        <ele>825.1</ele>
        <time>2019-01-31T01:59:28Z</time>
      </trkpt>
      <trkpt lat="42.0419" lon="0.97602">
        <ele>823.5</ele>
        <time>2019-01-31T01:59:34Z</time>
      </trkpt>
      <trkpt lat="42.04188" lon="0.97588">
        <ele>822.6</ele>
        <time>2019-01-31T01:59:40Z</time>
      </trkpt>
      <trkpt lat="42.04188" lon="0.97572">
        <ele>822.1</ele>
        <time>2019-01-31T01:59:47Z</time>
      </trkpt>
      <trkpt lat="42.04187" lon="0.97556">
        <ele>820.7</ele>
        <time>2019-01-31T01:59:53Z</time>
      </trkpt>
      <trkpt lat="42.04185" lon="0.97542">
        <ele>819.7</ele>
        <time>2019-01-31T01:59:59Z</time>
      </trkpt>
      <trkpt lat="42.04185" lon="0.97525">
        <ele>817.7</ele>
        <time>2019-01-31T02:00:06Z</time>
      </trkpt>
      <trkpt lat="42.04187" lon="0.9751">
        <ele>816.8</ele>
        <time>2019-01-31T02:00:13Z</time>
      </trkpt>
      <trkpt lat="42.04191" lon="0.97497">
        <ele>815.8</ele>
        <time>2019-01-31T02:00:19Z</time>
      </trkpt>
      <trkpt lat="42.04194" lon="0.97479">
        <ele>813.5</ele>
        <time>2019-01-31T02:00:27Z</time>
      </trkpt>
      <trkpt lat="42.04194" lon="0.97463">
        <ele>812.6</ele>
        <time>2019-01-31T02:00:34Z</time>
      </trkpt>
      <trkpt lat="42.04195" lon="0.97447">
        <ele>810.5</ele>
        <time>2019-01-31T02:00:41Z</time>
      </trkpt>
      <trkpt lat="42.04197" lon="0.97431">
        <ele>809.6</ele>
        <time>2019-01-31T02:00:47Z</time>
      </trkpt>
      <trkpt lat="42.04199" lon="0.97418">
        <ele>808.6</ele>
        <time>2019-01-31T02:00:53Z</time>
      </trkpt>
      <trkpt lat="42.04194" lon="0.97406">
        <ele>807.3</ele>
        <time>2019-01-31T02:00:59Z</time>
      </trkpt>
      <trkpt lat="42.04186" lon="0.97397">
        <ele>805.7</ele>
        <time>2019-01-31T02:01:05Z</time>
      </trkpt>
      <trkpt lat="42.04188" lon="0.97382">
        <ele>804.3</ele>
        <time>2019-01-31T02:01:11Z</time>
      </trkpt>
      <trkpt lat="42.04194" lon="0.97367">
        <ele>803.8</ele>
        <time>2019-01-31T02:01:18Z</time>
      </trkpt>
      <trkpt lat="42.04195" lon="0.97351">
        <ele>802.9</ele>
        <time>2019-01-31T02:01:25Z</time>
      </trkpt>
      <trkpt lat="42.04196" lon="0.97335">
        <ele>801.9</ele>
        <time>2019-01-31T02:01:32Z</time>
      </trkpt>
      <trkpt lat="42.04198" lon="0.97319">
        <ele>801.4</ele>
        <time>2019-01-31T02:01:39Z</time>
      </trkpt>
      <trkpt lat="42.042" lon="0.97304">
        <ele>800</ele>
        <time>2019-01-31T02:01:45Z</time>
      </trkpt>
      <trkpt lat="42.042" lon="0.9729">
        <ele>799</ele>
        <time>2019-01-31T02:01:51Z</time>
      </trkpt>
      <trkpt lat="42.04198" lon="0.97275">
        <ele>798</ele>
        <time>2019-01-31T02:01:58Z</time>
      </trkpt>
      <trkpt lat="42.04195" lon="0.97262">
        <ele>798</ele>
        <time>2019-01-31T02:02:04Z</time>
      </trkpt>
      <trkpt lat="42.0419" lon="0.97251">
        <ele>797.6</ele>
        <time>2019-01-31T02:02:09Z</time>
      </trkpt>
      <trkpt lat="42.04181" lon="0.97246">
        <ele>796.6</ele>
        <time>2019-01-31T02:02:15Z</time>
      </trkpt>
      <trkpt lat="42.04173" lon="0.97239">
        <ele>795.6</ele>
        <time>2019-01-31T02:02:21Z</time>
      </trkpt>
      <trkpt lat="42.04179" lon="0.97229">
        <ele>794.8</ele>
        <time>2019-01-31T02:02:26Z</time>
      </trkpt>
      <trkpt lat="42.0419" lon="0.97221">
        <ele>793.8</ele>
        <time>2019-01-31T02:02:33Z</time>
      </trkpt>
      <trkpt lat="42.04198" lon="0.97209">
        <ele>792.8</ele>
        <time>2019-01-31T02:02:40Z</time>
      </trkpt>
      <trkpt lat="42.04199" lon="0.97194">
        <ele>792.4</ele>
        <time>2019-01-31T02:02:47Z</time>
      </trkpt>
      <trkpt lat="42.042" lon="0.97178">
        <ele>791.8</ele>
        <time>2019-01-31T02:02:53Z</time>
      </trkpt>
      <trkpt lat="42.042" lon="0.97165">
        <ele>790.8</ele>
        <time>2019-01-31T02:02:59Z</time>
      </trkpt>
      <trkpt lat="42.042" lon="0.97151">
        <ele>789.9</ele>
        <time>2019-01-31T02:03:05Z</time>
      </trkpt>
      <trkpt lat="42.042" lon="0.97137">
        <ele>788.9</ele>
        <time>2019-01-31T02:03:11Z</time>
      </trkpt>
      <trkpt lat="42.04197" lon="0.97123">
        <ele>788.5</ele>
        <time>2019-01-31T02:03:17Z</time>
      </trkpt>
      <trkpt lat="42.04199" lon="0.97108">
        <ele>787.1</ele>
        <time>2019-01-31T02:03:23Z</time>
      </trkpt>
      <trkpt lat="42.04201" lon="0.97095">
        <ele>786.6</ele>
        <time>2019-01-31T02:03:29Z</time>
      </trkpt>
      <trkpt lat="42.04202" lon="0.97082">
        <ele>785.5</ele>
        <time>2019-01-31T02:03:35Z</time>
      </trkpt>
      <trkpt lat="42.04204" lon="0.97067">
        <ele>784.7</ele>
        <time>2019-01-31T02:03:41Z</time>
      </trkpt>
      <trkpt lat="42.04209" lon="0.97053">
        <ele>784.1</ele>
        <time>2019-01-31T02:03:47Z</time>
      </trkpt>
      <trkpt lat="42.04212" lon="0.97039">
        <ele>783.1</ele>
        <time>2019-01-31T02:03:54Z</time>
      </trkpt>
      <trkpt lat="42.04206" lon="0.97028">
        <ele>783.1</ele>
        <time>2019-01-31T02:03:59Z</time>
      </trkpt>
      <trkpt lat="42.042" lon="0.97019">
        <ele>781.2</ele>
        <time>2019-01-31T02:04:04Z</time>
      </trkpt>
      <trkpt lat="42.04204" lon="0.97007">
        <ele>780.3</ele>
        <time>2019-01-31T02:04:10Z</time>
      </trkpt>
      <trkpt lat="42.04213" lon="0.96997">
        <ele>779.8</ele>
        <time>2019-01-31T02:04:17Z</time>
      </trkpt>
      <trkpt lat="42.04222" lon="0.96989">
        <ele>779.4</ele>
        <time>2019-01-31T02:04:23Z</time>
      </trkpt>
      <trkpt lat="42.04228" lon="0.96977">
        <ele>778.3</ele>
        <time>2019-01-31T02:04:29Z</time>
      </trkpt>
      <trkpt lat="42.04233" lon="0.96963">
        <ele>776.4</ele>
        <time>2019-01-31T02:04:35Z</time>
      </trkpt>
      <trkpt lat="42.04243" lon="0.96955">
        <ele>774.5</ele>
        <time>2019-01-31T02:04:42Z</time>
      </trkpt>
      <trkpt lat="42.04249" lon="0.96966">
        <ele>774</ele>
        <time>2019-01-31T02:04:48Z</time>
      </trkpt>
      <trkpt lat="42.04244" lon="0.96976">
        <ele>773.6</ele>
        <time>2019-01-31T02:04:53Z</time>
      </trkpt>
      <trkpt lat="42.04237" lon="0.96983">
        <ele>772.7</ele>
        <time>2019-01-31T02:04:58Z</time>
      </trkpt>
      <trkpt lat="42.04233" lon="0.96995">
        <ele>772.7</ele>
        <time>2019-01-31T02:05:04Z</time>
      </trkpt>
      <trkpt lat="42.04227" lon="0.97006">
        <ele>771.2</ele>
        <time>2019-01-31T02:05:10Z</time>
      </trkpt>
      <trkpt lat="42.04231" lon="0.97018">
        <ele>770.2</ele>
        <time>2019-01-31T02:05:15Z</time>
      </trkpt>
      <trkpt lat="42.04238" lon="0.97029">
        <ele>768.7</ele>
        <time>2019-01-31T02:05:21Z</time>
      </trkpt>
      <trkpt lat="42.04243" lon="0.97042">
        <ele>767.9</ele>
        <time>2019-01-31T02:05:28Z</time>
      </trkpt>
      <trkpt lat="42.04246" lon="0.97056">
        <ele>766.9</ele>
        <time>2019-01-31T02:05:34Z</time>
      </trkpt>
      <trkpt lat="42.04249" lon="0.97071">
        <ele>765.9</ele>
        <time>2019-01-31T02:05:40Z</time>
      </trkpt>
      <trkpt lat="42.04252" lon="0.97084">
        <ele>765</ele>
        <time>2019-01-31T02:05:46Z</time>
      </trkpt>
      <trkpt lat="42.04254" lon="0.97098">
        <ele>764.4</ele>
        <time>2019-01-31T02:05:52Z</time>
      </trkpt>
      <trkpt lat="42.04257" lon="0.97112">
        <ele>763.4</ele>
        <time>2019-01-31T02:05:58Z</time>
      </trkpt>
      <trkpt lat="42.04262" lon="0.97124">
        <ele>762.6</ele>
        <time>2019-01-31T02:06:04Z</time>
      </trkpt>
      <trkpt lat="42.04267" lon="0.97137">
        <ele>761.1</ele>
        <time>2019-01-31T02:06:10Z</time>
      </trkpt>
      <trkpt lat="42.04273" lon="0.97149">
        <ele>759.6</ele>
        <time>2019-01-31T02:06:16Z</time>
      </trkpt>
      <trkpt lat="42.04282" lon="0.97151">
        <ele>757.2</ele>
        <time>2019-01-31T02:06:22Z</time>
      </trkpt>
      <trkpt lat="42.04284" lon="0.9714">
        <ele>755.7</ele>
        <time>2019-01-31T02:06:26Z</time>
      </trkpt>
      <trkpt lat="42.04278" lon="0.97129">
        <ele>753.9</ele>
        <time>2019-01-31T02:06:32Z</time>
      </trkpt>
      <trkpt lat="42.04275" lon="0.97117">
        <ele>752.4</ele>
        <time>2019-01-31T02:06:37Z</time>
      </trkpt>
      <trkpt lat="42.04278" lon="0.97105">
        <ele>751.5</ele>
        <time>2019-01-31T02:06:43Z</time>
      </trkpt>
      <trkpt lat="42.04283" lon="0.97093">
        <ele>750.6</ele>
        <time>2019-01-31T02:06:49Z</time>
      </trkpt>
      <trkpt lat="42.0429" lon="0.97083">
        <ele>749.1</ele>
        <time>2019-01-31T02:06:54Z</time>
      </trkpt>
      <trkpt lat="42.04297" lon="0.97075">
        <ele>747.7</ele>
        <time>2019-01-31T02:07:00Z</time>
      </trkpt>
      <trkpt lat="42.04306" lon="0.97066">
        <ele>746.1</ele>
        <time>2019-01-31T02:07:06Z</time>
      </trkpt>
      <trkpt lat="42.04314" lon="0.97059">
        <ele>744.2</ele>
        <time>2019-01-31T02:07:12Z</time>
      </trkpt>
      <trkpt lat="42.04321" lon="0.97048">
        <ele>742.9</ele>
        <time>2019-01-31T02:07:18Z</time>
      </trkpt>
      <trkpt lat="42.04325" lon="0.97037">
        <ele>741.8</ele>
        <time>2019-01-31T02:07:23Z</time>
      </trkpt>
      <trkpt lat="42.0433" lon="0.97024">
        <ele>739.9</ele>
        <time>2019-01-31T02:07:29Z</time>
      </trkpt>
      <trkpt lat="42.04337" lon="0.97013">
        <ele>738.4</ele>
        <time>2019-01-31T02:07:35Z</time>
      </trkpt>
      <trkpt lat="42.04344" lon="0.97003">
        <ele>737.6</ele>
        <time>2019-01-31T02:07:41Z</time>
      </trkpt>
      <trkpt lat="42.04347" lon="0.96989">
        <ele>736.1</ele>
        <time>2019-01-31T02:07:47Z</time>
      </trkpt>
      <trkpt lat="42.04347" lon="0.96974">
        <ele>735.7</ele>
        <time>2019-01-31T02:07:54Z</time>
      </trkpt>
      <trkpt lat="42.04344" lon="0.9696">
        <ele>734.1</ele>
        <time>2019-01-31T02:08:00Z</time>
      </trkpt>
      <trkpt lat="42.04343" lon="0.96946">
        <ele>732.8</ele>
        <time>2019-01-31T02:08:06Z</time>
      </trkpt>
      <trkpt lat="42.04343" lon="0.96932">
        <ele>731.3</ele>
        <time>2019-01-31T02:08:12Z</time>
      </trkpt>
      <trkpt lat="42.04344" lon="0.96917">
        <ele>730.4</ele>
        <time>2019-01-31T02:08:18Z</time>
      </trkpt>
      <trkpt lat="42.04347" lon="0.96902">
        <ele>729.3</ele>
        <time>2019-01-31T02:08:25Z</time>
      </trkpt>
      <trkpt lat="42.04351" lon="0.96888">
        <ele>727.9</ele>
        <time>2019-01-31T02:08:31Z</time>
      </trkpt>
      <trkpt lat="42.04359" lon="0.96877">
        <ele>726.4</ele>
        <time>2019-01-31T02:08:38Z</time>
      </trkpt>
      <trkpt lat="42.04367" lon="0.96867">
        <ele>725.1</ele>
        <time>2019-01-31T02:08:44Z</time>
      </trkpt>
      <trkpt lat="42.04375" lon="0.96857">
        <ele>723.6</ele>
        <time>2019-01-31T02:08:50Z</time>
      </trkpt>
      <trkpt lat="42.04382" lon="0.96847">
        <ele>722.1</ele>
        <time>2019-01-31T02:08:56Z</time>
      </trkpt>
      <trkpt lat="42.0439" lon="0.96836">
        <ele>720.8</ele>
        <time>2019-01-31T02:09:02Z</time>
      </trkpt>
      <trkpt lat="42.04398" lon="0.96823">
        <ele>719.3</ele>
        <time>2019-01-31T02:09:10Z</time>
      </trkpt>
      <trkpt lat="42.04401" lon="0.96809">
        <ele>718.3</ele>
        <time>2019-01-31T02:09:16Z</time>
      </trkpt>
      <trkpt lat="42.04401" lon="0.96794">
        <ele>716.8</ele>
        <time>2019-01-31T02:09:22Z</time>
      </trkpt>
      <trkpt lat="42.04401" lon="0.9678">
        <ele>715.4</ele>
        <time>2019-01-31T02:09:28Z</time>
      </trkpt>
      <trkpt lat="42.044" lon="0.96766">
        <ele>713.9</ele>
        <time>2019-01-31T02:09:34Z</time>
      </trkpt>
      <trkpt lat="42.04403" lon="0.96751">
        <ele>712.5</ele>
        <time>2019-01-31T02:09:40Z</time>
      </trkpt>
      <trkpt lat="42.04407" lon="0.96738">
        <ele>711.5</ele>
        <time>2019-01-31T02:09:47Z</time>
      </trkpt>
      <trkpt lat="42.04412" lon="0.96726">
        <ele>710.7</ele>
        <time>2019-01-31T02:09:53Z</time>
      </trkpt>
      <trkpt lat="42.0442" lon="0.96714">
        <ele>710.6</ele>
        <time>2019-01-31T02:09:59Z</time>
      </trkpt>
      <trkpt lat="42.04429" lon="0.96713">
        <ele>709.6</ele>
        <time>2019-01-31T02:10:05Z</time>
      </trkpt>
      <trkpt lat="42.04435" lon="0.96722">
        <ele>709.2</ele>
        <time>2019-01-31T02:10:10Z</time>
      </trkpt>
      <trkpt lat="42.0444" lon="0.96732">
        <ele>708.3</ele>
        <time>2019-01-31T02:10:15Z</time>
      </trkpt>
      <trkpt lat="42.04445" lon="0.96743">
        <ele>707.2</ele>
        <time>2019-01-31T02:10:20Z</time>
      </trkpt>
      <trkpt lat="42.0445" lon="0.96754">
        <ele>706.3</ele>
        <time>2019-01-31T02:10:26Z</time>
      </trkpt>
      <trkpt lat="42.04456" lon="0.96764">
        <ele>705.9</ele>
        <time>2019-01-31T02:10:31Z</time>
      </trkpt>
      <trkpt lat="42.04467" lon="0.96768">
        <ele>704.4</ele>
        <time>2019-01-31T02:10:38Z</time>
      </trkpt>
      <trkpt lat="42.04473" lon="0.96756">
        <ele>703.3</ele>
        <time>2019-01-31T02:10:44Z</time>
      </trkpt>
      <trkpt lat="42.04475" lon="0.96743">
        <ele>701.9</ele>
        <time>2019-01-31T02:10:49Z</time>
      </trkpt>
      <trkpt lat="42.04477" lon="0.96729">
        <ele>699.6</ele>
        <time>2019-01-31T02:10:55Z</time>
      </trkpt>
      <trkpt lat="42.04479" lon="0.96714">
        <ele>698.5</ele>
        <time>2019-01-31T02:11:02Z</time>
      </trkpt>
      <trkpt lat="42.0448" lon="0.967">
        <ele>697.6</ele>
        <time>2019-01-31T02:11:08Z</time>
      </trkpt>
      <trkpt lat="42.0448" lon="0.96686">
        <ele>697.1</ele>
        <time>2019-01-31T02:11:14Z</time>
      </trkpt>
      <trkpt lat="42.0448" lon="0.96673">
        <ele>696.6</ele>
        <time>2019-01-31T02:11:19Z</time>
      </trkpt>
      <trkpt lat="42.04474" lon="0.96661">
        <ele>695.7</ele>
        <time>2019-01-31T02:11:25Z</time>
      </trkpt>
      <trkpt lat="42.04467" lon="0.9665">
        <ele>694.2</ele>
        <time>2019-01-31T02:11:31Z</time>
      </trkpt>
      <trkpt lat="42.04458" lon="0.96642">
        <ele>693.4</ele>
        <time>2019-01-31T02:11:37Z</time>
      </trkpt>
      <trkpt lat="42.0445" lon="0.96635">
        <ele>691.8</ele>
        <time>2019-01-31T02:11:43Z</time>
      </trkpt>
      <trkpt lat="42.04441" lon="0.96628">
        <ele>690.8</ele>
        <time>2019-01-31T02:11:49Z</time>
      </trkpt>
      <trkpt lat="42.04431" lon="0.96621">
        <ele>690.4</ele>
        <time>2019-01-31T02:11:56Z</time>
      </trkpt>
      <trkpt lat="42.04422" lon="0.96614">
        <ele>690</ele>
        <time>2019-01-31T02:12:02Z</time>
      </trkpt>
      <trkpt lat="42.04416" lon="0.96603">
        <ele>688.5</ele>
        <time>2019-01-31T02:12:07Z</time>
      </trkpt>
      <trkpt lat="42.04413" lon="0.9659">
        <ele>687.6</ele>
        <time>2019-01-31T02:12:13Z</time>
      </trkpt>
      <trkpt lat="42.04412" lon="0.96576">
        <ele>686.6</ele>
        <time>2019-01-31T02:12:19Z</time>
      </trkpt>
      <trkpt lat="42.0441" lon="0.96562">
        <ele>685.7</ele>
        <time>2019-01-31T02:12:25Z</time>
      </trkpt>
      <trkpt lat="42.04411" lon="0.96545">
        <ele>684.7</ele>
        <time>2019-01-31T02:12:32Z</time>
      </trkpt>
      <trkpt lat="42.0441" lon="0.9653">
        <ele>684.1</ele>
        <time>2019-01-31T02:12:39Z</time>
      </trkpt>
      <trkpt lat="42.04407" lon="0.96516">
        <ele>684.1</ele>
        <time>2019-01-31T02:12:45Z</time>
      </trkpt>
      <trkpt lat="42.04403" lon="0.96504">
        <ele>683.6</ele>
        <time>2019-01-31T02:12:51Z</time>
      </trkpt>
      <trkpt lat="42.04395" lon="0.96499">
        <ele>683.2</ele>
        <time>2019-01-31T02:12:56Z</time>
      </trkpt>
      <trkpt lat="42.04387" lon="0.96504">
        <ele>682.2</ele>
        <time>2019-01-31T02:13:00Z</time>
      </trkpt>
      <trkpt lat="42.04378" lon="0.96508">
        <ele>681.7</ele>
        <time>2019-01-31T02:13:06Z</time>
      </trkpt>
      <trkpt lat="42.0437" lon="0.965">
        <ele>680.3</ele>
        <time>2019-01-31T02:13:11Z</time>
      </trkpt>
      <trkpt lat="42.04368" lon="0.96487">
        <ele>680.9</ele>
        <time>2019-01-31T02:13:17Z</time>
      </trkpt>
      <trkpt lat="42.04368" lon="0.96472">
        <ele>679.9</ele>
        <time>2019-01-31T02:13:23Z</time>
      </trkpt>
      <trkpt lat="42.04369" lon="0.96456">
        <ele>678.5</ele>
        <time>2019-01-31T02:13:30Z</time>
      </trkpt>
      <trkpt lat="42.04368" lon="0.96441">
        <ele>677.9</ele>
        <time>2019-01-31T02:13:37Z</time>
      </trkpt>
      <trkpt lat="42.04368" lon="0.96426">
        <ele>676.5</ele>
        <time>2019-01-31T02:13:43Z</time>
      </trkpt>
      <trkpt lat="42.04369" lon="0.96412">
        <ele>675.6</ele>
        <time>2019-01-31T02:13:49Z</time>
      </trkpt>
      <trkpt lat="42.04369" lon="0.96398">
        <ele>674.5</ele>
        <time>2019-01-31T02:13:55Z</time>
      </trkpt>
      <trkpt lat="42.04367" lon="0.96384">
        <ele>673.5</ele>
        <time>2019-01-31T02:14:01Z</time>
      </trkpt>
      <trkpt lat="42.04365" lon="0.96369">
        <ele>672.6</ele>
        <time>2019-01-31T02:14:07Z</time>
      </trkpt>
      <trkpt lat="42.04368" lon="0.96356">
        <ele>671.7</ele>
        <time>2019-01-31T02:14:13Z</time>
      </trkpt>
      <trkpt lat="42.04371" lon="0.96342">
        <ele>671.2</ele>
        <time>2019-01-31T02:14:20Z</time>
      </trkpt>
      <trkpt lat="42.04372" lon="0.96328">
        <ele>669.8</ele>
        <time>2019-01-31T02:14:26Z</time>
      </trkpt>
      <trkpt lat="42.04373" lon="0.96313">
        <ele>668.3</ele>
        <time>2019-01-31T02:14:32Z</time>
      </trkpt>
      <trkpt lat="42.04372" lon="0.96297">
        <ele>667.4</ele>
        <time>2019-01-31T02:14:39Z</time>
      </trkpt>
      <trkpt lat="42.0437" lon="0.96281">
        <ele>666</ele>
        <time>2019-01-31T02:14:45Z</time>
      </trkpt>
      <trkpt lat="42.04367" lon="0.96267">
        <ele>664.9</ele>
        <time>2019-01-31T02:14:52Z</time>
      </trkpt>
      <trkpt lat="42.04366" lon="0.96253">
        <ele>665</ele>
        <time>2019-01-31T02:14:58Z</time>
      </trkpt>
      <trkpt lat="42.04368" lon="0.96238">
        <ele>663.5</ele>
        <time>2019-01-31T02:15:04Z</time>
      </trkpt>
      <trkpt lat="42.04376" lon="0.96227">
        <ele>663</ele>
        <time>2019-01-31T02:15:11Z</time>
      </trkpt>
      <trkpt lat="42.04385" lon="0.96215">
        <ele>661.5</ele>
        <time>2019-01-31T02:15:18Z</time>
      </trkpt>
      <trkpt lat="42.04392" lon="0.96202">
        <ele>660.1</ele>
        <time>2019-01-31T02:15:25Z</time>
      </trkpt>
      <trkpt lat="42.04396" lon="0.96189">
        <ele>658.7</ele>
        <time>2019-01-31T02:15:31Z</time>
      </trkpt>
      <trkpt lat="42.04399" lon="0.96175">
        <ele>657.2</ele>
        <time>2019-01-31T02:15:37Z</time>
      </trkpt>
      <trkpt lat="42.04399" lon="0.9616">
        <ele>655.9</ele>
        <time>2019-01-31T02:15:43Z</time>
      </trkpt>
      <trkpt lat="42.04398" lon="0.96145">
        <ele>654.9</ele>
        <time>2019-01-31T02:15:50Z</time>
      </trkpt>
      <trkpt lat="42.04397" lon="0.96129">
        <ele>653.4</ele>
        <time>2019-01-31T02:15:56Z</time>
      </trkpt>
      <trkpt lat="42.04397" lon="0.96114">
        <ele>652.9</ele>
        <time>2019-01-31T02:16:03Z</time>
      </trkpt>
      <trkpt lat="42.04396" lon="0.961">
        <ele>651.4</ele>
        <time>2019-01-31T02:16:09Z</time>
      </trkpt>
      <trkpt lat="42.04393" lon="0.96088">
        <ele>651.4</ele>
        <time>2019-01-31T02:16:14Z</time>
      </trkpt>
      <trkpt lat="42.04385" lon="0.9608">
        <ele>650.5</ele>
        <time>2019-01-31T02:16:20Z</time>
      </trkpt>
      <trkpt lat="42.04376" lon="0.96072">
        <ele>650</ele>
        <time>2019-01-31T02:16:26Z</time>
      </trkpt>
      <trkpt lat="42.04371" lon="0.96057">
        <ele>649.1</ele>
        <time>2019-01-31T02:16:33Z</time>
      </trkpt>
      <trkpt lat="42.04368" lon="0.96041">
        <ele>649</ele>
        <time>2019-01-31T02:16:40Z</time>
      </trkpt>
      <trkpt lat="42.04367" lon="0.96025">
        <ele>649.1</ele>
        <time>2019-01-31T02:16:47Z</time>
      </trkpt>
      <trkpt lat="42.0437" lon="0.9601">
        <ele>648.7</ele>
        <time>2019-01-31T02:16:53Z</time>
      </trkpt>
      <trkpt lat="42.04375" lon="0.95996">
        <ele>647.6</ele>
        <time>2019-01-31T02:17:00Z</time>
      </trkpt>
      <trkpt lat="42.04381" lon="0.9598">
        <ele>647.6</ele>
        <time>2019-01-31T02:17:08Z</time>
      </trkpt>
      <trkpt lat="42.04388" lon="0.95962">
        <ele>647.1</ele>
        <time>2019-01-31T02:17:16Z</time>
      </trkpt>
      <trkpt lat="42.04396" lon="0.95943">
        <ele>647.7</ele>
        <time>2019-01-31T02:17:26Z</time>
      </trkpt>
      <trkpt lat="42.04399" lon="0.95927">
        <ele>646.7</ele>
        <time>2019-01-31T02:17:33Z</time>
      </trkpt>
      <trkpt lat="42.04401" lon="0.95912">
        <ele>645.2</ele>
        <time>2019-01-31T02:17:39Z</time>
      </trkpt>
      <trkpt lat="42.04401" lon="0.95897">
        <ele>644.7</ele>
        <time>2019-01-31T02:17:45Z</time>
      </trkpt>
      <trkpt lat="42.04399" lon="0.95885">
        <ele>644.2</ele>
        <time>2019-01-31T02:17:51Z</time>
      </trkpt>
      <trkpt lat="42.0439" lon="0.9588">
        <ele>643.8</ele>
        <time>2019-01-31T02:17:56Z</time>
      </trkpt>
      <trkpt lat="42.04381" lon="0.9588">
        <ele>643.8</ele>
        <time>2019-01-31T02:18:01Z</time>
      </trkpt>
      <trkpt lat="42.04371" lon="0.95878">
        <ele>643.4</ele>
        <time>2019-01-31T02:18:07Z</time>
      </trkpt>
      <trkpt lat="42.04366" lon="0.95868">
        <ele>642.9</ele>
        <time>2019-01-31T02:18:12Z</time>
      </trkpt>
      <trkpt lat="42.04367" lon="0.95853">
        <ele>641.9</ele>
        <time>2019-01-31T02:18:19Z</time>
      </trkpt>
      <trkpt lat="42.04369" lon="0.95836">
        <ele>641</ele>
        <time>2019-01-31T02:18:26Z</time>
      </trkpt>
      <trkpt lat="42.04371" lon="0.9582">
        <ele>640</ele>
        <time>2019-01-31T02:18:33Z</time>
      </trkpt>
      <trkpt lat="42.04373" lon="0.95806">
        <ele>638.9</ele>
        <time>2019-01-31T02:18:39Z</time>
      </trkpt>
      <trkpt lat="42.04375" lon="0.95791">
        <ele>638</ele>
        <time>2019-01-31T02:18:45Z</time>
      </trkpt>
      <trkpt lat="42.04378" lon="0.95778">
        <ele>637</ele>
        <time>2019-01-31T02:18:51Z</time>
      </trkpt>
      <trkpt lat="42.04381" lon="0.95764">
        <ele>636.1</ele>
        <time>2019-01-31T02:18:57Z</time>
      </trkpt>
      <trkpt lat="42.04382" lon="0.95749">
        <ele>634.7</ele>
        <time>2019-01-31T02:19:04Z</time>
      </trkpt>
      <trkpt lat="42.04382" lon="0.95732">
        <ele>633.7</ele>
        <time>2019-01-31T02:19:11Z</time>
      </trkpt>
      <trkpt lat="42.04383" lon="0.95717">
        <ele>633.3</ele>
        <time>2019-01-31T02:19:17Z</time>
      </trkpt>
      <trkpt lat="42.04385" lon="0.95702">
        <ele>632.3</ele>
        <time>2019-01-31T02:19:24Z</time>
      </trkpt>
      <trkpt lat="42.04386" lon="0.95688">
        <ele>631.2</ele>
        <time>2019-01-31T02:19:30Z</time>
      </trkpt>
      <trkpt lat="42.04386" lon="0.95672">
        <ele>630.3</ele>
        <time>2019-01-31T02:19:37Z</time>
      </trkpt>
      <trkpt lat="42.04386" lon="0.95656">
        <ele>629.8</ele>
        <time>2019-01-31T02:19:44Z</time>
      </trkpt>
      <trkpt lat="42.04387" lon="0.9564">
        <ele>628.5</ele>
        <time>2019-01-31T02:19:50Z</time>
      </trkpt>
      <trkpt lat="42.04386" lon="0.95625">
        <ele>627.9</ele>
        <time>2019-01-31T02:19:57Z</time>
      </trkpt>
      <trkpt lat="42.04387" lon="0.9561">
        <ele>627.4</ele>
        <time>2019-01-31T02:20:03Z</time>
      </trkpt>
      <trkpt lat="42.04389" lon="0.95595">
        <ele>627</ele>
        <time>2019-01-31T02:20:10Z</time>
      </trkpt>
      <trkpt lat="42.0439" lon="0.95579">
        <ele>626</ele>
        <time>2019-01-31T02:20:16Z</time>
      </trkpt>
      <trkpt lat="42.0439" lon="0.95563">
        <ele>625.1</ele>
        <time>2019-01-31T02:20:23Z</time>
      </trkpt>
      <trkpt lat="42.04391" lon="0.95547">
        <ele>625</ele>
        <time>2019-01-31T02:20:30Z</time>
      </trkpt>
      <trkpt lat="42.04392" lon="0.95532">
        <ele>624.5</ele>
        <time>2019-01-31T02:20:36Z</time>
      </trkpt>
      <trkpt lat="42.04391" lon="0.95518">
        <ele>623.1</ele>
        <time>2019-01-31T02:20:42Z</time>
      </trkpt>
      <trkpt lat="42.04393" lon="0.95502">
        <ele>621.6</ele>
        <time>2019-01-31T02:20:49Z</time>
      </trkpt>
      <trkpt lat="42.04393" lon="0.9549">
        <ele>620.7</ele>
        <time>2019-01-31T02:20:54Z</time>
      </trkpt>
      <trkpt lat="42.04392" lon="0.95475">
        <ele>620.3</ele>
        <time>2019-01-31T02:21:00Z</time>
      </trkpt>
      <trkpt lat="42.04391" lon="0.95461">
        <ele>619.7</ele>
        <time>2019-01-31T02:21:06Z</time>
      </trkpt>
      <trkpt lat="42.04392" lon="0.95448">
        <ele>619.2</ele>
        <time>2019-01-31T02:21:12Z</time>
      </trkpt>
      <trkpt lat="42.04391" lon="0.95433">
        <ele>619.2</ele>
        <time>2019-01-31T02:21:19Z</time>
      </trkpt>
      <trkpt lat="42.04391" lon="0.95418">
        <ele>618.9</ele>
        <time>2019-01-31T02:21:25Z</time>
      </trkpt>
      <trkpt lat="42.0439" lon="0.95406">
        <ele>618.9</ele>
        <time>2019-01-31T02:21:30Z</time>
      </trkpt>
      <trkpt lat="42.04387" lon="0.95393">
        <ele>618.8</ele>
        <time>2019-01-31T02:21:35Z</time>
      </trkpt>
      <trkpt lat="42.04387" lon="0.9538">
        <ele>618.8</ele>
        <time>2019-01-31T02:21:41Z</time>
      </trkpt>
      <trkpt lat="42.04385" lon="0.95366">
        <ele>618.8</ele>
        <time>2019-01-31T02:21:47Z</time>
      </trkpt>
      <trkpt lat="42.04385" lon="0.95354">
        <ele>620.2</ele>
        <time>2019-01-31T02:21:52Z</time>
      </trkpt>
      <trkpt lat="42.04383" lon="0.95342">
        <ele>620.3</ele>
        <time>2019-01-31T02:21:58Z</time>
      </trkpt>
      <trkpt lat="42.0438" lon="0.95328">
        <ele>620.7</ele>
        <time>2019-01-31T02:22:04Z</time>
      </trkpt>
      <trkpt lat="42.04377" lon="0.95314">
        <ele>620.7</ele>
        <time>2019-01-31T02:22:10Z</time>
      </trkpt>
      <trkpt lat="42.04372" lon="0.95302">
        <ele>620.7</ele>
        <time>2019-01-31T02:22:16Z</time>
      </trkpt>
      <trkpt lat="42.04368" lon="0.95289">
        <ele>621.2</ele>
        <time>2019-01-31T02:22:22Z</time>
      </trkpt>
      <trkpt lat="42.04364" lon="0.95273">
        <ele>622.2</ele>
        <time>2019-01-31T02:22:29Z</time>
      </trkpt>
      <trkpt lat="42.04362" lon="0.95254">
        <ele>622.7</ele>
        <time>2019-01-31T02:22:37Z</time>
      </trkpt>
      <trkpt lat="42.04359" lon="0.9524">
        <ele>623.1</ele>
        <time>2019-01-31T02:22:43Z</time>
      </trkpt>
      <trkpt lat="42.04358" lon="0.95222">
        <ele>623.1</ele>
        <time>2019-01-31T02:22:51Z</time>
      </trkpt>
      <trkpt lat="42.04359" lon="0.95203">
        <ele>623.2</ele>
        <time>2019-01-31T02:22:59Z</time>
      </trkpt>
      <trkpt lat="42.04358" lon="0.95188">
        <ele>623.2</ele>
        <time>2019-01-31T02:23:05Z</time>
      </trkpt>
      <trkpt lat="42.04356" lon="0.95171">
        <ele>623.1</ele>
        <time>2019-01-31T02:23:13Z</time>
      </trkpt>
      <trkpt lat="42.04353" lon="0.95157">
        <ele>623.1</ele>
        <time>2019-01-31T02:23:19Z</time>
      </trkpt>
      <trkpt lat="42.04352" lon="0.95143">
        <ele>623.1</ele>
        <time>2019-01-31T02:23:25Z</time>
      </trkpt>
      <trkpt lat="42.04352" lon="0.95128">
        <ele>623.1</ele>
        <time>2019-01-31T02:23:31Z</time>
      </trkpt>
      <trkpt lat="42.04349" lon="0.95112">
        <ele>623.2</ele>
        <time>2019-01-31T02:23:38Z</time>
      </trkpt>
      <trkpt lat="42.04345" lon="0.951">
        <ele>623.2</ele>
        <time>2019-01-31T02:23:44Z</time>
      </trkpt>
      <trkpt lat="42.04342" lon="0.95087">
        <ele>623.1</ele>
        <time>2019-01-31T02:23:49Z</time>
      </trkpt>
      <trkpt lat="42.04338" lon="0.95072">
        <ele>621.7</ele>
        <time>2019-01-31T02:23:56Z</time>
      </trkpt>
      <trkpt lat="42.04337" lon="0.95056">
        <ele>621.7</ele>
        <time>2019-01-31T02:24:03Z</time>
      </trkpt>
      <trkpt lat="42.04335" lon="0.95042">
        <ele>621.7</ele>
        <time>2019-01-31T02:24:09Z</time>
      </trkpt>
      <trkpt lat="42.04333" lon="0.95027">
        <ele>621.7</ele>
        <time>2019-01-31T02:24:15Z</time>
      </trkpt>
      <trkpt lat="42.04334" lon="0.95009">
        <ele>621.7</ele>
        <time>2019-01-31T02:24:23Z</time>
      </trkpt>
      <trkpt lat="42.04334" lon="0.94994">
        <ele>621.6</ele>
        <time>2019-01-31T02:24:30Z</time>
      </trkpt>
      <trkpt lat="42.04331" lon="0.94978">
        <ele>621.6</ele>
        <time>2019-01-31T02:24:36Z</time>
      </trkpt>
      <trkpt lat="42.04332" lon="0.94962">
        <ele>621.2</ele>
        <time>2019-01-31T02:24:43Z</time>
      </trkpt>
      <trkpt lat="42.04334" lon="0.94945">
        <ele>620.8</ele>
        <time>2019-01-31T02:24:50Z</time>
      </trkpt>
      <trkpt lat="42.04338" lon="0.94931">
        <ele>620.8</ele>
        <time>2019-01-31T02:24:57Z</time>
      </trkpt>
      <trkpt lat="42.04345" lon="0.94916">
        <ele>620.2</ele>
        <time>2019-01-31T02:25:05Z</time>
      </trkpt>
      <trkpt lat="42.04354" lon="0.94903">
        <ele>620.2</ele>
        <time>2019-01-31T02:25:12Z</time>
      </trkpt>
      <trkpt lat="42.04362" lon="0.94892">
        <ele>619.8</ele>
        <time>2019-01-31T02:25:19Z</time>
      </trkpt>
      <trkpt lat="42.04372" lon="0.94883">
        <ele>619.8</ele>
        <time>2019-01-31T02:25:25Z</time>
      </trkpt>
      <trkpt lat="42.04381" lon="0.94873">
        <ele>619.7</ele>
        <time>2019-01-31T02:25:32Z</time>
      </trkpt>
      <trkpt lat="42.04391" lon="0.94866">
        <ele>619.2</ele>
        <time>2019-01-31T02:25:38Z</time>
      </trkpt>
      <trkpt lat="42.04399" lon="0.94858">
        <ele>618.9</ele>
        <time>2019-01-31T02:25:44Z</time>
      </trkpt>
      <trkpt lat="42.04407" lon="0.9485">
        <ele>617.3</ele>
        <time>2019-01-31T02:25:50Z</time>
      </trkpt>
      <trkpt lat="42.04414" lon="0.94838">
        <ele>616.8</ele>
        <time>2019-01-31T02:25:56Z</time>
      </trkpt>
      <trkpt lat="42.04415" lon="0.94823">
        <ele>616</ele>
        <time>2019-01-31T02:26:03Z</time>
      </trkpt>
      <trkpt lat="42.04417" lon="0.94809">
        <ele>615</ele>
        <time>2019-01-31T02:26:09Z</time>
      </trkpt>
      <trkpt lat="42.0442" lon="0.94794">
        <ele>614</ele>
        <time>2019-01-31T02:26:15Z</time>
      </trkpt>
      <trkpt lat="42.04421" lon="0.94781">
        <ele>613.6</ele>
        <time>2019-01-31T02:26:21Z</time>
      </trkpt>
      <trkpt lat="42.04421" lon="0.94767">
        <ele>612.5</ele>
        <time>2019-01-31T02:26:27Z</time>
      </trkpt>
      <trkpt lat="42.04423" lon="0.94754">
        <ele>611.5</ele>
        <time>2019-01-31T02:26:33Z</time>
      </trkpt>
      <trkpt lat="42.04425" lon="0.9474">
        <ele>610.6</ele>
        <time>2019-01-31T02:26:39Z</time>
      </trkpt>
      <trkpt lat="42.04426" lon="0.94727">
        <ele>610.2</ele>
        <time>2019-01-31T02:26:44Z</time>
      </trkpt>
      <trkpt lat="42.04428" lon="0.94713">
        <ele>609.6</ele>
        <time>2019-01-31T02:26:50Z</time>
      </trkpt>
      <trkpt lat="42.04429" lon="0.94697">
        <ele>608.7</ele>
        <time>2019-01-31T02:26:57Z</time>
      </trkpt>
      <trkpt lat="42.0443" lon="0.94684">
        <ele>607.7</ele>
        <time>2019-01-31T02:27:03Z</time>
      </trkpt>
      <trkpt lat="42.04432" lon="0.94671">
        <ele>606.4</ele>
        <time>2019-01-31T02:27:08Z</time>
      </trkpt>
      <trkpt lat="42.04431" lon="0.94655">
        <ele>605.4</ele>
        <time>2019-01-31T02:27:15Z</time>
      </trkpt>
      <trkpt lat="42.04432" lon="0.94639">
        <ele>604.9</ele>
        <time>2019-01-31T02:27:22Z</time>
      </trkpt>
      <trkpt lat="42.04435" lon="0.94626">
        <ele>604</ele>
        <time>2019-01-31T02:27:28Z</time>
      </trkpt>
      <trkpt lat="42.04441" lon="0.94612">
        <ele>602.5</ele>
        <time>2019-01-31T02:27:34Z</time>
      </trkpt>
      <trkpt lat="42.04447" lon="0.94599">
        <ele>601.5</ele>
        <time>2019-01-31T02:27:41Z</time>
      </trkpt>
      <trkpt lat="42.04453" lon="0.94584">
        <ele>600.1</ele>
        <time>2019-01-31T02:27:48Z</time>
      </trkpt>
      <trkpt lat="42.04459" lon="0.94572">
        <ele>599.6</ele>
        <time>2019-01-31T02:27:54Z</time>
      </trkpt>
      <trkpt lat="42.04466" lon="0.94561">
        <ele>598.2</ele>
        <time>2019-01-31T02:28:01Z</time>
      </trkpt>
      <trkpt lat="42.04474" lon="0.94552">
        <ele>597.6</ele>
        <time>2019-01-31T02:28:07Z</time>
      </trkpt>
      <trkpt lat="42.04484" lon="0.94544">
        <ele>597.1</ele>
        <time>2019-01-31T02:28:13Z</time>
      </trkpt>
      <trkpt lat="42.04495" lon="0.9454">
        <ele>597.2</ele>
        <time>2019-01-31T02:28:20Z</time>
      </trkpt>
      <trkpt lat="42.04505" lon="0.94536">
        <ele>596.3</ele>
        <time>2019-01-31T02:28:26Z</time>
      </trkpt>
      <trkpt lat="42.04513" lon="0.94529">
        <ele>595.2</ele>
        <time>2019-01-31T02:28:31Z</time>
      </trkpt>
      <trkpt lat="42.04519" lon="0.94519">
        <ele>593.9</ele>
        <time>2019-01-31T02:28:36Z</time>
      </trkpt>
      <trkpt lat="42.04522" lon="0.94508">
        <ele>592.9</ele>
        <time>2019-01-31T02:28:42Z</time>
      </trkpt>
      <trkpt lat="42.04525" lon="0.94494">
        <ele>591.5</ele>
        <time>2019-01-31T02:28:48Z</time>
      </trkpt>
      <trkpt lat="42.04527" lon="0.9448">
        <ele>590</ele>
        <time>2019-01-31T02:28:54Z</time>
      </trkpt>
      <trkpt lat="42.04528" lon="0.94466">
        <ele>589.1</ele>
        <time>2019-01-31T02:29:00Z</time>
      </trkpt>
      <trkpt lat="42.04531" lon="0.94451">
        <ele>587.5</ele>
        <time>2019-01-31T02:29:06Z</time>
      </trkpt>
      <trkpt lat="42.04534" lon="0.94437">
        <ele>586.5</ele>
        <time>2019-01-31T02:29:13Z</time>
      </trkpt>
      <trkpt lat="42.04536" lon="0.94422">
        <ele>585.1</ele>
        <time>2019-01-31T02:29:19Z</time>
      </trkpt>
      <trkpt lat="42.04536" lon="0.94407">
        <ele>584.1</ele>
        <time>2019-01-31T02:29:25Z</time>
      </trkpt>
      <trkpt lat="42.04535" lon="0.94394">
        <ele>582.8</ele>
        <time>2019-01-31T02:29:31Z</time>
      </trkpt>
      <trkpt lat="42.04533" lon="0.94379">
        <ele>580.9</ele>
        <time>2019-01-31T02:29:37Z</time>
      </trkpt>
      <trkpt lat="42.04533" lon="0.94364">
        <ele>579.4</ele>
        <time>2019-01-31T02:29:44Z</time>
      </trkpt>
      <trkpt lat="42.04536" lon="0.94348">
        <ele>578.5</ele>
        <time>2019-01-31T02:29:51Z</time>
      </trkpt>
      <trkpt lat="42.04539" lon="0.94334">
        <ele>577.4</ele>
        <time>2019-01-31T02:29:57Z</time>
      </trkpt>
      <trkpt lat="42.04539" lon="0.9432">
        <ele>575.5</ele>
        <time>2019-01-31T02:30:03Z</time>
      </trkpt>
      <trkpt lat="42.04546" lon="0.94306">
        <ele>575.1</ele>
        <time>2019-01-31T02:30:10Z</time>
      </trkpt>
      <trkpt lat="42.04555" lon="0.94294">
        <ele>573.2</ele>
        <time>2019-01-31T02:30:17Z</time>
      </trkpt>
      <trkpt lat="42.04562" lon="0.94281">
        <ele>570.7</ele>
        <time>2019-01-31T02:30:24Z</time>
      </trkpt>
      <trkpt lat="42.04569" lon="0.94266">
        <ele>568.8</ele>
        <time>2019-01-31T02:30:32Z</time>
      </trkpt>
      <trkpt lat="42.04577" lon="0.94251">
        <ele>567.9</ele>
        <time>2019-01-31T02:30:40Z</time>
      </trkpt>
      <trkpt lat="42.04585" lon="0.94236">
        <ele>566.5</ele>
        <time>2019-01-31T02:30:47Z</time>
      </trkpt>
      <trkpt lat="42.04591" lon="0.94224">
        <ele>566</ele>
        <time>2019-01-31T02:30:54Z</time>
      </trkpt>
      <trkpt lat="42.04599" lon="0.94213">
        <ele>564.9</ele>
        <time>2019-01-31T02:31:00Z</time>
      </trkpt>
      <trkpt lat="42.04607" lon="0.94199">
        <ele>564.1</ele>
        <time>2019-01-31T02:31:07Z</time>
      </trkpt>
      <trkpt lat="42.04616" lon="0.94185">
        <ele>563.1</ele>
        <time>2019-01-31T02:31:15Z</time>
      </trkpt>
      <trkpt lat="42.04623" lon="0.94172">
        <ele>562.6</ele>
        <time>2019-01-31T02:31:22Z</time>
      </trkpt>
      <trkpt lat="42.04628" lon="0.94158">
        <ele>561.7</ele>
        <time>2019-01-31T02:31:28Z</time>
      </trkpt>
      <trkpt lat="42.04636" lon="0.94143">
        <ele>561.7</ele>
        <time>2019-01-31T02:31:36Z</time>
      </trkpt>
      <trkpt lat="42.04643" lon="0.94132">
        <ele>561.1</ele>
        <time>2019-01-31T02:31:43Z</time>
      </trkpt>
      <trkpt lat="42.04651" lon="0.94122">
        <ele>561.1</ele>
        <time>2019-01-31T02:31:49Z</time>
      </trkpt>
      <trkpt lat="42.04658" lon="0.9411">
        <ele>560.6</ele>
        <time>2019-01-31T02:31:55Z</time>
      </trkpt>
      <trkpt lat="42.04662" lon="0.94098">
        <ele>560.2</ele>
        <time>2019-01-31T02:32:01Z</time>
      </trkpt>
      <trkpt lat="42.04665" lon="0.94084">
        <ele>559.6</ele>
        <time>2019-01-31T02:32:07Z</time>
      </trkpt>
      <trkpt lat="42.04668" lon="0.9407">
        <ele>558.8</ele>
        <time>2019-01-31T02:32:13Z</time>
      </trkpt>
      <trkpt lat="42.04666" lon="0.94056">
        <ele>558.3</ele>
        <time>2019-01-31T02:32:19Z</time>
      </trkpt>
      <trkpt lat="42.04662" lon="0.94043">
        <ele>556.7</ele>
        <time>2019-01-31T02:32:25Z</time>
      </trkpt>
      <trkpt lat="42.04656" lon="0.94034">
        <ele>554.8</ele>
        <time>2019-01-31T02:32:30Z</time>
      </trkpt>
      <trkpt lat="42.04649" lon="0.94027">
        <ele>554.3</ele>
        <time>2019-01-31T02:32:36Z</time>
      </trkpt>
      <trkpt lat="42.04638" lon="0.94029">
        <ele>554.8</ele>
        <time>2019-01-31T02:32:42Z</time>
      </trkpt>
      <trkpt lat="42.04628" lon="0.94032">
        <ele>556.3</ele>
        <time>2019-01-31T02:32:47Z</time>
      </trkpt>
      <trkpt lat="42.04619" lon="0.94038">
        <ele>557.7</ele>
        <time>2019-01-31T02:32:53Z</time>
      </trkpt>
      <trkpt lat="42.04605" lon="0.94043">
        <ele>561.1</ele>
        <time>2019-01-31T02:33:02Z</time>
      </trkpt>
      <trkpt lat="42.04595" lon="0.94034">
        <ele>561.6</ele>
        <time>2019-01-31T02:33:08Z</time>
      </trkpt>
      <trkpt lat="42.04585" lon="0.94023">
        <ele>562.5</ele>
        <time>2019-01-31T02:33:16Z</time>
      </trkpt>
      <trkpt lat="42.04577" lon="0.94013">
        <ele>563.6</ele>
        <time>2019-01-31T02:33:22Z</time>
      </trkpt>
      <trkpt lat="42.04571" lon="0.94">
        <ele>564.4</ele>
        <time>2019-01-31T02:33:28Z</time>
      </trkpt>
      <trkpt lat="42.04567" lon="0.93983">
        <ele>565.4</ele>
        <time>2019-01-31T02:33:36Z</time>
      </trkpt>
      <trkpt lat="42.04571" lon="0.93968">
        <ele>566.4</ele>
        <time>2019-01-31T02:33:43Z</time>
      </trkpt>
      <trkpt lat="42.04576" lon="0.93953">
        <ele>568.4</ele>
        <time>2019-01-31T02:33:49Z</time>
      </trkpt>
      <trkpt lat="42.04577" lon="0.93939">
        <ele>569.8</ele>
        <time>2019-01-31T02:33:56Z</time>
      </trkpt>
      <trkpt lat="42.04575" lon="0.93927">
        <ele>571.2</ele>
        <time>2019-01-31T02:34:01Z</time>
      </trkpt>
      <trkpt lat="42.0457" lon="0.93914">
        <ele>572.1</ele>
        <time>2019-01-31T02:34:07Z</time>
      </trkpt>
      <trkpt lat="42.04566" lon="0.93904">
        <ele>573.7</ele>
        <time>2019-01-31T02:34:12Z</time>
      </trkpt>
      <trkpt lat="42.0456" lon="0.93894">
        <ele>574.5</ele>
        <time>2019-01-31T02:34:17Z</time>
      </trkpt>
      <trkpt lat="42.04555" lon="0.93879">
        <ele>575.6</ele>
        <time>2019-01-31T02:34:24Z</time>
      </trkpt>
      <trkpt lat="42.04557" lon="0.93858">
        <ele>576.6</ele>
        <time>2019-01-31T02:34:33Z</time>
      </trkpt>
      <trkpt lat="42.04563" lon="0.93843">
        <ele>578</ele>
        <time>2019-01-31T02:34:41Z</time>
      </trkpt>
      <trkpt lat="42.04568" lon="0.93829">
        <ele>578.9</ele>
        <time>2019-01-31T02:34:47Z</time>
      </trkpt>
      <trkpt lat="42.04572" lon="0.93816">
        <ele>579.9</ele>
        <time>2019-01-31T02:34:53Z</time>
      </trkpt>
      <trkpt lat="42.04571" lon="0.93805">
        <ele>581.4</ele>
        <time>2019-01-31T02:34:58Z</time>
      </trkpt>
      <trkpt lat="42.04566" lon="0.93795">
        <ele>582.2</ele>
        <time>2019-01-31T02:35:03Z</time>
      </trkpt>
      <trkpt lat="42.04564" lon="0.9378">
        <ele>584.1</ele>
        <time>2019-01-31T02:35:09Z</time>
      </trkpt>
      <trkpt lat="42.04565" lon="0.93762">
        <ele>585.6</ele>
        <time>2019-01-31T02:35:17Z</time>
      </trkpt>
      <trkpt lat="42.04566" lon="0.93747">
        <ele>586.5</ele>
        <time>2019-01-31T02:35:23Z</time>
      </trkpt>
      <trkpt lat="42.04564" lon="0.93727">
        <ele>588.5</ele>
        <time>2019-01-31T02:35:32Z</time>
      </trkpt>
      <trkpt lat="42.04564" lon="0.93709">
        <ele>591</ele>
        <time>2019-01-31T02:35:40Z</time>
      </trkpt>
      <trkpt lat="42.04561" lon="0.93694">
        <ele>591.9</ele>
        <time>2019-01-31T02:35:46Z</time>
      </trkpt>
      <trkpt lat="42.04554" lon="0.93691">
        <ele>592.3</ele>
        <time>2019-01-31T02:35:50Z</time>
      </trkpt>
      <trkpt lat="42.04546" lon="0.93686">
        <ele>592.9</ele>
        <time>2019-01-31T02:35:55Z</time>
      </trkpt>
      <trkpt lat="42.04537" lon="0.93676">
        <ele>593.8</ele>
        <time>2019-01-31T02:36:02Z</time>
      </trkpt>
      <trkpt lat="42.04528" lon="0.93667">
        <ele>593.8</ele>
        <time>2019-01-31T02:36:08Z</time>
      </trkpt>
      <trkpt lat="42.04519" lon="0.93659">
        <ele>592.3</ele>
        <time>2019-01-31T02:36:14Z</time>
      </trkpt>
      <trkpt lat="42.04509" lon="0.9365">
        <ele>592.3</ele>
        <time>2019-01-31T02:36:21Z</time>
      </trkpt>
      <trkpt lat="42.04498" lon="0.93641">
        <ele>592.3</ele>
        <time>2019-01-31T02:36:28Z</time>
      </trkpt>
      <trkpt lat="42.04484" lon="0.93632">
        <ele>593.9</ele>
        <time>2019-01-31T02:36:38Z</time>
      </trkpt>
      <trkpt lat="42.04471" lon="0.93628">
        <ele>593.8</ele>
        <time>2019-01-31T02:36:45Z</time>
      </trkpt>
      <trkpt lat="42.0446" lon="0.93628">
        <ele>594.7</ele>
        <time>2019-01-31T02:36:51Z</time>
      </trkpt>
      <trkpt lat="42.04448" lon="0.93626">
        <ele>595.8</ele>
        <time>2019-01-31T02:36:58Z</time>
      </trkpt>
      <trkpt lat="42.04436" lon="0.93625">
        <ele>595.7</ele>
        <time>2019-01-31T02:37:05Z</time>
      </trkpt>
      <trkpt lat="42.04423" lon="0.93623">
        <ele>595.8</ele>
        <time>2019-01-31T02:37:13Z</time>
      </trkpt>
      <trkpt lat="42.04409" lon="0.9362">
        <ele>594.8</ele>
        <time>2019-01-31T02:37:21Z</time>
      </trkpt>
      <trkpt lat="42.04398" lon="0.93617">
        <ele>594.7</ele>
        <time>2019-01-31T02:37:27Z</time>
      </trkpt>
      <trkpt lat="42.04383" lon="0.93609">
        <ele>593.9</ele>
        <time>2019-01-31T02:37:36Z</time>
      </trkpt>
      <trkpt lat="42.04366" lon="0.93598">
        <ele>592.3</ele>
        <time>2019-01-31T02:37:47Z</time>
      </trkpt>
      <trkpt lat="42.04352" lon="0.9357">
        <ele>590.4</ele>
        <time>2019-01-31T02:38:01Z</time>
      </trkpt>
      <trkpt lat="42.04347" lon="0.93552">
        <ele>589.5</ele>
        <time>2019-01-31T02:38:09Z</time>
      </trkpt>
      <trkpt lat="42.04337" lon="0.93543">
        <ele>590</ele>
        <time>2019-01-31T02:38:16Z</time>
      </trkpt>
      <trkpt lat="42.04326" lon="0.93534">
        <ele>590</ele>
        <time>2019-01-31T02:38:24Z</time>
      </trkpt>
      <trkpt lat="42.04313" lon="0.93525">
        <ele>590</ele>
        <time>2019-01-31T02:38:32Z</time>
      </trkpt>
      <trkpt lat="42.04302" lon="0.93517">
        <ele>592.3</ele>
        <time>2019-01-31T02:38:39Z</time>
      </trkpt>
      <trkpt lat="42.04291" lon="0.93513">
        <ele>593.8</ele>
        <time>2019-01-31T02:38:46Z</time>
      </trkpt>
      <trkpt lat="42.04275" lon="0.93507">
        <ele>596.3</ele>
        <time>2019-01-31T02:38:55Z</time>
      </trkpt>
      <trkpt lat="42.0424" lon="0.93478">
        <ele>603.9</ele>
        <time>2019-01-31T02:39:19Z</time>
      </trkpt>
      <trkpt lat="42.04227" lon="0.93454">
        <ele>606.8</ele>
        <time>2019-01-31T02:39:31Z</time>
      </trkpt>
      <trkpt lat="42.04217" lon="0.93439">
        <ele>608.2</ele>
        <time>2019-01-31T02:39:39Z</time>
      </trkpt>
      <trkpt lat="42.04174" lon="0.93394">
        <ele>615.9</ele>
        <time>2019-01-31T02:40:11Z</time>
      </trkpt>
      <trkpt lat="42.04145" lon="0.93364">
        <ele>622.7</ele>
        <time>2019-01-31T02:40:32Z</time>
      </trkpt>
      <trkpt lat="42.04087" lon="0.93307">
        <ele>639.9</ele>
        <time>2019-01-31T02:41:13Z</time>
      </trkpt>
      <trkpt lat="42.04067" lon="0.93283">
        <ele>647.1</ele>
        <time>2019-01-31T02:41:28Z</time>
      </trkpt>
      <trkpt lat="42.03963" lon="0.93209">
        <ele>685.2</ele>
        <time>2019-01-31T02:42:36Z</time>
      </trkpt>
      <trkpt lat="42.03922" lon="0.9332">
        <ele>753.9</ele>
        <time>2019-01-31T02:43:28Z</time>
      </trkpt>
      <trkpt lat="42.03908" lon="0.93317">
        <ele>762</ele>
        <time>2019-01-31T02:43:36Z</time>
      </trkpt>
      <trkpt lat="42.039" lon="0.93311">
        <ele>767.4</ele>
        <time>2019-01-31T02:43:41Z</time>
      </trkpt>
      <trkpt lat="42.03898" lon="0.93318">
        <ele>769.8</ele>
        <time>2019-01-31T02:43:44Z</time>
      </trkpt>
      <trkpt lat="42.03888" lon="0.93309">
        <ele>772.2</ele>
        <time>2019-01-31T02:43:51Z</time>
      </trkpt>
      <trkpt lat="42.03876" lon="0.93322">
        <ele>779.8</ele>
        <time>2019-01-31T02:44:00Z</time>
      </trkpt>
      <trkpt lat="42.03865" lon="0.93308">
        <ele>786</ele>
        <time>2019-01-31T02:44:08Z</time>
      </trkpt>
      <trkpt lat="42.03851" lon="0.93307">
        <ele>800.1</ele>
        <time>2019-01-31T02:44:17Z</time>
      </trkpt>
      <trkpt lat="42.03838" lon="0.9331">
        <ele>802.9</ele>
        <time>2019-01-31T02:44:24Z</time>
      </trkpt>
      <trkpt lat="42.03827" lon="0.93312">
        <ele>804.9</ele>
        <time>2019-01-31T02:44:30Z</time>
      </trkpt>
      <trkpt lat="42.03817" lon="0.93294">
        <ele>815</ele>
        <time>2019-01-31T02:44:40Z</time>
      </trkpt>
      <trkpt lat="42.03808" lon="0.9329">
        <ele>820.6</ele>
        <time>2019-01-31T02:44:45Z</time>
      </trkpt>
      <trkpt lat="42.03785" lon="0.93282">
        <ele>830.7</ele>
        <time>2019-01-31T02:44:59Z</time>
      </trkpt>
      <trkpt lat="42.03763" lon="0.93284">
        <ele>843.2</ele>
        <time>2019-01-31T02:45:12Z</time>
      </trkpt>
      <trkpt lat="42.03744" lon="0.93307">
        <ele>848.5</ele>
        <time>2019-01-31T02:45:26Z</time>
      </trkpt>
      <trkpt lat="42.03734" lon="0.93304">
        <ele>852.5</ele>
        <time>2019-01-31T02:45:32Z</time>
      </trkpt>
      <trkpt lat="42.03737" lon="0.93282">
        <ele>854.8</ele>
        <time>2019-01-31T02:45:41Z</time>
      </trkpt>
      <trkpt lat="42.03729" lon="0.93272">
        <ele>864.8</ele>
        <time>2019-01-31T02:45:48Z</time>
      </trkpt>
      <trkpt lat="42.03688" lon="0.93295">
        <ele>886.5</ele>
        <time>2019-01-31T02:46:13Z</time>
      </trkpt>
      <trkpt lat="42.03664" lon="0.93256">
        <ele>910.1</ele>
        <time>2019-01-31T02:46:35Z</time>
      </trkpt>
      <trkpt lat="42.03645" lon="0.93253">
        <ele>922.6</ele>
        <time>2019-01-31T02:46:46Z</time>
      </trkpt>
      <trkpt lat="42.0362" lon="0.93261">
        <ele>940.4</ele>
        <time>2019-01-31T02:47:00Z</time>
      </trkpt>
      <trkpt lat="42.03573" lon="0.93258">
        <ele>974.5</ele>
        <time>2019-01-31T02:47:27Z</time>
      </trkpt>
      <trkpt lat="42.03568" lon="0.93255">
        <ele>976.8</ele>
        <time>2019-01-31T02:47:30Z</time>
      </trkpt>
      <trkpt lat="42.03547" lon="0.93268">
        <ele>990.8</ele>
        <time>2019-01-31T02:47:44Z</time>
      </trkpt>
      <trkpt lat="42.03536" lon="0.93282">
        <ele>994.6</ele>
        <time>2019-01-31T02:47:52Z</time>
      </trkpt>
      <trkpt lat="42.03522" lon="0.93268">
        <ele>1010.1</ele>
        <time>2019-01-31T02:48:02Z</time>
      </trkpt>
      <trkpt lat="42.0351" lon="0.93279">
        <ele>1016.7</ele>
        <time>2019-01-31T02:48:10Z</time>
      </trkpt>
      <trkpt lat="42.03503" lon="0.93268">
        <ele>1023.9</ele>
        <time>2019-01-31T02:48:17Z</time>
      </trkpt>
      <trkpt lat="42.03502" lon="0.93253">
        <ele>1025.5</ele>
        <time>2019-01-31T02:48:23Z</time>
      </trkpt>
      <trkpt lat="42.03491" lon="0.93234">
        <ele>1030.8</ele>
        <time>2019-01-31T02:48:33Z</time>
      </trkpt>
      <trkpt lat="42.0348" lon="0.93237">
        <ele>1042.2</ele>
        <time>2019-01-31T02:48:40Z</time>
      </trkpt>
      <trkpt lat="42.03484" lon="0.93253">
        <ele>1043.2</ele>
        <time>2019-01-31T02:48:47Z</time>
      </trkpt>
      <trkpt lat="42.03473" lon="0.93245">
        <ele>1047.1</ele>
        <time>2019-01-31T02:48:54Z</time>
      </trkpt>
      <trkpt lat="42.03471" lon="0.9327">
        <ele>1052.4</ele>
        <time>2019-01-31T02:49:05Z</time>
      </trkpt>
      <trkpt lat="42.03466" lon="0.93283">
        <ele>1053.8</ele>
        <time>2019-01-31T02:49:11Z</time>
      </trkpt>
      <trkpt lat="42.03465" lon="0.93268">
        <ele>1056.3</ele>
        <time>2019-01-31T02:49:17Z</time>
      </trkpt>
      <trkpt lat="42.03461" lon="0.9326">
        <ele>1059.6</ele>
        <time>2019-01-31T02:49:22Z</time>
      </trkpt>
      <trkpt lat="42.03461" lon="0.93273">
        <ele>1061.9</ele>
        <time>2019-01-31T02:49:27Z</time>
      </trkpt>
      <trkpt lat="42.03441" lon="0.9325">
        <ele>1074.9</ele>
        <time>2019-01-31T02:49:42Z</time>
      </trkpt>
      <trkpt lat="42.03435" lon="0.9328">
        <ele>1079.7</ele>
        <time>2019-01-31T02:49:55Z</time>
      </trkpt>
      <trkpt lat="42.03431" lon="0.93291">
        <ele>1082.2</ele>
        <time>2019-01-31T02:50:01Z</time>
      </trkpt>
      <trkpt lat="42.03422" lon="0.93309">
        <ele>1086.5</ele>
        <time>2019-01-31T02:50:09Z</time>
      </trkpt>
      <trkpt lat="42.03416" lon="0.93321">
        <ele>1089.3</ele>
        <time>2019-01-31T02:50:16Z</time>
      </trkpt>
      <trkpt lat="42.03411" lon="0.93334">
        <ele>1091.8</ele>
        <time>2019-01-31T02:50:22Z</time>
      </trkpt>
      <trkpt lat="42.03397" lon="0.93347">
        <ele>1097.6</ele>
        <time>2019-01-31T02:50:32Z</time>
      </trkpt>
      <trkpt lat="42.03401" lon="0.9332">
        <ele>1101.4</ele>
        <time>2019-01-31T02:50:44Z</time>
      </trkpt>
      <trkpt lat="42.03404" lon="0.93287">
        <ele>1106.2</ele>
        <time>2019-01-31T02:50:58Z</time>
      </trkpt>
      <trkpt lat="42.03397" lon="0.9327">
        <ele>1110.6</ele>
        <time>2019-01-31T02:51:06Z</time>
      </trkpt>
      <trkpt lat="42.03392" lon="0.93276">
        <ele>1114.3</ele>
        <time>2019-01-31T02:51:10Z</time>
      </trkpt>
      <trkpt lat="42.03386" lon="0.93267">
        <ele>1117.7</ele>
        <time>2019-01-31T02:51:15Z</time>
      </trkpt>
      <trkpt lat="42.03387" lon="0.9328">
        <ele>1120.7</ele>
        <time>2019-01-31T02:51:20Z</time>
      </trkpt>
      <trkpt lat="42.03383" lon="0.93297">
        <ele>1123</ele>
        <time>2019-01-31T02:51:28Z</time>
      </trkpt>
      <trkpt lat="42.03369" lon="0.93282">
        <ele>1132.7</ele>
        <time>2019-01-31T02:51:38Z</time>
      </trkpt>
      <trkpt lat="42.03357" lon="0.933">
        <ele>1144.7</ele>
        <time>2019-01-31T02:51:48Z</time>
      </trkpt>
      <trkpt lat="42.03347" lon="0.93316">
        <ele>1148.5</ele>
        <time>2019-01-31T02:51:57Z</time>
      </trkpt>
      <trkpt lat="42.03334" lon="0.93291">
        <ele>1156.2</ele>
        <time>2019-01-31T02:52:10Z</time>
      </trkpt>
      <trkpt lat="42.03334" lon="0.93304">
        <ele>1159.1</ele>
        <time>2019-01-31T02:52:15Z</time>
      </trkpt>
      <trkpt lat="42.03329" lon="0.93305">
        <ele>1162.9</ele>
        <time>2019-01-31T02:52:18Z</time>
      </trkpt>
      <trkpt lat="42.03322" lon="0.93324">
        <ele>1167.2</ele>
        <time>2019-01-31T02:52:26Z</time>
      </trkpt>
      <trkpt lat="42.03311" lon="0.93303">
        <ele>1173</ele>
        <time>2019-01-31T02:52:37Z</time>
      </trkpt>
      <trkpt lat="42.03309" lon="0.93315">
        <ele>1175.4</ele>
        <time>2019-01-31T02:52:42Z</time>
      </trkpt>
      <trkpt lat="42.03299" lon="0.93305">
        <ele>1180.7</ele>
        <time>2019-01-31T02:52:49Z</time>
      </trkpt>
      <trkpt lat="42.03297" lon="0.93316">
        <ele>1182.7</ele>
        <time>2019-01-31T02:52:54Z</time>
      </trkpt>
      <trkpt lat="42.03291" lon="0.9332">
        <ele>1185.9</ele>
        <time>2019-01-31T02:52:58Z</time>
      </trkpt>
      <trkpt lat="42.03283" lon="0.93327">
        <ele>1193.2</ele>
        <time>2019-01-31T02:53:03Z</time>
      </trkpt>
      <trkpt lat="42.03277" lon="0.93321">
        <ele>1196</ele>
        <time>2019-01-31T02:53:07Z</time>
      </trkpt>
      <trkpt lat="42.03271" lon="0.93313">
        <ele>1200</ele>
        <time>2019-01-31T02:53:12Z</time>
      </trkpt>
      <trkpt lat="42.03268" lon="0.93325">
        <ele>1201.9</ele>
        <time>2019-01-31T02:53:18Z</time>
      </trkpt>
      <trkpt lat="42.03264" lon="0.93312">
        <ele>1204.8</ele>
        <time>2019-01-31T02:53:24Z</time>
      </trkpt>
      <trkpt lat="42.03263" lon="0.93323">
        <ele>1206.2</ele>
        <time>2019-01-31T02:53:28Z</time>
      </trkpt>
      <trkpt lat="42.0326" lon="0.93337">
        <ele>1208</ele>
        <time>2019-01-31T02:53:34Z</time>
      </trkpt>
      <trkpt lat="42.03254" lon="0.93332">
        <ele>1212.4</ele>
        <time>2019-01-31T02:53:38Z</time>
      </trkpt>
      <trkpt lat="42.0325" lon="0.93319">
        <ele>1214.9</ele>
        <time>2019-01-31T02:53:44Z</time>
      </trkpt>
      <trkpt lat="42.03243" lon="0.93309">
        <ele>1217.8</ele>
        <time>2019-01-31T02:53:50Z</time>
      </trkpt>
      <trkpt lat="42.03244" lon="0.93321">
        <ele>1219.1</ele>
        <time>2019-01-31T02:53:55Z</time>
      </trkpt>
      <trkpt lat="42.03242" lon="0.93333">
        <ele>1219.6</ele>
        <time>2019-01-31T02:54:01Z</time>
      </trkpt>
      <trkpt lat="42.03236" lon="0.93321">
        <ele>1222.1</ele>
        <time>2019-01-31T02:54:07Z</time>
      </trkpt>
      <trkpt lat="42.03236" lon="0.93325">
        <ele>1223.9</ele>
        <time>2019-01-31T02:54:09Z</time>
      </trkpt>
      <trkpt lat="42.03233" lon="0.93332">
        <ele>1225.3</ele>
        <time>2019-01-31T02:54:12Z</time>
      </trkpt>
      <trkpt lat="42.03228" lon="0.9332">
        <ele>1227.8</ele>
        <time>2019-01-31T02:54:18Z</time>
      </trkpt>
      <trkpt lat="42.03228" lon="0.93325">
        <ele>1229.7</ele>
        <time>2019-01-31T02:54:20Z</time>
      </trkpt>
      <trkpt lat="42.03224" lon="0.93319">
        <ele>1230.1</ele>
        <time>2019-01-31T02:54:24Z</time>
      </trkpt>
      <trkpt lat="42.03213" lon="0.93321">
        <ele>1232.1</ele>
        <time>2019-01-31T02:54:30Z</time>
      </trkpt>
      <trkpt lat="42.03202" lon="0.93323">
        <ele>1228.8</ele>
        <time>2019-01-31T02:54:36Z</time>
      </trkpt>
      <trkpt lat="42.03204" lon="0.93319">
        <ele>1224.9</ele>
        <time>2019-01-31T02:54:38Z</time>
      </trkpt>
      <trkpt lat="42.03207" lon="0.93314">
        <ele>1220.5</ele>
        <time>2019-01-31T02:54:41Z</time>
      </trkpt>
      <trkpt lat="42.03214" lon="0.93309">
        <ele>1214.3</ele>
        <time>2019-01-31T02:54:46Z</time>
      </trkpt>
      <trkpt lat="42.03212" lon="0.93302">
        <ele>1205.6</ele>
        <time>2019-01-31T02:54:49Z</time>
      </trkpt>
      <trkpt lat="42.03195" lon="0.93306">
        <ele>1199.5</ele>
        <time>2019-01-31T02:54:59Z</time>
      </trkpt>
      <trkpt lat="42.03171" lon="0.93316">
        <ele>1210.5</ele>
        <time>2019-01-31T02:55:13Z</time>
      </trkpt>
      <trkpt lat="42.03171" lon="0.93329">
        <ele>1212.9</ele>
        <time>2019-01-31T02:55:18Z</time>
      </trkpt>
      <trkpt lat="42.03169" lon="0.93341">
        <ele>1216.3</ele>
        <time>2019-01-31T02:55:24Z</time>
      </trkpt>
      <trkpt lat="42.03159" lon="0.93357">
        <ele>1222</ele>
        <time>2019-01-31T02:55:32Z</time>
      </trkpt>
      <trkpt lat="42.03149" lon="0.93339">
        <ele>1225.8</ele>
        <time>2019-01-31T02:55:42Z</time>
      </trkpt>
      <trkpt lat="42.03143" lon="0.93326">
        <ele>1228.2</ele>
        <time>2019-01-31T02:55:49Z</time>
      </trkpt>
      <trkpt lat="42.03136" lon="0.93315">
        <ele>1231.7</ele>
        <time>2019-01-31T02:55:55Z</time>
      </trkpt>
      <trkpt lat="42.03137" lon="0.93315">
        <ele>1234</ele>
        <time>2019-01-31T02:55:55Z</time>
      </trkpt>
      <trkpt lat="42.03139" lon="0.93328">
        <ele>1236.5</ele>
        <time>2019-01-31T02:56:01Z</time>
      </trkpt>
      <trkpt lat="42.03138" lon="0.93341">
        <ele>1238.3</ele>
        <time>2019-01-31T02:56:06Z</time>
      </trkpt>
      <trkpt lat="42.03135" lon="0.93353">
        <ele>1241.3</ele>
        <time>2019-01-31T02:56:12Z</time>
      </trkpt>
      <trkpt lat="42.03127" lon="0.93348">
        <ele>1244.2</ele>
        <time>2019-01-31T02:56:17Z</time>
      </trkpt>
      <trkpt lat="42.03123" lon="0.93334">
        <ele>1246.1</ele>
        <time>2019-01-31T02:56:23Z</time>
      </trkpt>
      <trkpt lat="42.03117" lon="0.93322">
        <ele>1247.9</ele>
        <time>2019-01-31T02:56:29Z</time>
      </trkpt>
      <trkpt lat="42.03119" lon="0.93331">
        <ele>1250.3</ele>
        <time>2019-01-31T02:56:33Z</time>
      </trkpt>
      <trkpt lat="42.03117" lon="0.93341">
        <ele>1251.8</ele>
        <time>2019-01-31T02:56:38Z</time>
      </trkpt>
      <trkpt lat="42.03111" lon="0.93331">
        <ele>1254.3</ele>
        <time>2019-01-31T02:56:43Z</time>
      </trkpt>
      <trkpt lat="42.03105" lon="0.93319">
        <ele>1255.6</ele>
        <time>2019-01-31T02:56:49Z</time>
      </trkpt>
      <trkpt lat="42.03098" lon="0.93308">
        <ele>1258.1</ele>
        <time>2019-01-31T02:56:55Z</time>
      </trkpt>
      <trkpt lat="42.03091" lon="0.93301">
        <ele>1259.9</ele>
        <time>2019-01-31T02:57:00Z</time>
      </trkpt>
      <trkpt lat="42.03081" lon="0.93301">
        <ele>1260.5</ele>
        <time>2019-01-31T02:57:06Z</time>
      </trkpt>
      <trkpt lat="42.03065" lon="0.93302">
        <ele>1265.3</ele>
        <time>2019-01-31T02:57:15Z</time>
      </trkpt>
      <trkpt lat="42.03054" lon="0.93287">
        <ele>1269.6</ele>
        <time>2019-01-31T02:57:24Z</time>
      </trkpt>
      <trkpt lat="42.03056" lon="0.93298">
        <ele>1271.6</ele>
        <time>2019-01-31T02:57:28Z</time>
      </trkpt>
      <trkpt lat="42.03056" lon="0.93308">
        <ele>1275.3</ele>
        <time>2019-01-31T02:57:33Z</time>
      </trkpt>
      <trkpt lat="42.03048" lon="0.93309">
        <ele>1279.2</ele>
        <time>2019-01-31T02:57:38Z</time>
      </trkpt>
      <trkpt lat="42.03053" lon="0.93319">
        <ele>1281.1</ele>
        <time>2019-01-31T02:57:43Z</time>
      </trkpt>
      <trkpt lat="42.0306" lon="0.93331">
        <ele>1284.5</ele>
        <time>2019-01-31T02:57:49Z</time>
      </trkpt>
      <trkpt lat="42.03054" lon="0.93345">
        <ele>1290.8</ele>
        <time>2019-01-31T02:57:56Z</time>
      </trkpt>
      <trkpt lat="42.03041" lon="0.93337">
        <ele>1294.2</ele>
        <time>2019-01-31T02:58:04Z</time>
      </trkpt>
      <trkpt lat="42.03033" lon="0.93334">
        <ele>1298.4</ele>
        <time>2019-01-31T02:58:09Z</time>
      </trkpt>
      <trkpt lat="42.03036" lon="0.93343">
        <ele>1300.3</ele>
        <time>2019-01-31T02:58:13Z</time>
      </trkpt>
      <trkpt lat="42.03038" lon="0.93355">
        <ele>1303.2</ele>
        <time>2019-01-31T02:58:18Z</time>
      </trkpt>
      <trkpt lat="42.03034" lon="0.93361">
        <ele>1305.7</ele>
        <time>2019-01-31T02:58:22Z</time>
      </trkpt>
      <trkpt lat="42.03032" lon="0.93375">
        <ele>1309</ele>
        <time>2019-01-31T02:58:28Z</time>
      </trkpt>
      <trkpt lat="42.03026" lon="0.93368">
        <ele>1313.3</ele>
        <time>2019-01-31T02:58:33Z</time>
      </trkpt>
      <trkpt lat="42.03018" lon="0.93368">
        <ele>1318.1</ele>
        <time>2019-01-31T02:58:37Z</time>
      </trkpt>
      <trkpt lat="42.03016" lon="0.93373">
        <ele>1320.5</ele>
        <time>2019-01-31T02:58:40Z</time>
      </trkpt>
      <trkpt lat="42.03006" lon="0.93361">
        <ele>1323.4</ele>
        <time>2019-01-31T02:58:47Z</time>
      </trkpt>
      <trkpt lat="42.02995" lon="0.93361">
        <ele>1325.4</ele>
        <time>2019-01-31T02:58:53Z</time>
      </trkpt>
      <trkpt lat="42.03002" lon="0.93365">
        <ele>1327.3</ele>
        <time>2019-01-31T02:58:57Z</time>
      </trkpt>
      <trkpt lat="42.03001" lon="0.93378">
        <ele>1329.7</ele>
        <time>2019-01-31T02:59:03Z</time>
      </trkpt>
      <trkpt lat="42.02999" lon="0.93383">
        <ele>1332.6</ele>
        <time>2019-01-31T02:59:06Z</time>
      </trkpt>
      <trkpt lat="42.02995" lon="0.9338">
        <ele>1335.9</ele>
        <time>2019-01-31T02:59:08Z</time>
      </trkpt>
      <trkpt lat="42.02987" lon="0.9338">
        <ele>1340.8</ele>
        <time>2019-01-31T02:59:13Z</time>
      </trkpt>
      <trkpt lat="42.02989" lon="0.93391">
        <ele>1343.6</ele>
        <time>2019-01-31T02:59:18Z</time>
      </trkpt>
      <trkpt lat="42.02983" lon="0.93397">
        <ele>1347.5</ele>
        <time>2019-01-31T02:59:22Z</time>
      </trkpt>
      <trkpt lat="42.02974" lon="0.93392">
        <ele>1353.2</ele>
        <time>2019-01-31T02:59:28Z</time>
      </trkpt>
      <trkpt lat="42.02967" lon="0.93398">
        <ele>1359</ele>
        <time>2019-01-31T02:59:32Z</time>
      </trkpt>
      <trkpt lat="42.02967" lon="0.93409">
        <ele>1361.9</ele>
        <time>2019-01-31T02:59:37Z</time>
      </trkpt>
      <trkpt lat="42.02964" lon="0.93421">
        <ele>1363.8</ele>
        <time>2019-01-31T02:59:42Z</time>
      </trkpt>
      <trkpt lat="42.02957" lon="0.93419">
        <ele>1367.7</ele>
        <time>2019-01-31T02:59:46Z</time>
      </trkpt>
      <trkpt lat="42.02952" lon="0.93407">
        <ele>1370.6</ele>
        <time>2019-01-31T02:59:52Z</time>
      </trkpt>
      <trkpt lat="42.02947" lon="0.93407">
        <ele>1373</ele>
        <time>2019-01-31T02:59:55Z</time>
      </trkpt>
      <trkpt lat="42.02945" lon="0.93412">
        <ele>1376.3</ele>
        <time>2019-01-31T02:59:57Z</time>
      </trkpt>
      <trkpt lat="42.02943" lon="0.93424">
        <ele>1378.7</ele>
        <time>2019-01-31T03:00:02Z</time>
      </trkpt>
      <trkpt lat="42.02936" lon="0.93417">
        <ele>1382.1</ele>
        <time>2019-01-31T03:00:08Z</time>
      </trkpt>
      <trkpt lat="42.02931" lon="0.93418">
        <ele>1386</ele>
        <time>2019-01-31T03:00:11Z</time>
      </trkpt>
      <trkpt lat="42.02931" lon="0.93424">
        <ele>1388.8</ele>
        <time>2019-01-31T03:00:13Z</time>
      </trkpt>
      <trkpt lat="42.02925" lon="0.9343">
        <ele>1392.6</ele>
        <time>2019-01-31T03:00:17Z</time>
      </trkpt>
      <trkpt lat="42.0292" lon="0.93427">
        <ele>1395</ele>
        <time>2019-01-31T03:00:21Z</time>
      </trkpt>
      <trkpt lat="42.02912" lon="0.93421">
        <ele>1397.4</ele>
        <time>2019-01-31T03:00:26Z</time>
      </trkpt>
      <trkpt lat="42.02914" lon="0.93429">
        <ele>1400.9</ele>
        <time>2019-01-31T03:00:29Z</time>
      </trkpt>
      <trkpt lat="42.02914" lon="0.93442">
        <ele>1402.7</ele>
        <time>2019-01-31T03:00:35Z</time>
      </trkpt>
      <trkpt lat="42.02906" lon="0.93442">
        <ele>1406.2</ele>
        <time>2019-01-31T03:00:39Z</time>
      </trkpt>
      <trkpt lat="42.02905" lon="0.93441">
        <ele>1409.1</ele>
        <time>2019-01-31T03:00:40Z</time>
      </trkpt>
      <trkpt lat="42.02903" lon="0.93453">
        <ele>1410.9</ele>
        <time>2019-01-31T03:00:45Z</time>
      </trkpt>
      <trkpt lat="42.02889" lon="0.93438">
        <ele>1418.1</ele>
        <time>2019-01-31T03:00:55Z</time>
      </trkpt>
      <trkpt lat="42.02889" lon="0.93437">
        <ele>1418.2</ele>
        <time>2019-01-31T03:00:56Z</time>
      </trkpt>
      <trkpt lat="42.02889" lon="0.93448">
        <ele>1419.5</ele>
        <time>2019-01-31T03:01:00Z</time>
      </trkpt>
      <trkpt lat="42.02881" lon="0.93448">
        <ele>1422.9</ele>
        <time>2019-01-31T03:01:05Z</time>
      </trkpt>
      <trkpt lat="42.02871" lon="0.93441">
        <ele>1425.4</ele>
        <time>2019-01-31T03:01:11Z</time>
      </trkpt>
      <trkpt lat="42.02868" lon="0.93443">
        <ele>1429.6</ele>
        <time>2019-01-31T03:01:13Z</time>
      </trkpt>
      <trkpt lat="42.0287" lon="0.93459">
        <ele>1432.6</ele>
        <time>2019-01-31T03:01:20Z</time>
      </trkpt>
      <trkpt lat="42.02866" lon="0.93478">
        <ele>1435</ele>
        <time>2019-01-31T03:01:28Z</time>
      </trkpt>
      <trkpt lat="42.02861" lon="0.93501">
        <ele>1438.9</ele>
        <time>2019-01-31T03:01:39Z</time>
      </trkpt>
      <trkpt lat="42.02851" lon="0.93518">
        <ele>1442.7</ele>
        <time>2019-01-31T03:01:48Z</time>
      </trkpt>
      <trkpt lat="42.02836" lon="0.93517">
        <ele>1444.1</ele>
        <time>2019-01-31T03:01:57Z</time>
      </trkpt>
      <trkpt lat="42.02821" lon="0.93512">
        <ele>1444.1</ele>
        <time>2019-01-31T03:02:05Z</time>
      </trkpt>
      <trkpt lat="42.02808" lon="0.935">
        <ele>1446.1</ele>
        <time>2019-01-31T03:02:14Z</time>
      </trkpt>
      <trkpt lat="42.02801" lon="0.9349">
        <ele>1447.9</ele>
        <time>2019-01-31T03:02:20Z</time>
      </trkpt>
      <trkpt lat="42.02796" lon="0.93477">
        <ele>1450.3</ele>
        <time>2019-01-31T03:02:26Z</time>
      </trkpt>
      <trkpt lat="42.0279" lon="0.93465">
        <ele>1450.9</ele>
        <time>2019-01-31T03:02:32Z</time>
      </trkpt>
      <trkpt lat="42.02783" lon="0.9345">
        <ele>1452.3</ele>
        <time>2019-01-31T03:02:40Z</time>
      </trkpt>
      <trkpt lat="42.02777" lon="0.93442">
        <ele>1454.1</ele>
        <time>2019-01-31T03:02:45Z</time>
      </trkpt>
      <trkpt lat="42.02769" lon="0.93435">
        <ele>1456.2</ele>
        <time>2019-01-31T03:02:50Z</time>
      </trkpt>
      <trkpt lat="42.02762" lon="0.93427">
        <ele>1459</ele>
        <time>2019-01-31T03:02:55Z</time>
      </trkpt>
      <trkpt lat="42.0276" lon="0.93411">
        <ele>1459.5</ele>
        <time>2019-01-31T03:03:02Z</time>
      </trkpt>
      <trkpt lat="42.02759" lon="0.93397">
        <ele>1458.9</ele>
        <time>2019-01-31T03:03:08Z</time>
      </trkpt>
      <trkpt lat="42.02756" lon="0.93382">
        <ele>1458.9</ele>
        <time>2019-01-31T03:03:15Z</time>
      </trkpt>
      <trkpt lat="42.0275" lon="0.93368">
        <ele>1460.9</ele>
        <time>2019-01-31T03:03:21Z</time>
      </trkpt>
      <trkpt lat="42.02744" lon="0.9336">
        <ele>1462.8</ele>
        <time>2019-01-31T03:03:26Z</time>
      </trkpt>
      <trkpt lat="42.02738" lon="0.93349">
        <ele>1463.3</ele>
        <time>2019-01-31T03:03:32Z</time>
      </trkpt>
      <trkpt lat="42.02731" lon="0.93339">
        <ele>1463.8</ele>
        <time>2019-01-31T03:03:38Z</time>
      </trkpt>
      <trkpt lat="42.02728" lon="0.93313">
        <ele>1466.6</ele>
        <time>2019-01-31T03:03:49Z</time>
      </trkpt>
      <trkpt lat="42.02722" lon="0.933">
        <ele>1469.5</ele>
        <time>2019-01-31T03:03:56Z</time>
      </trkpt>
      <trkpt lat="42.0272" lon="0.93281">
        <ele>1469.5</ele>
        <time>2019-01-31T03:04:04Z</time>
      </trkpt>
      <trkpt lat="42.02719" lon="0.93264">
        <ele>1469.6</ele>
        <time>2019-01-31T03:04:11Z</time>
      </trkpt>
      <trkpt lat="42.02717" lon="0.93248">
        <ele>1469.6</ele>
        <time>2019-01-31T03:04:18Z</time>
      </trkpt>
      <trkpt lat="42.02714" lon="0.93233">
        <ele>1470.1</ele>
        <time>2019-01-31T03:04:25Z</time>
      </trkpt>
      <trkpt lat="42.02712" lon="0.93217">
        <ele>1471.1</ele>
        <time>2019-01-31T03:04:31Z</time>
      </trkpt>
      <trkpt lat="42.0271" lon="0.93202">
        <ele>1472</ele>
        <time>2019-01-31T03:04:38Z</time>
      </trkpt>
      <trkpt lat="42.02706" lon="0.93188">
        <ele>1472.4</ele>
        <time>2019-01-31T03:04:44Z</time>
      </trkpt>
      <trkpt lat="42.02704" lon="0.93175">
        <ele>1472.4</ele>
        <time>2019-01-31T03:04:50Z</time>
      </trkpt>
      <trkpt lat="42.02702" lon="0.93162">
        <ele>1472.4</ele>
        <time>2019-01-31T03:04:56Z</time>
      </trkpt>
      <trkpt lat="42.02701" lon="0.93148">
        <ele>1469.5</ele>
        <time>2019-01-31T03:05:01Z</time>
      </trkpt>
      <trkpt lat="42.02699" lon="0.93135">
        <ele>1467.7</ele>
        <time>2019-01-31T03:05:07Z</time>
      </trkpt>
      <trkpt lat="42.02695" lon="0.93122">
        <ele>1467.6</ele>
        <time>2019-01-31T03:05:13Z</time>
      </trkpt>
      <trkpt lat="42.02687" lon="0.93112">
        <ele>1467.1</ele>
        <time>2019-01-31T03:05:19Z</time>
      </trkpt>
      <trkpt lat="42.0268" lon="0.93101">
        <ele>1468.6</ele>
        <time>2019-01-31T03:05:25Z</time>
      </trkpt>
      <trkpt lat="42.02673" lon="0.9309">
        <ele>1469.5</ele>
        <time>2019-01-31T03:05:32Z</time>
      </trkpt>
      <trkpt lat="42.02664" lon="0.93082">
        <ele>1471.1</ele>
        <time>2019-01-31T03:05:38Z</time>
      </trkpt>
      <trkpt lat="42.02658" lon="0.93071">
        <ele>1471.9</ele>
        <time>2019-01-31T03:05:43Z</time>
      </trkpt>
      <trkpt lat="42.02652" lon="0.93058">
        <ele>1472.4</ele>
        <time>2019-01-31T03:05:50Z</time>
      </trkpt>
      <trkpt lat="42.02644" lon="0.93047">
        <ele>1472.4</ele>
        <time>2019-01-31T03:05:57Z</time>
      </trkpt>
      <trkpt lat="42.02637" lon="0.93036">
        <ele>1472.9</ele>
        <time>2019-01-31T03:06:03Z</time>
      </trkpt>
      <trkpt lat="42.0263" lon="0.93028">
        <ele>1472.9</ele>
        <time>2019-01-31T03:06:08Z</time>
      </trkpt>
      <trkpt lat="42.02622" lon="0.93019">
        <ele>1473.8</ele>
        <time>2019-01-31T03:06:14Z</time>
      </trkpt>
      <trkpt lat="42.02613" lon="0.93011">
        <ele>1474.4</ele>
        <time>2019-01-31T03:06:20Z</time>
      </trkpt>
      <trkpt lat="42.02604" lon="0.93006">
        <ele>1474.9</ele>
        <time>2019-01-31T03:06:26Z</time>
      </trkpt>
      <trkpt lat="42.02595" lon="0.93001">
        <ele>1475.4</ele>
        <time>2019-01-31T03:06:31Z</time>
      </trkpt>
      <trkpt lat="42.02586" lon="0.92993">
        <ele>1475.4</ele>
        <time>2019-01-31T03:06:37Z</time>
      </trkpt>
      <trkpt lat="42.02579" lon="0.92986">
        <ele>1473</ele>
        <time>2019-01-31T03:06:42Z</time>
      </trkpt>
      <trkpt lat="42.02576" lon="0.92974">
        <ele>1472.4</ele>
        <time>2019-01-31T03:06:48Z</time>
      </trkpt>
      <trkpt lat="42.02572" lon="0.9296">
        <ele>1474.3</ele>
        <time>2019-01-31T03:06:54Z</time>
      </trkpt>
      <trkpt lat="42.02567" lon="0.92947">
        <ele>1475.3</ele>
        <time>2019-01-31T03:07:00Z</time>
      </trkpt>
      <trkpt lat="42.02561" lon="0.92935">
        <ele>1475.4</ele>
        <time>2019-01-31T03:07:06Z</time>
      </trkpt>
      <trkpt lat="42.02555" lon="0.92925">
        <ele>1475.9</ele>
        <time>2019-01-31T03:07:12Z</time>
      </trkpt>
      <trkpt lat="42.02548" lon="0.92915">
        <ele>1473.5</ele>
        <time>2019-01-31T03:07:18Z</time>
      </trkpt>
      <trkpt lat="42.02541" lon="0.92905">
        <ele>1470.5</ele>
        <time>2019-01-31T03:07:24Z</time>
      </trkpt>
      <trkpt lat="42.02543" lon="0.92888">
        <ele>1466.3</ele>
        <time>2019-01-31T03:07:31Z</time>
      </trkpt>
      <trkpt lat="42.02552" lon="0.92875">
        <ele>1467.6</ele>
        <time>2019-01-31T03:07:38Z</time>
      </trkpt>
      <trkpt lat="42.0256" lon="0.92865">
        <ele>1467.7</ele>
        <time>2019-01-31T03:07:45Z</time>
      </trkpt>
      <trkpt lat="42.02569" lon="0.92856">
        <ele>1468.1</ele>
        <time>2019-01-31T03:07:51Z</time>
      </trkpt>
      <trkpt lat="42.02573" lon="0.92844">
        <ele>1469.6</ele>
        <time>2019-01-31T03:07:57Z</time>
      </trkpt>
      <trkpt lat="42.0258" lon="0.92833">
        <ele>1471.4</ele>
        <time>2019-01-31T03:08:03Z</time>
      </trkpt>
      <trkpt lat="42.02585" lon="0.92821">
        <ele>1472.9</ele>
        <time>2019-01-31T03:08:09Z</time>
      </trkpt>
      <trkpt lat="42.02588" lon="0.92808">
        <ele>1475.3</ele>
        <time>2019-01-31T03:08:14Z</time>
      </trkpt>
      <trkpt lat="42.0259" lon="0.92791">
        <ele>1477.7</ele>
        <time>2019-01-31T03:08:22Z</time>
      </trkpt>
      <trkpt lat="42.02594" lon="0.92774">
        <ele>1475.9</ele>
        <time>2019-01-31T03:08:29Z</time>
      </trkpt>
      <trkpt lat="42.02594" lon="0.9276">
        <ele>1474.8</ele>
        <time>2019-01-31T03:08:35Z</time>
      </trkpt>
      <trkpt lat="42.02597" lon="0.92745">
        <ele>1473.9</ele>
        <time>2019-01-31T03:08:42Z</time>
      </trkpt>
      <trkpt lat="42.026" lon="0.92731">
        <ele>1472.4</ele>
        <time>2019-01-31T03:08:48Z</time>
      </trkpt>
      <trkpt lat="42.02601" lon="0.92717">
        <ele>1471.1</ele>
        <time>2019-01-31T03:08:54Z</time>
      </trkpt>
      <trkpt lat="42.02599" lon="0.92703">
        <ele>1471.9</ele>
        <time>2019-01-31T03:09:00Z</time>
      </trkpt>
      <trkpt lat="42.02598" lon="0.92687">
        <ele>1472</ele>
        <time>2019-01-31T03:09:07Z</time>
      </trkpt>
      <trkpt lat="42.02596" lon="0.92673">
        <ele>1471.9</ele>
        <time>2019-01-31T03:09:13Z</time>
      </trkpt>
      <trkpt lat="42.02592" lon="0.9266">
        <ele>1473.8</ele>
        <time>2019-01-31T03:09:19Z</time>
      </trkpt>
      <trkpt lat="42.02588" lon="0.92647">
        <ele>1475.8</ele>
        <time>2019-01-31T03:09:25Z</time>
      </trkpt>
      <trkpt lat="42.02589" lon="0.92632">
        <ele>1475.3</ele>
        <time>2019-01-31T03:09:31Z</time>
      </trkpt>
      <trkpt lat="42.0259" lon="0.92614">
        <ele>1476.3</ele>
        <time>2019-01-31T03:09:39Z</time>
      </trkpt>
      <trkpt lat="42.02592" lon="0.92598">
        <ele>1476.7</ele>
        <time>2019-01-31T03:09:46Z</time>
      </trkpt>
      <trkpt lat="42.02593" lon="0.92582">
        <ele>1475.9</ele>
        <time>2019-01-31T03:09:52Z</time>
      </trkpt>
      <trkpt lat="42.02592" lon="0.92566">
        <ele>1475.8</ele>
        <time>2019-01-31T03:09:59Z</time>
      </trkpt>
      <trkpt lat="42.02593" lon="0.9255">
        <ele>1475.9</ele>
        <time>2019-01-31T03:10:06Z</time>
      </trkpt>
      <trkpt lat="42.0259" lon="0.92537">
        <ele>1475.8</ele>
        <time>2019-01-31T03:10:12Z</time>
      </trkpt>
      <trkpt lat="42.0259" lon="0.9252">
        <ele>1475.9</ele>
        <time>2019-01-31T03:10:19Z</time>
      </trkpt>
      <trkpt lat="42.02582" lon="0.9251">
        <ele>1477.2</ele>
        <time>2019-01-31T03:10:25Z</time>
      </trkpt>
      <trkpt lat="42.02576" lon="0.92497">
        <ele>1479.1</ele>
        <time>2019-01-31T03:10:32Z</time>
      </trkpt>
      <trkpt lat="42.0257" lon="0.92486">
        <ele>1480.1</ele>
        <time>2019-01-31T03:10:37Z</time>
      </trkpt>
      <trkpt lat="42.02564" lon="0.92477">
        <ele>1481.6</ele>
        <time>2019-01-31T03:10:43Z</time>
      </trkpt>
      <trkpt lat="42.02557" lon="0.92464">
        <ele>1483</ele>
        <time>2019-01-31T03:10:50Z</time>
      </trkpt>
      <trkpt lat="42.02551" lon="0.92451">
        <ele>1484.9</ele>
        <time>2019-01-31T03:10:56Z</time>
      </trkpt>
      <trkpt lat="42.02545" lon="0.92439">
        <ele>1486</ele>
        <time>2019-01-31T03:11:02Z</time>
      </trkpt>
      <trkpt lat="42.02547" lon="0.92426">
        <ele>1484</ele>
        <time>2019-01-31T03:11:08Z</time>
      </trkpt>
      <trkpt lat="42.02554" lon="0.92417">
        <ele>1481.6</ele>
        <time>2019-01-31T03:11:13Z</time>
      </trkpt>
      <trkpt lat="42.02562" lon="0.92411">
        <ele>1477.8</ele>
        <time>2019-01-31T03:11:18Z</time>
      </trkpt>
      <trkpt lat="42.02569" lon="0.92404">
        <ele>1475.8</ele>
        <time>2019-01-31T03:11:23Z</time>
      </trkpt>
      <trkpt lat="42.02576" lon="0.92394">
        <ele>1470</ele>
        <time>2019-01-31T03:11:29Z</time>
      </trkpt>
      <trkpt lat="42.02583" lon="0.92386">
        <ele>1468.1</ele>
        <time>2019-01-31T03:11:35Z</time>
      </trkpt>
      <trkpt lat="42.02585" lon="0.92374">
        <ele>1464.7</ele>
        <time>2019-01-31T03:11:40Z</time>
      </trkpt>
      <trkpt lat="42.02596" lon="0.92359">
        <ele>1458.9</ele>
        <time>2019-01-31T03:11:49Z</time>
      </trkpt>
      <trkpt lat="42.02595" lon="0.92343">
        <ele>1457.5</ele>
        <time>2019-01-31T03:11:56Z</time>
      </trkpt>
      <trkpt lat="42.02595" lon="0.92329">
        <ele>1455.2</ele>
        <time>2019-01-31T03:12:02Z</time>
      </trkpt>
      <trkpt lat="42.02595" lon="0.92316">
        <ele>1454.6</ele>
        <time>2019-01-31T03:12:07Z</time>
      </trkpt>
      <trkpt lat="42.02593" lon="0.92301">
        <ele>1453.3</ele>
        <time>2019-01-31T03:12:14Z</time>
      </trkpt>
      <trkpt lat="42.02591" lon="0.92287">
        <ele>1451.4</ele>
        <time>2019-01-31T03:12:20Z</time>
      </trkpt>
      <trkpt lat="42.02588" lon="0.92272">
        <ele>1450.9</ele>
        <time>2019-01-31T03:12:27Z</time>
      </trkpt>
      <trkpt lat="42.02584" lon="0.92257">
        <ele>1449.8</ele>
        <time>2019-01-31T03:12:33Z</time>
      </trkpt>
      <trkpt lat="42.0258" lon="0.92244">
        <ele>1450.3</ele>
        <time>2019-01-31T03:12:39Z</time>
      </trkpt>
      <trkpt lat="42.02577" lon="0.92231">
        <ele>1449.8</ele>
        <time>2019-01-31T03:12:45Z</time>
      </trkpt>
      <trkpt lat="42.02573" lon="0.92219">
        <ele>1449.9</ele>
        <time>2019-01-31T03:12:51Z</time>
      </trkpt>
      <trkpt lat="42.02569" lon="0.92205">
        <ele>1449.8</ele>
        <time>2019-01-31T03:12:57Z</time>
      </trkpt>
      <trkpt lat="42.02563" lon="0.92194">
        <ele>1449.9</ele>
        <time>2019-01-31T03:13:03Z</time>
      </trkpt>
      <trkpt lat="42.02555" lon="0.92187">
        <ele>1449.8</ele>
        <time>2019-01-31T03:13:08Z</time>
      </trkpt>
      <trkpt lat="42.02546" lon="0.92181">
        <ele>1449.9</ele>
        <time>2019-01-31T03:13:14Z</time>
      </trkpt>
      <trkpt lat="42.0254" lon="0.92171">
        <ele>1448.4</ele>
        <time>2019-01-31T03:13:19Z</time>
      </trkpt>
      <trkpt lat="42.02541" lon="0.92155">
        <ele>1448</ele>
        <time>2019-01-31T03:13:26Z</time>
      </trkpt>
      <trkpt lat="42.02541" lon="0.92141">
        <ele>1448.9</ele>
        <time>2019-01-31T03:13:32Z</time>
      </trkpt>
      <trkpt lat="42.02539" lon="0.92128">
        <ele>1447.4</ele>
        <time>2019-01-31T03:13:38Z</time>
      </trkpt>
      <trkpt lat="42.02535" lon="0.92115">
        <ele>1447.4</ele>
        <time>2019-01-31T03:13:43Z</time>
      </trkpt>
      <trkpt lat="42.02532" lon="0.92103">
        <ele>1447.4</ele>
        <time>2019-01-31T03:13:49Z</time>
      </trkpt>
      <trkpt lat="42.02527" lon="0.92092">
        <ele>1447.5</ele>
        <time>2019-01-31T03:13:54Z</time>
      </trkpt>
      <trkpt lat="42.0252" lon="0.92081">
        <ele>1446.9</ele>
        <time>2019-01-31T03:14:01Z</time>
      </trkpt>
      <trkpt lat="42.02515" lon="0.92069">
        <ele>1448.5</ele>
        <time>2019-01-31T03:14:06Z</time>
      </trkpt>
      <trkpt lat="42.02509" lon="0.92058">
        <ele>1448.5</ele>
        <time>2019-01-31T03:14:12Z</time>
      </trkpt>
      <trkpt lat="42.02505" lon="0.92047">
        <ele>1446.9</ele>
        <time>2019-01-31T03:14:17Z</time>
      </trkpt>
      <trkpt lat="42.02498" lon="0.92038">
        <ele>1446.5</ele>
        <time>2019-01-31T03:14:23Z</time>
      </trkpt>
      <trkpt lat="42.02495" lon="0.92027">
        <ele>1446.4</ele>
        <time>2019-01-31T03:14:28Z</time>
      </trkpt>
      <trkpt lat="42.02488" lon="0.92017">
        <ele>1446.4</ele>
        <time>2019-01-31T03:14:34Z</time>
      </trkpt>
      <trkpt lat="42.02481" lon="0.92004">
        <ele>1446</ele>
        <time>2019-01-31T03:14:40Z</time>
      </trkpt>
      <trkpt lat="42.02475" lon="0.91994">
        <ele>1445.5</ele>
        <time>2019-01-31T03:14:46Z</time>
      </trkpt>
      <trkpt lat="42.02469" lon="0.91982">
        <ele>1444</ele>
        <time>2019-01-31T03:14:52Z</time>
      </trkpt>
      <trkpt lat="42.02465" lon="0.9197">
        <ele>1444.1</ele>
        <time>2019-01-31T03:14:58Z</time>
      </trkpt>
      <trkpt lat="42.02459" lon="0.9196">
        <ele>1443.1</ele>
        <time>2019-01-31T03:15:03Z</time>
      </trkpt>
      <trkpt lat="42.02451" lon="0.91951">
        <ele>1443.2</ele>
        <time>2019-01-31T03:15:09Z</time>
      </trkpt>
      <trkpt lat="42.02445" lon="0.9194">
        <ele>1443.2</ele>
        <time>2019-01-31T03:15:15Z</time>
      </trkpt>
      <trkpt lat="42.0244" lon="0.91929">
        <ele>1442.2</ele>
        <time>2019-01-31T03:15:20Z</time>
      </trkpt>
      <trkpt lat="42.02435" lon="0.91918">
        <ele>1441.6</ele>
        <time>2019-01-31T03:15:26Z</time>
      </trkpt>
      <trkpt lat="42.02427" lon="0.91907">
        <ele>1439.2</ele>
        <time>2019-01-31T03:15:32Z</time>
      </trkpt>
      <trkpt lat="42.02422" lon="0.91896">
        <ele>1438.9</ele>
        <time>2019-01-31T03:15:38Z</time>
      </trkpt>
      <trkpt lat="42.02423" lon="0.91883">
        <ele>1437.8</ele>
        <time>2019-01-31T03:15:43Z</time>
      </trkpt>
      <trkpt lat="42.0242" lon="0.91867">
        <ele>1437.3</ele>
        <time>2019-01-31T03:15:50Z</time>
      </trkpt>
      <trkpt lat="42.02416" lon="0.91854">
        <ele>1436.8</ele>
        <time>2019-01-31T03:15:56Z</time>
      </trkpt>
      <trkpt lat="42.02413" lon="0.9184">
        <ele>1436.9</ele>
        <time>2019-01-31T03:16:02Z</time>
      </trkpt>
      <trkpt lat="42.02411" lon="0.91826">
        <ele>1436.9</ele>
        <time>2019-01-31T03:16:08Z</time>
      </trkpt>
      <trkpt lat="42.02412" lon="0.91812">
        <ele>1435.9</ele>
        <time>2019-01-31T03:16:14Z</time>
      </trkpt>
      <trkpt lat="42.02414" lon="0.91798">
        <ele>1436</ele>
        <time>2019-01-31T03:16:20Z</time>
      </trkpt>
      <trkpt lat="42.02419" lon="0.91783">
        <ele>1436</ele>
        <time>2019-01-31T03:16:27Z</time>
      </trkpt>
      <trkpt lat="42.02426" lon="0.9177">
        <ele>1436</ele>
        <time>2019-01-31T03:16:34Z</time>
      </trkpt>
      <trkpt lat="42.02432" lon="0.91759">
        <ele>1436.9</ele>
        <time>2019-01-31T03:16:40Z</time>
      </trkpt>
      <trkpt lat="42.02439" lon="0.91749">
        <ele>1436.9</ele>
        <time>2019-01-31T03:16:46Z</time>
      </trkpt>
      <trkpt lat="42.02445" lon="0.91737">
        <ele>1436.9</ele>
        <time>2019-01-31T03:16:52Z</time>
      </trkpt>
      <trkpt lat="42.02453" lon="0.91728">
        <ele>1434.9</ele>
        <time>2019-01-31T03:16:58Z</time>
      </trkpt>
      <trkpt lat="42.02459" lon="0.91718">
        <ele>1434.4</ele>
        <time>2019-01-31T03:17:03Z</time>
      </trkpt>
      <trkpt lat="42.02468" lon="0.9171">
        <ele>1433.9</ele>
        <time>2019-01-31T03:17:09Z</time>
      </trkpt>
      <trkpt lat="42.02476" lon="0.91704">
        <ele>1433.6</ele>
        <time>2019-01-31T03:17:15Z</time>
      </trkpt>
      <trkpt lat="42.02482" lon="0.91694">
        <ele>1434.9</ele>
        <time>2019-01-31T03:17:20Z</time>
      </trkpt>
      <trkpt lat="42.02491" lon="0.91688">
        <ele>1434.9</ele>
        <time>2019-01-31T03:17:26Z</time>
      </trkpt>
      <trkpt lat="42.025" lon="0.9168">
        <ele>1430.7</ele>
        <time>2019-01-31T03:17:32Z</time>
      </trkpt>
      <trkpt lat="42.02507" lon="0.91668">
        <ele>1430.1</ele>
        <time>2019-01-31T03:17:39Z</time>
      </trkpt>
      <trkpt lat="42.02513" lon="0.91659">
        <ele>1429.7</ele>
        <time>2019-01-31T03:17:44Z</time>
      </trkpt>
      <trkpt lat="42.02518" lon="0.91649">
        <ele>1428.2</ele>
        <time>2019-01-31T03:17:49Z</time>
      </trkpt>
      <trkpt lat="42.02526" lon="0.91641">
        <ele>1426.8</ele>
        <time>2019-01-31T03:17:55Z</time>
      </trkpt>
      <trkpt lat="42.02535" lon="0.91636">
        <ele>1423.9</ele>
        <time>2019-01-31T03:18:00Z</time>
      </trkpt>
      <trkpt lat="42.02544" lon="0.91629">
        <ele>1421.9</ele>
        <time>2019-01-31T03:18:06Z</time>
      </trkpt>
      <trkpt lat="42.02553" lon="0.91623">
        <ele>1419.6</ele>
        <time>2019-01-31T03:18:12Z</time>
      </trkpt>
      <trkpt lat="42.02561" lon="0.91616">
        <ele>1418.2</ele>
        <time>2019-01-31T03:18:17Z</time>
      </trkpt>
      <trkpt lat="42.02563" lon="0.91607">
        <ele>1418.2</ele>
        <time>2019-01-31T03:18:21Z</time>
      </trkpt>
      <trkpt lat="42.02556" lon="0.91602">
        <ele>1417.6</ele>
        <time>2019-01-31T03:18:26Z</time>
      </trkpt>
      <trkpt lat="42.02549" lon="0.91598">
        <ele>1414.8</ele>
        <time>2019-01-31T03:18:30Z</time>
      </trkpt>
      <trkpt lat="42.02549" lon="0.91587">
        <ele>1412.3</ele>
        <time>2019-01-31T03:18:35Z</time>
      </trkpt>
      <trkpt lat="42.02551" lon="0.91573">
        <ele>1410</ele>
        <time>2019-01-31T03:18:41Z</time>
      </trkpt>
      <trkpt lat="42.02554" lon="0.91561">
        <ele>1408.1</ele>
        <time>2019-01-31T03:18:46Z</time>
      </trkpt>
      <trkpt lat="42.02552" lon="0.91549">
        <ele>1406.6</ele>
        <time>2019-01-31T03:18:52Z</time>
      </trkpt>
      <trkpt lat="42.02551" lon="0.91537">
        <ele>1406.1</ele>
        <time>2019-01-31T03:18:57Z</time>
      </trkpt>
      <trkpt lat="42.02544" lon="0.91531">
        <ele>1402.2</ele>
        <time>2019-01-31T03:19:01Z</time>
      </trkpt>
      <trkpt lat="42.02541" lon="0.91543">
        <ele>1400.3</ele>
        <time>2019-01-31T03:19:07Z</time>
      </trkpt>
      <trkpt lat="42.02539" lon="0.91558">
        <ele>1399.4</ele>
        <time>2019-01-31T03:19:13Z</time>
      </trkpt>
      <trkpt lat="42.0253" lon="0.91568">
        <ele>1393.1</ele>
        <time>2019-01-31T03:19:20Z</time>
      </trkpt>
      <trkpt lat="42.0253" lon="0.91559">
        <ele>1389.7</ele>
        <time>2019-01-31T03:19:24Z</time>
      </trkpt>
      <trkpt lat="42.02518" lon="0.91565">
        <ele>1385</ele>
        <time>2019-01-31T03:19:31Z</time>
      </trkpt>
      <trkpt lat="42.02508" lon="0.91562">
        <ele>1377.8</ele>
        <time>2019-01-31T03:19:37Z</time>
      </trkpt>
      <trkpt lat="42.02507" lon="0.9155">
        <ele>1374.4</ele>
        <time>2019-01-31T03:19:42Z</time>
      </trkpt>
      <trkpt lat="42.02495" lon="0.91556">
        <ele>1368.1</ele>
        <time>2019-01-31T03:19:50Z</time>
      </trkpt>
      <trkpt lat="42.0249" lon="0.91548">
        <ele>1362.4</ele>
        <time>2019-01-31T03:19:54Z</time>
      </trkpt>
      <trkpt lat="42.02479" lon="0.91546">
        <ele>1353.7</ele>
        <time>2019-01-31T03:20:00Z</time>
      </trkpt>
      <trkpt lat="42.0248" lon="0.9153">
        <ele>1350.8</ele>
        <time>2019-01-31T03:20:07Z</time>
      </trkpt>
      <trkpt lat="42.02485" lon="0.91519">
        <ele>1349</ele>
        <time>2019-01-31T03:20:13Z</time>
      </trkpt>
      <trkpt lat="42.02489" lon="0.91508">
        <ele>1346</ele>
        <time>2019-01-31T03:20:18Z</time>
      </trkpt>
      <trkpt lat="42.02493" lon="0.91495">
        <ele>1344.5</ele>
        <time>2019-01-31T03:20:24Z</time>
      </trkpt>
      <trkpt lat="42.02497" lon="0.91484">
        <ele>1341.3</ele>
        <time>2019-01-31T03:20:29Z</time>
      </trkpt>
      <trkpt lat="42.02486" lon="0.91489">
        <ele>1332.6</ele>
        <time>2019-01-31T03:20:36Z</time>
      </trkpt>
      <trkpt lat="42.02478" lon="0.91481">
        <ele>1328.8</ele>
        <time>2019-01-31T03:20:42Z</time>
      </trkpt>
      <trkpt lat="42.02474" lon="0.91469">
        <ele>1324.9</ele>
        <time>2019-01-31T03:20:47Z</time>
      </trkpt>
      <trkpt lat="42.02465" lon="0.91476">
        <ele>1320.5</ele>
        <time>2019-01-31T03:20:53Z</time>
      </trkpt>
      <trkpt lat="42.02458" lon="0.91484">
        <ele>1317.2</ele>
        <time>2019-01-31T03:20:59Z</time>
      </trkpt>
      <trkpt lat="42.02447" lon="0.91489">
        <ele>1314.7</ele>
        <time>2019-01-31T03:21:05Z</time>
      </trkpt>
      <trkpt lat="42.02437" lon="0.91494">
        <ele>1311.4</ele>
        <time>2019-01-31T03:21:11Z</time>
      </trkpt>
      <trkpt lat="42.02426" lon="0.91504">
        <ele>1308.6</ele>
        <time>2019-01-31T03:21:19Z</time>
      </trkpt>
      <trkpt lat="42.02411" lon="0.91514">
        <ele>1304.7</ele>
        <time>2019-01-31T03:21:28Z</time>
      </trkpt>
      <trkpt lat="42.02396" lon="0.9152">
        <ele>1302.7</ele>
        <time>2019-01-31T03:21:37Z</time>
      </trkpt>
      <trkpt lat="42.02379" lon="0.91527">
        <ele>1300.8</ele>
        <time>2019-01-31T03:21:47Z</time>
      </trkpt>
      <trkpt lat="42.02367" lon="0.9153">
        <ele>1299</ele>
        <time>2019-01-31T03:21:54Z</time>
      </trkpt>
      <trkpt lat="42.02355" lon="0.91534">
        <ele>1296.5</ele>
        <time>2019-01-31T03:22:01Z</time>
      </trkpt>
      <trkpt lat="42.02345" lon="0.9154">
        <ele>1293.7</ele>
        <time>2019-01-31T03:22:08Z</time>
      </trkpt>
      <trkpt lat="42.02332" lon="0.91547">
        <ele>1291.8</ele>
        <time>2019-01-31T03:22:16Z</time>
      </trkpt>
      <trkpt lat="42.02321" lon="0.9155">
        <ele>1291.3</ele>
        <time>2019-01-31T03:22:22Z</time>
      </trkpt>
      <trkpt lat="42.02309" lon="0.9155">
        <ele>1287.8</ele>
        <time>2019-01-31T03:22:29Z</time>
      </trkpt>
      <trkpt lat="42.02299" lon="0.91554">
        <ele>1283.5</ele>
        <time>2019-01-31T03:22:35Z</time>
      </trkpt>
      <trkpt lat="42.0229" lon="0.91558">
        <ele>1280.2</ele>
        <time>2019-01-31T03:22:41Z</time>
      </trkpt>
      <trkpt lat="42.0228" lon="0.91561">
        <ele>1275.3</ele>
        <time>2019-01-31T03:22:46Z</time>
      </trkpt>
      <trkpt lat="42.02271" lon="0.9156">
        <ele>1272.4</ele>
        <time>2019-01-31T03:22:52Z</time>
      </trkpt>
      <trkpt lat="42.02259" lon="0.91563">
        <ele>1269.7</ele>
        <time>2019-01-31T03:22:58Z</time>
      </trkpt>
      <trkpt lat="42.02249" lon="0.91559">
        <ele>1269.1</ele>
        <time>2019-01-31T03:23:04Z</time>
      </trkpt>
      <trkpt lat="42.02239" lon="0.91556">
        <ele>1265.8</ele>
        <time>2019-01-31T03:23:10Z</time>
      </trkpt>
      <trkpt lat="42.02231" lon="0.91549">
        <ele>1261</ele>
        <time>2019-01-31T03:23:16Z</time>
      </trkpt>
      <trkpt lat="42.02224" lon="0.91543">
        <ele>1255.7</ele>
        <time>2019-01-31T03:23:21Z</time>
      </trkpt>
      <trkpt lat="42.02214" lon="0.91538">
        <ele>1250</ele>
        <time>2019-01-31T03:23:27Z</time>
      </trkpt>
      <trkpt lat="42.02203" lon="0.91535">
        <ele>1244.6</ele>
        <time>2019-01-31T03:23:33Z</time>
      </trkpt>
      <trkpt lat="42.02194" lon="0.91533">
        <ele>1240.7</ele>
        <time>2019-01-31T03:23:38Z</time>
      </trkpt>
      <trkpt lat="42.02192" lon="0.9152">
        <ele>1236</ele>
        <time>2019-01-31T03:23:44Z</time>
      </trkpt>
      <trkpt lat="42.02193" lon="0.91507">
        <ele>1232.1</ele>
        <time>2019-01-31T03:23:49Z</time>
      </trkpt>
      <trkpt lat="42.02184" lon="0.91505">
        <ele>1227.3</ele>
        <time>2019-01-31T03:23:54Z</time>
      </trkpt>
      <trkpt lat="42.02175" lon="0.91502">
        <ele>1222.6</ele>
        <time>2019-01-31T03:24:00Z</time>
      </trkpt>
      <trkpt lat="42.02172" lon="0.9149">
        <ele>1217.7</ele>
        <time>2019-01-31T03:24:06Z</time>
      </trkpt>
      <trkpt lat="42.02166" lon="0.91482">
        <ele>1213.4</ele>
        <time>2019-01-31T03:24:10Z</time>
      </trkpt>
      <trkpt lat="42.0216" lon="0.91471">
        <ele>1208.1</ele>
        <time>2019-01-31T03:24:16Z</time>
      </trkpt>
      <trkpt lat="42.02154" lon="0.9146">
        <ele>1202.8</ele>
        <time>2019-01-31T03:24:22Z</time>
      </trkpt>
      <trkpt lat="42.02151" lon="0.91445">
        <ele>1197.5</ele>
        <time>2019-01-31T03:24:29Z</time>
      </trkpt>
      <trkpt lat="42.02145" lon="0.91433">
        <ele>1192.7</ele>
        <time>2019-01-31T03:24:35Z</time>
      </trkpt>
      <trkpt lat="42.0214" lon="0.91419">
        <ele>1187.4</ele>
        <time>2019-01-31T03:24:41Z</time>
      </trkpt>
      <trkpt lat="42.02135" lon="0.9141">
        <ele>1182.2</ele>
        <time>2019-01-31T03:24:46Z</time>
      </trkpt>
      <trkpt lat="42.02132" lon="0.91397">
        <ele>1178.8</ele>
        <time>2019-01-31T03:24:52Z</time>
      </trkpt>
      <trkpt lat="42.02131" lon="0.91386">
        <ele>1175</ele>
        <time>2019-01-31T03:24:57Z</time>
      </trkpt>
      <trkpt lat="42.02127" lon="0.91375">
        <ele>1171.1</ele>
        <time>2019-01-31T03:25:02Z</time>
      </trkpt>
      <trkpt lat="42.02127" lon="0.91362">
        <ele>1167.8</ele>
        <time>2019-01-31T03:25:08Z</time>
      </trkpt>
      <trkpt lat="42.0213" lon="0.9135">
        <ele>1166.3</ele>
        <time>2019-01-31T03:25:13Z</time>
      </trkpt>
      <trkpt lat="42.02136" lon="0.9134">
        <ele>1164.4</ele>
        <time>2019-01-31T03:25:18Z</time>
      </trkpt>
      <trkpt lat="42.02133" lon="0.91331">
        <ele>1161</ele>
        <time>2019-01-31T03:25:23Z</time>
      </trkpt>
      <trkpt lat="42.02126" lon="0.91323">
        <ele>1157.2</ele>
        <time>2019-01-31T03:25:28Z</time>
      </trkpt>
      <trkpt lat="42.02123" lon="0.91311">
        <ele>1155.2</ele>
        <time>2019-01-31T03:25:33Z</time>
      </trkpt>
      <trkpt lat="42.02118" lon="0.91301">
        <ele>1153.2</ele>
        <time>2019-01-31T03:25:38Z</time>
      </trkpt>
      <trkpt lat="42.02113" lon="0.91288">
        <ele>1151.8</ele>
        <time>2019-01-31T03:25:44Z</time>
      </trkpt>
      <trkpt lat="42.0211" lon="0.91276">
        <ele>1149.4</ele>
        <time>2019-01-31T03:25:50Z</time>
      </trkpt>
      <trkpt lat="42.02103" lon="0.91266">
        <ele>1149</ele>
        <time>2019-01-31T03:25:56Z</time>
      </trkpt>
      <trkpt lat="42.02095" lon="0.91256">
        <ele>1148.4</ele>
        <time>2019-01-31T03:26:02Z</time>
      </trkpt>
      <trkpt lat="42.02092" lon="0.91243">
        <ele>1148</ele>
        <time>2019-01-31T03:26:08Z</time>
      </trkpt>
      <trkpt lat="42.02087" lon="0.91238">
        <ele>1150.4</ele>
        <time>2019-01-31T03:26:11Z</time>
      </trkpt>
      <trkpt lat="42.02092" lon="0.91239">
        <ele>1148</ele>
        <time>2019-01-31T03:26:14Z</time>
      </trkpt>
      <trkpt lat="42.02097" lon="0.91252">
        <ele>1148</ele>
        <time>2019-01-31T03:26:20Z</time>
      </trkpt>
      <trkpt lat="42.02101" lon="0.91265">
        <ele>1148.1</ele>
        <time>2019-01-31T03:26:26Z</time>
      </trkpt>
      <trkpt lat="42.021" lon="0.91277">
        <ele>1148</ele>
        <time>2019-01-31T03:26:32Z</time>
      </trkpt>
      <trkpt lat="42.02099" lon="0.91292">
        <ele>1148</ele>
        <time>2019-01-31T03:26:38Z</time>
      </trkpt>
      <trkpt lat="42.02099" lon="0.91306">
        <ele>1147.5</ele>
        <time>2019-01-31T03:26:44Z</time>
      </trkpt>
      <trkpt lat="42.02098" lon="0.9132">
        <ele>1146.1</ele>
        <time>2019-01-31T03:26:50Z</time>
      </trkpt>
      <trkpt lat="42.02096" lon="0.91334">
        <ele>1144.6</ele>
        <time>2019-01-31T03:26:56Z</time>
      </trkpt>
      <trkpt lat="42.02096" lon="0.91326">
        <ele>1144.7</ele>
        <time>2019-01-31T03:26:59Z</time>
      </trkpt>
      <trkpt lat="42.02097" lon="0.91314">
        <ele>1146.6</ele>
        <time>2019-01-31T03:27:04Z</time>
      </trkpt>
      <trkpt lat="42.02097" lon="0.91302">
        <ele>1147.5</ele>
        <time>2019-01-31T03:27:09Z</time>
      </trkpt>
      <trkpt lat="42.02096" lon="0.91289">
        <ele>1148</ele>
        <time>2019-01-31T03:27:15Z</time>
      </trkpt>
      <trkpt lat="42.02097" lon="0.91275">
        <ele>1148.5</ele>
        <time>2019-01-31T03:27:21Z</time>
      </trkpt>
      <trkpt lat="42.02093" lon="0.91264">
        <ele>1148.9</ele>
        <time>2019-01-31T03:27:26Z</time>
      </trkpt>
      <trkpt lat="42.02093" lon="0.91248">
        <ele>1148.9</ele>
        <time>2019-01-31T03:27:33Z</time>
      </trkpt>
      <trkpt lat="42.02089" lon="0.91237">
        <ele>1148.9</ele>
        <time>2019-01-31T03:27:38Z</time>
      </trkpt>
      <trkpt lat="42.02088" lon="0.91235">
        <ele>1149.4</ele>
        <time>2019-01-31T03:27:39Z</time>
      </trkpt>
      <trkpt lat="42.02094" lon="0.91242">
        <ele>1147.5</ele>
        <time>2019-01-31T03:27:43Z</time>
      </trkpt>
      <trkpt lat="42.02094" lon="0.91256">
        <ele>1147.6</ele>
        <time>2019-01-31T03:27:49Z</time>
      </trkpt>
      <trkpt lat="42.02098" lon="0.91268">
        <ele>1147.6</ele>
        <time>2019-01-31T03:27:55Z</time>
      </trkpt>
      <trkpt lat="42.021" lon="0.91284">
        <ele>1147.1</ele>
        <time>2019-01-31T03:28:02Z</time>
      </trkpt>
      <trkpt lat="42.02099" lon="0.91298">
        <ele>1146.5</ele>
        <time>2019-01-31T03:28:07Z</time>
      </trkpt>
      <trkpt lat="42.02099" lon="0.91314">
        <ele>1145.1</ele>
        <time>2019-01-31T03:28:14Z</time>
      </trkpt>
      <trkpt lat="42.02098" lon="0.9133">
        <ele>1144.2</ele>
        <time>2019-01-31T03:28:21Z</time>
      </trkpt>
      <trkpt lat="42.02094" lon="0.91342">
        <ele>1143.1</ele>
        <time>2019-01-31T03:28:27Z</time>
      </trkpt>
      <trkpt lat="42.02087" lon="0.91356">
        <ele>1142.2</ele>
        <time>2019-01-31T03:28:34Z</time>
      </trkpt>
      <trkpt lat="42.02082" lon="0.91366">
        <ele>1140.7</ele>
        <time>2019-01-31T03:28:39Z</time>
      </trkpt>
      <trkpt lat="42.02075" lon="0.91375">
        <ele>1139.3</ele>
        <time>2019-01-31T03:28:45Z</time>
      </trkpt>
      <trkpt lat="42.02067" lon="0.91387">
        <ele>1138</ele>
        <time>2019-01-31T03:28:52Z</time>
      </trkpt>
      <trkpt lat="42.02059" lon="0.91396">
        <ele>1137</ele>
        <time>2019-01-31T03:28:58Z</time>
      </trkpt>
      <trkpt lat="42.0205" lon="0.91403">
        <ele>1137</ele>
        <time>2019-01-31T03:29:03Z</time>
      </trkpt>
      <trkpt lat="42.02041" lon="0.91409">
        <ele>1136.9</ele>
        <time>2019-01-31T03:29:09Z</time>
      </trkpt>
      <trkpt lat="42.02042" lon="0.91409">
        <ele>1136</ele>
        <time>2019-01-31T03:29:09Z</time>
      </trkpt>
      <trkpt lat="42.02043" lon="0.91407">
        <ele>1136.5</ele>
        <time>2019-01-31T03:29:10Z</time>
      </trkpt>
      <trkpt lat="42.0205" lon="0.91404">
        <ele>1135</ele>
        <time>2019-01-31T03:29:14Z</time>
      </trkpt>
      <trkpt lat="42.02055" lon="0.91395">
        <ele>1136</ele>
        <time>2019-01-31T03:29:19Z</time>
      </trkpt>
      <trkpt lat="42.02059" lon="0.91382">
        <ele>1135</ele>
        <time>2019-01-31T03:29:25Z</time>
      </trkpt>
      <trkpt lat="42.02061" lon="0.91369">
        <ele>1133.5</ele>
        <time>2019-01-31T03:29:31Z</time>
      </trkpt>
      <trkpt lat="42.02061" lon="0.91358">
        <ele>1132.7</ele>
        <time>2019-01-31T03:29:36Z</time>
      </trkpt>
      <trkpt lat="42.02064" lon="0.91345">
        <ele>1130.8</ele>
        <time>2019-01-31T03:29:41Z</time>
      </trkpt>
      <trkpt lat="42.02065" lon="0.91333">
        <ele>1129.8</ele>
        <time>2019-01-31T03:29:46Z</time>
      </trkpt>
      <trkpt lat="42.02065" lon="0.91319">
        <ele>1127.8</ele>
        <time>2019-01-31T03:29:53Z</time>
      </trkpt>
      <trkpt lat="42.02062" lon="0.91305">
        <ele>1127.4</ele>
        <time>2019-01-31T03:29:58Z</time>
      </trkpt>
      <trkpt lat="42.0206" lon="0.91293">
        <ele>1126.3</ele>
        <time>2019-01-31T03:30:04Z</time>
      </trkpt>
      <trkpt lat="42.02052" lon="0.91285">
        <ele>1125.8</ele>
        <time>2019-01-31T03:30:09Z</time>
      </trkpt>
      <trkpt lat="42.02046" lon="0.91273">
        <ele>1124</ele>
        <time>2019-01-31T03:30:16Z</time>
      </trkpt>
      <trkpt lat="42.02042" lon="0.91258">
        <ele>1123.5</ele>
        <time>2019-01-31T03:30:22Z</time>
      </trkpt>
      <trkpt lat="42.02038" lon="0.91243">
        <ele>1122.5</ele>
        <time>2019-01-31T03:30:29Z</time>
      </trkpt>
      <trkpt lat="42.02033" lon="0.91227">
        <ele>1122</ele>
        <time>2019-01-31T03:30:37Z</time>
      </trkpt>
      <trkpt lat="42.0203" lon="0.91214">
        <ele>1121.1</ele>
        <time>2019-01-31T03:30:42Z</time>
      </trkpt>
      <trkpt lat="42.02025" lon="0.91203">
        <ele>1119.2</ele>
        <time>2019-01-31T03:30:48Z</time>
      </trkpt>
      <trkpt lat="42.02021" lon="0.91189">
        <ele>1118.3</ele>
        <time>2019-01-31T03:30:54Z</time>
      </trkpt>
      <trkpt lat="42.02018" lon="0.91178">
        <ele>1117.3</ele>
        <time>2019-01-31T03:30:59Z</time>
      </trkpt>
      <trkpt lat="42.02015" lon="0.91164">
        <ele>1115.4</ele>
        <time>2019-01-31T03:31:05Z</time>
      </trkpt>
      <trkpt lat="42.02012" lon="0.91152">
        <ele>1114.4</ele>
        <time>2019-01-31T03:31:11Z</time>
      </trkpt>
      <trkpt lat="42.0201" lon="0.91138">
        <ele>1113.4</ele>
        <time>2019-01-31T03:31:17Z</time>
      </trkpt>
      <trkpt lat="42.02008" lon="0.91123">
        <ele>1111.9</ele>
        <time>2019-01-31T03:31:23Z</time>
      </trkpt>
      <trkpt lat="42.02005" lon="0.91108">
        <ele>1110.6</ele>
        <time>2019-01-31T03:31:30Z</time>
      </trkpt>
      <trkpt lat="42.02001" lon="0.91094">
        <ele>1109.5</ele>
        <time>2019-01-31T03:31:36Z</time>
      </trkpt>
      <trkpt lat="42.02" lon="0.9108">
        <ele>1108.5</ele>
        <time>2019-01-31T03:31:42Z</time>
      </trkpt>
      <trkpt lat="42.02" lon="0.91066">
        <ele>1107.6</ele>
        <time>2019-01-31T03:31:48Z</time>
      </trkpt>
      <trkpt lat="42.02002" lon="0.91052">
        <ele>1106.6</ele>
        <time>2019-01-31T03:31:54Z</time>
      </trkpt>
      <trkpt lat="42.02006" lon="0.91038">
        <ele>1105.3</ele>
        <time>2019-01-31T03:32:00Z</time>
      </trkpt>
      <trkpt lat="42.02009" lon="0.91025">
        <ele>1104.2</ele>
        <time>2019-01-31T03:32:06Z</time>
      </trkpt>
      <trkpt lat="42.02014" lon="0.91014">
        <ele>1103.8</ele>
        <time>2019-01-31T03:32:12Z</time>
      </trkpt>
      <trkpt lat="42.02023" lon="0.91007">
        <ele>1102.4</ele>
        <time>2019-01-31T03:32:17Z</time>
      </trkpt>
      <trkpt lat="42.02029" lon="0.91004">
        <ele>1101.8</ele>
        <time>2019-01-31T03:32:21Z</time>
      </trkpt>
      <trkpt lat="42.02028" lon="0.90991">
        <ele>1098.5</ele>
        <time>2019-01-31T03:32:27Z</time>
      </trkpt>
      <trkpt lat="42.02039" lon="0.90985">
        <ele>1095.1</ele>
        <time>2019-01-31T03:32:33Z</time>
      </trkpt>
      <trkpt lat="42.02039" lon="0.90972">
        <ele>1093.2</ele>
        <time>2019-01-31T03:32:39Z</time>
      </trkpt>
      <trkpt lat="42.0204" lon="0.90959">
        <ele>1090.8</ele>
        <time>2019-01-31T03:32:45Z</time>
      </trkpt>
      <trkpt lat="42.02043" lon="0.90946">
        <ele>1088.9</ele>
        <time>2019-01-31T03:32:50Z</time>
      </trkpt>
      <trkpt lat="42.02046" lon="0.90933">
        <ele>1086.9</ele>
        <time>2019-01-31T03:32:56Z</time>
      </trkpt>
      <trkpt lat="42.02048" lon="0.90919">
        <ele>1085</ele>
        <time>2019-01-31T03:33:02Z</time>
      </trkpt>
      <trkpt lat="42.02048" lon="0.90905">
        <ele>1083.2</ele>
        <time>2019-01-31T03:33:08Z</time>
      </trkpt>
      <trkpt lat="42.02047" lon="0.90892">
        <ele>1081.2</ele>
        <time>2019-01-31T03:33:14Z</time>
      </trkpt>
      <trkpt lat="42.02044" lon="0.90879">
        <ele>1078.3</ele>
        <time>2019-01-31T03:33:20Z</time>
      </trkpt>
      <trkpt lat="42.02039" lon="0.90866">
        <ele>1076.9</ele>
        <time>2019-01-31T03:33:26Z</time>
      </trkpt>
      <trkpt lat="42.02037" lon="0.90853">
        <ele>1075.4</ele>
        <time>2019-01-31T03:33:31Z</time>
      </trkpt>
      <trkpt lat="42.02038" lon="0.90838">
        <ele>1073.9</ele>
        <time>2019-01-31T03:33:38Z</time>
      </trkpt>
      <trkpt lat="42.02042" lon="0.90827">
        <ele>1072.5</ele>
        <time>2019-01-31T03:33:43Z</time>
      </trkpt>
      <trkpt lat="42.02392" lon="0.9176">
        <ele>1439.2</ele>
        <time>2019-01-31T04:47:15Z</time>
      </trkpt>
      <trkpt lat="42.02401" lon="0.91753">
        <ele>1437.3</ele>
        <time>2019-01-31T04:47:20Z</time>
      </trkpt>
      <trkpt lat="42.02409" lon="0.91745">
        <ele>1436.4</ele>
        <time>2019-01-31T04:47:26Z</time>
      </trkpt>
      <trkpt lat="42.02421" lon="0.91743">
        <ele>1437.7</ele>
        <time>2019-01-31T04:47:33Z</time>
      </trkpt>
      <trkpt lat="42.02439" lon="0.91749">
        <ele>1436.8</ele>
        <time>2019-01-31T04:47:44Z</time>
      </trkpt>
      <trkpt lat="42.02445" lon="0.91737">
        <ele>1436.8</ele>
        <time>2019-01-31T04:47:49Z</time>
      </trkpt>
      <trkpt lat="42.02453" lon="0.91728">
        <ele>1434.9</ele>
        <time>2019-01-31T04:47:55Z</time>
      </trkpt>
      <trkpt lat="42.02459" lon="0.91718">
        <ele>1434.4</ele>
        <time>2019-01-31T04:48:01Z</time>
      </trkpt>
      <trkpt lat="42.02468" lon="0.9171">
        <ele>1434</ele>
        <time>2019-01-31T04:48:07Z</time>
      </trkpt>
      <trkpt lat="42.02476" lon="0.91704">
        <ele>1433.5</ele>
        <time>2019-01-31T04:48:13Z</time>
      </trkpt>
      <trkpt lat="42.02482" lon="0.91694">
        <ele>1435</ele>
        <time>2019-01-31T04:48:18Z</time>
      </trkpt>
      <trkpt lat="42.02491" lon="0.91688">
        <ele>1434.9</ele>
        <time>2019-01-31T04:48:24Z</time>
      </trkpt>
      <trkpt lat="42.025" lon="0.9168">
        <ele>1430.6</ele>
        <time>2019-01-31T04:48:30Z</time>
      </trkpt>
      <trkpt lat="42.02507" lon="0.91668">
        <ele>1430.2</ele>
        <time>2019-01-31T04:48:36Z</time>
      </trkpt>
      <trkpt lat="42.02513" lon="0.91659">
        <ele>1429.6</ele>
        <time>2019-01-31T04:48:41Z</time>
      </trkpt>
      <trkpt lat="42.02518" lon="0.91649">
        <ele>1428.2</ele>
        <time>2019-01-31T04:48:47Z</time>
      </trkpt>
      <trkpt lat="42.02526" lon="0.91641">
        <ele>1426.7</ele>
        <time>2019-01-31T04:48:52Z</time>
      </trkpt>
      <trkpt lat="42.02535" lon="0.91636">
        <ele>1423.9</ele>
        <time>2019-01-31T04:48:58Z</time>
      </trkpt>
      <trkpt lat="42.02544" lon="0.91629">
        <ele>1421.9</ele>
        <time>2019-01-31T04:49:04Z</time>
      </trkpt>
      <trkpt lat="42.02553" lon="0.91623">
        <ele>1419.5</ele>
        <time>2019-01-31T04:49:10Z</time>
      </trkpt>
      <trkpt lat="42.02561" lon="0.91616">
        <ele>1418.2</ele>
        <time>2019-01-31T04:49:15Z</time>
      </trkpt>
      <trkpt lat="42.02563" lon="0.91607">
        <ele>1418.1</ele>
        <time>2019-01-31T04:49:19Z</time>
      </trkpt>
      <trkpt lat="42.02556" lon="0.91602">
        <ele>1417.6</ele>
        <time>2019-01-31T04:49:23Z</time>
      </trkpt>
      <trkpt lat="42.02549" lon="0.91598">
        <ele>1414.7</ele>
        <time>2019-01-31T04:49:28Z</time>
      </trkpt>
      <trkpt lat="42.02549" lon="0.91587">
        <ele>1412.4</ele>
        <time>2019-01-31T04:49:33Z</time>
      </trkpt>
      <trkpt lat="42.02551" lon="0.91573">
        <ele>1409.9</ele>
        <time>2019-01-31T04:49:39Z</time>
      </trkpt>
      <trkpt lat="42.02554" lon="0.91561">
        <ele>1408.1</ele>
        <time>2019-01-31T04:49:44Z</time>
      </trkpt>
      <trkpt lat="42.02552" lon="0.91549">
        <ele>1406.6</ele>
        <time>2019-01-31T04:49:50Z</time>
      </trkpt>
      <trkpt lat="42.02551" lon="0.91537">
        <ele>1406.1</ele>
        <time>2019-01-31T04:49:55Z</time>
      </trkpt>
      <trkpt lat="42.02544" lon="0.91531">
        <ele>1402.2</ele>
        <time>2019-01-31T04:49:59Z</time>
      </trkpt>
      <trkpt lat="42.02541" lon="0.91543">
        <ele>1400.3</ele>
        <time>2019-01-31T04:50:04Z</time>
      </trkpt>
      <trkpt lat="42.02539" lon="0.91558">
        <ele>1399.3</ele>
        <time>2019-01-31T04:50:11Z</time>
      </trkpt>
      <trkpt lat="42.0253" lon="0.91568">
        <ele>1393.2</ele>
        <time>2019-01-31T04:50:18Z</time>
      </trkpt>
      <trkpt lat="42.0253" lon="0.91559">
        <ele>1389.8</ele>
        <time>2019-01-31T04:50:22Z</time>
      </trkpt>
      <trkpt lat="42.02518" lon="0.91565">
        <ele>1384.9</ele>
        <time>2019-01-31T04:50:29Z</time>
      </trkpt>
      <trkpt lat="42.02508" lon="0.91562">
        <ele>1377.8</ele>
        <time>2019-01-31T04:50:34Z</time>
      </trkpt>
      <trkpt lat="42.02507" lon="0.9155">
        <ele>1374.4</ele>
        <time>2019-01-31T04:50:40Z</time>
      </trkpt>
      <trkpt lat="42.02495" lon="0.91556">
        <ele>1368.2</ele>
        <time>2019-01-31T04:50:48Z</time>
      </trkpt>
      <trkpt lat="42.0249" lon="0.91548">
        <ele>1362.3</ele>
        <time>2019-01-31T04:50:52Z</time>
      </trkpt>
      <trkpt lat="42.02479" lon="0.91546">
        <ele>1353.8</ele>
        <time>2019-01-31T04:50:58Z</time>
      </trkpt>
      <trkpt lat="42.0248" lon="0.9153">
        <ele>1350.9</ele>
        <time>2019-01-31T04:51:05Z</time>
      </trkpt>
      <trkpt lat="42.02485" lon="0.91519">
        <ele>1348.9</ele>
        <time>2019-01-31T04:51:10Z</time>
      </trkpt>
      <trkpt lat="42.02489" lon="0.91508">
        <ele>1346</ele>
        <time>2019-01-31T04:51:16Z</time>
      </trkpt>
      <trkpt lat="42.02493" lon="0.91495">
        <ele>1344.6</ele>
        <time>2019-01-31T04:51:22Z</time>
      </trkpt>
      <trkpt lat="42.02497" lon="0.91484">
        <ele>1341.3</ele>
        <time>2019-01-31T04:51:27Z</time>
      </trkpt>
      <trkpt lat="42.02486" lon="0.91489">
        <ele>1332.5</ele>
        <time>2019-01-31T04:51:34Z</time>
      </trkpt>
      <trkpt lat="42.02478" lon="0.91481">
        <ele>1328.8</ele>
        <time>2019-01-31T04:51:39Z</time>
      </trkpt>
      <trkpt lat="42.02474" lon="0.91469">
        <ele>1324.8</ele>
        <time>2019-01-31T04:51:45Z</time>
      </trkpt>
      <trkpt lat="42.02465" lon="0.91476">
        <ele>1320.5</ele>
        <time>2019-01-31T04:51:51Z</time>
      </trkpt>
      <trkpt lat="42.02458" lon="0.91484">
        <ele>1317.1</ele>
        <time>2019-01-31T04:51:56Z</time>
      </trkpt>
      <trkpt lat="42.02447" lon="0.91489">
        <ele>1314.7</ele>
        <time>2019-01-31T04:52:03Z</time>
      </trkpt>
      <trkpt lat="42.02437" lon="0.91494">
        <ele>1311.5</ele>
        <time>2019-01-31T04:52:09Z</time>
      </trkpt>
      <trkpt lat="42.02426" lon="0.91504">
        <ele>1308.6</ele>
        <time>2019-01-31T04:52:17Z</time>
      </trkpt>
      <trkpt lat="42.02411" lon="0.91514">
        <ele>1304.7</ele>
        <time>2019-01-31T04:52:26Z</time>
      </trkpt>
      <trkpt lat="42.02396" lon="0.9152">
        <ele>1302.7</ele>
        <time>2019-01-31T04:52:35Z</time>
      </trkpt>
      <trkpt lat="42.02379" lon="0.91527">
        <ele>1300.9</ele>
        <time>2019-01-31T04:52:45Z</time>
      </trkpt>
      <trkpt lat="42.02367" lon="0.9153">
        <ele>1299</ele>
        <time>2019-01-31T04:52:52Z</time>
      </trkpt>
      <trkpt lat="42.02355" lon="0.91534">
        <ele>1296.6</ele>
        <time>2019-01-31T04:52:59Z</time>
      </trkpt>
      <trkpt lat="42.02345" lon="0.9154">
        <ele>1293.7</ele>
        <time>2019-01-31T04:53:06Z</time>
      </trkpt>
      <trkpt lat="42.02332" lon="0.91547">
        <ele>1291.7</ele>
        <time>2019-01-31T04:53:13Z</time>
      </trkpt>
      <trkpt lat="42.02321" lon="0.9155">
        <ele>1291.3</ele>
        <time>2019-01-31T04:53:20Z</time>
      </trkpt>
      <trkpt lat="42.02309" lon="0.9155">
        <ele>1287.9</ele>
        <time>2019-01-31T04:53:27Z</time>
      </trkpt>
      <trkpt lat="42.02299" lon="0.91554">
        <ele>1283.5</ele>
        <time>2019-01-31T04:53:33Z</time>
      </trkpt>
      <trkpt lat="42.0229" lon="0.91558">
        <ele>1280.2</ele>
        <time>2019-01-31T04:53:38Z</time>
      </trkpt>
      <trkpt lat="42.0228" lon="0.91561">
        <ele>1275.4</ele>
        <time>2019-01-31T04:53:44Z</time>
      </trkpt>
      <trkpt lat="42.02271" lon="0.9156">
        <ele>1272.4</ele>
        <time>2019-01-31T04:53:50Z</time>
      </trkpt>
      <trkpt lat="42.02259" lon="0.91563">
        <ele>1269.6</ele>
        <time>2019-01-31T04:53:56Z</time>
      </trkpt>
      <trkpt lat="42.02249" lon="0.91559">
        <ele>1269.2</ele>
        <time>2019-01-31T04:54:02Z</time>
      </trkpt>
      <trkpt lat="42.02239" lon="0.91556">
        <ele>1265.8</ele>
        <time>2019-01-31T04:54:08Z</time>
      </trkpt>
      <trkpt lat="42.02231" lon="0.91549">
        <ele>1260.9</ele>
        <time>2019-01-31T04:54:14Z</time>
      </trkpt>
      <trkpt lat="42.02224" lon="0.91543">
        <ele>1255.7</ele>
        <time>2019-01-31T04:54:18Z</time>
      </trkpt>
      <trkpt lat="42.02214" lon="0.91538">
        <ele>1249.9</ele>
        <time>2019-01-31T04:54:24Z</time>
      </trkpt>
      <trkpt lat="42.02203" lon="0.91535">
        <ele>1244.7</ele>
        <time>2019-01-31T04:54:31Z</time>
      </trkpt>
      <trkpt lat="42.02194" lon="0.91533">
        <ele>1240.8</ele>
        <time>2019-01-31T04:54:36Z</time>
      </trkpt>
      <trkpt lat="42.02192" lon="0.9152">
        <ele>1236</ele>
        <time>2019-01-31T04:54:42Z</time>
      </trkpt>
      <trkpt lat="42.02193" lon="0.91507">
        <ele>1232.2</ele>
        <time>2019-01-31T04:54:47Z</time>
      </trkpt>
      <trkpt lat="42.02184" lon="0.91505">
        <ele>1227.4</ele>
        <time>2019-01-31T04:54:52Z</time>
      </trkpt>
      <trkpt lat="42.02175" lon="0.91502">
        <ele>1222.5</ele>
        <time>2019-01-31T04:54:58Z</time>
      </trkpt>
      <trkpt lat="42.02172" lon="0.9149">
        <ele>1217.7</ele>
        <time>2019-01-31T04:55:04Z</time>
      </trkpt>
      <trkpt lat="42.02166" lon="0.91482">
        <ele>1213.4</ele>
        <time>2019-01-31T04:55:08Z</time>
      </trkpt>
      <trkpt lat="42.0216" lon="0.91471">
        <ele>1208.1</ele>
        <time>2019-01-31T04:55:14Z</time>
      </trkpt>
      <trkpt lat="42.02154" lon="0.9146">
        <ele>1202.8</ele>
        <time>2019-01-31T04:55:20Z</time>
      </trkpt>
      <trkpt lat="42.02151" lon="0.91445">
        <ele>1197.5</ele>
        <time>2019-01-31T04:55:26Z</time>
      </trkpt>
      <trkpt lat="42.02145" lon="0.91433">
        <ele>1192.8</ele>
        <time>2019-01-31T04:55:33Z</time>
      </trkpt>
      <trkpt lat="42.0214" lon="0.91419">
        <ele>1187.4</ele>
        <time>2019-01-31T04:55:39Z</time>
      </trkpt>
      <trkpt lat="42.02135" lon="0.9141">
        <ele>1182.2</ele>
        <time>2019-01-31T04:55:44Z</time>
      </trkpt>
      <trkpt lat="42.02132" lon="0.91397">
        <ele>1178.7</ele>
        <time>2019-01-31T04:55:50Z</time>
      </trkpt>
      <trkpt lat="42.02131" lon="0.91386">
        <ele>1174.9</ele>
        <time>2019-01-31T04:55:55Z</time>
      </trkpt>
      <trkpt lat="42.02127" lon="0.91375">
        <ele>1171.1</ele>
        <time>2019-01-31T04:56:00Z</time>
      </trkpt>
      <trkpt lat="42.02127" lon="0.91362">
        <ele>1167.7</ele>
        <time>2019-01-31T04:56:06Z</time>
      </trkpt>
      <trkpt lat="42.0213" lon="0.9135">
        <ele>1166.2</ele>
        <time>2019-01-31T04:56:11Z</time>
      </trkpt>
      <trkpt lat="42.02136" lon="0.9134">
        <ele>1164.4</ele>
        <time>2019-01-31T04:56:16Z</time>
      </trkpt>
      <trkpt lat="42.02133" lon="0.91331">
        <ele>1161</ele>
        <time>2019-01-31T04:56:21Z</time>
      </trkpt>
      <trkpt lat="42.02126" lon="0.91323">
        <ele>1157.2</ele>
        <time>2019-01-31T04:56:26Z</time>
      </trkpt>
      <trkpt lat="42.02123" lon="0.91311">
        <ele>1155.3</ele>
        <time>2019-01-31T04:56:31Z</time>
      </trkpt>
      <trkpt lat="42.02118" lon="0.91301">
        <ele>1153.2</ele>
        <time>2019-01-31T04:56:36Z</time>
      </trkpt>
      <trkpt lat="42.02113" lon="0.91288">
        <ele>1151.9</ele>
        <time>2019-01-31T04:56:42Z</time>
      </trkpt>
      <trkpt lat="42.0211" lon="0.91276">
        <ele>1149.4</ele>
        <time>2019-01-31T04:56:48Z</time>
      </trkpt>
      <trkpt lat="42.02103" lon="0.91266">
        <ele>1148.9</ele>
        <time>2019-01-31T04:56:54Z</time>
      </trkpt>
      <trkpt lat="42.02094" lon="0.91256">
        <ele>1147.6</ele>
        <time>2019-01-31T04:57:00Z</time>
      </trkpt>
      <trkpt lat="42.02098" lon="0.91268">
        <ele>1147.6</ele>
        <time>2019-01-31T04:57:06Z</time>
      </trkpt>
      <trkpt lat="42.021" lon="0.91284">
        <ele>1147</ele>
        <time>2019-01-31T04:57:13Z</time>
      </trkpt>
      <trkpt lat="42.02099" lon="0.91298">
        <ele>1146.5</ele>
        <time>2019-01-31T04:57:19Z</time>
      </trkpt>
      <trkpt lat="42.02099" lon="0.91314">
        <ele>1145.2</ele>
        <time>2019-01-31T04:57:26Z</time>
      </trkpt>
      <trkpt lat="42.02098" lon="0.9133">
        <ele>1144.1</ele>
        <time>2019-01-31T04:57:33Z</time>
      </trkpt>
      <trkpt lat="42.02094" lon="0.91342">
        <ele>1143.2</ele>
        <time>2019-01-31T04:57:38Z</time>
      </trkpt>
      <trkpt lat="42.02087" lon="0.91356">
        <ele>1142.2</ele>
        <time>2019-01-31T04:57:45Z</time>
      </trkpt>
      <trkpt lat="42.02082" lon="0.91366">
        <ele>1140.7</ele>
        <time>2019-01-31T04:57:51Z</time>
      </trkpt>
      <trkpt lat="42.02075" lon="0.91375">
        <ele>1139.4</ele>
        <time>2019-01-31T04:57:56Z</time>
      </trkpt>
      <trkpt lat="42.02067" lon="0.91387">
        <ele>1137.9</ele>
        <time>2019-01-31T04:58:03Z</time>
      </trkpt>
      <trkpt lat="42.02059" lon="0.91396">
        <ele>1137</ele>
        <time>2019-01-31T04:58:09Z</time>
      </trkpt>
      <trkpt lat="42.02059" lon="0.91389">
        <ele>1141.3</ele>
        <time>2019-01-31T04:58:12Z</time>
      </trkpt>
      <trkpt lat="42.0206" lon="0.91376">
        <ele>1139.9</ele>
        <time>2019-01-31T04:58:17Z</time>
      </trkpt>
      <trkpt lat="42.02061" lon="0.91364">
        <ele>1138.8</ele>
        <time>2019-01-31T04:58:22Z</time>
      </trkpt>
      <trkpt lat="42.02063" lon="0.91351">
        <ele>1137.4</ele>
        <time>2019-01-31T04:58:28Z</time>
      </trkpt>
      <trkpt lat="42.02065" lon="0.91337">
        <ele>1136</ele>
        <time>2019-01-31T04:58:34Z</time>
      </trkpt>
      <trkpt lat="42.02065" lon="0.91324">
        <ele>1135.6</ele>
        <time>2019-01-31T04:58:40Z</time>
      </trkpt>
      <trkpt lat="42.02063" lon="0.91311">
        <ele>1134.1</ele>
        <time>2019-01-31T04:58:45Z</time>
      </trkpt>
      <trkpt lat="42.02059" lon="0.91299">
        <ele>1132.7</ele>
        <time>2019-01-31T04:58:51Z</time>
      </trkpt>
      <trkpt lat="42.02054" lon="0.91287">
        <ele>1131.7</ele>
        <time>2019-01-31T04:58:57Z</time>
      </trkpt>
      <trkpt lat="42.02049" lon="0.91275">
        <ele>1131.1</ele>
        <time>2019-01-31T04:59:03Z</time>
      </trkpt>
      <trkpt lat="42.02044" lon="0.91263">
        <ele>1130.3</ele>
        <time>2019-01-31T04:59:09Z</time>
      </trkpt>
      <trkpt lat="42.02039" lon="0.9125">
        <ele>1129.7</ele>
        <time>2019-01-31T04:59:15Z</time>
      </trkpt>
      <trkpt lat="42.02036" lon="0.91238">
        <ele>1128.7</ele>
        <time>2019-01-31T04:59:20Z</time>
      </trkpt>
      <trkpt lat="42.02033" lon="0.91226">
        <ele>1127.8</ele>
        <time>2019-01-31T04:59:26Z</time>
      </trkpt>
      <trkpt lat="42.0203" lon="0.91214">
        <ele>1126.8</ele>
        <time>2019-01-31T04:59:31Z</time>
      </trkpt>
      <trkpt lat="42.02027" lon="0.91202">
        <ele>1125.8</ele>
        <time>2019-01-31T04:59:36Z</time>
      </trkpt>
      <trkpt lat="42.02023" lon="0.91189">
        <ele>1124.4</ele>
        <time>2019-01-31T04:59:42Z</time>
      </trkpt>
      <trkpt lat="42.0202" lon="0.91177">
        <ele>1123.5</ele>
        <time>2019-01-31T04:59:48Z</time>
      </trkpt>
      <trkpt lat="42.02017" lon="0.91165">
        <ele>1122.6</ele>
        <time>2019-01-31T04:59:53Z</time>
      </trkpt>
      <trkpt lat="42.02014" lon="0.91152">
        <ele>1121.1</ele>
        <time>2019-01-31T04:59:59Z</time>
      </trkpt>
      <trkpt lat="42.02012" lon="0.9114">
        <ele>1119.7</ele>
        <time>2019-01-31T05:00:04Z</time>
      </trkpt>
      <trkpt lat="42.0201" lon="0.91128">
        <ele>1118.7</ele>
        <time>2019-01-31T05:00:09Z</time>
      </trkpt>
      <trkpt lat="42.02007" lon="0.91115">
        <ele>1117.7</ele>
        <time>2019-01-31T05:00:15Z</time>
      </trkpt>
      <trkpt lat="42.02004" lon="0.91103">
        <ele>1117.3</ele>
        <time>2019-01-31T05:00:21Z</time>
      </trkpt>
      <trkpt lat="42.02002" lon="0.91089">
        <ele>1115.9</ele>
        <time>2019-01-31T05:00:27Z</time>
      </trkpt>
      <trkpt lat="42.02002" lon="0.91075">
        <ele>1114.9</ele>
        <time>2019-01-31T05:00:32Z</time>
      </trkpt>
      <trkpt lat="42.02004" lon="0.91063">
        <ele>1114.3</ele>
        <time>2019-01-31T05:00:38Z</time>
      </trkpt>
      <trkpt lat="42.02006" lon="0.91051">
        <ele>1112.9</ele>
        <time>2019-01-31T05:00:43Z</time>
      </trkpt>
      <trkpt lat="42.02009" lon="0.91038">
        <ele>1112</ele>
        <time>2019-01-31T05:00:49Z</time>
      </trkpt>
      <trkpt lat="42.02013" lon="0.91025">
        <ele>1111</ele>
        <time>2019-01-31T05:00:55Z</time>
      </trkpt>
      <trkpt lat="42.02021" lon="0.91014">
        <ele>1110.1</ele>
        <time>2019-01-31T05:01:01Z</time>
      </trkpt>
      <trkpt lat="42.02028" lon="0.91006">
        <ele>1109.1</ele>
        <time>2019-01-31T05:01:06Z</time>
      </trkpt>
      <trkpt lat="42.02028" lon="0.90996">
        <ele>1106.7</ele>
        <time>2019-01-31T05:01:11Z</time>
      </trkpt>
      <trkpt lat="42.02036" lon="0.90988">
        <ele>1103.7</ele>
        <time>2019-01-31T05:01:16Z</time>
      </trkpt>
      <trkpt lat="42.02044" lon="0.90986">
        <ele>1101.4</ele>
        <time>2019-01-31T05:01:21Z</time>
      </trkpt>
      <trkpt lat="42.02041" lon="0.90975">
        <ele>1099.9</ele>
        <time>2019-01-31T05:01:26Z</time>
      </trkpt>
      <trkpt lat="42.02041" lon="0.90962">
        <ele>1098</ele>
        <time>2019-01-31T05:01:31Z</time>
      </trkpt>
      <trkpt lat="42.02043" lon="0.9095">
        <ele>1095.6</ele>
        <time>2019-01-31T05:01:37Z</time>
      </trkpt>
      <trkpt lat="42.02046" lon="0.90937">
        <ele>1094.1</ele>
        <time>2019-01-31T05:01:42Z</time>
      </trkpt>
      <trkpt lat="42.02048" lon="0.90923">
        <ele>1092.2</ele>
        <time>2019-01-31T05:01:48Z</time>
      </trkpt>
      <trkpt lat="42.0205" lon="0.90911">
        <ele>1090.9</ele>
        <time>2019-01-31T05:01:54Z</time>
      </trkpt>
      <trkpt lat="42.0205" lon="0.90899">
        <ele>1089.4</ele>
        <time>2019-01-31T05:01:59Z</time>
      </trkpt>
      <trkpt lat="42.02048" lon="0.90886">
        <ele>1086.9</ele>
        <time>2019-01-31T05:02:04Z</time>
      </trkpt>
      <trkpt lat="42.02043" lon="0.90874">
        <ele>1085.1</ele>
        <time>2019-01-31T05:02:10Z</time>
      </trkpt>
      <trkpt lat="42.02039" lon="0.90863">
        <ele>1083.5</ele>
        <time>2019-01-31T05:02:15Z</time>
      </trkpt>
      <trkpt lat="42.02038" lon="0.90849">
        <ele>1082.1</ele>
        <time>2019-01-31T05:02:21Z</time>
      </trkpt>
      <trkpt lat="42.02041" lon="0.90835">
        <ele>1080.2</ele>
        <time>2019-01-31T05:02:28Z</time>
      </trkpt>
      <trkpt lat="42.02048" lon="0.90824">
        <ele>1078.3</ele>
        <time>2019-01-31T05:02:34Z</time>
      </trkpt>
      <trkpt lat="42.02055" lon="0.90816">
        <ele>1076.3</ele>
        <time>2019-01-31T05:02:39Z</time>
      </trkpt>
      <trkpt lat="42.02063" lon="0.90807">
        <ele>1074.5</ele>
        <time>2019-01-31T05:02:45Z</time>
      </trkpt>
      <trkpt lat="42.02066" lon="0.90804">
        <ele>1073.9</ele>
        <time>2019-01-31T05:02:47Z</time>
      </trkpt>
      <trkpt lat="42.02073" lon="0.90806">
        <ele>1072.5</ele>
        <time>2019-01-31T05:02:51Z</time>
      </trkpt>
      <trkpt lat="42.02074" lon="0.90811">
        <ele>1072</ele>
        <time>2019-01-31T05:02:53Z</time>
      </trkpt>
      <trkpt lat="42.02071" lon="0.908">
        <ele>1071.6</ele>
        <time>2019-01-31T05:02:58Z</time>
      </trkpt>
      <trkpt lat="42.02078" lon="0.90795">
        <ele>1069.1</ele>
        <time>2019-01-31T05:03:03Z</time>
      </trkpt>
      <trkpt lat="42.02087" lon="0.908">
        <ele>1066.8</ele>
        <time>2019-01-31T05:03:08Z</time>
      </trkpt>
      <trkpt lat="42.02094" lon="0.90791">
        <ele>1063.8</ele>
        <time>2019-01-31T05:03:14Z</time>
      </trkpt>
      <trkpt lat="42.02099" lon="0.9078">
        <ele>1061.5</ele>
        <time>2019-01-31T05:03:19Z</time>
      </trkpt>
      <trkpt lat="42.02107" lon="0.9077">
        <ele>1058.1</ele>
        <time>2019-01-31T05:03:26Z</time>
      </trkpt>
      <trkpt lat="42.02116" lon="0.90762">
        <ele>1055.2</ele>
        <time>2019-01-31T05:03:32Z</time>
      </trkpt>
      <trkpt lat="42.02124" lon="0.90752">
        <ele>1051.4</ele>
        <time>2019-01-31T05:03:38Z</time>
      </trkpt>
      <trkpt lat="42.02131" lon="0.90741">
        <ele>1049</ele>
        <time>2019-01-31T05:03:44Z</time>
      </trkpt>
      <trkpt lat="42.02135" lon="0.9073">
        <ele>1046.1</ele>
        <time>2019-01-31T05:03:49Z</time>
      </trkpt>
      <trkpt lat="42.02143" lon="0.90734">
        <ele>1044.6</ele>
        <time>2019-01-31T05:03:54Z</time>
      </trkpt>
      <trkpt lat="42.02149" lon="0.90739">
        <ele>1041.7</ele>
        <time>2019-01-31T05:03:59Z</time>
      </trkpt>
      <trkpt lat="42.02153" lon="0.9073">
        <ele>1038.4</ele>
        <time>2019-01-31T05:04:03Z</time>
      </trkpt>
      <trkpt lat="42.0216" lon="0.90726">
        <ele>1037.4</ele>
        <time>2019-01-31T05:04:07Z</time>
      </trkpt>
      <trkpt lat="42.02166" lon="0.90735">
        <ele>1036.4</ele>
        <time>2019-01-31T05:04:12Z</time>
      </trkpt>
      <trkpt lat="42.02171" lon="0.90747">
        <ele>1035</ele>
        <time>2019-01-31T05:04:18Z</time>
      </trkpt>
      <trkpt lat="42.02176" lon="0.90738">
        <ele>1032.1</ele>
        <time>2019-01-31T05:04:23Z</time>
      </trkpt>
      <trkpt lat="42.02184" lon="0.9074">
        <ele>1029.8</ele>
        <time>2019-01-31T05:04:28Z</time>
      </trkpt>
      <trkpt lat="42.02194" lon="0.90741">
        <ele>1027.4</ele>
        <time>2019-01-31T05:04:33Z</time>
      </trkpt>
      <trkpt lat="42.02205" lon="0.90734">
        <ele>1025.9</ele>
        <time>2019-01-31T05:04:40Z</time>
      </trkpt>
      <trkpt lat="42.02215" lon="0.90727">
        <ele>1024.5</ele>
        <time>2019-01-31T05:04:46Z</time>
      </trkpt>
      <trkpt lat="42.02224" lon="0.90721">
        <ele>1023</ele>
        <time>2019-01-31T05:04:52Z</time>
      </trkpt>
      <trkpt lat="42.02235" lon="0.90717">
        <ele>1020.6</ele>
        <time>2019-01-31T05:04:59Z</time>
      </trkpt>
      <trkpt lat="42.02244" lon="0.90713">
        <ele>1019.1</ele>
        <time>2019-01-31T05:05:04Z</time>
      </trkpt>
      <trkpt lat="42.02249" lon="0.90703">
        <ele>1016.8</ele>
        <time>2019-01-31T05:05:10Z</time>
      </trkpt>
      <trkpt lat="42.02255" lon="0.90691">
        <ele>1015.4</ele>
        <time>2019-01-31T05:05:16Z</time>
      </trkpt>
      <trkpt lat="42.02261" lon="0.9068">
        <ele>1013.5</ele>
        <time>2019-01-31T05:05:21Z</time>
      </trkpt>
      <trkpt lat="42.02265" lon="0.9067">
        <ele>1010</ele>
        <time>2019-01-31T05:05:26Z</time>
      </trkpt>
      <trkpt lat="42.0227" lon="0.90656">
        <ele>1007.1</ele>
        <time>2019-01-31T05:05:32Z</time>
      </trkpt>
      <trkpt lat="42.02274" lon="0.90645">
        <ele>1004.7</ele>
        <time>2019-01-31T05:05:38Z</time>
      </trkpt>
      <trkpt lat="42.02287" lon="0.90643">
        <ele>1003.8</ele>
        <time>2019-01-31T05:05:45Z</time>
      </trkpt>
      <trkpt lat="42.02299" lon="0.90639">
        <ele>1002.8</ele>
        <time>2019-01-31T05:05:52Z</time>
      </trkpt>
      <trkpt lat="42.02306" lon="0.90631">
        <ele>1001</ele>
        <time>2019-01-31T05:05:58Z</time>
      </trkpt>
      <trkpt lat="42.02309" lon="0.9062">
        <ele>998.5</ele>
        <time>2019-01-31T05:06:03Z</time>
      </trkpt>
      <trkpt lat="42.02313" lon="0.90607">
        <ele>995.1</ele>
        <time>2019-01-31T05:06:09Z</time>
      </trkpt>
      <trkpt lat="42.02317" lon="0.90594">
        <ele>992.2</ele>
        <time>2019-01-31T05:06:15Z</time>
      </trkpt>
      <trkpt lat="42.02321" lon="0.90577">
        <ele>988.5</ele>
        <time>2019-01-31T05:06:22Z</time>
      </trkpt>
      <trkpt lat="42.02325" lon="0.90564">
        <ele>985.5</ele>
        <time>2019-01-31T05:06:28Z</time>
      </trkpt>
      <trkpt lat="42.0233" lon="0.90549">
        <ele>982.6</ele>
        <time>2019-01-31T05:06:35Z</time>
      </trkpt>
      <trkpt lat="42.02335" lon="0.90535">
        <ele>980.8</ele>
        <time>2019-01-31T05:06:42Z</time>
      </trkpt>
      <trkpt lat="42.02339" lon="0.90524">
        <ele>978.4</ele>
        <time>2019-01-31T05:06:47Z</time>
      </trkpt>
      <trkpt lat="42.02343" lon="0.90512">
        <ele>976.8</ele>
        <time>2019-01-31T05:06:52Z</time>
      </trkpt>
      <trkpt lat="42.02347" lon="0.90501">
        <ele>975</ele>
        <time>2019-01-31T05:06:58Z</time>
      </trkpt>
      <trkpt lat="42.02353" lon="0.90486">
        <ele>973</ele>
        <time>2019-01-31T05:07:05Z</time>
      </trkpt>
      <trkpt lat="42.02358" lon="0.90474">
        <ele>971.1</ele>
        <time>2019-01-31T05:07:11Z</time>
      </trkpt>
      <trkpt lat="42.02363" lon="0.90461">
        <ele>968.2</ele>
        <time>2019-01-31T05:07:17Z</time>
      </trkpt>
      <trkpt lat="42.02366" lon="0.90448">
        <ele>966.7</ele>
        <time>2019-01-31T05:07:23Z</time>
      </trkpt>
      <trkpt lat="42.02373" lon="0.90437">
        <ele>964.9</ele>
        <time>2019-01-31T05:07:29Z</time>
      </trkpt>
      <trkpt lat="42.02379" lon="0.90427">
        <ele>962.9</ele>
        <time>2019-01-31T05:07:34Z</time>
      </trkpt>
      <trkpt lat="42.0238" lon="0.90413">
        <ele>959.1</ele>
        <time>2019-01-31T05:07:40Z</time>
      </trkpt>
      <trkpt lat="42.02382" lon="0.90401">
        <ele>956.3</ele>
        <time>2019-01-31T05:07:45Z</time>
      </trkpt>
      <trkpt lat="42.02384" lon="0.90389">
        <ele>954.4</ele>
        <time>2019-01-31T05:07:51Z</time>
      </trkpt>
      <trkpt lat="42.02383" lon="0.90375">
        <ele>950.9</ele>
        <time>2019-01-31T05:07:57Z</time>
      </trkpt>
      <trkpt lat="42.02384" lon="0.90359">
        <ele>947.5</ele>
        <time>2019-01-31T05:08:04Z</time>
      </trkpt>
      <trkpt lat="42.0239" lon="0.90347">
        <ele>945.7</ele>
        <time>2019-01-31T05:08:10Z</time>
      </trkpt>
      <trkpt lat="42.02397" lon="0.90336">
        <ele>943.8</ele>
        <time>2019-01-31T05:08:16Z</time>
      </trkpt>
      <trkpt lat="42.02402" lon="0.90323">
        <ele>941.8</ele>
        <time>2019-01-31T05:08:22Z</time>
      </trkpt>
      <trkpt lat="42.0241" lon="0.9031">
        <ele>939.4</ele>
        <time>2019-01-31T05:08:29Z</time>
      </trkpt>
      <trkpt lat="42.02418" lon="0.90301">
        <ele>938.9</ele>
        <time>2019-01-31T05:08:35Z</time>
      </trkpt>
      <trkpt lat="42.02423" lon="0.90287">
        <ele>934.1</ele>
        <time>2019-01-31T05:08:42Z</time>
      </trkpt>
      <trkpt lat="42.02427" lon="0.90275">
        <ele>932.7</ele>
        <time>2019-01-31T05:08:47Z</time>
      </trkpt>
      <trkpt lat="42.02431" lon="0.90262">
        <ele>929.4</ele>
        <time>2019-01-31T05:08:53Z</time>
      </trkpt>
      <trkpt lat="42.02438" lon="0.90253">
        <ele>928.4</ele>
        <time>2019-01-31T05:08:59Z</time>
      </trkpt>
      <trkpt lat="42.02433" lon="0.90245">
        <ele>925</ele>
        <time>2019-01-31T05:09:04Z</time>
      </trkpt>
      <trkpt lat="42.02431" lon="0.90234">
        <ele>920.2</ele>
        <time>2019-01-31T05:09:08Z</time>
      </trkpt>
      <trkpt lat="42.02432" lon="0.9022">
        <ele>916.8</ele>
        <time>2019-01-31T05:09:14Z</time>
      </trkpt>
      <trkpt lat="42.02432" lon="0.90204">
        <ele>911.6</ele>
        <time>2019-01-31T05:09:21Z</time>
      </trkpt>
      <trkpt lat="42.02427" lon="0.90201">
        <ele>910</ele>
        <time>2019-01-31T05:09:25Z</time>
      </trkpt>
      <trkpt lat="42.02423" lon="0.90194">
        <ele>909.2</ele>
        <time>2019-01-31T05:09:28Z</time>
      </trkpt>
      <trkpt lat="42.02429" lon="0.90184">
        <ele>907.1</ele>
        <time>2019-01-31T05:09:34Z</time>
      </trkpt>
      <trkpt lat="42.02435" lon="0.90175">
        <ele>905.7</ele>
        <time>2019-01-31T05:09:39Z</time>
      </trkpt>
      <trkpt lat="42.02441" lon="0.90165">
        <ele>904.7</ele>
        <time>2019-01-31T05:09:45Z</time>
      </trkpt>
      <trkpt lat="42.02443" lon="0.90153">
        <ele>902.4</ele>
        <time>2019-01-31T05:09:50Z</time>
      </trkpt>
      <trkpt lat="42.02446" lon="0.9014">
        <ele>900</ele>
        <time>2019-01-31T05:09:56Z</time>
      </trkpt>
      <trkpt lat="42.02448" lon="0.90127">
        <ele>896.7</ele>
        <time>2019-01-31T05:10:01Z</time>
      </trkpt>
      <trkpt lat="42.02449" lon="0.90111">
        <ele>892.2</ele>
        <time>2019-01-31T05:10:08Z</time>
      </trkpt>
      <trkpt lat="42.02442" lon="0.90103">
        <ele>889.5</ele>
        <time>2019-01-31T05:10:13Z</time>
      </trkpt>
      <trkpt lat="42.02446" lon="0.90091">
        <ele>887.1</ele>
        <time>2019-01-31T05:10:19Z</time>
      </trkpt>
      <trkpt lat="42.0245" lon="0.90078">
        <ele>884.1</ele>
        <time>2019-01-31T05:10:25Z</time>
      </trkpt>
      <trkpt lat="42.02453" lon="0.90065">
        <ele>881.8</ele>
        <time>2019-01-31T05:10:30Z</time>
      </trkpt>
      <trkpt lat="42.02461" lon="0.90055">
        <ele>878.9</ele>
        <time>2019-01-31T05:10:37Z</time>
      </trkpt>
      <trkpt lat="42.02467" lon="0.90044">
        <ele>876.4</ele>
        <time>2019-01-31T05:10:42Z</time>
      </trkpt>
      <trkpt lat="42.02474" lon="0.90035">
        <ele>874.5</ele>
        <time>2019-01-31T05:10:48Z</time>
      </trkpt>
      <trkpt lat="42.02481" lon="0.90026">
        <ele>873.1</ele>
        <time>2019-01-31T05:10:54Z</time>
      </trkpt>
      <trkpt lat="42.02489" lon="0.90015">
        <ele>870.1</ele>
        <time>2019-01-31T05:11:00Z</time>
      </trkpt>
      <trkpt lat="42.02497" lon="0.90004">
        <ele>868.3</ele>
        <time>2019-01-31T05:11:06Z</time>
      </trkpt>
      <trkpt lat="42.02503" lon="0.89992">
        <ele>864.8</ele>
        <time>2019-01-31T05:11:13Z</time>
      </trkpt>
      <trkpt lat="42.02511" lon="0.8998">
        <ele>862</ele>
        <time>2019-01-31T05:11:19Z</time>
      </trkpt>
      <trkpt lat="42.02518" lon="0.8997">
        <ele>861.1</ele>
        <time>2019-01-31T05:11:25Z</time>
      </trkpt>
      <trkpt lat="42.02525" lon="0.89959">
        <ele>858.6</ele>
        <time>2019-01-31T05:11:31Z</time>
      </trkpt>
      <trkpt lat="42.02532" lon="0.89949">
        <ele>856.2</ele>
        <time>2019-01-31T05:11:37Z</time>
      </trkpt>
      <trkpt lat="42.02538" lon="0.89938">
        <ele>853.9</ele>
        <time>2019-01-31T05:11:43Z</time>
      </trkpt>
      <trkpt lat="42.02544" lon="0.89927">
        <ele>851.5</ele>
        <time>2019-01-31T05:11:49Z</time>
      </trkpt>
      <trkpt lat="42.02552" lon="0.89916">
        <ele>850.9</ele>
        <time>2019-01-31T05:11:55Z</time>
      </trkpt>
      <trkpt lat="42.02561" lon="0.89905">
        <ele>849.5</ele>
        <time>2019-01-31T05:12:02Z</time>
      </trkpt>
      <trkpt lat="42.02567" lon="0.89894">
        <ele>848</ele>
        <time>2019-01-31T05:12:08Z</time>
      </trkpt>
      <trkpt lat="42.02572" lon="0.89884">
        <ele>847.6</ele>
        <time>2019-01-31T05:12:13Z</time>
      </trkpt>
      <trkpt lat="42.02579" lon="0.89872">
        <ele>846.2</ele>
        <time>2019-01-31T05:12:20Z</time>
      </trkpt>
      <trkpt lat="42.02582" lon="0.89863">
        <ele>844.8</ele>
        <time>2019-01-31T05:12:24Z</time>
      </trkpt>
      <trkpt lat="42.02586" lon="0.89851">
        <ele>842.4</ele>
        <time>2019-01-31T05:12:29Z</time>
      </trkpt>
      <trkpt lat="42.02589" lon="0.89838">
        <ele>840.3</ele>
        <time>2019-01-31T05:12:35Z</time>
      </trkpt>
      <trkpt lat="42.02595" lon="0.89827">
        <ele>837.9</ele>
        <time>2019-01-31T05:12:41Z</time>
      </trkpt>
      <trkpt lat="42.02599" lon="0.89822">
        <ele>837.5</ele>
        <time>2019-01-31T05:12:44Z</time>
      </trkpt>
      <trkpt lat="42.02602" lon="0.89822">
        <ele>836.5</ele>
        <time>2019-01-31T05:12:46Z</time>
      </trkpt>
      <trkpt lat="42.0261" lon="0.89822">
        <ele>835</ele>
        <time>2019-01-31T05:12:50Z</time>
      </trkpt>
      <trkpt lat="42.0262" lon="0.89819">
        <ele>831.2</ele>
        <time>2019-01-31T05:12:56Z</time>
      </trkpt>
      <trkpt lat="42.0263" lon="0.89817">
        <ele>828.3</ele>
        <time>2019-01-31T05:13:02Z</time>
      </trkpt>
      <trkpt lat="42.02639" lon="0.89813">
        <ele>825.5</ele>
        <time>2019-01-31T05:13:07Z</time>
      </trkpt>
      <trkpt lat="42.02648" lon="0.89813">
        <ele>823.1</ele>
        <time>2019-01-31T05:13:13Z</time>
      </trkpt>
      <trkpt lat="42.02655" lon="0.89816">
        <ele>820.7</ele>
        <time>2019-01-31T05:13:17Z</time>
      </trkpt>
      <trkpt lat="42.02665" lon="0.89816">
        <ele>817.3</ele>
        <time>2019-01-31T05:13:23Z</time>
      </trkpt>
      <trkpt lat="42.02676" lon="0.89813">
        <ele>812</ele>
        <time>2019-01-31T05:13:29Z</time>
      </trkpt>
      <trkpt lat="42.02686" lon="0.89815">
        <ele>808.6</ele>
        <time>2019-01-31T05:13:35Z</time>
      </trkpt>
      <trkpt lat="42.02694" lon="0.89809">
        <ele>804.4</ele>
        <time>2019-01-31T05:13:40Z</time>
      </trkpt>
      <trkpt lat="42.027" lon="0.89804">
        <ele>800.1</ele>
        <time>2019-01-31T05:13:44Z</time>
      </trkpt>
      <trkpt lat="42.02709" lon="0.898">
        <ele>795.2</ele>
        <time>2019-01-31T05:13:49Z</time>
      </trkpt>
      <trkpt lat="42.0272" lon="0.89796">
        <ele>790.4</ele>
        <time>2019-01-31T05:13:56Z</time>
      </trkpt>
      <trkpt lat="42.0273" lon="0.89795">
        <ele>786.5</ele>
        <time>2019-01-31T05:14:01Z</time>
      </trkpt>
      <trkpt lat="42.02738" lon="0.89792">
        <ele>782.2</ele>
        <time>2019-01-31T05:14:06Z</time>
      </trkpt>
      <trkpt lat="42.02745" lon="0.89786">
        <ele>777.9</ele>
        <time>2019-01-31T05:14:11Z</time>
      </trkpt>
      <trkpt lat="42.02755" lon="0.89785">
        <ele>775.1</ele>
        <time>2019-01-31T05:14:17Z</time>
      </trkpt>
      <trkpt lat="42.02764" lon="0.89784">
        <ele>771.2</ele>
        <time>2019-01-31T05:14:22Z</time>
      </trkpt>
      <trkpt lat="42.02774" lon="0.89777">
        <ele>766.9</ele>
        <time>2019-01-31T05:14:28Z</time>
      </trkpt>
      <trkpt lat="42.02782" lon="0.8977">
        <ele>762.6</ele>
        <time>2019-01-31T05:14:34Z</time>
      </trkpt>
      <trkpt lat="42.02789" lon="0.89764">
        <ele>758.1</ele>
        <time>2019-01-31T05:14:39Z</time>
      </trkpt>
      <trkpt lat="42.02799" lon="0.89761">
        <ele>754.9</ele>
        <time>2019-01-31T05:14:45Z</time>
      </trkpt>
      <trkpt lat="42.02809" lon="0.89758">
        <ele>750.9</ele>
        <time>2019-01-31T05:14:50Z</time>
      </trkpt>
      <trkpt lat="42.02818" lon="0.89763">
        <ele>749.1</ele>
        <time>2019-01-31T05:14:56Z</time>
      </trkpt>
      <trkpt lat="42.02827" lon="0.89769">
        <ele>747.1</ele>
        <time>2019-01-31T05:15:02Z</time>
      </trkpt>
      <trkpt lat="42.02836" lon="0.89777">
        <ele>746.1</ele>
        <time>2019-01-31T05:15:08Z</time>
      </trkpt>
      <trkpt lat="42.02846" lon="0.89785">
        <ele>744.7</ele>
        <time>2019-01-31T05:15:14Z</time>
      </trkpt>
      <trkpt lat="42.02855" lon="0.89791">
        <ele>743.2</ele>
        <time>2019-01-31T05:15:20Z</time>
      </trkpt>
      <trkpt lat="42.02865" lon="0.89794">
        <ele>741.9</ele>
        <time>2019-01-31T05:15:26Z</time>
      </trkpt>
      <trkpt lat="42.02872" lon="0.89791">
        <ele>738.4</ele>
        <time>2019-01-31T05:15:31Z</time>
      </trkpt>
      <trkpt lat="42.02883" lon="0.89793">
        <ele>736.5</ele>
        <time>2019-01-31T05:15:37Z</time>
      </trkpt>
      <trkpt lat="42.02889" lon="0.89783">
        <ele>736.6</ele>
        <time>2019-01-31T05:15:42Z</time>
      </trkpt>
      <trkpt lat="42.029" lon="0.89779">
        <ele>736.6</ele>
        <time>2019-01-31T05:15:49Z</time>
      </trkpt>
      <trkpt lat="42.02909" lon="0.89772">
        <ele>738.9</ele>
        <time>2019-01-31T05:15:55Z</time>
      </trkpt>
      <trkpt lat="42.02916" lon="0.89764">
        <ele>740</ele>
        <time>2019-01-31T05:16:00Z</time>
      </trkpt>
      <trkpt lat="42.02926" lon="0.89759">
        <ele>740</ele>
        <time>2019-01-31T05:16:06Z</time>
      </trkpt>
      <trkpt lat="42.02938" lon="0.89753">
        <ele>736.6</ele>
        <time>2019-01-31T05:16:13Z</time>
      </trkpt>
      <trkpt lat="42.02949" lon="0.89749">
        <ele>734.1</ele>
        <time>2019-01-31T05:16:20Z</time>
      </trkpt>
      <trkpt lat="42.02958" lon="0.89741">
        <ele>732.2</ele>
        <time>2019-01-31T05:16:26Z</time>
      </trkpt>
      <trkpt lat="42.02966" lon="0.89733">
        <ele>730.7</ele>
        <time>2019-01-31T05:16:32Z</time>
      </trkpt>
      <trkpt lat="42.02974" lon="0.89723">
        <ele>729.3</ele>
        <time>2019-01-31T05:16:38Z</time>
      </trkpt>
      <trkpt lat="42.02984" lon="0.89717">
        <ele>729.3</ele>
        <time>2019-01-31T05:16:45Z</time>
      </trkpt>
      <trkpt lat="42.02994" lon="0.89713">
        <ele>729.4</ele>
        <time>2019-01-31T05:16:51Z</time>
      </trkpt>
      <trkpt lat="42.03003" lon="0.89707">
        <ele>728.9</ele>
        <time>2019-01-31T05:16:56Z</time>
      </trkpt>
      <trkpt lat="42.0301" lon="0.89698">
        <ele>728.9</ele>
        <time>2019-01-31T05:17:02Z</time>
      </trkpt>
      <trkpt lat="42.03012" lon="0.89686">
        <ele>724.5</ele>
        <time>2019-01-31T05:17:07Z</time>
      </trkpt>
      <trkpt lat="42.03015" lon="0.89672">
        <ele>721.2</ele>
        <time>2019-01-31T05:17:13Z</time>
      </trkpt>
      <trkpt lat="42.03021" lon="0.89659">
        <ele>719.8</ele>
        <time>2019-01-31T05:17:20Z</time>
      </trkpt>
      <trkpt lat="42.03024" lon="0.89648">
        <ele>716.9</ele>
        <time>2019-01-31T05:17:25Z</time>
      </trkpt>
      <trkpt lat="42.03022" lon="0.89636">
        <ele>712.5</ele>
        <time>2019-01-31T05:17:30Z</time>
      </trkpt>
      <trkpt lat="42.03023" lon="0.89622">
        <ele>708.2</ele>
        <time>2019-01-31T05:17:36Z</time>
      </trkpt>
      <trkpt lat="42.03024" lon="0.8961">
        <ele>705.9</ele>
        <time>2019-01-31T05:17:41Z</time>
      </trkpt>
      <trkpt lat="42.03016" lon="0.89609">
        <ele>703.4</ele>
        <time>2019-01-31T05:17:46Z</time>
      </trkpt>
      <trkpt lat="42.03019" lon="0.89597">
        <ele>701</ele>
        <time>2019-01-31T05:17:51Z</time>
      </trkpt>
      <trkpt lat="42.03024" lon="0.89586">
        <ele>698.5</ele>
        <time>2019-01-31T05:17:57Z</time>
      </trkpt>
      <trkpt lat="42.03015" lon="0.89581">
        <ele>695.3</ele>
        <time>2019-01-31T05:18:02Z</time>
      </trkpt>
      <trkpt lat="42.03008" lon="0.8957">
        <ele>690.9</ele>
        <time>2019-01-31T05:18:08Z</time>
      </trkpt>
      <trkpt lat="42.0301" lon="0.89554">
        <ele>688.5</ele>
        <time>2019-01-31T05:18:15Z</time>
      </trkpt>
      <trkpt lat="42.03015" lon="0.89543">
        <ele>686.1</ele>
        <time>2019-01-31T05:18:21Z</time>
      </trkpt>
      <trkpt lat="42.03019" lon="0.8953">
        <ele>683.3</ele>
        <time>2019-01-31T05:18:26Z</time>
      </trkpt>
      <trkpt lat="42.03024" lon="0.89517">
        <ele>681.7</ele>
        <time>2019-01-31T05:18:33Z</time>
      </trkpt>
      <trkpt lat="42.03032" lon="0.89509">
        <ele>679.8</ele>
        <time>2019-01-31T05:18:39Z</time>
      </trkpt>
      <trkpt lat="42.03041" lon="0.895">
        <ele>678.4</ele>
        <time>2019-01-31T05:18:45Z</time>
      </trkpt>
      <trkpt lat="42.0305" lon="0.89489">
        <ele>677</ele>
        <time>2019-01-31T05:18:52Z</time>
      </trkpt>
      <trkpt lat="42.03058" lon="0.89478">
        <ele>675.5</ele>
        <time>2019-01-31T05:18:58Z</time>
      </trkpt>
      <trkpt lat="42.03065" lon="0.89468">
        <ele>674</ele>
        <time>2019-01-31T05:19:04Z</time>
      </trkpt>
      <trkpt lat="42.03073" lon="0.8946">
        <ele>673.2</ele>
        <time>2019-01-31T05:19:10Z</time>
      </trkpt>
      <trkpt lat="42.03078" lon="0.89447">
        <ele>670.2</ele>
        <time>2019-01-31T05:19:16Z</time>
      </trkpt>
      <trkpt lat="42.03088" lon="0.89442">
        <ele>670.2</ele>
        <time>2019-01-31T05:19:22Z</time>
      </trkpt>
      <trkpt lat="42.03096" lon="0.89434">
        <ele>669.8</ele>
        <time>2019-01-31T05:19:28Z</time>
      </trkpt>
      <trkpt lat="42.03101" lon="0.89424">
        <ele>669.2</ele>
        <time>2019-01-31T05:19:33Z</time>
      </trkpt>
      <trkpt lat="42.03103" lon="0.89409">
        <ele>667.9</ele>
        <time>2019-01-31T05:19:39Z</time>
      </trkpt>
      <trkpt lat="42.03103" lon="0.89396">
        <ele>666.3</ele>
        <time>2019-01-31T05:19:45Z</time>
      </trkpt>
      <trkpt lat="42.03103" lon="0.89383">
        <ele>664.4</ele>
        <time>2019-01-31T05:19:51Z</time>
      </trkpt>
      <trkpt lat="42.03101" lon="0.89367">
        <ele>663</ele>
        <time>2019-01-31T05:19:57Z</time>
      </trkpt>
      <trkpt lat="42.031" lon="0.89354">
        <ele>661.1</ele>
        <time>2019-01-31T05:20:03Z</time>
      </trkpt>
      <trkpt lat="42.03095" lon="0.89346">
        <ele>658.3</ele>
        <time>2019-01-31T05:20:07Z</time>
      </trkpt>
      <trkpt lat="42.03087" lon="0.89339">
        <ele>654.3</ele>
        <time>2019-01-31T05:20:13Z</time>
      </trkpt>
      <trkpt lat="42.03082" lon="0.89325">
        <ele>650.6</ele>
        <time>2019-01-31T05:20:20Z</time>
      </trkpt>
      <trkpt lat="42.03075" lon="0.89318">
        <ele>647.7</ele>
        <time>2019-01-31T05:20:25Z</time>
      </trkpt>
      <trkpt lat="42.03067" lon="0.89307">
        <ele>643.3</ele>
        <time>2019-01-31T05:20:31Z</time>
      </trkpt>
      <trkpt lat="42.0306" lon="0.89298">
        <ele>639.5</ele>
        <time>2019-01-31T05:20:37Z</time>
      </trkpt>
      <trkpt lat="42.03056" lon="0.89289">
        <ele>636.5</ele>
        <time>2019-01-31T05:20:41Z</time>
      </trkpt>
      <trkpt lat="42.03048" lon="0.89283">
        <ele>631.3</ele>
        <time>2019-01-31T05:20:46Z</time>
      </trkpt>
      <trkpt lat="42.03042" lon="0.89271">
        <ele>626</ele>
        <time>2019-01-31T05:20:53Z</time>
      </trkpt>
      <trkpt lat="42.03038" lon="0.89259">
        <ele>620.7</ele>
        <time>2019-01-31T05:20:58Z</time>
      </trkpt>
      <trkpt lat="42.03037" lon="0.89249">
        <ele>616.3</ele>
        <time>2019-01-31T05:21:02Z</time>
      </trkpt>
      <trkpt lat="42.03036" lon="0.89242">
        <ele>614</ele>
        <time>2019-01-31T05:21:05Z</time>
      </trkpt>
      <trkpt lat="42.03045" lon="0.89232">
        <ele>610.6</ele>
        <time>2019-01-31T05:21:12Z</time>
      </trkpt>
      <trkpt lat="42.0305" lon="0.8922">
        <ele>608.2</ele>
        <time>2019-01-31T05:21:17Z</time>
      </trkpt>
      <trkpt lat="42.03057" lon="0.89211">
        <ele>605.4</ele>
        <time>2019-01-31T05:21:23Z</time>
      </trkpt>
      <trkpt lat="42.03067" lon="0.89203">
        <ele>603.5</ele>
        <time>2019-01-31T05:21:30Z</time>
      </trkpt>
      <trkpt lat="42.03074" lon="0.89194">
        <ele>601.5</ele>
        <time>2019-01-31T05:21:35Z</time>
      </trkpt>
      <trkpt lat="42.03085" lon="0.89187">
        <ele>600</ele>
        <time>2019-01-31T05:21:42Z</time>
      </trkpt>
      <trkpt lat="42.03094" lon="0.89181">
        <ele>599.1</ele>
        <time>2019-01-31T05:21:48Z</time>
      </trkpt>
      <trkpt lat="42.03102" lon="0.89172">
        <ele>598.2</ele>
        <time>2019-01-31T05:21:54Z</time>
      </trkpt>
      <trkpt lat="42.03109" lon="0.89161">
        <ele>597.2</ele>
        <time>2019-01-31T05:22:00Z</time>
      </trkpt>
      <trkpt lat="42.03115" lon="0.89149">
        <ele>595.7</ele>
        <time>2019-01-31T05:22:06Z</time>
      </trkpt>
      <trkpt lat="42.03121" lon="0.89139">
        <ele>593.8</ele>
        <time>2019-01-31T05:22:12Z</time>
      </trkpt>
      <trkpt lat="42.03128" lon="0.89131">
        <ele>591.4</ele>
        <time>2019-01-31T05:22:17Z</time>
      </trkpt>
      <trkpt lat="42.03138" lon="0.89124">
        <ele>589.4</ele>
        <time>2019-01-31T05:22:23Z</time>
      </trkpt>
      <trkpt lat="42.03146" lon="0.89115">
        <ele>587.1</ele>
        <time>2019-01-31T05:22:29Z</time>
      </trkpt>
      <trkpt lat="42.03151" lon="0.89103">
        <ele>584.2</ele>
        <time>2019-01-31T05:22:35Z</time>
      </trkpt>
      <trkpt lat="42.03154" lon="0.8909">
        <ele>584.1</ele>
        <time>2019-01-31T05:22:41Z</time>
      </trkpt>
      <trkpt lat="42.03157" lon="0.89077">
        <ele>583.2</ele>
        <time>2019-01-31T05:22:47Z</time>
      </trkpt>
      <trkpt lat="42.03163" lon="0.89065">
        <ele>583.3</ele>
        <time>2019-01-31T05:22:53Z</time>
      </trkpt>
      <trkpt lat="42.0317" lon="0.89052">
        <ele>583.3</ele>
        <time>2019-01-31T05:23:00Z</time>
      </trkpt>
      <trkpt lat="42.03175" lon="0.8904">
        <ele>581.3</ele>
        <time>2019-01-31T05:23:06Z</time>
      </trkpt>
      <trkpt lat="42.03181" lon="0.8903">
        <ele>579.9</ele>
        <time>2019-01-31T05:23:11Z</time>
      </trkpt>
      <trkpt lat="42.03185" lon="0.89017">
        <ele>577.9</ele>
        <time>2019-01-31T05:23:17Z</time>
      </trkpt>
      <trkpt lat="42.03189" lon="0.89006">
        <ele>576.5</ele>
        <time>2019-01-31T05:23:22Z</time>
      </trkpt>
      <trkpt lat="42.03193" lon="0.88995">
        <ele>574</ele>
        <time>2019-01-31T05:23:27Z</time>
      </trkpt>
      <trkpt lat="42.03196" lon="0.88982">
        <ele>571.3</ele>
        <time>2019-01-31T05:23:33Z</time>
      </trkpt>
      <trkpt lat="42.032" lon="0.8897">
        <ele>569.2</ele>
        <time>2019-01-31T05:23:39Z</time>
      </trkpt>
      <trkpt lat="42.03204" lon="0.88956">
        <ele>566.4</ele>
        <time>2019-01-31T05:23:45Z</time>
      </trkpt>
      <trkpt lat="42.03212" lon="0.88947">
        <ele>564.4</ele>
        <time>2019-01-31T05:23:51Z</time>
      </trkpt>
      <trkpt lat="42.03217" lon="0.88937">
        <ele>561.1</ele>
        <time>2019-01-31T05:23:56Z</time>
      </trkpt>
      <trkpt lat="42.03224" lon="0.88925">
        <ele>557.8</ele>
        <time>2019-01-31T05:24:02Z</time>
      </trkpt>
      <trkpt lat="42.03231" lon="0.88916">
        <ele>554.9</ele>
        <time>2019-01-31T05:24:08Z</time>
      </trkpt>
      <trkpt lat="42.03238" lon="0.88906">
        <ele>552</ele>
        <time>2019-01-31T05:24:14Z</time>
      </trkpt>
      <trkpt lat="42.03244" lon="0.88897">
        <ele>548.1</ele>
        <time>2019-01-31T05:24:19Z</time>
      </trkpt>
      <trkpt lat="42.03251" lon="0.88887">
        <ele>544.7</ele>
        <time>2019-01-31T05:24:25Z</time>
      </trkpt>
      <trkpt lat="42.03258" lon="0.88877">
        <ele>542.3</ele>
        <time>2019-01-31T05:24:31Z</time>
      </trkpt>
      <trkpt lat="42.03268" lon="0.8887">
        <ele>541</ele>
        <time>2019-01-31T05:24:37Z</time>
      </trkpt>
      <trkpt lat="42.03277" lon="0.88863">
        <ele>539.1</ele>
        <time>2019-01-31T05:24:43Z</time>
      </trkpt>
      <trkpt lat="42.03285" lon="0.88857">
        <ele>537.6</ele>
        <time>2019-01-31T05:24:48Z</time>
      </trkpt>
      <trkpt lat="42.03294" lon="0.88851">
        <ele>535.2</ele>
        <time>2019-01-31T05:24:54Z</time>
      </trkpt>
      <trkpt lat="42.03303" lon="0.88843">
        <ele>531.9</ele>
        <time>2019-01-31T05:25:00Z</time>
      </trkpt>
      <trkpt lat="42.03305" lon="0.88836">
        <ele>528</ele>
        <time>2019-01-31T05:25:04Z</time>
      </trkpt>
      <trkpt lat="42.033" lon="0.88828">
        <ele>524.5</ele>
        <time>2019-01-31T05:25:08Z</time>
      </trkpt>
      <trkpt lat="42.03291" lon="0.88822">
        <ele>522.7</ele>
        <time>2019-01-31T05:25:13Z</time>
      </trkpt>
      <trkpt lat="42.03283" lon="0.88819">
        <ele>520.7</ele>
        <time>2019-01-31T05:25:19Z</time>
      </trkpt>
      <trkpt lat="42.03273" lon="0.88819">
        <ele>519.8</ele>
        <time>2019-01-31T05:25:24Z</time>
      </trkpt>
      <trkpt lat="42.03263" lon="0.88811">
        <ele>516.4</ele>
        <time>2019-01-31T05:25:31Z</time>
      </trkpt>
      <trkpt lat="42.03267" lon="0.88801">
        <ele>514</ele>
        <time>2019-01-31T05:25:35Z</time>
      </trkpt>
      <trkpt lat="42.03275" lon="0.88797">
        <ele>512.5</ele>
        <time>2019-01-31T05:25:41Z</time>
      </trkpt>
      <trkpt lat="42.03284" lon="0.8879">
        <ele>510.6</ele>
        <time>2019-01-31T05:25:46Z</time>
      </trkpt>
      <trkpt lat="42.03293" lon="0.88784">
        <ele>507.8</ele>
        <time>2019-01-31T05:25:52Z</time>
      </trkpt>
      <trkpt lat="42.03293" lon="0.88773">
        <ele>502.9</ele>
        <time>2019-01-31T05:25:57Z</time>
      </trkpt>
      <trkpt lat="42.0329" lon="0.88761">
        <ele>499.2</ele>
        <time>2019-01-31T05:26:02Z</time>
      </trkpt>
      <trkpt lat="42.03282" lon="0.88755">
        <ele>496.2</ele>
        <time>2019-01-31T05:26:07Z</time>
      </trkpt>
      <trkpt lat="42.03284" lon="0.88744">
        <ele>493.3</ele>
        <time>2019-01-31T05:26:12Z</time>
      </trkpt>
      <trkpt lat="42.03293" lon="0.88739">
        <ele>491.4</ele>
        <time>2019-01-31T05:26:17Z</time>
      </trkpt>
      <trkpt lat="42.03302" lon="0.88735">
        <ele>489.1</ele>
        <time>2019-01-31T05:26:23Z</time>
      </trkpt>
      <trkpt lat="42.03308" lon="0.88728">
        <ele>486.2</ele>
        <time>2019-01-31T05:26:27Z</time>
      </trkpt>
      <trkpt lat="42.033" lon="0.8872">
        <ele>484.6</ele>
        <time>2019-01-31T05:26:33Z</time>
      </trkpt>
      <trkpt lat="42.03292" lon="0.88711">
        <ele>481.8</ele>
        <time>2019-01-31T05:26:39Z</time>
      </trkpt>
      <trkpt lat="42.03285" lon="0.88701">
        <ele>479</ele>
        <time>2019-01-31T05:26:45Z</time>
      </trkpt>
      <trkpt lat="42.03276" lon="0.88692">
        <ele>475.6</ele>
        <time>2019-01-31T05:26:51Z</time>
      </trkpt>
      <trkpt lat="42.0327" lon="0.88684">
        <ele>474.2</ele>
        <time>2019-01-31T05:26:56Z</time>
      </trkpt>
      <trkpt lat="42.03263" lon="0.88677">
        <ele>474.1</ele>
        <time>2019-01-31T05:27:01Z</time>
      </trkpt>
      <trkpt lat="42.0326" lon="0.8867">
        <ele>472.1</ele>
        <time>2019-01-31T05:27:04Z</time>
      </trkpt>
      <trkpt lat="42.03263" lon="0.88659">
        <ele>469.7</ele>
        <time>2019-01-31T05:27:09Z</time>
      </trkpt>
      <trkpt lat="42.0327" lon="0.8865">
        <ele>466.5</ele>
        <time>2019-01-31T05:27:15Z</time>
      </trkpt>
      <trkpt lat="42.03278" lon="0.88641">
        <ele>462.2</ele>
        <time>2019-01-31T05:27:21Z</time>
      </trkpt>
      <trkpt lat="42.03287" lon="0.88634">
        <ele>458.8</ele>
        <time>2019-01-31T05:27:27Z</time>
      </trkpt>
      <trkpt lat="42.03295" lon="0.88627">
        <ele>453.9</ele>
        <time>2019-01-31T05:27:33Z</time>
      </trkpt>
      <trkpt lat="42.03298" lon="0.88616">
        <ele>449.1</ele>
        <time>2019-01-31T05:27:37Z</time>
      </trkpt>
      <trkpt lat="42.03306" lon="0.88609">
        <ele>446.7</ele>
        <time>2019-01-31T05:27:43Z</time>
      </trkpt>
      <trkpt lat="42.03317" lon="0.88609">
        <ele>445.3</ele>
        <time>2019-01-31T05:27:49Z</time>
      </trkpt>
      <trkpt lat="42.03328" lon="0.88609">
        <ele>444.4</ele>
        <time>2019-01-31T05:27:55Z</time>
      </trkpt>
      <trkpt lat="42.03337" lon="0.88606">
        <ele>442.4</ele>
        <time>2019-01-31T05:28:01Z</time>
      </trkpt>
      <trkpt lat="42.03348" lon="0.88603">
        <ele>440.4</ele>
        <time>2019-01-31T05:28:07Z</time>
      </trkpt>
      <trkpt lat="42.03358" lon="0.886">
        <ele>439</ele>
        <time>2019-01-31T05:28:13Z</time>
      </trkpt>
      <trkpt lat="42.03367" lon="0.88594">
        <ele>436.1</ele>
        <time>2019-01-31T05:28:19Z</time>
      </trkpt>
      <trkpt lat="42.03374" lon="0.88585">
        <ele>433.8</ele>
        <time>2019-01-31T05:28:25Z</time>
      </trkpt>
      <trkpt lat="42.03367" lon="0.88582">
        <ele>432.4</ele>
        <time>2019-01-31T05:28:29Z</time>
      </trkpt>
      <trkpt lat="42.03357" lon="0.88575">
        <ele>429.5</ele>
        <time>2019-01-31T05:28:35Z</time>
      </trkpt>
      <trkpt lat="42.03348" lon="0.8857">
        <ele>427.5</ele>
        <time>2019-01-31T05:28:41Z</time>
      </trkpt>
      <trkpt lat="42.03355" lon="0.88562">
        <ele>426</ele>
        <time>2019-01-31T05:28:46Z</time>
      </trkpt>
      <trkpt lat="42.03363" lon="0.88558">
        <ele>425</ele>
        <time>2019-01-31T05:28:52Z</time>
      </trkpt>
      <trkpt lat="42.03371" lon="0.88551">
        <ele>422.6</ele>
        <time>2019-01-31T05:28:57Z</time>
      </trkpt>
      <trkpt lat="42.03379" lon="0.88545">
        <ele>420.8</ele>
        <time>2019-01-31T05:29:02Z</time>
      </trkpt>
      <trkpt lat="42.03386" lon="0.88537">
        <ele>418.9</ele>
        <time>2019-01-31T05:29:07Z</time>
      </trkpt>
      <trkpt lat="42.03389" lon="0.88532">
        <ele>416.9</ele>
        <time>2019-01-31T05:29:10Z</time>
      </trkpt>
      <trkpt lat="42.03383" lon="0.88524">
        <ele>413.6</ele>
        <time>2019-01-31T05:29:15Z</time>
      </trkpt>
      <trkpt lat="42.03391" lon="0.8852">
        <ele>411.7</ele>
        <time>2019-01-31T05:29:20Z</time>
      </trkpt>
      <trkpt lat="42.03392" lon="0.88511">
        <ele>409.2</ele>
        <time>2019-01-31T05:29:24Z</time>
      </trkpt>
      <trkpt lat="42.03394" lon="0.88501">
        <ele>406.8</ele>
        <time>2019-01-31T05:29:28Z</time>
      </trkpt>
      <trkpt lat="42.03387" lon="0.88494">
        <ele>405</ele>
        <time>2019-01-31T05:29:33Z</time>
      </trkpt>
      <trkpt lat="42.0338" lon="0.88487">
        <ele>403.4</ele>
        <time>2019-01-31T05:29:38Z</time>
      </trkpt>
      <trkpt lat="42.03385" lon="0.88477">
        <ele>400.5</ele>
        <time>2019-01-31T05:29:43Z</time>
      </trkpt>
      <trkpt lat="42.03392" lon="0.88468">
        <ele>398.1</ele>
        <time>2019-01-31T05:29:49Z</time>
      </trkpt>
      <trkpt lat="42.03401" lon="0.88463">
        <ele>396.3</ele>
        <time>2019-01-31T05:29:54Z</time>
      </trkpt>
      <trkpt lat="42.03409" lon="0.88463">
        <ele>393.4</ele>
        <time>2019-01-31T05:29:59Z</time>
      </trkpt>
      <trkpt lat="42.03417" lon="0.88461">
        <ele>391.5</ele>
        <time>2019-01-31T05:30:03Z</time>
      </trkpt>
      <trkpt lat="42.03425" lon="0.88468">
        <ele>389.6</ele>
        <time>2019-01-31T05:30:09Z</time>
      </trkpt>
      <trkpt lat="42.03433" lon="0.88477">
        <ele>387.2</ele>
        <time>2019-01-31T05:30:15Z</time>
      </trkpt>
      <trkpt lat="42.03443" lon="0.88485">
        <ele>384.8</ele>
        <time>2019-01-31T05:30:21Z</time>
      </trkpt>
      <trkpt lat="42.03451" lon="0.88479">
        <ele>382.4</ele>
        <time>2019-01-31T05:30:27Z</time>
      </trkpt>
      <trkpt lat="42.03459" lon="0.88473">
        <ele>380.8</ele>
        <time>2019-01-31T05:30:32Z</time>
      </trkpt>
      <trkpt lat="42.03467" lon="0.88463">
        <ele>378.9</ele>
        <time>2019-01-31T05:30:38Z</time>
      </trkpt>
      <trkpt lat="42.03474" lon="0.88452">
        <ele>377</ele>
        <time>2019-01-31T05:30:44Z</time>
      </trkpt>
      <trkpt lat="42.03483" lon="0.88446">
        <ele>374.6</ele>
        <time>2019-01-31T05:30:50Z</time>
      </trkpt>
      <trkpt lat="42.0349" lon="0.88438">
        <ele>371.7</ele>
        <time>2019-01-31T05:30:55Z</time>
      </trkpt>
      <trkpt lat="42.03488" lon="0.88428">
        <ele>368.9</ele>
        <time>2019-01-31T05:31:00Z</time>
      </trkpt>
      <trkpt lat="42.0348" lon="0.88421">
        <ele>366.5</ele>
        <time>2019-01-31T05:31:05Z</time>
      </trkpt>
      <trkpt lat="42.03472" lon="0.88414">
        <ele>363.5</ele>
        <time>2019-01-31T05:31:11Z</time>
      </trkpt>
      <trkpt lat="42.03464" lon="0.88408">
        <ele>362.6</ele>
        <time>2019-01-31T05:31:16Z</time>
      </trkpt>
      <trkpt lat="42.03456" lon="0.88404">
        <ele>362.1</ele>
        <time>2019-01-31T05:31:21Z</time>
      </trkpt>
      <trkpt lat="42.03449" lon="0.88394">
        <ele>356.8</ele>
        <time>2019-01-31T05:31:26Z</time>
      </trkpt>
      <trkpt lat="42.0345" lon="0.88383">
        <ele>352.9</ele>
        <time>2019-01-31T05:31:31Z</time>
      </trkpt>
      <trkpt lat="42.03456" lon="0.88374">
        <ele>353.4</ele>
        <time>2019-01-31T05:31:37Z</time>
      </trkpt>
      <trkpt lat="42.03465" lon="0.88375">
        <ele>352.9</ele>
        <time>2019-01-31T05:31:42Z</time>
      </trkpt>
      <trkpt lat="42.03475" lon="0.88379">
        <ele>353</ele>
        <time>2019-01-31T05:31:47Z</time>
      </trkpt>
      <trkpt lat="42.03484" lon="0.8838">
        <ele>352.5</ele>
        <time>2019-01-31T05:31:53Z</time>
      </trkpt>
      <trkpt lat="42.03493" lon="0.88379">
        <ele>352</ele>
        <time>2019-01-31T05:31:58Z</time>
      </trkpt>
      <trkpt lat="42.03502" lon="0.88378">
        <ele>352</ele>
        <time>2019-01-31T05:32:03Z</time>
      </trkpt>
      <trkpt lat="42.03512" lon="0.88376">
        <ele>351.5</ele>
        <time>2019-01-31T05:32:09Z</time>
      </trkpt>
      <trkpt lat="42.03517" lon="0.8838">
        <ele>350.2</ele>
        <time>2019-01-31T05:32:12Z</time>
      </trkpt>
      <trkpt lat="42.03488" lon="0.88384">
        <ele>352</ele>
        <time>2019-01-31T05:32:28Z</time>
      </trkpt>
      <trkpt lat="42.03505" lon="0.88389">
        <ele>351.6</ele>
        <time>2019-01-31T05:32:38Z</time>
      </trkpt>
      <trkpt lat="42.03529" lon="0.88392">
        <ele>353.4</ele>
        <time>2019-01-31T05:32:52Z</time>
      </trkpt>
      <trkpt lat="42.03536" lon="0.88389">
        <ele>352.6</ele>
        <time>2019-01-31T05:32:56Z</time>
      </trkpt>
      <trkpt lat="42.0355" lon="0.8839">
        <ele>352</ele>
        <time>2019-01-31T05:33:04Z</time>
      </trkpt>
      <trkpt lat="42.03555" lon="0.88388">
        <ele>351</ele>
        <time>2019-01-31T05:33:07Z</time>
      </trkpt>
      <trkpt lat="42.03555" lon="0.88388">
        <ele>349.6</ele>
        <time>2019-01-31T05:33:07Z</time>
      </trkpt>
      <trkpt lat="42.03555" lon="0.88388">
        <ele>349.6</ele>
        <time>2019-01-31T05:33:07Z</time>
      </trkpt>
      <trkpt lat="42.03555" lon="0.88388">
        <ele>350.5</ele>
        <time>2019-01-31T05:33:07Z</time>
      </trkpt>
      <trkpt lat="42.03584" lon="0.88393">
        <ele>350.6</ele>
        <time>2019-01-31T05:33:23Z</time>
      </trkpt>
      <trkpt lat="42.0359" lon="0.88395">
        <ele>351</ele>
        <time>2019-01-31T05:33:27Z</time>
      </trkpt>
      <trkpt lat="42.036" lon="0.88397">
        <ele>351</ele>
        <time>2019-01-31T05:33:33Z</time>
      </trkpt>
      <trkpt lat="42.03618" lon="0.88402">
        <ele>351.6</ele>
        <time>2019-01-31T05:33:43Z</time>
      </trkpt>
      <trkpt lat="42.03644" lon="0.88403">
        <ele>351.1</ele>
        <time>2019-01-31T05:33:58Z</time>
      </trkpt>
      <trkpt lat="42.0365" lon="0.88403">
        <ele>351.5</ele>
        <time>2019-01-31T05:34:02Z</time>
      </trkpt>
      <trkpt lat="42.03654" lon="0.88403">
        <ele>350.6</ele>
        <time>2019-01-31T05:34:04Z</time>
      </trkpt>
      <trkpt lat="42.03656" lon="0.88408">
        <ele>351</ele>
        <time>2019-01-31T05:34:06Z</time>
      </trkpt>
      <trkpt lat="42.03662" lon="0.88408">
        <ele>351</ele>
        <time>2019-01-31T05:34:10Z</time>
      </trkpt>
      <trkpt lat="42.03678" lon="0.88403">
        <ele>351.1</ele>
        <time>2019-01-31T05:34:19Z</time>
      </trkpt>
      <trkpt lat="42.03676" lon="0.8839">
        <ele>351</ele>
        <time>2019-01-31T05:34:25Z</time>
      </trkpt>
      <trkpt lat="42.03699" lon="0.88396">
        <ele>351</ele>
        <time>2019-01-31T05:34:38Z</time>
      </trkpt>
      <trkpt lat="42.03704" lon="0.88399">
        <ele>351</ele>
        <time>2019-01-31T05:34:41Z</time>
      </trkpt>
      <trkpt lat="42.03725" lon="0.88405">
        <ele>350.6</ele>
        <time>2019-01-31T05:34:53Z</time>
      </trkpt>
      <trkpt lat="42.03742" lon="0.88411">
        <ele>350.1</ele>
        <time>2019-01-31T05:35:03Z</time>
      </trkpt>
      <trkpt lat="42.03757" lon="0.88412">
        <ele>350.2</ele>
        <time>2019-01-31T05:35:12Z</time>
      </trkpt>
      <trkpt lat="42.03761" lon="0.88413">
        <ele>350.2</ele>
        <time>2019-01-31T05:35:14Z</time>
      </trkpt>
      <trkpt lat="42.03779" lon="0.88417">
        <ele>350.2</ele>
        <time>2019-01-31T05:35:25Z</time>
      </trkpt>
      <trkpt lat="42.03783" lon="0.88418">
        <ele>350.5</ele>
        <time>2019-01-31T05:35:27Z</time>
      </trkpt>
      <trkpt lat="42.03806" lon="0.88423">
        <ele>350.6</ele>
        <time>2019-01-31T05:35:40Z</time>
      </trkpt>
      <trkpt lat="42.03811" lon="0.88424">
        <ele>350.5</ele>
        <time>2019-01-31T05:35:43Z</time>
      </trkpt>
      <trkpt lat="42.03829" lon="0.88432">
        <ele>351.5</ele>
        <time>2019-01-31T05:35:54Z</time>
      </trkpt>
      <trkpt lat="42.03835" lon="0.88433">
        <ele>351.5</ele>
        <time>2019-01-31T05:35:57Z</time>
      </trkpt>
      <trkpt lat="42.03851" lon="0.88439">
        <ele>351</ele>
        <time>2019-01-31T05:36:07Z</time>
      </trkpt>
      <trkpt lat="42.03875" lon="0.88443">
        <ele>352.1</ele>
        <time>2019-01-31T05:36:21Z</time>
      </trkpt>
      <trkpt lat="42.03891" lon="0.88452">
        <ele>352.9</ele>
        <time>2019-01-31T05:36:31Z</time>
      </trkpt>
      <trkpt lat="42.03901" lon="0.88465">
        <ele>353</ele>
        <time>2019-01-31T05:36:39Z</time>
      </trkpt>
      <trkpt lat="42.03912" lon="0.88461">
        <ele>352</ele>
        <time>2019-01-31T05:36:45Z</time>
      </trkpt>
      <trkpt lat="42.03925" lon="0.88456">
        <ele>352</ele>
        <time>2019-01-31T05:36:53Z</time>
      </trkpt>
      <trkpt lat="42.03932" lon="0.88429">
        <ele>350.6</ele>
        <time>2019-01-31T05:37:05Z</time>
      </trkpt>
      <trkpt lat="42.03926" lon="0.88413">
        <ele>350.6</ele>
        <time>2019-01-31T05:37:13Z</time>
      </trkpt>
      <trkpt lat="42.03919" lon="0.88405">
        <ele>351</ele>
        <time>2019-01-31T05:37:18Z</time>
      </trkpt>
      <trkpt lat="42.0389" lon="0.88387">
        <ele>349.2</ele>
        <time>2019-01-31T05:37:36Z</time>
      </trkpt>
      <trkpt lat="42.03869" lon="0.88361">
        <ele>351.1</ele>
        <time>2019-01-31T05:37:52Z</time>
      </trkpt>
      <trkpt lat="42.03841" lon="0.88353">
        <ele>354.4</ele>
        <time>2019-01-31T05:38:09Z</time>
      </trkpt>
      <trkpt lat="42.03839" lon="0.88351">
        <ele>354.4</ele>
        <time>2019-01-31T05:38:10Z</time>
      </trkpt>
      <trkpt lat="42.03822" lon="0.8832">
        <ele>353.9</ele>
        <time>2019-01-31T05:38:27Z</time>
      </trkpt>
      <trkpt lat="42.03813" lon="0.88316">
        <ele>355.9</ele>
        <time>2019-01-31T05:38:32Z</time>
      </trkpt>
      <trkpt lat="42.03802" lon="0.88318">
        <ele>358.7</ele>
        <time>2019-01-31T05:38:38Z</time>
      </trkpt>
      <trkpt lat="42.03781" lon="0.88297">
        <ele>357.4</ele>
        <time>2019-01-31T05:38:54Z</time>
      </trkpt>
      <trkpt lat="42.03754" lon="0.88286">
        <ele>357.7</ele>
        <time>2019-01-31T05:39:09Z</time>
      </trkpt>
      <trkpt lat="42.03728" lon="0.88279">
        <ele>360.6</ele>
        <time>2019-01-31T05:39:25Z</time>
      </trkpt>
      <trkpt lat="42.03701" lon="0.88281">
        <ele>358.3</ele>
        <time>2019-01-31T05:39:40Z</time>
      </trkpt>
      <trkpt lat="42.03695" lon="0.88284">
        <ele>370.8</ele>
        <time>2019-01-31T05:39:44Z</time>
      </trkpt>
      <trkpt lat="42.03684" lon="0.88282">
        <ele>373.1</ele>
        <time>2019-01-31T05:39:50Z</time>
      </trkpt>
      <trkpt lat="42.03643" lon="0.88285">
        <ele>371.8</ele>
        <time>2019-01-31T05:40:14Z</time>
      </trkpt>
      <trkpt lat="42.03597" lon="0.88272">
        <ele>370.7</ele>
        <time>2019-01-31T05:40:41Z</time>
      </trkpt>
      <trkpt lat="42.03561" lon="0.88261">
        <ele>370.2</ele>
        <time>2019-01-31T05:41:01Z</time>
      </trkpt>
      <trkpt lat="42.03539" lon="0.88256">
        <ele>370.7</ele>
        <time>2019-01-31T05:41:14Z</time>
      </trkpt>
      <trkpt lat="42.03507" lon="0.88249">
        <ele>373.7</ele>
        <time>2019-01-31T05:41:33Z</time>
      </trkpt>
      <trkpt lat="42.03485" lon="0.88242">
        <ele>374.7</ele>
        <time>2019-01-31T05:41:46Z</time>
      </trkpt>
      <trkpt lat="42.0348" lon="0.88238">
        <ele>375.2</ele>
        <time>2019-01-31T05:41:49Z</time>
      </trkpt>
      <trkpt lat="42.03472" lon="0.88236">
        <ele>380</ele>
        <time>2019-01-31T05:41:54Z</time>
      </trkpt>
      <trkpt lat="42.03471" lon="0.88237">
        <ele>378.5</ele>
        <time>2019-01-31T05:41:54Z</time>
      </trkpt>
      <trkpt lat="42.03468" lon="0.88236">
        <ele>377.6</ele>
        <time>2019-01-31T05:41:56Z</time>
      </trkpt>
      <trkpt lat="42.03468" lon="0.88235">
        <ele>374.2</ele>
        <time>2019-01-31T05:41:56Z</time>
      </trkpt>
      <trkpt lat="42.03466" lon="0.88235">
        <ele>380.9</ele>
        <time>2019-01-31T05:41:57Z</time>
      </trkpt>
      <trkpt lat="42.03465" lon="0.88234">
        <ele>378.9</ele>
        <time>2019-01-31T05:41:58Z</time>
      </trkpt>
      <trkpt lat="42.03447" lon="0.88228">
        <ele>380.3</ele>
        <time>2019-01-31T05:42:08Z</time>
      </trkpt>
      <trkpt lat="42.03429" lon="0.88222">
        <ele>378.9</ele>
        <time>2019-01-31T05:42:19Z</time>
      </trkpt>
      <trkpt lat="42.03427" lon="0.88222">
        <ele>379</ele>
        <time>2019-01-31T05:42:20Z</time>
      </trkpt>
      <trkpt lat="42.03418" lon="0.88226">
        <ele>380.8</ele>
        <time>2019-01-31T05:42:26Z</time>
      </trkpt>
      <trkpt lat="42.03404" lon="0.88217">
        <ele>382.8</ele>
        <time>2019-01-31T05:42:35Z</time>
      </trkpt>
      <trkpt lat="42.03391" lon="0.88206">
        <ele>386.2</ele>
        <time>2019-01-31T05:42:43Z</time>
      </trkpt>
      <trkpt lat="42.0339" lon="0.88205">
        <ele>386.6</ele>
        <time>2019-01-31T05:42:44Z</time>
      </trkpt>
      <trkpt lat="42.03381" lon="0.88196">
        <ele>390</ele>
        <time>2019-01-31T05:42:51Z</time>
      </trkpt>
      <trkpt lat="42.0338" lon="0.88195">
        <ele>390.1</ele>
        <time>2019-01-31T05:42:51Z</time>
      </trkpt>
      <trkpt lat="42.03375" lon="0.88192">
        <ele>391.4</ele>
        <time>2019-01-31T05:42:54Z</time>
      </trkpt>
      <trkpt lat="42.03364" lon="0.88185">
        <ele>394.4</ele>
        <time>2019-01-31T05:43:01Z</time>
      </trkpt>
      <trkpt lat="42.03358" lon="0.88187">
        <ele>395.8</ele>
        <time>2019-01-31T05:43:05Z</time>
      </trkpt>
      <trkpt lat="42.03356" lon="0.88185">
        <ele>396.7</ele>
        <time>2019-01-31T05:43:06Z</time>
      </trkpt>
      <trkpt lat="42.03349" lon="0.88184">
        <ele>400.5</ele>
        <time>2019-01-31T05:43:10Z</time>
      </trkpt>
      <trkpt lat="42.03344" lon="0.8818">
        <ele>403.5</ele>
        <time>2019-01-31T05:43:13Z</time>
      </trkpt>
      <trkpt lat="42.03342" lon="0.88176">
        <ele>403.9</ele>
        <time>2019-01-31T05:43:15Z</time>
      </trkpt>
      <trkpt lat="42.03341" lon="0.88177">
        <ele>404.5</ele>
        <time>2019-01-31T05:43:16Z</time>
      </trkpt>
      <trkpt lat="42.03331" lon="0.88178">
        <ele>405</ele>
        <time>2019-01-31T05:43:22Z</time>
      </trkpt>
      <trkpt lat="42.0331" lon="0.88178">
        <ele>405</ele>
        <time>2019-01-31T05:43:34Z</time>
      </trkpt>
      <trkpt lat="42.03305" lon="0.88177">
        <ele>405.3</ele>
        <time>2019-01-31T05:43:37Z</time>
      </trkpt>
      <trkpt lat="42.03303" lon="0.88183">
        <ele>405.9</ele>
        <time>2019-01-31T05:43:39Z</time>
      </trkpt>
      <trkpt lat="42.03298" lon="0.88188">
        <ele>407.4</ele>
        <time>2019-01-31T05:43:43Z</time>
      </trkpt>
      <trkpt lat="42.03285" lon="0.88193">
        <ele>408.8</ele>
        <time>2019-01-31T05:43:51Z</time>
      </trkpt>
      <trkpt lat="42.03281" lon="0.88194">
        <ele>407.8</ele>
        <time>2019-01-31T05:43:53Z</time>
      </trkpt>
      <trkpt lat="42.03277" lon="0.88194">
        <ele>406.8</ele>
        <time>2019-01-31T05:43:55Z</time>
      </trkpt>
      <trkpt lat="42.03268" lon="0.88199">
        <ele>407.7</ele>
        <time>2019-01-31T05:44:01Z</time>
      </trkpt>
      <trkpt lat="42.03258" lon="0.88208">
        <ele>410.6</ele>
        <time>2019-01-31T05:44:08Z</time>
      </trkpt>
      <trkpt lat="42.03255" lon="0.88203">
        <ele>411.7</ele>
        <time>2019-01-31T05:44:10Z</time>
      </trkpt>
      <trkpt lat="42.03257" lon="0.882">
        <ele>412.5</ele>
        <time>2019-01-31T05:44:12Z</time>
      </trkpt>
      <trkpt lat="42.0326" lon="0.88191">
        <ele>414</ele>
        <time>2019-01-31T05:44:16Z</time>
      </trkpt>
      <trkpt lat="42.0325" lon="0.88196">
        <ele>416.5</ele>
        <time>2019-01-31T05:44:23Z</time>
      </trkpt>
      <trkpt lat="42.03245" lon="0.88201">
        <ele>419.4</ele>
        <time>2019-01-31T05:44:26Z</time>
      </trkpt>
      <trkpt lat="42.03243" lon="0.8819">
        <ele>422.7</ele>
        <time>2019-01-31T05:44:31Z</time>
      </trkpt>
      <trkpt lat="42.03244" lon="0.88183">
        <ele>423.7</ele>
        <time>2019-01-31T05:44:34Z</time>
      </trkpt>
      <trkpt lat="42.03242" lon="0.88165">
        <ele>426.6</ele>
        <time>2019-01-31T05:44:42Z</time>
      </trkpt>
      <trkpt lat="42.03251" lon="0.8817">
        <ele>429.8</ele>
        <time>2019-01-31T05:44:47Z</time>
      </trkpt>
      <trkpt lat="42.03243" lon="0.88168">
        <ele>433.2</ele>
        <time>2019-01-31T05:44:51Z</time>
      </trkpt>
      <trkpt lat="42.03239" lon="0.88163">
        <ele>435.1</ele>
        <time>2019-01-31T05:44:54Z</time>
      </trkpt>
      <trkpt lat="42.03236" lon="0.88147">
        <ele>438.5</ele>
        <time>2019-01-31T05:45:01Z</time>
      </trkpt>
      <trkpt lat="42.03232" lon="0.88144">
        <ele>442</ele>
        <time>2019-01-31T05:45:04Z</time>
      </trkpt>
      <trkpt lat="42.0323" lon="0.88144">
        <ele>443.9</ele>
        <time>2019-01-31T05:45:05Z</time>
      </trkpt>
      <trkpt lat="42.03231" lon="0.88132">
        <ele>447.7</ele>
        <time>2019-01-31T05:45:10Z</time>
      </trkpt>
      <trkpt lat="42.03229" lon="0.88119">
        <ele>450.6</ele>
        <time>2019-01-31T05:45:16Z</time>
      </trkpt>
      <trkpt lat="42.03227" lon="0.88113">
        <ele>451.1</ele>
        <time>2019-01-31T05:45:18Z</time>
      </trkpt>
      <trkpt lat="42.03209" lon="0.88082">
        <ele>451.6</ele>
        <time>2019-01-31T05:45:35Z</time>
      </trkpt>
      <trkpt lat="42.03201" lon="0.8808">
        <ele>453.5</ele>
        <time>2019-01-31T05:45:39Z</time>
      </trkpt>
      <trkpt lat="42.03185" lon="0.88087">
        <ele>455.3</ele>
        <time>2019-01-31T05:45:49Z</time>
      </trkpt>
      <trkpt lat="42.03174" lon="0.88096">
        <ele>458.3</ele>
        <time>2019-01-31T05:45:57Z</time>
      </trkpt>
      <trkpt lat="42.03169" lon="0.88095">
        <ele>459.2</ele>
        <time>2019-01-31T05:45:59Z</time>
      </trkpt>
      <trkpt lat="42.03158" lon="0.88105">
        <ele>462.1</ele>
        <time>2019-01-31T05:46:07Z</time>
      </trkpt>
      <trkpt lat="42.0315" lon="0.88113">
        <ele>464.1</ele>
        <time>2019-01-31T05:46:13Z</time>
      </trkpt>
      <trkpt lat="42.03148" lon="0.88111">
        <ele>465.5</ele>
        <time>2019-01-31T05:46:14Z</time>
      </trkpt>
      <trkpt lat="42.03148" lon="0.88105">
        <ele>466.5</ele>
        <time>2019-01-31T05:46:17Z</time>
      </trkpt>
      <trkpt lat="42.03145" lon="0.88097">
        <ele>468.3</ele>
        <time>2019-01-31T05:46:20Z</time>
      </trkpt>
      <trkpt lat="42.03144" lon="0.88095">
        <ele>470.8</ele>
        <time>2019-01-31T05:46:21Z</time>
      </trkpt>
      <trkpt lat="42.03139" lon="0.88096">
        <ele>472.6</ele>
        <time>2019-01-31T05:46:24Z</time>
      </trkpt>
      <trkpt lat="42.03141" lon="0.88089">
        <ele>474.6</ele>
        <time>2019-01-31T05:46:27Z</time>
      </trkpt>
      <trkpt lat="42.03138" lon="0.88087">
        <ele>477.5</ele>
        <time>2019-01-31T05:46:30Z</time>
      </trkpt>
      <trkpt lat="42.03129" lon="0.88083">
        <ele>478.9</ele>
        <time>2019-01-31T05:46:35Z</time>
      </trkpt>
      <trkpt lat="42.03119" lon="0.8808">
        <ele>480.9</ele>
        <time>2019-01-31T05:46:41Z</time>
      </trkpt>
      <trkpt lat="42.03117" lon="0.88078">
        <ele>481.8</ele>
        <time>2019-01-31T05:46:42Z</time>
      </trkpt>
      <trkpt lat="42.03108" lon="0.88069">
        <ele>483.7</ele>
        <time>2019-01-31T05:46:49Z</time>
      </trkpt>
      <trkpt lat="42.03102" lon="0.88064">
        <ele>484.3</ele>
        <time>2019-01-31T05:46:53Z</time>
      </trkpt>
      <trkpt lat="42.03083" lon="0.88049">
        <ele>484.2</ele>
        <time>2019-01-31T05:47:05Z</time>
      </trkpt>
      <trkpt lat="42.03073" lon="0.88032">
        <ele>480.4</ele>
        <time>2019-01-31T05:47:14Z</time>
      </trkpt>
      <trkpt lat="42.0307" lon="0.88027">
        <ele>479.5</ele>
        <time>2019-01-31T05:47:17Z</time>
      </trkpt>
      <trkpt lat="42.03062" lon="0.88021">
        <ele>477.1</ele>
        <time>2019-01-31T05:47:22Z</time>
      </trkpt>
      <trkpt lat="42.03056" lon="0.88018">
        <ele>475.6</ele>
        <time>2019-01-31T05:47:26Z</time>
      </trkpt>
      <trkpt lat="42.03034" lon="0.88009">
        <ele>471.8</ele>
        <time>2019-01-31T05:47:39Z</time>
      </trkpt>
      <trkpt lat="42.03022" lon="0.88014">
        <ele>469.8</ele>
        <time>2019-01-31T05:47:46Z</time>
      </trkpt>
      <trkpt lat="42.03012" lon="0.88003">
        <ele>467.3</ele>
        <time>2019-01-31T05:47:53Z</time>
      </trkpt>
      <trkpt lat="42.0301" lon="0.88">
        <ele>466.9</ele>
        <time>2019-01-31T05:47:55Z</time>
      </trkpt>
      <trkpt lat="42.02983" lon="0.88015">
        <ele>466.9</ele>
        <time>2019-01-31T05:48:12Z</time>
      </trkpt>
      <trkpt lat="42.0298" lon="0.88018">
        <ele>467.8</ele>
        <time>2019-01-31T05:48:14Z</time>
      </trkpt>
      <trkpt lat="42.02968" lon="0.88017">
        <ele>470.8</ele>
        <time>2019-01-31T05:48:21Z</time>
      </trkpt>
      <trkpt lat="42.02967" lon="0.88019">
        <ele>471.8</ele>
        <time>2019-01-31T05:48:22Z</time>
      </trkpt>
      <trkpt lat="42.02959" lon="0.88021">
        <ele>474.6</ele>
        <time>2019-01-31T05:48:26Z</time>
      </trkpt>
      <trkpt lat="42.02956" lon="0.88037">
        <ele>476</ele>
        <time>2019-01-31T05:48:33Z</time>
      </trkpt>
      <trkpt lat="42.02953" lon="0.88048">
        <ele>477.5</ele>
        <time>2019-01-31T05:48:38Z</time>
      </trkpt>
      <trkpt lat="42.02932" lon="0.88063">
        <ele>479</ele>
        <time>2019-01-31T05:48:52Z</time>
      </trkpt>
      <trkpt lat="42.02921" lon="0.88061">
        <ele>479.9</ele>
        <time>2019-01-31T05:48:58Z</time>
      </trkpt>
      <trkpt lat="42.02917" lon="0.88059">
        <ele>480.8</ele>
        <time>2019-01-31T05:49:00Z</time>
      </trkpt>
      <trkpt lat="42.02911" lon="0.88054">
        <ele>482.7</ele>
        <time>2019-01-31T05:49:05Z</time>
      </trkpt>
      <trkpt lat="42.02911" lon="0.88052">
        <ele>483.3</ele>
        <time>2019-01-31T05:49:05Z</time>
      </trkpt>
      <trkpt lat="42.02909" lon="0.88041">
        <ele>486.6</ele>
        <time>2019-01-31T05:49:10Z</time>
      </trkpt>
      <trkpt lat="42.02911" lon="0.88041">
        <ele>487</ele>
        <time>2019-01-31T05:49:11Z</time>
      </trkpt>
      <trkpt lat="42.02913" lon="0.88033">
        <ele>488.1</ele>
        <time>2019-01-31T05:49:15Z</time>
      </trkpt>
      <trkpt lat="42.0291" lon="0.88019">
        <ele>491.5</ele>
        <time>2019-01-31T05:49:21Z</time>
      </trkpt>
      <trkpt lat="42.02909" lon="0.88018">
        <ele>491.4</ele>
        <time>2019-01-31T05:49:22Z</time>
      </trkpt>
      <trkpt lat="42.02899" lon="0.88012">
        <ele>492.3</ele>
        <time>2019-01-31T05:49:28Z</time>
      </trkpt>
      <trkpt lat="42.02896" lon="0.88002">
        <ele>495.8</ele>
        <time>2019-01-31T05:49:33Z</time>
      </trkpt>
      <trkpt lat="42.02903" lon="0.87996">
        <ele>492</ele>
        <time>2019-01-31T05:49:38Z</time>
      </trkpt>
      <trkpt lat="42.02904" lon="0.87992">
        <ele>490.9</ele>
        <time>2019-01-31T05:49:40Z</time>
      </trkpt>
      <trkpt lat="42.02901" lon="0.87979">
        <ele>491</ele>
        <time>2019-01-31T05:49:46Z</time>
      </trkpt>
      <trkpt lat="42.02901" lon="0.87972">
        <ele>492.3</ele>
        <time>2019-01-31T05:49:49Z</time>
      </trkpt>
      <trkpt lat="42.02898" lon="0.87957">
        <ele>492.3</ele>
        <time>2019-01-31T05:49:55Z</time>
      </trkpt>
      <trkpt lat="42.02895" lon="0.87951">
        <ele>491.4</ele>
        <time>2019-01-31T05:49:58Z</time>
      </trkpt>
      <trkpt lat="42.02893" lon="0.87931">
        <ele>493.8</ele>
        <time>2019-01-31T05:50:07Z</time>
      </trkpt>
      <trkpt lat="42.02892" lon="0.87914">
        <ele>496.7</ele>
        <time>2019-01-31T05:50:14Z</time>
      </trkpt>
      <trkpt lat="42.02893" lon="0.87916">
        <ele>497.7</ele>
        <time>2019-01-31T05:50:15Z</time>
      </trkpt>
      <trkpt lat="42.0289" lon="0.87905">
        <ele>500</ele>
        <time>2019-01-31T05:50:20Z</time>
      </trkpt>
      <trkpt lat="42.02893" lon="0.879">
        <ele>503.4</ele>
        <time>2019-01-31T05:50:23Z</time>
      </trkpt>
      <trkpt lat="42.02895" lon="0.879">
        <ele>503.9</ele>
        <time>2019-01-31T05:50:24Z</time>
      </trkpt>
      <trkpt lat="42.0291" lon="0.87899">
        <ele>507.2</ele>
        <time>2019-01-31T05:50:33Z</time>
      </trkpt>
      <trkpt lat="42.02916" lon="0.87901">
        <ele>509.2</ele>
        <time>2019-01-31T05:50:36Z</time>
      </trkpt>
      <trkpt lat="42.02924" lon="0.87904">
        <ele>511.1</ele>
        <time>2019-01-31T05:50:41Z</time>
      </trkpt>
      <trkpt lat="42.02927" lon="0.87917">
        <ele>513.5</ele>
        <time>2019-01-31T05:50:47Z</time>
      </trkpt>
      <trkpt lat="42.02932" lon="0.87926">
        <ele>514.4</ele>
        <time>2019-01-31T05:50:52Z</time>
      </trkpt>
      <trkpt lat="42.02939" lon="0.87933">
        <ele>516.4</ele>
        <time>2019-01-31T05:50:57Z</time>
      </trkpt>
      <trkpt lat="42.02948" lon="0.87938">
        <ele>519.2</ele>
        <time>2019-01-31T05:51:02Z</time>
      </trkpt>
      <trkpt lat="42.02952" lon="0.8794">
        <ele>522.6</ele>
        <time>2019-01-31T05:51:05Z</time>
      </trkpt>
      <trkpt lat="42.02954" lon="0.87938">
        <ele>523.2</ele>
        <time>2019-01-31T05:51:06Z</time>
      </trkpt>
      <trkpt lat="42.02954" lon="0.87939">
        <ele>522.6</ele>
        <time>2019-01-31T05:51:06Z</time>
      </trkpt>
      <trkpt lat="42.02956" lon="0.87932">
        <ele>523.7</ele>
        <time>2019-01-31T05:51:10Z</time>
      </trkpt>
      <trkpt lat="42.02954" lon="0.87909">
        <ele>524.6</ele>
        <time>2019-01-31T05:51:19Z</time>
      </trkpt>
      <trkpt lat="42.02953" lon="0.87903">
        <ele>525.5</ele>
        <time>2019-01-31T05:51:22Z</time>
      </trkpt>
      <trkpt lat="42.02949" lon="0.87889">
        <ele>527.4</ele>
        <time>2019-01-31T05:51:28Z</time>
      </trkpt>
      <trkpt lat="42.02951" lon="0.87876">
        <ele>528.5</ele>
        <time>2019-01-31T05:51:34Z</time>
      </trkpt>
      <trkpt lat="42.02949" lon="0.87875">
        <ele>528.9</ele>
        <time>2019-01-31T05:51:35Z</time>
      </trkpt>
      <trkpt lat="42.02945" lon="0.87871">
        <ele>529.8</ele>
        <time>2019-01-31T05:51:38Z</time>
      </trkpt>
      <trkpt lat="42.02939" lon="0.87852">
        <ele>533.7</ele>
        <time>2019-01-31T05:51:46Z</time>
      </trkpt>
      <trkpt lat="42.02934" lon="0.87842">
        <ele>535.6</ele>
        <time>2019-01-31T05:51:52Z</time>
      </trkpt>
      <trkpt lat="42.02935" lon="0.87837">
        <ele>536.6</ele>
        <time>2019-01-31T05:51:54Z</time>
      </trkpt>
      <trkpt lat="42.02934" lon="0.87833">
        <ele>537</ele>
        <time>2019-01-31T05:51:55Z</time>
      </trkpt>
      <trkpt lat="42.02932" lon="0.87831">
        <ele>538.1</ele>
        <time>2019-01-31T05:51:57Z</time>
      </trkpt>
      <trkpt lat="42.0293" lon="0.87825">
        <ele>539</ele>
        <time>2019-01-31T05:51:59Z</time>
      </trkpt>
      <trkpt lat="42.02927" lon="0.87819">
        <ele>541.4</ele>
        <time>2019-01-31T05:52:03Z</time>
      </trkpt>
      <trkpt lat="42.02927" lon="0.87816">
        <ele>541.8</ele>
        <time>2019-01-31T05:52:04Z</time>
      </trkpt>
      <trkpt lat="42.02922" lon="0.87806">
        <ele>545.2</ele>
        <time>2019-01-31T05:52:09Z</time>
      </trkpt>
      <trkpt lat="42.02919" lon="0.87799">
        <ele>547.1</ele>
        <time>2019-01-31T05:52:12Z</time>
      </trkpt>
      <trkpt lat="42.02916" lon="0.87779">
        <ele>551</ele>
        <time>2019-01-31T05:52:21Z</time>
      </trkpt>
      <trkpt lat="42.0292" lon="0.87767">
        <ele>551.9</ele>
        <time>2019-01-31T05:52:26Z</time>
      </trkpt>
      <trkpt lat="42.02924" lon="0.8776">
        <ele>552.4</ele>
        <time>2019-01-31T05:52:30Z</time>
      </trkpt>
      <trkpt lat="42.02929" lon="0.87747">
        <ele>555.3</ele>
        <time>2019-01-31T05:52:37Z</time>
      </trkpt>
      <trkpt lat="42.02929" lon="0.87738">
        <ele>558.8</ele>
        <time>2019-01-31T05:52:40Z</time>
      </trkpt>
      <trkpt lat="42.02929" lon="0.87728">
        <ele>561.6</ele>
        <time>2019-01-31T05:52:45Z</time>
      </trkpt>
      <trkpt lat="42.02929" lon="0.87725">
        <ele>562.1</ele>
        <time>2019-01-31T05:52:46Z</time>
      </trkpt>
      <trkpt lat="42.02928" lon="0.8771">
        <ele>563.5</ele>
        <time>2019-01-31T05:52:52Z</time>
      </trkpt>
      <trkpt lat="42.02928" lon="0.87692">
        <ele>564.5</ele>
        <time>2019-01-31T05:53:00Z</time>
      </trkpt>
      <trkpt lat="42.02929" lon="0.87688">
        <ele>565.4</ele>
        <time>2019-01-31T05:53:02Z</time>
      </trkpt>
      <trkpt lat="42.02932" lon="0.87679">
        <ele>566.4</ele>
        <time>2019-01-31T05:53:06Z</time>
      </trkpt>
      <trkpt lat="42.02931" lon="0.87661">
        <ele>568.3</ele>
        <time>2019-01-31T05:53:14Z</time>
      </trkpt>
      <trkpt lat="42.02931" lon="0.87644">
        <ele>571.7</ele>
        <time>2019-01-31T05:53:21Z</time>
      </trkpt>
      <trkpt lat="42.02931" lon="0.87627">
        <ele>575.1</ele>
        <time>2019-01-31T05:53:28Z</time>
      </trkpt>
      <trkpt lat="42.02928" lon="0.87616">
        <ele>576</ele>
        <time>2019-01-31T05:53:33Z</time>
      </trkpt>
      <trkpt lat="42.02926" lon="0.87604">
        <ele>579.8</ele>
        <time>2019-01-31T05:53:38Z</time>
      </trkpt>
      <trkpt lat="42.02924" lon="0.87593">
        <ele>581.8</ele>
        <time>2019-01-31T05:53:43Z</time>
      </trkpt>
      <trkpt lat="42.02921" lon="0.87587">
        <ele>583.2</ele>
        <time>2019-01-31T05:53:46Z</time>
      </trkpt>
      <trkpt lat="42.02916" lon="0.87576">
        <ele>585.7</ele>
        <time>2019-01-31T05:53:52Z</time>
      </trkpt>
      <trkpt lat="42.02913" lon="0.87566">
        <ele>588.6</ele>
        <time>2019-01-31T05:53:56Z</time>
      </trkpt>
      <trkpt lat="42.02911" lon="0.87552">
        <ele>591.3</ele>
        <time>2019-01-31T05:54:02Z</time>
      </trkpt>
      <trkpt lat="42.02908" lon="0.87547">
        <ele>592.9</ele>
        <time>2019-01-31T05:54:05Z</time>
      </trkpt>
      <trkpt lat="42.02901" lon="0.87535">
        <ele>595.8</ele>
        <time>2019-01-31T05:54:12Z</time>
      </trkpt>
      <trkpt lat="42.02901" lon="0.8753">
        <ele>596.7</ele>
        <time>2019-01-31T05:54:13Z</time>
      </trkpt>
      <trkpt lat="42.02896" lon="0.87516">
        <ele>600.1</ele>
        <time>2019-01-31T05:54:20Z</time>
      </trkpt>
      <trkpt lat="42.02895" lon="0.87506">
        <ele>602.9</ele>
        <time>2019-01-31T05:54:24Z</time>
      </trkpt>
      <trkpt lat="42.02891" lon="0.87493">
        <ele>605.8</ele>
        <time>2019-01-31T05:54:30Z</time>
      </trkpt>
      <trkpt lat="42.02887" lon="0.87481">
        <ele>609.1</ele>
        <time>2019-01-31T05:54:36Z</time>
      </trkpt>
      <trkpt lat="42.02879" lon="0.87469">
        <ele>611.6</ele>
        <time>2019-01-31T05:54:43Z</time>
      </trkpt>
      <trkpt lat="42.02874" lon="0.87461">
        <ele>614.4</ele>
        <time>2019-01-31T05:54:47Z</time>
      </trkpt>
      <trkpt lat="42.02873" lon="0.8745">
        <ele>617.3</ele>
        <time>2019-01-31T05:54:52Z</time>
      </trkpt>
      <trkpt lat="42.0287" lon="0.87438">
        <ele>620.2</ele>
        <time>2019-01-31T05:54:57Z</time>
      </trkpt>
      <trkpt lat="42.02868" lon="0.87432">
        <ele>623.6</ele>
        <time>2019-01-31T05:55:00Z</time>
      </trkpt>
      <trkpt lat="42.02864" lon="0.87425">
        <ele>624.5</ele>
        <time>2019-01-31T05:55:03Z</time>
      </trkpt>
      <trkpt lat="42.02864" lon="0.87424">
        <ele>627.5</ele>
        <time>2019-01-31T05:55:04Z</time>
      </trkpt>
      <trkpt lat="42.02857" lon="0.8741">
        <ele>630.3</ele>
        <time>2019-01-31T05:55:11Z</time>
      </trkpt>
      <trkpt lat="42.02852" lon="0.87399">
        <ele>633.3</ele>
        <time>2019-01-31T05:55:16Z</time>
      </trkpt>
      <trkpt lat="42.0285" lon="0.87389">
        <ele>636.6</ele>
        <time>2019-01-31T05:55:21Z</time>
      </trkpt>
      <trkpt lat="42.02847" lon="0.87379">
        <ele>639.9</ele>
        <time>2019-01-31T05:55:26Z</time>
      </trkpt>
      <trkpt lat="42.0284" lon="0.87372">
        <ele>642.8</ele>
        <time>2019-01-31T05:55:31Z</time>
      </trkpt>
      <trkpt lat="42.02834" lon="0.87362">
        <ele>646.1</ele>
        <time>2019-01-31T05:55:36Z</time>
      </trkpt>
      <trkpt lat="42.02826" lon="0.87354">
        <ele>649.5</ele>
        <time>2019-01-31T05:55:42Z</time>
      </trkpt>
      <trkpt lat="42.0282" lon="0.87346">
        <ele>653</ele>
        <time>2019-01-31T05:55:47Z</time>
      </trkpt>
      <trkpt lat="42.02813" lon="0.87338">
        <ele>655.3</ele>
        <time>2019-01-31T05:55:52Z</time>
      </trkpt>
      <trkpt lat="42.02809" lon="0.8733">
        <ele>658.2</ele>
        <time>2019-01-31T05:55:56Z</time>
      </trkpt>
      <trkpt lat="42.02803" lon="0.87321">
        <ele>662.1</ele>
        <time>2019-01-31T05:56:01Z</time>
      </trkpt>
      <trkpt lat="42.02803" lon="0.87317">
        <ele>665</ele>
        <time>2019-01-31T05:56:03Z</time>
      </trkpt>
      <trkpt lat="42.028" lon="0.8731">
        <ele>666.4</ele>
        <time>2019-01-31T05:56:06Z</time>
      </trkpt>
      <trkpt lat="42.02793" lon="0.87298">
        <ele>669.7</ele>
        <time>2019-01-31T05:56:13Z</time>
      </trkpt>
      <trkpt lat="42.02788" lon="0.87288">
        <ele>672.7</ele>
        <time>2019-01-31T05:56:18Z</time>
      </trkpt>
      <trkpt lat="42.02788" lon="0.87286">
        <ele>675</ele>
        <time>2019-01-31T05:56:19Z</time>
      </trkpt>
      <trkpt lat="42.02784" lon="0.87278">
        <ele>677.9</ele>
        <time>2019-01-31T05:56:23Z</time>
      </trkpt>
      <trkpt lat="42.02783" lon="0.87273">
        <ele>681.2</ele>
        <time>2019-01-31T05:56:25Z</time>
      </trkpt>
      <trkpt lat="42.02777" lon="0.87264">
        <ele>685.2</ele>
        <time>2019-01-31T05:56:30Z</time>
      </trkpt>
      <trkpt lat="42.02777" lon="0.87263">
        <ele>685.1</ele>
        <time>2019-01-31T05:56:30Z</time>
      </trkpt>
      <trkpt lat="42.02774" lon="0.87258">
        <ele>685.7</ele>
        <time>2019-01-31T05:56:33Z</time>
      </trkpt>
      <trkpt lat="42.02775" lon="0.87256">
        <ele>685.6</ele>
        <time>2019-01-31T05:56:34Z</time>
      </trkpt>
      <trkpt lat="42.02771" lon="0.8725">
        <ele>687.6</ele>
        <time>2019-01-31T05:56:38Z</time>
      </trkpt>
      <trkpt lat="42.02766" lon="0.87244">
        <ele>690.9</ele>
        <time>2019-01-31T05:56:41Z</time>
      </trkpt>
      <trkpt lat="42.02762" lon="0.87234">
        <ele>693.7</ele>
        <time>2019-01-31T05:56:46Z</time>
      </trkpt>
      <trkpt lat="42.02762" lon="0.87229">
        <ele>695.8</ele>
        <time>2019-01-31T05:56:48Z</time>
      </trkpt>
      <trkpt lat="42.02755" lon="0.87222">
        <ele>698.6</ele>
        <time>2019-01-31T05:56:54Z</time>
      </trkpt>
      <trkpt lat="42.02745" lon="0.87211">
        <ele>701.9</ele>
        <time>2019-01-31T05:57:01Z</time>
      </trkpt>
      <trkpt lat="42.02744" lon="0.87206">
        <ele>705.3</ele>
        <time>2019-01-31T05:57:03Z</time>
      </trkpt>
      <trkpt lat="42.0274" lon="0.87199">
        <ele>707.7</ele>
        <time>2019-01-31T05:57:06Z</time>
      </trkpt>
      <trkpt lat="42.02736" lon="0.87194">
        <ele>710.7</ele>
        <time>2019-01-31T05:57:10Z</time>
      </trkpt>
      <trkpt lat="42.02734" lon="0.87184">
        <ele>713.9</ele>
        <time>2019-01-31T05:57:14Z</time>
      </trkpt>
      <trkpt lat="42.02736" lon="0.87185">
        <ele>713.4</ele>
        <time>2019-01-31T05:57:15Z</time>
      </trkpt>
      <trkpt lat="42.02732" lon="0.87182">
        <ele>714</ele>
        <time>2019-01-31T05:57:18Z</time>
      </trkpt>
      <trkpt lat="42.02726" lon="0.8718">
        <ele>715</ele>
        <time>2019-01-31T05:57:22Z</time>
      </trkpt>
      <trkpt lat="42.02717" lon="0.87179">
        <ele>715.9</ele>
        <time>2019-01-31T05:57:27Z</time>
      </trkpt>
      <trkpt lat="42.02712" lon="0.87165">
        <ele>719.7</ele>
        <time>2019-01-31T05:57:33Z</time>
      </trkpt>
      <trkpt lat="42.02705" lon="0.87148">
        <ele>723.1</ele>
        <time>2019-01-31T05:57:41Z</time>
      </trkpt>
      <trkpt lat="42.02705" lon="0.87132">
        <ele>724</ele>
        <time>2019-01-31T05:57:48Z</time>
      </trkpt>
      <trkpt lat="42.02705" lon="0.87116">
        <ele>723</ele>
        <time>2019-01-31T05:57:55Z</time>
      </trkpt>
      <trkpt lat="42.02705" lon="0.87108">
        <ele>723</ele>
        <time>2019-01-31T05:57:58Z</time>
      </trkpt>
      <trkpt lat="42.02706" lon="0.87103">
        <ele>722.7</ele>
        <time>2019-01-31T05:58:00Z</time>
      </trkpt>
      <trkpt lat="42.02712" lon="0.87087">
        <ele>722.6</ele>
        <time>2019-01-31T05:58:08Z</time>
      </trkpt>
      <trkpt lat="42.02713" lon="0.87084">
        <ele>723.1</ele>
        <time>2019-01-31T05:58:09Z</time>
      </trkpt>
      <trkpt lat="42.02706" lon="0.87079">
        <ele>722.2</ele>
        <time>2019-01-31T05:58:14Z</time>
      </trkpt>
      <trkpt lat="42.02707" lon="0.87074">
        <ele>722.1</ele>
        <time>2019-01-31T05:58:16Z</time>
      </trkpt>
      <trkpt lat="42.02704" lon="0.8707">
        <ele>721.7</ele>
        <time>2019-01-31T05:58:19Z</time>
      </trkpt>
      <trkpt lat="42.02696" lon="0.87055">
        <ele>719.3</ele>
        <time>2019-01-31T05:58:26Z</time>
      </trkpt>
      <trkpt lat="42.02694" lon="0.87053">
        <ele>718.8</ele>
        <time>2019-01-31T05:58:28Z</time>
      </trkpt>
      <trkpt lat="42.0269" lon="0.87051">
        <ele>717.3</ele>
        <time>2019-01-31T05:58:30Z</time>
      </trkpt>
      <trkpt lat="42.02691" lon="0.87046">
        <ele>717.3</ele>
        <time>2019-01-31T05:58:33Z</time>
      </trkpt>
      <trkpt lat="42.02688" lon="0.87026">
        <ele>716.3</ele>
        <time>2019-01-31T05:58:41Z</time>
      </trkpt>
      <trkpt lat="42.02685" lon="0.87009">
        <ele>715.8</ele>
        <time>2019-01-31T05:58:49Z</time>
      </trkpt>
      <trkpt lat="42.02683" lon="0.86991">
        <ele>715.4</ele>
        <time>2019-01-31T05:58:56Z</time>
      </trkpt>
      <trkpt lat="42.0268" lon="0.86982">
        <ele>716.9</ele>
        <time>2019-01-31T05:59:00Z</time>
      </trkpt>
      <trkpt lat="42.02678" lon="0.86975">
        <ele>717.9</ele>
        <time>2019-01-31T05:59:04Z</time>
      </trkpt>
      <trkpt lat="42.02678" lon="0.86971">
        <ele>718.3</ele>
        <time>2019-01-31T05:59:05Z</time>
      </trkpt>
      <trkpt lat="42.02677" lon="0.86962">
        <ele>719.8</ele>
        <time>2019-01-31T05:59:09Z</time>
      </trkpt>
      <trkpt lat="42.02673" lon="0.86951">
        <ele>717.9</ele>
        <time>2019-01-31T05:59:15Z</time>
      </trkpt>
      <trkpt lat="42.02673" lon="0.8695">
        <ele>717.8</ele>
        <time>2019-01-31T05:59:15Z</time>
      </trkpt>
      <trkpt lat="42.02673" lon="0.86947">
        <ele>718.7</ele>
        <time>2019-01-31T05:59:16Z</time>
      </trkpt>
      <trkpt lat="42.02671" lon="0.86944">
        <ele>718.2</ele>
        <time>2019-01-31T05:59:18Z</time>
      </trkpt>
      <trkpt lat="42.02671" lon="0.86941">
        <ele>718.3</ele>
        <time>2019-01-31T05:59:19Z</time>
      </trkpt>
      <trkpt lat="42.0267" lon="0.86929">
        <ele>718.7</ele>
        <time>2019-01-31T05:59:24Z</time>
      </trkpt>
      <trkpt lat="42.0267" lon="0.86926">
        <ele>718.7</ele>
        <time>2019-01-31T05:59:26Z</time>
      </trkpt>
      <trkpt lat="42.0267" lon="0.86914">
        <ele>718.7</ele>
        <time>2019-01-31T05:59:31Z</time>
      </trkpt>
      <trkpt lat="42.02667" lon="0.86892">
        <ele>718.3</ele>
        <time>2019-01-31T05:59:40Z</time>
      </trkpt>
      <trkpt lat="42.02666" lon="0.8689">
        <ele>718.7</ele>
        <time>2019-01-31T05:59:41Z</time>
      </trkpt>
      <trkpt lat="42.02665" lon="0.86879">
        <ele>719.7</ele>
        <time>2019-01-31T05:59:46Z</time>
      </trkpt>
      <trkpt lat="42.02664" lon="0.86866">
        <ele>722.6</ele>
        <time>2019-01-31T05:59:51Z</time>
      </trkpt>
      <trkpt lat="42.02659" lon="0.8686">
        <ele>725</ele>
        <time>2019-01-31T05:59:55Z</time>
      </trkpt>
      <trkpt lat="42.02656" lon="0.86856">
        <ele>725.5</ele>
        <time>2019-01-31T05:59:58Z</time>
      </trkpt>
      <trkpt lat="42.02654" lon="0.86854">
        <ele>725.9</ele>
        <time>2019-01-31T05:59:59Z</time>
      </trkpt>
      <trkpt lat="42.02644" lon="0.86852">
        <ele>727.4</ele>
        <time>2019-01-31T06:00:05Z</time>
      </trkpt>
      <trkpt lat="42.02638" lon="0.86842">
        <ele>730.7</ele>
        <time>2019-01-31T06:00:10Z</time>
      </trkpt>
      <trkpt lat="42.02634" lon="0.86836">
        <ele>734.1</ele>
        <time>2019-01-31T06:00:14Z</time>
      </trkpt>
      <trkpt lat="42.02627" lon="0.86822">
        <ele>736.5</ele>
        <time>2019-01-31T06:00:21Z</time>
      </trkpt>
      <trkpt lat="42.02626" lon="0.86819">
        <ele>737.5</ele>
        <time>2019-01-31T06:00:22Z</time>
      </trkpt>
      <trkpt lat="42.02623" lon="0.86814">
        <ele>739</ele>
        <time>2019-01-31T06:00:25Z</time>
      </trkpt>
      <trkpt lat="42.02615" lon="0.86798">
        <ele>742.3</ele>
        <time>2019-01-31T06:00:33Z</time>
      </trkpt>
      <trkpt lat="42.02606" lon="0.86784">
        <ele>745.6</ele>
        <time>2019-01-31T06:00:41Z</time>
      </trkpt>
      <trkpt lat="42.02604" lon="0.86779">
        <ele>746.7</ele>
        <time>2019-01-31T06:00:43Z</time>
      </trkpt>
      <trkpt lat="42.02598" lon="0.86768">
        <ele>749</ele>
        <time>2019-01-31T06:00:49Z</time>
      </trkpt>
      <trkpt lat="42.02592" lon="0.86757">
        <ele>752</ele>
        <time>2019-01-31T06:00:55Z</time>
      </trkpt>
      <trkpt lat="42.02586" lon="0.8675">
        <ele>755.4</ele>
        <time>2019-01-31T06:01:00Z</time>
      </trkpt>
      <trkpt lat="42.02585" lon="0.8675">
        <ele>755.3</ele>
        <time>2019-01-31T06:01:00Z</time>
      </trkpt>
      <trkpt lat="42.02583" lon="0.8674">
        <ele>757.7</ele>
        <time>2019-01-31T06:01:04Z</time>
      </trkpt>
      <trkpt lat="42.02574" lon="0.86727">
        <ele>759.6</ele>
        <time>2019-01-31T06:01:12Z</time>
      </trkpt>
      <trkpt lat="42.02572" lon="0.86722">
        <ele>761</ele>
        <time>2019-01-31T06:01:15Z</time>
      </trkpt>
      <trkpt lat="42.02572" lon="0.86721">
        <ele>761.5</ele>
        <time>2019-01-31T06:01:15Z</time>
      </trkpt>
      <trkpt lat="42.02563" lon="0.86708">
        <ele>764.5</ele>
        <time>2019-01-31T06:01:22Z</time>
      </trkpt>
      <trkpt lat="42.02559" lon="0.86697">
        <ele>767.8</ele>
        <time>2019-01-31T06:01:28Z</time>
      </trkpt>
      <trkpt lat="42.02549" lon="0.86686">
        <ele>770.6</ele>
        <time>2019-01-31T06:01:35Z</time>
      </trkpt>
      <trkpt lat="42.02545" lon="0.86678">
        <ele>774.1</ele>
        <time>2019-01-31T06:01:39Z</time>
      </trkpt>
      <trkpt lat="42.0254" lon="0.86665">
        <ele>777.4</ele>
        <time>2019-01-31T06:01:45Z</time>
      </trkpt>
      <trkpt lat="42.02534" lon="0.86659">
        <ele>778.8</ele>
        <time>2019-01-31T06:01:49Z</time>
      </trkpt>
      <trkpt lat="42.02529" lon="0.86656">
        <ele>779.9</ele>
        <time>2019-01-31T06:01:53Z</time>
      </trkpt>
      <trkpt lat="42.02524" lon="0.86644">
        <ele>783.2</ele>
        <time>2019-01-31T06:01:58Z</time>
      </trkpt>
      <trkpt lat="42.02519" lon="0.86634">
        <ele>786.1</ele>
        <time>2019-01-31T06:02:04Z</time>
      </trkpt>
      <trkpt lat="42.02509" lon="0.86624">
        <ele>787.5</ele>
        <time>2019-01-31T06:02:11Z</time>
      </trkpt>
      <trkpt lat="42.02504" lon="0.86615">
        <ele>789.4</ele>
        <time>2019-01-31T06:02:15Z</time>
      </trkpt>
      <trkpt lat="42.0251" lon="0.86611">
        <ele>788</ele>
        <time>2019-01-31T06:02:20Z</time>
      </trkpt>
      <trkpt lat="42.02513" lon="0.86613">
        <ele>787.5</ele>
        <time>2019-01-31T06:02:21Z</time>
      </trkpt>
      <trkpt lat="42.02521" lon="0.86615">
        <ele>787.1</ele>
        <time>2019-01-31T06:02:26Z</time>
      </trkpt>
      <trkpt lat="42.02522" lon="0.86614">
        <ele>786.6</ele>
        <time>2019-01-31T06:02:27Z</time>
      </trkpt>
      <trkpt lat="42.02524" lon="0.86616">
        <ele>786.6</ele>
        <time>2019-01-31T06:02:28Z</time>
      </trkpt>
      <trkpt lat="42.02537" lon="0.86618">
        <ele>786.6</ele>
        <time>2019-01-31T06:02:36Z</time>
      </trkpt>
      <trkpt lat="42.02548" lon="0.86622">
        <ele>787.6</ele>
        <time>2019-01-31T06:02:42Z</time>
      </trkpt>
      <trkpt lat="42.02556" lon="0.86627">
        <ele>788</ele>
        <time>2019-01-31T06:02:47Z</time>
      </trkpt>
      <trkpt lat="42.02561" lon="0.86628">
        <ele>788.9</ele>
        <time>2019-01-31T06:02:50Z</time>
      </trkpt>
      <trkpt lat="42.02571" lon="0.86632">
        <ele>789.5</ele>
        <time>2019-01-31T06:02:56Z</time>
      </trkpt>
      <trkpt lat="42.02576" lon="0.86634">
        <ele>790.3</ele>
        <time>2019-01-31T06:02:59Z</time>
      </trkpt>
      <trkpt lat="42.02586" lon="0.86639">
        <ele>790.8</ele>
        <time>2019-01-31T06:03:05Z</time>
      </trkpt>
      <trkpt lat="42.02599" lon="0.86641">
        <ele>790.9</ele>
        <time>2019-01-31T06:03:13Z</time>
      </trkpt>
      <trkpt lat="42.02602" lon="0.86639">
        <ele>791.3</ele>
        <time>2019-01-31T06:03:15Z</time>
      </trkpt>
      <trkpt lat="42.0261" lon="0.86644">
        <ele>791.4</ele>
        <time>2019-01-31T06:03:20Z</time>
      </trkpt>
      <trkpt lat="42.02619" lon="0.86644">
        <ele>791.3</ele>
        <time>2019-01-31T06:03:25Z</time>
      </trkpt>
      <trkpt lat="42.02626" lon="0.86648">
        <ele>791.9</ele>
        <time>2019-01-31T06:03:29Z</time>
      </trkpt>
      <trkpt lat="42.02638" lon="0.86659">
        <ele>791.9</ele>
        <time>2019-01-31T06:03:37Z</time>
      </trkpt>
      <trkpt lat="42.0264" lon="0.86662">
        <ele>791.8</ele>
        <time>2019-01-31T06:03:39Z</time>
      </trkpt>
      <trkpt lat="42.02642" lon="0.86662">
        <ele>791.9</ele>
        <time>2019-01-31T06:03:40Z</time>
      </trkpt>
      <trkpt lat="42.02654" lon="0.86668">
        <ele>792.8</ele>
        <time>2019-01-31T06:03:47Z</time>
      </trkpt>
      <trkpt lat="42.0266" lon="0.86666">
        <ele>793.3</ele>
        <time>2019-01-31T06:03:51Z</time>
      </trkpt>
      <trkpt lat="42.02667" lon="0.86668">
        <ele>794.2</ele>
        <time>2019-01-31T06:03:55Z</time>
      </trkpt>
      <trkpt lat="42.02672" lon="0.86668">
        <ele>794.7</ele>
        <time>2019-01-31T06:03:57Z</time>
      </trkpt>
      <trkpt lat="42.02682" lon="0.86665">
        <ele>796.1</ele>
        <time>2019-01-31T06:04:04Z</time>
      </trkpt>
      <trkpt lat="42.02688" lon="0.86666">
        <ele>796.2</ele>
        <time>2019-01-31T06:04:07Z</time>
      </trkpt>
      <trkpt lat="42.02701" lon="0.86669">
        <ele>796.1</ele>
        <time>2019-01-31T06:04:15Z</time>
      </trkpt>
      <trkpt lat="42.02698" lon="0.86666">
        <ele>797.7</ele>
        <time>2019-01-31T06:04:17Z</time>
      </trkpt>
      <trkpt lat="42.02712" lon="0.86666">
        <ele>798</ele>
        <time>2019-01-31T06:04:25Z</time>
      </trkpt>
      <trkpt lat="42.02715" lon="0.86668">
        <ele>797.6</ele>
        <time>2019-01-31T06:04:27Z</time>
      </trkpt>
      <trkpt lat="42.02723" lon="0.86668">
        <ele>797.6</ele>
        <time>2019-01-31T06:04:31Z</time>
      </trkpt>
      <trkpt lat="42.02735" lon="0.86674">
        <ele>796.6</ele>
        <time>2019-01-31T06:04:38Z</time>
      </trkpt>
      <trkpt lat="42.02744" lon="0.86679">
        <ele>796.7</ele>
        <time>2019-01-31T06:04:44Z</time>
      </trkpt>
      <trkpt lat="42.02758" lon="0.86685">
        <ele>796.1</ele>
        <time>2019-01-31T06:04:53Z</time>
      </trkpt>
      <trkpt lat="42.02769" lon="0.86687">
        <ele>796.1</ele>
        <time>2019-01-31T06:04:59Z</time>
      </trkpt>
      <trkpt lat="42.02777" lon="0.86682">
        <ele>800</ele>
        <time>2019-01-31T06:05:04Z</time>
      </trkpt>
      <trkpt lat="42.02788" lon="0.86687">
        <ele>802.5</ele>
        <time>2019-01-31T06:05:10Z</time>
      </trkpt>
      <trkpt lat="42.02794" lon="0.86685">
        <ele>802.8</ele>
        <time>2019-01-31T06:05:14Z</time>
      </trkpt>
      <trkpt lat="42.02795" lon="0.86683">
        <ele>802.9</ele>
        <time>2019-01-31T06:05:15Z</time>
      </trkpt>
      <trkpt lat="42.02799" lon="0.86677">
        <ele>802.9</ele>
        <time>2019-01-31T06:05:19Z</time>
      </trkpt>
      <trkpt lat="42.02802" lon="0.86678">
        <ele>802.9</ele>
        <time>2019-01-31T06:05:20Z</time>
      </trkpt>
      <trkpt lat="42.02807" lon="0.86672">
        <ele>802.8</ele>
        <time>2019-01-31T06:05:24Z</time>
      </trkpt>
      <trkpt lat="42.02807" lon="0.8667">
        <ele>796.9</ele>
        <time>2019-01-31T06:05:25Z</time>
      </trkpt>
      <trkpt lat="42.02807" lon="0.86663">
        <ele>797.6</ele>
        <time>2019-01-31T06:05:28Z</time>
      </trkpt>
      <trkpt lat="42.02807" lon="0.86663">
        <ele>797.7</ele>
        <time>2019-01-31T06:05:28Z</time>
      </trkpt>
      <trkpt lat="42.02801" lon="0.8666">
        <ele>798.5</ele>
        <time>2019-01-31T06:05:32Z</time>
      </trkpt>
      <trkpt lat="42.02796" lon="0.86658">
        <ele>799</ele>
        <time>2019-01-31T06:05:35Z</time>
      </trkpt>
      <trkpt lat="42.02795" lon="0.86658">
        <ele>799.1</ele>
        <time>2019-01-31T06:05:35Z</time>
      </trkpt>
      <trkpt lat="42.02791" lon="0.86653">
        <ele>800.6</ele>
        <time>2019-01-31T06:05:38Z</time>
      </trkpt>
      <trkpt lat="42.02788" lon="0.86647">
        <ele>802.4</ele>
        <time>2019-01-31T06:05:41Z</time>
      </trkpt>
      <trkpt lat="42.02784" lon="0.86645">
        <ele>803.6</ele>
        <time>2019-01-31T06:05:44Z</time>
      </trkpt>
      <trkpt lat="42.02778" lon="0.86641">
        <ele>805.4</ele>
        <time>2019-01-31T06:05:48Z</time>
      </trkpt>
      <trkpt lat="42.02774" lon="0.86636">
        <ele>807.2</ele>
        <time>2019-01-31T06:05:51Z</time>
      </trkpt>
      <trkpt lat="42.02774" lon="0.86625">
        <ele>810.1</ele>
        <time>2019-01-31T06:05:55Z</time>
      </trkpt>
      <trkpt lat="42.02772" lon="0.86611">
        <ele>814</ele>
        <time>2019-01-31T06:06:01Z</time>
      </trkpt>
      <trkpt lat="42.0277" lon="0.86607">
        <ele>815.4</ele>
        <time>2019-01-31T06:06:03Z</time>
      </trkpt>
      <trkpt lat="42.02767" lon="0.86601">
        <ele>817.6</ele>
        <time>2019-01-31T06:06:07Z</time>
      </trkpt>
      <trkpt lat="42.02766" lon="0.86597">
        <ele>818.9</ele>
        <time>2019-01-31T06:06:08Z</time>
      </trkpt>
      <trkpt lat="42.02761" lon="0.86585">
        <ele>822.4</ele>
        <time>2019-01-31T06:06:14Z</time>
      </trkpt>
      <trkpt lat="42.02758" lon="0.86578">
        <ele>824</ele>
        <time>2019-01-31T06:06:18Z</time>
      </trkpt>
      <trkpt lat="42.02756" lon="0.86568">
        <ele>826.3</ele>
        <time>2019-01-31T06:06:22Z</time>
      </trkpt>
      <trkpt lat="42.02754" lon="0.8656">
        <ele>827.8</ele>
        <time>2019-01-31T06:06:26Z</time>
      </trkpt>
      <trkpt lat="42.02755" lon="0.86556">
        <ele>828.5</ele>
        <time>2019-01-31T06:06:27Z</time>
      </trkpt>
      <trkpt lat="42.02757" lon="0.86548">
        <ele>829.7</ele>
        <time>2019-01-31T06:06:31Z</time>
      </trkpt>
      <trkpt lat="42.02757" lon="0.86537">
        <ele>830.7</ele>
        <time>2019-01-31T06:06:36Z</time>
      </trkpt>
      <trkpt lat="42.02754" lon="0.86527">
        <ele>831.6</ele>
        <time>2019-01-31T06:06:40Z</time>
      </trkpt>
      <trkpt lat="42.0275" lon="0.86519">
        <ele>832.3</ele>
        <time>2019-01-31T06:06:44Z</time>
      </trkpt>
      <trkpt lat="42.02743" lon="0.86508">
        <ele>833.2</ele>
        <time>2019-01-31T06:06:50Z</time>
      </trkpt>
      <trkpt lat="42.02743" lon="0.865">
        <ele>833.8</ele>
        <time>2019-01-31T06:06:54Z</time>
      </trkpt>
      <trkpt lat="42.02741" lon="0.86493">
        <ele>834.1</ele>
        <time>2019-01-31T06:06:57Z</time>
      </trkpt>
      <trkpt lat="42.02741" lon="0.8648">
        <ele>834.9</ele>
        <time>2019-01-31T06:07:02Z</time>
      </trkpt>
      <trkpt lat="42.02744" lon="0.86472">
        <ele>835.8</ele>
        <time>2019-01-31T06:07:06Z</time>
      </trkpt>
      <trkpt lat="42.02751" lon="0.86452">
        <ele>837.7</ele>
        <time>2019-01-31T06:07:16Z</time>
      </trkpt>
      <trkpt lat="42.02751" lon="0.86438">
        <ele>838.9</ele>
        <time>2019-01-31T06:07:22Z</time>
      </trkpt>
      <trkpt lat="42.02751" lon="0.86428">
        <ele>839.6</ele>
        <time>2019-01-31T06:07:26Z</time>
      </trkpt>
      <trkpt lat="42.02756" lon="0.86422">
        <ele>840</ele>
        <time>2019-01-31T06:07:29Z</time>
      </trkpt>
      <trkpt lat="42.02758" lon="0.86417">
        <ele>840</ele>
        <time>2019-01-31T06:07:32Z</time>
      </trkpt>
      <trkpt lat="42.02758" lon="0.86417">
        <ele>840.2</ele>
        <time>2019-01-31T06:07:32Z</time>
      </trkpt>
      <trkpt lat="42.02761" lon="0.86412">
        <ele>840.2</ele>
        <time>2019-01-31T06:07:35Z</time>
      </trkpt>
      <trkpt lat="42.02763" lon="0.86409">
        <ele>840.7</ele>
        <time>2019-01-31T06:07:37Z</time>
      </trkpt>
      <trkpt lat="42.02769" lon="0.86389">
        <ele>844</ele>
        <time>2019-01-31T06:07:45Z</time>
      </trkpt>
      <trkpt lat="42.02767" lon="0.86383">
        <ele>844.9</ele>
        <time>2019-01-31T06:07:48Z</time>
      </trkpt>
      <trkpt lat="42.02766" lon="0.86379">
        <ele>845.5</ele>
        <time>2019-01-31T06:07:50Z</time>
      </trkpt>
      <trkpt lat="42.02765" lon="0.86371">
        <ele>846.9</ele>
        <time>2019-01-31T06:07:54Z</time>
      </trkpt>
      <trkpt lat="42.02766" lon="0.86361">
        <ele>848.5</ele>
        <time>2019-01-31T06:07:58Z</time>
      </trkpt>
      <trkpt lat="42.02767" lon="0.86356">
        <ele>849</ele>
        <time>2019-01-31T06:08:00Z</time>
      </trkpt>
      <trkpt lat="42.02769" lon="0.86351">
        <ele>849.5</ele>
        <time>2019-01-31T06:08:02Z</time>
      </trkpt>
      <trkpt lat="42.02772" lon="0.86346">
        <ele>850.4</ele>
        <time>2019-01-31T06:08:05Z</time>
      </trkpt>
      <trkpt lat="42.02775" lon="0.86341">
        <ele>851</ele>
        <time>2019-01-31T06:08:08Z</time>
      </trkpt>
      <trkpt lat="42.02778" lon="0.86333">
        <ele>851.5</ele>
        <time>2019-01-31T06:08:11Z</time>
      </trkpt>
      <trkpt lat="42.02781" lon="0.86328">
        <ele>851.9</ele>
        <time>2019-01-31T06:08:14Z</time>
      </trkpt>
      <trkpt lat="42.02784" lon="0.86322">
        <ele>852.7</ele>
        <time>2019-01-31T06:08:17Z</time>
      </trkpt>
      <trkpt lat="42.02789" lon="0.86316">
        <ele>853.5</ele>
        <time>2019-01-31T06:08:21Z</time>
      </trkpt>
      <trkpt lat="42.02795" lon="0.86311">
        <ele>854.7</ele>
        <time>2019-01-31T06:08:25Z</time>
      </trkpt>
      <trkpt lat="42.02798" lon="0.86309">
        <ele>855.1</ele>
        <time>2019-01-31T06:08:27Z</time>
      </trkpt>
      <trkpt lat="42.02802" lon="0.86303">
        <ele>856.1</ele>
        <time>2019-01-31T06:08:30Z</time>
      </trkpt>
      <trkpt lat="42.02807" lon="0.86298">
        <ele>857.2</ele>
        <time>2019-01-31T06:08:34Z</time>
      </trkpt>
      <trkpt lat="42.02809" lon="0.86296">
        <ele>857.8</ele>
        <time>2019-01-31T06:08:36Z</time>
      </trkpt>
      <trkpt lat="42.02813" lon="0.86291">
        <ele>858.7</ele>
        <time>2019-01-31T06:08:39Z</time>
      </trkpt>
      <trkpt lat="42.02816" lon="0.86285">
        <ele>859.8</ele>
        <time>2019-01-31T06:08:42Z</time>
      </trkpt>
      <trkpt lat="42.02818" lon="0.86282">
        <ele>860.4</ele>
        <time>2019-01-31T06:08:43Z</time>
      </trkpt>
      <trkpt lat="42.02827" lon="0.86272">
        <ele>862.6</ele>
        <time>2019-01-31T06:08:50Z</time>
      </trkpt>
      <trkpt lat="42.02833" lon="0.86269">
        <ele>863.7</ele>
        <time>2019-01-31T06:08:54Z</time>
      </trkpt>
      <trkpt lat="42.02836" lon="0.86267">
        <ele>864.2</ele>
        <time>2019-01-31T06:08:56Z</time>
      </trkpt>
      <trkpt lat="42.02842" lon="0.86266">
        <ele>865.1</ele>
        <time>2019-01-31T06:08:59Z</time>
      </trkpt>
      <trkpt lat="42.02847" lon="0.86264">
        <ele>865.7</ele>
        <time>2019-01-31T06:09:02Z</time>
      </trkpt>
      <trkpt lat="42.02847" lon="0.86264">
        <ele>865.7</ele>
        <time>2019-01-31T06:09:02Z</time>
      </trkpt>
      <trkpt lat="42.02855" lon="0.86262">
        <ele>866.9</ele>
        <time>2019-01-31T06:09:07Z</time>
      </trkpt>
      <trkpt lat="42.02863" lon="0.86257">
        <ele>868.4</ele>
        <time>2019-01-31T06:09:11Z</time>
      </trkpt>
      <trkpt lat="42.02866" lon="0.86255">
        <ele>869.1</ele>
        <time>2019-01-31T06:09:13Z</time>
      </trkpt>
      <trkpt lat="42.02869" lon="0.86249">
        <ele>870</ele>
        <time>2019-01-31T06:09:17Z</time>
      </trkpt>
      <trkpt lat="42.02869" lon="0.86243">
        <ele>870.4</ele>
        <time>2019-01-31T06:09:19Z</time>
      </trkpt>
      <trkpt lat="42.02869" lon="0.86235">
        <ele>871.2</ele>
        <time>2019-01-31T06:09:22Z</time>
      </trkpt>
      <trkpt lat="42.02869" lon="0.86232">
        <ele>871.5</ele>
        <time>2019-01-31T06:09:24Z</time>
      </trkpt>
      <trkpt lat="42.02869" lon="0.86228">
        <ele>871.8</ele>
        <time>2019-01-31T06:09:25Z</time>
      </trkpt>
      <trkpt lat="42.0287" lon="0.86223">
        <ele>872.5</ele>
        <time>2019-01-31T06:09:28Z</time>
      </trkpt>
      <trkpt lat="42.02871" lon="0.86214">
        <ele>874.3</ele>
        <time>2019-01-31T06:09:32Z</time>
      </trkpt>
      <trkpt lat="42.02875" lon="0.86206">
        <ele>875.9</ele>
        <time>2019-01-31T06:09:36Z</time>
      </trkpt>
      <trkpt lat="42.02878" lon="0.862">
        <ele>877.2</ele>
        <time>2019-01-31T06:09:39Z</time>
      </trkpt>
      <trkpt lat="42.02879" lon="0.86192">
        <ele>878.7</ele>
        <time>2019-01-31T06:09:42Z</time>
      </trkpt>
      <trkpt lat="42.02882" lon="0.86185">
        <ele>879.9</ele>
        <time>2019-01-31T06:09:46Z</time>
      </trkpt>
      <trkpt lat="42.02887" lon="0.86174">
        <ele>882.1</ele>
        <time>2019-01-31T06:09:51Z</time>
      </trkpt>
      <trkpt lat="42.02887" lon="0.86174">
        <ele>882.2</ele>
        <time>2019-01-31T06:09:51Z</time>
      </trkpt>
      <trkpt lat="42.02893" lon="0.86163">
        <ele>884.4</ele>
        <time>2019-01-31T06:09:57Z</time>
      </trkpt>
      <trkpt lat="42.02895" lon="0.86157">
        <ele>885.6</ele>
        <time>2019-01-31T06:10:00Z</time>
      </trkpt>
      <trkpt lat="42.02892" lon="0.86145">
        <ele>888.3</ele>
        <time>2019-01-31T06:10:05Z</time>
      </trkpt>
      <trkpt lat="42.02894" lon="0.8614">
        <ele>889.4</ele>
        <time>2019-01-31T06:10:07Z</time>
      </trkpt>
      <trkpt lat="42.02892" lon="0.86133">
        <ele>891.3</ele>
        <time>2019-01-31T06:10:10Z</time>
      </trkpt>
      <trkpt lat="42.0289" lon="0.86126">
        <ele>892.4</ele>
        <time>2019-01-31T06:10:13Z</time>
      </trkpt>
      <trkpt lat="42.02892" lon="0.86122">
        <ele>893.2</ele>
        <time>2019-01-31T06:10:15Z</time>
      </trkpt>
      <trkpt lat="42.0289" lon="0.86115">
        <ele>894.6</ele>
        <time>2019-01-31T06:10:18Z</time>
      </trkpt>
      <trkpt lat="42.02887" lon="0.86107">
        <ele>896.1</ele>
        <time>2019-01-31T06:10:22Z</time>
      </trkpt>
      <trkpt lat="42.02886" lon="0.86104">
        <ele>896.6</ele>
        <time>2019-01-31T06:10:24Z</time>
      </trkpt>
      <trkpt lat="42.02884" lon="0.86095">
        <ele>898.4</ele>
        <time>2019-01-31T06:10:28Z</time>
      </trkpt>
      <trkpt lat="42.02882" lon="0.86088">
        <ele>899.7</ele>
        <time>2019-01-31T06:10:31Z</time>
      </trkpt>
      <trkpt lat="42.02882" lon="0.86088">
        <ele>899.7</ele>
        <time>2019-01-31T06:10:31Z</time>
      </trkpt>
      <trkpt lat="42.02882" lon="0.86081">
        <ele>900.7</ele>
        <time>2019-01-31T06:10:34Z</time>
      </trkpt>
      <trkpt lat="42.02881" lon="0.86075">
        <ele>901.6</ele>
        <time>2019-01-31T06:10:37Z</time>
      </trkpt>
      <trkpt lat="42.0288" lon="0.8607">
        <ele>902.1</ele>
        <time>2019-01-31T06:10:39Z</time>
      </trkpt>
      <trkpt lat="42.0288" lon="0.8607">
        <ele>902.2</ele>
        <time>2019-01-31T06:10:39Z</time>
      </trkpt>
      <trkpt lat="42.0288" lon="0.86066">
        <ele>902.7</ele>
        <time>2019-01-31T06:10:41Z</time>
      </trkpt>
      <trkpt lat="42.02881" lon="0.86053">
        <ele>904.2</ele>
        <time>2019-01-31T06:10:46Z</time>
      </trkpt>
      <trkpt lat="42.02882" lon="0.8605">
        <ele>904.4</ele>
        <time>2019-01-31T06:10:47Z</time>
      </trkpt>
      <trkpt lat="42.02884" lon="0.8604">
        <ele>905.4</ele>
        <time>2019-01-31T06:10:52Z</time>
      </trkpt>
      <trkpt lat="42.02884" lon="0.86029">
        <ele>906.4</ele>
        <time>2019-01-31T06:10:56Z</time>
      </trkpt>
      <trkpt lat="42.02883" lon="0.86025">
        <ele>906.8</ele>
        <time>2019-01-31T06:10:58Z</time>
      </trkpt>
      <trkpt lat="42.02883" lon="0.86025">
        <ele>906.8</ele>
        <time>2019-01-31T06:10:59Z</time>
      </trkpt>
      <trkpt lat="42.0288" lon="0.86021">
        <ele>907.4</ele>
        <time>2019-01-31T06:11:01Z</time>
      </trkpt>
      <trkpt lat="42.02876" lon="0.86015">
        <ele>908.2</ele>
        <time>2019-01-31T06:11:04Z</time>
      </trkpt>
      <trkpt lat="42.02872" lon="0.86009">
        <ele>908.7</ele>
        <time>2019-01-31T06:11:08Z</time>
      </trkpt>
      <trkpt lat="42.02871" lon="0.86009">
        <ele>908.6</ele>
        <time>2019-01-31T06:11:08Z</time>
      </trkpt>
      <trkpt lat="42.02869" lon="0.86005">
        <ele>908.8</ele>
        <time>2019-01-31T06:11:10Z</time>
      </trkpt>
      <trkpt lat="42.02867" lon="0.85991">
        <ele>909.5</ele>
        <time>2019-01-31T06:11:16Z</time>
      </trkpt>
      <trkpt lat="42.02867" lon="0.85991">
        <ele>909.6</ele>
        <time>2019-01-31T06:11:16Z</time>
      </trkpt>
      <trkpt lat="42.02863" lon="0.85984">
        <ele>909.8</ele>
        <time>2019-01-31T06:11:20Z</time>
      </trkpt>
      <trkpt lat="42.02862" lon="0.8598">
        <ele>909.9</ele>
        <time>2019-01-31T06:11:22Z</time>
      </trkpt>
      <trkpt lat="42.02861" lon="0.85974">
        <ele>910.1</ele>
        <time>2019-01-31T06:11:25Z</time>
      </trkpt>
      <trkpt lat="42.02861" lon="0.85968">
        <ele>910.3</ele>
        <time>2019-01-31T06:11:27Z</time>
      </trkpt>
      <trkpt lat="42.02859" lon="0.85964">
        <ele>910.6</ele>
        <time>2019-01-31T06:11:29Z</time>
      </trkpt>
      <trkpt lat="42.0286" lon="0.8596">
        <ele>910.8</ele>
        <time>2019-01-31T06:11:31Z</time>
      </trkpt>
      <trkpt lat="42.0286" lon="0.85956">
        <ele>910.9</ele>
        <time>2019-01-31T06:11:32Z</time>
      </trkpt>
      <trkpt lat="42.02859" lon="0.85952">
        <ele>911.1</ele>
        <time>2019-01-31T06:11:34Z</time>
      </trkpt>
      <trkpt lat="42.02859" lon="0.85945">
        <ele>911.5</ele>
        <time>2019-01-31T06:11:37Z</time>
      </trkpt>
      <trkpt lat="42.0286" lon="0.8594">
        <ele>911.9</ele>
        <time>2019-01-31T06:11:39Z</time>
      </trkpt>
      <trkpt lat="42.0286" lon="0.85936">
        <ele>912.1</ele>
        <time>2019-01-31T06:11:41Z</time>
      </trkpt>
      <trkpt lat="42.0286" lon="0.8593">
        <ele>912.5</ele>
        <time>2019-01-31T06:11:44Z</time>
      </trkpt>
      <trkpt lat="42.0286" lon="0.85925">
        <ele>912.8</ele>
        <time>2019-01-31T06:11:46Z</time>
      </trkpt>
      <trkpt lat="42.02861" lon="0.85919">
        <ele>913.2</ele>
        <time>2019-01-31T06:11:48Z</time>
      </trkpt>
      <trkpt lat="42.02863" lon="0.85914">
        <ele>913.6</ele>
        <time>2019-01-31T06:11:51Z</time>
      </trkpt>
      <trkpt lat="42.02863" lon="0.85914">
        <ele>913.6</ele>
        <time>2019-01-31T06:11:51Z</time>
      </trkpt>
      <trkpt lat="42.02866" lon="0.85908">
        <ele>914.1</ele>
        <time>2019-01-31T06:11:54Z</time>
      </trkpt>
      <trkpt lat="42.02871" lon="0.85897">
        <ele>914.6</ele>
        <time>2019-01-31T06:11:59Z</time>
      </trkpt>
      <trkpt lat="42.02874" lon="0.85885">
        <ele>915.3</ele>
        <time>2019-01-31T06:12:05Z</time>
      </trkpt>
      <trkpt lat="42.02872" lon="0.85868">
        <ele>916.8</ele>
        <time>2019-01-31T06:12:12Z</time>
      </trkpt>
      <trkpt lat="42.02869" lon="0.85856">
        <ele>918</ele>
        <time>2019-01-31T06:12:18Z</time>
      </trkpt>
      <trkpt lat="42.02866" lon="0.85846">
        <ele>918.7</ele>
        <time>2019-01-31T06:12:22Z</time>
      </trkpt>
      <trkpt lat="42.02865" lon="0.85842">
        <ele>918.9</ele>
        <time>2019-01-31T06:12:24Z</time>
      </trkpt>
      <trkpt lat="42.02865" lon="0.85833">
        <ele>919.6</ele>
        <time>2019-01-31T06:12:27Z</time>
      </trkpt>
      <trkpt lat="42.02866" lon="0.85828">
        <ele>919.6</ele>
        <time>2019-01-31T06:12:30Z</time>
      </trkpt>
      <trkpt lat="42.02867" lon="0.85819">
        <ele>919.8</ele>
        <time>2019-01-31T06:12:34Z</time>
      </trkpt>
      <trkpt lat="42.02868" lon="0.85813">
        <ele>919.9</ele>
        <time>2019-01-31T06:12:36Z</time>
      </trkpt>
      <trkpt lat="42.02869" lon="0.85804">
        <ele>919.9</ele>
        <time>2019-01-31T06:12:40Z</time>
      </trkpt>
      <trkpt lat="42.02869" lon="0.85797">
        <ele>919.9</ele>
        <time>2019-01-31T06:12:43Z</time>
      </trkpt>
      <trkpt lat="42.02869" lon="0.85789">
        <ele>920</ele>
        <time>2019-01-31T06:12:46Z</time>
      </trkpt>
      <trkpt lat="42.02869" lon="0.85784">
        <ele>919.9</ele>
        <time>2019-01-31T06:12:49Z</time>
      </trkpt>
      <trkpt lat="42.0287" lon="0.85772">
        <ele>920.1</ele>
        <time>2019-01-31T06:12:54Z</time>
      </trkpt>
      <trkpt lat="42.0287" lon="0.85766">
        <ele>920.2</ele>
        <time>2019-01-31T06:12:56Z</time>
      </trkpt>
      <trkpt lat="42.02872" lon="0.85756">
        <ele>920.9</ele>
        <time>2019-01-31T06:13:01Z</time>
      </trkpt>
      <trkpt lat="42.02871" lon="0.85748">
        <ele>921.5</ele>
        <time>2019-01-31T06:13:04Z</time>
      </trkpt>
      <trkpt lat="42.02873" lon="0.8574">
        <ele>922</ele>
        <time>2019-01-31T06:13:08Z</time>
      </trkpt>
      <trkpt lat="42.02873" lon="0.85734">
        <ele>922.2</ele>
        <time>2019-01-31T06:13:10Z</time>
      </trkpt>
      <trkpt lat="42.02876" lon="0.85722">
        <ele>923</ele>
        <time>2019-01-31T06:13:16Z</time>
      </trkpt>
      <trkpt lat="42.02891" lon="0.85704">
        <ele>925.6</ele>
        <time>2019-01-31T06:13:27Z</time>
      </trkpt>
      <trkpt lat="42.02896" lon="0.857">
        <ele>926.6</ele>
        <time>2019-01-31T06:13:31Z</time>
      </trkpt>
      <trkpt lat="42.02903" lon="0.85695">
        <ele>927.7</ele>
        <time>2019-01-31T06:13:35Z</time>
      </trkpt>
      <trkpt lat="42.02903" lon="0.85695">
        <ele>927.7</ele>
        <time>2019-01-31T06:13:35Z</time>
      </trkpt>
      <trkpt lat="42.02908" lon="0.85691">
        <ele>928.6</ele>
        <time>2019-01-31T06:13:38Z</time>
      </trkpt>
      <trkpt lat="42.02908" lon="0.85691">
        <ele>928.6</ele>
        <time>2019-01-31T06:13:38Z</time>
      </trkpt>
      <trkpt lat="42.02913" lon="0.85688">
        <ele>929.2</ele>
        <time>2019-01-31T06:13:41Z</time>
      </trkpt>
      <trkpt lat="42.02924" lon="0.85674">
        <ele>931.7</ele>
        <time>2019-01-31T06:13:50Z</time>
      </trkpt>
      <trkpt lat="42.02927" lon="0.85667">
        <ele>932.7</ele>
        <time>2019-01-31T06:13:54Z</time>
      </trkpt>
      <trkpt lat="42.02933" lon="0.85655">
        <ele>934.6</ele>
        <time>2019-01-31T06:13:59Z</time>
      </trkpt>
      <trkpt lat="42.02936" lon="0.85652">
        <ele>935.6</ele>
        <time>2019-01-31T06:14:02Z</time>
      </trkpt>
      <trkpt lat="42.02944" lon="0.85645">
        <ele>937.5</ele>
        <time>2019-01-31T06:14:07Z</time>
      </trkpt>
      <trkpt lat="42.02944" lon="0.85645">
        <ele>937.6</ele>
        <time>2019-01-31T06:14:07Z</time>
      </trkpt>
      <trkpt lat="42.02949" lon="0.85642">
        <ele>938.9</ele>
        <time>2019-01-31T06:14:10Z</time>
      </trkpt>
      <trkpt lat="42.02955" lon="0.85639">
        <ele>940.2</ele>
        <time>2019-01-31T06:14:14Z</time>
      </trkpt>
      <trkpt lat="42.02959" lon="0.8564">
        <ele>941.1</ele>
        <time>2019-01-31T06:14:17Z</time>
      </trkpt>
      <trkpt lat="42.02965" lon="0.85642">
        <ele>942.1</ele>
        <time>2019-01-31T06:14:20Z</time>
      </trkpt>
      <trkpt lat="42.0297" lon="0.85642">
        <ele>943.2</ele>
        <time>2019-01-31T06:14:23Z</time>
      </trkpt>
      <trkpt lat="42.02973" lon="0.85645">
        <ele>944</ele>
        <time>2019-01-31T06:14:25Z</time>
      </trkpt>
      <trkpt lat="42.02979" lon="0.85649">
        <ele>945.2</ele>
        <time>2019-01-31T06:14:29Z</time>
      </trkpt>
      <trkpt lat="42.02982" lon="0.8565">
        <ele>945.6</ele>
        <time>2019-01-31T06:14:30Z</time>
      </trkpt>
      <trkpt lat="42.02982" lon="0.8565">
        <ele>945.7</ele>
        <time>2019-01-31T06:14:30Z</time>
      </trkpt>
      <trkpt lat="42.02986" lon="0.85647">
        <ele>946.7</ele>
        <time>2019-01-31T06:14:33Z</time>
      </trkpt>
      <trkpt lat="42.02989" lon="0.85645">
        <ele>947.5</ele>
        <time>2019-01-31T06:14:35Z</time>
      </trkpt>
      <trkpt lat="42.02991" lon="0.85644">
        <ele>940.3</ele>
        <time>2019-01-31T06:14:36Z</time>
      </trkpt>
      <trkpt lat="42.02999" lon="0.85642">
        <ele>941.7</ele>
        <time>2019-01-31T06:14:41Z</time>
      </trkpt>
      <trkpt lat="42.03003" lon="0.85639">
        <ele>942.2</ele>
        <time>2019-01-31T06:14:43Z</time>
      </trkpt>
      <trkpt lat="42.03004" lon="0.85627">
        <ele>941.8</ele>
        <time>2019-01-31T06:14:49Z</time>
      </trkpt>
      <trkpt lat="42.03006" lon="0.85613">
        <ele>943.7</ele>
        <time>2019-01-31T06:14:55Z</time>
      </trkpt>
      <trkpt lat="42.03009" lon="0.85611">
        <ele>944.6</ele>
        <time>2019-01-31T06:14:57Z</time>
      </trkpt>
      <trkpt lat="42.0302" lon="0.85604">
        <ele>947.5</ele>
        <time>2019-01-31T06:15:04Z</time>
      </trkpt>
      <trkpt lat="42.03024" lon="0.85603">
        <ele>949.4</ele>
        <time>2019-01-31T06:15:06Z</time>
      </trkpt>
      <trkpt lat="42.03034" lon="0.8561">
        <ele>952.9</ele>
        <time>2019-01-31T06:15:13Z</time>
      </trkpt>
      <trkpt lat="42.03034" lon="0.85611">
        <ele>952.4</ele>
        <time>2019-01-31T06:15:13Z</time>
      </trkpt>
      <trkpt lat="42.03036" lon="0.85614">
        <ele>952.8</ele>
        <time>2019-01-31T06:15:15Z</time>
      </trkpt>
      <trkpt lat="42.03042" lon="0.85614">
        <ele>954.2</ele>
        <time>2019-01-31T06:15:18Z</time>
      </trkpt>
      <trkpt lat="42.03056" lon="0.85618">
        <ele>957.6</ele>
        <time>2019-01-31T06:15:27Z</time>
      </trkpt>
      <trkpt lat="42.03058" lon="0.85618">
        <ele>957.7</ele>
        <time>2019-01-31T06:15:28Z</time>
      </trkpt>
      <trkpt lat="42.03063" lon="0.85612">
        <ele>961.5</ele>
        <time>2019-01-31T06:15:31Z</time>
      </trkpt>
      <trkpt lat="42.03063" lon="0.85613">
        <ele>960.5</ele>
        <time>2019-01-31T06:15:32Z</time>
      </trkpt>
      <trkpt lat="42.03076" lon="0.85625">
        <ele>963.9</ele>
        <time>2019-01-31T06:15:41Z</time>
      </trkpt>
      <trkpt lat="42.03078" lon="0.85626">
        <ele>963.5</ele>
        <time>2019-01-31T06:15:42Z</time>
      </trkpt>
      <trkpt lat="42.03089" lon="0.85608">
        <ele>965.9</ele>
        <time>2019-01-31T06:15:52Z</time>
      </trkpt>
      <trkpt lat="42.0309" lon="0.85603">
        <ele>967.2</ele>
        <time>2019-01-31T06:15:54Z</time>
      </trkpt>
      <trkpt lat="42.03094" lon="0.856">
        <ele>968.3</ele>
        <time>2019-01-31T06:15:56Z</time>
      </trkpt>
      <trkpt lat="42.03096" lon="0.85596">
        <ele>969.6</ele>
        <time>2019-01-31T06:15:58Z</time>
      </trkpt>
      <trkpt lat="42.03105" lon="0.85591">
        <ele>972</ele>
        <time>2019-01-31T06:16:04Z</time>
      </trkpt>
      <trkpt lat="42.03113" lon="0.85584">
        <ele>975.9</ele>
        <time>2019-01-31T06:16:09Z</time>
      </trkpt>
      <trkpt lat="42.03122" lon="0.85585">
        <ele>978.4</ele>
        <time>2019-01-31T06:16:14Z</time>
      </trkpt>
      <trkpt lat="42.03129" lon="0.85582">
        <ele>980.7</ele>
        <time>2019-01-31T06:16:19Z</time>
      </trkpt>
      <trkpt lat="42.03129" lon="0.85582">
        <ele>980.8</ele>
        <time>2019-01-31T06:16:19Z</time>
      </trkpt>
      <trkpt lat="42.03135" lon="0.85569">
        <ele>985</ele>
        <time>2019-01-31T06:16:25Z</time>
      </trkpt>
      <trkpt lat="42.03136" lon="0.85569">
        <ele>980.8</ele>
        <time>2019-01-31T06:16:26Z</time>
      </trkpt>
      <trkpt lat="42.03136" lon="0.85569">
        <ele>984</ele>
        <time>2019-01-31T06:16:26Z</time>
      </trkpt>
      <trkpt lat="42.03143" lon="0.85572">
        <ele>986</ele>
        <time>2019-01-31T06:16:30Z</time>
      </trkpt>
      <trkpt lat="42.03141" lon="0.85574">
        <ele>985.5</ele>
        <time>2019-01-31T06:16:31Z</time>
      </trkpt>
      <trkpt lat="42.0314" lon="0.85575">
        <ele>986.9</ele>
        <time>2019-01-31T06:16:32Z</time>
      </trkpt>
      <trkpt lat="42.03147" lon="0.8558">
        <ele>989.4</ele>
        <time>2019-01-31T06:16:37Z</time>
      </trkpt>
      <trkpt lat="42.0315" lon="0.85584">
        <ele>989.8</ele>
        <time>2019-01-31T06:16:39Z</time>
      </trkpt>
      <trkpt lat="42.03152" lon="0.85591">
        <ele>989.8</ele>
        <time>2019-01-31T06:16:42Z</time>
      </trkpt>
      <trkpt lat="42.03151" lon="0.85572">
        <ele>991.4</ele>
        <time>2019-01-31T06:16:51Z</time>
      </trkpt>
      <trkpt lat="42.03149" lon="0.85555">
        <ele>992.2</ele>
        <time>2019-01-31T06:16:58Z</time>
      </trkpt>
      <trkpt lat="42.0315" lon="0.85544">
        <ele>992.8</ele>
        <time>2019-01-31T06:17:03Z</time>
      </trkpt>
      <trkpt lat="42.03149" lon="0.85534">
        <ele>993.3</ele>
        <time>2019-01-31T06:17:07Z</time>
      </trkpt>
      <trkpt lat="42.03149" lon="0.8552">
        <ele>994.2</ele>
        <time>2019-01-31T06:17:13Z</time>
      </trkpt>
      <trkpt lat="42.03149" lon="0.85487">
        <ele>996.2</ele>
        <time>2019-01-31T06:17:27Z</time>
      </trkpt>
      <trkpt lat="42.03147" lon="0.85461">
        <ele>997.5</ele>
        <time>2019-01-31T06:17:38Z</time>
      </trkpt>
      <trkpt lat="42.03151" lon="0.85433">
        <ele>999</ele>
        <time>2019-01-31T06:17:50Z</time>
      </trkpt>
      <trkpt lat="42.03152" lon="0.85403">
        <ele>1000</ele>
        <time>2019-01-31T06:18:03Z</time>
      </trkpt>
      <trkpt lat="42.03152" lon="0.85369">
        <ele>1002.4</ele>
        <time>2019-01-31T06:18:17Z</time>
      </trkpt>
      <trkpt lat="42.03156" lon="0.85349">
        <ele>1003.3</ele>
        <time>2019-01-31T06:18:26Z</time>
      </trkpt>
      <trkpt lat="42.03162" lon="0.85322">
        <ele>1005.2</ele>
        <time>2019-01-31T06:18:38Z</time>
      </trkpt>
      <trkpt lat="42.03164" lon="0.85319">
        <ele>1005.7</ele>
        <time>2019-01-31T06:18:40Z</time>
      </trkpt>
      <trkpt lat="42.03168" lon="0.85307">
        <ele>1007.1</ele>
        <time>2019-01-31T06:18:45Z</time>
      </trkpt>
      <trkpt lat="42.03174" lon="0.85273">
        <ele>1009.1</ele>
        <time>2019-01-31T06:19:00Z</time>
      </trkpt>
      <trkpt lat="42.03174" lon="0.85272">
        <ele>1009.6</ele>
        <time>2019-01-31T06:19:01Z</time>
      </trkpt>
      <trkpt lat="42.03178" lon="0.85255">
        <ele>1010.5</ele>
        <time>2019-01-31T06:19:08Z</time>
      </trkpt>
      <trkpt lat="42.03179" lon="0.85231">
        <ele>1012</ele>
        <time>2019-01-31T06:19:18Z</time>
      </trkpt>
      <trkpt lat="42.03178" lon="0.85203">
        <ele>1013.8</ele>
        <time>2019-01-31T06:19:31Z</time>
      </trkpt>
      <trkpt lat="42.03178" lon="0.85174">
        <ele>1015.3</ele>
        <time>2019-01-31T06:19:43Z</time>
      </trkpt>
      <trkpt lat="42.0318" lon="0.85154">
        <ele>1016.7</ele>
        <time>2019-01-31T06:19:51Z</time>
      </trkpt>
      <trkpt lat="42.03178" lon="0.8515">
        <ele>1017.3</ele>
        <time>2019-01-31T06:19:53Z</time>
      </trkpt>
      <trkpt lat="42.0318" lon="0.85148">
        <ele>1017.2</ele>
        <time>2019-01-31T06:19:54Z</time>
      </trkpt>
      <trkpt lat="42.03183" lon="0.85138">
        <ele>1017.7</ele>
        <time>2019-01-31T06:19:59Z</time>
      </trkpt>
      <trkpt lat="42.0319" lon="0.85114">
        <ele>1019.6</ele>
        <time>2019-01-31T06:20:10Z</time>
      </trkpt>
      <trkpt lat="42.03193" lon="0.85106">
        <ele>1020.1</ele>
        <time>2019-01-31T06:20:14Z</time>
      </trkpt>
      <trkpt lat="42.03197" lon="0.85099">
        <ele>1020.7</ele>
        <time>2019-01-31T06:20:17Z</time>
      </trkpt>
      <trkpt lat="42.03203" lon="0.85085">
        <ele>1021.6</ele>
        <time>2019-01-31T06:20:24Z</time>
      </trkpt>
      <trkpt lat="42.03209" lon="0.85068">
        <ele>1023</ele>
        <time>2019-01-31T06:20:32Z</time>
      </trkpt>
      <trkpt lat="42.03214" lon="0.85049">
        <ele>1023.5</ele>
        <time>2019-01-31T06:20:41Z</time>
      </trkpt>
      <trkpt lat="42.03214" lon="0.85042">
        <ele>1023.9</ele>
        <time>2019-01-31T06:20:44Z</time>
      </trkpt>
      <trkpt lat="42.03216" lon="0.85027">
        <ele>1024.5</ele>
        <time>2019-01-31T06:20:50Z</time>
      </trkpt>
      <trkpt lat="42.03218" lon="0.85018">
        <ele>1024.9</ele>
        <time>2019-01-31T06:20:54Z</time>
      </trkpt>
      <trkpt lat="42.03226" lon="0.84987">
        <ele>1026.9</ele>
        <time>2019-01-31T06:21:08Z</time>
      </trkpt>
      <trkpt lat="42.03227" lon="0.84956">
        <ele>1028.3</ele>
        <time>2019-01-31T06:21:21Z</time>
      </trkpt>
      <trkpt lat="42.03226" lon="0.84946">
        <ele>1028.7</ele>
        <time>2019-01-31T06:21:26Z</time>
      </trkpt>
      <trkpt lat="42.03226" lon="0.8492">
        <ele>1029.8</ele>
        <time>2019-01-31T06:21:37Z</time>
      </trkpt>
      <trkpt lat="42.03223" lon="0.84891">
        <ele>1031.2</ele>
        <time>2019-01-31T06:21:49Z</time>
      </trkpt>
      <trkpt lat="42.03223" lon="0.84858">
        <ele>1032.7</ele>
        <time>2019-01-31T06:22:03Z</time>
      </trkpt>
      <trkpt lat="42.03227" lon="0.84827">
        <ele>1034.5</ele>
        <time>2019-01-31T06:22:16Z</time>
      </trkpt>
      <trkpt lat="42.03234" lon="0.84801">
        <ele>1036.4</ele>
        <time>2019-01-31T06:22:28Z</time>
      </trkpt>
      <trkpt lat="42.03242" lon="0.84771">
        <ele>1038.5</ele>
        <time>2019-01-31T06:22:42Z</time>
      </trkpt>
      <trkpt lat="42.03247" lon="0.84742">
        <ele>1039.8</ele>
        <time>2019-01-31T06:22:54Z</time>
      </trkpt>
      <trkpt lat="42.03251" lon="0.84721">
        <ele>1041.8</ele>
        <time>2019-01-31T06:23:04Z</time>
      </trkpt>
      <trkpt lat="42.03257" lon="0.84698">
        <ele>1043.7</ele>
        <time>2019-01-31T06:23:14Z</time>
      </trkpt>
      <trkpt lat="42.03261" lon="0.84672">
        <ele>1045.2</ele>
        <time>2019-01-31T06:23:25Z</time>
      </trkpt>
      <trkpt lat="42.03266" lon="0.8464">
        <ele>1046.5</ele>
        <time>2019-01-31T06:23:39Z</time>
      </trkpt>
      <trkpt lat="42.03276" lon="0.84611">
        <ele>1048.9</ele>
        <time>2019-01-31T06:23:53Z</time>
      </trkpt>
      <trkpt lat="42.03286" lon="0.8458">
        <ele>1051</ele>
        <time>2019-01-31T06:24:07Z</time>
      </trkpt>
      <trkpt lat="42.03287" lon="0.84569">
        <ele>1051.9</ele>
        <time>2019-01-31T06:24:12Z</time>
      </trkpt>
      <trkpt lat="42.03302" lon="0.8454">
        <ele>1053.8</ele>
        <time>2019-01-31T06:24:27Z</time>
      </trkpt>
      <trkpt lat="42.03311" lon="0.8451">
        <ele>1056.1</ele>
        <time>2019-01-31T06:24:40Z</time>
      </trkpt>
      <trkpt lat="42.03314" lon="0.84501">
        <ele>1057.2</ele>
        <time>2019-01-31T06:24:45Z</time>
      </trkpt>
      <trkpt lat="42.03326" lon="0.84482">
        <ele>1059</ele>
        <time>2019-01-31T06:24:55Z</time>
      </trkpt>
      <trkpt lat="42.03339" lon="0.84453">
        <ele>1061</ele>
        <time>2019-01-31T06:25:10Z</time>
      </trkpt>
      <trkpt lat="42.03344" lon="0.84431">
        <ele>1062</ele>
        <time>2019-01-31T06:25:19Z</time>
      </trkpt>
      <trkpt lat="42.03348" lon="0.8442">
        <ele>1062.9</ele>
        <time>2019-01-31T06:25:25Z</time>
      </trkpt>
      <trkpt lat="42.03349" lon="0.84415">
        <ele>1063</ele>
        <time>2019-01-31T06:25:27Z</time>
      </trkpt>
      <trkpt lat="42.03349" lon="0.84405">
        <ele>1063.8</ele>
        <time>2019-01-31T06:25:31Z</time>
      </trkpt>
      <trkpt lat="42.03347" lon="0.84373">
        <ele>1065.3</ele>
        <time>2019-01-31T06:25:45Z</time>
      </trkpt>
      <trkpt lat="42.03346" lon="0.8434">
        <ele>1066.8</ele>
        <time>2019-01-31T06:25:59Z</time>
      </trkpt>
      <trkpt lat="42.03354" lon="0.84308">
        <ele>1068.6</ele>
        <time>2019-01-31T06:26:13Z</time>
      </trkpt>
      <trkpt lat="42.0336" lon="0.84283">
        <ele>1071</ele>
        <time>2019-01-31T06:26:24Z</time>
      </trkpt>
      <trkpt lat="42.03356" lon="0.84247">
        <ele>1071.5</ele>
        <time>2019-01-31T06:26:40Z</time>
      </trkpt>
      <trkpt lat="42.03348" lon="0.84219">
        <ele>1073.1</ele>
        <time>2019-01-31T06:26:53Z</time>
      </trkpt>
      <trkpt lat="42.0335" lon="0.84187">
        <ele>1074.4</ele>
        <time>2019-01-31T06:27:06Z</time>
      </trkpt>
      <trkpt lat="42.03358" lon="0.84156">
        <ele>1076.8</ele>
        <time>2019-01-31T06:27:20Z</time>
      </trkpt>
      <trkpt lat="42.03366" lon="0.84134">
        <ele>1078.3</ele>
        <time>2019-01-31T06:27:30Z</time>
      </trkpt>
      <trkpt lat="42.03369" lon="0.84101">
        <ele>1079.8</ele>
        <time>2019-01-31T06:27:45Z</time>
      </trkpt>
      <trkpt lat="42.03381" lon="0.84079">
        <ele>1081.2</ele>
        <time>2019-01-31T06:27:56Z</time>
      </trkpt>
      <trkpt lat="42.03403" lon="0.84068">
        <ele>1083.5</ele>
        <time>2019-01-31T06:28:10Z</time>
      </trkpt>
      <trkpt lat="42.03418" lon="0.8405">
        <ele>1084.5</ele>
        <time>2019-01-31T06:28:21Z</time>
      </trkpt>
      <trkpt lat="42.03434" lon="0.8402">
        <ele>1086.4</ele>
        <time>2019-01-31T06:28:37Z</time>
      </trkpt>
      <trkpt lat="42.03459" lon="0.83991">
        <ele>1089.3</ele>
        <time>2019-01-31T06:28:56Z</time>
      </trkpt>
      <trkpt lat="42.03477" lon="0.8396">
        <ele>1090.9</ele>
        <time>2019-01-31T06:29:12Z</time>
      </trkpt>
      <trkpt lat="42.03492" lon="0.83922">
        <ele>1093.3</ele>
        <time>2019-01-31T06:29:31Z</time>
      </trkpt>
      <trkpt lat="42.03508" lon="0.8389">
        <ele>1095.7</ele>
        <time>2019-01-31T06:29:47Z</time>
      </trkpt>
      <trkpt lat="42.03519" lon="0.8385">
        <ele>1098.1</ele>
        <time>2019-01-31T06:30:05Z</time>
      </trkpt>
      <trkpt lat="42.03532" lon="0.83817">
        <ele>1100</ele>
        <time>2019-01-31T06:30:21Z</time>
      </trkpt>
      <trkpt lat="42.0354" lon="0.83784">
        <ele>1102.3</ele>
        <time>2019-01-31T06:30:36Z</time>
      </trkpt>
      <trkpt lat="42.03549" lon="0.83758">
        <ele>1103.8</ele>
        <time>2019-01-31T06:30:48Z</time>
      </trkpt>
      <trkpt lat="42.03556" lon="0.83731">
        <ele>1105.8</ele>
        <time>2019-01-31T06:31:00Z</time>
      </trkpt>
      <trkpt lat="42.03556" lon="0.83725">
        <ele>1106.1</ele>
        <time>2019-01-31T06:31:02Z</time>
      </trkpt>
      <trkpt lat="42.03558" lon="0.83697">
        <ele>1107.6</ele>
        <time>2019-01-31T06:31:14Z</time>
      </trkpt>
      <trkpt lat="42.03559" lon="0.83689">
        <ele>1108.5</ele>
        <time>2019-01-31T06:31:18Z</time>
      </trkpt>
      <trkpt lat="42.0356" lon="0.8367">
        <ele>1109.5</ele>
        <time>2019-01-31T06:31:26Z</time>
      </trkpt>
      <trkpt lat="42.03563" lon="0.83662">
        <ele>1109.6</ele>
        <time>2019-01-31T06:31:30Z</time>
      </trkpt>
      <trkpt lat="42.03569" lon="0.83632">
        <ele>1112</ele>
        <time>2019-01-31T06:31:43Z</time>
      </trkpt>
      <trkpt lat="42.03582" lon="0.83606">
        <ele>1113.8</ele>
        <time>2019-01-31T06:31:56Z</time>
      </trkpt>
      <trkpt lat="42.03591" lon="0.83588">
        <ele>1114.9</ele>
        <time>2019-01-31T06:32:05Z</time>
      </trkpt>
      <trkpt lat="42.03592" lon="0.83587">
        <ele>1115.4</ele>
        <time>2019-01-31T06:32:06Z</time>
      </trkpt>
      <trkpt lat="42.03594" lon="0.83585">
        <ele>1115.3</ele>
        <time>2019-01-31T06:32:07Z</time>
      </trkpt>
      <trkpt lat="42.03599" lon="0.83579">
        <ele>1115.8</ele>
        <time>2019-01-31T06:32:11Z</time>
      </trkpt>
      <trkpt lat="42.0361" lon="0.8356">
        <ele>1117.7</ele>
        <time>2019-01-31T06:32:22Z</time>
      </trkpt>
      <trkpt lat="42.03616" lon="0.83548">
        <ele>1118.2</ele>
        <time>2019-01-31T06:32:28Z</time>
      </trkpt>
      <trkpt lat="42.0362" lon="0.83539">
        <ele>1118.2</ele>
        <time>2019-01-31T06:32:32Z</time>
      </trkpt>
      <trkpt lat="42.03622" lon="0.83536">
        <ele>1118.7</ele>
        <time>2019-01-31T06:32:34Z</time>
      </trkpt>
      <trkpt lat="42.03633" lon="0.83513">
        <ele>1120.7</ele>
        <time>2019-01-31T06:32:46Z</time>
      </trkpt>
      <trkpt lat="42.03636" lon="0.83503">
        <ele>1121.1</ele>
        <time>2019-01-31T06:32:50Z</time>
      </trkpt>
      <trkpt lat="42.03638" lon="0.835">
        <ele>1121</ele>
        <time>2019-01-31T06:32:52Z</time>
      </trkpt>
      <trkpt lat="42.03649" lon="0.83472">
        <ele>1123</ele>
        <time>2019-01-31T06:33:05Z</time>
      </trkpt>
      <trkpt lat="42.03651" lon="0.83467">
        <ele>1123.1</ele>
        <time>2019-01-31T06:33:08Z</time>
      </trkpt>
      <trkpt lat="42.03657" lon="0.83437">
        <ele>1124.9</ele>
        <time>2019-01-31T06:33:21Z</time>
      </trkpt>
      <trkpt lat="42.03668" lon="0.83411">
        <ele>1126.4</ele>
        <time>2019-01-31T06:33:34Z</time>
      </trkpt>
      <trkpt lat="42.0367" lon="0.83384">
        <ele>1127.8</ele>
        <time>2019-01-31T06:33:45Z</time>
      </trkpt>
      <trkpt lat="42.0367" lon="0.83354">
        <ele>1129.7</ele>
        <time>2019-01-31T06:33:58Z</time>
      </trkpt>
      <trkpt lat="42.03669" lon="0.83323">
        <ele>1131.1</ele>
        <time>2019-01-31T06:34:11Z</time>
      </trkpt>
      <trkpt lat="42.0367" lon="0.83294">
        <ele>1132.6</ele>
        <time>2019-01-31T06:34:24Z</time>
      </trkpt>
      <trkpt lat="42.03668" lon="0.83278">
        <ele>1133.1</ele>
        <time>2019-01-31T06:34:30Z</time>
      </trkpt>
      <trkpt lat="42.03668" lon="0.83244">
        <ele>1135</ele>
        <time>2019-01-31T06:34:45Z</time>
      </trkpt>
      <trkpt lat="42.0367" lon="0.83218">
        <ele>1136.5</ele>
        <time>2019-01-31T06:34:56Z</time>
      </trkpt>
      <trkpt lat="42.0367" lon="0.83217">
        <ele>1136.4</ele>
        <time>2019-01-31T06:34:56Z</time>
      </trkpt>
      <trkpt lat="42.03672" lon="0.83187">
        <ele>1138.3</ele>
        <time>2019-01-31T06:35:09Z</time>
      </trkpt>
      <trkpt lat="42.03675" lon="0.83169">
        <ele>1139.8</ele>
        <time>2019-01-31T06:35:17Z</time>
      </trkpt>
      <trkpt lat="42.03677" lon="0.83157">
        <ele>1141.3</ele>
        <time>2019-01-31T06:35:22Z</time>
      </trkpt>
      <trkpt lat="42.03678" lon="0.83151">
        <ele>1141.8</ele>
        <time>2019-01-31T06:35:25Z</time>
      </trkpt>
      <trkpt lat="42.03679" lon="0.83139">
        <ele>1142.3</ele>
        <time>2019-01-31T06:35:30Z</time>
      </trkpt>
      <trkpt lat="42.03689" lon="0.83113">
        <ele>1144.6</ele>
        <time>2019-01-31T06:35:42Z</time>
      </trkpt>
      <trkpt lat="42.03701" lon="0.8309">
        <ele>1147.5</ele>
        <time>2019-01-31T06:35:54Z</time>
      </trkpt>
      <trkpt lat="42.03709" lon="0.83063">
        <ele>1150.4</ele>
        <time>2019-01-31T06:36:07Z</time>
      </trkpt>
      <trkpt lat="42.0372" lon="0.83037">
        <ele>1152.3</ele>
        <time>2019-01-31T06:36:19Z</time>
      </trkpt>
      <trkpt lat="42.0372" lon="0.83034">
        <ele>1152.4</ele>
        <time>2019-01-31T06:36:21Z</time>
      </trkpt>
      <trkpt lat="42.03725" lon="0.83017">
        <ele>1153.2</ele>
        <time>2019-01-31T06:36:28Z</time>
      </trkpt>
      <trkpt lat="42.03726" lon="0.82987">
        <ele>1155.3</ele>
        <time>2019-01-31T06:36:41Z</time>
      </trkpt>
      <trkpt lat="42.03722" lon="0.82977">
        <ele>1155.7</ele>
        <time>2019-01-31T06:36:46Z</time>
      </trkpt>
      <trkpt lat="42.03722" lon="0.82966">
        <ele>1156.2</ele>
        <time>2019-01-31T06:36:50Z</time>
      </trkpt>
      <trkpt lat="42.03724" lon="0.82931">
        <ele>1159</ele>
        <time>2019-01-31T06:37:05Z</time>
      </trkpt>
      <trkpt lat="42.03731" lon="0.82915">
        <ele>1160.5</ele>
        <time>2019-01-31T06:37:13Z</time>
      </trkpt>
      <trkpt lat="42.03744" lon="0.82887">
        <ele>1162.5</ele>
        <time>2019-01-31T06:37:27Z</time>
      </trkpt>
      <trkpt lat="42.03756" lon="0.82865">
        <ele>1163.9</ele>
        <time>2019-01-31T06:37:39Z</time>
      </trkpt>
      <trkpt lat="42.03759" lon="0.82854">
        <ele>1164.8</ele>
        <time>2019-01-31T06:37:44Z</time>
      </trkpt>
      <trkpt lat="42.03764" lon="0.82844">
        <ele>1165.3</ele>
        <time>2019-01-31T06:37:49Z</time>
      </trkpt>
      <trkpt lat="42.03775" lon="0.82828">
        <ele>1165.7</ele>
        <time>2019-01-31T06:37:58Z</time>
      </trkpt>
      <trkpt lat="42.03781" lon="0.82816">
        <ele>1166.8</ele>
        <time>2019-01-31T06:38:04Z</time>
      </trkpt>
      <trkpt lat="42.03784" lon="0.82803">
        <ele>1167.3</ele>
        <time>2019-01-31T06:38:10Z</time>
      </trkpt>
      <trkpt lat="42.03773" lon="0.82773">
        <ele>1169.2</ele>
        <time>2019-01-31T06:38:25Z</time>
      </trkpt>
      <trkpt lat="42.03768" lon="0.82747">
        <ele>1170.6</ele>
        <time>2019-01-31T06:38:36Z</time>
      </trkpt>
      <trkpt lat="42.03766" lon="0.8272">
        <ele>1172.5</ele>
        <time>2019-01-31T06:38:47Z</time>
      </trkpt>
      <trkpt lat="42.03766" lon="0.82714">
        <ele>1172.9</ele>
        <time>2019-01-31T06:38:50Z</time>
      </trkpt>
      <trkpt lat="42.03757" lon="0.8269">
        <ele>1174.4</ele>
        <time>2019-01-31T06:39:01Z</time>
      </trkpt>
      <trkpt lat="42.03752" lon="0.82659">
        <ele>1176.4</ele>
        <time>2019-01-31T06:39:15Z</time>
      </trkpt>
      <trkpt lat="42.03752" lon="0.82645">
        <ele>1177.4</ele>
        <time>2019-01-31T06:39:20Z</time>
      </trkpt>
      <trkpt lat="42.03746" lon="0.82621">
        <ele>1178.7</ele>
        <time>2019-01-31T06:39:31Z</time>
      </trkpt>
      <trkpt lat="42.03739" lon="0.82598">
        <ele>1180.6</ele>
        <time>2019-01-31T06:39:42Z</time>
      </trkpt>
      <trkpt lat="42.0373" lon="0.82567">
        <ele>1182.2</ele>
        <time>2019-01-31T06:39:56Z</time>
      </trkpt>
      <trkpt lat="42.03721" lon="0.82539">
        <ele>1184.1</ele>
        <time>2019-01-31T06:40:09Z</time>
      </trkpt>
      <trkpt lat="42.03715" lon="0.82528">
        <ele>1185.1</ele>
        <time>2019-01-31T06:40:15Z</time>
      </trkpt>
      <trkpt lat="42.03709" lon="0.82518">
        <ele>1186.5</ele>
        <time>2019-01-31T06:40:21Z</time>
      </trkpt>
      <trkpt lat="42.03697" lon="0.82489">
        <ele>1187.8</ele>
        <time>2019-01-31T06:40:35Z</time>
      </trkpt>
      <trkpt lat="42.03688" lon="0.82471">
        <ele>1189.4</ele>
        <time>2019-01-31T06:40:44Z</time>
      </trkpt>
      <trkpt lat="42.03683" lon="0.82455">
        <ele>1190.7</ele>
        <time>2019-01-31T06:40:51Z</time>
      </trkpt>
      <trkpt lat="42.03677" lon="0.82441">
        <ele>1191.3</ele>
        <time>2019-01-31T06:40:58Z</time>
      </trkpt>
      <trkpt lat="42.03672" lon="0.82428">
        <ele>1192.7</ele>
        <time>2019-01-31T06:41:04Z</time>
      </trkpt>
      <trkpt lat="42.03665" lon="0.82405">
        <ele>1194.6</ele>
        <time>2019-01-31T06:41:15Z</time>
      </trkpt>
      <trkpt lat="42.03662" lon="0.82395">
        <ele>1194.6</ele>
        <time>2019-01-31T06:41:19Z</time>
      </trkpt>
      <trkpt lat="42.0366" lon="0.82384">
        <ele>1195.5</ele>
        <time>2019-01-31T06:41:24Z</time>
      </trkpt>
      <trkpt lat="42.03659" lon="0.82356">
        <ele>1197.6</ele>
        <time>2019-01-31T06:41:36Z</time>
      </trkpt>
      <trkpt lat="42.0366" lon="0.82348">
        <ele>1198.4</ele>
        <time>2019-01-31T06:41:39Z</time>
      </trkpt>
      <trkpt lat="42.03664" lon="0.82316">
        <ele>1199</ele>
        <time>2019-01-31T06:41:53Z</time>
      </trkpt>
      <trkpt lat="42.03665" lon="0.82309">
        <ele>1201.9</ele>
        <time>2019-01-31T06:41:56Z</time>
      </trkpt>
      <trkpt lat="42.03665" lon="0.82307">
        <ele>1201.9</ele>
        <time>2019-01-31T06:41:57Z</time>
      </trkpt>
      <trkpt lat="42.03666" lon="0.82299">
        <ele>1201.9</ele>
        <time>2019-01-31T06:42:01Z</time>
      </trkpt>
      <trkpt lat="42.03667" lon="0.82295">
        <ele>1201.9</ele>
        <time>2019-01-31T06:42:02Z</time>
      </trkpt>
      <trkpt lat="42.03669" lon="0.82288">
        <ele>1201.8</ele>
        <time>2019-01-31T06:42:06Z</time>
      </trkpt>
      <trkpt lat="42.03673" lon="0.82254">
        <ele>1203.8</ele>
        <time>2019-01-31T06:42:20Z</time>
      </trkpt>
      <trkpt lat="42.03674" lon="0.82227">
        <ele>1204.8</ele>
        <time>2019-01-31T06:42:32Z</time>
      </trkpt>
      <trkpt lat="42.03667" lon="0.82197">
        <ele>1206.6</ele>
        <time>2019-01-31T06:42:45Z</time>
      </trkpt>
      <trkpt lat="42.03664" lon="0.82163">
        <ele>1208.5</ele>
        <time>2019-01-31T06:43:00Z</time>
      </trkpt>
      <trkpt lat="42.03659" lon="0.82138">
        <ele>1210.4</ele>
        <time>2019-01-31T06:43:11Z</time>
      </trkpt>
      <trkpt lat="42.03655" lon="0.82121">
        <ele>1211</ele>
        <time>2019-01-31T06:43:18Z</time>
      </trkpt>
      <trkpt lat="42.03647" lon="0.82093">
        <ele>1213.4</ele>
        <time>2019-01-31T06:43:31Z</time>
      </trkpt>
      <trkpt lat="42.03632" lon="0.82069">
        <ele>1215.8</ele>
        <time>2019-01-31T06:43:45Z</time>
      </trkpt>
      <trkpt lat="42.0361" lon="0.8205">
        <ele>1217.6</ele>
        <time>2019-01-31T06:44:00Z</time>
      </trkpt>
      <trkpt lat="42.03595" lon="0.82027">
        <ele>1219.7</ele>
        <time>2019-01-31T06:44:12Z</time>
      </trkpt>
      <trkpt lat="42.0359" lon="0.82012">
        <ele>1220.1</ele>
        <time>2019-01-31T06:44:19Z</time>
      </trkpt>
      <trkpt lat="42.03588" lon="0.82">
        <ele>1220.6</ele>
        <time>2019-01-31T06:44:24Z</time>
      </trkpt>
      <trkpt lat="42.03586" lon="0.81969">
        <ele>1222.6</ele>
        <time>2019-01-31T06:44:38Z</time>
      </trkpt>
      <trkpt lat="42.0358" lon="0.81939">
        <ele>1224.4</ele>
        <time>2019-01-31T06:44:51Z</time>
      </trkpt>
      <trkpt lat="42.03578" lon="0.81935">
        <ele>1224.9</ele>
        <time>2019-01-31T06:44:53Z</time>
      </trkpt>
      <trkpt lat="42.03575" lon="0.81916">
        <ele>1225.8</ele>
        <time>2019-01-31T06:45:01Z</time>
      </trkpt>
      <trkpt lat="42.03572" lon="0.81903">
        <ele>1226.9</ele>
        <time>2019-01-31T06:45:07Z</time>
      </trkpt>
      <trkpt lat="42.03572" lon="0.81896">
        <ele>1227.4</ele>
        <time>2019-01-31T06:45:10Z</time>
      </trkpt>
      <trkpt lat="42.03575" lon="0.81876">
        <ele>1228.2</ele>
        <time>2019-01-31T06:45:18Z</time>
      </trkpt>
      <trkpt lat="42.03572" lon="0.81864">
        <ele>1229.3</ele>
        <time>2019-01-31T06:45:24Z</time>
      </trkpt>
      <trkpt lat="42.03573" lon="0.81828">
        <ele>1231.7</ele>
        <time>2019-01-31T06:45:39Z</time>
      </trkpt>
      <trkpt lat="42.03572" lon="0.81815">
        <ele>1232.5</ele>
        <time>2019-01-31T06:45:45Z</time>
      </trkpt>
      <trkpt lat="42.03569" lon="0.81798">
        <ele>1233</ele>
        <time>2019-01-31T06:45:52Z</time>
      </trkpt>
      <trkpt lat="42.03563" lon="0.81762">
        <ele>1235.1</ele>
        <time>2019-01-31T06:46:08Z</time>
      </trkpt>
      <trkpt lat="42.03563" lon="0.81724">
        <ele>1236.5</ele>
        <time>2019-01-31T06:46:24Z</time>
      </trkpt>
      <trkpt lat="42.03563" lon="0.81691">
        <ele>1238.4</ele>
        <time>2019-01-31T06:46:38Z</time>
      </trkpt>
      <trkpt lat="42.03561" lon="0.81661">
        <ele>1240.7</ele>
        <time>2019-01-31T06:46:51Z</time>
      </trkpt>
      <trkpt lat="42.03562" lon="0.81621">
        <ele>1243.1</ele>
        <time>2019-01-31T06:47:08Z</time>
      </trkpt>
      <trkpt lat="42.0356" lon="0.81589">
        <ele>1244.7</ele>
        <time>2019-01-31T06:47:21Z</time>
      </trkpt>
      <trkpt lat="42.03557" lon="0.81545">
        <ele>1246.6</ele>
        <time>2019-01-31T06:47:40Z</time>
      </trkpt>
      <trkpt lat="42.03557" lon="0.81507">
        <ele>1248</ele>
        <time>2019-01-31T06:47:56Z</time>
      </trkpt>
      <trkpt lat="42.0355" lon="0.81469">
        <ele>1250.4</ele>
        <time>2019-01-31T06:48:13Z</time>
      </trkpt>
      <trkpt lat="42.03542" lon="0.81444">
        <ele>1250.8</ele>
        <time>2019-01-31T06:48:25Z</time>
      </trkpt>
      <trkpt lat="42.03533" lon="0.81421">
        <ele>1252.3</ele>
        <time>2019-01-31T06:48:35Z</time>
      </trkpt>
      <trkpt lat="42.03531" lon="0.81413">
        <ele>1252.7</ele>
        <time>2019-01-31T06:48:39Z</time>
      </trkpt>
      <trkpt lat="42.03524" lon="0.8139">
        <ele>1253.2</ele>
        <time>2019-01-31T06:48:50Z</time>
      </trkpt>
      <trkpt lat="42.0352" lon="0.81359">
        <ele>1255.6</ele>
        <time>2019-01-31T06:49:03Z</time>
      </trkpt>
      <trkpt lat="42.03519" lon="0.81332">
        <ele>1257.5</ele>
        <time>2019-01-31T06:49:14Z</time>
      </trkpt>
      <trkpt lat="42.03518" lon="0.81294">
        <ele>1259</ele>
        <time>2019-01-31T06:49:31Z</time>
      </trkpt>
      <trkpt lat="42.03523" lon="0.81269">
        <ele>1259.9</ele>
        <time>2019-01-31T06:49:42Z</time>
      </trkpt>
      <trkpt lat="42.03522" lon="0.81241">
        <ele>1262</ele>
        <time>2019-01-31T06:49:53Z</time>
      </trkpt>
      <trkpt lat="42.03521" lon="0.81211">
        <ele>1262</ele>
        <time>2019-01-31T06:50:06Z</time>
      </trkpt>
      <trkpt lat="42.03524" lon="0.8118">
        <ele>1262.3</ele>
        <time>2019-01-31T06:50:19Z</time>
      </trkpt>
      <trkpt lat="42.03527" lon="0.81173">
        <ele>1262.4</ele>
        <time>2019-01-31T06:50:23Z</time>
      </trkpt>
      <trkpt lat="42.03542" lon="0.81135">
        <ele>1262.4</ele>
        <time>2019-01-31T06:50:41Z</time>
      </trkpt>
      <trkpt lat="42.0355" lon="0.81095">
        <ele>1262.4</ele>
        <time>2019-01-31T06:50:59Z</time>
      </trkpt>
      <trkpt lat="42.03556" lon="0.81058">
        <ele>1261.4</ele>
        <time>2019-01-31T06:51:15Z</time>
      </trkpt>
      <trkpt lat="42.03557" lon="0.81045">
        <ele>1261.4</ele>
        <time>2019-01-31T06:51:21Z</time>
      </trkpt>
      <trkpt lat="42.03553" lon="0.80999">
        <ele>1260</ele>
        <time>2019-01-31T06:51:40Z</time>
      </trkpt>
      <trkpt lat="42.03543" lon="0.8094">
        <ele>1259</ele>
        <time>2019-01-31T06:52:06Z</time>
      </trkpt>
      <trkpt lat="42.0354" lon="0.80929">
        <ele>1259.5</ele>
        <time>2019-01-31T06:52:11Z</time>
      </trkpt>
      <trkpt lat="42.03533" lon="0.80895">
        <ele>1259.5</ele>
        <time>2019-01-31T06:52:26Z</time>
      </trkpt>
      <trkpt lat="42.03522" lon="0.80872">
        <ele>1259.1</ele>
        <time>2019-01-31T06:52:38Z</time>
      </trkpt>
      <trkpt lat="42.03519" lon="0.80852">
        <ele>1259</ele>
        <time>2019-01-31T06:52:46Z</time>
      </trkpt>
      <trkpt lat="42.03519" lon="0.80842">
        <ele>1259.5</ele>
        <time>2019-01-31T06:52:50Z</time>
      </trkpt>
      <trkpt lat="42.03518" lon="0.80834">
        <ele>1258.6</ele>
        <time>2019-01-31T06:52:54Z</time>
      </trkpt>
      <trkpt lat="42.03515" lon="0.80821">
        <ele>1258</ele>
        <time>2019-01-31T06:52:59Z</time>
      </trkpt>
      <trkpt lat="42.03515" lon="0.80801">
        <ele>1257.5</ele>
        <time>2019-01-31T06:53:08Z</time>
      </trkpt>
      <trkpt lat="42.03512" lon="0.80758">
        <ele>1256.7</ele>
        <time>2019-01-31T06:53:26Z</time>
      </trkpt>
      <trkpt lat="42.03516" lon="0.80723">
        <ele>1255.6</ele>
        <time>2019-01-31T06:53:41Z</time>
      </trkpt>
      <trkpt lat="42.03516" lon="0.80722">
        <ele>1255.6</ele>
        <time>2019-01-31T06:53:42Z</time>
      </trkpt>
      <trkpt lat="42.03529" lon="0.80691">
        <ele>1254.8</ele>
        <time>2019-01-31T06:53:57Z</time>
      </trkpt>
      <trkpt lat="42.0353" lon="0.80685">
        <ele>1259</ele>
        <time>2019-01-31T06:54:00Z</time>
      </trkpt>
      <trkpt lat="42.03534" lon="0.80664">
        <ele>1259</ele>
        <time>2019-01-31T06:54:09Z</time>
      </trkpt>
      <trkpt lat="42.0354" lon="0.80638">
        <ele>1259</ele>
        <time>2019-01-31T06:54:21Z</time>
      </trkpt>
      <trkpt lat="42.03543" lon="0.80619">
        <ele>1258.6</ele>
        <time>2019-01-31T06:54:29Z</time>
      </trkpt>
      <trkpt lat="42.03548" lon="0.80597">
        <ele>1258.6</ele>
        <time>2019-01-31T06:54:39Z</time>
      </trkpt>
      <trkpt lat="42.03553" lon="0.8058">
        <ele>1259.5</ele>
        <time>2019-01-31T06:54:47Z</time>
      </trkpt>
      <trkpt lat="42.03559" lon="0.80566">
        <ele>1259.1</ele>
        <time>2019-01-31T06:54:53Z</time>
      </trkpt>
      <trkpt lat="42.03566" lon="0.80555">
        <ele>1259.1</ele>
        <time>2019-01-31T06:54:59Z</time>
      </trkpt>
      <trkpt lat="42.03569" lon="0.80544">
        <ele>1259.5</ele>
        <time>2019-01-31T06:55:04Z</time>
      </trkpt>
      <trkpt lat="42.03581" lon="0.80524">
        <ele>1259.6</ele>
        <time>2019-01-31T06:55:15Z</time>
      </trkpt>
      <trkpt lat="42.03593" lon="0.80503">
        <ele>1261</ele>
        <time>2019-01-31T06:55:27Z</time>
      </trkpt>
      <trkpt lat="42.03593" lon="0.80501">
        <ele>1260.4</ele>
        <time>2019-01-31T06:55:27Z</time>
      </trkpt>
      <trkpt lat="42.03607" lon="0.80481">
        <ele>1260.9</ele>
        <time>2019-01-31T06:55:39Z</time>
      </trkpt>
      <trkpt lat="42.03616" lon="0.80465">
        <ele>1261.9</ele>
        <time>2019-01-31T06:55:47Z</time>
      </trkpt>
      <trkpt lat="42.0362" lon="0.80454">
        <ele>1262</ele>
        <time>2019-01-31T06:55:53Z</time>
      </trkpt>
      <trkpt lat="42.0363" lon="0.80439">
        <ele>1262.9</ele>
        <time>2019-01-31T06:56:01Z</time>
      </trkpt>
      <trkpt lat="42.03643" lon="0.80414">
        <ele>1264.3</ele>
        <time>2019-01-31T06:56:14Z</time>
      </trkpt>
      <trkpt lat="42.03655" lon="0.8039">
        <ele>1265.3</ele>
        <time>2019-01-31T06:56:26Z</time>
      </trkpt>
      <trkpt lat="42.03666" lon="0.80367">
        <ele>1265.8</ele>
        <time>2019-01-31T06:56:38Z</time>
      </trkpt>
      <trkpt lat="42.03671" lon="0.80356">
        <ele>1266.7</ele>
        <time>2019-01-31T06:56:44Z</time>
      </trkpt>
      <trkpt lat="42.03684" lon="0.80331">
        <ele>1267.7</ele>
        <time>2019-01-31T06:56:57Z</time>
      </trkpt>
      <trkpt lat="42.03696" lon="0.80306">
        <ele>1269.2</ele>
        <time>2019-01-31T06:57:09Z</time>
      </trkpt>
      <trkpt lat="42.03711" lon="0.80273">
        <ele>1269.6</ele>
        <time>2019-01-31T06:57:26Z</time>
      </trkpt>
      <trkpt lat="42.03717" lon="0.80258">
        <ele>1270.6</ele>
        <time>2019-01-31T06:57:33Z</time>
      </trkpt>
      <trkpt lat="42.03721" lon="0.80247">
        <ele>1270.5</ele>
        <time>2019-01-31T06:57:38Z</time>
      </trkpt>
      <trkpt lat="42.03729" lon="0.8022">
        <ele>1272</ele>
        <time>2019-01-31T06:57:50Z</time>
      </trkpt>
      <trkpt lat="42.03741" lon="0.80189">
        <ele>1273</ele>
        <time>2019-01-31T06:58:05Z</time>
      </trkpt>
      <trkpt lat="42.03757" lon="0.80153">
        <ele>1274.5</ele>
        <time>2019-01-31T06:58:23Z</time>
      </trkpt>
      <trkpt lat="42.03771" lon="0.80118">
        <ele>1276.9</ele>
        <time>2019-01-31T06:58:40Z</time>
      </trkpt>
      <trkpt lat="42.03789" lon="0.80086">
        <ele>1277.2</ele>
        <time>2019-01-31T06:58:57Z</time>
      </trkpt>
      <trkpt lat="42.03795" lon="0.80075">
        <ele>1277.2</ele>
        <time>2019-01-31T06:59:03Z</time>
      </trkpt>
      <trkpt lat="42.03804" lon="0.8005">
        <ele>1274.4</ele>
        <time>2019-01-31T06:59:15Z</time>
      </trkpt>
      <trkpt lat="42.03804" lon="0.80048">
        <ele>1279.3</ele>
        <time>2019-01-31T06:59:15Z</time>
      </trkpt>
      <trkpt lat="42.03804" lon="0.80047">
        <ele>1283.6</ele>
        <time>2019-01-31T06:59:16Z</time>
      </trkpt>
      <trkpt lat="42.03805" lon="0.80045">
        <ele>1279.8</ele>
        <time>2019-01-31T06:59:17Z</time>
      </trkpt>
      <trkpt lat="42.03818" lon="0.80017">
        <ele>1280.6</ele>
        <time>2019-01-31T06:59:31Z</time>
      </trkpt>
      <trkpt lat="42.03832" lon="0.79991">
        <ele>1282.5</ele>
        <time>2019-01-31T06:59:44Z</time>
      </trkpt>
      <trkpt lat="42.03838" lon="0.79961">
        <ele>1282.5</ele>
        <time>2019-01-31T06:59:58Z</time>
      </trkpt>
      <trkpt lat="42.03848" lon="0.79936">
        <ele>1284.1</ele>
        <time>2019-01-31T07:00:10Z</time>
      </trkpt>
      <trkpt lat="42.03855" lon="0.79922">
        <ele>1285</ele>
        <time>2019-01-31T07:00:17Z</time>
      </trkpt>
      <trkpt lat="42.03864" lon="0.79891">
        <ele>1286.5</ele>
        <time>2019-01-31T07:00:31Z</time>
      </trkpt>
      <trkpt lat="42.03874" lon="0.79852">
        <ele>1288.4</ele>
        <time>2019-01-31T07:00:48Z</time>
      </trkpt>
      <trkpt lat="42.03885" lon="0.79819">
        <ele>1287.9</ele>
        <time>2019-01-31T07:01:04Z</time>
      </trkpt>
      <trkpt lat="42.03893" lon="0.79794">
        <ele>1290.7</ele>
        <time>2019-01-31T07:01:15Z</time>
      </trkpt>
      <trkpt lat="42.03897" lon="0.79781">
        <ele>1291.3</ele>
        <time>2019-01-31T07:01:22Z</time>
      </trkpt>
      <trkpt lat="42.03899" lon="0.79777">
        <ele>1290.8</ele>
        <time>2019-01-31T07:01:23Z</time>
      </trkpt>
      <trkpt lat="42.03901" lon="0.79777">
        <ele>1286.9</ele>
        <time>2019-01-31T07:01:24Z</time>
      </trkpt>
      <trkpt lat="42.03901" lon="0.79777">
        <ele>1293.6</ele>
        <time>2019-01-31T07:01:24Z</time>
      </trkpt>
      <trkpt lat="42.03901" lon="0.79777">
        <ele>1289.7</ele>
        <time>2019-01-31T07:01:25Z</time>
      </trkpt>
      <trkpt lat="42.03902" lon="0.79778">
        <ele>1288.8</ele>
        <time>2019-01-31T07:01:25Z</time>
      </trkpt>
      <trkpt lat="42.03902" lon="0.79778">
        <ele>1291.8</ele>
        <time>2019-01-31T07:01:25Z</time>
      </trkpt>
      <trkpt lat="42.03902" lon="0.79778">
        <ele>1291.8</ele>
        <time>2019-01-31T07:01:25Z</time>
      </trkpt>
      <trkpt lat="42.03902" lon="0.79778">
        <ele>1289.8</ele>
        <time>2019-01-31T07:01:25Z</time>
      </trkpt>
      <trkpt lat="42.03907" lon="0.79783">
        <ele>1291.7</ele>
        <time>2019-01-31T07:01:29Z</time>
      </trkpt>
      <trkpt lat="42.0391" lon="0.79785">
        <ele>1294.6</ele>
        <time>2019-01-31T07:01:31Z</time>
      </trkpt>
      <trkpt lat="42.03906" lon="0.79792">
        <ele>1296.1</ele>
        <time>2019-01-31T07:01:35Z</time>
      </trkpt>
      <trkpt lat="42.03903" lon="0.798">
        <ele>1296</ele>
        <time>2019-01-31T07:01:38Z</time>
      </trkpt>
      <trkpt lat="42.03904" lon="0.79802">
        <ele>1297.4</ele>
        <time>2019-01-31T07:01:39Z</time>
      </trkpt>
      <trkpt lat="42.03908" lon="0.79814">
        <ele>1299.4</ele>
        <time>2019-01-31T07:01:45Z</time>
      </trkpt>
      <trkpt lat="42.03906" lon="0.79825">
        <ele>1301.3</ele>
        <time>2019-01-31T07:01:50Z</time>
      </trkpt>
      <trkpt lat="42.03911" lon="0.79829">
        <ele>1304.2</ele>
        <time>2019-01-31T07:01:53Z</time>
      </trkpt>
      <trkpt lat="42.03916" lon="0.79831">
        <ele>1305.6</ele>
        <time>2019-01-31T07:01:56Z</time>
      </trkpt>
      <trkpt lat="42.03921" lon="0.79833">
        <ele>1308.1</ele>
        <time>2019-01-31T07:01:59Z</time>
      </trkpt>
      <trkpt lat="42.03927" lon="0.79833">
        <ele>1311.4</ele>
        <time>2019-01-31T07:02:03Z</time>
      </trkpt>
      <trkpt lat="42.03935" lon="0.79826">
        <ele>1314.4</ele>
        <time>2019-01-31T07:02:08Z</time>
      </trkpt>
      <trkpt lat="42.03939" lon="0.79828">
        <ele>1317.7</ele>
        <time>2019-01-31T07:02:10Z</time>
      </trkpt>
      <trkpt lat="42.03941" lon="0.79832">
        <ele>1318.7</ele>
        <time>2019-01-31T07:02:12Z</time>
      </trkpt>
      <trkpt lat="42.03947" lon="0.79828">
        <ele>1321.5</ele>
        <time>2019-01-31T07:02:16Z</time>
      </trkpt>
      <trkpt lat="42.03952" lon="0.79828">
        <ele>1323.4</ele>
        <time>2019-01-31T07:02:19Z</time>
      </trkpt>
      <trkpt lat="42.03956" lon="0.79829">
        <ele>1326.9</ele>
        <time>2019-01-31T07:02:21Z</time>
      </trkpt>
      <trkpt lat="42.03961" lon="0.79825">
        <ele>1328.8</ele>
        <time>2019-01-31T07:02:24Z</time>
      </trkpt>
      <trkpt lat="42.03961" lon="0.79819">
        <ele>1328.2</ele>
        <time>2019-01-31T07:02:27Z</time>
      </trkpt>
      <trkpt lat="42.03967" lon="0.79813">
        <ele>1327.7</ele>
        <time>2019-01-31T07:02:31Z</time>
      </trkpt>
      <trkpt lat="42.0397" lon="0.79802">
        <ele>1325.8</ele>
        <time>2019-01-31T07:02:36Z</time>
      </trkpt>
      <trkpt lat="42.03968" lon="0.79794">
        <ele>1324.4</ele>
        <time>2019-01-31T07:02:40Z</time>
      </trkpt>
      <trkpt lat="42.03971" lon="0.79785">
        <ele>1326.4</ele>
        <time>2019-01-31T07:02:44Z</time>
      </trkpt>
      <trkpt lat="42.03973" lon="0.79777">
        <ele>1329.2</ele>
        <time>2019-01-31T07:02:48Z</time>
      </trkpt>
      <trkpt lat="42.03977" lon="0.79775">
        <ele>1331.1</ele>
        <time>2019-01-31T07:02:50Z</time>
      </trkpt>
      <trkpt lat="42.03979" lon="0.79774">
        <ele>1332.5</ele>
        <time>2019-01-31T07:02:51Z</time>
      </trkpt>
      <trkpt lat="42.03982" lon="0.79776">
        <ele>1335.5</ele>
        <time>2019-01-31T07:02:53Z</time>
      </trkpt>
      <trkpt lat="42.03983" lon="0.79777">
        <ele>1337.9</ele>
        <time>2019-01-31T07:02:54Z</time>
      </trkpt>
      <trkpt lat="42.03991" lon="0.79774">
        <ele>1339.7</ele>
        <time>2019-01-31T07:02:59Z</time>
      </trkpt>
      <trkpt lat="42.03996" lon="0.79775">
        <ele>1341.8</ele>
        <time>2019-01-31T07:03:02Z</time>
      </trkpt>
      <trkpt lat="42.03999" lon="0.7977">
        <ele>1342.6</ele>
        <time>2019-01-31T07:03:05Z</time>
      </trkpt>
      <trkpt lat="42.04002" lon="0.79762">
        <ele>1345</ele>
        <time>2019-01-31T07:03:09Z</time>
      </trkpt>
      <trkpt lat="42.04007" lon="0.79758">
        <ele>1348.4</ele>
        <time>2019-01-31T07:03:12Z</time>
      </trkpt>
      <trkpt lat="42.04012" lon="0.79756">
        <ele>1351.3</ele>
        <time>2019-01-31T07:03:15Z</time>
      </trkpt>
      <trkpt lat="42.04018" lon="0.79756">
        <ele>1355.2</ele>
        <time>2019-01-31T07:03:19Z</time>
      </trkpt>
      <trkpt lat="42.04026" lon="0.7976">
        <ele>1357.5</ele>
        <time>2019-01-31T07:03:24Z</time>
      </trkpt>
      <trkpt lat="42.04029" lon="0.79765">
        <ele>1360.9</ele>
        <time>2019-01-31T07:03:26Z</time>
      </trkpt>
      <trkpt lat="42.04034" lon="0.79763">
        <ele>1363.4</ele>
        <time>2019-01-31T07:03:29Z</time>
      </trkpt>
      <trkpt lat="42.04036" lon="0.79763">
        <ele>1364.2</ele>
        <time>2019-01-31T07:03:31Z</time>
      </trkpt>
      <trkpt lat="42.04042" lon="0.79761">
        <ele>1367.1</ele>
        <time>2019-01-31T07:03:34Z</time>
      </trkpt>
      <trkpt lat="42.04044" lon="0.79759">
        <ele>1367.6</ele>
        <time>2019-01-31T07:03:35Z</time>
      </trkpt>
      <trkpt lat="42.04049" lon="0.79756">
        <ele>1370.1</ele>
        <time>2019-01-31T07:03:38Z</time>
      </trkpt>
      <trkpt lat="42.0405" lon="0.79756">
        <ele>1371.6</ele>
        <time>2019-01-31T07:03:39Z</time>
      </trkpt>
      <trkpt lat="42.04051" lon="0.79756">
        <ele>1372.4</ele>
        <time>2019-01-31T07:03:40Z</time>
      </trkpt>
      <trkpt lat="42.04053" lon="0.79755">
        <ele>1372.9</ele>
        <time>2019-01-31T07:03:41Z</time>
      </trkpt>
      <trkpt lat="42.04057" lon="0.79752">
        <ele>1374.9</ele>
        <time>2019-01-31T07:03:44Z</time>
      </trkpt>
      <trkpt lat="42.0406" lon="0.79749">
        <ele>1376.3</ele>
        <time>2019-01-31T07:03:46Z</time>
      </trkpt>
      <trkpt lat="42.0406" lon="0.79745">
        <ele>1376.8</ele>
        <time>2019-01-31T07:03:48Z</time>
      </trkpt>
      <trkpt lat="42.04057" lon="0.79749">
        <ele>1377.3</ele>
        <time>2019-01-31T07:03:50Z</time>
      </trkpt>
      <trkpt lat="42.0406" lon="0.79751">
        <ele>1378.7</ele>
        <time>2019-01-31T07:03:52Z</time>
      </trkpt>
      <trkpt lat="42.04064" lon="0.79753">
        <ele>1379.2</ele>
        <time>2019-01-31T07:03:55Z</time>
      </trkpt>
      <trkpt lat="42.04066" lon="0.79753">
        <ele>1380.2</ele>
        <time>2019-01-31T07:03:56Z</time>
      </trkpt>
      <trkpt lat="42.0407" lon="0.79753">
        <ele>1383.6</ele>
        <time>2019-01-31T07:03:58Z</time>
      </trkpt>
      <trkpt lat="42.04072" lon="0.7975">
        <ele>1383.6</ele>
        <time>2019-01-31T07:04:00Z</time>
      </trkpt>
      <trkpt lat="42.04074" lon="0.79749">
        <ele>1383.6</ele>
        <time>2019-01-31T07:04:01Z</time>
      </trkpt>
      <trkpt lat="42.04077" lon="0.7975">
        <ele>1384.4</ele>
        <time>2019-01-31T07:04:03Z</time>
      </trkpt>
      <trkpt lat="42.04079" lon="0.79751">
        <ele>1387.3</ele>
        <time>2019-01-31T07:04:04Z</time>
      </trkpt>
      <trkpt lat="42.04082" lon="0.79749">
        <ele>1390.3</ele>
        <time>2019-01-31T07:04:06Z</time>
      </trkpt>
      <trkpt lat="42.04089" lon="0.79742">
        <ele>1391.7</ele>
        <time>2019-01-31T07:04:11Z</time>
      </trkpt>
      <trkpt lat="42.04094" lon="0.79735">
        <ele>1393.7</ele>
        <time>2019-01-31T07:04:15Z</time>
      </trkpt>
      <trkpt lat="42.041" lon="0.79727">
        <ele>1397</ele>
        <time>2019-01-31T07:04:19Z</time>
      </trkpt>
      <trkpt lat="42.04101" lon="0.79718">
        <ele>1399.4</ele>
        <time>2019-01-31T07:04:24Z</time>
      </trkpt>
      <trkpt lat="42.04105" lon="0.7971">
        <ele>1402.7</ele>
        <time>2019-01-31T07:04:28Z</time>
      </trkpt>
      <trkpt lat="42.04109" lon="0.79709">
        <ele>1403.7</ele>
        <time>2019-01-31T07:04:30Z</time>
      </trkpt>
      <trkpt lat="42.04113" lon="0.79711">
        <ele>1406.1</ele>
        <time>2019-01-31T07:04:32Z</time>
      </trkpt>
      <trkpt lat="42.04117" lon="0.7971">
        <ele>1408.9</ele>
        <time>2019-01-31T07:04:35Z</time>
      </trkpt>
      <trkpt lat="42.0412" lon="0.79715">
        <ele>1410.9</ele>
        <time>2019-01-31T07:04:38Z</time>
      </trkpt>
      <trkpt lat="42.04126" lon="0.79714">
        <ele>1413.3</ele>
        <time>2019-01-31T07:04:41Z</time>
      </trkpt>
      <trkpt lat="42.04131" lon="0.79708">
        <ele>1416.6</ele>
        <time>2019-01-31T07:04:45Z</time>
      </trkpt>
      <trkpt lat="42.04135" lon="0.79708">
        <ele>1419.5</ele>
        <time>2019-01-31T07:04:47Z</time>
      </trkpt>
      <trkpt lat="42.04135" lon="0.79709">
        <ele>1421.5</ele>
        <time>2019-01-31T07:04:47Z</time>
      </trkpt>
      <trkpt lat="42.04134" lon="0.79712">
        <ele>1424.4</ele>
        <time>2019-01-31T07:04:48Z</time>
      </trkpt>
      <trkpt lat="42.04134" lon="0.79706">
        <ele>1426.4</ele>
        <time>2019-01-31T07:04:51Z</time>
      </trkpt>
      <trkpt lat="42.04135" lon="0.797">
        <ele>1429.2</ele>
        <time>2019-01-31T07:04:53Z</time>
      </trkpt>
      <trkpt lat="42.04139" lon="0.79693">
        <ele>1430.7</ele>
        <time>2019-01-31T07:04:57Z</time>
      </trkpt>
      <trkpt lat="42.04137" lon="0.79698">
        <ele>1433</ele>
        <time>2019-01-31T07:04:59Z</time>
      </trkpt>
      <trkpt lat="42.04146" lon="0.79691">
        <ele>1435</ele>
        <time>2019-01-31T07:05:05Z</time>
      </trkpt>
      <trkpt lat="42.04154" lon="0.79693">
        <ele>1436.9</ele>
        <time>2019-01-31T07:05:09Z</time>
      </trkpt>
      <trkpt lat="42.04156" lon="0.79694">
        <ele>1437.4</ele>
        <time>2019-01-31T07:05:11Z</time>
      </trkpt>
      <trkpt lat="42.04161" lon="0.79699">
        <ele>1440.2</ele>
        <time>2019-01-31T07:05:14Z</time>
      </trkpt>
      <trkpt lat="42.04164" lon="0.79706">
        <ele>1440.7</ele>
        <time>2019-01-31T07:05:18Z</time>
      </trkpt>
      <trkpt lat="42.04164" lon="0.79717">
        <ele>1442.7</ele>
        <time>2019-01-31T07:05:22Z</time>
      </trkpt>
      <trkpt lat="42.04168" lon="0.79724">
        <ele>1445.1</ele>
        <time>2019-01-31T07:05:26Z</time>
      </trkpt>
      <trkpt lat="42.0417" lon="0.79729">
        <ele>1446.9</ele>
        <time>2019-01-31T07:05:28Z</time>
      </trkpt>
      <trkpt lat="42.0417" lon="0.79731">
        <ele>1449.3</ele>
        <time>2019-01-31T07:05:29Z</time>
      </trkpt>
      <trkpt lat="42.04166" lon="0.79734">
        <ele>1450.9</ele>
        <time>2019-01-31T07:05:32Z</time>
      </trkpt>
      <trkpt lat="42.04165" lon="0.79735">
        <ele>1451.3</ele>
        <time>2019-01-31T07:05:33Z</time>
      </trkpt>
      <trkpt lat="42.04155" lon="0.79749">
        <ele>1451.3</ele>
        <time>2019-01-31T07:05:41Z</time>
      </trkpt>
      <trkpt lat="42.04153" lon="0.79752">
        <ele>1450.8</ele>
        <time>2019-01-31T07:05:43Z</time>
      </trkpt>
      <trkpt lat="42.04152" lon="0.79753">
        <ele>1451.8</ele>
        <time>2019-01-31T07:05:44Z</time>
      </trkpt>
      <trkpt lat="42.04152" lon="0.79753">
        <ele>1452.8</ele>
        <time>2019-01-31T07:05:44Z</time>
      </trkpt>
      <trkpt lat="42.04154" lon="0.79751">
        <ele>1452.2</ele>
        <time>2019-01-31T07:05:45Z</time>
      </trkpt>
      <trkpt lat="42.04153" lon="0.79751">
        <ele>1453.2</ele>
        <time>2019-01-31T07:05:45Z</time>
      </trkpt>
      <trkpt lat="42.04154" lon="0.79754">
        <ele>1454.1</ele>
        <time>2019-01-31T07:05:47Z</time>
      </trkpt>
      <trkpt lat="42.0415" lon="0.79758">
        <ele>1454.6</ele>
        <time>2019-01-31T07:05:49Z</time>
      </trkpt>
      <trkpt lat="42.04158" lon="0.79755">
        <ele>1453.3</ele>
        <time>2019-01-31T07:05:54Z</time>
      </trkpt>
      <trkpt lat="42.04161" lon="0.79755">
        <ele>1453.2</ele>
        <time>2019-01-31T07:05:56Z</time>
      </trkpt>
      <trkpt lat="42.04162" lon="0.7976">
        <ele>1455.6</ele>
        <time>2019-01-31T07:05:58Z</time>
      </trkpt>
      <trkpt lat="42.04164" lon="0.79769">
        <ele>1457.1</ele>
        <time>2019-01-31T07:06:02Z</time>
      </trkpt>
      <trkpt lat="42.04167" lon="0.79774">
        <ele>1459</ele>
        <time>2019-01-31T07:06:04Z</time>
      </trkpt>
      <trkpt lat="42.04171" lon="0.79779">
        <ele>1459.9</ele>
        <time>2019-01-31T07:06:08Z</time>
      </trkpt>
      <trkpt lat="42.04175" lon="0.79788">
        <ele>1462.9</ele>
        <time>2019-01-31T07:06:12Z</time>
      </trkpt>
      <trkpt lat="42.04176" lon="0.79793">
        <ele>1463.4</ele>
        <time>2019-01-31T07:06:14Z</time>
      </trkpt>
      <trkpt lat="42.04172" lon="0.79798">
        <ele>1466.6</ele>
        <time>2019-01-31T07:06:17Z</time>
      </trkpt>
      <trkpt lat="42.04175" lon="0.79801">
        <ele>1468.1</ele>
        <time>2019-01-31T07:06:19Z</time>
      </trkpt>
      <trkpt lat="42.04176" lon="0.79807">
        <ele>1466.2</ele>
        <time>2019-01-31T07:06:22Z</time>
      </trkpt>
      <trkpt lat="42.04174" lon="0.79818">
        <ele>1469</ele>
        <time>2019-01-31T07:06:27Z</time>
      </trkpt>
      <trkpt lat="42.04172" lon="0.79827">
        <ele>1471.9</ele>
        <time>2019-01-31T07:06:31Z</time>
      </trkpt>
      <trkpt lat="42.04172" lon="0.79826">
        <ele>1472</ele>
        <time>2019-01-31T07:06:31Z</time>
      </trkpt>
      <trkpt lat="42.04165" lon="0.79827">
        <ele>1475.3</ele>
        <time>2019-01-31T07:06:34Z</time>
      </trkpt>
      <trkpt lat="42.04162" lon="0.79828">
        <ele>1476.7</ele>
        <time>2019-01-31T07:06:37Z</time>
      </trkpt>
      <trkpt lat="42.0416" lon="0.79848">
        <ele>1478.6</ele>
        <time>2019-01-31T07:06:45Z</time>
      </trkpt>
      <trkpt lat="42.04166" lon="0.79857">
        <ele>1480.7</ele>
        <time>2019-01-31T07:06:50Z</time>
      </trkpt>
      <trkpt lat="42.0417" lon="0.7986">
        <ele>1482.5</ele>
        <time>2019-01-31T07:06:53Z</time>
      </trkpt>
      <trkpt lat="42.04173" lon="0.79863">
        <ele>1484.4</ele>
        <time>2019-01-31T07:06:55Z</time>
      </trkpt>
      <trkpt lat="42.04176" lon="0.79865">
        <ele>1486.3</ele>
        <time>2019-01-31T07:06:57Z</time>
      </trkpt>
      <trkpt lat="42.04179" lon="0.79867">
        <ele>1488.7</ele>
        <time>2019-01-31T07:06:59Z</time>
      </trkpt>
      <trkpt lat="42.0418" lon="0.79864">
        <ele>1489.7</ele>
        <time>2019-01-31T07:07:00Z</time>
      </trkpt>
      <trkpt lat="42.04181" lon="0.7985">
        <ele>1492.1</ele>
        <time>2019-01-31T07:07:06Z</time>
      </trkpt>
      <trkpt lat="42.04182" lon="0.79849">
        <ele>1493.2</ele>
        <time>2019-01-31T07:07:07Z</time>
      </trkpt>
      <trkpt lat="42.04188" lon="0.79847">
        <ele>1495.5</ele>
        <time>2019-01-31T07:07:10Z</time>
      </trkpt>
      <trkpt lat="42.04189" lon="0.79846">
        <ele>1497</ele>
        <time>2019-01-31T07:07:11Z</time>
      </trkpt>
      <trkpt lat="42.04191" lon="0.79849">
        <ele>1498</ele>
        <time>2019-01-31T07:07:12Z</time>
      </trkpt>
      <trkpt lat="42.04196" lon="0.79848">
        <ele>1500.8</ele>
        <time>2019-01-31T07:07:15Z</time>
      </trkpt>
      <trkpt lat="42.042" lon="0.79845">
        <ele>1504.7</ele>
        <time>2019-01-31T07:07:18Z</time>
      </trkpt>
      <trkpt lat="42.04201" lon="0.79845">
        <ele>1504.6</ele>
        <time>2019-01-31T07:07:18Z</time>
      </trkpt>
      <trkpt lat="42.04204" lon="0.79844">
        <ele>1506.6</ele>
        <time>2019-01-31T07:07:20Z</time>
      </trkpt>
      <trkpt lat="42.04204" lon="0.7985">
        <ele>1509.9</ele>
        <time>2019-01-31T07:07:23Z</time>
      </trkpt>
      <trkpt lat="42.04204" lon="0.79854">
        <ele>1508</ele>
        <time>2019-01-31T07:07:24Z</time>
      </trkpt>
      <trkpt lat="42.04204" lon="0.79864">
        <ele>1507.5</ele>
        <time>2019-01-31T07:07:29Z</time>
      </trkpt>
      <trkpt lat="42.04206" lon="0.79869">
        <ele>1509</ele>
        <time>2019-01-31T07:07:31Z</time>
      </trkpt>
      <trkpt lat="42.04208" lon="0.7987">
        <ele>1510.8</ele>
        <time>2019-01-31T07:07:32Z</time>
      </trkpt>
      <trkpt lat="42.0421" lon="0.79873">
        <ele>1513.8</ele>
        <time>2019-01-31T07:07:34Z</time>
      </trkpt>
      <trkpt lat="42.0421" lon="0.79873">
        <ele>1514.7</ele>
        <time>2019-01-31T07:07:34Z</time>
      </trkpt>
      <trkpt lat="42.04213" lon="0.79879">
        <ele>1515.7</ele>
        <time>2019-01-31T07:07:37Z</time>
      </trkpt>
      <trkpt lat="42.04215" lon="0.79882">
        <ele>1518.6</ele>
        <time>2019-01-31T07:07:39Z</time>
      </trkpt>
      <trkpt lat="42.04216" lon="0.7987">
        <ele>1520.6</ele>
        <time>2019-01-31T07:07:44Z</time>
      </trkpt>
      <trkpt lat="42.04218" lon="0.79864">
        <ele>1522.4</ele>
        <time>2019-01-31T07:07:47Z</time>
      </trkpt>
      <trkpt lat="42.0422" lon="0.79861">
        <ele>1523.4</ele>
        <time>2019-01-31T07:07:48Z</time>
      </trkpt>
      <trkpt lat="42.04222" lon="0.79862">
        <ele>1525.3</ele>
        <time>2019-01-31T07:07:49Z</time>
      </trkpt>
      <trkpt lat="42.04223" lon="0.79862">
        <ele>1523.3</ele>
        <time>2019-01-31T07:07:50Z</time>
      </trkpt>
      <trkpt lat="42.04226" lon="0.79861">
        <ele>1525.7</ele>
        <time>2019-01-31T07:07:52Z</time>
      </trkpt>
      <trkpt lat="42.04228" lon="0.79863">
        <ele>1529.2</ele>
        <time>2019-01-31T07:07:53Z</time>
      </trkpt>
      <trkpt lat="42.04231" lon="0.79862">
        <ele>1532.1</ele>
        <time>2019-01-31T07:07:55Z</time>
      </trkpt>
      <trkpt lat="42.04236" lon="0.79862">
        <ele>1533.5</ele>
        <time>2019-01-31T07:07:58Z</time>
      </trkpt>
      <trkpt lat="42.0424" lon="0.79864">
        <ele>1535.9</ele>
        <time>2019-01-31T07:08:00Z</time>
      </trkpt>
      <trkpt lat="42.04245" lon="0.79869">
        <ele>1539.2</ele>
        <time>2019-01-31T07:08:04Z</time>
      </trkpt>
      <trkpt lat="42.04248" lon="0.79877">
        <ele>1542.1</ele>
        <time>2019-01-31T07:08:07Z</time>
      </trkpt>
      <trkpt lat="42.04251" lon="0.79883">
        <ele>1544.1</ele>
        <time>2019-01-31T07:08:11Z</time>
      </trkpt>
      <trkpt lat="42.04256" lon="0.7989">
        <ele>1545.9</ele>
        <time>2019-01-31T07:08:15Z</time>
      </trkpt>
      <trkpt lat="42.0426" lon="0.79891">
        <ele>1547</ele>
        <time>2019-01-31T07:08:17Z</time>
      </trkpt>
      <trkpt lat="42.04263" lon="0.79893">
        <ele>1548.8</ele>
        <time>2019-01-31T07:08:19Z</time>
      </trkpt>
      <trkpt lat="42.04266" lon="0.79891">
        <ele>1550.3</ele>
        <time>2019-01-31T07:08:21Z</time>
      </trkpt>
      <trkpt lat="42.04266" lon="0.7989">
        <ele>1548</ele>
        <time>2019-01-31T07:08:21Z</time>
      </trkpt>
      <trkpt lat="42.04269" lon="0.7989">
        <ele>1549.8</ele>
        <time>2019-01-31T07:08:23Z</time>
      </trkpt>
      <trkpt lat="42.04275" lon="0.79882">
        <ele>1552.3</ele>
        <time>2019-01-31T07:08:28Z</time>
      </trkpt>
      <trkpt lat="42.04281" lon="0.7987">
        <ele>1539.7</ele>
        <time>2019-01-31T07:08:34Z</time>
      </trkpt>
      <trkpt lat="42.04287" lon="0.79851">
        <ele>1539.9</ele>
        <time>2019-01-31T07:08:43Z</time>
      </trkpt>
      <trkpt lat="42.04291" lon="0.79824">
        <ele>1539</ele>
        <time>2019-01-31T07:08:54Z</time>
      </trkpt>
      <trkpt lat="42.04289" lon="0.79799">
        <ele>1530.2</ele>
        <time>2019-01-31T07:09:05Z</time>
      </trkpt>
      <trkpt lat="42.04287" lon="0.79773">
        <ele>1527.2</ele>
        <time>2019-01-31T07:09:16Z</time>
      </trkpt>
      <trkpt lat="42.04284" lon="0.7975">
        <ele>1523.8</ele>
        <time>2019-01-31T07:09:26Z</time>
      </trkpt>
      <trkpt lat="42.04284" lon="0.79743">
        <ele>1522</ele>
        <time>2019-01-31T07:09:29Z</time>
      </trkpt>
      <trkpt lat="42.04277" lon="0.79719">
        <ele>1518.5</ele>
        <time>2019-01-31T07:09:40Z</time>
      </trkpt>
      <trkpt lat="42.04272" lon="0.79702">
        <ele>1515.2</ele>
        <time>2019-01-31T07:09:48Z</time>
      </trkpt>
      <trkpt lat="42.0427" lon="0.79692">
        <ele>1512.9</ele>
        <time>2019-01-31T07:09:52Z</time>
      </trkpt>
      <trkpt lat="42.0427" lon="0.79689">
        <ele>1511.9</ele>
        <time>2019-01-31T07:09:53Z</time>
      </trkpt>
      <trkpt lat="42.04267" lon="0.79668">
        <ele>1508.9</ele>
        <time>2019-01-31T07:10:03Z</time>
      </trkpt>
      <trkpt lat="42.04269" lon="0.79654">
        <ele>1505.6</ele>
        <time>2019-01-31T07:10:08Z</time>
      </trkpt>
      <trkpt lat="42.04274" lon="0.79642">
        <ele>1502.8</ele>
        <time>2019-01-31T07:10:14Z</time>
      </trkpt>
      <trkpt lat="42.04278" lon="0.79633">
        <ele>1500.9</ele>
        <time>2019-01-31T07:10:19Z</time>
      </trkpt>
      <trkpt lat="42.04282" lon="0.7962">
        <ele>1498.4</ele>
        <time>2019-01-31T07:10:25Z</time>
      </trkpt>
      <trkpt lat="42.04284" lon="0.79608">
        <ele>1496.9</ele>
        <time>2019-01-31T07:10:30Z</time>
      </trkpt>
      <trkpt lat="42.04285" lon="0.79602">
        <ele>1496</ele>
        <time>2019-01-31T07:10:32Z</time>
      </trkpt>
      <trkpt lat="42.04286" lon="0.796">
        <ele>1495.9</ele>
        <time>2019-01-31T07:10:34Z</time>
      </trkpt>
      <trkpt lat="42.04286" lon="0.7958">
        <ele>1493.1</ele>
        <time>2019-01-31T07:10:42Z</time>
      </trkpt>
      <trkpt lat="42.04287" lon="0.79577">
        <ele>1492.6</ele>
        <time>2019-01-31T07:10:43Z</time>
      </trkpt>
      <trkpt lat="42.04283" lon="0.79551">
        <ele>1491.2</ele>
        <time>2019-01-31T07:10:54Z</time>
      </trkpt>
      <trkpt lat="42.0428" lon="0.79542">
        <ele>1491.7</ele>
        <time>2019-01-31T07:10:58Z</time>
      </trkpt>
      <trkpt lat="42.04271" lon="0.79523">
        <ele>1492.7</ele>
        <time>2019-01-31T07:11:08Z</time>
      </trkpt>
      <trkpt lat="42.0426" lon="0.79508">
        <ele>1494</ele>
        <time>2019-01-31T07:11:17Z</time>
      </trkpt>
      <trkpt lat="42.0425" lon="0.79492">
        <ele>1495.9</ele>
        <time>2019-01-31T07:11:26Z</time>
      </trkpt>
      <trkpt lat="42.04248" lon="0.79485">
        <ele>1496.5</ele>
        <time>2019-01-31T07:11:29Z</time>
      </trkpt>
      <trkpt lat="42.04246" lon="0.79483">
        <ele>1496.5</ele>
        <time>2019-01-31T07:11:31Z</time>
      </trkpt>
      <trkpt lat="42.04242" lon="0.79472">
        <ele>1497.5</ele>
        <time>2019-01-31T07:11:36Z</time>
      </trkpt>
      <trkpt lat="42.04239" lon="0.79463">
        <ele>1498</ele>
        <time>2019-01-31T07:11:40Z</time>
      </trkpt>
      <trkpt lat="42.04235" lon="0.79458">
        <ele>1498.4</ele>
        <time>2019-01-31T07:11:43Z</time>
      </trkpt>
      <trkpt lat="42.04233" lon="0.79455">
        <ele>1498.4</ele>
        <time>2019-01-31T07:11:45Z</time>
      </trkpt>
      <trkpt lat="42.04223" lon="0.79443">
        <ele>1499.3</ele>
        <time>2019-01-31T07:11:52Z</time>
      </trkpt>
      <trkpt lat="42.04223" lon="0.79437">
        <ele>1500.3</ele>
        <time>2019-01-31T07:11:55Z</time>
      </trkpt>
      <trkpt lat="42.04221" lon="0.79428">
        <ele>1501.2</ele>
        <time>2019-01-31T07:11:59Z</time>
      </trkpt>
      <trkpt lat="42.04218" lon="0.79416">
        <ele>1502.8</ele>
        <time>2019-01-31T07:12:04Z</time>
      </trkpt>
      <trkpt lat="42.04218" lon="0.7941">
        <ele>1502.8</ele>
        <time>2019-01-31T07:12:07Z</time>
      </trkpt>
      <trkpt lat="42.04218" lon="0.79407">
        <ele>1503.6</ele>
        <time>2019-01-31T07:12:08Z</time>
      </trkpt>
      <trkpt lat="42.04211" lon="0.79391">
        <ele>1505.2</ele>
        <time>2019-01-31T07:12:16Z</time>
      </trkpt>
      <trkpt lat="42.04214" lon="0.79378">
        <ele>1506.1</ele>
        <time>2019-01-31T07:12:22Z</time>
      </trkpt>
      <trkpt lat="42.04212" lon="0.79373">
        <ele>1506.5</ele>
        <time>2019-01-31T07:12:24Z</time>
      </trkpt>
      <trkpt lat="42.04211" lon="0.7937">
        <ele>1506.1</ele>
        <time>2019-01-31T07:12:25Z</time>
      </trkpt>
      <trkpt lat="42.04212" lon="0.79368">
        <ele>1506.5</ele>
        <time>2019-01-31T07:12:26Z</time>
      </trkpt>
      <trkpt lat="42.04207" lon="0.79348">
        <ele>1508.4</ele>
        <time>2019-01-31T07:12:35Z</time>
      </trkpt>
      <trkpt lat="42.04203" lon="0.79329">
        <ele>1510.8</ele>
        <time>2019-01-31T07:12:43Z</time>
      </trkpt>
      <trkpt lat="42.04192" lon="0.79314">
        <ele>1512.3</ele>
        <time>2019-01-31T07:12:52Z</time>
      </trkpt>
      <trkpt lat="42.0419" lon="0.79298">
        <ele>1514.8</ele>
        <time>2019-01-31T07:12:59Z</time>
      </trkpt>
      <trkpt lat="42.04191" lon="0.79287">
        <ele>1515.7</ele>
        <time>2019-01-31T07:13:04Z</time>
      </trkpt>
      <trkpt lat="42.04191" lon="0.79267">
        <ele>1517.2</ele>
        <time>2019-01-31T07:13:12Z</time>
      </trkpt>
      <trkpt lat="42.0419" lon="0.7926">
        <ele>1518.2</ele>
        <time>2019-01-31T07:13:15Z</time>
      </trkpt>
      <trkpt lat="42.04191" lon="0.79247">
        <ele>1519</ele>
        <time>2019-01-31T07:13:21Z</time>
      </trkpt>
      <trkpt lat="42.0419" lon="0.79233">
        <ele>1520.9</ele>
        <time>2019-01-31T07:13:27Z</time>
      </trkpt>
      <trkpt lat="42.04191" lon="0.79217">
        <ele>1523.9</ele>
        <time>2019-01-31T07:13:34Z</time>
      </trkpt>
      <trkpt lat="42.04191" lon="0.79213">
        <ele>1524.3</ele>
        <time>2019-01-31T07:13:35Z</time>
      </trkpt>
      <trkpt lat="42.0419" lon="0.79206">
        <ele>1525.3</ele>
        <time>2019-01-31T07:13:38Z</time>
      </trkpt>
      <trkpt lat="42.04193" lon="0.79198">
        <ele>1526.7</ele>
        <time>2019-01-31T07:13:42Z</time>
      </trkpt>
      <trkpt lat="42.04198" lon="0.79186">
        <ele>1527.7</ele>
        <time>2019-01-31T07:13:48Z</time>
      </trkpt>
      <trkpt lat="42.0421" lon="0.79172">
        <ele>1530.6</ele>
        <time>2019-01-31T07:13:57Z</time>
      </trkpt>
      <trkpt lat="42.04219" lon="0.79159">
        <ele>1533.5</ele>
        <time>2019-01-31T07:14:05Z</time>
      </trkpt>
      <trkpt lat="42.04232" lon="0.79148">
        <ele>1536.8</ele>
        <time>2019-01-31T07:14:13Z</time>
      </trkpt>
      <trkpt lat="42.0424" lon="0.79139">
        <ele>1539.8</ele>
        <time>2019-01-31T07:14:20Z</time>
      </trkpt>
      <trkpt lat="42.0425" lon="0.79128">
        <ele>1542.1</ele>
        <time>2019-01-31T07:14:27Z</time>
      </trkpt>
      <trkpt lat="42.04255" lon="0.79125">
        <ele>1543.6</ele>
        <time>2019-01-31T07:14:30Z</time>
      </trkpt>
      <trkpt lat="42.04268" lon="0.79121">
        <ele>1544.6</ele>
        <time>2019-01-31T07:14:38Z</time>
      </trkpt>
      <trkpt lat="42.04286" lon="0.79113">
        <ele>1545.5</ele>
        <time>2019-01-31T07:14:49Z</time>
      </trkpt>
      <trkpt lat="42.04289" lon="0.7911">
        <ele>1545.5</ele>
        <time>2019-01-31T07:14:51Z</time>
      </trkpt>
      <trkpt lat="42.043" lon="0.79101">
        <ele>1546.9</ele>
        <time>2019-01-31T07:14:58Z</time>
      </trkpt>
      <trkpt lat="42.04311" lon="0.79096">
        <ele>1547.9</ele>
        <time>2019-01-31T07:15:05Z</time>
      </trkpt>
      <trkpt lat="42.04312" lon="0.7909">
        <ele>1548.3</ele>
        <time>2019-01-31T07:15:07Z</time>
      </trkpt>
      <trkpt lat="42.04314" lon="0.79085">
        <ele>1548.4</ele>
        <time>2019-01-31T07:15:10Z</time>
      </trkpt>
      <trkpt lat="42.04316" lon="0.79081">
        <ele>1547.9</ele>
        <time>2019-01-31T07:15:12Z</time>
      </trkpt>
      <trkpt lat="42.04326" lon="0.79067">
        <ele>1549.3</ele>
        <time>2019-01-31T07:15:20Z</time>
      </trkpt>
      <trkpt lat="42.04333" lon="0.7905">
        <ele>1550.3</ele>
        <time>2019-01-31T07:15:28Z</time>
      </trkpt>
      <trkpt lat="42.04339" lon="0.79035">
        <ele>1550.8</ele>
        <time>2019-01-31T07:15:36Z</time>
      </trkpt>
      <trkpt lat="42.04343" lon="0.7903">
        <ele>1551.8</ele>
        <time>2019-01-31T07:15:39Z</time>
      </trkpt>
      <trkpt lat="42.04349" lon="0.79017">
        <ele>1552.8</ele>
        <time>2019-01-31T07:15:45Z</time>
      </trkpt>
      <trkpt lat="42.0435" lon="0.79015">
        <ele>1552.8</ele>
        <time>2019-01-31T07:15:46Z</time>
      </trkpt>
      <trkpt lat="42.04351" lon="0.7901">
        <ele>1552.7</ele>
        <time>2019-01-31T07:15:48Z</time>
      </trkpt>
      <trkpt lat="42.04353" lon="0.79">
        <ele>1553.1</ele>
        <time>2019-01-31T07:15:52Z</time>
      </trkpt>
      <trkpt lat="42.04361" lon="0.78994">
        <ele>1553.6</ele>
        <time>2019-01-31T07:15:58Z</time>
      </trkpt>
      <trkpt lat="42.0437" lon="0.78983">
        <ele>1555.1</ele>
        <time>2019-01-31T07:16:05Z</time>
      </trkpt>
      <trkpt lat="42.04379" lon="0.78974">
        <ele>1555.2</ele>
        <time>2019-01-31T07:16:11Z</time>
      </trkpt>
      <trkpt lat="42.04383" lon="0.78968">
        <ele>1555.7</ele>
        <time>2019-01-31T07:16:15Z</time>
      </trkpt>
      <trkpt lat="42.04389" lon="0.78964">
        <ele>1555.6</ele>
        <time>2019-01-31T07:16:18Z</time>
      </trkpt>
      <trkpt lat="42.04394" lon="0.78954">
        <ele>1556.5</ele>
        <time>2019-01-31T07:16:23Z</time>
      </trkpt>
      <trkpt lat="42.04396" lon="0.78952">
        <ele>1556.5</ele>
        <time>2019-01-31T07:16:25Z</time>
      </trkpt>
      <trkpt lat="42.04398" lon="0.78947">
        <ele>1557.1</ele>
        <time>2019-01-31T07:16:28Z</time>
      </trkpt>
      <trkpt lat="42.04401" lon="0.78946">
        <ele>1557.5</ele>
        <time>2019-01-31T07:16:29Z</time>
      </trkpt>
      <trkpt lat="42.04403" lon="0.78942">
        <ele>1558</ele>
        <time>2019-01-31T07:16:31Z</time>
      </trkpt>
      <trkpt lat="42.04403" lon="0.7894">
        <ele>1558.1</ele>
        <time>2019-01-31T07:16:32Z</time>
      </trkpt>
      <trkpt lat="42.04406" lon="0.78935">
        <ele>1558.1</ele>
        <time>2019-01-31T07:16:35Z</time>
      </trkpt>
      <trkpt lat="42.04408" lon="0.78932">
        <ele>1558.4</ele>
        <time>2019-01-31T07:16:36Z</time>
      </trkpt>
      <trkpt lat="42.0441" lon="0.78922">
        <ele>1558.9</ele>
        <time>2019-01-31T07:16:41Z</time>
      </trkpt>
      <trkpt lat="42.04412" lon="0.78906">
        <ele>1559.4</ele>
        <time>2019-01-31T07:16:47Z</time>
      </trkpt>
      <trkpt lat="42.04414" lon="0.78904">
        <ele>1560</ele>
        <time>2019-01-31T07:16:49Z</time>
      </trkpt>
      <trkpt lat="42.04416" lon="0.789">
        <ele>1560.4</ele>
        <time>2019-01-31T07:16:51Z</time>
      </trkpt>
      <trkpt lat="42.04417" lon="0.78891">
        <ele>1560.8</ele>
        <time>2019-01-31T07:16:55Z</time>
      </trkpt>
      <trkpt lat="42.04417" lon="0.78889">
        <ele>1560.9</ele>
        <time>2019-01-31T07:16:56Z</time>
      </trkpt>
      <trkpt lat="42.04418" lon="0.78886">
        <ele>1561.4</ele>
        <time>2019-01-31T07:16:57Z</time>
      </trkpt>
      <trkpt lat="42.04417" lon="0.78875">
        <ele>1561.8</ele>
        <time>2019-01-31T07:17:02Z</time>
      </trkpt>
      <trkpt lat="42.04418" lon="0.78868">
        <ele>1562.3</ele>
        <time>2019-01-31T07:17:05Z</time>
      </trkpt>
      <trkpt lat="42.0442" lon="0.7884">
        <ele>1564.2</ele>
        <time>2019-01-31T07:17:17Z</time>
      </trkpt>
      <trkpt lat="42.0442" lon="0.78835">
        <ele>1564.3</ele>
        <time>2019-01-31T07:17:19Z</time>
      </trkpt>
      <trkpt lat="42.04419" lon="0.78829">
        <ele>1564.2</ele>
        <time>2019-01-31T07:17:22Z</time>
      </trkpt>
      <trkpt lat="42.0442" lon="0.78804">
        <ele>1565.6</ele>
        <time>2019-01-31T07:17:32Z</time>
      </trkpt>
      <trkpt lat="42.04421" lon="0.78787">
        <ele>1566.6</ele>
        <time>2019-01-31T07:17:40Z</time>
      </trkpt>
      <trkpt lat="42.04419" lon="0.78758">
        <ele>1568.6</ele>
        <time>2019-01-31T07:17:52Z</time>
      </trkpt>
      <trkpt lat="42.04419" lon="0.78757">
        <ele>1568.6</ele>
        <time>2019-01-31T07:17:53Z</time>
      </trkpt>
      <trkpt lat="42.04419" lon="0.78753">
        <ele>1569.1</ele>
        <time>2019-01-31T07:17:54Z</time>
      </trkpt>
      <trkpt lat="42.04417" lon="0.78729">
        <ele>1570.5</ele>
        <time>2019-01-31T07:18:04Z</time>
      </trkpt>
      <trkpt lat="42.04416" lon="0.78718">
        <ele>1570.9</ele>
        <time>2019-01-31T07:18:09Z</time>
      </trkpt>
      <trkpt lat="42.04414" lon="0.787">
        <ele>1571.9</ele>
        <time>2019-01-31T07:18:17Z</time>
      </trkpt>
      <trkpt lat="42.04411" lon="0.7868">
        <ele>1573</ele>
        <time>2019-01-31T07:18:25Z</time>
      </trkpt>
      <trkpt lat="42.0441" lon="0.78667">
        <ele>1573.9</ele>
        <time>2019-01-31T07:18:31Z</time>
      </trkpt>
      <trkpt lat="42.04407" lon="0.78655">
        <ele>1574.9</ele>
        <time>2019-01-31T07:18:36Z</time>
      </trkpt>
      <trkpt lat="42.04405" lon="0.78636">
        <ele>1575.7</ele>
        <time>2019-01-31T07:18:45Z</time>
      </trkpt>
      <trkpt lat="42.04403" lon="0.78617">
        <ele>1577.2</ele>
        <time>2019-01-31T07:18:53Z</time>
      </trkpt>
      <trkpt lat="42.044" lon="0.786">
        <ele>1578.1</ele>
        <time>2019-01-31T07:19:00Z</time>
      </trkpt>
      <trkpt lat="42.04396" lon="0.78576">
        <ele>1579.2</ele>
        <time>2019-01-31T07:19:11Z</time>
      </trkpt>
      <trkpt lat="42.04391" lon="0.7856">
        <ele>1580.6</ele>
        <time>2019-01-31T07:19:18Z</time>
      </trkpt>
      <trkpt lat="42.04388" lon="0.78545">
        <ele>1581.5</ele>
        <time>2019-01-31T07:19:24Z</time>
      </trkpt>
      <trkpt lat="42.04383" lon="0.7853">
        <ele>1582.6</ele>
        <time>2019-01-31T07:19:32Z</time>
      </trkpt>
      <trkpt lat="42.04377" lon="0.78509">
        <ele>1583.9</ele>
        <time>2019-01-31T07:19:41Z</time>
      </trkpt>
      <trkpt lat="42.04371" lon="0.78491">
        <ele>1585</ele>
        <time>2019-01-31T07:19:49Z</time>
      </trkpt>
      <trkpt lat="42.04367" lon="0.78476">
        <ele>1585.8</ele>
        <time>2019-01-31T07:19:56Z</time>
      </trkpt>
      <trkpt lat="42.04359" lon="0.78456">
        <ele>1586.8</ele>
        <time>2019-01-31T07:20:06Z</time>
      </trkpt>
      <trkpt lat="42.04352" lon="0.78438">
        <ele>1588.2</ele>
        <time>2019-01-31T07:20:15Z</time>
      </trkpt>
      <trkpt lat="42.04348" lon="0.78428">
        <ele>1588.7</ele>
        <time>2019-01-31T07:20:19Z</time>
      </trkpt>
      <trkpt lat="42.04345" lon="0.78422">
        <ele>1589.2</ele>
        <time>2019-01-31T07:20:22Z</time>
      </trkpt>
      <trkpt lat="42.04339" lon="0.78409">
        <ele>1590.2</ele>
        <time>2019-01-31T07:20:29Z</time>
      </trkpt>
      <trkpt lat="42.04329" lon="0.78388">
        <ele>1591.2</ele>
        <time>2019-01-31T07:20:39Z</time>
      </trkpt>
      <trkpt lat="42.04321" lon="0.78374">
        <ele>1591.6</ele>
        <time>2019-01-31T07:20:47Z</time>
      </trkpt>
      <trkpt lat="42.04309" lon="0.78358">
        <ele>1593.6</ele>
        <time>2019-01-31T07:20:56Z</time>
      </trkpt>
      <trkpt lat="42.04309" lon="0.78357">
        <ele>1593.6</ele>
        <time>2019-01-31T07:20:57Z</time>
      </trkpt>
      <trkpt lat="42.04304" lon="0.78352">
        <ele>1594.1</ele>
        <time>2019-01-31T07:21:01Z</time>
      </trkpt>
      <trkpt lat="42.04292" lon="0.78336">
        <ele>1595.4</ele>
        <time>2019-01-31T07:21:10Z</time>
      </trkpt>
      <trkpt lat="42.04285" lon="0.78325">
        <ele>1595.9</ele>
        <time>2019-01-31T07:21:16Z</time>
      </trkpt>
      <trkpt lat="42.04283" lon="0.78324">
        <ele>1596</ele>
        <time>2019-01-31T07:21:17Z</time>
      </trkpt>
      <trkpt lat="42.04277" lon="0.7831">
        <ele>1597.5</ele>
        <time>2019-01-31T07:21:24Z</time>
      </trkpt>
      <trkpt lat="42.04268" lon="0.78298">
        <ele>1598.3</ele>
        <time>2019-01-31T07:21:31Z</time>
      </trkpt>
      <trkpt lat="42.04258" lon="0.78282">
        <ele>1599.3</ele>
        <time>2019-01-31T07:21:41Z</time>
      </trkpt>
      <trkpt lat="42.04247" lon="0.78266">
        <ele>1600.7</ele>
        <time>2019-01-31T07:21:49Z</time>
      </trkpt>
      <trkpt lat="42.0424" lon="0.78253">
        <ele>1601.8</ele>
        <time>2019-01-31T07:21:56Z</time>
      </trkpt>
      <trkpt lat="42.04228" lon="0.78232">
        <ele>1602.7</ele>
        <time>2019-01-31T07:22:07Z</time>
      </trkpt>
      <trkpt lat="42.04222" lon="0.78218">
        <ele>1603.2</ele>
        <time>2019-01-31T07:22:14Z</time>
      </trkpt>
      <trkpt lat="42.04222" lon="0.78207">
        <ele>1603.7</ele>
        <time>2019-01-31T07:22:19Z</time>
      </trkpt>
      <trkpt lat="42.04215" lon="0.78185">
        <ele>1605.6</ele>
        <time>2019-01-31T07:22:29Z</time>
      </trkpt>
      <trkpt lat="42.04213" lon="0.78178">
        <ele>1605.5</ele>
        <time>2019-01-31T07:22:32Z</time>
      </trkpt>
      <trkpt lat="42.04213" lon="0.78172">
        <ele>1605.6</ele>
        <time>2019-01-31T07:22:35Z</time>
      </trkpt>
      <trkpt lat="42.04221" lon="0.78156">
        <ele>1606.1</ele>
        <time>2019-01-31T07:22:43Z</time>
      </trkpt>
      <trkpt lat="42.04225" lon="0.78153">
        <ele>1606</ele>
        <time>2019-01-31T07:22:46Z</time>
      </trkpt>
      <trkpt lat="42.04236" lon="0.78138">
        <ele>1606.5</ele>
        <time>2019-01-31T07:22:55Z</time>
      </trkpt>
      <trkpt lat="42.04243" lon="0.78125">
        <ele>1606.5</ele>
        <time>2019-01-31T07:23:02Z</time>
      </trkpt>
      <trkpt lat="42.04263" lon="0.78116">
        <ele>1607.6</ele>
        <time>2019-01-31T07:23:13Z</time>
      </trkpt>
      <trkpt lat="42.0427" lon="0.78108">
        <ele>1608.5</ele>
        <time>2019-01-31T07:23:19Z</time>
      </trkpt>
      <trkpt lat="42.04272" lon="0.78105">
        <ele>1608.4</ele>
        <time>2019-01-31T07:23:20Z</time>
      </trkpt>
      <trkpt lat="42.04281" lon="0.78097">
        <ele>1609</ele>
        <time>2019-01-31T07:23:26Z</time>
      </trkpt>
      <trkpt lat="42.04287" lon="0.78084">
        <ele>1609.4</ele>
        <time>2019-01-31T07:23:33Z</time>
      </trkpt>
      <trkpt lat="42.04289" lon="0.78074">
        <ele>1610</ele>
        <time>2019-01-31T07:23:37Z</time>
      </trkpt>
      <trkpt lat="42.04291" lon="0.78062">
        <ele>1610.9</ele>
        <time>2019-01-31T07:23:43Z</time>
      </trkpt>
      <trkpt lat="42.04292" lon="0.78051">
        <ele>1611.3</ele>
        <time>2019-01-31T07:23:47Z</time>
      </trkpt>
      <trkpt lat="42.04295" lon="0.78038">
        <ele>1611.9</ele>
        <time>2019-01-31T07:23:53Z</time>
      </trkpt>
      <trkpt lat="42.043" lon="0.78018">
        <ele>1612.3</ele>
        <time>2019-01-31T07:24:02Z</time>
      </trkpt>
      <trkpt lat="42.043" lon="0.7801">
        <ele>1612.3</ele>
        <time>2019-01-31T07:24:05Z</time>
      </trkpt>
      <trkpt lat="42.04301" lon="0.78002">
        <ele>1612.7</ele>
        <time>2019-01-31T07:24:09Z</time>
      </trkpt>
      <trkpt lat="42.043" lon="0.77988">
        <ele>1613.2</ele>
        <time>2019-01-31T07:24:15Z</time>
      </trkpt>
      <trkpt lat="42.04298" lon="0.77978">
        <ele>1613.7</ele>
        <time>2019-01-31T07:24:19Z</time>
      </trkpt>
      <trkpt lat="42.04294" lon="0.77962">
        <ele>1614.2</ele>
        <time>2019-01-31T07:24:26Z</time>
      </trkpt>
      <trkpt lat="42.04289" lon="0.77946">
        <ele>1615.3</ele>
        <time>2019-01-31T07:24:33Z</time>
      </trkpt>
      <trkpt lat="42.04282" lon="0.77926">
        <ele>1615.6</ele>
        <time>2019-01-31T07:24:43Z</time>
      </trkpt>
      <trkpt lat="42.04277" lon="0.77908">
        <ele>1616.2</ele>
        <time>2019-01-31T07:24:51Z</time>
      </trkpt>
      <trkpt lat="42.04273" lon="0.77896">
        <ele>1616.1</ele>
        <time>2019-01-31T07:24:57Z</time>
      </trkpt>
      <trkpt lat="42.0427" lon="0.77894">
        <ele>1617.2</ele>
        <time>2019-01-31T07:24:59Z</time>
      </trkpt>
      <trkpt lat="42.04266" lon="0.7788">
        <ele>1618.6</ele>
        <time>2019-01-31T07:25:05Z</time>
      </trkpt>
      <trkpt lat="42.04258" lon="0.77853">
        <ele>1617.7</ele>
        <time>2019-01-31T07:25:17Z</time>
      </trkpt>
      <trkpt lat="42.04254" lon="0.77847">
        <ele>1617.6</ele>
        <time>2019-01-31T07:25:21Z</time>
      </trkpt>
      <trkpt lat="42.04252" lon="0.77841">
        <ele>1617.6</ele>
        <time>2019-01-31T07:25:23Z</time>
      </trkpt>
      <trkpt lat="42.04246" lon="0.77823">
        <ele>1618</ele>
        <time>2019-01-31T07:25:32Z</time>
      </trkpt>
      <trkpt lat="42.04233" lon="0.778">
        <ele>1618.1</ele>
        <time>2019-01-31T07:25:44Z</time>
      </trkpt>
      <trkpt lat="42.0423" lon="0.77791">
        <ele>1618.5</ele>
        <time>2019-01-31T07:25:48Z</time>
      </trkpt>
      <trkpt lat="42.04222" lon="0.77773">
        <ele>1618.6</ele>
        <time>2019-01-31T07:25:57Z</time>
      </trkpt>
      <trkpt lat="42.04213" lon="0.77755">
        <ele>1619.1</ele>
        <time>2019-01-31T07:26:06Z</time>
      </trkpt>
      <trkpt lat="42.04207" lon="0.77744">
        <ele>1620</ele>
        <time>2019-01-31T07:26:12Z</time>
      </trkpt>
      <trkpt lat="42.04201" lon="0.77728">
        <ele>1620.1</ele>
        <time>2019-01-31T07:26:20Z</time>
      </trkpt>
      <trkpt lat="42.04193" lon="0.77718">
        <ele>1621.5</ele>
        <time>2019-01-31T07:26:26Z</time>
      </trkpt>
      <trkpt lat="42.0418" lon="0.77705">
        <ele>1623.8</ele>
        <time>2019-01-31T07:26:35Z</time>
      </trkpt>
      <trkpt lat="42.04175" lon="0.77696">
        <ele>1624.9</ele>
        <time>2019-01-31T07:26:40Z</time>
      </trkpt>
      <trkpt lat="42.04173" lon="0.77692">
        <ele>1629.8</ele>
        <time>2019-01-31T07:26:42Z</time>
      </trkpt>
      <trkpt lat="42.04173" lon="0.77688">
        <ele>1629.6</ele>
        <time>2019-01-31T07:26:44Z</time>
      </trkpt>
      <trkpt lat="42.04171" lon="0.77686">
        <ele>1630</ele>
        <time>2019-01-31T07:26:45Z</time>
      </trkpt>
      <trkpt lat="42.04168" lon="0.7768">
        <ele>1627.3</ele>
        <time>2019-01-31T07:26:48Z</time>
      </trkpt>
      <trkpt lat="42.04168" lon="0.77676">
        <ele>1627.2</ele>
        <time>2019-01-31T07:26:50Z</time>
      </trkpt>
      <trkpt lat="42.04164" lon="0.77671">
        <ele>1627.3</ele>
        <time>2019-01-31T07:26:53Z</time>
      </trkpt>
      <trkpt lat="42.04157" lon="0.77662">
        <ele>1628.2</ele>
        <time>2019-01-31T07:26:58Z</time>
      </trkpt>
      <trkpt lat="42.0415" lon="0.77647">
        <ele>1631.6</ele>
        <time>2019-01-31T07:27:06Z</time>
      </trkpt>
      <trkpt lat="42.04149" lon="0.77645">
        <ele>1630.6</ele>
        <time>2019-01-31T07:27:07Z</time>
      </trkpt>
      <trkpt lat="42.0415" lon="0.77642">
        <ele>1629.1</ele>
        <time>2019-01-31T07:27:08Z</time>
      </trkpt>
      <trkpt lat="42.04143" lon="0.77631">
        <ele>1631.6</ele>
        <time>2019-01-31T07:27:14Z</time>
      </trkpt>
      <trkpt lat="42.04142" lon="0.77629">
        <ele>1630.5</ele>
        <time>2019-01-31T07:27:15Z</time>
      </trkpt>
      <trkpt lat="42.04135" lon="0.7762">
        <ele>1631</ele>
        <time>2019-01-31T07:27:21Z</time>
      </trkpt>
      <trkpt lat="42.04132" lon="0.77606">
        <ele>1632.9</ele>
        <time>2019-01-31T07:27:27Z</time>
      </trkpt>
      <trkpt lat="42.04133" lon="0.77598">
        <ele>1642.1</ele>
        <time>2019-01-31T07:27:30Z</time>
      </trkpt>
      <trkpt lat="42.04132" lon="0.77586">
        <ele>1642.1</ele>
        <time>2019-01-31T07:27:36Z</time>
      </trkpt>
      <trkpt lat="42.04132" lon="0.77573">
        <ele>1643.5</ele>
        <time>2019-01-31T07:27:41Z</time>
      </trkpt>
      <trkpt lat="42.04133" lon="0.7756">
        <ele>1645</ele>
        <time>2019-01-31T07:27:47Z</time>
      </trkpt>
      <trkpt lat="42.04134" lon="0.77548">
        <ele>1646.5</ele>
        <time>2019-01-31T07:27:52Z</time>
      </trkpt>
      <trkpt lat="42.04136" lon="0.77536">
        <ele>1648.4</ele>
        <time>2019-01-31T07:27:57Z</time>
      </trkpt>
      <trkpt lat="42.04136" lon="0.77522">
        <ele>1650.3</ele>
        <time>2019-01-31T07:28:03Z</time>
      </trkpt>
      <trkpt lat="42.04135" lon="0.77509">
        <ele>1652.7</ele>
        <time>2019-01-31T07:28:09Z</time>
      </trkpt>
      <trkpt lat="42.04136" lon="0.77497">
        <ele>1654.6</ele>
        <time>2019-01-31T07:28:14Z</time>
      </trkpt>
      <trkpt lat="42.04137" lon="0.77484">
        <ele>1655.5</ele>
        <time>2019-01-31T07:28:19Z</time>
      </trkpt>
      <trkpt lat="42.04135" lon="0.77471">
        <ele>1656.5</ele>
        <time>2019-01-31T07:28:25Z</time>
      </trkpt>
      <trkpt lat="42.04133" lon="0.77458">
        <ele>1658.9</ele>
        <time>2019-01-31T07:28:30Z</time>
      </trkpt>
      <trkpt lat="42.04132" lon="0.77444">
        <ele>1660.9</ele>
        <time>2019-01-31T07:28:36Z</time>
      </trkpt>
      <trkpt lat="42.04131" lon="0.77431">
        <ele>1661.3</ele>
        <time>2019-01-31T07:28:42Z</time>
      </trkpt>
      <trkpt lat="42.0413" lon="0.77419">
        <ele>1662.3</ele>
        <time>2019-01-31T07:28:47Z</time>
      </trkpt>
      <trkpt lat="42.04129" lon="0.77406">
        <ele>1663.3</ele>
        <time>2019-01-31T07:28:53Z</time>
      </trkpt>
      <trkpt lat="42.04129" lon="0.77392">
        <ele>1663.7</ele>
        <time>2019-01-31T07:28:58Z</time>
      </trkpt>
      <trkpt lat="42.04129" lon="0.77379">
        <ele>1665.2</ele>
        <time>2019-01-31T07:29:04Z</time>
      </trkpt>
      <trkpt lat="42.04128" lon="0.77365">
        <ele>1664.8</ele>
        <time>2019-01-31T07:29:10Z</time>
      </trkpt>
      <trkpt lat="42.04126" lon="0.77353">
        <ele>1664.7</ele>
        <time>2019-01-31T07:29:16Z</time>
      </trkpt>
      <trkpt lat="42.04122" lon="0.7734">
        <ele>1664.8</ele>
        <time>2019-01-31T07:29:21Z</time>
      </trkpt>
      <trkpt lat="42.04119" lon="0.77326">
        <ele>1664.8</ele>
        <time>2019-01-31T07:29:27Z</time>
      </trkpt>
      <trkpt lat="42.04113" lon="0.77314">
        <ele>1664.7</ele>
        <time>2019-01-31T07:29:33Z</time>
      </trkpt>
      <trkpt lat="42.04108" lon="0.77303">
        <ele>1664.7</ele>
        <time>2019-01-31T07:29:39Z</time>
      </trkpt>
      <trkpt lat="42.04102" lon="0.77293">
        <ele>1664.7</ele>
        <time>2019-01-31T07:29:45Z</time>
      </trkpt>
      <trkpt lat="42.04096" lon="0.7728">
        <ele>1664.8</ele>
        <time>2019-01-31T07:29:51Z</time>
      </trkpt>
      <trkpt lat="42.04092" lon="0.77268">
        <ele>1664.8</ele>
        <time>2019-01-31T07:29:57Z</time>
      </trkpt>
      <trkpt lat="42.04086" lon="0.77258">
        <ele>1663.2</ele>
        <time>2019-01-31T07:30:02Z</time>
      </trkpt>
      <trkpt lat="42.04081" lon="0.77245">
        <ele>1663.3</ele>
        <time>2019-01-31T07:30:08Z</time>
      </trkpt>
      <trkpt lat="42.04076" lon="0.77232">
        <ele>1662.3</ele>
        <time>2019-01-31T07:30:14Z</time>
      </trkpt>
      <trkpt lat="42.04072" lon="0.7722">
        <ele>1662.3</ele>
        <time>2019-01-31T07:30:20Z</time>
      </trkpt>
      <trkpt lat="42.04067" lon="0.77207">
        <ele>1661.4</ele>
        <time>2019-01-31T07:30:26Z</time>
      </trkpt>
      <trkpt lat="42.04063" lon="0.77194">
        <ele>1660</ele>
        <time>2019-01-31T07:30:32Z</time>
      </trkpt>
      <trkpt lat="42.04057" lon="0.77181">
        <ele>1659.4</ele>
        <time>2019-01-31T07:30:39Z</time>
      </trkpt>
      <trkpt lat="42.04052" lon="0.77169">
        <ele>1659.4</ele>
        <time>2019-01-31T07:30:45Z</time>
      </trkpt>
      <trkpt lat="42.04048" lon="0.77157">
        <ele>1658.4</ele>
        <time>2019-01-31T07:30:50Z</time>
      </trkpt>
      <trkpt lat="42.04044" lon="0.77142">
        <ele>1657.9</ele>
        <time>2019-01-31T07:30:57Z</time>
      </trkpt>
      <trkpt lat="42.04038" lon="0.77131">
        <ele>1656.6</ele>
        <time>2019-01-31T07:31:03Z</time>
      </trkpt>
      <trkpt lat="42.04032" lon="0.77119">
        <ele>1654.6</ele>
        <time>2019-01-31T07:31:09Z</time>
      </trkpt>
      <trkpt lat="42.04028" lon="0.77108">
        <ele>1656.1</ele>
        <time>2019-01-31T07:31:14Z</time>
      </trkpt>
      <trkpt lat="42.04024" lon="0.77097">
        <ele>1656</ele>
        <time>2019-01-31T07:31:19Z</time>
      </trkpt>
      <trkpt lat="42.0402" lon="0.77085">
        <ele>1655.6</ele>
        <time>2019-01-31T07:31:25Z</time>
      </trkpt>
      <trkpt lat="42.04017" lon="0.77074">
        <ele>1655.1</ele>
        <time>2019-01-31T07:31:30Z</time>
      </trkpt>
      <trkpt lat="42.04013" lon="0.77063">
        <ele>1655.2</ele>
        <time>2019-01-31T07:31:35Z</time>
      </trkpt>
      <trkpt lat="42.04009" lon="0.77049">
        <ele>1657</ele>
        <time>2019-01-31T07:31:41Z</time>
      </trkpt>
      <trkpt lat="42.04007" lon="0.77036">
        <ele>1658.5</ele>
        <time>2019-01-31T07:31:47Z</time>
      </trkpt>
      <trkpt lat="42.04006" lon="0.77022">
        <ele>1658.9</ele>
        <time>2019-01-31T07:31:53Z</time>
      </trkpt>
      <trkpt lat="42.04005" lon="0.77009">
        <ele>1660.8</ele>
        <time>2019-01-31T07:31:59Z</time>
      </trkpt>
      <trkpt lat="42.04006" lon="0.76996">
        <ele>1661.9</ele>
        <time>2019-01-31T07:32:04Z</time>
      </trkpt>
      <trkpt lat="42.04007" lon="0.76984">
        <ele>1662.4</ele>
        <time>2019-01-31T07:32:09Z</time>
      </trkpt>
      <trkpt lat="42.04007" lon="0.76971">
        <ele>1663.3</ele>
        <time>2019-01-31T07:32:15Z</time>
      </trkpt>
      <trkpt lat="42.04008" lon="0.76957">
        <ele>1664.2</ele>
        <time>2019-01-31T07:32:21Z</time>
      </trkpt>
      <trkpt lat="42.04008" lon="0.76943">
        <ele>1664.8</ele>
        <time>2019-01-31T07:32:26Z</time>
      </trkpt>
      <trkpt lat="42.04009" lon="0.7693">
        <ele>1665.7</ele>
        <time>2019-01-31T07:32:32Z</time>
      </trkpt>
      <trkpt lat="42.0401" lon="0.76917">
        <ele>1666.2</ele>
        <time>2019-01-31T07:32:38Z</time>
      </trkpt>
      <trkpt lat="42.0401" lon="0.76904">
        <ele>1667.5</ele>
        <time>2019-01-31T07:32:43Z</time>
      </trkpt>
      <trkpt lat="42.0401" lon="0.76891">
        <ele>1668.6</ele>
        <time>2019-01-31T07:32:49Z</time>
      </trkpt>
      <trkpt lat="42.04009" lon="0.76878">
        <ele>1670.1</ele>
        <time>2019-01-31T07:32:54Z</time>
      </trkpt>
      <trkpt lat="42.04008" lon="0.76864">
        <ele>1671.9</ele>
        <time>2019-01-31T07:33:00Z</time>
      </trkpt>
      <trkpt lat="42.04008" lon="0.7685">
        <ele>1672.4</ele>
        <time>2019-01-31T07:33:06Z</time>
      </trkpt>
      <trkpt lat="42.04005" lon="0.76838">
        <ele>1673.3</ele>
        <time>2019-01-31T07:33:12Z</time>
      </trkpt>
      <trkpt lat="42.04002" lon="0.76826">
        <ele>1673.4</ele>
        <time>2019-01-31T07:33:17Z</time>
      </trkpt>
      <trkpt lat="42.03997" lon="0.76814">
        <ele>1676.3</ele>
        <time>2019-01-31T07:33:23Z</time>
      </trkpt>
      <trkpt lat="42.03996" lon="0.768">
        <ele>1675.2</ele>
        <time>2019-01-31T07:33:29Z</time>
      </trkpt>
      <trkpt lat="42.03997" lon="0.76786">
        <ele>1676.8</ele>
        <time>2019-01-31T07:33:34Z</time>
      </trkpt>
      <trkpt lat="42.03999" lon="0.76773">
        <ele>1675.7</ele>
        <time>2019-01-31T07:33:40Z</time>
      </trkpt>
      <trkpt lat="42.04" lon="0.7676">
        <ele>1677.2</ele>
        <time>2019-01-31T07:33:46Z</time>
      </trkpt>
      <trkpt lat="42.03998" lon="0.76748">
        <ele>1678.2</ele>
        <time>2019-01-31T07:33:51Z</time>
      </trkpt>
      <trkpt lat="42.03992" lon="0.7674">
        <ele>1679.7</ele>
        <time>2019-01-31T07:33:56Z</time>
      </trkpt>
      <trkpt lat="42.03991" lon="0.76726">
        <ele>1681.1</ele>
        <time>2019-01-31T07:34:02Z</time>
      </trkpt>
      <trkpt lat="42.0399" lon="0.76714">
        <ele>1682.9</ele>
        <time>2019-01-31T07:34:07Z</time>
      </trkpt>
      <trkpt lat="42.0399" lon="0.7671">
        <ele>1683.4</ele>
        <time>2019-01-31T07:34:08Z</time>
      </trkpt>
      <trkpt lat="42.03989" lon="0.76698">
        <ele>1682.4</ele>
        <time>2019-01-31T07:34:14Z</time>
      </trkpt>
      <trkpt lat="42.03988" lon="0.76685">
        <ele>1685.9</ele>
        <time>2019-01-31T07:34:19Z</time>
      </trkpt>
      <trkpt lat="42.03987" lon="0.76673">
        <ele>1685.3</ele>
        <time>2019-01-31T07:34:24Z</time>
      </trkpt>
      <trkpt lat="42.03983" lon="0.76662">
        <ele>1685.8</ele>
        <time>2019-01-31T07:34:30Z</time>
      </trkpt>
      <trkpt lat="42.0398" lon="0.76654">
        <ele>1685.4</ele>
        <time>2019-01-31T07:34:34Z</time>
      </trkpt>
      <trkpt lat="42.03983" lon="0.76651">
        <ele>1685.4</ele>
        <time>2019-01-31T07:34:36Z</time>
      </trkpt>
      <trkpt lat="42.03982" lon="0.76647">
        <ele>1684.4</ele>
        <time>2019-01-31T07:34:38Z</time>
      </trkpt>
      <trkpt lat="42.03983" lon="0.76652">
        <ele>1687.7</ele>
        <time>2019-01-31T07:34:40Z</time>
      </trkpt>
      <trkpt lat="42.03982" lon="0.76639">
        <ele>1682.9</ele>
        <time>2019-01-31T07:34:46Z</time>
      </trkpt>
      <trkpt lat="42.03981" lon="0.76624">
        <ele>1681.5</ele>
        <time>2019-01-31T07:34:52Z</time>
      </trkpt>
      <trkpt lat="42.0398" lon="0.76608">
        <ele>1680</ele>
        <time>2019-01-31T07:34:59Z</time>
      </trkpt>
      <trkpt lat="42.03982" lon="0.76593">
        <ele>1677.6</ele>
        <time>2019-01-31T07:35:05Z</time>
      </trkpt>
      <trkpt lat="42.03982" lon="0.76579">
        <ele>1672.9</ele>
        <time>2019-01-31T07:35:12Z</time>
      </trkpt>
      <trkpt lat="42.03988" lon="0.76567">
        <ele>1671.9</ele>
        <time>2019-01-31T07:35:17Z</time>
      </trkpt>
      <trkpt lat="42.03994" lon="0.76557">
        <ele>1668.6</ele>
        <time>2019-01-31T07:35:23Z</time>
      </trkpt>
      <trkpt lat="42.04" lon="0.76546">
        <ele>1667.1</ele>
        <time>2019-01-31T07:35:29Z</time>
      </trkpt>
      <trkpt lat="42.04007" lon="0.76535">
        <ele>1665.2</ele>
        <time>2019-01-31T07:35:35Z</time>
      </trkpt>
      <trkpt lat="42.04012" lon="0.76524">
        <ele>1662.7</ele>
        <time>2019-01-31T07:35:40Z</time>
      </trkpt>
      <trkpt lat="42.04019" lon="0.76514">
        <ele>1661.9</ele>
        <time>2019-01-31T07:35:46Z</time>
      </trkpt>
      <trkpt lat="42.04021" lon="0.76502">
        <ele>1658</ele>
        <time>2019-01-31T07:35:52Z</time>
      </trkpt>
      <trkpt lat="42.04024" lon="0.76489">
        <ele>1657.6</ele>
        <time>2019-01-31T07:35:57Z</time>
      </trkpt>
      <trkpt lat="42.04027" lon="0.76477">
        <ele>1654.6</ele>
        <time>2019-01-31T07:36:02Z</time>
      </trkpt>
      <trkpt lat="42.0403" lon="0.76466">
        <ele>1653.1</ele>
        <time>2019-01-31T07:36:08Z</time>
      </trkpt>
      <trkpt lat="42.04029" lon="0.76452">
        <ele>1649.8</ele>
        <time>2019-01-31T07:36:14Z</time>
      </trkpt>
      <trkpt lat="42.04024" lon="0.76439">
        <ele>1648.8</ele>
        <time>2019-01-31T07:36:20Z</time>
      </trkpt>
      <trkpt lat="42.04019" lon="0.76427">
        <ele>1647.4</ele>
        <time>2019-01-31T07:36:26Z</time>
      </trkpt>
      <trkpt lat="42.04015" lon="0.76416">
        <ele>1646</ele>
        <time>2019-01-31T07:36:31Z</time>
      </trkpt>
      <trkpt lat="42.04011" lon="0.76402">
        <ele>1644.1</ele>
        <time>2019-01-31T07:36:37Z</time>
      </trkpt>
      <trkpt lat="42.04009" lon="0.76388">
        <ele>1642.6</ele>
        <time>2019-01-31T07:36:43Z</time>
      </trkpt>
      <trkpt lat="42.04009" lon="0.76375">
        <ele>1639.2</ele>
        <time>2019-01-31T07:36:49Z</time>
      </trkpt>
      <trkpt lat="42.04012" lon="0.76362">
        <ele>1638.3</ele>
        <time>2019-01-31T07:36:55Z</time>
      </trkpt>
      <trkpt lat="42.04013" lon="0.76351">
        <ele>1636.4</ele>
        <time>2019-01-31T07:37:00Z</time>
      </trkpt>
      <trkpt lat="42.04017" lon="0.76336">
        <ele>1635.4</ele>
        <time>2019-01-31T07:37:06Z</time>
      </trkpt>
      <trkpt lat="42.0402" lon="0.76324">
        <ele>1633.4</ele>
        <time>2019-01-31T07:37:11Z</time>
      </trkpt>
      <trkpt lat="42.04023" lon="0.76311">
        <ele>1630.1</ele>
        <time>2019-01-31T07:37:17Z</time>
      </trkpt>
      <trkpt lat="42.04025" lon="0.76295">
        <ele>1629.1</ele>
        <time>2019-01-31T07:37:24Z</time>
      </trkpt>
      <trkpt lat="42.04027" lon="0.76281">
        <ele>1628.6</ele>
        <time>2019-01-31T07:37:30Z</time>
      </trkpt>
      <trkpt lat="42.04028" lon="0.76267">
        <ele>1629.7</ele>
        <time>2019-01-31T07:37:36Z</time>
      </trkpt>
      <trkpt lat="42.04031" lon="0.76254">
        <ele>1629.7</ele>
        <time>2019-01-31T07:37:42Z</time>
      </trkpt>
      <trkpt lat="42.04033" lon="0.76241">
        <ele>1628.1</ele>
        <time>2019-01-31T07:37:47Z</time>
      </trkpt>
      <trkpt lat="42.04036" lon="0.76229">
        <ele>1626.7</ele>
        <time>2019-01-31T07:37:53Z</time>
      </trkpt>
      <trkpt lat="42.04039" lon="0.76217">
        <ele>1626.2</ele>
        <time>2019-01-31T07:37:58Z</time>
      </trkpt>
      <trkpt lat="42.04045" lon="0.76206">
        <ele>1623.4</ele>
        <time>2019-01-31T07:38:04Z</time>
      </trkpt>
      <trkpt lat="42.04052" lon="0.76198">
        <ele>1623.3</ele>
        <time>2019-01-31T07:38:09Z</time>
      </trkpt>
      <trkpt lat="42.04058" lon="0.76187">
        <ele>1626.2</ele>
        <time>2019-01-31T07:38:15Z</time>
      </trkpt>
      <trkpt lat="42.04064" lon="0.76177">
        <ele>1626.3</ele>
        <time>2019-01-31T07:38:20Z</time>
      </trkpt>
      <trkpt lat="42.0407" lon="0.76167">
        <ele>1623.3</ele>
        <time>2019-01-31T07:38:26Z</time>
      </trkpt>
      <trkpt lat="42.04075" lon="0.76157">
        <ele>1623.8</ele>
        <time>2019-01-31T07:38:31Z</time>
      </trkpt>
      <trkpt lat="42.04079" lon="0.76145">
        <ele>1626.3</ele>
        <time>2019-01-31T07:38:37Z</time>
      </trkpt>
      <trkpt lat="42.04084" lon="0.76135">
        <ele>1626.3</ele>
        <time>2019-01-31T07:38:42Z</time>
      </trkpt>
      <trkpt lat="42.04091" lon="0.76125">
        <ele>1627.7</ele>
        <time>2019-01-31T07:38:47Z</time>
      </trkpt>
      <trkpt lat="42.04097" lon="0.76114">
        <ele>1628.2</ele>
        <time>2019-01-31T07:38:53Z</time>
      </trkpt>
      <trkpt lat="42.04105" lon="0.76108">
        <ele>1628.7</ele>
        <time>2019-01-31T07:38:59Z</time>
      </trkpt>
      <trkpt lat="42.04114" lon="0.76104">
        <ele>1630.1</ele>
        <time>2019-01-31T07:39:04Z</time>
      </trkpt>
      <trkpt lat="42.04123" lon="0.76096">
        <ele>1631.5</ele>
        <time>2019-01-31T07:39:10Z</time>
      </trkpt>
      <trkpt lat="42.04131" lon="0.76088">
        <ele>1632.6</ele>
        <time>2019-01-31T07:39:16Z</time>
      </trkpt>
      <trkpt lat="42.0414" lon="0.76081">
        <ele>1634</ele>
        <time>2019-01-31T07:39:22Z</time>
      </trkpt>
      <trkpt lat="42.04148" lon="0.76072">
        <ele>1634.9</ele>
        <time>2019-01-31T07:39:28Z</time>
      </trkpt>
      <trkpt lat="42.04156" lon="0.76065">
        <ele>1635.8</ele>
        <time>2019-01-31T07:39:33Z</time>
      </trkpt>
      <trkpt lat="42.04165" lon="0.76058">
        <ele>1635.3</ele>
        <time>2019-01-31T07:39:39Z</time>
      </trkpt>
      <trkpt lat="42.04173" lon="0.76049">
        <ele>1634.4</ele>
        <time>2019-01-31T07:39:45Z</time>
      </trkpt>
      <trkpt lat="42.04182" lon="0.76043">
        <ele>1634.4</ele>
        <time>2019-01-31T07:39:51Z</time>
      </trkpt>
      <trkpt lat="42.04192" lon="0.7604">
        <ele>1634</ele>
        <time>2019-01-31T07:39:57Z</time>
      </trkpt>
      <trkpt lat="42.04202" lon="0.7604">
        <ele>1633.5</ele>
        <time>2019-01-31T07:40:03Z</time>
      </trkpt>
      <trkpt lat="42.04213" lon="0.76038">
        <ele>1632.6</ele>
        <time>2019-01-31T07:40:09Z</time>
      </trkpt>
      <trkpt lat="42.04223" lon="0.76035">
        <ele>1631.1</ele>
        <time>2019-01-31T07:40:15Z</time>
      </trkpt>
      <trkpt lat="42.04232" lon="0.76026">
        <ele>1631.6</ele>
        <time>2019-01-31T07:40:21Z</time>
      </trkpt>
      <trkpt lat="42.04238" lon="0.76014">
        <ele>1630.5</ele>
        <time>2019-01-31T07:40:27Z</time>
      </trkpt>
      <trkpt lat="42.04242" lon="0.76001">
        <ele>1630.5</ele>
        <time>2019-01-31T07:40:33Z</time>
      </trkpt>
      <trkpt lat="42.04245" lon="0.75987">
        <ele>1630.1</ele>
        <time>2019-01-31T07:40:40Z</time>
      </trkpt>
      <trkpt lat="42.04246" lon="0.75972">
        <ele>1629.6</ele>
        <time>2019-01-31T07:40:46Z</time>
      </trkpt>
      <trkpt lat="42.04246" lon="0.75958">
        <ele>1628.6</ele>
        <time>2019-01-31T07:40:52Z</time>
      </trkpt>
      <trkpt lat="42.04246" lon="0.75943">
        <ele>1627.7</ele>
        <time>2019-01-31T07:40:58Z</time>
      </trkpt>
      <trkpt lat="42.04247" lon="0.75928">
        <ele>1627.2</ele>
        <time>2019-01-31T07:41:04Z</time>
      </trkpt>
      <trkpt lat="42.04246" lon="0.75913">
        <ele>1625.7</ele>
        <time>2019-01-31T07:41:11Z</time>
      </trkpt>
      <trkpt lat="42.04245" lon="0.75898">
        <ele>1625.4</ele>
        <time>2019-01-31T07:41:17Z</time>
      </trkpt>
      <trkpt lat="42.04243" lon="0.75884">
        <ele>1623.3</ele>
        <time>2019-01-31T07:41:23Z</time>
      </trkpt>
      <trkpt lat="42.04241" lon="0.7587">
        <ele>1623.3</ele>
        <time>2019-01-31T07:41:29Z</time>
      </trkpt>
      <trkpt lat="42.0424" lon="0.75857">
        <ele>1622.8</ele>
        <time>2019-01-31T07:41:35Z</time>
      </trkpt>
      <trkpt lat="42.04238" lon="0.75843">
        <ele>1622.4</ele>
        <time>2019-01-31T07:41:41Z</time>
      </trkpt>
      <trkpt lat="42.04238" lon="0.75829">
        <ele>1622</ele>
        <time>2019-01-31T07:41:47Z</time>
      </trkpt>
      <trkpt lat="42.04238" lon="0.75815">
        <ele>1621.5</ele>
        <time>2019-01-31T07:41:53Z</time>
      </trkpt>
      <trkpt lat="42.04238" lon="0.758">
        <ele>1621.4</ele>
        <time>2019-01-31T07:41:59Z</time>
      </trkpt>
      <trkpt lat="42.04237" lon="0.75785">
        <ele>1621.4</ele>
        <time>2019-01-31T07:42:05Z</time>
      </trkpt>
      <trkpt lat="42.04237" lon="0.75773">
        <ele>1620.9</ele>
        <time>2019-01-31T07:42:11Z</time>
      </trkpt>
      <trkpt lat="42.04238" lon="0.75757">
        <ele>1620.1</ele>
        <time>2019-01-31T07:42:18Z</time>
      </trkpt>
      <trkpt lat="42.0424" lon="0.75744">
        <ele>1618.5</ele>
        <time>2019-01-31T07:42:23Z</time>
      </trkpt>
      <trkpt lat="42.04242" lon="0.7573">
        <ele>1618.1</ele>
        <time>2019-01-31T07:42:29Z</time>
      </trkpt>
      <trkpt lat="42.04245" lon="0.75716">
        <ele>1616.7</ele>
        <time>2019-01-31T07:42:35Z</time>
      </trkpt>
      <trkpt lat="42.04248" lon="0.75702">
        <ele>1616.1</ele>
        <time>2019-01-31T07:42:41Z</time>
      </trkpt>
      <trkpt lat="42.0425" lon="0.75688">
        <ele>1615.7</ele>
        <time>2019-01-31T07:42:48Z</time>
      </trkpt>
      <trkpt lat="42.04253" lon="0.75674">
        <ele>1614.7</ele>
        <time>2019-01-31T07:42:54Z</time>
      </trkpt>
      <trkpt lat="42.04254" lon="0.7566">
        <ele>1614.3</ele>
        <time>2019-01-31T07:43:00Z</time>
      </trkpt>
      <trkpt lat="42.04256" lon="0.75645">
        <ele>1613.2</ele>
        <time>2019-01-31T07:43:06Z</time>
      </trkpt>
      <trkpt lat="42.04259" lon="0.7563">
        <ele>1611.8</ele>
        <time>2019-01-31T07:43:13Z</time>
      </trkpt>
      <trkpt lat="42.04263" lon="0.75616">
        <ele>1611.3</ele>
        <time>2019-01-31T07:43:19Z</time>
      </trkpt>
      <trkpt lat="42.04265" lon="0.75602">
        <ele>1609.9</ele>
        <time>2019-01-31T07:43:25Z</time>
      </trkpt>
      <trkpt lat="42.04268" lon="0.75589">
        <ele>1610</ele>
        <time>2019-01-31T07:43:31Z</time>
      </trkpt>
      <trkpt lat="42.04271" lon="0.75575">
        <ele>1609.9</ele>
        <time>2019-01-31T07:43:37Z</time>
      </trkpt>
      <trkpt lat="42.04274" lon="0.75562">
        <ele>1609.5</ele>
        <time>2019-01-31T07:43:43Z</time>
      </trkpt>
      <trkpt lat="42.04278" lon="0.75549">
        <ele>1609.5</ele>
        <time>2019-01-31T07:43:49Z</time>
      </trkpt>
      <trkpt lat="42.04282" lon="0.75535">
        <ele>1609.5</ele>
        <time>2019-01-31T07:43:55Z</time>
      </trkpt>
      <trkpt lat="42.04286" lon="0.75523">
        <ele>1608.5</ele>
        <time>2019-01-31T07:44:01Z</time>
      </trkpt>
      <trkpt lat="42.04291" lon="0.75512">
        <ele>1608.5</ele>
        <time>2019-01-31T07:44:06Z</time>
      </trkpt>
      <trkpt lat="42.04296" lon="0.755">
        <ele>1608.4</ele>
        <time>2019-01-31T07:44:12Z</time>
      </trkpt>
      <trkpt lat="42.04302" lon="0.75489">
        <ele>1607.9</ele>
        <time>2019-01-31T07:44:18Z</time>
      </trkpt>
      <trkpt lat="42.0431" lon="0.75481">
        <ele>1607.5</ele>
        <time>2019-01-31T07:44:24Z</time>
      </trkpt>
      <trkpt lat="42.04319" lon="0.75477">
        <ele>1607.5</ele>
        <time>2019-01-31T07:44:29Z</time>
      </trkpt>
      <trkpt lat="42.04328" lon="0.75472">
        <ele>1607.6</ele>
        <time>2019-01-31T07:44:35Z</time>
      </trkpt>
      <trkpt lat="42.04337" lon="0.75467">
        <ele>1606.5</ele>
        <time>2019-01-31T07:44:40Z</time>
      </trkpt>
      <trkpt lat="42.04346" lon="0.7546">
        <ele>1606.1</ele>
        <time>2019-01-31T07:44:46Z</time>
      </trkpt>
      <trkpt lat="42.04354" lon="0.75453">
        <ele>1605.6</ele>
        <time>2019-01-31T07:44:52Z</time>
      </trkpt>
      <trkpt lat="42.04363" lon="0.75446">
        <ele>1605.1</ele>
        <time>2019-01-31T07:44:57Z</time>
      </trkpt>
      <trkpt lat="42.04372" lon="0.7544">
        <ele>1604.6</ele>
        <time>2019-01-31T07:45:03Z</time>
      </trkpt>
      <trkpt lat="42.04381" lon="0.75433">
        <ele>1604.6</ele>
        <time>2019-01-31T07:45:09Z</time>
      </trkpt>
      <trkpt lat="42.0439" lon="0.75426">
        <ele>1604.2</ele>
        <time>2019-01-31T07:45:15Z</time>
      </trkpt>
      <trkpt lat="42.04398" lon="0.75418">
        <ele>1604.1</ele>
        <time>2019-01-31T07:45:21Z</time>
      </trkpt>
      <trkpt lat="42.04406" lon="0.75408">
        <ele>1603.7</ele>
        <time>2019-01-31T07:45:27Z</time>
      </trkpt>
      <trkpt lat="42.04412" lon="0.75398">
        <ele>1603.1</ele>
        <time>2019-01-31T07:45:32Z</time>
      </trkpt>
      <trkpt lat="42.04414" lon="0.75389">
        <ele>1604.1</ele>
        <time>2019-01-31T07:45:36Z</time>
      </trkpt>
      <trkpt lat="42.04418" lon="0.75375">
        <ele>1602.8</ele>
        <time>2019-01-31T07:45:43Z</time>
      </trkpt>
      <trkpt lat="42.0442" lon="0.75361">
        <ele>1604.2</ele>
        <time>2019-01-31T07:45:49Z</time>
      </trkpt>
      <trkpt lat="42.04422" lon="0.75345">
        <ele>1602.3</ele>
        <time>2019-01-31T07:45:56Z</time>
      </trkpt>
      <trkpt lat="42.04423" lon="0.75331">
        <ele>1601.8</ele>
        <time>2019-01-31T07:46:02Z</time>
      </trkpt>
      <trkpt lat="42.04423" lon="0.75314">
        <ele>1600.7</ele>
        <time>2019-01-31T07:46:09Z</time>
      </trkpt>
      <trkpt lat="42.04423" lon="0.75298">
        <ele>1600.4</ele>
        <time>2019-01-31T07:46:15Z</time>
      </trkpt>
      <trkpt lat="42.04424" lon="0.75282">
        <ele>1599.9</ele>
        <time>2019-01-31T07:46:22Z</time>
      </trkpt>
      <trkpt lat="42.04424" lon="0.75267">
        <ele>1598.8</ele>
        <time>2019-01-31T07:46:29Z</time>
      </trkpt>
      <trkpt lat="42.04424" lon="0.75251">
        <ele>1597.4</ele>
        <time>2019-01-31T07:46:36Z</time>
      </trkpt>
      <trkpt lat="42.04424" lon="0.75235">
        <ele>1595.5</ele>
        <time>2019-01-31T07:46:42Z</time>
      </trkpt>
      <trkpt lat="42.04424" lon="0.7522">
        <ele>1595</ele>
        <time>2019-01-31T07:46:49Z</time>
      </trkpt>
      <trkpt lat="42.04423" lon="0.75203">
        <ele>1593.5</ele>
        <time>2019-01-31T07:46:56Z</time>
      </trkpt>
      <trkpt lat="42.04423" lon="0.75188">
        <ele>1592.6</ele>
        <time>2019-01-31T07:47:02Z</time>
      </trkpt>
      <trkpt lat="42.04424" lon="0.75173">
        <ele>1592.6</ele>
        <time>2019-01-31T07:47:09Z</time>
      </trkpt>
      <trkpt lat="42.04425" lon="0.75161">
        <ele>1593.1</ele>
        <time>2019-01-31T07:47:14Z</time>
      </trkpt>
      <trkpt lat="42.04428" lon="0.75146">
        <ele>1593.1</ele>
        <time>2019-01-31T07:47:21Z</time>
      </trkpt>
      <trkpt lat="42.04433" lon="0.75132">
        <ele>1591.6</ele>
        <time>2019-01-31T07:47:27Z</time>
      </trkpt>
      <trkpt lat="42.04439" lon="0.7512">
        <ele>1591.2</ele>
        <time>2019-01-31T07:47:33Z</time>
      </trkpt>
      <trkpt lat="42.04446" lon="0.75107">
        <ele>1590.6</ele>
        <time>2019-01-31T07:47:40Z</time>
      </trkpt>
      <trkpt lat="42.04454" lon="0.75097">
        <ele>1590.2</ele>
        <time>2019-01-31T07:47:46Z</time>
      </trkpt>
      <trkpt lat="42.04462" lon="0.75086">
        <ele>1590.2</ele>
        <time>2019-01-31T07:47:53Z</time>
      </trkpt>
      <trkpt lat="42.0447" lon="0.75076">
        <ele>1589.8</ele>
        <time>2019-01-31T07:47:59Z</time>
      </trkpt>
      <trkpt lat="42.0448" lon="0.75069">
        <ele>1589.2</ele>
        <time>2019-01-31T07:48:05Z</time>
      </trkpt>
      <trkpt lat="42.0449" lon="0.75063">
        <ele>1588.2</ele>
        <time>2019-01-31T07:48:11Z</time>
      </trkpt>
      <trkpt lat="42.04501" lon="0.75058">
        <ele>1586.8</ele>
        <time>2019-01-31T07:48:18Z</time>
      </trkpt>
      <trkpt lat="42.04512" lon="0.75052">
        <ele>1586.4</ele>
        <time>2019-01-31T07:48:25Z</time>
      </trkpt>
      <trkpt lat="42.04523" lon="0.75048">
        <ele>1585.5</ele>
        <time>2019-01-31T07:48:32Z</time>
      </trkpt>
      <trkpt lat="42.04534" lon="0.75045">
        <ele>1584.4</ele>
        <time>2019-01-31T07:48:38Z</time>
      </trkpt>
      <trkpt lat="42.04545" lon="0.75042">
        <ele>1584.4</ele>
        <time>2019-01-31T07:48:45Z</time>
      </trkpt>
      <trkpt lat="42.04556" lon="0.75038">
        <ele>1583.5</ele>
        <time>2019-01-31T07:48:51Z</time>
      </trkpt>
      <trkpt lat="42.04567" lon="0.75033">
        <ele>1583.1</ele>
        <time>2019-01-31T07:48:58Z</time>
      </trkpt>
      <trkpt lat="42.04577" lon="0.75029">
        <ele>1582.1</ele>
        <time>2019-01-31T07:49:04Z</time>
      </trkpt>
      <trkpt lat="42.04588" lon="0.75023">
        <ele>1582</ele>
        <time>2019-01-31T07:49:10Z</time>
      </trkpt>
      <trkpt lat="42.04598" lon="0.75017">
        <ele>1582</ele>
        <time>2019-01-31T07:49:17Z</time>
      </trkpt>
      <trkpt lat="42.04607" lon="0.7501">
        <ele>1581.5</ele>
        <time>2019-01-31T07:49:23Z</time>
      </trkpt>
      <trkpt lat="42.04616" lon="0.75003">
        <ele>1580.1</ele>
        <time>2019-01-31T07:49:29Z</time>
      </trkpt>
      <trkpt lat="42.04625" lon="0.74994">
        <ele>1578.1</ele>
        <time>2019-01-31T07:49:35Z</time>
      </trkpt>
      <trkpt lat="42.04632" lon="0.74987">
        <ele>1577.8</ele>
        <time>2019-01-31T07:49:40Z</time>
      </trkpt>
      <trkpt lat="42.0464" lon="0.74977">
        <ele>1576.7</ele>
        <time>2019-01-31T07:49:46Z</time>
      </trkpt>
      <trkpt lat="42.04645" lon="0.74967">
        <ele>1575.4</ele>
        <time>2019-01-31T07:49:52Z</time>
      </trkpt>
      <trkpt lat="42.04649" lon="0.74952">
        <ele>1574.8</ele>
        <time>2019-01-31T07:49:58Z</time>
      </trkpt>
      <trkpt lat="42.04651" lon="0.7494">
        <ele>1574.4</ele>
        <time>2019-01-31T07:50:03Z</time>
      </trkpt>
      <trkpt lat="42.04652" lon="0.74925">
        <ele>1574.4</ele>
        <time>2019-01-31T07:50:10Z</time>
      </trkpt>
      <trkpt lat="42.04653" lon="0.74912">
        <ele>1573.9</ele>
        <time>2019-01-31T07:50:15Z</time>
      </trkpt>
      <trkpt lat="42.04653" lon="0.74899">
        <ele>1573.3</ele>
        <time>2019-01-31T07:50:21Z</time>
      </trkpt>
      <trkpt lat="42.04653" lon="0.74887">
        <ele>1573.3</ele>
        <time>2019-01-31T07:50:26Z</time>
      </trkpt>
      <trkpt lat="42.04652" lon="0.74874">
        <ele>1572.4</ele>
        <time>2019-01-31T07:50:31Z</time>
      </trkpt>
      <trkpt lat="42.04651" lon="0.74861">
        <ele>1571.9</ele>
        <time>2019-01-31T07:50:37Z</time>
      </trkpt>
      <trkpt lat="42.04649" lon="0.74849">
        <ele>1571.4</ele>
        <time>2019-01-31T07:50:42Z</time>
      </trkpt>
      <trkpt lat="42.04648" lon="0.74835">
        <ele>1571.5</ele>
        <time>2019-01-31T07:50:48Z</time>
      </trkpt>
      <trkpt lat="42.04646" lon="0.74821">
        <ele>1571</ele>
        <time>2019-01-31T07:50:54Z</time>
      </trkpt>
      <trkpt lat="42.04645" lon="0.74808">
        <ele>1570.6</ele>
        <time>2019-01-31T07:51:00Z</time>
      </trkpt>
      <trkpt lat="42.04644" lon="0.74795">
        <ele>1570</ele>
        <time>2019-01-31T07:51:05Z</time>
      </trkpt>
      <trkpt lat="42.04644" lon="0.74781">
        <ele>1569.6</ele>
        <time>2019-01-31T07:51:11Z</time>
      </trkpt>
      <trkpt lat="42.04643" lon="0.74766">
        <ele>1568.6</ele>
        <time>2019-01-31T07:51:17Z</time>
      </trkpt>
      <trkpt lat="42.04643" lon="0.74753">
        <ele>1568.5</ele>
        <time>2019-01-31T07:51:23Z</time>
      </trkpt>
      <trkpt lat="42.04643" lon="0.7474">
        <ele>1568.1</ele>
        <time>2019-01-31T07:51:28Z</time>
      </trkpt>
      <trkpt lat="42.04643" lon="0.74728">
        <ele>1567.7</ele>
        <time>2019-01-31T07:51:34Z</time>
      </trkpt>
      <trkpt lat="42.04642" lon="0.74715">
        <ele>1567.6</ele>
        <time>2019-01-31T07:51:39Z</time>
      </trkpt>
      <trkpt lat="42.04642" lon="0.74702">
        <ele>1567.1</ele>
        <time>2019-01-31T07:51:45Z</time>
      </trkpt>
      <trkpt lat="42.04644" lon="0.74689">
        <ele>1566.7</ele>
        <time>2019-01-31T07:51:50Z</time>
      </trkpt>
      <trkpt lat="42.04646" lon="0.74677">
        <ele>1566.6</ele>
        <time>2019-01-31T07:51:56Z</time>
      </trkpt>
      <trkpt lat="42.04649" lon="0.74664">
        <ele>1566.2</ele>
        <time>2019-01-31T07:52:01Z</time>
      </trkpt>
      <trkpt lat="42.04653" lon="0.74652">
        <ele>1565.6</ele>
        <time>2019-01-31T07:52:07Z</time>
      </trkpt>
      <trkpt lat="42.04659" lon="0.74641">
        <ele>1565.6</ele>
        <time>2019-01-31T07:52:12Z</time>
      </trkpt>
      <trkpt lat="42.04665" lon="0.74631">
        <ele>1564.8</ele>
        <time>2019-01-31T07:52:18Z</time>
      </trkpt>
      <trkpt lat="42.04671" lon="0.74621">
        <ele>1563.7</ele>
        <time>2019-01-31T07:52:24Z</time>
      </trkpt>
      <trkpt lat="42.04678" lon="0.74612">
        <ele>1563.2</ele>
        <time>2019-01-31T07:52:29Z</time>
      </trkpt>
      <trkpt lat="42.04685" lon="0.74603">
        <ele>1563.3</ele>
        <time>2019-01-31T07:52:35Z</time>
      </trkpt>
      <trkpt lat="42.04693" lon="0.74593">
        <ele>1561.9</ele>
        <time>2019-01-31T07:52:41Z</time>
      </trkpt>
      <trkpt lat="42.04699" lon="0.74583">
        <ele>1561.3</ele>
        <time>2019-01-31T07:52:46Z</time>
      </trkpt>
      <trkpt lat="42.04705" lon="0.74574">
        <ele>1560.4</ele>
        <time>2019-01-31T07:52:52Z</time>
      </trkpt>
      <trkpt lat="42.04711" lon="0.74565">
        <ele>1559.9</ele>
        <time>2019-01-31T07:52:57Z</time>
      </trkpt>
      <trkpt lat="42.04718" lon="0.74555">
        <ele>1559.5</ele>
        <time>2019-01-31T07:53:02Z</time>
      </trkpt>
      <trkpt lat="42.04725" lon="0.74544">
        <ele>1558.4</ele>
        <time>2019-01-31T07:53:08Z</time>
      </trkpt>
      <trkpt lat="42.04732" lon="0.74535">
        <ele>1557.5</ele>
        <time>2019-01-31T07:53:14Z</time>
      </trkpt>
      <trkpt lat="42.04737" lon="0.74524">
        <ele>1556.6</ele>
        <time>2019-01-31T07:53:20Z</time>
      </trkpt>
      <trkpt lat="42.04743" lon="0.74513">
        <ele>1555.2</ele>
        <time>2019-01-31T07:53:25Z</time>
      </trkpt>
      <trkpt lat="42.04749" lon="0.74502">
        <ele>1554.6</ele>
        <time>2019-01-31T07:53:31Z</time>
      </trkpt>
      <trkpt lat="42.04754" lon="0.7449">
        <ele>1553.3</ele>
        <time>2019-01-31T07:53:37Z</time>
      </trkpt>
      <trkpt lat="42.0476" lon="0.74479">
        <ele>1552.3</ele>
        <time>2019-01-31T07:53:43Z</time>
      </trkpt>
      <trkpt lat="42.04764" lon="0.74467">
        <ele>1551.3</ele>
        <time>2019-01-31T07:53:49Z</time>
      </trkpt>
      <trkpt lat="42.04769" lon="0.74454">
        <ele>1550.7</ele>
        <time>2019-01-31T07:53:54Z</time>
      </trkpt>
      <trkpt lat="42.04774" lon="0.74441">
        <ele>1549.3</ele>
        <time>2019-01-31T07:54:01Z</time>
      </trkpt>
      <trkpt lat="42.04778" lon="0.74429">
        <ele>1548.9</ele>
        <time>2019-01-31T07:54:06Z</time>
      </trkpt>
      <trkpt lat="42.04781" lon="0.74416">
        <ele>1546.9</ele>
        <time>2019-01-31T07:54:12Z</time>
      </trkpt>
      <trkpt lat="42.04784" lon="0.74403">
        <ele>1546</ele>
        <time>2019-01-31T07:54:18Z</time>
      </trkpt>
      <trkpt lat="42.04787" lon="0.7439">
        <ele>1544</ele>
        <time>2019-01-31T07:54:24Z</time>
      </trkpt>
      <trkpt lat="42.0479" lon="0.74377">
        <ele>1543.6</ele>
        <time>2019-01-31T07:54:30Z</time>
      </trkpt>
      <trkpt lat="42.04793" lon="0.74365">
        <ele>1542.7</ele>
        <time>2019-01-31T07:54:35Z</time>
      </trkpt>
      <trkpt lat="42.04796" lon="0.74353">
        <ele>1541.2</ele>
        <time>2019-01-31T07:54:40Z</time>
      </trkpt>
      <trkpt lat="42.04799" lon="0.74339">
        <ele>1540.3</ele>
        <time>2019-01-31T07:54:46Z</time>
      </trkpt>
      <trkpt lat="42.04802" lon="0.74325">
        <ele>1539.7</ele>
        <time>2019-01-31T07:54:53Z</time>
      </trkpt>
      <trkpt lat="42.04805" lon="0.74313">
        <ele>1539.7</ele>
        <time>2019-01-31T07:54:58Z</time>
      </trkpt>
      <trkpt lat="42.04809" lon="0.74299">
        <ele>1538.7</ele>
        <time>2019-01-31T07:55:05Z</time>
      </trkpt>
      <trkpt lat="42.04811" lon="0.74286">
        <ele>1537.8</ele>
        <time>2019-01-31T07:55:10Z</time>
      </trkpt>
      <trkpt lat="42.04812" lon="0.74273">
        <ele>1537.4</ele>
        <time>2019-01-31T07:55:15Z</time>
      </trkpt>
      <trkpt lat="42.04811" lon="0.74259">
        <ele>1536.9</ele>
        <time>2019-01-31T07:55:21Z</time>
      </trkpt>
      <trkpt lat="42.04813" lon="0.74248">
        <ele>1537.9</ele>
        <time>2019-01-31T07:55:26Z</time>
      </trkpt>
      <trkpt lat="42.04798" lon="0.7423">
        <ele>1512.8</ele>
        <time>2019-01-31T07:55:38Z</time>
      </trkpt>
      <trkpt lat="42.0479" lon="0.74244">
        <ele>1511.4</ele>
        <time>2019-01-31T07:55:45Z</time>
      </trkpt>
      <trkpt lat="42.04789" lon="0.74244">
        <ele>1510.8</ele>
        <time>2019-01-31T07:55:45Z</time>
      </trkpt>
      <trkpt lat="42.04784" lon="0.74247">
        <ele>1509</ele>
        <time>2019-01-31T07:55:49Z</time>
      </trkpt>
      <trkpt lat="42.04783" lon="0.74248">
        <ele>1508.4</ele>
        <time>2019-01-31T07:55:49Z</time>
      </trkpt>
      <trkpt lat="42.04774" lon="0.74253">
        <ele>1506</ele>
        <time>2019-01-31T07:55:55Z</time>
      </trkpt>
      <trkpt lat="42.04763" lon="0.74259">
        <ele>1502.8</ele>
        <time>2019-01-31T07:56:02Z</time>
      </trkpt>
      <trkpt lat="42.04753" lon="0.74268">
        <ele>1499.3</ele>
        <time>2019-01-31T07:56:08Z</time>
      </trkpt>
      <trkpt lat="42.04752" lon="0.74269">
        <ele>1499.3</ele>
        <time>2019-01-31T07:56:09Z</time>
      </trkpt>
      <trkpt lat="42.04739" lon="0.74281">
        <ele>1495.6</ele>
        <time>2019-01-31T07:56:18Z</time>
      </trkpt>
      <trkpt lat="42.04732" lon="0.74284">
        <ele>1494.1</ele>
        <time>2019-01-31T07:56:22Z</time>
      </trkpt>
      <trkpt lat="42.04726" lon="0.74285">
        <ele>1492.7</ele>
        <time>2019-01-31T07:56:26Z</time>
      </trkpt>
      <trkpt lat="42.04715" lon="0.74291">
        <ele>1489.2</ele>
        <time>2019-01-31T07:56:32Z</time>
      </trkpt>
      <trkpt lat="42.04702" lon="0.74293">
        <ele>1485.9</ele>
        <time>2019-01-31T07:56:40Z</time>
      </trkpt>
      <trkpt lat="42.04692" lon="0.74297">
        <ele>1483.1</ele>
        <time>2019-01-31T07:56:46Z</time>
      </trkpt>
      <trkpt lat="42.04689" lon="0.74298">
        <ele>1482.1</ele>
        <time>2019-01-31T07:56:48Z</time>
      </trkpt>
      <trkpt lat="42.04678" lon="0.74304">
        <ele>1479.2</ele>
        <time>2019-01-31T07:56:55Z</time>
      </trkpt>
      <trkpt lat="42.04669" lon="0.74306">
        <ele>1476.8</ele>
        <time>2019-01-31T07:57:00Z</time>
      </trkpt>
      <trkpt lat="42.04663" lon="0.7431">
        <ele>1475.4</ele>
        <time>2019-01-31T07:57:04Z</time>
      </trkpt>
      <trkpt lat="42.04661" lon="0.74312">
        <ele>1474.8</ele>
        <time>2019-01-31T07:57:05Z</time>
      </trkpt>
      <trkpt lat="42.04651" lon="0.74324">
        <ele>1473.8</ele>
        <time>2019-01-31T07:57:13Z</time>
      </trkpt>
      <trkpt lat="42.04651" lon="0.74324">
        <ele>1469.5</ele>
        <time>2019-01-31T07:57:13Z</time>
      </trkpt>
      <trkpt lat="42.04651" lon="0.74324">
        <ele>1474.4</ele>
        <time>2019-01-31T07:57:13Z</time>
      </trkpt>
      <trkpt lat="42.04647" lon="0.74332">
        <ele>1474.8</ele>
        <time>2019-01-31T07:57:17Z</time>
      </trkpt>
      <trkpt lat="42.04629" lon="0.74352">
        <ele>1471.5</ele>
        <time>2019-01-31T07:57:30Z</time>
      </trkpt>
      <trkpt lat="42.04593" lon="0.74373">
        <ele>1468.7</ele>
        <time>2019-01-31T07:57:53Z</time>
      </trkpt>
      <trkpt lat="42.0456" lon="0.74388">
        <ele>1466.6</ele>
        <time>2019-01-31T07:58:13Z</time>
      </trkpt>
      <trkpt lat="42.04531" lon="0.74401">
        <ele>1461.9</ele>
        <time>2019-01-31T07:58:30Z</time>
      </trkpt>
      <trkpt lat="42.04494" lon="0.74431">
        <ele>1460.9</ele>
        <time>2019-01-31T07:58:55Z</time>
      </trkpt>
      <trkpt lat="42.04463" lon="0.74467">
        <ele>1458.1</ele>
        <time>2019-01-31T07:59:19Z</time>
      </trkpt>
      <trkpt lat="42.04441" lon="0.74502">
        <ele>1455.7</ele>
        <time>2019-01-31T07:59:38Z</time>
      </trkpt>
      <trkpt lat="42.04429" lon="0.74547">
        <ele>1453.7</ele>
        <time>2019-01-31T07:59:58Z</time>
      </trkpt>
      <trkpt lat="42.04412" lon="0.74599">
        <ele>1451.2</ele>
        <time>2019-01-31T08:00:22Z</time>
      </trkpt>
      <trkpt lat="42.04405" lon="0.74625">
        <ele>1450.4</ele>
        <time>2019-01-31T08:00:34Z</time>
      </trkpt>
      <trkpt lat="42.04401" lon="0.74633">
        <ele>1449.8</ele>
        <time>2019-01-31T08:00:38Z</time>
      </trkpt>
      <trkpt lat="42.04381" lon="0.74668">
        <ele>1446.5</ele>
        <time>2019-01-31T08:00:57Z</time>
      </trkpt>
      <trkpt lat="42.04357" lon="0.74717">
        <ele>1443.2</ele>
        <time>2019-01-31T08:01:22Z</time>
      </trkpt>
      <trkpt lat="42.04337" lon="0.74749">
        <ele>1439.8</ele>
        <time>2019-01-31T08:01:40Z</time>
      </trkpt>
      <trkpt lat="42.04322" lon="0.74779">
        <ele>1436.9</ele>
        <time>2019-01-31T08:01:55Z</time>
      </trkpt>
      <trkpt lat="42.043" lon="0.74816">
        <ele>1433.6</ele>
        <time>2019-01-31T08:02:15Z</time>
      </trkpt>
      <trkpt lat="42.04286" lon="0.74859">
        <ele>1430.6</ele>
        <time>2019-01-31T08:02:35Z</time>
      </trkpt>
      <trkpt lat="42.04266" lon="0.74904">
        <ele>1427.8</ele>
        <time>2019-01-31T08:02:57Z</time>
      </trkpt>
      <trkpt lat="42.04245" lon="0.7495">
        <ele>1424.3</ele>
        <time>2019-01-31T08:03:20Z</time>
      </trkpt>
      <trkpt lat="42.04231" lon="0.74969">
        <ele>1422.9</ele>
        <time>2019-01-31T08:03:32Z</time>
      </trkpt>
      <trkpt lat="42.04227" lon="0.74976">
        <ele>1421.4</ele>
        <time>2019-01-31T08:03:36Z</time>
      </trkpt>
      <trkpt lat="42.04208" lon="0.75002">
        <ele>1418.6</ele>
        <time>2019-01-31T08:03:51Z</time>
      </trkpt>
      <trkpt lat="42.04188" lon="0.75025">
        <ele>1415.8</ele>
        <time>2019-01-31T08:04:06Z</time>
      </trkpt>
      <trkpt lat="42.04163" lon="0.75055">
        <ele>1412.4</ele>
        <time>2019-01-31T08:04:25Z</time>
      </trkpt>
      <trkpt lat="42.04161" lon="0.75058">
        <ele>1412.4</ele>
        <time>2019-01-31T08:04:27Z</time>
      </trkpt>
      <trkpt lat="42.04145" lon="0.75096">
        <ele>1410.4</ele>
        <time>2019-01-31T08:04:45Z</time>
      </trkpt>
      <trkpt lat="42.04124" lon="0.75119">
        <ele>1408.5</ele>
        <time>2019-01-31T08:05:01Z</time>
      </trkpt>
      <trkpt lat="42.04097" lon="0.75138">
        <ele>1404.7</ele>
        <time>2019-01-31T08:05:18Z</time>
      </trkpt>
      <trkpt lat="42.04067" lon="0.75183">
        <ele>1401.3</ele>
        <time>2019-01-31T08:05:44Z</time>
      </trkpt>
      <trkpt lat="42.04065" lon="0.75184">
        <ele>1401.3</ele>
        <time>2019-01-31T08:05:45Z</time>
      </trkpt>
      <trkpt lat="42.04038" lon="0.75202">
        <ele>1397.5</ele>
        <time>2019-01-31T08:06:02Z</time>
      </trkpt>
      <trkpt lat="42.04014" lon="0.75227">
        <ele>1394.5</ele>
        <time>2019-01-31T08:06:20Z</time>
      </trkpt>
      <trkpt lat="42.04011" lon="0.75231">
        <ele>1393.6</ele>
        <time>2019-01-31T08:06:22Z</time>
      </trkpt>
      <trkpt lat="42.0398" lon="0.75254">
        <ele>1391.3</ele>
        <time>2019-01-31T08:06:42Z</time>
      </trkpt>
      <trkpt lat="42.03944" lon="0.75266">
        <ele>1387.8</ele>
        <time>2019-01-31T08:07:03Z</time>
      </trkpt>
      <trkpt lat="42.03908" lon="0.75275">
        <ele>1384.5</ele>
        <time>2019-01-31T08:07:25Z</time>
      </trkpt>
      <trkpt lat="42.03906" lon="0.75278">
        <ele>1384.4</ele>
        <time>2019-01-31T08:07:26Z</time>
      </trkpt>
      <trkpt lat="42.03896" lon="0.75288">
        <ele>1383.5</ele>
        <time>2019-01-31T08:07:33Z</time>
      </trkpt>
      <trkpt lat="42.03885" lon="0.7533">
        <ele>1380.1</ele>
        <time>2019-01-31T08:07:52Z</time>
      </trkpt>
      <trkpt lat="42.03861" lon="0.75355">
        <ele>1376.8</ele>
        <time>2019-01-31T08:08:10Z</time>
      </trkpt>
      <trkpt lat="42.0384" lon="0.75382">
        <ele>1374.3</ele>
        <time>2019-01-31T08:08:26Z</time>
      </trkpt>
      <trkpt lat="42.03826" lon="0.75412">
        <ele>1371</ele>
        <time>2019-01-31T08:08:41Z</time>
      </trkpt>
      <trkpt lat="42.03825" lon="0.75415">
        <ele>1371</ele>
        <time>2019-01-31T08:08:43Z</time>
      </trkpt>
      <trkpt lat="42.03814" lon="0.7545">
        <ele>1368.1</ele>
        <time>2019-01-31T08:08:59Z</time>
      </trkpt>
      <trkpt lat="42.03799" lon="0.75485">
        <ele>1364.7</ele>
        <time>2019-01-31T08:09:16Z</time>
      </trkpt>
      <trkpt lat="42.03797" lon="0.75488">
        <ele>1364.3</ele>
        <time>2019-01-31T08:09:17Z</time>
      </trkpt>
      <trkpt lat="42.0379" lon="0.75529">
        <ele>1360.9</ele>
        <time>2019-01-31T08:09:36Z</time>
      </trkpt>
      <trkpt lat="42.03786" lon="0.75577">
        <ele>1358.1</ele>
        <time>2019-01-31T08:09:56Z</time>
      </trkpt>
      <trkpt lat="42.03791" lon="0.75611">
        <ele>1355.6</ele>
        <time>2019-01-31T08:10:11Z</time>
      </trkpt>
      <trkpt lat="42.03799" lon="0.75635">
        <ele>1353.8</ele>
        <time>2019-01-31T08:10:22Z</time>
      </trkpt>
      <trkpt lat="42.03795" lon="0.75642">
        <ele>1352.8</ele>
        <time>2019-01-31T08:10:26Z</time>
      </trkpt>
      <trkpt lat="42.0379" lon="0.75643">
        <ele>1352.3</ele>
        <time>2019-01-31T08:10:28Z</time>
      </trkpt>
      <trkpt lat="42.03774" lon="0.75614">
        <ele>1349.8</ele>
        <time>2019-01-31T08:10:43Z</time>
      </trkpt>
      <trkpt lat="42.03773" lon="0.7561">
        <ele>1349.8</ele>
        <time>2019-01-31T08:10:45Z</time>
      </trkpt>
      <trkpt lat="42.03756" lon="0.75573">
        <ele>1346.5</ele>
        <time>2019-01-31T08:11:04Z</time>
      </trkpt>
      <trkpt lat="42.03746" lon="0.75537">
        <ele>1343.1</ele>
        <time>2019-01-31T08:11:20Z</time>
      </trkpt>
      <trkpt lat="42.03746" lon="0.75506">
        <ele>1342.6</ele>
        <time>2019-01-31T08:11:33Z</time>
      </trkpt>
      <trkpt lat="42.03752" lon="0.7548">
        <ele>1342.2</ele>
        <time>2019-01-31T08:11:45Z</time>
      </trkpt>
      <trkpt lat="42.03756" lon="0.7547">
        <ele>1338.4</ele>
        <time>2019-01-31T08:11:50Z</time>
      </trkpt>
      <trkpt lat="42.03757" lon="0.75469">
        <ele>1338.4</ele>
        <time>2019-01-31T08:11:50Z</time>
      </trkpt>
      <trkpt lat="42.03757" lon="0.75466">
        <ele>1345.1</ele>
        <time>2019-01-31T08:11:51Z</time>
      </trkpt>
      <trkpt lat="42.03757" lon="0.75465">
        <ele>1343.2</ele>
        <time>2019-01-31T08:11:52Z</time>
      </trkpt>
      <trkpt lat="42.03757" lon="0.75458">
        <ele>1342.2</ele>
        <time>2019-01-31T08:11:55Z</time>
      </trkpt>
      <trkpt lat="42.03755" lon="0.7545">
        <ele>1341.7</ele>
        <time>2019-01-31T08:11:58Z</time>
      </trkpt>
      <trkpt lat="42.03751" lon="0.75449">
        <ele>1340.8</ele>
        <time>2019-01-31T08:12:01Z</time>
      </trkpt>
      <trkpt lat="42.03744" lon="0.75457">
        <ele>1340.3</ele>
        <time>2019-01-31T08:12:06Z</time>
      </trkpt>
      <trkpt lat="42.03739" lon="0.75505">
        <ele>1338.9</ele>
        <time>2019-01-31T08:12:27Z</time>
      </trkpt>
      <trkpt lat="42.03729" lon="0.75547">
        <ele>1335.4</ele>
        <time>2019-01-31T08:12:46Z</time>
      </trkpt>
      <trkpt lat="42.0372" lon="0.75595">
        <ele>1333</ele>
        <time>2019-01-31T08:13:07Z</time>
      </trkpt>
      <trkpt lat="42.03721" lon="0.75637">
        <ele>1329.7</ele>
        <time>2019-01-31T08:13:24Z</time>
      </trkpt>
      <trkpt lat="42.03722" lon="0.75639">
        <ele>1330.1</ele>
        <time>2019-01-31T08:13:26Z</time>
      </trkpt>
      <trkpt lat="42.03725" lon="0.75651">
        <ele>1329.3</ele>
        <time>2019-01-31T08:13:31Z</time>
      </trkpt>
      <trkpt lat="42.03725" lon="0.75653">
        <ele>1329.6</ele>
        <time>2019-01-31T08:13:32Z</time>
      </trkpt>
      <trkpt lat="42.03723" lon="0.7566">
        <ele>1329.3</ele>
        <time>2019-01-31T08:13:35Z</time>
      </trkpt>
      <trkpt lat="42.03716" lon="0.75681">
        <ele>1329.2</ele>
        <time>2019-01-31T08:13:45Z</time>
      </trkpt>
      <trkpt lat="42.0371" lon="0.75695">
        <ele>1329.7</ele>
        <time>2019-01-31T08:13:51Z</time>
      </trkpt>
      <trkpt lat="42.03699" lon="0.75718">
        <ele>1329.7</ele>
        <time>2019-01-31T08:14:03Z</time>
      </trkpt>
      <trkpt lat="42.03683" lon="0.75742">
        <ele>1326.9</ele>
        <time>2019-01-31T08:14:17Z</time>
      </trkpt>
      <trkpt lat="42.03662" lon="0.75777">
        <ele>1323.5</ele>
        <time>2019-01-31T08:14:36Z</time>
      </trkpt>
      <trkpt lat="42.03649" lon="0.75796">
        <ele>1320</ele>
        <time>2019-01-31T08:14:47Z</time>
      </trkpt>
      <trkpt lat="42.03641" lon="0.75805">
        <ele>1318.6</ele>
        <time>2019-01-31T08:14:53Z</time>
      </trkpt>
      <trkpt lat="42.03623" lon="0.75829">
        <ele>1315.7</ele>
        <time>2019-01-31T08:15:08Z</time>
      </trkpt>
      <trkpt lat="42.03604" lon="0.75855">
        <ele>1312.3</ele>
        <time>2019-01-31T08:15:23Z</time>
      </trkpt>
      <trkpt lat="42.03584" lon="0.75888">
        <ele>1308.6</ele>
        <time>2019-01-31T08:15:41Z</time>
      </trkpt>
      <trkpt lat="42.03569" lon="0.75931">
        <ele>1305.7</ele>
        <time>2019-01-31T08:16:01Z</time>
      </trkpt>
      <trkpt lat="42.03569" lon="0.75936">
        <ele>1305.1</ele>
        <time>2019-01-31T08:16:03Z</time>
      </trkpt>
      <trkpt lat="42.03564" lon="0.75976">
        <ele>1302.3</ele>
        <time>2019-01-31T08:16:20Z</time>
      </trkpt>
      <trkpt lat="42.03561" lon="0.76024">
        <ele>1299</ele>
        <time>2019-01-31T08:16:41Z</time>
      </trkpt>
      <trkpt lat="42.03568" lon="0.76054">
        <ele>1299.5</ele>
        <time>2019-01-31T08:16:54Z</time>
      </trkpt>
      <trkpt lat="42.03564" lon="0.76066">
        <ele>1298.5</ele>
        <time>2019-01-31T08:17:00Z</time>
      </trkpt>
      <trkpt lat="42.03564" lon="0.76068">
        <ele>1298.4</ele>
        <time>2019-01-31T08:17:01Z</time>
      </trkpt>
      <trkpt lat="42.03543" lon="0.76085">
        <ele>1298.4</ele>
        <time>2019-01-31T08:17:14Z</time>
      </trkpt>
      <trkpt lat="42.03519" lon="0.76094">
        <ele>1295</ele>
        <time>2019-01-31T08:17:28Z</time>
      </trkpt>
      <trkpt lat="42.03497" lon="0.76105">
        <ele>1292.7</ele>
        <time>2019-01-31T08:17:42Z</time>
      </trkpt>
      <trkpt lat="42.03487" lon="0.76125">
        <ele>1290.3</ele>
        <time>2019-01-31T08:17:52Z</time>
      </trkpt>
      <trkpt lat="42.03488" lon="0.76122">
        <ele>1290.8</ele>
        <time>2019-01-31T08:17:54Z</time>
      </trkpt>
      <trkpt lat="42.03493" lon="0.76115">
        <ele>1292.2</ele>
        <time>2019-01-31T08:17:58Z</time>
      </trkpt>
      <trkpt lat="42.03503" lon="0.76099">
        <ele>1293.7</ele>
        <time>2019-01-31T08:18:07Z</time>
      </trkpt>
      <trkpt lat="42.03494" lon="0.76094">
        <ele>1292.6</ele>
        <time>2019-01-31T08:18:12Z</time>
      </trkpt>
      <trkpt lat="42.03476" lon="0.76097">
        <ele>1289.3</ele>
        <time>2019-01-31T08:18:22Z</time>
      </trkpt>
      <trkpt lat="42.03461" lon="0.76103">
        <ele>1287.4</ele>
        <time>2019-01-31T08:18:31Z</time>
      </trkpt>
      <trkpt lat="42.03459" lon="0.76105">
        <ele>1286.4</ele>
        <time>2019-01-31T08:18:33Z</time>
      </trkpt>
      <trkpt lat="42.03444" lon="0.76101">
        <ele>1282.6</ele>
        <time>2019-01-31T08:18:41Z</time>
      </trkpt>
      <trkpt lat="42.03442" lon="0.761">
        <ele>1282.5</ele>
        <time>2019-01-31T08:18:42Z</time>
      </trkpt>
      <trkpt lat="42.0344" lon="0.76098">
        <ele>1281.6</ele>
        <time>2019-01-31T08:18:44Z</time>
      </trkpt>
      <trkpt lat="42.03425" lon="0.76086">
        <ele>1278.3</ele>
        <time>2019-01-31T08:18:54Z</time>
      </trkpt>
      <trkpt lat="42.03416" lon="0.76079">
        <ele>1276.3</ele>
        <time>2019-01-31T08:19:00Z</time>
      </trkpt>
      <trkpt lat="42.03404" lon="0.76075">
        <ele>1273.4</ele>
        <time>2019-01-31T08:19:07Z</time>
      </trkpt>
      <trkpt lat="42.03402" lon="0.76073">
        <ele>1272.5</ele>
        <time>2019-01-31T08:19:08Z</time>
      </trkpt>
      <trkpt lat="42.03393" lon="0.76084">
        <ele>1269.7</ele>
        <time>2019-01-31T08:19:15Z</time>
      </trkpt>
      <trkpt lat="42.03388" lon="0.7608">
        <ele>1268.2</ele>
        <time>2019-01-31T08:19:19Z</time>
      </trkpt>
      <trkpt lat="42.03368" lon="0.76084">
        <ele>1266.2</ele>
        <time>2019-01-31T08:19:30Z</time>
      </trkpt>
      <trkpt lat="42.03368" lon="0.76083">
        <ele>1266.3</ele>
        <time>2019-01-31T08:19:31Z</time>
      </trkpt>
      <trkpt lat="42.03358" lon="0.76067">
        <ele>1267.7</ele>
        <time>2019-01-31T08:19:39Z</time>
      </trkpt>
      <trkpt lat="42.03358" lon="0.7606">
        <ele>1268.2</ele>
        <time>2019-01-31T08:19:42Z</time>
      </trkpt>
      <trkpt lat="42.03356" lon="0.76047">
        <ele>1269.1</ele>
        <time>2019-01-31T08:19:48Z</time>
      </trkpt>
      <trkpt lat="42.03358" lon="0.76037">
        <ele>1269.6</ele>
        <time>2019-01-31T08:19:52Z</time>
      </trkpt>
      <trkpt lat="42.03358" lon="0.76023">
        <ele>1269.6</ele>
        <time>2019-01-31T08:19:58Z</time>
      </trkpt>
      <trkpt lat="42.03354" lon="0.76016">
        <ele>1270</ele>
        <time>2019-01-31T08:20:02Z</time>
      </trkpt>
      <trkpt lat="42.03351" lon="0.76012">
        <ele>1270</ele>
        <time>2019-01-31T08:20:04Z</time>
      </trkpt>
      <trkpt lat="42.03346" lon="0.76">
        <ele>1272</ele>
        <time>2019-01-31T08:20:10Z</time>
      </trkpt>
      <trkpt lat="42.03333" lon="0.75988">
        <ele>1273.5</ele>
        <time>2019-01-31T08:20:20Z</time>
      </trkpt>
      <trkpt lat="42.03332" lon="0.75988">
        <ele>1274</ele>
        <time>2019-01-31T08:20:20Z</time>
      </trkpt>
      <trkpt lat="42.03325" lon="0.75997">
        <ele>1274.4</ele>
        <time>2019-01-31T08:20:26Z</time>
      </trkpt>
      <trkpt lat="42.03311" lon="0.75991">
        <ele>1273.9</ele>
        <time>2019-01-31T08:20:34Z</time>
      </trkpt>
      <trkpt lat="42.03302" lon="0.75982">
        <ele>1276.4</ele>
        <time>2019-01-31T08:20:41Z</time>
      </trkpt>
      <trkpt lat="42.03286" lon="0.75971">
        <ele>1278.2</ele>
        <time>2019-01-31T08:20:51Z</time>
      </trkpt>
      <trkpt lat="42.03281" lon="0.75969">
        <ele>1278.7</ele>
        <time>2019-01-31T08:20:54Z</time>
      </trkpt>
      <trkpt lat="42.03278" lon="0.75965">
        <ele>1279.2</ele>
        <time>2019-01-31T08:20:56Z</time>
      </trkpt>
      <trkpt lat="42.0328" lon="0.75975">
        <ele>1280.2</ele>
        <time>2019-01-31T08:21:00Z</time>
      </trkpt>
      <trkpt lat="42.03277" lon="0.75978">
        <ele>1280.6</ele>
        <time>2019-01-31T08:21:02Z</time>
      </trkpt>
      <trkpt lat="42.03259" lon="0.75973">
        <ele>1282.6</ele>
        <time>2019-01-31T08:21:13Z</time>
      </trkpt>
      <trkpt lat="42.03246" lon="0.75964">
        <ele>1284.5</ele>
        <time>2019-01-31T08:21:21Z</time>
      </trkpt>
      <trkpt lat="42.03244" lon="0.75963">
        <ele>1284.9</ele>
        <time>2019-01-31T08:21:22Z</time>
      </trkpt>
      <trkpt lat="42.03241" lon="0.75962">
        <ele>1285.4</ele>
        <time>2019-01-31T08:21:24Z</time>
      </trkpt>
      <trkpt lat="42.03234" lon="0.75962">
        <ele>1286.4</ele>
        <time>2019-01-31T08:21:28Z</time>
      </trkpt>
      <trkpt lat="42.03229" lon="0.75954">
        <ele>1287.4</ele>
        <time>2019-01-31T08:21:33Z</time>
      </trkpt>
      <trkpt lat="42.03222" lon="0.75944">
        <ele>1287.8</ele>
        <time>2019-01-31T08:21:39Z</time>
      </trkpt>
      <trkpt lat="42.03218" lon="0.75943">
        <ele>1288.3</ele>
        <time>2019-01-31T08:21:41Z</time>
      </trkpt>
      <trkpt lat="42.03205" lon="0.7594">
        <ele>1290.7</ele>
        <time>2019-01-31T08:21:49Z</time>
      </trkpt>
      <trkpt lat="42.03202" lon="0.75938">
        <ele>1291.2</ele>
        <time>2019-01-31T08:21:50Z</time>
      </trkpt>
      <trkpt lat="42.03183" lon="0.75925">
        <ele>1288.3</ele>
        <time>2019-01-31T08:22:03Z</time>
      </trkpt>
      <trkpt lat="42.0318" lon="0.75924">
        <ele>1287.9</ele>
        <time>2019-01-31T08:22:04Z</time>
      </trkpt>
      <trkpt lat="42.03177" lon="0.75918">
        <ele>1287</ele>
        <time>2019-01-31T08:22:07Z</time>
      </trkpt>
      <trkpt lat="42.03168" lon="0.75912">
        <ele>1284.5</ele>
        <time>2019-01-31T08:22:13Z</time>
      </trkpt>
      <trkpt lat="42.03166" lon="0.7591">
        <ele>1284.1</ele>
        <time>2019-01-31T08:22:14Z</time>
      </trkpt>
      <trkpt lat="42.03138" lon="0.75899">
        <ele>1281.1</ele>
        <time>2019-01-31T08:22:31Z</time>
      </trkpt>
      <trkpt lat="42.03122" lon="0.75907">
        <ele>1278.2</ele>
        <time>2019-01-31T08:22:41Z</time>
      </trkpt>
      <trkpt lat="42.03113" lon="0.75915">
        <ele>1276.9</ele>
        <time>2019-01-31T08:22:47Z</time>
      </trkpt>
      <trkpt lat="42.03098" lon="0.75926">
        <ele>1274</ele>
        <time>2019-01-31T08:22:57Z</time>
      </trkpt>
      <trkpt lat="42.03086" lon="0.75962">
        <ele>1271.1</ele>
        <time>2019-01-31T08:23:14Z</time>
      </trkpt>
      <trkpt lat="42.03076" lon="0.7597">
        <ele>1267.2</ele>
        <time>2019-01-31T08:23:20Z</time>
      </trkpt>
      <trkpt lat="42.03066" lon="0.75974">
        <ele>1264.3</ele>
        <time>2019-01-31T08:23:26Z</time>
      </trkpt>
      <trkpt lat="42.0306" lon="0.75976">
        <ele>1261.9</ele>
        <time>2019-01-31T08:23:29Z</time>
      </trkpt>
      <trkpt lat="42.03055" lon="0.75968">
        <ele>1259.6</ele>
        <time>2019-01-31T08:23:34Z</time>
      </trkpt>
      <trkpt lat="42.03049" lon="0.75965">
        <ele>1257.2</ele>
        <time>2019-01-31T08:23:37Z</time>
      </trkpt>
      <trkpt lat="42.03046" lon="0.7597">
        <ele>1255.6</ele>
        <time>2019-01-31T08:23:40Z</time>
      </trkpt>
      <trkpt lat="42.03041" lon="0.75969">
        <ele>1253.3</ele>
        <time>2019-01-31T08:23:43Z</time>
      </trkpt>
      <trkpt lat="42.0304" lon="0.75957">
        <ele>1250.8</ele>
        <time>2019-01-31T08:23:48Z</time>
      </trkpt>
      <trkpt lat="42.03037" lon="0.75945">
        <ele>1247.9</ele>
        <time>2019-01-31T08:23:53Z</time>
      </trkpt>
      <trkpt lat="42.03034" lon="0.75953">
        <ele>1247.4</ele>
        <time>2019-01-31T08:23:57Z</time>
      </trkpt>
      <trkpt lat="42.03026" lon="0.75962">
        <ele>1245.1</ele>
        <time>2019-01-31T08:24:03Z</time>
      </trkpt>
      <trkpt lat="42.03016" lon="0.7598">
        <ele>1242.3</ele>
        <time>2019-01-31T08:24:13Z</time>
      </trkpt>
      <trkpt lat="42.03007" lon="0.75985">
        <ele>1238.8</ele>
        <time>2019-01-31T08:24:18Z</time>
      </trkpt>
      <trkpt lat="42.03001" lon="0.75989">
        <ele>1237.4</ele>
        <time>2019-01-31T08:24:22Z</time>
      </trkpt>
      <trkpt lat="42.02993" lon="0.75993">
        <ele>1234.6</ele>
        <time>2019-01-31T08:24:27Z</time>
      </trkpt>
      <trkpt lat="42.0299" lon="0.76001">
        <ele>1233</ele>
        <time>2019-01-31T08:24:31Z</time>
      </trkpt>
      <trkpt lat="42.02989" lon="0.76007">
        <ele>1231.7</ele>
        <time>2019-01-31T08:24:33Z</time>
      </trkpt>
      <trkpt lat="42.02991" lon="0.76015">
        <ele>1231.2</ele>
        <time>2019-01-31T08:24:37Z</time>
      </trkpt>
      <trkpt lat="42.02989" lon="0.76044">
        <ele>1227.7</ele>
        <time>2019-01-31T08:24:49Z</time>
      </trkpt>
      <trkpt lat="42.02987" lon="0.76045">
        <ele>1227.3</ele>
        <time>2019-01-31T08:24:50Z</time>
      </trkpt>
      <trkpt lat="42.02982" lon="0.76044">
        <ele>1225.4</ele>
        <time>2019-01-31T08:24:53Z</time>
      </trkpt>
      <trkpt lat="42.02979" lon="0.76036">
        <ele>1221.1</ele>
        <time>2019-01-31T08:24:57Z</time>
      </trkpt>
      <trkpt lat="42.02977" lon="0.76038">
        <ele>1221.1</ele>
        <time>2019-01-31T08:24:58Z</time>
      </trkpt>
      <trkpt lat="42.02975" lon="0.76044">
        <ele>1220.5</ele>
        <time>2019-01-31T08:25:01Z</time>
      </trkpt>
      <trkpt lat="42.02973" lon="0.7606">
        <ele>1220.1</ele>
        <time>2019-01-31T08:25:08Z</time>
      </trkpt>
      <trkpt lat="42.02962" lon="0.76077">
        <ele>1217.2</ele>
        <time>2019-01-31T08:25:17Z</time>
      </trkpt>
      <trkpt lat="42.02955" lon="0.7609">
        <ele>1213.8</ele>
        <time>2019-01-31T08:25:24Z</time>
      </trkpt>
      <trkpt lat="42.02954" lon="0.76092">
        <ele>1213.3</ele>
        <time>2019-01-31T08:25:25Z</time>
      </trkpt>
      <trkpt lat="42.02949" lon="0.76105">
        <ele>1210.4</ele>
        <time>2019-01-31T08:25:31Z</time>
      </trkpt>
      <trkpt lat="42.02947" lon="0.76111">
        <ele>1209.5</ele>
        <time>2019-01-31T08:25:34Z</time>
      </trkpt>
      <trkpt lat="42.0294" lon="0.76125">
        <ele>1206.6</ele>
        <time>2019-01-31T08:25:41Z</time>
      </trkpt>
      <trkpt lat="42.0294" lon="0.76125">
        <ele>1205.7</ele>
        <time>2019-01-31T08:25:42Z</time>
      </trkpt>
      <trkpt lat="42.02936" lon="0.76118">
        <ele>1202.8</ele>
        <time>2019-01-31T08:25:45Z</time>
      </trkpt>
      <trkpt lat="42.02926" lon="0.76136">
        <ele>1199.4</ele>
        <time>2019-01-31T08:25:55Z</time>
      </trkpt>
      <trkpt lat="42.02924" lon="0.76142">
        <ele>1198.5</ele>
        <time>2019-01-31T08:25:58Z</time>
      </trkpt>
      <trkpt lat="42.02921" lon="0.76164">
        <ele>1194.6</ele>
        <time>2019-01-31T08:26:07Z</time>
      </trkpt>
      <trkpt lat="42.0292" lon="0.76167">
        <ele>1194.6</ele>
        <time>2019-01-31T08:26:09Z</time>
      </trkpt>
      <trkpt lat="42.02918" lon="0.7617">
        <ele>1193.6</ele>
        <time>2019-01-31T08:26:10Z</time>
      </trkpt>
      <trkpt lat="42.0291" lon="0.76171">
        <ele>1190.8</ele>
        <time>2019-01-31T08:26:15Z</time>
      </trkpt>
      <trkpt lat="42.02899" lon="0.76184">
        <ele>1186.5</ele>
        <time>2019-01-31T08:26:23Z</time>
      </trkpt>
      <trkpt lat="42.02895" lon="0.76189">
        <ele>1185.4</ele>
        <time>2019-01-31T08:26:27Z</time>
      </trkpt>
      <trkpt lat="42.02892" lon="0.7617">
        <ele>1181.7</ele>
        <time>2019-01-31T08:26:35Z</time>
      </trkpt>
      <trkpt lat="42.02892" lon="0.76168">
        <ele>1181.7</ele>
        <time>2019-01-31T08:26:35Z</time>
      </trkpt>
      <trkpt lat="42.02888" lon="0.76178">
        <ele>1179.2</ele>
        <time>2019-01-31T08:26:40Z</time>
      </trkpt>
      <trkpt lat="42.02881" lon="0.76197">
        <ele>1176.8</ele>
        <time>2019-01-31T08:26:49Z</time>
      </trkpt>
      <trkpt lat="42.02876" lon="0.76201">
        <ele>1175.4</ele>
        <time>2019-01-31T08:26:53Z</time>
      </trkpt>
      <trkpt lat="42.02871" lon="0.76206">
        <ele>1173.5</ele>
        <time>2019-01-31T08:26:56Z</time>
      </trkpt>
      <trkpt lat="42.02867" lon="0.76214">
        <ele>1172</ele>
        <time>2019-01-31T08:27:00Z</time>
      </trkpt>
      <trkpt lat="42.0286" lon="0.76222">
        <ele>1169.1</ele>
        <time>2019-01-31T08:27:06Z</time>
      </trkpt>
      <trkpt lat="42.02851" lon="0.76226">
        <ele>1166.2</ele>
        <time>2019-01-31T08:27:11Z</time>
      </trkpt>
      <trkpt lat="42.02844" lon="0.76232">
        <ele>1164.4</ele>
        <time>2019-01-31T08:27:16Z</time>
      </trkpt>
      <trkpt lat="42.02832" lon="0.76245">
        <ele>1160.4</ele>
        <time>2019-01-31T08:27:24Z</time>
      </trkpt>
      <trkpt lat="42.02831" lon="0.76247">
        <ele>1160.5</ele>
        <time>2019-01-31T08:27:26Z</time>
      </trkpt>
      <trkpt lat="42.02827" lon="0.76256">
        <ele>1159.1</ele>
        <time>2019-01-31T08:27:30Z</time>
      </trkpt>
      <trkpt lat="42.02826" lon="0.7626">
        <ele>1158.6</ele>
        <time>2019-01-31T08:27:32Z</time>
      </trkpt>
      <trkpt lat="42.02826" lon="0.76266">
        <ele>1156.7</ele>
        <time>2019-01-31T08:27:34Z</time>
      </trkpt>
      <trkpt lat="42.02822" lon="0.76277">
        <ele>1154.3</ele>
        <time>2019-01-31T08:27:39Z</time>
      </trkpt>
      <trkpt lat="42.0282" lon="0.76273">
        <ele>1153.2</ele>
        <time>2019-01-31T08:27:41Z</time>
      </trkpt>
      <trkpt lat="42.02819" lon="0.76267">
        <ele>1151.8</ele>
        <time>2019-01-31T08:27:44Z</time>
      </trkpt>
      <trkpt lat="42.02818" lon="0.76263">
        <ele>1150.8</ele>
        <time>2019-01-31T08:27:46Z</time>
      </trkpt>
      <trkpt lat="42.02817" lon="0.76265">
        <ele>1150.4</ele>
        <time>2019-01-31T08:27:47Z</time>
      </trkpt>
      <trkpt lat="42.02814" lon="0.76276">
        <ele>1148.4</ele>
        <time>2019-01-31T08:27:51Z</time>
      </trkpt>
      <trkpt lat="42.02804" lon="0.76296">
        <ele>1145.5</ele>
        <time>2019-01-31T08:28:02Z</time>
      </trkpt>
      <trkpt lat="42.02798" lon="0.763">
        <ele>1144.1</ele>
        <time>2019-01-31T08:28:05Z</time>
      </trkpt>
      <trkpt lat="42.02796" lon="0.76303">
        <ele>1141.8</ele>
        <time>2019-01-31T08:28:08Z</time>
      </trkpt>
      <trkpt lat="42.02795" lon="0.76298">
        <ele>1140.7</ele>
        <time>2019-01-31T08:28:10Z</time>
      </trkpt>
      <trkpt lat="42.0279" lon="0.76296">
        <ele>1138.8</ele>
        <time>2019-01-31T08:28:13Z</time>
      </trkpt>
      <trkpt lat="42.02796" lon="0.76278">
        <ele>1135</ele>
        <time>2019-01-31T08:28:21Z</time>
      </trkpt>
      <trkpt lat="42.02792" lon="0.76265">
        <ele>1131.7</ele>
        <time>2019-01-31T08:28:27Z</time>
      </trkpt>
      <trkpt lat="42.02791" lon="0.76261">
        <ele>1130.6</ele>
        <time>2019-01-31T08:28:29Z</time>
      </trkpt>
      <trkpt lat="42.0279" lon="0.76254">
        <ele>1127.9</ele>
        <time>2019-01-31T08:28:32Z</time>
      </trkpt>
      <trkpt lat="42.02783" lon="0.76274">
        <ele>1126.8</ele>
        <time>2019-01-31T08:28:41Z</time>
      </trkpt>
      <trkpt lat="42.0277" lon="0.76282">
        <ele>1123</ele>
        <time>2019-01-31T08:28:49Z</time>
      </trkpt>
      <trkpt lat="42.02759" lon="0.76309">
        <ele>1120.6</ele>
        <time>2019-01-31T08:29:02Z</time>
      </trkpt>
      <trkpt lat="42.02757" lon="0.76314">
        <ele>1119.6</ele>
        <time>2019-01-31T08:29:05Z</time>
      </trkpt>
      <trkpt lat="42.02757" lon="0.76308">
        <ele>1118.6</ele>
        <time>2019-01-31T08:29:07Z</time>
      </trkpt>
      <trkpt lat="42.02757" lon="0.76298">
        <ele>1117.7</ele>
        <time>2019-01-31T08:29:12Z</time>
      </trkpt>
      <trkpt lat="42.02762" lon="0.76271">
        <ele>1114.4</ele>
        <time>2019-01-31T08:29:23Z</time>
      </trkpt>
      <trkpt lat="42.02764" lon="0.7626">
        <ele>1111.5</ele>
        <time>2019-01-31T08:29:29Z</time>
      </trkpt>
      <trkpt lat="42.02764" lon="0.76252">
        <ele>1110</ele>
        <time>2019-01-31T08:29:32Z</time>
      </trkpt>
      <trkpt lat="42.02763" lon="0.76243">
        <ele>1108.1</ele>
        <time>2019-01-31T08:29:36Z</time>
      </trkpt>
      <trkpt lat="42.02763" lon="0.76242">
        <ele>1107.1</ele>
        <time>2019-01-31T08:29:36Z</time>
      </trkpt>
      <trkpt lat="42.02765" lon="0.76231">
        <ele>1105.3</ele>
        <time>2019-01-31T08:29:41Z</time>
      </trkpt>
      <trkpt lat="42.02765" lon="0.76218">
        <ele>1103.3</ele>
        <time>2019-01-31T08:29:47Z</time>
      </trkpt>
      <trkpt lat="42.02766" lon="0.76212">
        <ele>1102.3</ele>
        <time>2019-01-31T08:29:49Z</time>
      </trkpt>
      <trkpt lat="42.02764" lon="0.76214">
        <ele>1101.3</ele>
        <time>2019-01-31T08:29:50Z</time>
      </trkpt>
      <trkpt lat="42.02755" lon="0.76227">
        <ele>1098.4</ele>
        <time>2019-01-31T08:29:58Z</time>
      </trkpt>
      <trkpt lat="42.02751" lon="0.76227">
        <ele>1098</ele>
        <time>2019-01-31T08:30:00Z</time>
      </trkpt>
      <trkpt lat="42.02749" lon="0.76225">
        <ele>1095.1</ele>
        <time>2019-01-31T08:30:02Z</time>
      </trkpt>
      <trkpt lat="42.02745" lon="0.76223">
        <ele>1092.3</ele>
        <time>2019-01-31T08:30:04Z</time>
      </trkpt>
      <trkpt lat="42.02744" lon="0.76223">
        <ele>1091.8</ele>
        <time>2019-01-31T08:30:05Z</time>
      </trkpt>
      <trkpt lat="42.02736" lon="0.76243">
        <ele>1088.4</ele>
        <time>2019-01-31T08:30:14Z</time>
      </trkpt>
      <trkpt lat="42.0273" lon="0.76249">
        <ele>1086.5</ele>
        <time>2019-01-31T08:30:19Z</time>
      </trkpt>
      <trkpt lat="42.02725" lon="0.76251">
        <ele>1084.6</ele>
        <time>2019-01-31T08:30:21Z</time>
      </trkpt>
      <trkpt lat="42.02716" lon="0.76251">
        <ele>1082.1</ele>
        <time>2019-01-31T08:30:27Z</time>
      </trkpt>
      <trkpt lat="42.02712" lon="0.76252">
        <ele>1081.1</ele>
        <time>2019-01-31T08:30:29Z</time>
      </trkpt>
      <trkpt lat="42.02705" lon="0.76261">
        <ele>1079.7</ele>
        <time>2019-01-31T08:30:35Z</time>
      </trkpt>
      <trkpt lat="42.0269" lon="0.7628">
        <ele>1076.3</ele>
        <time>2019-01-31T08:30:46Z</time>
      </trkpt>
      <trkpt lat="42.02685" lon="0.76305">
        <ele>1073.4</ele>
        <time>2019-01-31T08:30:57Z</time>
      </trkpt>
      <trkpt lat="42.02683" lon="0.76304">
        <ele>1073.1</ele>
        <time>2019-01-31T08:30:59Z</time>
      </trkpt>
      <trkpt lat="42.02684" lon="0.76291">
        <ele>1072</ele>
        <time>2019-01-31T08:31:04Z</time>
      </trkpt>
      <trkpt lat="42.02685" lon="0.76279">
        <ele>1070.7</ele>
        <time>2019-01-31T08:31:09Z</time>
      </trkpt>
      <trkpt lat="42.02685" lon="0.76277">
        <ele>1070.1</ele>
        <time>2019-01-31T08:31:10Z</time>
      </trkpt>
      <trkpt lat="42.02685" lon="0.76266">
        <ele>1068.3</ele>
        <time>2019-01-31T08:31:15Z</time>
      </trkpt>
      <trkpt lat="42.02681" lon="0.76267">
        <ele>1065.9</ele>
        <time>2019-01-31T08:31:17Z</time>
      </trkpt>
      <trkpt lat="42.02673" lon="0.76276">
        <ele>1062.9</ele>
        <time>2019-01-31T08:31:23Z</time>
      </trkpt>
      <trkpt lat="42.02669" lon="0.7628">
        <ele>1062</ele>
        <time>2019-01-31T08:31:26Z</time>
      </trkpt>
      <trkpt lat="42.02669" lon="0.76275">
        <ele>1060</ele>
        <time>2019-01-31T08:31:28Z</time>
      </trkpt>
      <trkpt lat="42.02668" lon="0.76269">
        <ele>1058.1</ele>
        <time>2019-01-31T08:31:30Z</time>
      </trkpt>
      <trkpt lat="42.02667" lon="0.76265">
        <ele>1056.6</ele>
        <time>2019-01-31T08:31:32Z</time>
      </trkpt>
      <trkpt lat="42.02664" lon="0.76263">
        <ele>1056.2</ele>
        <time>2019-01-31T08:31:34Z</time>
      </trkpt>
      <trkpt lat="42.02659" lon="0.76259">
        <ele>1054.3</ele>
        <time>2019-01-31T08:31:37Z</time>
      </trkpt>
      <trkpt lat="42.02662" lon="0.76243">
        <ele>1051.8</ele>
        <time>2019-01-31T08:31:45Z</time>
      </trkpt>
      <trkpt lat="42.02665" lon="0.76237">
        <ele>1050.4</ele>
        <time>2019-01-31T08:31:47Z</time>
      </trkpt>
      <trkpt lat="42.02664" lon="0.76236">
        <ele>1049.5</ele>
        <time>2019-01-31T08:31:48Z</time>
      </trkpt>
      <trkpt lat="42.02661" lon="0.76235">
        <ele>1049</ele>
        <time>2019-01-31T08:31:50Z</time>
      </trkpt>
      <trkpt lat="42.02655" lon="0.76235">
        <ele>1046.5</ele>
        <time>2019-01-31T08:31:53Z</time>
      </trkpt>
      <trkpt lat="42.02643" lon="0.76237">
        <ele>1042.8</ele>
        <time>2019-01-31T08:32:00Z</time>
      </trkpt>
      <trkpt lat="42.02634" lon="0.76244">
        <ele>1040.3</ele>
        <time>2019-01-31T08:32:06Z</time>
      </trkpt>
      <trkpt lat="42.02637" lon="0.76231">
        <ele>1036.9</ele>
        <time>2019-01-31T08:32:12Z</time>
      </trkpt>
      <trkpt lat="42.02635" lon="0.76227">
        <ele>1036</ele>
        <time>2019-01-31T08:32:14Z</time>
      </trkpt>
      <trkpt lat="42.02625" lon="0.76236">
        <ele>1033.1</ele>
        <time>2019-01-31T08:32:21Z</time>
      </trkpt>
      <trkpt lat="42.02622" lon="0.76234">
        <ele>1032.2</ele>
        <time>2019-01-31T08:32:23Z</time>
      </trkpt>
      <trkpt lat="42.02623" lon="0.7623">
        <ele>1031.3</ele>
        <time>2019-01-31T08:32:24Z</time>
      </trkpt>
      <trkpt lat="42.02624" lon="0.76211">
        <ele>1027.8</ele>
        <time>2019-01-31T08:32:32Z</time>
      </trkpt>
      <trkpt lat="42.02624" lon="0.76204">
        <ele>1025.9</ele>
        <time>2019-01-31T08:32:36Z</time>
      </trkpt>
      <trkpt lat="42.02629" lon="0.76193">
        <ele>1023.5</ele>
        <time>2019-01-31T08:32:41Z</time>
      </trkpt>
      <trkpt lat="42.0264" lon="0.76186">
        <ele>1023.1</ele>
        <time>2019-01-31T08:32:48Z</time>
      </trkpt>
      <trkpt lat="42.0264" lon="0.76182">
        <ele>1021.2</ele>
        <time>2019-01-31T08:32:50Z</time>
      </trkpt>
      <trkpt lat="42.02641" lon="0.76175">
        <ele>1020.7</ele>
        <time>2019-01-31T08:32:53Z</time>
      </trkpt>
      <trkpt lat="42.02643" lon="0.7617">
        <ele>1019.1</ele>
        <time>2019-01-31T08:32:55Z</time>
      </trkpt>
      <trkpt lat="42.02632" lon="0.76177">
        <ele>1017.8</ele>
        <time>2019-01-31T08:33:02Z</time>
      </trkpt>
      <trkpt lat="42.02623" lon="0.76173">
        <ele>1015.8</ele>
        <time>2019-01-31T08:33:07Z</time>
      </trkpt>
      <trkpt lat="42.02608" lon="0.76168">
        <ele>1012.4</ele>
        <time>2019-01-31T08:33:16Z</time>
      </trkpt>
      <trkpt lat="42.02584" lon="0.76149">
        <ele>1009.5</ele>
        <time>2019-01-31T08:33:32Z</time>
      </trkpt>
      <trkpt lat="42.0258" lon="0.76147">
        <ele>1008.1</ele>
        <time>2019-01-31T08:33:34Z</time>
      </trkpt>
      <trkpt lat="42.02568" lon="0.76139">
        <ele>1004.8</ele>
        <time>2019-01-31T08:33:42Z</time>
      </trkpt>
      <trkpt lat="42.02549" lon="0.76132">
        <ele>1001.8</ele>
        <time>2019-01-31T08:33:53Z</time>
      </trkpt>
      <trkpt lat="42.02539" lon="0.76128">
        <ele>1000.5</ele>
        <time>2019-01-31T08:34:00Z</time>
      </trkpt>
      <trkpt lat="42.02536" lon="0.76129">
        <ele>999</ele>
        <time>2019-01-31T08:34:01Z</time>
      </trkpt>
      <trkpt lat="42.02533" lon="0.76115">
        <ele>995.7</ele>
        <time>2019-01-31T08:34:08Z</time>
      </trkpt>
      <trkpt lat="42.02533" lon="0.76108">
        <ele>995.1</ele>
        <time>2019-01-31T08:34:11Z</time>
      </trkpt>
      <trkpt lat="42.02538" lon="0.76084">
        <ele>990.3</ele>
        <time>2019-01-31T08:34:21Z</time>
      </trkpt>
      <trkpt lat="42.02539" lon="0.76081">
        <ele>990.3</ele>
        <time>2019-01-31T08:34:22Z</time>
      </trkpt>
      <trkpt lat="42.02543" lon="0.76064">
        <ele>986.9</ele>
        <time>2019-01-31T08:34:30Z</time>
      </trkpt>
      <trkpt lat="42.02554" lon="0.76052">
        <ele>985</ele>
        <time>2019-01-31T08:34:38Z</time>
      </trkpt>
      <trkpt lat="42.02548" lon="0.76049">
        <ele>983.2</ele>
        <time>2019-01-31T08:34:42Z</time>
      </trkpt>
      <trkpt lat="42.02537" lon="0.76052">
        <ele>979.8</ele>
        <time>2019-01-31T08:34:48Z</time>
      </trkpt>
      <trkpt lat="42.02535" lon="0.76043">
        <ele>976.8</ele>
        <time>2019-01-31T08:34:52Z</time>
      </trkpt>
      <trkpt lat="42.02542" lon="0.76032">
        <ele>974.1</ele>
        <time>2019-01-31T08:34:58Z</time>
      </trkpt>
      <trkpt lat="42.02548" lon="0.76025">
        <ele>972.5</ele>
        <time>2019-01-31T08:35:03Z</time>
      </trkpt>
      <trkpt lat="42.0255" lon="0.76023">
        <ele>972.1</ele>
        <time>2019-01-31T08:35:04Z</time>
      </trkpt>
      <trkpt lat="42.02553" lon="0.76019">
        <ele>971.2</ele>
        <time>2019-01-31T08:35:07Z</time>
      </trkpt>
      <trkpt lat="42.02558" lon="0.76013">
        <ele>969.7</ele>
        <time>2019-01-31T08:35:11Z</time>
      </trkpt>
      <trkpt lat="42.02562" lon="0.76008">
        <ele>968.7</ele>
        <time>2019-01-31T08:35:14Z</time>
      </trkpt>
      <trkpt lat="42.02563" lon="0.76003">
        <ele>967.7</ele>
        <time>2019-01-31T08:35:16Z</time>
      </trkpt>
      <trkpt lat="42.02559" lon="0.76">
        <ele>966.3</ele>
        <time>2019-01-31T08:35:19Z</time>
      </trkpt>
      <trkpt lat="42.02555" lon="0.76002">
        <ele>965.3</ele>
        <time>2019-01-31T08:35:21Z</time>
      </trkpt>
      <trkpt lat="42.02553" lon="0.76004">
        <ele>964.8</ele>
        <time>2019-01-31T08:35:23Z</time>
      </trkpt>
      <trkpt lat="42.02549" lon="0.75992">
        <ele>962.9</ele>
        <time>2019-01-31T08:35:29Z</time>
      </trkpt>
      <trkpt lat="42.02552" lon="0.75989">
        <ele>961.6</ele>
        <time>2019-01-31T08:35:31Z</time>
      </trkpt>
      <trkpt lat="42.02558" lon="0.75972">
        <ele>957.2</ele>
        <time>2019-01-31T08:35:39Z</time>
      </trkpt>
      <trkpt lat="42.02561" lon="0.75967">
        <ele>956.2</ele>
        <time>2019-01-31T08:35:42Z</time>
      </trkpt>
      <trkpt lat="42.02562" lon="0.75962">
        <ele>954.7</ele>
        <time>2019-01-31T08:35:44Z</time>
      </trkpt>
      <trkpt lat="42.02564" lon="0.75949">
        <ele>951.4</ele>
        <time>2019-01-31T08:35:49Z</time>
      </trkpt>
      <trkpt lat="42.02565" lon="0.75943">
        <ele>949.4</ele>
        <time>2019-01-31T08:35:52Z</time>
      </trkpt>
      <trkpt lat="42.02566" lon="0.75934">
        <ele>947.6</ele>
        <time>2019-01-31T08:35:56Z</time>
      </trkpt>
      <trkpt lat="42.02578" lon="0.75921">
        <ele>945.2</ele>
        <time>2019-01-31T08:36:04Z</time>
      </trkpt>
      <trkpt lat="42.0258" lon="0.7592">
        <ele>944.6</ele>
        <time>2019-01-31T08:36:06Z</time>
      </trkpt>
      <trkpt lat="42.0258" lon="0.75916">
        <ele>944.2</ele>
        <time>2019-01-31T08:36:08Z</time>
      </trkpt>
      <trkpt lat="42.02562" lon="0.75921">
        <ele>941.7</ele>
        <time>2019-01-31T08:36:18Z</time>
      </trkpt>
      <trkpt lat="42.02556" lon="0.75917">
        <ele>939.3</ele>
        <time>2019-01-31T08:36:22Z</time>
      </trkpt>
      <trkpt lat="42.02552" lon="0.75913">
        <ele>937.9</ele>
        <time>2019-01-31T08:36:25Z</time>
      </trkpt>
      <trkpt lat="42.02549" lon="0.75911">
        <ele>936.6</ele>
        <time>2019-01-31T08:36:27Z</time>
      </trkpt>
      <trkpt lat="42.02544" lon="0.75911">
        <ele>935</ele>
        <time>2019-01-31T08:36:30Z</time>
      </trkpt>
      <trkpt lat="42.02541" lon="0.75912">
        <ele>934.2</ele>
        <time>2019-01-31T08:36:31Z</time>
      </trkpt>
      <trkpt lat="42.02535" lon="0.75909">
        <ele>932.6</ele>
        <time>2019-01-31T08:36:35Z</time>
      </trkpt>
      <trkpt lat="42.02531" lon="0.75899">
        <ele>931.3</ele>
        <time>2019-01-31T08:36:40Z</time>
      </trkpt>
      <trkpt lat="42.02526" lon="0.75886">
        <ele>928.9</ele>
        <time>2019-01-31T08:36:46Z</time>
      </trkpt>
      <trkpt lat="42.02517" lon="0.75878">
        <ele>926</ele>
        <time>2019-01-31T08:36:52Z</time>
      </trkpt>
      <trkpt lat="42.02509" lon="0.75857">
        <ele>922.5</ele>
        <time>2019-01-31T08:37:02Z</time>
      </trkpt>
      <trkpt lat="42.02501" lon="0.75843">
        <ele>920.1</ele>
        <time>2019-01-31T08:37:10Z</time>
      </trkpt>
      <trkpt lat="42.02497" lon="0.75835">
        <ele>918.8</ele>
        <time>2019-01-31T08:37:14Z</time>
      </trkpt>
      <trkpt lat="42.02492" lon="0.75816">
        <ele>915.3</ele>
        <time>2019-01-31T08:37:23Z</time>
      </trkpt>
      <trkpt lat="42.0249" lon="0.75814">
        <ele>915.4</ele>
        <time>2019-01-31T08:37:24Z</time>
      </trkpt>
      <trkpt lat="42.02486" lon="0.75806">
        <ele>912.9</ele>
        <time>2019-01-31T08:37:28Z</time>
      </trkpt>
      <trkpt lat="42.02479" lon="0.75794">
        <ele>909.5</ele>
        <time>2019-01-31T08:37:35Z</time>
      </trkpt>
      <trkpt lat="42.02478" lon="0.75793">
        <ele>909.6</ele>
        <time>2019-01-31T08:37:35Z</time>
      </trkpt>
      <trkpt lat="42.02476" lon="0.75789">
        <ele>908.6</ele>
        <time>2019-01-31T08:37:38Z</time>
      </trkpt>
      <trkpt lat="42.02474" lon="0.75773">
        <ele>906.8</ele>
        <time>2019-01-31T08:37:45Z</time>
      </trkpt>
      <trkpt lat="42.02476" lon="0.75764">
        <ele>905.8</ele>
        <time>2019-01-31T08:37:49Z</time>
      </trkpt>
      <trkpt lat="42.02473" lon="0.75748">
        <ele>904.4</ele>
        <time>2019-01-31T08:37:55Z</time>
      </trkpt>
      <trkpt lat="42.02469" lon="0.75743">
        <ele>902.8</ele>
        <time>2019-01-31T08:37:58Z</time>
      </trkpt>
      <trkpt lat="42.02465" lon="0.75745">
        <ele>901.9</ele>
        <time>2019-01-31T08:38:01Z</time>
      </trkpt>
      <trkpt lat="42.02458" lon="0.75734">
        <ele>899.9</ele>
        <time>2019-01-31T08:38:07Z</time>
      </trkpt>
      <trkpt lat="42.02458" lon="0.75729">
        <ele>899.5</ele>
        <time>2019-01-31T08:38:09Z</time>
      </trkpt>
      <trkpt lat="42.02455" lon="0.75726">
        <ele>898.1</ele>
        <time>2019-01-31T08:38:12Z</time>
      </trkpt>
      <trkpt lat="42.02451" lon="0.7572">
        <ele>896.1</ele>
        <time>2019-01-31T08:38:15Z</time>
      </trkpt>
      <trkpt lat="42.02447" lon="0.75709">
        <ele>894.7</ele>
        <time>2019-01-31T08:38:20Z</time>
      </trkpt>
      <trkpt lat="42.02447" lon="0.75707">
        <ele>894.3</ele>
        <time>2019-01-31T08:38:21Z</time>
      </trkpt>
      <trkpt lat="42.02442" lon="0.75701">
        <ele>892.3</ele>
        <time>2019-01-31T08:38:25Z</time>
      </trkpt>
      <trkpt lat="42.02439" lon="0.75697">
        <ele>890.9</ele>
        <time>2019-01-31T08:38:27Z</time>
      </trkpt>
      <trkpt lat="42.02433" lon="0.75695">
        <ele>889.5</ele>
        <time>2019-01-31T08:38:30Z</time>
      </trkpt>
      <trkpt lat="42.02431" lon="0.75689">
        <ele>888</ele>
        <time>2019-01-31T08:38:33Z</time>
      </trkpt>
      <trkpt lat="42.02428" lon="0.75685">
        <ele>887</ele>
        <time>2019-01-31T08:38:36Z</time>
      </trkpt>
      <trkpt lat="42.02426" lon="0.75686">
        <ele>886.5</ele>
        <time>2019-01-31T08:38:37Z</time>
      </trkpt>
      <trkpt lat="42.02422" lon="0.75684">
        <ele>884.6</ele>
        <time>2019-01-31T08:38:40Z</time>
      </trkpt>
      <trkpt lat="42.02415" lon="0.75681">
        <ele>883.2</ele>
        <time>2019-01-31T08:38:44Z</time>
      </trkpt>
      <trkpt lat="42.02413" lon="0.7568">
        <ele>882.2</ele>
        <time>2019-01-31T08:38:45Z</time>
      </trkpt>
      <trkpt lat="42.02407" lon="0.75674">
        <ele>880.3</ele>
        <time>2019-01-31T08:38:49Z</time>
      </trkpt>
      <trkpt lat="42.02402" lon="0.75672">
        <ele>878.9</ele>
        <time>2019-01-31T08:38:52Z</time>
      </trkpt>
      <trkpt lat="42.02395" lon="0.75667">
        <ele>874.9</ele>
        <time>2019-01-31T08:38:57Z</time>
      </trkpt>
      <trkpt lat="42.02386" lon="0.75661">
        <ele>873</ele>
        <time>2019-01-31T08:39:02Z</time>
      </trkpt>
      <trkpt lat="42.02379" lon="0.75655">
        <ele>871.1</ele>
        <time>2019-01-31T08:39:07Z</time>
      </trkpt>
      <trkpt lat="42.02366" lon="0.75639">
        <ele>867.3</ele>
        <time>2019-01-31T08:39:17Z</time>
      </trkpt>
      <trkpt lat="42.02362" lon="0.75638">
        <ele>866.3</ele>
        <time>2019-01-31T08:39:20Z</time>
      </trkpt>
      <trkpt lat="42.02343" lon="0.75622">
        <ele>863.4</ele>
        <time>2019-01-31T08:39:32Z</time>
      </trkpt>
      <trkpt lat="42.02339" lon="0.7562">
        <ele>862.4</ele>
        <time>2019-01-31T08:39:35Z</time>
      </trkpt>
      <trkpt lat="42.02332" lon="0.75616">
        <ele>861.5</ele>
        <time>2019-01-31T08:39:39Z</time>
      </trkpt>
      <trkpt lat="42.02328" lon="0.75604">
        <ele>860</ele>
        <time>2019-01-31T08:39:44Z</time>
      </trkpt>
      <trkpt lat="42.02313" lon="0.75591">
        <ele>856.2</ele>
        <time>2019-01-31T08:39:55Z</time>
      </trkpt>
      <trkpt lat="42.02311" lon="0.75591">
        <ele>856.3</ele>
        <time>2019-01-31T08:39:56Z</time>
      </trkpt>
      <trkpt lat="42.02311" lon="0.75591">
        <ele>856.3</ele>
        <time>2019-01-31T08:39:56Z</time>
      </trkpt>
      <trkpt lat="42.02296" lon="0.75584">
        <ele>852.9</ele>
        <time>2019-01-31T08:40:05Z</time>
      </trkpt>
      <trkpt lat="42.02281" lon="0.75573">
        <ele>850.5</ele>
        <time>2019-01-31T08:40:15Z</time>
      </trkpt>
      <trkpt lat="42.02264" lon="0.75553">
        <ele>847.2</ele>
        <time>2019-01-31T08:40:28Z</time>
      </trkpt>
      <trkpt lat="42.02262" lon="0.75551">
        <ele>847.1</ele>
        <time>2019-01-31T08:40:29Z</time>
      </trkpt>
      <trkpt lat="42.02241" lon="0.75533">
        <ele>844.2</ele>
        <time>2019-01-31T08:40:43Z</time>
      </trkpt>
      <trkpt lat="42.0222" lon="0.75522">
        <ele>840.8</ele>
        <time>2019-01-31T08:40:56Z</time>
      </trkpt>
      <trkpt lat="42.02198" lon="0.75519">
        <ele>837.4</ele>
        <time>2019-01-31T08:41:09Z</time>
      </trkpt>
      <trkpt lat="42.02185" lon="0.75516">
        <ele>836</ele>
        <time>2019-01-31T08:41:16Z</time>
      </trkpt>
      <trkpt lat="42.02179" lon="0.75513">
        <ele>835.6</ele>
        <time>2019-01-31T08:41:20Z</time>
      </trkpt>
      <trkpt lat="42.0216" lon="0.75506">
        <ele>830.8</ele>
        <time>2019-01-31T08:41:31Z</time>
      </trkpt>
      <trkpt lat="42.0214" lon="0.755">
        <ele>826.5</ele>
        <time>2019-01-31T08:41:43Z</time>
      </trkpt>
      <trkpt lat="42.02138" lon="0.75499">
        <ele>826.5</ele>
        <time>2019-01-31T08:41:44Z</time>
      </trkpt>
      <trkpt lat="42.0213" lon="0.75498">
        <ele>825</ele>
        <time>2019-01-31T08:41:49Z</time>
      </trkpt>
      <trkpt lat="42.02111" lon="0.75497">
        <ele>821.1</ele>
        <time>2019-01-31T08:41:59Z</time>
      </trkpt>
      <trkpt lat="42.02108" lon="0.75496">
        <ele>820.6</ele>
        <time>2019-01-31T08:42:01Z</time>
      </trkpt>
      <trkpt lat="42.02085" lon="0.75493">
        <ele>817.3</ele>
        <time>2019-01-31T08:42:14Z</time>
      </trkpt>
      <trkpt lat="42.02083" lon="0.75493">
        <ele>817.3</ele>
        <time>2019-01-31T08:42:16Z</time>
      </trkpt>
      <trkpt lat="42.02076" lon="0.75494">
        <ele>815.8</ele>
        <time>2019-01-31T08:42:20Z</time>
      </trkpt>
      <trkpt lat="42.02068" lon="0.75494">
        <ele>814.4</ele>
        <time>2019-01-31T08:42:24Z</time>
      </trkpt>
      <trkpt lat="42.02052" lon="0.75496">
        <ele>812</ele>
        <time>2019-01-31T08:42:34Z</time>
      </trkpt>
      <trkpt lat="42.02034" lon="0.75494">
        <ele>809.7</ele>
        <time>2019-01-31T08:42:44Z</time>
      </trkpt>
      <trkpt lat="42.02018" lon="0.75493">
        <ele>807.7</ele>
        <time>2019-01-31T08:42:53Z</time>
      </trkpt>
      <trkpt lat="42.01995" lon="0.75494">
        <ele>804.4</ele>
        <time>2019-01-31T08:43:06Z</time>
      </trkpt>
      <trkpt lat="42.01976" lon="0.75495">
        <ele>801.5</ele>
        <time>2019-01-31T08:43:17Z</time>
      </trkpt>
      <trkpt lat="42.01955" lon="0.75495">
        <ele>798</ele>
        <time>2019-01-31T08:43:29Z</time>
      </trkpt>
      <trkpt lat="42.0195" lon="0.75496">
        <ele>797.6</ele>
        <time>2019-01-31T08:43:32Z</time>
      </trkpt>
      <trkpt lat="42.01929" lon="0.75504">
        <ele>794.3</ele>
        <time>2019-01-31T08:43:44Z</time>
      </trkpt>
      <trkpt lat="42.01913" lon="0.75506">
        <ele>791.9</ele>
        <time>2019-01-31T08:43:54Z</time>
      </trkpt>
      <trkpt lat="42.01909" lon="0.7551">
        <ele>789.9</ele>
        <time>2019-01-31T08:43:57Z</time>
      </trkpt>
      <trkpt lat="42.01891" lon="0.75515">
        <ele>787.5</ele>
        <time>2019-01-31T08:44:07Z</time>
      </trkpt>
      <trkpt lat="42.01883" lon="0.75515">
        <ele>786</ele>
        <time>2019-01-31T08:44:12Z</time>
      </trkpt>
      <trkpt lat="42.01856" lon="0.75515">
        <ele>782.2</ele>
        <time>2019-01-31T08:44:27Z</time>
      </trkpt>
      <trkpt lat="42.01836" lon="0.75507">
        <ele>779.8</ele>
        <time>2019-01-31T08:44:39Z</time>
      </trkpt>
      <trkpt lat="42.01833" lon="0.75506">
        <ele>779.8</ele>
        <time>2019-01-31T08:44:41Z</time>
      </trkpt>
      <trkpt lat="42.01828" lon="0.7551">
        <ele>778.3</ele>
        <time>2019-01-31T08:44:44Z</time>
      </trkpt>
      <trkpt lat="42.01804" lon="0.75524">
        <ele>774.1</ele>
        <time>2019-01-31T08:44:59Z</time>
      </trkpt>
      <trkpt lat="42.01773" lon="0.75536">
        <ele>771.2</ele>
        <time>2019-01-31T08:45:17Z</time>
      </trkpt>
      <trkpt lat="42.01735" lon="0.75553">
        <ele>767.8</ele>
        <time>2019-01-31T08:45:40Z</time>
      </trkpt>
      <trkpt lat="42.01722" lon="0.75557">
        <ele>765.8</ele>
        <time>2019-01-31T08:45:48Z</time>
      </trkpt>
      <trkpt lat="42.01703" lon="0.7555">
        <ele>763.5</ele>
        <time>2019-01-31T08:45:59Z</time>
      </trkpt>
      <trkpt lat="42.01696" lon="0.75533">
        <ele>763</ele>
        <time>2019-01-31T08:46:08Z</time>
      </trkpt>
      <trkpt lat="42.01688" lon="0.75531">
        <ele>761</ele>
        <time>2019-01-31T08:46:12Z</time>
      </trkpt>
      <trkpt lat="42.01677" lon="0.75529">
        <ele>759.1</ele>
        <time>2019-01-31T08:46:18Z</time>
      </trkpt>
      <trkpt lat="42.01659" lon="0.75529">
        <ele>755.7</ele>
        <time>2019-01-31T08:46:29Z</time>
      </trkpt>
      <trkpt lat="42.01645" lon="0.75529">
        <ele>752.4</ele>
        <time>2019-01-31T08:46:37Z</time>
      </trkpt>
      <trkpt lat="42.01643" lon="0.75529">
        <ele>752.4</ele>
        <time>2019-01-31T08:46:38Z</time>
      </trkpt>
      <trkpt lat="42.01637" lon="0.75527">
        <ele>751</ele>
        <time>2019-01-31T08:46:41Z</time>
      </trkpt>
      <trkpt lat="42.01635" lon="0.75527">
        <ele>749.5</ele>
        <time>2019-01-31T08:46:43Z</time>
      </trkpt>
      <trkpt lat="42.01632" lon="0.75542">
        <ele>747.2</ele>
        <time>2019-01-31T08:46:49Z</time>
      </trkpt>
      <trkpt lat="42.01623" lon="0.75551">
        <ele>744.2</ele>
        <time>2019-01-31T08:46:56Z</time>
      </trkpt>
      <trkpt lat="42.01614" lon="0.75547">
        <ele>743.3</ele>
        <time>2019-01-31T08:47:01Z</time>
      </trkpt>
      <trkpt lat="42.01607" lon="0.75548">
        <ele>741.8</ele>
        <time>2019-01-31T08:47:05Z</time>
      </trkpt>
      <trkpt lat="42.01605" lon="0.75558">
        <ele>740.9</ele>
        <time>2019-01-31T08:47:10Z</time>
      </trkpt>
      <trkpt lat="42.01585" lon="0.75577">
        <ele>738.9</ele>
        <time>2019-01-31T08:47:24Z</time>
      </trkpt>
      <trkpt lat="42.01568" lon="0.75589">
        <ele>736.5</ele>
        <time>2019-01-31T08:47:35Z</time>
      </trkpt>
      <trkpt lat="42.01552" lon="0.75585">
        <ele>733.6</ele>
        <time>2019-01-31T08:47:44Z</time>
      </trkpt>
      <trkpt lat="42.01551" lon="0.75583">
        <ele>733.2</ele>
        <time>2019-01-31T08:47:45Z</time>
      </trkpt>
      <trkpt lat="42.01536" lon="0.75571">
        <ele>730.4</ele>
        <time>2019-01-31T08:47:55Z</time>
      </trkpt>
      <trkpt lat="42.01521" lon="0.75556">
        <ele>726.9</ele>
        <time>2019-01-31T08:48:06Z</time>
      </trkpt>
      <trkpt lat="42.01483" lon="0.75546">
        <ele>724.6</ele>
        <time>2019-01-31T08:48:28Z</time>
      </trkpt>
      <trkpt lat="42.0146" lon="0.75543">
        <ele>721.1</ele>
        <time>2019-01-31T08:48:41Z</time>
      </trkpt>
      <trkpt lat="42.01436" lon="0.75546">
        <ele>718.2</ele>
        <time>2019-01-31T08:48:55Z</time>
      </trkpt>
      <trkpt lat="42.01417" lon="0.75553">
        <ele>714.9</ele>
        <time>2019-01-31T08:49:06Z</time>
      </trkpt>
      <trkpt lat="42.01413" lon="0.75555">
        <ele>715</ele>
        <time>2019-01-31T08:49:08Z</time>
      </trkpt>
      <trkpt lat="42.01405" lon="0.75559">
        <ele>713.4</ele>
        <time>2019-01-31T08:49:13Z</time>
      </trkpt>
      <trkpt lat="42.01386" lon="0.75566">
        <ele>710.6</ele>
        <time>2019-01-31T08:49:25Z</time>
      </trkpt>
      <trkpt lat="42.01364" lon="0.7557">
        <ele>707.7</ele>
        <time>2019-01-31T08:49:38Z</time>
      </trkpt>
      <trkpt lat="42.01346" lon="0.75574">
        <ele>704.8</ele>
        <time>2019-01-31T08:49:48Z</time>
      </trkpt>
      <trkpt lat="42.01321" lon="0.75579">
        <ele>700.9</ele>
        <time>2019-01-31T08:50:02Z</time>
      </trkpt>
      <trkpt lat="42.01292" lon="0.75589">
        <ele>697.7</ele>
        <time>2019-01-31T08:50:20Z</time>
      </trkpt>
      <trkpt lat="42.0128" lon="0.75595">
        <ele>695.7</ele>
        <time>2019-01-31T08:50:27Z</time>
      </trkpt>
      <trkpt lat="42.01272" lon="0.75601">
        <ele>694.7</ele>
        <time>2019-01-31T08:50:32Z</time>
      </trkpt>
      <trkpt lat="42.0125" lon="0.75616">
        <ele>691.3</ele>
        <time>2019-01-31T08:50:46Z</time>
      </trkpt>
      <trkpt lat="42.01244" lon="0.75624">
        <ele>690.5</ele>
        <time>2019-01-31T08:50:51Z</time>
      </trkpt>
      <trkpt lat="42.01239" lon="0.75636">
        <ele>690.4</ele>
        <time>2019-01-31T08:50:57Z</time>
      </trkpt>
      <trkpt lat="42.0122" lon="0.75658">
        <ele>687</ele>
        <time>2019-01-31T08:51:11Z</time>
      </trkpt>
      <trkpt lat="42.01196" lon="0.75672">
        <ele>684.7</ele>
        <time>2019-01-31T08:51:26Z</time>
      </trkpt>
      <trkpt lat="42.01173" lon="0.75675">
        <ele>681.7</ele>
        <time>2019-01-31T08:51:40Z</time>
      </trkpt>
      <trkpt lat="42.01156" lon="0.7568">
        <ele>679.8</ele>
        <time>2019-01-31T08:51:50Z</time>
      </trkpt>
      <trkpt lat="42.01135" lon="0.75683">
        <ele>677.4</ele>
        <time>2019-01-31T08:52:02Z</time>
      </trkpt>
      <trkpt lat="42.01107" lon="0.7569">
        <ele>673.6</ele>
        <time>2019-01-31T08:52:18Z</time>
      </trkpt>
      <trkpt lat="42.01103" lon="0.75689">
        <ele>674</ele>
        <time>2019-01-31T08:52:20Z</time>
      </trkpt>
      <trkpt lat="42.01086" lon="0.75692">
        <ele>672.2</ele>
        <time>2019-01-31T08:52:30Z</time>
      </trkpt>
      <trkpt lat="42.01058" lon="0.75701">
        <ele>668.7</ele>
        <time>2019-01-31T08:52:46Z</time>
      </trkpt>
      <trkpt lat="42.01045" lon="0.75717">
        <ele>667.3</ele>
        <time>2019-01-31T08:52:57Z</time>
      </trkpt>
      <trkpt lat="42.01041" lon="0.7572">
        <ele>666.8</ele>
        <time>2019-01-31T08:52:59Z</time>
      </trkpt>
      <trkpt lat="42.01037" lon="0.75724">
        <ele>666.4</ele>
        <time>2019-01-31T08:53:02Z</time>
      </trkpt>
      <trkpt lat="42.01025" lon="0.75732">
        <ele>663.9</ele>
        <time>2019-01-31T08:53:09Z</time>
      </trkpt>
      <trkpt lat="42.01004" lon="0.75748">
        <ele>662</ele>
        <time>2019-01-31T08:53:23Z</time>
      </trkpt>
      <trkpt lat="42.00987" lon="0.75759">
        <ele>660.1</ele>
        <time>2019-01-31T08:53:34Z</time>
      </trkpt>
      <trkpt lat="42.00966" lon="0.75767">
        <ele>656.2</ele>
        <time>2019-01-31T08:53:47Z</time>
      </trkpt>
      <trkpt lat="42.00929" lon="0.7578">
        <ele>653</ele>
        <time>2019-01-31T08:54:09Z</time>
      </trkpt>
      <trkpt lat="42.00895" lon="0.75804">
        <ele>649.6</ele>
        <time>2019-01-31T08:54:31Z</time>
      </trkpt>
      <trkpt lat="42.00863" lon="0.75826">
        <ele>647.1</ele>
        <time>2019-01-31T08:54:51Z</time>
      </trkpt>
      <trkpt lat="42.00846" lon="0.75841">
        <ele>646.1</ele>
        <time>2019-01-31T08:55:03Z</time>
      </trkpt>
      <trkpt lat="42.00831" lon="0.75854">
        <ele>644.3</ele>
        <time>2019-01-31T08:55:13Z</time>
      </trkpt>
      <trkpt lat="42.00809" lon="0.75872">
        <ele>642.4</ele>
        <time>2019-01-31T08:55:28Z</time>
      </trkpt>
      <trkpt lat="42.00789" lon="0.75885">
        <ele>640.9</ele>
        <time>2019-01-31T08:55:41Z</time>
      </trkpt>
      <trkpt lat="42.00761" lon="0.75903">
        <ele>639.4</ele>
        <time>2019-01-31T08:55:58Z</time>
      </trkpt>
      <trkpt lat="42.00724" lon="0.75925">
        <ele>637</ele>
        <time>2019-01-31T08:56:21Z</time>
      </trkpt>
      <trkpt lat="42.00687" lon="0.75945">
        <ele>635.1</ele>
        <time>2019-01-31T08:56:44Z</time>
      </trkpt>
      <trkpt lat="42.00659" lon="0.75961">
        <ele>634.1</ele>
        <time>2019-01-31T08:57:01Z</time>
      </trkpt>
      <trkpt lat="42.00633" lon="0.75973">
        <ele>631.7</ele>
        <time>2019-01-31T08:57:17Z</time>
      </trkpt>
      <trkpt lat="42.00616" lon="0.75981">
        <ele>630.9</ele>
        <time>2019-01-31T08:57:27Z</time>
      </trkpt>
      <trkpt lat="42.00596" lon="0.75992">
        <ele>628.8</ele>
        <time>2019-01-31T08:57:40Z</time>
      </trkpt>
      <trkpt lat="42.00578" lon="0.76003">
        <ele>627.5</ele>
        <time>2019-01-31T08:57:51Z</time>
      </trkpt>
      <trkpt lat="42.00527" lon="0.76024">
        <ele>625.1</ele>
        <time>2019-01-31T08:58:22Z</time>
      </trkpt>
      <trkpt lat="42.00506" lon="0.76035">
        <ele>623.6</ele>
        <time>2019-01-31T08:58:34Z</time>
      </trkpt>
      <trkpt lat="42.00484" lon="0.76049">
        <ele>622.7</ele>
        <time>2019-01-31T08:58:48Z</time>
      </trkpt>
      <trkpt lat="42.0046" lon="0.76058">
        <ele>621.2</ele>
        <time>2019-01-31T08:59:02Z</time>
      </trkpt>
      <trkpt lat="42.00433" lon="0.76065">
        <ele>619.7</ele>
        <time>2019-01-31T08:59:18Z</time>
      </trkpt>
      <trkpt lat="42.00397" lon="0.76068">
        <ele>616.9</ele>
        <time>2019-01-31T08:59:39Z</time>
      </trkpt>
      <trkpt lat="42.00361" lon="0.76089">
        <ele>615.9</ele>
        <time>2019-01-31T09:00:01Z</time>
      </trkpt>
      <trkpt lat="42.00341" lon="0.76109">
        <ele>614.4</ele>
        <time>2019-01-31T09:00:16Z</time>
      </trkpt>
      <trkpt lat="42.00322" lon="0.7612">
        <ele>613.5</ele>
        <time>2019-01-31T09:00:27Z</time>
      </trkpt>
      <trkpt lat="42.00296" lon="0.76121">
        <ele>612</ele>
        <time>2019-01-31T09:00:42Z</time>
      </trkpt>
      <trkpt lat="42.00281" lon="0.76122">
        <ele>604.3</ele>
        <time>2019-01-31T09:00:51Z</time>
      </trkpt>
      <trkpt lat="42.00294" lon="0.76131">
        <ele>612.5</ele>
        <time>2019-01-31T10:48:10Z</time>
      </trkpt>
      <trkpt lat="42.00297" lon="0.76144">
        <ele>612.6</ele>
        <time>2019-01-31T10:48:15Z</time>
      </trkpt>
      <trkpt lat="42.00301" lon="0.76157">
        <ele>612.5</ele>
        <time>2019-01-31T10:48:21Z</time>
      </trkpt>
      <trkpt lat="42.00303" lon="0.7617">
        <ele>611.5</ele>
        <time>2019-01-31T10:48:27Z</time>
      </trkpt>
      <trkpt lat="42.00307" lon="0.76182">
        <ele>612.5</ele>
        <time>2019-01-31T10:48:33Z</time>
      </trkpt>
      <trkpt lat="42.00311" lon="0.76196">
        <ele>612.1</ele>
        <time>2019-01-31T10:48:39Z</time>
      </trkpt>
      <trkpt lat="42.00316" lon="0.76209">
        <ele>611.6</ele>
        <time>2019-01-31T10:48:45Z</time>
      </trkpt>
      <trkpt lat="42.0032" lon="0.76221">
        <ele>611.6</ele>
        <time>2019-01-31T10:48:51Z</time>
      </trkpt>
      <trkpt lat="42.00324" lon="0.76233">
        <ele>611.6</ele>
        <time>2019-01-31T10:48:56Z</time>
      </trkpt>
      <trkpt lat="42.00329" lon="0.76248">
        <ele>610.5</ele>
        <time>2019-01-31T10:49:03Z</time>
      </trkpt>
      <trkpt lat="42.00333" lon="0.76261">
        <ele>610.5</ele>
        <time>2019-01-31T10:49:09Z</time>
      </trkpt>
      <trkpt lat="42.00336" lon="0.76275">
        <ele>610</ele>
        <time>2019-01-31T10:49:15Z</time>
      </trkpt>
      <trkpt lat="42.00339" lon="0.76288">
        <ele>610</ele>
        <time>2019-01-31T10:49:21Z</time>
      </trkpt>
      <trkpt lat="42.0034" lon="0.76303">
        <ele>610</ele>
        <time>2019-01-31T10:49:28Z</time>
      </trkpt>
      <trkpt lat="42.00341" lon="0.76316">
        <ele>609.7</ele>
        <time>2019-01-31T10:49:33Z</time>
      </trkpt>
      <trkpt lat="42.00341" lon="0.76329">
        <ele>609.7</ele>
        <time>2019-01-31T10:49:39Z</time>
      </trkpt>
      <trkpt lat="42.00338" lon="0.76343">
        <ele>609.6</ele>
        <time>2019-01-31T10:49:45Z</time>
      </trkpt>
      <trkpt lat="42.00335" lon="0.76355">
        <ele>609.2</ele>
        <time>2019-01-31T10:49:51Z</time>
      </trkpt>
      <trkpt lat="42.00332" lon="0.76367">
        <ele>608.7</ele>
        <time>2019-01-31T10:49:56Z</time>
      </trkpt>
      <trkpt lat="42.00326" lon="0.76378">
        <ele>608.1</ele>
        <time>2019-01-31T10:50:02Z</time>
      </trkpt>
      <trkpt lat="42.00318" lon="0.76384">
        <ele>607.6</ele>
        <time>2019-01-31T10:50:07Z</time>
      </trkpt>
      <trkpt lat="42.00309" lon="0.76391">
        <ele>607.2</ele>
        <time>2019-01-31T10:50:13Z</time>
      </trkpt>
      <trkpt lat="42.00302" lon="0.76399">
        <ele>607.2</ele>
        <time>2019-01-31T10:50:18Z</time>
      </trkpt>
      <trkpt lat="42.00301" lon="0.76393">
        <ele>607.2</ele>
        <time>2019-01-31T10:50:20Z</time>
      </trkpt>
      <trkpt lat="42.003" lon="0.76393">
        <ele>613.9</ele>
        <time>2019-01-31T10:50:21Z</time>
      </trkpt>
      <trkpt lat="42.00298" lon="0.76394">
        <ele>628.3</ele>
        <time>2019-01-31T10:50:22Z</time>
      </trkpt>
      <trkpt lat="42.00296" lon="0.76403">
        <ele>628.8</ele>
        <time>2019-01-31T10:50:26Z</time>
      </trkpt>
      <trkpt lat="42.00293" lon="0.76414">
        <ele>628.4</ele>
        <time>2019-01-31T10:50:31Z</time>
      </trkpt>
      <trkpt lat="42.00287" lon="0.76423">
        <ele>628.3</ele>
        <time>2019-01-31T10:50:37Z</time>
      </trkpt>
      <trkpt lat="42.00275" lon="0.76421">
        <ele>628.9</ele>
        <time>2019-01-31T10:50:43Z</time>
      </trkpt>
      <trkpt lat="42.00272" lon="0.76404">
        <ele>627.4</ele>
        <time>2019-01-31T10:50:51Z</time>
      </trkpt>
      <trkpt lat="42.00276" lon="0.7639">
        <ele>625.9</ele>
        <time>2019-01-31T10:50:57Z</time>
      </trkpt>
      <trkpt lat="42.00281" lon="0.76378">
        <ele>624</ele>
        <time>2019-01-31T10:51:03Z</time>
      </trkpt>
      <trkpt lat="42.00285" lon="0.76367">
        <ele>624.5</ele>
        <time>2019-01-31T10:51:08Z</time>
      </trkpt>
      <trkpt lat="42.0029" lon="0.76354">
        <ele>624.9</ele>
        <time>2019-01-31T10:51:14Z</time>
      </trkpt>
      <trkpt lat="42.00292" lon="0.76342">
        <ele>625.4</ele>
        <time>2019-01-31T10:51:20Z</time>
      </trkpt>
      <trkpt lat="42.0029" lon="0.76328">
        <ele>626</ele>
        <time>2019-01-31T10:51:26Z</time>
      </trkpt>
      <trkpt lat="42.00289" lon="0.76313">
        <ele>627.4</ele>
        <time>2019-01-31T10:51:32Z</time>
      </trkpt>
      <trkpt lat="42.00289" lon="0.763">
        <ele>627.5</ele>
        <time>2019-01-31T10:51:38Z</time>
      </trkpt>
      <trkpt lat="42.0029" lon="0.76287">
        <ele>627.4</ele>
        <time>2019-01-31T10:51:43Z</time>
      </trkpt>
      <trkpt lat="42.00288" lon="0.76273">
        <ele>627.5</ele>
        <time>2019-01-31T10:51:49Z</time>
      </trkpt>
      <trkpt lat="42.00281" lon="0.76264">
        <ele>626.9</ele>
        <time>2019-01-31T10:51:55Z</time>
      </trkpt>
      <trkpt lat="42.00272" lon="0.76257">
        <ele>627</ele>
        <time>2019-01-31T10:52:01Z</time>
      </trkpt>
      <trkpt lat="42.00265" lon="0.76247">
        <ele>626.5</ele>
        <time>2019-01-31T10:52:07Z</time>
      </trkpt>
      <trkpt lat="42.00256" lon="0.76239">
        <ele>625.4</ele>
        <time>2019-01-31T10:52:13Z</time>
      </trkpt>
      <trkpt lat="42.00247" lon="0.76232">
        <ele>624</ele>
        <time>2019-01-31T10:52:18Z</time>
      </trkpt>
      <trkpt lat="42.00239" lon="0.76224">
        <ele>624</ele>
        <time>2019-01-31T10:52:24Z</time>
      </trkpt>
      <trkpt lat="42.00229" lon="0.76224">
        <ele>624.6</ele>
        <time>2019-01-31T10:52:30Z</time>
      </trkpt>
      <trkpt lat="42.00219" lon="0.76227">
        <ele>625.4</ele>
        <time>2019-01-31T10:52:36Z</time>
      </trkpt>
      <trkpt lat="42.00207" lon="0.76225">
        <ele>626.5</ele>
        <time>2019-01-31T10:52:43Z</time>
      </trkpt>
      <trkpt lat="42.00196" lon="0.76231">
        <ele>627.4</ele>
        <time>2019-01-31T10:52:49Z</time>
      </trkpt>
      <trkpt lat="42.00187" lon="0.76235">
        <ele>629.8</ele>
        <time>2019-01-31T10:52:55Z</time>
      </trkpt>
      <trkpt lat="42.00178" lon="0.76239">
        <ele>631.3</ele>
        <time>2019-01-31T10:53:00Z</time>
      </trkpt>
      <trkpt lat="42.00172" lon="0.76252">
        <ele>631.7</ele>
        <time>2019-01-31T10:53:07Z</time>
      </trkpt>
      <trkpt lat="42.00163" lon="0.7626">
        <ele>631.7</ele>
        <time>2019-01-31T10:53:13Z</time>
      </trkpt>
      <trkpt lat="42.00153" lon="0.76264">
        <ele>631.8</ele>
        <time>2019-01-31T10:53:19Z</time>
      </trkpt>
      <trkpt lat="42.00144" lon="0.76266">
        <ele>632.7</ele>
        <time>2019-01-31T10:53:24Z</time>
      </trkpt>
      <trkpt lat="42.00133" lon="0.76271">
        <ele>633.6</ele>
        <time>2019-01-31T10:53:31Z</time>
      </trkpt>
      <trkpt lat="42.00123" lon="0.76277">
        <ele>634.1</ele>
        <time>2019-01-31T10:53:37Z</time>
      </trkpt>
      <trkpt lat="42.00114" lon="0.76281">
        <ele>635.1</ele>
        <time>2019-01-31T10:53:43Z</time>
      </trkpt>
      <trkpt lat="42.00103" lon="0.76286">
        <ele>636</ele>
        <time>2019-01-31T10:53:49Z</time>
      </trkpt>
      <trkpt lat="42.00092" lon="0.76289">
        <ele>636.6</ele>
        <time>2019-01-31T10:53:55Z</time>
      </trkpt>
      <trkpt lat="42.00081" lon="0.76295">
        <ele>637</ele>
        <time>2019-01-31T10:54:02Z</time>
      </trkpt>
      <trkpt lat="42.00071" lon="0.763">
        <ele>638.4</ele>
        <time>2019-01-31T10:54:08Z</time>
      </trkpt>
      <trkpt lat="42.00061" lon="0.76307">
        <ele>638.9</ele>
        <time>2019-01-31T10:54:15Z</time>
      </trkpt>
      <trkpt lat="42.00054" lon="0.76317">
        <ele>639.8</ele>
        <time>2019-01-31T10:54:21Z</time>
      </trkpt>
      <trkpt lat="42.00046" lon="0.76325">
        <ele>640.8</ele>
        <time>2019-01-31T10:54:27Z</time>
      </trkpt>
      <trkpt lat="42.00037" lon="0.76334">
        <ele>642.8</ele>
        <time>2019-01-31T10:54:33Z</time>
      </trkpt>
      <trkpt lat="42.00028" lon="0.76338">
        <ele>642.7</ele>
        <time>2019-01-31T10:54:38Z</time>
      </trkpt>
      <trkpt lat="42.00018" lon="0.76341">
        <ele>642.7</ele>
        <time>2019-01-31T10:54:44Z</time>
      </trkpt>
      <trkpt lat="42.00011" lon="0.76348">
        <ele>642.3</ele>
        <time>2019-01-31T10:54:49Z</time>
      </trkpt>
      <trkpt lat="42.00006" lon="0.7636">
        <ele>641.3</ele>
        <time>2019-01-31T10:54:55Z</time>
      </trkpt>
      <trkpt lat="42" lon="0.7637">
        <ele>639.9</ele>
        <time>2019-01-31T10:55:01Z</time>
      </trkpt>
      <trkpt lat="41.99989" lon="0.76379">
        <ele>637.4</ele>
        <time>2019-01-31T10:55:08Z</time>
      </trkpt>
      <trkpt lat="41.99977" lon="0.76372">
        <ele>637.4</ele>
        <time>2019-01-31T10:55:15Z</time>
      </trkpt>
      <trkpt lat="41.99969" lon="0.76369">
        <ele>637.5</ele>
        <time>2019-01-31T10:55:20Z</time>
      </trkpt>
      <trkpt lat="41.99961" lon="0.76371">
        <ele>639</ele>
        <time>2019-01-31T10:55:25Z</time>
      </trkpt>
      <trkpt lat="41.99945" lon="0.7637">
        <ele>637.9</ele>
        <time>2019-01-31T10:55:34Z</time>
      </trkpt>
      <trkpt lat="41.99923" lon="0.76352">
        <ele>638.5</ele>
        <time>2019-01-31T10:55:48Z</time>
      </trkpt>
      <trkpt lat="41.99909" lon="0.76337">
        <ele>639.4</ele>
        <time>2019-01-31T10:55:58Z</time>
      </trkpt>
      <trkpt lat="41.99903" lon="0.7632">
        <ele>639.4</ele>
        <time>2019-01-31T10:56:06Z</time>
      </trkpt>
      <trkpt lat="41.99903" lon="0.76305">
        <ele>641.3</ele>
        <time>2019-01-31T10:56:13Z</time>
      </trkpt>
      <trkpt lat="41.999" lon="0.76283">
        <ele>640.8</ele>
        <time>2019-01-31T10:56:23Z</time>
      </trkpt>
      <trkpt lat="41.99902" lon="0.76243">
        <ele>640.4</ele>
        <time>2019-01-31T10:56:40Z</time>
      </trkpt>
      <trkpt lat="41.99897" lon="0.76217">
        <ele>639.5</ele>
        <time>2019-01-31T10:56:51Z</time>
      </trkpt>
      <trkpt lat="41.99897" lon="0.76204">
        <ele>639</ele>
        <time>2019-01-31T10:56:57Z</time>
      </trkpt>
      <trkpt lat="41.99896" lon="0.76191">
        <ele>638.4</ele>
        <time>2019-01-31T10:57:02Z</time>
      </trkpt>
      <trkpt lat="41.99893" lon="0.76178">
        <ele>637.1</ele>
        <time>2019-01-31T10:57:08Z</time>
      </trkpt>
      <trkpt lat="41.99889" lon="0.76164">
        <ele>635.5</ele>
        <time>2019-01-31T10:57:14Z</time>
      </trkpt>
      <trkpt lat="41.99884" lon="0.7615">
        <ele>633.6</ele>
        <time>2019-01-31T10:57:21Z</time>
      </trkpt>
      <trkpt lat="41.99875" lon="0.76135">
        <ele>631.8</ele>
        <time>2019-01-31T10:57:29Z</time>
      </trkpt>
      <trkpt lat="41.9987" lon="0.76116">
        <ele>630.2</ele>
        <time>2019-01-31T10:57:37Z</time>
      </trkpt>
      <trkpt lat="41.99871" lon="0.76099">
        <ele>628.4</ele>
        <time>2019-01-31T10:57:45Z</time>
      </trkpt>
      <trkpt lat="41.99869" lon="0.76085">
        <ele>626.9</ele>
        <time>2019-01-31T10:57:51Z</time>
      </trkpt>
      <trkpt lat="41.99862" lon="0.7607">
        <ele>625.4</ele>
        <time>2019-01-31T10:57:58Z</time>
      </trkpt>
      <trkpt lat="41.99863" lon="0.76054">
        <ele>623</ele>
        <time>2019-01-31T10:58:05Z</time>
      </trkpt>
      <trkpt lat="41.99865" lon="0.76037">
        <ele>623.1</ele>
        <time>2019-01-31T10:58:12Z</time>
      </trkpt>
      <trkpt lat="41.99865" lon="0.76023">
        <ele>623.1</ele>
        <time>2019-01-31T10:58:18Z</time>
      </trkpt>
      <trkpt lat="41.99866" lon="0.76008">
        <ele>623.1</ele>
        <time>2019-01-31T10:58:25Z</time>
      </trkpt>
      <trkpt lat="41.99868" lon="0.75994">
        <ele>623</ele>
        <time>2019-01-31T10:58:31Z</time>
      </trkpt>
      <trkpt lat="41.99871" lon="0.75977">
        <ele>623.5</ele>
        <time>2019-01-31T10:58:38Z</time>
      </trkpt>
      <trkpt lat="41.99875" lon="0.75964">
        <ele>624.9</ele>
        <time>2019-01-31T10:58:44Z</time>
      </trkpt>
      <trkpt lat="41.9988" lon="0.75948">
        <ele>624.5</ele>
        <time>2019-01-31T10:58:52Z</time>
      </trkpt>
      <trkpt lat="41.99884" lon="0.75934">
        <ele>624</ele>
        <time>2019-01-31T10:58:58Z</time>
      </trkpt>
      <trkpt lat="41.99888" lon="0.75919">
        <ele>623.6</ele>
        <time>2019-01-31T10:59:05Z</time>
      </trkpt>
      <trkpt lat="41.9989" lon="0.75905">
        <ele>622.5</ele>
        <time>2019-01-31T10:59:11Z</time>
      </trkpt>
      <trkpt lat="41.99896" lon="0.75888">
        <ele>621.1</ele>
        <time>2019-01-31T10:59:19Z</time>
      </trkpt>
      <trkpt lat="41.99903" lon="0.75876">
        <ele>621.6</ele>
        <time>2019-01-31T10:59:26Z</time>
      </trkpt>
      <trkpt lat="41.99912" lon="0.75865">
        <ele>623.5</ele>
        <time>2019-01-31T10:59:32Z</time>
      </trkpt>
      <trkpt lat="41.99921" lon="0.75855">
        <ele>623.6</ele>
        <time>2019-01-31T10:59:39Z</time>
      </trkpt>
      <trkpt lat="41.99928" lon="0.75842">
        <ele>623.1</ele>
        <time>2019-01-31T10:59:46Z</time>
      </trkpt>
      <trkpt lat="41.99935" lon="0.7583">
        <ele>623</ele>
        <time>2019-01-31T10:59:53Z</time>
      </trkpt>
      <trkpt lat="41.99941" lon="0.75816">
        <ele>622.6</ele>
        <time>2019-01-31T10:59:59Z</time>
      </trkpt>
      <trkpt lat="41.99947" lon="0.75802">
        <ele>622.5</ele>
        <time>2019-01-31T11:00:06Z</time>
      </trkpt>
      <trkpt lat="41.99955" lon="0.75787">
        <ele>622.5</ele>
        <time>2019-01-31T11:00:14Z</time>
      </trkpt>
      <trkpt lat="41.99961" lon="0.75771">
        <ele>622.1</ele>
        <time>2019-01-31T11:00:22Z</time>
      </trkpt>
      <trkpt lat="41.99966" lon="0.75746">
        <ele>622.2</ele>
        <time>2019-01-31T11:00:33Z</time>
      </trkpt>
      <trkpt lat="41.99972" lon="0.75727">
        <ele>621.1</ele>
        <time>2019-01-31T11:00:41Z</time>
      </trkpt>
      <trkpt lat="41.99982" lon="0.75699">
        <ele>620.1</ele>
        <time>2019-01-31T11:00:55Z</time>
      </trkpt>
      <trkpt lat="41.99986" lon="0.75684">
        <ele>618.7</ele>
        <time>2019-01-31T11:01:01Z</time>
      </trkpt>
      <trkpt lat="41.99991" lon="0.75668">
        <ele>617.7</ele>
        <time>2019-01-31T11:01:09Z</time>
      </trkpt>
      <trkpt lat="41.9998" lon="0.75637">
        <ele>615.8</ele>
        <time>2019-01-31T11:01:23Z</time>
      </trkpt>
      <trkpt lat="41.99975" lon="0.75625">
        <ele>616.4</ele>
        <time>2019-01-31T11:01:29Z</time>
      </trkpt>
      <trkpt lat="41.9997" lon="0.75613">
        <ele>617.4</ele>
        <time>2019-01-31T11:01:35Z</time>
      </trkpt>
      <trkpt lat="41.99964" lon="0.75604">
        <ele>617.3</ele>
        <time>2019-01-31T11:01:40Z</time>
      </trkpt>
      <trkpt lat="41.99955" lon="0.75594">
        <ele>619.7</ele>
        <time>2019-01-31T11:01:47Z</time>
      </trkpt>
      <trkpt lat="41.99944" lon="0.75588">
        <ele>622.5</ele>
        <time>2019-01-31T11:01:54Z</time>
      </trkpt>
      <trkpt lat="41.99933" lon="0.75584">
        <ele>624.1</ele>
        <time>2019-01-31T11:02:00Z</time>
      </trkpt>
      <trkpt lat="41.99924" lon="0.7558">
        <ele>625.9</ele>
        <time>2019-01-31T11:02:06Z</time>
      </trkpt>
      <trkpt lat="41.99913" lon="0.75578">
        <ele>627.4</ele>
        <time>2019-01-31T11:02:12Z</time>
      </trkpt>
      <trkpt lat="41.99901" lon="0.7558">
        <ele>628.3</ele>
        <time>2019-01-31T11:02:19Z</time>
      </trkpt>
      <trkpt lat="41.9989" lon="0.75581">
        <ele>630.7</ele>
        <time>2019-01-31T11:02:25Z</time>
      </trkpt>
      <trkpt lat="41.99883" lon="0.75591">
        <ele>630.8</ele>
        <time>2019-01-31T11:02:31Z</time>
      </trkpt>
      <trkpt lat="41.99878" lon="0.75604">
        <ele>630.8</ele>
        <time>2019-01-31T11:02:37Z</time>
      </trkpt>
      <trkpt lat="41.99873" lon="0.75616">
        <ele>630.8</ele>
        <time>2019-01-31T11:02:43Z</time>
      </trkpt>
      <trkpt lat="41.99868" lon="0.75626">
        <ele>630.8</ele>
        <time>2019-01-31T11:02:48Z</time>
      </trkpt>
      <trkpt lat="41.99859" lon="0.75634">
        <ele>630.7</ele>
        <time>2019-01-31T11:02:55Z</time>
      </trkpt>
      <trkpt lat="41.99849" lon="0.75638">
        <ele>631.2</ele>
        <time>2019-01-31T11:03:00Z</time>
      </trkpt>
      <trkpt lat="41.99839" lon="0.7564">
        <ele>630.8</ele>
        <time>2019-01-31T11:03:06Z</time>
      </trkpt>
      <trkpt lat="41.99831" lon="0.75645">
        <ele>629.9</ele>
        <time>2019-01-31T11:03:11Z</time>
      </trkpt>
      <trkpt lat="41.99822" lon="0.75648">
        <ele>628.4</ele>
        <time>2019-01-31T11:03:17Z</time>
      </trkpt>
      <trkpt lat="41.99815" lon="0.75656">
        <ele>628.3</ele>
        <time>2019-01-31T11:03:22Z</time>
      </trkpt>
      <trkpt lat="41.99807" lon="0.7567">
        <ele>630.2</ele>
        <time>2019-01-31T11:03:30Z</time>
      </trkpt>
      <trkpt lat="41.99803" lon="0.75682">
        <ele>630.2</ele>
        <time>2019-01-31T11:03:35Z</time>
      </trkpt>
      <trkpt lat="41.99802" lon="0.75691">
        <ele>629.8</ele>
        <time>2019-01-31T11:03:39Z</time>
      </trkpt>
      <trkpt lat="41.99798" lon="0.757">
        <ele>628.9</ele>
        <time>2019-01-31T11:03:44Z</time>
      </trkpt>
      <trkpt lat="41.99791" lon="0.75709">
        <ele>627</ele>
        <time>2019-01-31T11:03:49Z</time>
      </trkpt>
      <trkpt lat="41.99781" lon="0.75713">
        <ele>626.4</ele>
        <time>2019-01-31T11:03:55Z</time>
      </trkpt>
      <trkpt lat="41.9977" lon="0.75714">
        <ele>626.5</ele>
        <time>2019-01-31T11:04:01Z</time>
      </trkpt>
      <trkpt lat="41.99755" lon="0.75706">
        <ele>630.8</ele>
        <time>2019-01-31T11:04:10Z</time>
      </trkpt>
      <trkpt lat="41.99737" lon="0.75703">
        <ele>635.5</ele>
        <time>2019-01-31T11:04:21Z</time>
      </trkpt>
      <trkpt lat="41.99725" lon="0.75703">
        <ele>637.1</ele>
        <time>2019-01-31T11:04:27Z</time>
      </trkpt>
      <trkpt lat="41.99711" lon="0.75704">
        <ele>638.4</ele>
        <time>2019-01-31T11:04:36Z</time>
      </trkpt>
      <trkpt lat="41.99695" lon="0.75703">
        <ele>640.8</ele>
        <time>2019-01-31T11:04:45Z</time>
      </trkpt>
      <trkpt lat="41.99682" lon="0.75703">
        <ele>642.7</ele>
        <time>2019-01-31T11:04:52Z</time>
      </trkpt>
      <trkpt lat="41.99669" lon="0.75701">
        <ele>644.7</ele>
        <time>2019-01-31T11:05:00Z</time>
      </trkpt>
      <trkpt lat="41.99658" lon="0.75705">
        <ele>646.6</ele>
        <time>2019-01-31T11:05:07Z</time>
      </trkpt>
      <trkpt lat="41.99645" lon="0.75706">
        <ele>649.9</ele>
        <time>2019-01-31T11:05:14Z</time>
      </trkpt>
      <trkpt lat="41.99631" lon="0.75701">
        <ele>653.8</ele>
        <time>2019-01-31T11:05:22Z</time>
      </trkpt>
      <trkpt lat="41.99617" lon="0.75699">
        <ele>657.2</ele>
        <time>2019-01-31T11:05:30Z</time>
      </trkpt>
      <trkpt lat="41.99604" lon="0.75699">
        <ele>661.1</ele>
        <time>2019-01-31T11:05:37Z</time>
      </trkpt>
      <trkpt lat="41.9959" lon="0.75696">
        <ele>663.4</ele>
        <time>2019-01-31T11:05:46Z</time>
      </trkpt>
      <trkpt lat="41.99576" lon="0.75689">
        <ele>666.4</ele>
        <time>2019-01-31T11:05:54Z</time>
      </trkpt>
      <trkpt lat="41.99566" lon="0.75682">
        <ele>668.8</ele>
        <time>2019-01-31T11:06:00Z</time>
      </trkpt>
      <trkpt lat="41.99557" lon="0.75674">
        <ele>668.8</ele>
        <time>2019-01-31T11:06:07Z</time>
      </trkpt>
      <trkpt lat="41.99546" lon="0.75665">
        <ele>671.1</ele>
        <time>2019-01-31T11:06:14Z</time>
      </trkpt>
      <trkpt lat="41.99536" lon="0.75658">
        <ele>674</ele>
        <time>2019-01-31T11:06:20Z</time>
      </trkpt>
      <trkpt lat="41.99525" lon="0.7565">
        <ele>677</ele>
        <time>2019-01-31T11:06:28Z</time>
      </trkpt>
      <trkpt lat="41.99514" lon="0.75642">
        <ele>678.4</ele>
        <time>2019-01-31T11:06:35Z</time>
      </trkpt>
      <trkpt lat="41.99498" lon="0.75636">
        <ele>679.7</ele>
        <time>2019-01-31T11:06:44Z</time>
      </trkpt>
      <trkpt lat="41.99486" lon="0.75636">
        <ele>680.7</ele>
        <time>2019-01-31T11:06:51Z</time>
      </trkpt>
      <trkpt lat="41.99475" lon="0.75635">
        <ele>683.2</ele>
        <time>2019-01-31T11:06:58Z</time>
      </trkpt>
      <trkpt lat="41.99463" lon="0.75634">
        <ele>684.1</ele>
        <time>2019-01-31T11:07:04Z</time>
      </trkpt>
      <trkpt lat="41.9945" lon="0.75634">
        <ele>685.6</ele>
        <time>2019-01-31T11:07:12Z</time>
      </trkpt>
      <trkpt lat="41.99438" lon="0.75632">
        <ele>687.4</ele>
        <time>2019-01-31T11:07:18Z</time>
      </trkpt>
      <trkpt lat="41.99426" lon="0.75634">
        <ele>689.9</ele>
        <time>2019-01-31T11:07:25Z</time>
      </trkpt>
      <trkpt lat="41.99414" lon="0.75635">
        <ele>691.9</ele>
        <time>2019-01-31T11:07:32Z</time>
      </trkpt>
      <trkpt lat="41.99403" lon="0.75634">
        <ele>694.6</ele>
        <time>2019-01-31T11:07:39Z</time>
      </trkpt>
      <trkpt lat="41.99391" lon="0.75634">
        <ele>696.1</ele>
        <time>2019-01-31T11:07:46Z</time>
      </trkpt>
      <trkpt lat="41.9938" lon="0.75639">
        <ele>698.6</ele>
        <time>2019-01-31T11:07:52Z</time>
      </trkpt>
      <trkpt lat="41.99368" lon="0.75641">
        <ele>700.4</ele>
        <time>2019-01-31T11:07:59Z</time>
      </trkpt>
      <trkpt lat="41.99357" lon="0.75642">
        <ele>702</ele>
        <time>2019-01-31T11:08:05Z</time>
      </trkpt>
      <trkpt lat="41.99347" lon="0.75645">
        <ele>702.9</ele>
        <time>2019-01-31T11:08:11Z</time>
      </trkpt>
      <trkpt lat="41.99336" lon="0.75647">
        <ele>704.8</ele>
        <time>2019-01-31T11:08:18Z</time>
      </trkpt>
      <trkpt lat="41.99324" lon="0.75648">
        <ele>706.8</ele>
        <time>2019-01-31T11:08:24Z</time>
      </trkpt>
      <trkpt lat="41.99314" lon="0.75649">
        <ele>709.1</ele>
        <time>2019-01-31T11:08:30Z</time>
      </trkpt>
      <trkpt lat="41.99302" lon="0.75646">
        <ele>711.9</ele>
        <time>2019-01-31T11:08:37Z</time>
      </trkpt>
      <trkpt lat="41.99291" lon="0.75641">
        <ele>714</ele>
        <time>2019-01-31T11:08:44Z</time>
      </trkpt>
      <trkpt lat="41.99279" lon="0.75638">
        <ele>716.3</ele>
        <time>2019-01-31T11:08:51Z</time>
      </trkpt>
      <trkpt lat="41.99268" lon="0.75633">
        <ele>717.7</ele>
        <time>2019-01-31T11:08:57Z</time>
      </trkpt>
      <trkpt lat="41.99258" lon="0.7563">
        <ele>719.2</ele>
        <time>2019-01-31T11:09:03Z</time>
      </trkpt>
      <trkpt lat="41.99247" lon="0.75627">
        <ele>720.2</ele>
        <time>2019-01-31T11:09:10Z</time>
      </trkpt>
      <trkpt lat="41.99236" lon="0.75627">
        <ele>721.6</ele>
        <time>2019-01-31T11:09:16Z</time>
      </trkpt>
      <trkpt lat="41.99225" lon="0.75625">
        <ele>722</ele>
        <time>2019-01-31T11:09:22Z</time>
      </trkpt>
      <trkpt lat="41.99215" lon="0.75621">
        <ele>725.5</ele>
        <time>2019-01-31T11:09:29Z</time>
      </trkpt>
      <trkpt lat="41.99205" lon="0.75618">
        <ele>726</ele>
        <time>2019-01-31T11:09:34Z</time>
      </trkpt>
      <trkpt lat="41.99195" lon="0.75615">
        <ele>728.4</ele>
        <time>2019-01-31T11:09:40Z</time>
      </trkpt>
      <trkpt lat="41.99185" lon="0.75613">
        <ele>730.2</ele>
        <time>2019-01-31T11:09:46Z</time>
      </trkpt>
      <trkpt lat="41.99173" lon="0.75611">
        <ele>732.2</ele>
        <time>2019-01-31T11:09:53Z</time>
      </trkpt>
      <trkpt lat="41.99162" lon="0.75608">
        <ele>732.1</ele>
        <time>2019-01-31T11:09:59Z</time>
      </trkpt>
      <trkpt lat="41.99151" lon="0.75604">
        <ele>735.1</ele>
        <time>2019-01-31T11:10:06Z</time>
      </trkpt>
      <trkpt lat="41.9914" lon="0.75599">
        <ele>737.9</ele>
        <time>2019-01-31T11:10:12Z</time>
      </trkpt>
      <trkpt lat="41.9913" lon="0.75595">
        <ele>739.3</ele>
        <time>2019-01-31T11:10:18Z</time>
      </trkpt>
      <trkpt lat="41.9912" lon="0.75592">
        <ele>740.4</ele>
        <time>2019-01-31T11:10:24Z</time>
      </trkpt>
      <trkpt lat="41.9911" lon="0.7559">
        <ele>742.7</ele>
        <time>2019-01-31T11:10:30Z</time>
      </trkpt>
      <trkpt lat="41.991" lon="0.75588">
        <ele>744.6</ele>
        <time>2019-01-31T11:10:36Z</time>
      </trkpt>
      <trkpt lat="41.99085" lon="0.75577">
        <ele>746.6</ele>
        <time>2019-01-31T11:10:46Z</time>
      </trkpt>
      <trkpt lat="41.99074" lon="0.75575">
        <ele>747.6</ele>
        <time>2019-01-31T11:10:52Z</time>
      </trkpt>
      <trkpt lat="41.99064" lon="0.75571">
        <ele>749.1</ele>
        <time>2019-01-31T11:10:58Z</time>
      </trkpt>
      <trkpt lat="41.99053" lon="0.75566">
        <ele>749.9</ele>
        <time>2019-01-31T11:11:05Z</time>
      </trkpt>
      <trkpt lat="41.99041" lon="0.75561">
        <ele>751.9</ele>
        <time>2019-01-31T11:11:12Z</time>
      </trkpt>
      <trkpt lat="41.9902" lon="0.75547">
        <ele>754.2</ele>
        <time>2019-01-31T11:11:25Z</time>
      </trkpt>
      <trkpt lat="41.9901" lon="0.7554">
        <ele>755.3</ele>
        <time>2019-01-31T11:11:32Z</time>
      </trkpt>
      <trkpt lat="41.98999" lon="0.75532">
        <ele>756.2</ele>
        <time>2019-01-31T11:11:39Z</time>
      </trkpt>
      <trkpt lat="41.98989" lon="0.75524">
        <ele>756.6</ele>
        <time>2019-01-31T11:11:46Z</time>
      </trkpt>
      <trkpt lat="41.9898" lon="0.75517">
        <ele>757.6</ele>
        <time>2019-01-31T11:11:51Z</time>
      </trkpt>
      <trkpt lat="41.9897" lon="0.75511">
        <ele>758.2</ele>
        <time>2019-01-31T11:11:58Z</time>
      </trkpt>
      <trkpt lat="41.98961" lon="0.75504">
        <ele>758.7</ele>
        <time>2019-01-31T11:12:04Z</time>
      </trkpt>
      <trkpt lat="41.98952" lon="0.75498">
        <ele>760.1</ele>
        <time>2019-01-31T11:12:10Z</time>
      </trkpt>
      <trkpt lat="41.98942" lon="0.75491">
        <ele>759.6</ele>
        <time>2019-01-31T11:12:16Z</time>
      </trkpt>
      <trkpt lat="41.98934" lon="0.75483">
        <ele>762.5</ele>
        <time>2019-01-31T11:12:22Z</time>
      </trkpt>
      <trkpt lat="41.98922" lon="0.75473">
        <ele>763.5</ele>
        <time>2019-01-31T11:12:29Z</time>
      </trkpt>
      <trkpt lat="41.98912" lon="0.75464">
        <ele>765.9</ele>
        <time>2019-01-31T11:12:37Z</time>
      </trkpt>
      <trkpt lat="41.98901" lon="0.75456">
        <ele>765.8</ele>
        <time>2019-01-31T11:12:43Z</time>
      </trkpt>
      <trkpt lat="41.98892" lon="0.75446">
        <ele>766.8</ele>
        <time>2019-01-31T11:12:50Z</time>
      </trkpt>
      <trkpt lat="41.98882" lon="0.7544">
        <ele>767.7</ele>
        <time>2019-01-31T11:12:56Z</time>
      </trkpt>
      <trkpt lat="41.98872" lon="0.75435">
        <ele>770.1</ele>
        <time>2019-01-31T11:13:03Z</time>
      </trkpt>
      <trkpt lat="41.98861" lon="0.75428">
        <ele>770.6</ele>
        <time>2019-01-31T11:13:10Z</time>
      </trkpt>
      <trkpt lat="41.9885" lon="0.75425">
        <ele>772.1</ele>
        <time>2019-01-31T11:13:16Z</time>
      </trkpt>
      <trkpt lat="41.98839" lon="0.75421">
        <ele>773.1</ele>
        <time>2019-01-31T11:13:22Z</time>
      </trkpt>
      <trkpt lat="41.98827" lon="0.75414">
        <ele>774</ele>
        <time>2019-01-31T11:13:30Z</time>
      </trkpt>
      <trkpt lat="41.98817" lon="0.75409">
        <ele>775</ele>
        <time>2019-01-31T11:13:36Z</time>
      </trkpt>
      <trkpt lat="41.98807" lon="0.75402">
        <ele>775.9</ele>
        <time>2019-01-31T11:13:42Z</time>
      </trkpt>
      <trkpt lat="41.98795" lon="0.75398">
        <ele>777.4</ele>
        <time>2019-01-31T11:13:50Z</time>
      </trkpt>
      <trkpt lat="41.98783" lon="0.75397">
        <ele>778.9</ele>
        <time>2019-01-31T11:13:57Z</time>
      </trkpt>
      <trkpt lat="41.98772" lon="0.75394">
        <ele>779.8</ele>
        <time>2019-01-31T11:14:03Z</time>
      </trkpt>
      <trkpt lat="41.98763" lon="0.75384">
        <ele>779.8</ele>
        <time>2019-01-31T11:14:10Z</time>
      </trkpt>
      <trkpt lat="41.98757" lon="0.75375">
        <ele>780.7</ele>
        <time>2019-01-31T11:14:15Z</time>
      </trkpt>
      <trkpt lat="41.98744" lon="0.75369">
        <ele>781.2</ele>
        <time>2019-01-31T11:14:22Z</time>
      </trkpt>
      <trkpt lat="41.98731" lon="0.75363">
        <ele>781.7</ele>
        <time>2019-01-31T11:14:30Z</time>
      </trkpt>
      <trkpt lat="41.98719" lon="0.75353">
        <ele>783.2</ele>
        <time>2019-01-31T11:14:39Z</time>
      </trkpt>
      <trkpt lat="41.98712" lon="0.75338">
        <ele>785.1</ele>
        <time>2019-01-31T11:14:46Z</time>
      </trkpt>
      <trkpt lat="41.98701" lon="0.75328">
        <ele>786.5</ele>
        <time>2019-01-31T11:14:53Z</time>
      </trkpt>
      <trkpt lat="41.98689" lon="0.75318">
        <ele>789</ele>
        <time>2019-01-31T11:15:01Z</time>
      </trkpt>
      <trkpt lat="41.98681" lon="0.75307">
        <ele>790.9</ele>
        <time>2019-01-31T11:15:08Z</time>
      </trkpt>
      <trkpt lat="41.98673" lon="0.75296">
        <ele>792.7</ele>
        <time>2019-01-31T11:15:15Z</time>
      </trkpt>
      <trkpt lat="41.98662" lon="0.75287">
        <ele>794.7</ele>
        <time>2019-01-31T11:15:22Z</time>
      </trkpt>
      <trkpt lat="41.98653" lon="0.75278">
        <ele>796.1</ele>
        <time>2019-01-31T11:15:28Z</time>
      </trkpt>
      <trkpt lat="41.98644" lon="0.75269">
        <ele>797.6</ele>
        <time>2019-01-31T11:15:35Z</time>
      </trkpt>
      <trkpt lat="41.98633" lon="0.7526">
        <ele>798.9</ele>
        <time>2019-01-31T11:15:42Z</time>
      </trkpt>
      <trkpt lat="41.98619" lon="0.75253">
        <ele>801.4</ele>
        <time>2019-01-31T11:15:50Z</time>
      </trkpt>
      <trkpt lat="41.98609" lon="0.75244">
        <ele>803.9</ele>
        <time>2019-01-31T11:15:57Z</time>
      </trkpt>
      <trkpt lat="41.98599" lon="0.75236">
        <ele>805.8</ele>
        <time>2019-01-31T11:16:04Z</time>
      </trkpt>
      <trkpt lat="41.98594" lon="0.75223">
        <ele>806.2</ele>
        <time>2019-01-31T11:16:10Z</time>
      </trkpt>
      <trkpt lat="41.98588" lon="0.75212">
        <ele>808.6</ele>
        <time>2019-01-31T11:16:16Z</time>
      </trkpt>
      <trkpt lat="41.9858" lon="0.752">
        <ele>811.9</ele>
        <time>2019-01-31T11:16:23Z</time>
      </trkpt>
      <trkpt lat="41.98573" lon="0.75189">
        <ele>813.9</ele>
        <time>2019-01-31T11:16:29Z</time>
      </trkpt>
      <trkpt lat="41.98565" lon="0.75179">
        <ele>816.8</ele>
        <time>2019-01-31T11:16:35Z</time>
      </trkpt>
      <trkpt lat="41.98554" lon="0.75171">
        <ele>819.2</ele>
        <time>2019-01-31T11:16:43Z</time>
      </trkpt>
      <trkpt lat="41.98541" lon="0.75164">
        <ele>821.2</ele>
        <time>2019-01-31T11:16:50Z</time>
      </trkpt>
      <trkpt lat="41.98534" lon="0.75152">
        <ele>822.6</ele>
        <time>2019-01-31T11:16:57Z</time>
      </trkpt>
      <trkpt lat="41.98525" lon="0.75142">
        <ele>824.9</ele>
        <time>2019-01-31T11:17:04Z</time>
      </trkpt>
      <trkpt lat="41.98515" lon="0.75133">
        <ele>827.8</ele>
        <time>2019-01-31T11:17:11Z</time>
      </trkpt>
      <trkpt lat="41.98509" lon="0.7512">
        <ele>829.7</ele>
        <time>2019-01-31T11:17:17Z</time>
      </trkpt>
      <trkpt lat="41.98501" lon="0.75108">
        <ele>834.6</ele>
        <time>2019-01-31T11:17:24Z</time>
      </trkpt>
      <trkpt lat="41.98492" lon="0.75097">
        <ele>836.5</ele>
        <time>2019-01-31T11:17:31Z</time>
      </trkpt>
      <trkpt lat="41.98488" lon="0.75084">
        <ele>838.8</ele>
        <time>2019-01-31T11:17:37Z</time>
      </trkpt>
      <trkpt lat="41.98484" lon="0.75067">
        <ele>842.2</ele>
        <time>2019-01-31T11:17:44Z</time>
      </trkpt>
      <trkpt lat="41.98477" lon="0.75056">
        <ele>845.7</ele>
        <time>2019-01-31T11:17:50Z</time>
      </trkpt>
      <trkpt lat="41.98469" lon="0.75047">
        <ele>848.1</ele>
        <time>2019-01-31T11:17:57Z</time>
      </trkpt>
      <trkpt lat="41.98461" lon="0.75034">
        <ele>850.5</ele>
        <time>2019-01-31T11:18:04Z</time>
      </trkpt>
      <trkpt lat="41.98455" lon="0.75024">
        <ele>852.9</ele>
        <time>2019-01-31T11:18:09Z</time>
      </trkpt>
      <trkpt lat="41.98446" lon="0.75015">
        <ele>855.2</ele>
        <time>2019-01-31T11:18:15Z</time>
      </trkpt>
      <trkpt lat="41.98434" lon="0.7501">
        <ele>857.1</ele>
        <time>2019-01-31T11:18:23Z</time>
      </trkpt>
      <trkpt lat="41.98423" lon="0.75003">
        <ele>859</ele>
        <time>2019-01-31T11:18:30Z</time>
      </trkpt>
      <trkpt lat="41.98414" lon="0.74994">
        <ele>861.5</ele>
        <time>2019-01-31T11:18:36Z</time>
      </trkpt>
      <trkpt lat="41.98409" lon="0.7498">
        <ele>864.4</ele>
        <time>2019-01-31T11:18:43Z</time>
      </trkpt>
      <trkpt lat="41.98404" lon="0.74966">
        <ele>866.3</ele>
        <time>2019-01-31T11:18:49Z</time>
      </trkpt>
      <trkpt lat="41.98399" lon="0.74953">
        <ele>868.7</ele>
        <time>2019-01-31T11:18:55Z</time>
      </trkpt>
      <trkpt lat="41.98391" lon="0.74944">
        <ele>869.2</ele>
        <time>2019-01-31T11:19:02Z</time>
      </trkpt>
      <trkpt lat="41.9838" lon="0.74938">
        <ele>869.1</ele>
        <time>2019-01-31T11:19:08Z</time>
      </trkpt>
      <trkpt lat="41.98373" lon="0.74928">
        <ele>871.1</ele>
        <time>2019-01-31T11:19:14Z</time>
      </trkpt>
      <trkpt lat="41.98367" lon="0.74916">
        <ele>872.1</ele>
        <time>2019-01-31T11:19:20Z</time>
      </trkpt>
      <trkpt lat="41.98359" lon="0.74902">
        <ele>873.6</ele>
        <time>2019-01-31T11:19:28Z</time>
      </trkpt>
      <trkpt lat="41.98352" lon="0.74889">
        <ele>875.4</ele>
        <time>2019-01-31T11:19:34Z</time>
      </trkpt>
      <trkpt lat="41.98344" lon="0.74877">
        <ele>878.3</ele>
        <time>2019-01-31T11:19:41Z</time>
      </trkpt>
      <trkpt lat="41.98339" lon="0.74865">
        <ele>880.2</ele>
        <time>2019-01-31T11:19:47Z</time>
      </trkpt>
      <trkpt lat="41.98333" lon="0.74853">
        <ele>882.6</ele>
        <time>2019-01-31T11:19:53Z</time>
      </trkpt>
      <trkpt lat="41.98328" lon="0.74841">
        <ele>885.6</ele>
        <time>2019-01-31T11:19:59Z</time>
      </trkpt>
      <trkpt lat="41.9832" lon="0.74829">
        <ele>887.4</ele>
        <time>2019-01-31T11:20:06Z</time>
      </trkpt>
      <trkpt lat="41.98309" lon="0.74821">
        <ele>886.5</ele>
        <time>2019-01-31T11:20:13Z</time>
      </trkpt>
      <trkpt lat="41.98298" lon="0.74817">
        <ele>885.5</ele>
        <time>2019-01-31T11:20:20Z</time>
      </trkpt>
      <trkpt lat="41.98287" lon="0.74812">
        <ele>885.6</ele>
        <time>2019-01-31T11:20:26Z</time>
      </trkpt>
      <trkpt lat="41.98276" lon="0.74807">
        <ele>882.6</ele>
        <time>2019-01-31T11:20:33Z</time>
      </trkpt>
      <trkpt lat="41.98266" lon="0.74806">
        <ele>882.6</ele>
        <time>2019-01-31T11:20:39Z</time>
      </trkpt>
      <trkpt lat="41.98257" lon="0.74797">
        <ele>884</ele>
        <time>2019-01-31T11:20:45Z</time>
      </trkpt>
      <trkpt lat="41.98245" lon="0.7479">
        <ele>887.5</ele>
        <time>2019-01-31T11:20:53Z</time>
      </trkpt>
      <trkpt lat="41.98234" lon="0.74784">
        <ele>887.4</ele>
        <time>2019-01-31T11:20:59Z</time>
      </trkpt>
      <trkpt lat="41.98226" lon="0.74777">
        <ele>889.3</ele>
        <time>2019-01-31T11:21:05Z</time>
      </trkpt>
      <trkpt lat="41.98215" lon="0.74774">
        <ele>890.3</ele>
        <time>2019-01-31T11:21:11Z</time>
      </trkpt>
      <trkpt lat="41.98205" lon="0.74773">
        <ele>889.9</ele>
        <time>2019-01-31T11:21:17Z</time>
      </trkpt>
      <trkpt lat="41.98193" lon="0.74775">
        <ele>890.3</ele>
        <time>2019-01-31T11:21:24Z</time>
      </trkpt>
      <trkpt lat="41.98182" lon="0.74772">
        <ele>890.8</ele>
        <time>2019-01-31T11:21:30Z</time>
      </trkpt>
      <trkpt lat="41.98172" lon="0.74772">
        <ele>890.8</ele>
        <time>2019-01-31T11:21:36Z</time>
      </trkpt>
      <trkpt lat="41.9816" lon="0.74771">
        <ele>891.7</ele>
        <time>2019-01-31T11:21:43Z</time>
      </trkpt>
      <trkpt lat="41.9815" lon="0.7477">
        <ele>892.3</ele>
        <time>2019-01-31T11:21:49Z</time>
      </trkpt>
      <trkpt lat="41.9814" lon="0.7477">
        <ele>892.2</ele>
        <time>2019-01-31T11:21:54Z</time>
      </trkpt>
      <trkpt lat="41.9813" lon="0.74769">
        <ele>894.2</ele>
        <time>2019-01-31T11:22:00Z</time>
      </trkpt>
      <trkpt lat="41.98117" lon="0.74768">
        <ele>894.7</ele>
        <time>2019-01-31T11:22:08Z</time>
      </trkpt>
      <trkpt lat="41.98103" lon="0.74773">
        <ele>896</ele>
        <time>2019-01-31T11:22:16Z</time>
      </trkpt>
      <trkpt lat="41.98093" lon="0.74776">
        <ele>896</ele>
        <time>2019-01-31T11:22:22Z</time>
      </trkpt>
      <trkpt lat="41.98084" lon="0.74779">
        <ele>897.1</ele>
        <time>2019-01-31T11:22:27Z</time>
      </trkpt>
      <trkpt lat="41.98075" lon="0.74782">
        <ele>897</ele>
        <time>2019-01-31T11:22:33Z</time>
      </trkpt>
      <trkpt lat="41.98064" lon="0.74788">
        <ele>898.5</ele>
        <time>2019-01-31T11:22:39Z</time>
      </trkpt>
      <trkpt lat="41.98055" lon="0.74796">
        <ele>899</ele>
        <time>2019-01-31T11:22:45Z</time>
      </trkpt>
      <trkpt lat="41.98047" lon="0.74809">
        <ele>899</ele>
        <time>2019-01-31T11:22:53Z</time>
      </trkpt>
      <trkpt lat="41.98041" lon="0.74821">
        <ele>898.9</ele>
        <time>2019-01-31T11:22:59Z</time>
      </trkpt>
      <trkpt lat="41.98033" lon="0.74836">
        <ele>900</ele>
        <time>2019-01-31T11:23:07Z</time>
      </trkpt>
      <trkpt lat="41.98027" lon="0.74847">
        <ele>901.9</ele>
        <time>2019-01-31T11:23:13Z</time>
      </trkpt>
      <trkpt lat="41.98022" lon="0.7486">
        <ele>902.9</ele>
        <time>2019-01-31T11:23:19Z</time>
      </trkpt>
      <trkpt lat="41.98016" lon="0.74872">
        <ele>902.9</ele>
        <time>2019-01-31T11:23:25Z</time>
      </trkpt>
      <trkpt lat="41.98008" lon="0.74883">
        <ele>905.2</ele>
        <time>2019-01-31T11:23:31Z</time>
      </trkpt>
      <trkpt lat="41.98" lon="0.74894">
        <ele>908.1</ele>
        <time>2019-01-31T11:23:38Z</time>
      </trkpt>
      <trkpt lat="41.97992" lon="0.74905">
        <ele>909.5</ele>
        <time>2019-01-31T11:23:44Z</time>
      </trkpt>
      <trkpt lat="41.97985" lon="0.74918">
        <ele>911</ele>
        <time>2019-01-31T11:23:51Z</time>
      </trkpt>
      <trkpt lat="41.97978" lon="0.74928">
        <ele>912.4</ele>
        <time>2019-01-31T11:23:57Z</time>
      </trkpt>
      <trkpt lat="41.9797" lon="0.74938">
        <ele>912.4</ele>
        <time>2019-01-31T11:24:03Z</time>
      </trkpt>
      <trkpt lat="41.97967" lon="0.7495">
        <ele>912.4</ele>
        <time>2019-01-31T11:24:09Z</time>
      </trkpt>
      <trkpt lat="41.97964" lon="0.74964">
        <ele>912.4</ele>
        <time>2019-01-31T11:24:15Z</time>
      </trkpt>
      <trkpt lat="41.97957" lon="0.74976">
        <ele>912.4</ele>
        <time>2019-01-31T11:24:21Z</time>
      </trkpt>
      <trkpt lat="41.97952" lon="0.74988">
        <ele>913.4</ele>
        <time>2019-01-31T11:24:27Z</time>
      </trkpt>
      <trkpt lat="41.97946" lon="0.74998">
        <ele>913.9</ele>
        <time>2019-01-31T11:24:33Z</time>
      </trkpt>
      <trkpt lat="41.9794" lon="0.75009">
        <ele>914.9</ele>
        <time>2019-01-31T11:24:38Z</time>
      </trkpt>
      <trkpt lat="41.97933" lon="0.75021">
        <ele>916.2</ele>
        <time>2019-01-31T11:24:45Z</time>
      </trkpt>
      <trkpt lat="41.97926" lon="0.75029">
        <ele>917.7</ele>
        <time>2019-01-31T11:24:50Z</time>
      </trkpt>
      <trkpt lat="41.9792" lon="0.75037">
        <ele>921</ele>
        <time>2019-01-31T11:24:55Z</time>
      </trkpt>
      <trkpt lat="41.9791" lon="0.75045">
        <ele>924.5</ele>
        <time>2019-01-31T11:25:02Z</time>
      </trkpt>
      <trkpt lat="41.97903" lon="0.7506">
        <ele>924.9</ele>
        <time>2019-01-31T11:25:09Z</time>
      </trkpt>
      <trkpt lat="41.97897" lon="0.7507">
        <ele>925.9</ele>
        <time>2019-01-31T11:25:14Z</time>
      </trkpt>
      <trkpt lat="41.97888" lon="0.75081">
        <ele>926.9</ele>
        <time>2019-01-31T11:25:21Z</time>
      </trkpt>
      <trkpt lat="41.97881" lon="0.75091">
        <ele>928.3</ele>
        <time>2019-01-31T11:25:27Z</time>
      </trkpt>
      <trkpt lat="41.97873" lon="0.75102">
        <ele>929.3</ele>
        <time>2019-01-31T11:25:34Z</time>
      </trkpt>
      <trkpt lat="41.97865" lon="0.75114">
        <ele>929.2</ele>
        <time>2019-01-31T11:25:41Z</time>
      </trkpt>
      <trkpt lat="41.97859" lon="0.75125">
        <ele>929.7</ele>
        <time>2019-01-31T11:25:46Z</time>
      </trkpt>
      <trkpt lat="41.97856" lon="0.75138">
        <ele>930.7</ele>
        <time>2019-01-31T11:25:52Z</time>
      </trkpt>
      <trkpt lat="41.97853" lon="0.75151">
        <ele>931.6</ele>
        <time>2019-01-31T11:25:58Z</time>
      </trkpt>
      <trkpt lat="41.9785" lon="0.75165">
        <ele>933.1</ele>
        <time>2019-01-31T11:26:04Z</time>
      </trkpt>
      <trkpt lat="41.97847" lon="0.75178">
        <ele>934</ele>
        <time>2019-01-31T11:26:10Z</time>
      </trkpt>
      <trkpt lat="41.97841" lon="0.7519">
        <ele>934.5</ele>
        <time>2019-01-31T11:26:16Z</time>
      </trkpt>
      <trkpt lat="41.97835" lon="0.75202">
        <ele>935.1</ele>
        <time>2019-01-31T11:26:22Z</time>
      </trkpt>
      <trkpt lat="41.9783" lon="0.75213">
        <ele>935.9</ele>
        <time>2019-01-31T11:26:28Z</time>
      </trkpt>
      <trkpt lat="41.97826" lon="0.75225">
        <ele>936.9</ele>
        <time>2019-01-31T11:26:34Z</time>
      </trkpt>
      <trkpt lat="41.97822" lon="0.75237">
        <ele>938</ele>
        <time>2019-01-31T11:26:39Z</time>
      </trkpt>
      <trkpt lat="41.97818" lon="0.75249">
        <ele>938.9</ele>
        <time>2019-01-31T11:26:44Z</time>
      </trkpt>
      <trkpt lat="41.97811" lon="0.75259">
        <ele>939.8</ele>
        <time>2019-01-31T11:26:51Z</time>
      </trkpt>
      <trkpt lat="41.97803" lon="0.75269">
        <ele>939.9</ele>
        <time>2019-01-31T11:26:57Z</time>
      </trkpt>
      <trkpt lat="41.97795" lon="0.75277">
        <ele>940.7</ele>
        <time>2019-01-31T11:27:02Z</time>
      </trkpt>
      <trkpt lat="41.97789" lon="0.75287">
        <ele>942.2</ele>
        <time>2019-01-31T11:27:08Z</time>
      </trkpt>
      <trkpt lat="41.97783" lon="0.75298">
        <ele>942.2</ele>
        <time>2019-01-31T11:27:13Z</time>
      </trkpt>
      <trkpt lat="41.97778" lon="0.75309">
        <ele>942.2</ele>
        <time>2019-01-31T11:27:19Z</time>
      </trkpt>
      <trkpt lat="41.97774" lon="0.7532">
        <ele>942.3</ele>
        <time>2019-01-31T11:27:24Z</time>
      </trkpt>
      <trkpt lat="41.9777" lon="0.75331">
        <ele>941.8</ele>
        <time>2019-01-31T11:27:29Z</time>
      </trkpt>
      <trkpt lat="41.97767" lon="0.75343">
        <ele>941.8</ele>
        <time>2019-01-31T11:27:35Z</time>
      </trkpt>
      <trkpt lat="41.97764" lon="0.75355">
        <ele>941.2</ele>
        <time>2019-01-31T11:27:40Z</time>
      </trkpt>
      <trkpt lat="41.97763" lon="0.75368">
        <ele>941.3</ele>
        <time>2019-01-31T11:27:46Z</time>
      </trkpt>
      <trkpt lat="41.97761" lon="0.75381">
        <ele>939.8</ele>
        <time>2019-01-31T11:27:51Z</time>
      </trkpt>
      <trkpt lat="41.97758" lon="0.75394">
        <ele>939.9</ele>
        <time>2019-01-31T11:27:57Z</time>
      </trkpt>
      <trkpt lat="41.97756" lon="0.75407">
        <ele>940.3</ele>
        <time>2019-01-31T11:28:03Z</time>
      </trkpt>
      <trkpt lat="41.97754" lon="0.7542">
        <ele>940.3</ele>
        <time>2019-01-31T11:28:08Z</time>
      </trkpt>
      <trkpt lat="41.97752" lon="0.75434">
        <ele>940.7</ele>
        <time>2019-01-31T11:28:14Z</time>
      </trkpt>
      <trkpt lat="41.97751" lon="0.75447">
        <ele>942.2</ele>
        <time>2019-01-31T11:28:20Z</time>
      </trkpt>
      <trkpt lat="41.97751" lon="0.75462">
        <ele>940.8</ele>
        <time>2019-01-31T11:28:26Z</time>
      </trkpt>
      <trkpt lat="41.9775" lon="0.75476">
        <ele>942.2</ele>
        <time>2019-01-31T11:28:32Z</time>
      </trkpt>
      <trkpt lat="41.9775" lon="0.75492">
        <ele>941.7</ele>
        <time>2019-01-31T11:28:39Z</time>
      </trkpt>
      <trkpt lat="41.97751" lon="0.75505">
        <ele>941.7</ele>
        <time>2019-01-31T11:28:45Z</time>
      </trkpt>
      <trkpt lat="41.9775" lon="0.75519">
        <ele>941.7</ele>
        <time>2019-01-31T11:28:50Z</time>
      </trkpt>
      <trkpt lat="41.97751" lon="0.75531">
        <ele>941.8</ele>
        <time>2019-01-31T11:28:56Z</time>
      </trkpt>
      <trkpt lat="41.9775" lon="0.75546">
        <ele>941.7</ele>
        <time>2019-01-31T11:29:02Z</time>
      </trkpt>
      <trkpt lat="41.97748" lon="0.75558">
        <ele>941.7</ele>
        <time>2019-01-31T11:29:07Z</time>
      </trkpt>
      <trkpt lat="41.97746" lon="0.75571">
        <ele>941.2</ele>
        <time>2019-01-31T11:29:13Z</time>
      </trkpt>
      <trkpt lat="41.97745" lon="0.75585">
        <ele>941.3</ele>
        <time>2019-01-31T11:29:19Z</time>
      </trkpt>
      <trkpt lat="41.97742" lon="0.75598">
        <ele>941.2</ele>
        <time>2019-01-31T11:29:25Z</time>
      </trkpt>
      <trkpt lat="41.97741" lon="0.75613">
        <ele>941.7</ele>
        <time>2019-01-31T11:29:31Z</time>
      </trkpt>
      <trkpt lat="41.97739" lon="0.75627">
        <ele>940.7</ele>
        <time>2019-01-31T11:29:37Z</time>
      </trkpt>
      <trkpt lat="41.97737" lon="0.75641">
        <ele>940.7</ele>
        <time>2019-01-31T11:29:43Z</time>
      </trkpt>
      <trkpt lat="41.97734" lon="0.75655">
        <ele>940.4</ele>
        <time>2019-01-31T11:29:49Z</time>
      </trkpt>
      <trkpt lat="41.97731" lon="0.75666">
        <ele>940.3</ele>
        <time>2019-01-31T11:29:55Z</time>
      </trkpt>
      <trkpt lat="41.97728" lon="0.7568">
        <ele>938.4</ele>
        <time>2019-01-31T11:30:00Z</time>
      </trkpt>
      <trkpt lat="41.97725" lon="0.75693">
        <ele>938.3</ele>
        <time>2019-01-31T11:30:06Z</time>
      </trkpt>
      <trkpt lat="41.97721" lon="0.75704">
        <ele>938.4</ele>
        <time>2019-01-31T11:30:11Z</time>
      </trkpt>
      <trkpt lat="41.97718" lon="0.75716">
        <ele>938.4</ele>
        <time>2019-01-31T11:30:17Z</time>
      </trkpt>
      <trkpt lat="41.97712" lon="0.75728">
        <ele>938.3</ele>
        <time>2019-01-31T11:30:23Z</time>
      </trkpt>
      <trkpt lat="41.97707" lon="0.75739">
        <ele>938.4</ele>
        <time>2019-01-31T11:30:29Z</time>
      </trkpt>
      <trkpt lat="41.97701" lon="0.7575">
        <ele>938.3</ele>
        <time>2019-01-31T11:30:34Z</time>
      </trkpt>
      <trkpt lat="41.97695" lon="0.75762">
        <ele>938.3</ele>
        <time>2019-01-31T11:30:40Z</time>
      </trkpt>
      <trkpt lat="41.97689" lon="0.75773">
        <ele>938.4</ele>
        <time>2019-01-31T11:30:46Z</time>
      </trkpt>
      <trkpt lat="41.97682" lon="0.75785">
        <ele>938.4</ele>
        <time>2019-01-31T11:30:53Z</time>
      </trkpt>
      <trkpt lat="41.97676" lon="0.75797">
        <ele>939.4</ele>
        <time>2019-01-31T11:30:59Z</time>
      </trkpt>
      <trkpt lat="41.9767" lon="0.75808">
        <ele>939.3</ele>
        <time>2019-01-31T11:31:05Z</time>
      </trkpt>
      <trkpt lat="41.97664" lon="0.75821">
        <ele>939.3</ele>
        <time>2019-01-31T11:31:11Z</time>
      </trkpt>
      <trkpt lat="41.97659" lon="0.75834">
        <ele>940.4</ele>
        <time>2019-01-31T11:31:18Z</time>
      </trkpt>
      <trkpt lat="41.97656" lon="0.75849">
        <ele>941.8</ele>
        <time>2019-01-31T11:31:24Z</time>
      </trkpt>
      <trkpt lat="41.97654" lon="0.75864">
        <ele>943.7</ele>
        <time>2019-01-31T11:31:30Z</time>
      </trkpt>
      <trkpt lat="41.97654" lon="0.75877">
        <ele>943.7</ele>
        <time>2019-01-31T11:31:36Z</time>
      </trkpt>
      <trkpt lat="41.97654" lon="0.75892">
        <ele>943.6</ele>
        <time>2019-01-31T11:31:43Z</time>
      </trkpt>
      <trkpt lat="41.97655" lon="0.75907">
        <ele>943.6</ele>
        <time>2019-01-31T11:31:49Z</time>
      </trkpt>
      <trkpt lat="41.97656" lon="0.75921">
        <ele>943.1</ele>
        <time>2019-01-31T11:31:55Z</time>
      </trkpt>
      <trkpt lat="41.97656" lon="0.75935">
        <ele>943.1</ele>
        <time>2019-01-31T11:32:01Z</time>
      </trkpt>
      <trkpt lat="41.97655" lon="0.7595">
        <ele>943.1</ele>
        <time>2019-01-31T11:32:07Z</time>
      </trkpt>
      <trkpt lat="41.97653" lon="0.75964">
        <ele>943.2</ele>
        <time>2019-01-31T11:32:13Z</time>
      </trkpt>
      <trkpt lat="41.97651" lon="0.75977">
        <ele>943.2</ele>
        <time>2019-01-31T11:32:19Z</time>
      </trkpt>
      <trkpt lat="41.97647" lon="0.75992">
        <ele>942.8</ele>
        <time>2019-01-31T11:32:26Z</time>
      </trkpt>
      <trkpt lat="41.97642" lon="0.76004">
        <ele>942.2</ele>
        <time>2019-01-31T11:32:32Z</time>
      </trkpt>
      <trkpt lat="41.97636" lon="0.76016">
        <ele>942.2</ele>
        <time>2019-01-31T11:32:37Z</time>
      </trkpt>
      <trkpt lat="41.97631" lon="0.76028">
        <ele>942.3</ele>
        <time>2019-01-31T11:32:43Z</time>
      </trkpt>
      <trkpt lat="41.97627" lon="0.7604">
        <ele>942.3</ele>
        <time>2019-01-31T11:32:49Z</time>
      </trkpt>
      <trkpt lat="41.97624" lon="0.76053">
        <ele>942.2</ele>
        <time>2019-01-31T11:32:55Z</time>
      </trkpt>
      <trkpt lat="41.97622" lon="0.76065">
        <ele>942.2</ele>
        <time>2019-01-31T11:33:00Z</time>
      </trkpt>
      <trkpt lat="41.97619" lon="0.76078">
        <ele>942.2</ele>
        <time>2019-01-31T11:33:06Z</time>
      </trkpt>
      <trkpt lat="41.97614" lon="0.7609">
        <ele>942.2</ele>
        <time>2019-01-31T11:33:12Z</time>
      </trkpt>
      <trkpt lat="41.9761" lon="0.76104">
        <ele>942.3</ele>
        <time>2019-01-31T11:33:18Z</time>
      </trkpt>
      <trkpt lat="41.97607" lon="0.76115">
        <ele>942.3</ele>
        <time>2019-01-31T11:33:23Z</time>
      </trkpt>
      <trkpt lat="41.97603" lon="0.76128">
        <ele>942.3</ele>
        <time>2019-01-31T11:33:29Z</time>
      </trkpt>
      <trkpt lat="41.97599" lon="0.76142">
        <ele>941.8</ele>
        <time>2019-01-31T11:33:35Z</time>
      </trkpt>
      <trkpt lat="41.97596" lon="0.76156">
        <ele>941.3</ele>
        <time>2019-01-31T11:33:42Z</time>
      </trkpt>
      <trkpt lat="41.97591" lon="0.76168">
        <ele>941.3</ele>
        <time>2019-01-31T11:33:47Z</time>
      </trkpt>
      <trkpt lat="41.97586" lon="0.76177">
        <ele>941.2</ele>
        <time>2019-01-31T11:33:53Z</time>
      </trkpt>
      <trkpt lat="41.97578" lon="0.76185">
        <ele>941.2</ele>
        <time>2019-01-31T11:33:58Z</time>
      </trkpt>
      <trkpt lat="41.97568" lon="0.76192">
        <ele>941.2</ele>
        <time>2019-01-31T11:34:04Z</time>
      </trkpt>
      <trkpt lat="41.97559" lon="0.76199">
        <ele>940.7</ele>
        <time>2019-01-31T11:34:10Z</time>
      </trkpt>
      <trkpt lat="41.97551" lon="0.76205">
        <ele>940.7</ele>
        <time>2019-01-31T11:34:16Z</time>
      </trkpt>
      <trkpt lat="41.97543" lon="0.76212">
        <ele>940.4</ele>
        <time>2019-01-31T11:34:21Z</time>
      </trkpt>
      <trkpt lat="41.97533" lon="0.7622">
        <ele>940.3</ele>
        <time>2019-01-31T11:34:28Z</time>
      </trkpt>
      <trkpt lat="41.97522" lon="0.76224">
        <ele>940.4</ele>
        <time>2019-01-31T11:34:34Z</time>
      </trkpt>
      <trkpt lat="41.97512" lon="0.76228">
        <ele>939.4</ele>
        <time>2019-01-31T11:34:40Z</time>
      </trkpt>
      <trkpt lat="41.97501" lon="0.7623">
        <ele>938.9</ele>
        <time>2019-01-31T11:34:47Z</time>
      </trkpt>
      <trkpt lat="41.97489" lon="0.76233">
        <ele>938.4</ele>
        <time>2019-01-31T11:34:53Z</time>
      </trkpt>
      <trkpt lat="41.97478" lon="0.76235">
        <ele>938.3</ele>
        <time>2019-01-31T11:35:00Z</time>
      </trkpt>
      <trkpt lat="41.97468" lon="0.76236">
        <ele>938.4</ele>
        <time>2019-01-31T11:35:06Z</time>
      </trkpt>
      <trkpt lat="41.97457" lon="0.76235">
        <ele>938.4</ele>
        <time>2019-01-31T11:35:12Z</time>
      </trkpt>
      <trkpt lat="41.97448" lon="0.76234">
        <ele>938.3</ele>
        <time>2019-01-31T11:35:17Z</time>
      </trkpt>
      <trkpt lat="41.97437" lon="0.76233">
        <ele>937.4</ele>
        <time>2019-01-31T11:35:24Z</time>
      </trkpt>
      <trkpt lat="41.97427" lon="0.76233">
        <ele>936.9</ele>
        <time>2019-01-31T11:35:29Z</time>
      </trkpt>
      <trkpt lat="41.97416" lon="0.76233">
        <ele>936.4</ele>
        <time>2019-01-31T11:35:35Z</time>
      </trkpt>
      <trkpt lat="41.97405" lon="0.76232">
        <ele>936</ele>
        <time>2019-01-31T11:35:42Z</time>
      </trkpt>
      <trkpt lat="41.97395" lon="0.76231">
        <ele>935.9</ele>
        <time>2019-01-31T11:35:47Z</time>
      </trkpt>
      <trkpt lat="41.97384" lon="0.76233">
        <ele>936</ele>
        <time>2019-01-31T11:35:54Z</time>
      </trkpt>
      <trkpt lat="41.97374" lon="0.76238">
        <ele>935.9</ele>
        <time>2019-01-31T11:36:00Z</time>
      </trkpt>
      <trkpt lat="41.97365" lon="0.76244">
        <ele>935.5</ele>
        <time>2019-01-31T11:36:05Z</time>
      </trkpt>
      <trkpt lat="41.97357" lon="0.7625">
        <ele>935.1</ele>
        <time>2019-01-31T11:36:11Z</time>
      </trkpt>
      <trkpt lat="41.97347" lon="0.76255">
        <ele>935.6</ele>
        <time>2019-01-31T11:36:17Z</time>
      </trkpt>
      <trkpt lat="41.97338" lon="0.7626">
        <ele>935.1</ele>
        <time>2019-01-31T11:36:23Z</time>
      </trkpt>
      <trkpt lat="41.97328" lon="0.76268">
        <ele>935.1</ele>
        <time>2019-01-31T11:36:29Z</time>
      </trkpt>
      <trkpt lat="41.9732" lon="0.76277">
        <ele>935</ele>
        <time>2019-01-31T11:36:35Z</time>
      </trkpt>
      <trkpt lat="41.97311" lon="0.76286">
        <ele>935</ele>
        <time>2019-01-31T11:36:41Z</time>
      </trkpt>
      <trkpt lat="41.97303" lon="0.76295">
        <ele>935</ele>
        <time>2019-01-31T11:36:48Z</time>
      </trkpt>
      <trkpt lat="41.97295" lon="0.76305">
        <ele>935.1</ele>
        <time>2019-01-31T11:36:54Z</time>
      </trkpt>
      <trkpt lat="41.97289" lon="0.76316">
        <ele>935</ele>
        <time>2019-01-31T11:37:00Z</time>
      </trkpt>
      <trkpt lat="41.97285" lon="0.76329">
        <ele>935</ele>
        <time>2019-01-31T11:37:05Z</time>
      </trkpt>
      <trkpt lat="41.97282" lon="0.76342">
        <ele>934</ele>
        <time>2019-01-31T11:37:11Z</time>
      </trkpt>
      <trkpt lat="41.9728" lon="0.76357">
        <ele>933.5</ele>
        <time>2019-01-31T11:37:18Z</time>
      </trkpt>
      <trkpt lat="41.97279" lon="0.76369">
        <ele>933.5</ele>
        <time>2019-01-31T11:37:23Z</time>
      </trkpt>
      <trkpt lat="41.97279" lon="0.76383">
        <ele>933.5</ele>
        <time>2019-01-31T11:37:29Z</time>
      </trkpt>
      <trkpt lat="41.97279" lon="0.76398">
        <ele>933.2</ele>
        <time>2019-01-31T11:37:35Z</time>
      </trkpt>
      <trkpt lat="41.9728" lon="0.76411">
        <ele>932.7</ele>
        <time>2019-01-31T11:37:41Z</time>
      </trkpt>
      <trkpt lat="41.97279" lon="0.76424">
        <ele>932.6</ele>
        <time>2019-01-31T11:37:46Z</time>
      </trkpt>
      <trkpt lat="41.97279" lon="0.76438">
        <ele>932.6</ele>
        <time>2019-01-31T11:37:52Z</time>
      </trkpt>
      <trkpt lat="41.97277" lon="0.76452">
        <ele>932.1</ele>
        <time>2019-01-31T11:37:58Z</time>
      </trkpt>
      <trkpt lat="41.97275" lon="0.76466">
        <ele>932.1</ele>
        <time>2019-01-31T11:38:04Z</time>
      </trkpt>
      <trkpt lat="41.97271" lon="0.76481">
        <ele>932.1</ele>
        <time>2019-01-31T11:38:11Z</time>
      </trkpt>
      <trkpt lat="41.97268" lon="0.76495">
        <ele>931.7</ele>
        <time>2019-01-31T11:38:17Z</time>
      </trkpt>
      <trkpt lat="41.97266" lon="0.76509">
        <ele>931.2</ele>
        <time>2019-01-31T11:38:23Z</time>
      </trkpt>
      <trkpt lat="41.97264" lon="0.76522">
        <ele>931.2</ele>
        <time>2019-01-31T11:38:29Z</time>
      </trkpt>
      <trkpt lat="41.97262" lon="0.76536">
        <ele>931.2</ele>
        <time>2019-01-31T11:38:35Z</time>
      </trkpt>
      <trkpt lat="41.9726" lon="0.76548">
        <ele>930.6</ele>
        <time>2019-01-31T11:38:40Z</time>
      </trkpt>
      <trkpt lat="41.97257" lon="0.76563">
        <ele>930.3</ele>
        <time>2019-01-31T11:38:47Z</time>
      </trkpt>
      <trkpt lat="41.97255" lon="0.76578">
        <ele>930.2</ele>
        <time>2019-01-31T11:38:53Z</time>
      </trkpt>
      <trkpt lat="41.97253" lon="0.7659">
        <ele>929.7</ele>
        <time>2019-01-31T11:38:59Z</time>
      </trkpt>
      <trkpt lat="41.9725" lon="0.76602">
        <ele>929.2</ele>
        <time>2019-01-31T11:39:04Z</time>
      </trkpt>
      <trkpt lat="41.97247" lon="0.76616">
        <ele>928.8</ele>
        <time>2019-01-31T11:39:10Z</time>
      </trkpt>
      <trkpt lat="41.97244" lon="0.76629">
        <ele>928.7</ele>
        <time>2019-01-31T11:39:16Z</time>
      </trkpt>
      <trkpt lat="41.97241" lon="0.76642">
        <ele>928.3</ele>
        <time>2019-01-31T11:39:22Z</time>
      </trkpt>
      <trkpt lat="41.97239" lon="0.76655">
        <ele>928.3</ele>
        <time>2019-01-31T11:39:28Z</time>
      </trkpt>
      <trkpt lat="41.97235" lon="0.76668">
        <ele>927.9</ele>
        <time>2019-01-31T11:39:33Z</time>
      </trkpt>
      <trkpt lat="41.97231" lon="0.7668">
        <ele>927.8</ele>
        <time>2019-01-31T11:39:39Z</time>
      </trkpt>
      <trkpt lat="41.97226" lon="0.76692">
        <ele>927.9</ele>
        <time>2019-01-31T11:39:45Z</time>
      </trkpt>
      <trkpt lat="41.97221" lon="0.76705">
        <ele>927.9</ele>
        <time>2019-01-31T11:39:51Z</time>
      </trkpt>
      <trkpt lat="41.97216" lon="0.76716">
        <ele>927.9</ele>
        <time>2019-01-31T11:39:56Z</time>
      </trkpt>
      <trkpt lat="41.97209" lon="0.76726">
        <ele>927.8</ele>
        <time>2019-01-31T11:40:02Z</time>
      </trkpt>
      <trkpt lat="41.972" lon="0.76735">
        <ele>927.8</ele>
        <time>2019-01-31T11:40:09Z</time>
      </trkpt>
      <trkpt lat="41.97191" lon="0.76743">
        <ele>927.8</ele>
        <time>2019-01-31T11:40:15Z</time>
      </trkpt>
      <trkpt lat="41.97182" lon="0.76753">
        <ele>927.4</ele>
        <time>2019-01-31T11:40:21Z</time>
      </trkpt>
      <trkpt lat="41.97176" lon="0.76763">
        <ele>927.4</ele>
        <time>2019-01-31T11:40:27Z</time>
      </trkpt>
      <trkpt lat="41.97169" lon="0.76772">
        <ele>927.4</ele>
        <time>2019-01-31T11:40:33Z</time>
      </trkpt>
      <trkpt lat="41.97161" lon="0.76783">
        <ele>927.4</ele>
        <time>2019-01-31T11:40:39Z</time>
      </trkpt>
      <trkpt lat="41.97155" lon="0.76794">
        <ele>927.4</ele>
        <time>2019-01-31T11:40:45Z</time>
      </trkpt>
      <trkpt lat="41.97148" lon="0.76804">
        <ele>925.9</ele>
        <time>2019-01-31T11:40:51Z</time>
      </trkpt>
      <trkpt lat="41.97139" lon="0.76812">
        <ele>928.8</ele>
        <time>2019-01-31T11:40:57Z</time>
      </trkpt>
      <trkpt lat="41.97129" lon="0.76817">
        <ele>928.8</ele>
        <time>2019-01-31T11:41:03Z</time>
      </trkpt>
      <trkpt lat="41.9712" lon="0.76824">
        <ele>928.8</ele>
        <time>2019-01-31T11:41:09Z</time>
      </trkpt>
      <trkpt lat="41.97112" lon="0.76834">
        <ele>928.3</ele>
        <time>2019-01-31T11:41:15Z</time>
      </trkpt>
      <trkpt lat="41.97107" lon="0.76846">
        <ele>928.7</ele>
        <time>2019-01-31T11:41:21Z</time>
      </trkpt>
      <trkpt lat="41.97103" lon="0.76858">
        <ele>928.7</ele>
        <time>2019-01-31T11:41:27Z</time>
      </trkpt>
      <trkpt lat="41.971" lon="0.76871">
        <ele>928.3</ele>
        <time>2019-01-31T11:41:32Z</time>
      </trkpt>
      <trkpt lat="41.97097" lon="0.76884">
        <ele>928.2</ele>
        <time>2019-01-31T11:41:38Z</time>
      </trkpt>
      <trkpt lat="41.97093" lon="0.76896">
        <ele>927.8</ele>
        <time>2019-01-31T11:41:44Z</time>
      </trkpt>
      <trkpt lat="41.97091" lon="0.76911">
        <ele>927.8</ele>
        <time>2019-01-31T11:41:50Z</time>
      </trkpt>
      <trkpt lat="41.97088" lon="0.76924">
        <ele>927.8</ele>
        <time>2019-01-31T11:41:56Z</time>
      </trkpt>
      <trkpt lat="41.97086" lon="0.76938">
        <ele>927.4</ele>
        <time>2019-01-31T11:42:02Z</time>
      </trkpt>
      <trkpt lat="41.97083" lon="0.76954">
        <ele>927.3</ele>
        <time>2019-01-31T11:42:09Z</time>
      </trkpt>
      <trkpt lat="41.97079" lon="0.76968">
        <ele>925.9</ele>
        <time>2019-01-31T11:42:15Z</time>
      </trkpt>
      <trkpt lat="41.97076" lon="0.76981">
        <ele>925.9</ele>
        <time>2019-01-31T11:42:21Z</time>
      </trkpt>
      <trkpt lat="41.97076" lon="0.76996">
        <ele>925.9</ele>
        <time>2019-01-31T11:42:28Z</time>
      </trkpt>
      <trkpt lat="41.97077" lon="0.77011">
        <ele>927.3</ele>
        <time>2019-01-31T11:42:34Z</time>
      </trkpt>
      <trkpt lat="41.9708" lon="0.77026">
        <ele>927.3</ele>
        <time>2019-01-31T11:42:41Z</time>
      </trkpt>
      <trkpt lat="41.97083" lon="0.77039">
        <ele>927.3</ele>
        <time>2019-01-31T11:42:46Z</time>
      </trkpt>
      <trkpt lat="41.97085" lon="0.77054">
        <ele>928.2</ele>
        <time>2019-01-31T11:42:53Z</time>
      </trkpt>
      <trkpt lat="41.97086" lon="0.77068">
        <ele>928.3</ele>
        <time>2019-01-31T11:42:59Z</time>
      </trkpt>
      <trkpt lat="41.97088" lon="0.77082">
        <ele>928.3</ele>
        <time>2019-01-31T11:43:05Z</time>
      </trkpt>
      <trkpt lat="41.9709" lon="0.77095">
        <ele>928.2</ele>
        <time>2019-01-31T11:43:10Z</time>
      </trkpt>
      <trkpt lat="41.97091" lon="0.77109">
        <ele>928.3</ele>
        <time>2019-01-31T11:43:16Z</time>
      </trkpt>
      <trkpt lat="41.97093" lon="0.77122">
        <ele>928.2</ele>
        <time>2019-01-31T11:43:22Z</time>
      </trkpt>
      <trkpt lat="41.97094" lon="0.77136">
        <ele>928.3</ele>
        <time>2019-01-31T11:43:28Z</time>
      </trkpt>
      <trkpt lat="41.97094" lon="0.77149">
        <ele>928.2</ele>
        <time>2019-01-31T11:43:34Z</time>
      </trkpt>
      <trkpt lat="41.97094" lon="0.77163">
        <ele>928.2</ele>
        <time>2019-01-31T11:43:40Z</time>
      </trkpt>
      <trkpt lat="41.97093" lon="0.77178">
        <ele>928.2</ele>
        <time>2019-01-31T11:43:46Z</time>
      </trkpt>
      <trkpt lat="41.97093" lon="0.77191">
        <ele>928.2</ele>
        <time>2019-01-31T11:43:51Z</time>
      </trkpt>
      <trkpt lat="41.97093" lon="0.77204">
        <ele>928.2</ele>
        <time>2019-01-31T11:43:57Z</time>
      </trkpt>
      <trkpt lat="41.97096" lon="0.77219">
        <ele>928.3</ele>
        <time>2019-01-31T11:44:03Z</time>
      </trkpt>
      <trkpt lat="41.97101" lon="0.77232">
        <ele>928.3</ele>
        <time>2019-01-31T11:44:10Z</time>
      </trkpt>
      <trkpt lat="41.97107" lon="0.77245">
        <ele>928.3</ele>
        <time>2019-01-31T11:44:16Z</time>
      </trkpt>
      <trkpt lat="41.97111" lon="0.77258">
        <ele>927.8</ele>
        <time>2019-01-31T11:44:22Z</time>
      </trkpt>
      <trkpt lat="41.97115" lon="0.77272">
        <ele>927.8</ele>
        <time>2019-01-31T11:44:29Z</time>
      </trkpt>
      <trkpt lat="41.9712" lon="0.77287">
        <ele>927.8</ele>
        <time>2019-01-31T11:44:36Z</time>
      </trkpt>
      <trkpt lat="41.97126" lon="0.77301">
        <ele>926.4</ele>
        <time>2019-01-31T11:44:43Z</time>
      </trkpt>
      <trkpt lat="41.9713" lon="0.77315">
        <ele>926.3</ele>
        <time>2019-01-31T11:44:49Z</time>
      </trkpt>
      <trkpt lat="41.97134" lon="0.7733">
        <ele>926.4</ele>
        <time>2019-01-31T11:44:56Z</time>
      </trkpt>
      <trkpt lat="41.97138" lon="0.77344">
        <ele>927.3</ele>
        <time>2019-01-31T11:45:02Z</time>
      </trkpt>
      <trkpt lat="41.97141" lon="0.77356">
        <ele>927.8</ele>
        <time>2019-01-31T11:45:08Z</time>
      </trkpt>
      <trkpt lat="41.97146" lon="0.77369">
        <ele>927.8</ele>
        <time>2019-01-31T11:45:14Z</time>
      </trkpt>
      <trkpt lat="41.97151" lon="0.77381">
        <ele>928.3</ele>
        <time>2019-01-31T11:45:20Z</time>
      </trkpt>
      <trkpt lat="41.97157" lon="0.77394">
        <ele>928.8</ele>
        <time>2019-01-31T11:45:26Z</time>
      </trkpt>
      <trkpt lat="41.97163" lon="0.77407">
        <ele>930.3</ele>
        <time>2019-01-31T11:45:33Z</time>
      </trkpt>
      <trkpt lat="41.97169" lon="0.77419">
        <ele>930.2</ele>
        <time>2019-01-31T11:45:39Z</time>
      </trkpt>
      <trkpt lat="41.97174" lon="0.77431">
        <ele>930.3</ele>
        <time>2019-01-31T11:45:44Z</time>
      </trkpt>
      <trkpt lat="41.97179" lon="0.77442">
        <ele>930.2</ele>
        <time>2019-01-31T11:45:50Z</time>
      </trkpt>
      <trkpt lat="41.97183" lon="0.77456">
        <ele>930.3</ele>
        <time>2019-01-31T11:45:56Z</time>
      </trkpt>
      <trkpt lat="41.97187" lon="0.7747">
        <ele>930.6</ele>
        <time>2019-01-31T11:46:03Z</time>
      </trkpt>
      <trkpt lat="41.97187" lon="0.77485">
        <ele>931.6</ele>
        <time>2019-01-31T11:46:09Z</time>
      </trkpt>
      <trkpt lat="41.97187" lon="0.775">
        <ele>932.6</ele>
        <time>2019-01-31T11:46:15Z</time>
      </trkpt>
      <trkpt lat="41.97187" lon="0.77514">
        <ele>932.6</ele>
        <time>2019-01-31T11:46:21Z</time>
      </trkpt>
      <trkpt lat="41.97189" lon="0.77528">
        <ele>933.5</ele>
        <time>2019-01-31T11:46:28Z</time>
      </trkpt>
      <trkpt lat="41.9719" lon="0.77543">
        <ele>933.6</ele>
        <time>2019-01-31T11:46:34Z</time>
      </trkpt>
      <trkpt lat="41.97193" lon="0.77559">
        <ele>934.1</ele>
        <time>2019-01-31T11:46:41Z</time>
      </trkpt>
      <trkpt lat="41.97198" lon="0.77574">
        <ele>935.1</ele>
        <time>2019-01-31T11:46:48Z</time>
      </trkpt>
      <trkpt lat="41.97206" lon="0.77587">
        <ele>935.9</ele>
        <time>2019-01-31T11:46:55Z</time>
      </trkpt>
      <trkpt lat="41.97213" lon="0.77597">
        <ele>937</ele>
        <time>2019-01-31T11:47:01Z</time>
      </trkpt>
      <trkpt lat="41.9722" lon="0.77607">
        <ele>938.8</ele>
        <time>2019-01-31T11:47:07Z</time>
      </trkpt>
      <trkpt lat="41.97226" lon="0.77616">
        <ele>938.9</ele>
        <time>2019-01-31T11:47:12Z</time>
      </trkpt>
      <trkpt lat="41.97232" lon="0.77626">
        <ele>939.9</ele>
        <time>2019-01-31T11:47:17Z</time>
      </trkpt>
      <trkpt lat="41.9724" lon="0.77636">
        <ele>941.3</ele>
        <time>2019-01-31T11:47:24Z</time>
      </trkpt>
      <trkpt lat="41.97248" lon="0.77645">
        <ele>941.7</ele>
        <time>2019-01-31T11:47:29Z</time>
      </trkpt>
      <trkpt lat="41.97255" lon="0.77656">
        <ele>942.2</ele>
        <time>2019-01-31T11:47:36Z</time>
      </trkpt>
      <trkpt lat="41.97262" lon="0.77666">
        <ele>942.2</ele>
        <time>2019-01-31T11:47:41Z</time>
      </trkpt>
      <trkpt lat="41.97268" lon="0.77674">
        <ele>942.2</ele>
        <time>2019-01-31T11:47:46Z</time>
      </trkpt>
      <trkpt lat="41.97272" lon="0.77686">
        <ele>942.2</ele>
        <time>2019-01-31T11:47:52Z</time>
      </trkpt>
      <trkpt lat="41.97277" lon="0.77699">
        <ele>943.6</ele>
        <time>2019-01-31T11:47:58Z</time>
      </trkpt>
      <trkpt lat="41.9728" lon="0.77713">
        <ele>943.6</ele>
        <time>2019-01-31T11:48:04Z</time>
      </trkpt>
      <trkpt lat="41.97283" lon="0.77725">
        <ele>943.6</ele>
        <time>2019-01-31T11:48:10Z</time>
      </trkpt>
      <trkpt lat="41.97285" lon="0.77739">
        <ele>943.7</ele>
        <time>2019-01-31T11:48:16Z</time>
      </trkpt>
      <trkpt lat="41.97286" lon="0.77752">
        <ele>943.6</ele>
        <time>2019-01-31T11:48:21Z</time>
      </trkpt>
      <trkpt lat="41.97286" lon="0.77765">
        <ele>943.1</ele>
        <time>2019-01-31T11:48:27Z</time>
      </trkpt>
      <trkpt lat="41.97285" lon="0.77779">
        <ele>943.1</ele>
        <time>2019-01-31T11:48:33Z</time>
      </trkpt>
      <trkpt lat="41.97284" lon="0.77792">
        <ele>943.1</ele>
        <time>2019-01-31T11:48:38Z</time>
      </trkpt>
      <trkpt lat="41.97281" lon="0.77805">
        <ele>943.1</ele>
        <time>2019-01-31T11:48:44Z</time>
      </trkpt>
      <trkpt lat="41.97278" lon="0.77818">
        <ele>943.1</ele>
        <time>2019-01-31T11:48:50Z</time>
      </trkpt>
      <trkpt lat="41.97272" lon="0.77829">
        <ele>943.2</ele>
        <time>2019-01-31T11:48:56Z</time>
      </trkpt>
      <trkpt lat="41.97265" lon="0.7784">
        <ele>943.2</ele>
        <time>2019-01-31T11:49:01Z</time>
      </trkpt>
      <trkpt lat="41.97259" lon="0.77849">
        <ele>943.1</ele>
        <time>2019-01-31T11:49:07Z</time>
      </trkpt>
      <trkpt lat="41.97251" lon="0.7786">
        <ele>943.1</ele>
        <time>2019-01-31T11:49:13Z</time>
      </trkpt>
      <trkpt lat="41.97244" lon="0.7787">
        <ele>943.2</ele>
        <time>2019-01-31T11:49:19Z</time>
      </trkpt>
      <trkpt lat="41.97238" lon="0.7788">
        <ele>942.8</ele>
        <time>2019-01-31T11:49:25Z</time>
      </trkpt>
      <trkpt lat="41.9723" lon="0.7789">
        <ele>942.8</ele>
        <time>2019-01-31T11:49:31Z</time>
      </trkpt>
      <trkpt lat="41.97224" lon="0.779">
        <ele>942.8</ele>
        <time>2019-01-31T11:49:36Z</time>
      </trkpt>
      <trkpt lat="41.97219" lon="0.7791">
        <ele>942.8</ele>
        <time>2019-01-31T11:49:42Z</time>
      </trkpt>
      <trkpt lat="41.97213" lon="0.77924">
        <ele>942.7</ele>
        <time>2019-01-31T11:49:48Z</time>
      </trkpt>
      <trkpt lat="41.9721" lon="0.77936">
        <ele>942.7</ele>
        <time>2019-01-31T11:49:54Z</time>
      </trkpt>
      <trkpt lat="41.97206" lon="0.7795">
        <ele>942.8</ele>
        <time>2019-01-31T11:50:00Z</time>
      </trkpt>
      <trkpt lat="41.97204" lon="0.77963">
        <ele>942.8</ele>
        <time>2019-01-31T11:50:06Z</time>
      </trkpt>
      <trkpt lat="41.97202" lon="0.77976">
        <ele>942.7</ele>
        <time>2019-01-31T11:50:11Z</time>
      </trkpt>
      <trkpt lat="41.972" lon="0.7799">
        <ele>942.7</ele>
        <time>2019-01-31T11:50:17Z</time>
      </trkpt>
      <trkpt lat="41.97198" lon="0.78004">
        <ele>942.8</ele>
        <time>2019-01-31T11:50:23Z</time>
      </trkpt>
      <trkpt lat="41.97198" lon="0.78019">
        <ele>942.7</ele>
        <time>2019-01-31T11:50:30Z</time>
      </trkpt>
      <trkpt lat="41.97198" lon="0.78033">
        <ele>942.7</ele>
        <time>2019-01-31T11:50:36Z</time>
      </trkpt>
      <trkpt lat="41.97198" lon="0.78047">
        <ele>942.7</ele>
        <time>2019-01-31T11:50:42Z</time>
      </trkpt>
      <trkpt lat="41.97198" lon="0.7806">
        <ele>942.7</ele>
        <time>2019-01-31T11:50:48Z</time>
      </trkpt>
      <trkpt lat="41.97197" lon="0.78075">
        <ele>942.8</ele>
        <time>2019-01-31T11:50:54Z</time>
      </trkpt>
      <trkpt lat="41.97197" lon="0.78089">
        <ele>942.7</ele>
        <time>2019-01-31T11:51:00Z</time>
      </trkpt>
      <trkpt lat="41.97199" lon="0.78104">
        <ele>942.2</ele>
        <time>2019-01-31T11:51:06Z</time>
      </trkpt>
      <trkpt lat="41.972" lon="0.78117">
        <ele>942.2</ele>
        <time>2019-01-31T11:51:12Z</time>
      </trkpt>
      <trkpt lat="41.97201" lon="0.7813">
        <ele>941.8</ele>
        <time>2019-01-31T11:51:17Z</time>
      </trkpt>
      <trkpt lat="41.97201" lon="0.78145">
        <ele>939.9</ele>
        <time>2019-01-31T11:51:24Z</time>
      </trkpt>
      <trkpt lat="41.972" lon="0.78159">
        <ele>939.4</ele>
        <time>2019-01-31T11:51:30Z</time>
      </trkpt>
      <trkpt lat="41.972" lon="0.78174">
        <ele>938.3</ele>
        <time>2019-01-31T11:51:36Z</time>
      </trkpt>
      <trkpt lat="41.972" lon="0.78188">
        <ele>937.5</ele>
        <time>2019-01-31T11:51:42Z</time>
      </trkpt>
      <trkpt lat="41.972" lon="0.78203">
        <ele>936.5</ele>
        <time>2019-01-31T11:51:48Z</time>
      </trkpt>
      <trkpt lat="41.97197" lon="0.78216">
        <ele>935.9</ele>
        <time>2019-01-31T11:51:54Z</time>
      </trkpt>
      <trkpt lat="41.97194" lon="0.78228">
        <ele>935</ele>
        <time>2019-01-31T11:52:00Z</time>
      </trkpt>
      <trkpt lat="41.97191" lon="0.78241">
        <ele>934</ele>
        <time>2019-01-31T11:52:05Z</time>
      </trkpt>
      <trkpt lat="41.97189" lon="0.78253">
        <ele>932.1</ele>
        <time>2019-01-31T11:52:11Z</time>
      </trkpt>
      <trkpt lat="41.97189" lon="0.78266">
        <ele>930.6</ele>
        <time>2019-01-31T11:52:16Z</time>
      </trkpt>
      <trkpt lat="41.97188" lon="0.78281">
        <ele>929.3</ele>
        <time>2019-01-31T11:52:22Z</time>
      </trkpt>
      <trkpt lat="41.97188" lon="0.78294">
        <ele>928.3</ele>
        <time>2019-01-31T11:52:28Z</time>
      </trkpt>
      <trkpt lat="41.97186" lon="0.78306">
        <ele>927.3</ele>
        <time>2019-01-31T11:52:33Z</time>
      </trkpt>
      <trkpt lat="41.97186" lon="0.7832">
        <ele>925.8</ele>
        <time>2019-01-31T11:52:39Z</time>
      </trkpt>
      <trkpt lat="41.97186" lon="0.78333">
        <ele>923.9</ele>
        <time>2019-01-31T11:52:45Z</time>
      </trkpt>
      <trkpt lat="41.97186" lon="0.78348">
        <ele>923</ele>
        <time>2019-01-31T11:52:51Z</time>
      </trkpt>
      <trkpt lat="41.97187" lon="0.78362">
        <ele>921.5</ele>
        <time>2019-01-31T11:52:57Z</time>
      </trkpt>
      <trkpt lat="41.97187" lon="0.78375">
        <ele>920.6</ele>
        <time>2019-01-31T11:53:03Z</time>
      </trkpt>
      <trkpt lat="41.97188" lon="0.78387">
        <ele>920.6</ele>
        <time>2019-01-31T11:53:08Z</time>
      </trkpt>
      <trkpt lat="41.97188" lon="0.784">
        <ele>919.7</ele>
        <time>2019-01-31T11:53:13Z</time>
      </trkpt>
      <trkpt lat="41.97187" lon="0.78414">
        <ele>919.1</ele>
        <time>2019-01-31T11:53:19Z</time>
      </trkpt>
      <trkpt lat="41.97184" lon="0.78426">
        <ele>918.6</ele>
        <time>2019-01-31T11:53:25Z</time>
      </trkpt>
      <trkpt lat="41.97179" lon="0.78439">
        <ele>917.8</ele>
        <time>2019-01-31T11:53:31Z</time>
      </trkpt>
      <trkpt lat="41.97174" lon="0.7845">
        <ele>917.3</ele>
        <time>2019-01-31T11:53:36Z</time>
      </trkpt>
      <trkpt lat="41.97168" lon="0.78461">
        <ele>917.2</ele>
        <time>2019-01-31T11:53:42Z</time>
      </trkpt>
      <trkpt lat="41.97161" lon="0.78472">
        <ele>916.7</ele>
        <time>2019-01-31T11:53:48Z</time>
      </trkpt>
      <trkpt lat="41.97157" lon="0.78484">
        <ele>916.2</ele>
        <time>2019-01-31T11:53:54Z</time>
      </trkpt>
      <trkpt lat="41.97153" lon="0.78496">
        <ele>916.2</ele>
        <time>2019-01-31T11:53:59Z</time>
      </trkpt>
      <trkpt lat="41.97149" lon="0.78508">
        <ele>915.7</ele>
        <time>2019-01-31T11:54:05Z</time>
      </trkpt>
      <trkpt lat="41.97144" lon="0.78521">
        <ele>915.4</ele>
        <time>2019-01-31T11:54:11Z</time>
      </trkpt>
      <trkpt lat="41.9714" lon="0.78535">
        <ele>915.4</ele>
        <time>2019-01-31T11:54:18Z</time>
      </trkpt>
      <trkpt lat="41.97137" lon="0.78547">
        <ele>914.8</ele>
        <time>2019-01-31T11:54:23Z</time>
      </trkpt>
      <trkpt lat="41.97133" lon="0.78561">
        <ele>914.3</ele>
        <time>2019-01-31T11:54:29Z</time>
      </trkpt>
      <trkpt lat="41.97128" lon="0.78574">
        <ele>913.3</ele>
        <time>2019-01-31T11:54:35Z</time>
      </trkpt>
      <trkpt lat="41.97124" lon="0.78587">
        <ele>912.5</ele>
        <time>2019-01-31T11:54:42Z</time>
      </trkpt>
      <trkpt lat="41.97119" lon="0.78601">
        <ele>912</ele>
        <time>2019-01-31T11:54:48Z</time>
      </trkpt>
      <trkpt lat="41.97114" lon="0.78614">
        <ele>911.5</ele>
        <time>2019-01-31T11:54:55Z</time>
      </trkpt>
      <trkpt lat="41.97109" lon="0.78627">
        <ele>910.9</ele>
        <time>2019-01-31T11:55:01Z</time>
      </trkpt>
      <trkpt lat="41.97105" lon="0.7864">
        <ele>911</ele>
        <time>2019-01-31T11:55:07Z</time>
      </trkpt>
      <trkpt lat="41.971" lon="0.78652">
        <ele>911</ele>
        <time>2019-01-31T11:55:12Z</time>
      </trkpt>
      <trkpt lat="41.97095" lon="0.78665">
        <ele>911</ele>
        <time>2019-01-31T11:55:19Z</time>
      </trkpt>
      <trkpt lat="41.9709" lon="0.78675">
        <ele>910.5</ele>
        <time>2019-01-31T11:55:24Z</time>
      </trkpt>
      <trkpt lat="41.97085" lon="0.78688">
        <ele>910.1</ele>
        <time>2019-01-31T11:55:30Z</time>
      </trkpt>
      <trkpt lat="41.97083" lon="0.78702">
        <ele>909.5</ele>
        <time>2019-01-31T11:55:36Z</time>
      </trkpt>
      <trkpt lat="41.97083" lon="0.78716">
        <ele>908.5</ele>
        <time>2019-01-31T11:55:42Z</time>
      </trkpt>
      <trkpt lat="41.97082" lon="0.78729">
        <ele>907.6</ele>
        <time>2019-01-31T11:55:48Z</time>
      </trkpt>
      <trkpt lat="41.97081" lon="0.78742">
        <ele>907.2</ele>
        <time>2019-01-31T11:55:53Z</time>
      </trkpt>
      <trkpt lat="41.97081" lon="0.78755">
        <ele>906.1</ele>
        <time>2019-01-31T11:55:58Z</time>
      </trkpt>
      <trkpt lat="41.97081" lon="0.78768">
        <ele>905.8</ele>
        <time>2019-01-31T11:56:04Z</time>
      </trkpt>
      <trkpt lat="41.97082" lon="0.78782">
        <ele>904.7</ele>
        <time>2019-01-31T11:56:10Z</time>
      </trkpt>
      <trkpt lat="41.97082" lon="0.78795">
        <ele>905.7</ele>
        <time>2019-01-31T11:56:15Z</time>
      </trkpt>
      <trkpt lat="41.97082" lon="0.78807">
        <ele>905.2</ele>
        <time>2019-01-31T11:56:21Z</time>
      </trkpt>
      <trkpt lat="41.97081" lon="0.7882">
        <ele>904.8</ele>
        <time>2019-01-31T11:56:26Z</time>
      </trkpt>
      <trkpt lat="41.97079" lon="0.78832">
        <ele>904.3</ele>
        <time>2019-01-31T11:56:32Z</time>
      </trkpt>
      <trkpt lat="41.97074" lon="0.78844">
        <ele>903.7</ele>
        <time>2019-01-31T11:56:37Z</time>
      </trkpt>
      <trkpt lat="41.97066" lon="0.78852">
        <ele>903.8</ele>
        <time>2019-01-31T11:56:43Z</time>
      </trkpt>
      <trkpt lat="41.97058" lon="0.78859">
        <ele>903.3</ele>
        <time>2019-01-31T11:56:49Z</time>
      </trkpt>
      <trkpt lat="41.97048" lon="0.7886">
        <ele>901.8</ele>
        <time>2019-01-31T11:56:54Z</time>
      </trkpt>
      <trkpt lat="41.97039" lon="0.78858">
        <ele>901.3</ele>
        <time>2019-01-31T11:57:00Z</time>
      </trkpt>
      <trkpt lat="41.9703" lon="0.78851">
        <ele>900.5</ele>
        <time>2019-01-31T11:57:06Z</time>
      </trkpt>
      <trkpt lat="41.9702" lon="0.78844">
        <ele>898.9</ele>
        <time>2019-01-31T11:57:12Z</time>
      </trkpt>
      <trkpt lat="41.9701" lon="0.78837">
        <ele>897.1</ele>
        <time>2019-01-31T11:57:18Z</time>
      </trkpt>
      <trkpt lat="41.96999" lon="0.78833">
        <ele>896</ele>
        <time>2019-01-31T11:57:25Z</time>
      </trkpt>
      <trkpt lat="41.96989" lon="0.78829">
        <ele>894.7</ele>
        <time>2019-01-31T11:57:31Z</time>
      </trkpt>
      <trkpt lat="41.96979" lon="0.78827">
        <ele>894.7</ele>
        <time>2019-01-31T11:57:36Z</time>
      </trkpt>
      <trkpt lat="41.9697" lon="0.78821">
        <ele>894.7</ele>
        <time>2019-01-31T11:57:42Z</time>
      </trkpt>
      <trkpt lat="41.96962" lon="0.78814">
        <ele>894.7</ele>
        <time>2019-01-31T11:57:47Z</time>
      </trkpt>
      <trkpt lat="41.96956" lon="0.78805">
        <ele>895.1</ele>
        <time>2019-01-31T11:57:53Z</time>
      </trkpt>
      <trkpt lat="41.9695" lon="0.78795">
        <ele>896.5</ele>
        <time>2019-01-31T11:57:58Z</time>
      </trkpt>
      <trkpt lat="41.96943" lon="0.78782">
        <ele>896</ele>
        <time>2019-01-31T11:58:05Z</time>
      </trkpt>
      <trkpt lat="41.96936" lon="0.78772">
        <ele>895.7</ele>
        <time>2019-01-31T11:58:11Z</time>
      </trkpt>
      <trkpt lat="41.9693" lon="0.78762">
        <ele>895.2</ele>
        <time>2019-01-31T11:58:17Z</time>
      </trkpt>
      <trkpt lat="41.96921" lon="0.78753">
        <ele>894.7</ele>
        <time>2019-01-31T11:58:23Z</time>
      </trkpt>
      <trkpt lat="41.96914" lon="0.78743">
        <ele>893.3</ele>
        <time>2019-01-31T11:58:28Z</time>
      </trkpt>
      <trkpt lat="41.96906" lon="0.78735">
        <ele>892.8</ele>
        <time>2019-01-31T11:58:34Z</time>
      </trkpt>
      <trkpt lat="41.96898" lon="0.78725">
        <ele>891.8</ele>
        <time>2019-01-31T11:58:40Z</time>
      </trkpt>
      <trkpt lat="41.96891" lon="0.78715">
        <ele>891.2</ele>
        <time>2019-01-31T11:58:46Z</time>
      </trkpt>
      <trkpt lat="41.96885" lon="0.78704">
        <ele>891.2</ele>
        <time>2019-01-31T11:58:52Z</time>
      </trkpt>
      <trkpt lat="41.96877" lon="0.78693">
        <ele>889.9</ele>
        <time>2019-01-31T11:58:59Z</time>
      </trkpt>
      <trkpt lat="41.9687" lon="0.78684">
        <ele>888.5</ele>
        <time>2019-01-31T11:59:04Z</time>
      </trkpt>
      <trkpt lat="41.96863" lon="0.78675">
        <ele>887.4</ele>
        <time>2019-01-31T11:59:10Z</time>
      </trkpt>
      <trkpt lat="41.96856" lon="0.78669">
        <ele>886.4</ele>
        <time>2019-01-31T11:59:15Z</time>
      </trkpt>
      <trkpt lat="41.96854" lon="0.7868">
        <ele>884.5</ele>
        <time>2019-01-31T11:59:19Z</time>
      </trkpt>
      <trkpt lat="41.9686" lon="0.7869">
        <ele>884.6</ele>
        <time>2019-01-31T11:59:25Z</time>
      </trkpt>
      <trkpt lat="41.96866" lon="0.787">
        <ele>884.6</ele>
        <time>2019-01-31T11:59:31Z</time>
      </trkpt>
      <trkpt lat="41.96874" lon="0.78709">
        <ele>885.9</ele>
        <time>2019-01-31T11:59:36Z</time>
      </trkpt>
      <trkpt lat="41.9688" lon="0.78719">
        <ele>885.9</ele>
        <time>2019-01-31T11:59:42Z</time>
      </trkpt>
      <trkpt lat="41.96885" lon="0.78728">
        <ele>886</ele>
        <time>2019-01-31T11:59:47Z</time>
      </trkpt>
      <trkpt lat="41.96891" lon="0.78741">
        <ele>885.6</ele>
        <time>2019-01-31T11:59:53Z</time>
      </trkpt>
      <trkpt lat="41.96896" lon="0.78752">
        <ele>884.6</ele>
        <time>2019-01-31T11:59:58Z</time>
      </trkpt>
      <trkpt lat="41.96899" lon="0.78764">
        <ele>883.5</ele>
        <time>2019-01-31T12:00:04Z</time>
      </trkpt>
      <trkpt lat="41.96902" lon="0.78776">
        <ele>884</ele>
        <time>2019-01-31T12:00:09Z</time>
      </trkpt>
      <trkpt lat="41.96907" lon="0.78788">
        <ele>884</ele>
        <time>2019-01-31T12:00:15Z</time>
      </trkpt>
      <trkpt lat="41.96913" lon="0.788">
        <ele>884</ele>
        <time>2019-01-31T12:00:21Z</time>
      </trkpt>
      <trkpt lat="41.96917" lon="0.78811">
        <ele>883.6</ele>
        <time>2019-01-31T12:00:27Z</time>
      </trkpt>
      <trkpt lat="41.96921" lon="0.78826">
        <ele>883.2</ele>
        <time>2019-01-31T12:00:33Z</time>
      </trkpt>
      <trkpt lat="41.96924" lon="0.7884">
        <ele>882.7</ele>
        <time>2019-01-31T12:00:40Z</time>
      </trkpt>
      <trkpt lat="41.96926" lon="0.78854">
        <ele>882.7</ele>
        <time>2019-01-31T12:00:46Z</time>
      </trkpt>
      <trkpt lat="41.96931" lon="0.78865">
        <ele>881.1</ele>
        <time>2019-01-31T12:00:51Z</time>
      </trkpt>
      <trkpt lat="41.96931" lon="0.78879">
        <ele>880.3</ele>
        <time>2019-01-31T12:00:57Z</time>
      </trkpt>
      <trkpt lat="41.96928" lon="0.78893">
        <ele>879.2</ele>
        <time>2019-01-31T12:01:03Z</time>
      </trkpt>
      <trkpt lat="41.96926" lon="0.78907">
        <ele>879.3</ele>
        <time>2019-01-31T12:01:09Z</time>
      </trkpt>
      <trkpt lat="41.96923" lon="0.7892">
        <ele>878.8</ele>
        <time>2019-01-31T12:01:15Z</time>
      </trkpt>
      <trkpt lat="41.96921" lon="0.78934">
        <ele>878.8</ele>
        <time>2019-01-31T12:01:21Z</time>
      </trkpt>
      <trkpt lat="41.9692" lon="0.78947">
        <ele>878.7</ele>
        <time>2019-01-31T12:01:26Z</time>
      </trkpt>
      <trkpt lat="41.96918" lon="0.7896">
        <ele>878.7</ele>
        <time>2019-01-31T12:01:32Z</time>
      </trkpt>
      <trkpt lat="41.96916" lon="0.78973">
        <ele>878.3</ele>
        <time>2019-01-31T12:01:38Z</time>
      </trkpt>
      <trkpt lat="41.96914" lon="0.78986">
        <ele>877.9</ele>
        <time>2019-01-31T12:01:43Z</time>
      </trkpt>
      <trkpt lat="41.96911" lon="0.78999">
        <ele>877.4</ele>
        <time>2019-01-31T12:01:49Z</time>
      </trkpt>
      <trkpt lat="41.96907" lon="0.79011">
        <ele>876.8</ele>
        <time>2019-01-31T12:01:55Z</time>
      </trkpt>
      <trkpt lat="41.96904" lon="0.79025">
        <ele>876.4</ele>
        <time>2019-01-31T12:02:01Z</time>
      </trkpt>
      <trkpt lat="41.96901" lon="0.79039">
        <ele>875.5</ele>
        <time>2019-01-31T12:02:07Z</time>
      </trkpt>
      <trkpt lat="41.96898" lon="0.79052">
        <ele>874.9</ele>
        <time>2019-01-31T12:02:13Z</time>
      </trkpt>
      <trkpt lat="41.96896" lon="0.79067">
        <ele>875.4</ele>
        <time>2019-01-31T12:02:19Z</time>
      </trkpt>
      <trkpt lat="41.96894" lon="0.79083">
        <ele>875.5</ele>
        <time>2019-01-31T12:02:26Z</time>
      </trkpt>
      <trkpt lat="41.96891" lon="0.79099">
        <ele>873.6</ele>
        <time>2019-01-31T12:02:33Z</time>
      </trkpt>
      <trkpt lat="41.9689" lon="0.79114">
        <ele>873</ele>
        <time>2019-01-31T12:02:40Z</time>
      </trkpt>
      <trkpt lat="41.96888" lon="0.79129">
        <ele>873</ele>
        <time>2019-01-31T12:02:46Z</time>
      </trkpt>
      <trkpt lat="41.96886" lon="0.79143">
        <ele>873.1</ele>
        <time>2019-01-31T12:02:52Z</time>
      </trkpt>
      <trkpt lat="41.96882" lon="0.79159">
        <ele>873</ele>
        <time>2019-01-31T12:02:59Z</time>
      </trkpt>
      <trkpt lat="41.96879" lon="0.79174">
        <ele>873.1</ele>
        <time>2019-01-31T12:03:06Z</time>
      </trkpt>
      <trkpt lat="41.96877" lon="0.79189">
        <ele>873.1</ele>
        <time>2019-01-31T12:03:12Z</time>
      </trkpt>
      <trkpt lat="41.96873" lon="0.79203">
        <ele>873</ele>
        <time>2019-01-31T12:03:19Z</time>
      </trkpt>
      <trkpt lat="41.96871" lon="0.79217">
        <ele>873.1</ele>
        <time>2019-01-31T12:03:25Z</time>
      </trkpt>
      <trkpt lat="41.96868" lon="0.79233">
        <ele>873</ele>
        <time>2019-01-31T12:03:32Z</time>
      </trkpt>
      <trkpt lat="41.96867" lon="0.79246">
        <ele>873</ele>
        <time>2019-01-31T12:03:37Z</time>
      </trkpt>
      <trkpt lat="41.96867" lon="0.79261">
        <ele>873.1</ele>
        <time>2019-01-31T12:03:44Z</time>
      </trkpt>
      <trkpt lat="41.96866" lon="0.79275">
        <ele>873</ele>
        <time>2019-01-31T12:03:50Z</time>
      </trkpt>
      <trkpt lat="41.96864" lon="0.79291">
        <ele>872.5</ele>
        <time>2019-01-31T12:03:56Z</time>
      </trkpt>
      <trkpt lat="41.96863" lon="0.79305">
        <ele>871.5</ele>
        <time>2019-01-31T12:04:03Z</time>
      </trkpt>
      <trkpt lat="41.96862" lon="0.79321">
        <ele>871</ele>
        <time>2019-01-31T12:04:09Z</time>
      </trkpt>
      <trkpt lat="41.96862" lon="0.79335">
        <ele>871</ele>
        <time>2019-01-31T12:04:15Z</time>
      </trkpt>
      <trkpt lat="41.96862" lon="0.7935">
        <ele>871</ele>
        <time>2019-01-31T12:04:22Z</time>
      </trkpt>
      <trkpt lat="41.96863" lon="0.79364">
        <ele>871.5</ele>
        <time>2019-01-31T12:04:28Z</time>
      </trkpt>
      <trkpt lat="41.96865" lon="0.79377">
        <ele>871.6</ele>
        <time>2019-01-31T12:04:33Z</time>
      </trkpt>
      <trkpt lat="41.96869" lon="0.79391">
        <ele>871.1</ele>
        <time>2019-01-31T12:04:40Z</time>
      </trkpt>
      <trkpt lat="41.96871" lon="0.79405">
        <ele>870.1</ele>
        <time>2019-01-31T12:04:46Z</time>
      </trkpt>
      <trkpt lat="41.96874" lon="0.79419">
        <ele>869.7</ele>
        <time>2019-01-31T12:04:52Z</time>
      </trkpt>
      <trkpt lat="41.96877" lon="0.79432">
        <ele>869.7</ele>
        <time>2019-01-31T12:04:58Z</time>
      </trkpt>
      <trkpt lat="41.96879" lon="0.79445">
        <ele>869.1</ele>
        <time>2019-01-31T12:05:03Z</time>
      </trkpt>
      <trkpt lat="41.96879" lon="0.79458">
        <ele>869.1</ele>
        <time>2019-01-31T12:05:09Z</time>
      </trkpt>
      <trkpt lat="41.96877" lon="0.79472">
        <ele>868.6</ele>
        <time>2019-01-31T12:05:15Z</time>
      </trkpt>
      <trkpt lat="41.96875" lon="0.79485">
        <ele>868.2</ele>
        <time>2019-01-31T12:05:21Z</time>
      </trkpt>
      <trkpt lat="41.96873" lon="0.79499">
        <ele>866.8</ele>
        <time>2019-01-31T12:05:27Z</time>
      </trkpt>
      <trkpt lat="41.96869" lon="0.79513">
        <ele>866.8</ele>
        <time>2019-01-31T12:05:33Z</time>
      </trkpt>
      <trkpt lat="41.96864" lon="0.79527">
        <ele>866.7</ele>
        <time>2019-01-31T12:05:40Z</time>
      </trkpt>
      <trkpt lat="41.96861" lon="0.79541">
        <ele>865.9</ele>
        <time>2019-01-31T12:05:46Z</time>
      </trkpt>
      <trkpt lat="41.96858" lon="0.79554">
        <ele>865.8</ele>
        <time>2019-01-31T12:05:52Z</time>
      </trkpt>
      <trkpt lat="41.96854" lon="0.79566">
        <ele>865.8</ele>
        <time>2019-01-31T12:05:57Z</time>
      </trkpt>
      <trkpt lat="41.9685" lon="0.79579">
        <ele>865.8</ele>
        <time>2019-01-31T12:06:03Z</time>
      </trkpt>
      <trkpt lat="41.96845" lon="0.79592">
        <ele>865.8</ele>
        <time>2019-01-31T12:06:09Z</time>
      </trkpt>
      <trkpt lat="41.96842" lon="0.79605">
        <ele>865.9</ele>
        <time>2019-01-31T12:06:15Z</time>
      </trkpt>
      <trkpt lat="41.96839" lon="0.79618">
        <ele>865.8</ele>
        <time>2019-01-31T12:06:21Z</time>
      </trkpt>
      <trkpt lat="41.96835" lon="0.79629">
        <ele>865.8</ele>
        <time>2019-01-31T12:06:27Z</time>
      </trkpt>
      <trkpt lat="41.96827" lon="0.79641">
        <ele>865.3</ele>
        <time>2019-01-31T12:06:33Z</time>
      </trkpt>
      <trkpt lat="41.96818" lon="0.79652">
        <ele>864.8</ele>
        <time>2019-01-31T12:06:40Z</time>
      </trkpt>
      <trkpt lat="41.96812" lon="0.79665">
        <ele>864.4</ele>
        <time>2019-01-31T12:06:47Z</time>
      </trkpt>
      <trkpt lat="41.96807" lon="0.79677">
        <ele>864.3</ele>
        <time>2019-01-31T12:06:53Z</time>
      </trkpt>
      <trkpt lat="41.96802" lon="0.79688">
        <ele>863.4</ele>
        <time>2019-01-31T12:06:58Z</time>
      </trkpt>
      <trkpt lat="41.96798" lon="0.79699">
        <ele>862.9</ele>
        <time>2019-01-31T12:07:03Z</time>
      </trkpt>
      <trkpt lat="41.96793" lon="0.7971">
        <ele>861.9</ele>
        <time>2019-01-31T12:07:09Z</time>
      </trkpt>
      <trkpt lat="41.96786" lon="0.79722">
        <ele>860.5</ele>
        <time>2019-01-31T12:07:15Z</time>
      </trkpt>
      <trkpt lat="41.96778" lon="0.7973">
        <ele>859.5</ele>
        <time>2019-01-31T12:07:21Z</time>
      </trkpt>
      <trkpt lat="41.9677" lon="0.79737">
        <ele>857.6</ele>
        <time>2019-01-31T12:07:26Z</time>
      </trkpt>
      <trkpt lat="41.96762" lon="0.79743">
        <ele>856.1</ele>
        <time>2019-01-31T12:07:32Z</time>
      </trkpt>
      <trkpt lat="41.96754" lon="0.79749">
        <ele>854.7</ele>
        <time>2019-01-31T12:07:37Z</time>
      </trkpt>
      <trkpt lat="41.96747" lon="0.79756">
        <ele>853.7</ele>
        <time>2019-01-31T12:07:42Z</time>
      </trkpt>
      <trkpt lat="41.96736" lon="0.79759">
        <ele>853.4</ele>
        <time>2019-01-31T12:07:48Z</time>
      </trkpt>
      <trkpt lat="41.96727" lon="0.7975">
        <ele>848.9</ele>
        <time>2019-01-31T12:07:54Z</time>
      </trkpt>
      <trkpt lat="41.96722" lon="0.79738">
        <ele>847.5</ele>
        <time>2019-01-31T12:08:00Z</time>
      </trkpt>
      <trkpt lat="41.96718" lon="0.7973">
        <ele>844.1</ele>
        <time>2019-01-31T12:08:04Z</time>
      </trkpt>
      <trkpt lat="41.9671" lon="0.79722">
        <ele>840.4</ele>
        <time>2019-01-31T12:08:10Z</time>
      </trkpt>
      <trkpt lat="41.96705" lon="0.7973">
        <ele>839.9</ele>
        <time>2019-01-31T12:08:15Z</time>
      </trkpt>
      <trkpt lat="41.96696" lon="0.79739">
        <ele>838.4</ele>
        <time>2019-01-31T12:08:21Z</time>
      </trkpt>
      <trkpt lat="41.96686" lon="0.79748">
        <ele>838.8</ele>
        <time>2019-01-31T12:08:28Z</time>
      </trkpt>
      <trkpt lat="41.96679" lon="0.79759">
        <ele>838.9</ele>
        <time>2019-01-31T12:08:34Z</time>
      </trkpt>
      <trkpt lat="41.96673" lon="0.7977">
        <ele>837.4</ele>
        <time>2019-01-31T12:08:40Z</time>
      </trkpt>
      <trkpt lat="41.96667" lon="0.79781">
        <ele>836.9</ele>
        <time>2019-01-31T12:08:46Z</time>
      </trkpt>
      <trkpt lat="41.96662" lon="0.79793">
        <ele>835.6</ele>
        <time>2019-01-31T12:08:52Z</time>
      </trkpt>
      <trkpt lat="41.96655" lon="0.79802">
        <ele>833.6</ele>
        <time>2019-01-31T12:08:57Z</time>
      </trkpt>
      <trkpt lat="41.96647" lon="0.79812">
        <ele>831.3</ele>
        <time>2019-01-31T12:09:04Z</time>
      </trkpt>
      <trkpt lat="41.96642" lon="0.79824">
        <ele>830.8</ele>
        <time>2019-01-31T12:09:09Z</time>
      </trkpt>
      <trkpt lat="41.96638" lon="0.79836">
        <ele>830.7</ele>
        <time>2019-01-31T12:09:15Z</time>
      </trkpt>
      <trkpt lat="41.96635" lon="0.7985">
        <ele>830.8</ele>
        <time>2019-01-31T12:09:21Z</time>
      </trkpt>
      <trkpt lat="41.96633" lon="0.79863">
        <ele>830.8</ele>
        <time>2019-01-31T12:09:27Z</time>
      </trkpt>
      <trkpt lat="41.96631" lon="0.79876">
        <ele>830.7</ele>
        <time>2019-01-31T12:09:33Z</time>
      </trkpt>
      <trkpt lat="41.96627" lon="0.79882">
        <ele>829.7</ele>
        <time>2019-01-31T12:09:36Z</time>
      </trkpt>
      <trkpt lat="41.96617" lon="0.79887">
        <ele>827.9</ele>
        <time>2019-01-31T12:09:42Z</time>
      </trkpt>
      <trkpt lat="41.96608" lon="0.79891">
        <ele>826.8</ele>
        <time>2019-01-31T12:09:47Z</time>
      </trkpt>
      <trkpt lat="41.96599" lon="0.79889">
        <ele>825.4</ele>
        <time>2019-01-31T12:09:52Z</time>
      </trkpt>
      <trkpt lat="41.96591" lon="0.79895">
        <ele>824.9</ele>
        <time>2019-01-31T12:09:58Z</time>
      </trkpt>
      <trkpt lat="41.96582" lon="0.79904">
        <ele>824</ele>
        <time>2019-01-31T12:10:04Z</time>
      </trkpt>
      <trkpt lat="41.96575" lon="0.79914">
        <ele>823.6</ele>
        <time>2019-01-31T12:10:10Z</time>
      </trkpt>
      <trkpt lat="41.96571" lon="0.79926">
        <ele>822.6</ele>
        <time>2019-01-31T12:10:16Z</time>
      </trkpt>
      <trkpt lat="41.96573" lon="0.79938">
        <ele>823</ele>
        <time>2019-01-31T12:10:21Z</time>
      </trkpt>
      <trkpt lat="41.96571" lon="0.79949">
        <ele>821.1</ele>
        <time>2019-01-31T12:10:26Z</time>
      </trkpt>
      <trkpt lat="41.96562" lon="0.79958">
        <ele>818.3</ele>
        <time>2019-01-31T12:10:32Z</time>
      </trkpt>
      <trkpt lat="41.96551" lon="0.79964">
        <ele>815.4</ele>
        <time>2019-01-31T12:10:39Z</time>
      </trkpt>
      <trkpt lat="41.96542" lon="0.7997">
        <ele>813.5</ele>
        <time>2019-01-31T12:10:45Z</time>
      </trkpt>
      <trkpt lat="41.96535" lon="0.79974">
        <ele>811.5</ele>
        <time>2019-01-31T12:10:49Z</time>
      </trkpt>
      <trkpt lat="41.96529" lon="0.79962">
        <ele>809</ele>
        <time>2019-01-31T12:10:55Z</time>
      </trkpt>
      <trkpt lat="41.96529" lon="0.79949">
        <ele>809</ele>
        <time>2019-01-31T12:11:01Z</time>
      </trkpt>
      <trkpt lat="41.96527" lon="0.79934">
        <ele>809.1</ele>
        <time>2019-01-31T12:11:08Z</time>
      </trkpt>
      <trkpt lat="41.96524" lon="0.7992">
        <ele>809</ele>
        <time>2019-01-31T12:11:14Z</time>
      </trkpt>
      <trkpt lat="41.96519" lon="0.79908">
        <ele>809.1</ele>
        <time>2019-01-31T12:11:19Z</time>
      </trkpt>
      <trkpt lat="41.96513" lon="0.79898">
        <ele>808.1</ele>
        <time>2019-01-31T12:11:25Z</time>
      </trkpt>
      <trkpt lat="41.96503" lon="0.79893">
        <ele>806.2</ele>
        <time>2019-01-31T12:11:31Z</time>
      </trkpt>
      <trkpt lat="41.96493" lon="0.7989">
        <ele>804.8</ele>
        <time>2019-01-31T12:11:37Z</time>
      </trkpt>
      <trkpt lat="41.96484" lon="0.79885">
        <ele>802.8</ele>
        <time>2019-01-31T12:11:43Z</time>
      </trkpt>
      <trkpt lat="41.96475" lon="0.79881">
        <ele>800.5</ele>
        <time>2019-01-31T12:11:48Z</time>
      </trkpt>
      <trkpt lat="41.96465" lon="0.79879">
        <ele>798.5</ele>
        <time>2019-01-31T12:11:54Z</time>
      </trkpt>
      <trkpt lat="41.96454" lon="0.79881">
        <ele>795.2</ele>
        <time>2019-01-31T12:12:00Z</time>
      </trkpt>
      <trkpt lat="41.96445" lon="0.79887">
        <ele>792.2</ele>
        <time>2019-01-31T12:12:06Z</time>
      </trkpt>
      <trkpt lat="41.96434" lon="0.79891">
        <ele>789.8</ele>
        <time>2019-01-31T12:12:12Z</time>
      </trkpt>
      <trkpt lat="41.96423" lon="0.79892">
        <ele>787.9</ele>
        <time>2019-01-31T12:12:18Z</time>
      </trkpt>
      <trkpt lat="41.96413" lon="0.79896">
        <ele>786.9</ele>
        <time>2019-01-31T12:12:25Z</time>
      </trkpt>
      <trkpt lat="41.96403" lon="0.79891">
        <ele>785</ele>
        <time>2019-01-31T12:12:31Z</time>
      </trkpt>
      <trkpt lat="41.96396" lon="0.79879">
        <ele>784</ele>
        <time>2019-01-31T12:12:37Z</time>
      </trkpt>
      <trkpt lat="41.96391" lon="0.79868">
        <ele>783.6</ele>
        <time>2019-01-31T12:12:43Z</time>
      </trkpt>
      <trkpt lat="41.96386" lon="0.79857">
        <ele>783.2</ele>
        <time>2019-01-31T12:12:48Z</time>
      </trkpt>
      <trkpt lat="41.96382" lon="0.79845">
        <ele>782.7</ele>
        <time>2019-01-31T12:12:54Z</time>
      </trkpt>
      <trkpt lat="41.9638" lon="0.7983">
        <ele>782.1</ele>
        <time>2019-01-31T12:13:00Z</time>
      </trkpt>
      <trkpt lat="41.9638" lon="0.79816">
        <ele>782.2</ele>
        <time>2019-01-31T12:13:06Z</time>
      </trkpt>
      <trkpt lat="41.96379" lon="0.79802">
        <ele>781.7</ele>
        <time>2019-01-31T12:13:12Z</time>
      </trkpt>
      <trkpt lat="41.96378" lon="0.79788">
        <ele>781.6</ele>
        <time>2019-01-31T12:13:18Z</time>
      </trkpt>
      <trkpt lat="41.96379" lon="0.79773">
        <ele>781.6</ele>
        <time>2019-01-31T12:13:24Z</time>
      </trkpt>
      <trkpt lat="41.9638" lon="0.7976">
        <ele>781.7</ele>
        <time>2019-01-31T12:13:30Z</time>
      </trkpt>
      <trkpt lat="41.96378" lon="0.79744">
        <ele>781.6</ele>
        <time>2019-01-31T12:13:37Z</time>
      </trkpt>
      <trkpt lat="41.96378" lon="0.79731">
        <ele>781.7</ele>
        <time>2019-01-31T12:13:43Z</time>
      </trkpt>
      <trkpt lat="41.96376" lon="0.79717">
        <ele>780.2</ele>
        <time>2019-01-31T12:13:49Z</time>
      </trkpt>
      <trkpt lat="41.96374" lon="0.79704">
        <ele>779.3</ele>
        <time>2019-01-31T12:13:54Z</time>
      </trkpt>
      <trkpt lat="41.96371" lon="0.79692">
        <ele>778.9</ele>
        <time>2019-01-31T12:14:00Z</time>
      </trkpt>
      <trkpt lat="41.96367" lon="0.79678">
        <ele>778.4</ele>
        <time>2019-01-31T12:14:06Z</time>
      </trkpt>
      <trkpt lat="41.96363" lon="0.79664">
        <ele>777.4</ele>
        <time>2019-01-31T12:14:12Z</time>
      </trkpt>
      <trkpt lat="41.9636" lon="0.7965">
        <ele>776.5</ele>
        <time>2019-01-31T12:14:18Z</time>
      </trkpt>
      <trkpt lat="41.96359" lon="0.79637">
        <ele>776.4</ele>
        <time>2019-01-31T12:14:24Z</time>
      </trkpt>
      <trkpt lat="41.96356" lon="0.79624">
        <ele>775.9</ele>
        <time>2019-01-31T12:14:30Z</time>
      </trkpt>
      <trkpt lat="41.96352" lon="0.79611">
        <ele>774.9</ele>
        <time>2019-01-31T12:14:36Z</time>
      </trkpt>
      <trkpt lat="41.96347" lon="0.79598">
        <ele>774.4</ele>
        <time>2019-01-31T12:14:42Z</time>
      </trkpt>
      <trkpt lat="41.96342" lon="0.79585">
        <ele>773.6</ele>
        <time>2019-01-31T12:14:48Z</time>
      </trkpt>
      <trkpt lat="41.96337" lon="0.79573">
        <ele>773.1</ele>
        <time>2019-01-31T12:14:54Z</time>
      </trkpt>
      <trkpt lat="41.96332" lon="0.79561">
        <ele>773.1</ele>
        <time>2019-01-31T12:15:00Z</time>
      </trkpt>
      <trkpt lat="41.96328" lon="0.79547">
        <ele>772.6</ele>
        <time>2019-01-31T12:15:06Z</time>
      </trkpt>
      <trkpt lat="41.96325" lon="0.79535">
        <ele>771.1</ele>
        <time>2019-01-31T12:15:12Z</time>
      </trkpt>
      <trkpt lat="41.96323" lon="0.79522">
        <ele>770.2</ele>
        <time>2019-01-31T12:15:17Z</time>
      </trkpt>
      <trkpt lat="41.96323" lon="0.79508">
        <ele>770.2</ele>
        <time>2019-01-31T12:15:23Z</time>
      </trkpt>
      <trkpt lat="41.96325" lon="0.79495">
        <ele>770.1</ele>
        <time>2019-01-31T12:15:29Z</time>
      </trkpt>
      <trkpt lat="41.96328" lon="0.79481">
        <ele>770.1</ele>
        <time>2019-01-31T12:15:35Z</time>
      </trkpt>
      <trkpt lat="41.96332" lon="0.79468">
        <ele>770.1</ele>
        <time>2019-01-31T12:15:41Z</time>
      </trkpt>
      <trkpt lat="41.96336" lon="0.79456">
        <ele>770.1</ele>
        <time>2019-01-31T12:15:47Z</time>
      </trkpt>
      <trkpt lat="41.96338" lon="0.79441">
        <ele>769.2</ele>
        <time>2019-01-31T12:15:53Z</time>
      </trkpt>
      <trkpt lat="41.96338" lon="0.79427">
        <ele>769.1</ele>
        <time>2019-01-31T12:15:59Z</time>
      </trkpt>
      <trkpt lat="41.96334" lon="0.79413">
        <ele>768.7</ele>
        <time>2019-01-31T12:16:05Z</time>
      </trkpt>
      <trkpt lat="41.9633" lon="0.79399">
        <ele>768.2</ele>
        <time>2019-01-31T12:16:12Z</time>
      </trkpt>
      <trkpt lat="41.96325" lon="0.79385">
        <ele>768.2</ele>
        <time>2019-01-31T12:16:18Z</time>
      </trkpt>
      <trkpt lat="41.96321" lon="0.79371">
        <ele>767.3</ele>
        <time>2019-01-31T12:16:25Z</time>
      </trkpt>
      <trkpt lat="41.96319" lon="0.79356">
        <ele>766.7</ele>
        <time>2019-01-31T12:16:31Z</time>
      </trkpt>
      <trkpt lat="41.96318" lon="0.79342">
        <ele>765.3</ele>
        <time>2019-01-31T12:16:37Z</time>
      </trkpt>
      <trkpt lat="41.96315" lon="0.79329">
        <ele>764.9</ele>
        <time>2019-01-31T12:16:43Z</time>
      </trkpt>
      <trkpt lat="41.96314" lon="0.79316">
        <ele>764.9</ele>
        <time>2019-01-31T12:16:49Z</time>
      </trkpt>
      <trkpt lat="41.96309" lon="0.79303">
        <ele>763.9</ele>
        <time>2019-01-31T12:16:54Z</time>
      </trkpt>
      <trkpt lat="41.96303" lon="0.79291">
        <ele>763.4</ele>
        <time>2019-01-31T12:17:01Z</time>
      </trkpt>
      <trkpt lat="41.96297" lon="0.7928">
        <ele>762.4</ele>
        <time>2019-01-31T12:17:07Z</time>
      </trkpt>
      <trkpt lat="41.9629" lon="0.79269">
        <ele>762.5</ele>
        <time>2019-01-31T12:17:13Z</time>
      </trkpt>
      <trkpt lat="41.96283" lon="0.79259">
        <ele>761.9</ele>
        <time>2019-01-31T12:17:19Z</time>
      </trkpt>
      <trkpt lat="41.96276" lon="0.7925">
        <ele>760.1</ele>
        <time>2019-01-31T12:17:24Z</time>
      </trkpt>
      <trkpt lat="41.96267" lon="0.79246">
        <ele>760.1</ele>
        <time>2019-01-31T12:17:30Z</time>
      </trkpt>
      <trkpt lat="41.96257" lon="0.79248">
        <ele>760.5</ele>
        <time>2019-01-31T12:17:36Z</time>
      </trkpt>
      <trkpt lat="41.96247" lon="0.7925">
        <ele>762.4</ele>
        <time>2019-01-31T12:17:41Z</time>
      </trkpt>
      <trkpt lat="41.96237" lon="0.79248">
        <ele>762.5</ele>
        <time>2019-01-31T12:17:47Z</time>
      </trkpt>
      <trkpt lat="41.96229" lon="0.79239">
        <ele>762.4</ele>
        <time>2019-01-31T12:17:53Z</time>
      </trkpt>
      <trkpt lat="41.96221" lon="0.79227">
        <ele>762</ele>
        <time>2019-01-31T12:18:00Z</time>
      </trkpt>
      <trkpt lat="41.96214" lon="0.79215">
        <ele>761.5</ele>
        <time>2019-01-31T12:18:07Z</time>
      </trkpt>
      <trkpt lat="41.96207" lon="0.79202">
        <ele>760.5</ele>
        <time>2019-01-31T12:18:13Z</time>
      </trkpt>
      <trkpt lat="41.96201" lon="0.79192">
        <ele>759.1</ele>
        <time>2019-01-31T12:18:19Z</time>
      </trkpt>
      <trkpt lat="41.96194" lon="0.79181">
        <ele>758.7</ele>
        <time>2019-01-31T12:18:25Z</time>
      </trkpt>
      <trkpt lat="41.96187" lon="0.79171">
        <ele>758.2</ele>
        <time>2019-01-31T12:18:31Z</time>
      </trkpt>
      <trkpt lat="41.9618" lon="0.79158">
        <ele>756.7</ele>
        <time>2019-01-31T12:18:37Z</time>
      </trkpt>
      <trkpt lat="41.96175" lon="0.79144">
        <ele>755.8</ele>
        <time>2019-01-31T12:18:44Z</time>
      </trkpt>
      <trkpt lat="41.96171" lon="0.79131">
        <ele>755.3</ele>
        <time>2019-01-31T12:18:50Z</time>
      </trkpt>
      <trkpt lat="41.96166" lon="0.79118">
        <ele>755.2</ele>
        <time>2019-01-31T12:18:56Z</time>
      </trkpt>
      <trkpt lat="41.96161" lon="0.79107">
        <ele>755.3</ele>
        <time>2019-01-31T12:19:02Z</time>
      </trkpt>
      <trkpt lat="41.96157" lon="0.79098">
        <ele>755.3</ele>
        <time>2019-01-31T12:19:06Z</time>
      </trkpt>
      <trkpt lat="41.96153" lon="0.79089">
        <ele>755.3</ele>
        <time>2019-01-31T12:19:11Z</time>
      </trkpt>
      <trkpt lat="41.96144" lon="0.79083">
        <ele>755.2</ele>
        <time>2019-01-31T12:19:16Z</time>
      </trkpt>
      <trkpt lat="41.96134" lon="0.79088">
        <ele>754.7</ele>
        <time>2019-01-31T12:19:23Z</time>
      </trkpt>
      <trkpt lat="41.96124" lon="0.79094">
        <ele>754.7</ele>
        <time>2019-01-31T12:19:29Z</time>
      </trkpt>
      <trkpt lat="41.96113" lon="0.79101">
        <ele>754.7</ele>
        <time>2019-01-31T12:19:35Z</time>
      </trkpt>
      <trkpt lat="41.96103" lon="0.79105">
        <ele>754.8</ele>
        <time>2019-01-31T12:19:42Z</time>
      </trkpt>
      <trkpt lat="41.96093" lon="0.79108">
        <ele>754.7</ele>
        <time>2019-01-31T12:19:47Z</time>
      </trkpt>
      <trkpt lat="41.96084" lon="0.79111">
        <ele>754.7</ele>
        <time>2019-01-31T12:19:53Z</time>
      </trkpt>
      <trkpt lat="41.96073" lon="0.79112">
        <ele>754.8</ele>
        <time>2019-01-31T12:19:59Z</time>
      </trkpt>
      <trkpt lat="41.96063" lon="0.79113">
        <ele>754.3</ele>
        <time>2019-01-31T12:20:05Z</time>
      </trkpt>
      <trkpt lat="41.96052" lon="0.79113">
        <ele>754.3</ele>
        <time>2019-01-31T12:20:11Z</time>
      </trkpt>
      <trkpt lat="41.96042" lon="0.79113">
        <ele>753.8</ele>
        <time>2019-01-31T12:20:17Z</time>
      </trkpt>
      <trkpt lat="41.96032" lon="0.79112">
        <ele>753.8</ele>
        <time>2019-01-31T12:20:23Z</time>
      </trkpt>
      <trkpt lat="41.96022" lon="0.79115">
        <ele>753.8</ele>
        <time>2019-01-31T12:20:28Z</time>
      </trkpt>
      <trkpt lat="41.96011" lon="0.79119">
        <ele>753.3</ele>
        <time>2019-01-31T12:20:35Z</time>
      </trkpt>
      <trkpt lat="41.96002" lon="0.79121">
        <ele>752.3</ele>
        <time>2019-01-31T12:20:40Z</time>
      </trkpt>
      <trkpt lat="41.95991" lon="0.79122">
        <ele>751.4</ele>
        <time>2019-01-31T12:20:46Z</time>
      </trkpt>
      <trkpt lat="41.9598" lon="0.79122">
        <ele>751.4</ele>
        <time>2019-01-31T12:20:52Z</time>
      </trkpt>
      <trkpt lat="41.9597" lon="0.7912">
        <ele>750.9</ele>
        <time>2019-01-31T12:20:58Z</time>
      </trkpt>
      <trkpt lat="41.9596" lon="0.79118">
        <ele>750</ele>
        <time>2019-01-31T12:21:04Z</time>
      </trkpt>
      <trkpt lat="41.95949" lon="0.79119">
        <ele>750</ele>
        <time>2019-01-31T12:21:11Z</time>
      </trkpt>
      <trkpt lat="41.95939" lon="0.79121">
        <ele>749.5</ele>
        <time>2019-01-31T12:21:16Z</time>
      </trkpt>
      <trkpt lat="41.95932" lon="0.79127">
        <ele>748.6</ele>
        <time>2019-01-31T12:21:21Z</time>
      </trkpt>
      <trkpt lat="41.95923" lon="0.79129">
        <ele>748.1</ele>
        <time>2019-01-31T12:21:26Z</time>
      </trkpt>
      <trkpt lat="41.95913" lon="0.79126">
        <ele>746.7</ele>
        <time>2019-01-31T12:21:32Z</time>
      </trkpt>
      <trkpt lat="41.95906" lon="0.79116">
        <ele>745.1</ele>
        <time>2019-01-31T12:21:38Z</time>
      </trkpt>
      <trkpt lat="41.959" lon="0.79104">
        <ele>743.7</ele>
        <time>2019-01-31T12:21:44Z</time>
      </trkpt>
      <trkpt lat="41.95894" lon="0.79089">
        <ele>743.2</ele>
        <time>2019-01-31T12:21:51Z</time>
      </trkpt>
      <trkpt lat="41.95889" lon="0.79076">
        <ele>741.8</ele>
        <time>2019-01-31T12:21:58Z</time>
      </trkpt>
      <trkpt lat="41.95883" lon="0.79063">
        <ele>739.8</ele>
        <time>2019-01-31T12:22:04Z</time>
      </trkpt>
      <trkpt lat="41.95877" lon="0.79053">
        <ele>738.4</ele>
        <time>2019-01-31T12:22:10Z</time>
      </trkpt>
      <trkpt lat="41.95866" lon="0.79049">
        <ele>736.6</ele>
        <time>2019-01-31T12:22:16Z</time>
      </trkpt>
      <trkpt lat="41.95855" lon="0.79046">
        <ele>735.5</ele>
        <time>2019-01-31T12:22:22Z</time>
      </trkpt>
      <trkpt lat="41.95846" lon="0.79043">
        <ele>735.1</ele>
        <time>2019-01-31T12:22:28Z</time>
      </trkpt>
      <trkpt lat="41.95836" lon="0.79043">
        <ele>735.1</ele>
        <time>2019-01-31T12:22:33Z</time>
      </trkpt>
      <trkpt lat="41.95825" lon="0.79054">
        <ele>735</ele>
        <time>2019-01-31T12:22:41Z</time>
      </trkpt>
      <trkpt lat="41.95818" lon="0.79068">
        <ele>735.5</ele>
        <time>2019-01-31T12:22:49Z</time>
      </trkpt>
      <trkpt lat="41.95812" lon="0.79083">
        <ele>735.5</ele>
        <time>2019-01-31T12:22:56Z</time>
      </trkpt>
      <trkpt lat="41.95808" lon="0.79099">
        <ele>736.9</ele>
        <time>2019-01-31T12:23:03Z</time>
      </trkpt>
      <trkpt lat="41.95804" lon="0.79114">
        <ele>739.3</ele>
        <time>2019-01-31T12:23:10Z</time>
      </trkpt>
      <trkpt lat="41.958" lon="0.79131">
        <ele>739.9</ele>
        <time>2019-01-31T12:23:17Z</time>
      </trkpt>
      <trkpt lat="41.95794" lon="0.79147">
        <ele>740.3</ele>
        <time>2019-01-31T12:23:25Z</time>
      </trkpt>
      <trkpt lat="41.9579" lon="0.79161">
        <ele>740.9</ele>
        <time>2019-01-31T12:23:31Z</time>
      </trkpt>
      <trkpt lat="41.95785" lon="0.79175">
        <ele>742.2</ele>
        <time>2019-01-31T12:23:38Z</time>
      </trkpt>
      <trkpt lat="41.95778" lon="0.7919">
        <ele>744.3</ele>
        <time>2019-01-31T12:23:45Z</time>
      </trkpt>
      <trkpt lat="41.95773" lon="0.79202">
        <ele>744.7</ele>
        <time>2019-01-31T12:23:51Z</time>
      </trkpt>
      <trkpt lat="41.95768" lon="0.79215">
        <ele>745.6</ele>
        <time>2019-01-31T12:23:57Z</time>
      </trkpt>
      <trkpt lat="41.95766" lon="0.79228">
        <ele>746.1</ele>
        <time>2019-01-31T12:24:03Z</time>
      </trkpt>
      <trkpt lat="41.9576" lon="0.79239">
        <ele>747.6</ele>
        <time>2019-01-31T12:24:09Z</time>
      </trkpt>
      <trkpt lat="41.9575" lon="0.79245">
        <ele>747.5</ele>
        <time>2019-01-31T12:24:15Z</time>
      </trkpt>
      <trkpt lat="41.95742" lon="0.79253">
        <ele>748.5</ele>
        <time>2019-01-31T12:24:21Z</time>
      </trkpt>
      <trkpt lat="41.95737" lon="0.79263">
        <ele>748.6</ele>
        <time>2019-01-31T12:24:26Z</time>
      </trkpt>
      <trkpt lat="41.95731" lon="0.79267">
        <ele>748</ele>
        <time>2019-01-31T12:24:29Z</time>
      </trkpt>
      <trkpt lat="41.95724" lon="0.79255">
        <ele>749.5</ele>
        <time>2019-01-31T12:24:36Z</time>
      </trkpt>
      <trkpt lat="41.95724" lon="0.7924">
        <ele>751.5</ele>
        <time>2019-01-31T12:24:42Z</time>
      </trkpt>
      <trkpt lat="41.95721" lon="0.79228">
        <ele>751.9</ele>
        <time>2019-01-31T12:24:48Z</time>
      </trkpt>
      <trkpt lat="41.95717" lon="0.79215">
        <ele>752.9</ele>
        <time>2019-01-31T12:24:53Z</time>
      </trkpt>
      <trkpt lat="41.95714" lon="0.79202">
        <ele>753.9</ele>
        <time>2019-01-31T12:24:59Z</time>
      </trkpt>
      <trkpt lat="41.95711" lon="0.7919">
        <ele>755.2</ele>
        <time>2019-01-31T12:25:05Z</time>
      </trkpt>
      <trkpt lat="41.95703" lon="0.79179">
        <ele>757.1</ele>
        <time>2019-01-31T12:25:11Z</time>
      </trkpt>
      <trkpt lat="41.95696" lon="0.79169">
        <ele>758.2</ele>
        <time>2019-01-31T12:25:17Z</time>
      </trkpt>
      <trkpt lat="41.95692" lon="0.79157">
        <ele>759.1</ele>
        <time>2019-01-31T12:25:23Z</time>
      </trkpt>
      <trkpt lat="41.95689" lon="0.79145">
        <ele>759.5</ele>
        <time>2019-01-31T12:25:28Z</time>
      </trkpt>
      <trkpt lat="41.95685" lon="0.79131">
        <ele>760.5</ele>
        <time>2019-01-31T12:25:35Z</time>
      </trkpt>
      <trkpt lat="41.95681" lon="0.79116">
        <ele>761.5</ele>
        <time>2019-01-31T12:25:41Z</time>
      </trkpt>
      <trkpt lat="41.95676" lon="0.79105">
        <ele>762.4</ele>
        <time>2019-01-31T12:25:47Z</time>
      </trkpt>
      <trkpt lat="41.95671" lon="0.79095">
        <ele>763.5</ele>
        <time>2019-01-31T12:25:52Z</time>
      </trkpt>
      <trkpt lat="41.95665" lon="0.79085">
        <ele>763.4</ele>
        <time>2019-01-31T12:25:57Z</time>
      </trkpt>
      <trkpt lat="41.95661" lon="0.79072">
        <ele>764</ele>
        <time>2019-01-31T12:26:03Z</time>
      </trkpt>
      <trkpt lat="41.95657" lon="0.79061">
        <ele>763.9</ele>
        <time>2019-01-31T12:26:08Z</time>
      </trkpt>
      <trkpt lat="41.95653" lon="0.79051">
        <ele>765.3</ele>
        <time>2019-01-31T12:26:13Z</time>
      </trkpt>
      <trkpt lat="41.95649" lon="0.79042">
        <ele>765.4</ele>
        <time>2019-01-31T12:26:18Z</time>
      </trkpt>
      <trkpt lat="41.95657" lon="0.79053">
        <ele>765.3</ele>
        <time>2019-01-31T12:26:24Z</time>
      </trkpt>
      <trkpt lat="41.95661" lon="0.79066">
        <ele>764.8</ele>
        <time>2019-01-31T12:26:30Z</time>
      </trkpt>
      <trkpt lat="41.95665" lon="0.7908">
        <ele>764.3</ele>
        <time>2019-01-31T12:26:36Z</time>
      </trkpt>
      <trkpt lat="41.9567" lon="0.79092">
        <ele>763.9</ele>
        <time>2019-01-31T12:26:42Z</time>
      </trkpt>
      <trkpt lat="41.95674" lon="0.79104">
        <ele>763.5</ele>
        <time>2019-01-31T12:26:48Z</time>
      </trkpt>
      <trkpt lat="41.95679" lon="0.79118">
        <ele>762.4</ele>
        <time>2019-01-31T12:26:54Z</time>
      </trkpt>
      <trkpt lat="41.95682" lon="0.79132">
        <ele>761.6</ele>
        <time>2019-01-31T12:27:01Z</time>
      </trkpt>
      <trkpt lat="41.95686" lon="0.79147">
        <ele>760.5</ele>
        <time>2019-01-31T12:27:07Z</time>
      </trkpt>
      <trkpt lat="41.9569" lon="0.7916">
        <ele>760.6</ele>
        <time>2019-01-31T12:27:13Z</time>
      </trkpt>
      <trkpt lat="41.95692" lon="0.79177">
        <ele>759.1</ele>
        <time>2019-01-31T12:27:21Z</time>
      </trkpt>
      <trkpt lat="41.95694" lon="0.79193">
        <ele>758.1</ele>
        <time>2019-01-31T12:27:28Z</time>
      </trkpt>
      <trkpt lat="41.95696" lon="0.79209">
        <ele>757.1</ele>
        <time>2019-01-31T12:27:35Z</time>
      </trkpt>
      <trkpt lat="41.95697" lon="0.79228">
        <ele>755.2</ele>
        <time>2019-01-31T12:27:43Z</time>
      </trkpt>
      <trkpt lat="41.95697" lon="0.79243">
        <ele>755.2</ele>
        <time>2019-01-31T12:27:49Z</time>
      </trkpt>
      <trkpt lat="41.95697" lon="0.79259">
        <ele>754.7</ele>
        <time>2019-01-31T12:27:56Z</time>
      </trkpt>
      <trkpt lat="41.95691" lon="0.79272">
        <ele>754.7</ele>
        <time>2019-01-31T12:28:02Z</time>
      </trkpt>
      <trkpt lat="41.95684" lon="0.79282">
        <ele>755.2</ele>
        <time>2019-01-31T12:28:08Z</time>
      </trkpt>
      <trkpt lat="41.95676" lon="0.7929">
        <ele>755.3</ele>
        <time>2019-01-31T12:28:14Z</time>
      </trkpt>
      <trkpt lat="41.95668" lon="0.79299">
        <ele>756.6</ele>
        <time>2019-01-31T12:28:20Z</time>
      </trkpt>
      <trkpt lat="41.95658" lon="0.79309">
        <ele>758.2</ele>
        <time>2019-01-31T12:28:27Z</time>
      </trkpt>
      <trkpt lat="41.95652" lon="0.79319">
        <ele>756.7</ele>
        <time>2019-01-31T12:28:32Z</time>
      </trkpt>
      <trkpt lat="41.95645" lon="0.79328">
        <ele>756.6</ele>
        <time>2019-01-31T12:28:38Z</time>
      </trkpt>
      <trkpt lat="41.95637" lon="0.79335">
        <ele>756.7</ele>
        <time>2019-01-31T12:28:44Z</time>
      </trkpt>
      <trkpt lat="41.95629" lon="0.79344">
        <ele>757.1</ele>
        <time>2019-01-31T12:28:50Z</time>
      </trkpt>
      <trkpt lat="41.95621" lon="0.79353">
        <ele>757.1</ele>
        <time>2019-01-31T12:28:55Z</time>
      </trkpt>
      <trkpt lat="41.95613" lon="0.79363">
        <ele>759.1</ele>
        <time>2019-01-31T12:29:01Z</time>
      </trkpt>
      <trkpt lat="41.95606" lon="0.79374">
        <ele>759.1</ele>
        <time>2019-01-31T12:29:08Z</time>
      </trkpt>
      <trkpt lat="41.95602" lon="0.79387">
        <ele>757.6</ele>
        <time>2019-01-31T12:29:14Z</time>
      </trkpt>
      <trkpt lat="41.95601" lon="0.79401">
        <ele>757.1</ele>
        <time>2019-01-31T12:29:19Z</time>
      </trkpt>
      <trkpt lat="41.95602" lon="0.79416">
        <ele>756.7</ele>
        <time>2019-01-31T12:29:26Z</time>
      </trkpt>
      <trkpt lat="41.95604" lon="0.79431">
        <ele>755.3</ele>
        <time>2019-01-31T12:29:32Z</time>
      </trkpt>
      <trkpt lat="41.95606" lon="0.79444">
        <ele>756.3</ele>
        <time>2019-01-31T12:29:38Z</time>
      </trkpt>
      <trkpt lat="41.9561" lon="0.79457">
        <ele>756.3</ele>
        <time>2019-01-31T12:29:44Z</time>
      </trkpt>
      <trkpt lat="41.95613" lon="0.79476">
        <ele>756.2</ele>
        <time>2019-01-31T12:29:52Z</time>
      </trkpt>
      <trkpt lat="41.95612" lon="0.79493">
        <ele>755.7</ele>
        <time>2019-01-31T12:29:59Z</time>
      </trkpt>
      <trkpt lat="41.95611" lon="0.79508">
        <ele>756.2</ele>
        <time>2019-01-31T12:30:06Z</time>
      </trkpt>
      <trkpt lat="41.95609" lon="0.79523">
        <ele>756.2</ele>
        <time>2019-01-31T12:30:12Z</time>
      </trkpt>
      <trkpt lat="41.95606" lon="0.79538">
        <ele>757.6</ele>
        <time>2019-01-31T12:30:19Z</time>
      </trkpt>
      <trkpt lat="41.95602" lon="0.79553">
        <ele>757.6</ele>
        <time>2019-01-31T12:30:26Z</time>
      </trkpt>
      <trkpt lat="41.95598" lon="0.79567">
        <ele>757.6</ele>
        <time>2019-01-31T12:30:32Z</time>
      </trkpt>
      <trkpt lat="41.95592" lon="0.79582">
        <ele>757.7</ele>
        <time>2019-01-31T12:30:39Z</time>
      </trkpt>
      <trkpt lat="41.95588" lon="0.79596">
        <ele>757.6</ele>
        <time>2019-01-31T12:30:46Z</time>
      </trkpt>
      <trkpt lat="41.95586" lon="0.79609">
        <ele>757.7</ele>
        <time>2019-01-31T12:30:51Z</time>
      </trkpt>
      <trkpt lat="41.95585" lon="0.79622">
        <ele>757.1</ele>
        <time>2019-01-31T12:30:57Z</time>
      </trkpt>
      <trkpt lat="41.95582" lon="0.79636">
        <ele>757.2</ele>
        <time>2019-01-31T12:31:03Z</time>
      </trkpt>
      <trkpt lat="41.95579" lon="0.79649">
        <ele>757.1</ele>
        <time>2019-01-31T12:31:09Z</time>
      </trkpt>
      <trkpt lat="41.95575" lon="0.79662">
        <ele>757.1</ele>
        <time>2019-01-31T12:31:15Z</time>
      </trkpt>
      <trkpt lat="41.95572" lon="0.79676">
        <ele>757.2</ele>
        <time>2019-01-31T12:31:21Z</time>
      </trkpt>
      <trkpt lat="41.9557" lon="0.79689">
        <ele>757.2</ele>
        <time>2019-01-31T12:31:27Z</time>
      </trkpt>
      <trkpt lat="41.9557" lon="0.79703">
        <ele>757.1</ele>
        <time>2019-01-31T12:31:33Z</time>
      </trkpt>
      <trkpt lat="41.95571" lon="0.79719">
        <ele>757.1</ele>
        <time>2019-01-31T12:31:39Z</time>
      </trkpt>
      <trkpt lat="41.9557" lon="0.79733">
        <ele>756.2</ele>
        <time>2019-01-31T12:31:45Z</time>
      </trkpt>
      <trkpt lat="41.95568" lon="0.79747">
        <ele>756.7</ele>
        <time>2019-01-31T12:31:51Z</time>
      </trkpt>
      <trkpt lat="41.95566" lon="0.79761">
        <ele>756.7</ele>
        <time>2019-01-31T12:31:58Z</time>
      </trkpt>
      <trkpt lat="41.95564" lon="0.79776">
        <ele>758.2</ele>
        <time>2019-01-31T12:32:04Z</time>
      </trkpt>
      <trkpt lat="41.95564" lon="0.79789">
        <ele>758.2</ele>
        <time>2019-01-31T12:32:10Z</time>
      </trkpt>
      <trkpt lat="41.95563" lon="0.79803">
        <ele>758.2</ele>
        <time>2019-01-31T12:32:15Z</time>
      </trkpt>
      <trkpt lat="41.95565" lon="0.79816">
        <ele>758.1</ele>
        <time>2019-01-31T12:32:21Z</time>
      </trkpt>
      <trkpt lat="41.95568" lon="0.79828">
        <ele>757.1</ele>
        <time>2019-01-31T12:32:27Z</time>
      </trkpt>
      <trkpt lat="41.95572" lon="0.79842">
        <ele>755.7</ele>
        <time>2019-01-31T12:32:33Z</time>
      </trkpt>
      <trkpt lat="41.95574" lon="0.79856">
        <ele>753.8</ele>
        <time>2019-01-31T12:32:39Z</time>
      </trkpt>
      <trkpt lat="41.95575" lon="0.7987">
        <ele>752.3</ele>
        <time>2019-01-31T12:32:45Z</time>
      </trkpt>
      <trkpt lat="41.95576" lon="0.79884">
        <ele>752.8</ele>
        <time>2019-01-31T12:32:51Z</time>
      </trkpt>
      <trkpt lat="41.95576" lon="0.79897">
        <ele>752.9</ele>
        <time>2019-01-31T12:32:56Z</time>
      </trkpt>
      <trkpt lat="41.95577" lon="0.7991">
        <ele>752.8</ele>
        <time>2019-01-31T12:33:02Z</time>
      </trkpt>
      <trkpt lat="41.95576" lon="0.79926">
        <ele>752.9</ele>
        <time>2019-01-31T12:33:09Z</time>
      </trkpt>
      <trkpt lat="41.95577" lon="0.79941">
        <ele>753.4</ele>
        <time>2019-01-31T12:33:15Z</time>
      </trkpt>
      <trkpt lat="41.95577" lon="0.79956">
        <ele>753.3</ele>
        <time>2019-01-31T12:33:21Z</time>
      </trkpt>
      <trkpt lat="41.95577" lon="0.79969">
        <ele>753.8</ele>
        <time>2019-01-31T12:33:27Z</time>
      </trkpt>
      <trkpt lat="41.95576" lon="0.79984">
        <ele>755.3</ele>
        <time>2019-01-31T12:33:34Z</time>
      </trkpt>
      <trkpt lat="41.95574" lon="0.79997">
        <ele>755.2</ele>
        <time>2019-01-31T12:33:39Z</time>
      </trkpt>
      <trkpt lat="41.95571" lon="0.8001">
        <ele>755.2</ele>
        <time>2019-01-31T12:33:45Z</time>
      </trkpt>
      <trkpt lat="41.9557" lon="0.80025">
        <ele>754.3</ele>
        <time>2019-01-31T12:33:51Z</time>
      </trkpt>
      <trkpt lat="41.95569" lon="0.80038">
        <ele>753.3</ele>
        <time>2019-01-31T12:33:57Z</time>
      </trkpt>
      <trkpt lat="41.95568" lon="0.80051">
        <ele>752.3</ele>
        <time>2019-01-31T12:34:02Z</time>
      </trkpt>
      <trkpt lat="41.95564" lon="0.80065">
        <ele>751.5</ele>
        <time>2019-01-31T12:34:09Z</time>
      </trkpt>
      <trkpt lat="41.9556" lon="0.80077">
        <ele>751</ele>
        <time>2019-01-31T12:34:14Z</time>
      </trkpt>
      <trkpt lat="41.95555" lon="0.80088">
        <ele>750.9</ele>
        <time>2019-01-31T12:34:20Z</time>
      </trkpt>
      <trkpt lat="41.9555" lon="0.80101">
        <ele>750.5</ele>
        <time>2019-01-31T12:34:26Z</time>
      </trkpt>
      <trkpt lat="41.95548" lon="0.80115">
        <ele>749.4</ele>
        <time>2019-01-31T12:34:32Z</time>
      </trkpt>
      <trkpt lat="41.95548" lon="0.80129">
        <ele>748</ele>
        <time>2019-01-31T12:34:38Z</time>
      </trkpt>
      <trkpt lat="41.9555" lon="0.80142">
        <ele>748.1</ele>
        <time>2019-01-31T12:34:44Z</time>
      </trkpt>
      <trkpt lat="41.95553" lon="0.80155">
        <ele>747.1</ele>
        <time>2019-01-31T12:34:50Z</time>
      </trkpt>
      <trkpt lat="41.95558" lon="0.80166">
        <ele>745.7</ele>
        <time>2019-01-31T12:34:55Z</time>
      </trkpt>
      <trkpt lat="41.95562" lon="0.80179">
        <ele>744.6</ele>
        <time>2019-01-31T12:35:01Z</time>
      </trkpt>
      <trkpt lat="41.95566" lon="0.80191">
        <ele>743.7</ele>
        <time>2019-01-31T12:35:06Z</time>
      </trkpt>
      <trkpt lat="41.95567" lon="0.80205">
        <ele>742.2</ele>
        <time>2019-01-31T12:35:12Z</time>
      </trkpt>
      <trkpt lat="41.95567" lon="0.80218">
        <ele>741.3</ele>
        <time>2019-01-31T12:35:18Z</time>
      </trkpt>
      <trkpt lat="41.95568" lon="0.80232">
        <ele>739.9</ele>
        <time>2019-01-31T12:35:24Z</time>
      </trkpt>
      <trkpt lat="41.95567" lon="0.80246">
        <ele>738.5</ele>
        <time>2019-01-31T12:35:30Z</time>
      </trkpt>
      <trkpt lat="41.95565" lon="0.80261">
        <ele>737</ele>
        <time>2019-01-31T12:35:36Z</time>
      </trkpt>
      <trkpt lat="41.95563" lon="0.80274">
        <ele>736.5</ele>
        <time>2019-01-31T12:35:42Z</time>
      </trkpt>
      <trkpt lat="41.9556" lon="0.80287">
        <ele>736.5</ele>
        <time>2019-01-31T12:35:48Z</time>
      </trkpt>
      <trkpt lat="41.95556" lon="0.80301">
        <ele>735</ele>
        <time>2019-01-31T12:35:54Z</time>
      </trkpt>
      <trkpt lat="41.95554" lon="0.80314">
        <ele>735.1</ele>
        <time>2019-01-31T12:36:00Z</time>
      </trkpt>
      <trkpt lat="41.9555" lon="0.80327">
        <ele>736.6</ele>
        <time>2019-01-31T12:36:06Z</time>
      </trkpt>
      <trkpt lat="41.95548" lon="0.8034">
        <ele>736.5</ele>
        <time>2019-01-31T12:36:12Z</time>
      </trkpt>
      <trkpt lat="41.95544" lon="0.80354">
        <ele>736.5</ele>
        <time>2019-01-31T12:36:18Z</time>
      </trkpt>
      <trkpt lat="41.95542" lon="0.80367">
        <ele>736.5</ele>
        <time>2019-01-31T12:36:24Z</time>
      </trkpt>
      <trkpt lat="41.95539" lon="0.80381">
        <ele>737.4</ele>
        <time>2019-01-31T12:36:30Z</time>
      </trkpt>
      <trkpt lat="41.95536" lon="0.80395">
        <ele>737.4</ele>
        <time>2019-01-31T12:36:36Z</time>
      </trkpt>
      <trkpt lat="41.95533" lon="0.80408">
        <ele>739.3</ele>
        <time>2019-01-31T12:36:42Z</time>
      </trkpt>
      <trkpt lat="41.95528" lon="0.80423">
        <ele>739.3</ele>
        <time>2019-01-31T12:36:49Z</time>
      </trkpt>
      <trkpt lat="41.95524" lon="0.80435">
        <ele>739.4</ele>
        <time>2019-01-31T12:36:54Z</time>
      </trkpt>
      <trkpt lat="41.95519" lon="0.80445">
        <ele>739.3</ele>
        <time>2019-01-31T12:36:59Z</time>
      </trkpt>
      <trkpt lat="41.95511" lon="0.80454">
        <ele>740.3</ele>
        <time>2019-01-31T12:37:05Z</time>
      </trkpt>
      <trkpt lat="41.95503" lon="0.80463">
        <ele>740.9</ele>
        <time>2019-01-31T12:37:11Z</time>
      </trkpt>
      <trkpt lat="41.95495" lon="0.80472">
        <ele>740.9</ele>
        <time>2019-01-31T12:37:17Z</time>
      </trkpt>
      <trkpt lat="41.95489" lon="0.80481">
        <ele>740.9</ele>
        <time>2019-01-31T12:37:23Z</time>
      </trkpt>
      <trkpt lat="41.95482" lon="0.80492">
        <ele>740.8</ele>
        <time>2019-01-31T12:37:28Z</time>
      </trkpt>
      <trkpt lat="41.95475" lon="0.80501">
        <ele>740.8</ele>
        <time>2019-01-31T12:37:34Z</time>
      </trkpt>
      <trkpt lat="41.95465" lon="0.80507">
        <ele>739.9</ele>
        <time>2019-01-31T12:37:40Z</time>
      </trkpt>
      <trkpt lat="41.95454" lon="0.80511">
        <ele>739.3</ele>
        <time>2019-01-31T12:37:47Z</time>
      </trkpt>
      <trkpt lat="41.95444" lon="0.80512">
        <ele>739.3</ele>
        <time>2019-01-31T12:37:53Z</time>
      </trkpt>
      <trkpt lat="41.95433" lon="0.80511">
        <ele>738.9</ele>
        <time>2019-01-31T12:37:59Z</time>
      </trkpt>
      <trkpt lat="41.95422" lon="0.8051">
        <ele>738.4</ele>
        <time>2019-01-31T12:38:05Z</time>
      </trkpt>
      <trkpt lat="41.95411" lon="0.80507">
        <ele>738.5</ele>
        <time>2019-01-31T12:38:12Z</time>
      </trkpt>
      <trkpt lat="41.95401" lon="0.80505">
        <ele>737.5</ele>
        <time>2019-01-31T12:38:18Z</time>
      </trkpt>
      <trkpt lat="41.9539" lon="0.80503">
        <ele>736.9</ele>
        <time>2019-01-31T12:38:24Z</time>
      </trkpt>
      <trkpt lat="41.95379" lon="0.80502">
        <ele>736</ele>
        <time>2019-01-31T12:38:30Z</time>
      </trkpt>
      <trkpt lat="41.95369" lon="0.80501">
        <ele>734.6</ele>
        <time>2019-01-31T12:38:36Z</time>
      </trkpt>
      <trkpt lat="41.9536" lon="0.80503">
        <ele>733.1</ele>
        <time>2019-01-31T12:38:41Z</time>
      </trkpt>
      <trkpt lat="41.95348" lon="0.80507">
        <ele>731.7</ele>
        <time>2019-01-31T12:38:48Z</time>
      </trkpt>
      <trkpt lat="41.95337" lon="0.80511">
        <ele>730.3</ele>
        <time>2019-01-31T12:38:54Z</time>
      </trkpt>
      <trkpt lat="41.95326" lon="0.80514">
        <ele>728.9</ele>
        <time>2019-01-31T12:39:01Z</time>
      </trkpt>
      <trkpt lat="41.95317" lon="0.8052">
        <ele>727.8</ele>
        <time>2019-01-31T12:39:07Z</time>
      </trkpt>
      <trkpt lat="41.95306" lon="0.80527">
        <ele>726.5</ele>
        <time>2019-01-31T12:39:13Z</time>
      </trkpt>
      <trkpt lat="41.95297" lon="0.80531">
        <ele>724.9</ele>
        <time>2019-01-31T12:39:19Z</time>
      </trkpt>
      <trkpt lat="41.95287" lon="0.80535">
        <ele>724</ele>
        <time>2019-01-31T12:39:25Z</time>
      </trkpt>
      <trkpt lat="41.95277" lon="0.8054">
        <ele>722.6</ele>
        <time>2019-01-31T12:39:31Z</time>
      </trkpt>
      <trkpt lat="41.95267" lon="0.80542">
        <ele>721.6</ele>
        <time>2019-01-31T12:39:37Z</time>
      </trkpt>
      <trkpt lat="41.95257" lon="0.80546">
        <ele>720.6</ele>
        <time>2019-01-31T12:39:43Z</time>
      </trkpt>
      <trkpt lat="41.95247" lon="0.80551">
        <ele>718.8</ele>
        <time>2019-01-31T12:39:49Z</time>
      </trkpt>
      <trkpt lat="41.95238" lon="0.80559">
        <ele>718.2</ele>
        <time>2019-01-31T12:39:55Z</time>
      </trkpt>
      <trkpt lat="41.95231" lon="0.8057">
        <ele>717.2</ele>
        <time>2019-01-31T12:40:01Z</time>
      </trkpt>
      <trkpt lat="41.95223" lon="0.8058">
        <ele>716.8</ele>
        <time>2019-01-31T12:40:07Z</time>
      </trkpt>
      <trkpt lat="41.95216" lon="0.80591">
        <ele>716.4</ele>
        <time>2019-01-31T12:40:13Z</time>
      </trkpt>
      <trkpt lat="41.95209" lon="0.80601">
        <ele>715.3</ele>
        <time>2019-01-31T12:40:20Z</time>
      </trkpt>
      <trkpt lat="41.95201" lon="0.80611">
        <ele>715.4</ele>
        <time>2019-01-31T12:40:26Z</time>
      </trkpt>
      <trkpt lat="41.95192" lon="0.80619">
        <ele>714.4</ele>
        <time>2019-01-31T12:40:32Z</time>
      </trkpt>
      <trkpt lat="41.95182" lon="0.80624">
        <ele>714</ele>
        <time>2019-01-31T12:40:38Z</time>
      </trkpt>
      <trkpt lat="41.95173" lon="0.8063">
        <ele>712.4</ele>
        <time>2019-01-31T12:40:44Z</time>
      </trkpt>
      <trkpt lat="41.95165" lon="0.80637">
        <ele>711.9</ele>
        <time>2019-01-31T12:40:49Z</time>
      </trkpt>
      <trkpt lat="41.95156" lon="0.80643">
        <ele>711.5</ele>
        <time>2019-01-31T12:40:55Z</time>
      </trkpt>
      <trkpt lat="41.95147" lon="0.80649">
        <ele>711.1</ele>
        <time>2019-01-31T12:41:01Z</time>
      </trkpt>
      <trkpt lat="41.95137" lon="0.80654">
        <ele>710</ele>
        <time>2019-01-31T12:41:07Z</time>
      </trkpt>
      <trkpt lat="41.95128" lon="0.80659">
        <ele>710</ele>
        <time>2019-01-31T12:41:12Z</time>
      </trkpt>
      <trkpt lat="41.95119" lon="0.80663">
        <ele>708.6</ele>
        <time>2019-01-31T12:41:18Z</time>
      </trkpt>
      <trkpt lat="41.95108" lon="0.80666">
        <ele>708.2</ele>
        <time>2019-01-31T12:41:24Z</time>
      </trkpt>
      <trkpt lat="41.95098" lon="0.8067">
        <ele>707.6</ele>
        <time>2019-01-31T12:41:30Z</time>
      </trkpt>
      <trkpt lat="41.95089" lon="0.80673">
        <ele>706.8</ele>
        <time>2019-01-31T12:41:36Z</time>
      </trkpt>
      <trkpt lat="41.95079" lon="0.80677">
        <ele>705.2</ele>
        <time>2019-01-31T12:41:41Z</time>
      </trkpt>
      <trkpt lat="41.95069" lon="0.80678">
        <ele>704.8</ele>
        <time>2019-01-31T12:41:47Z</time>
      </trkpt>
      <trkpt lat="41.9506" lon="0.80675">
        <ele>703.8</ele>
        <time>2019-01-31T12:41:53Z</time>
      </trkpt>
      <trkpt lat="41.95051" lon="0.80669">
        <ele>702.8</ele>
        <time>2019-01-31T12:41:58Z</time>
      </trkpt>
      <trkpt lat="41.95044" lon="0.80662">
        <ele>701.9</ele>
        <time>2019-01-31T12:42:03Z</time>
      </trkpt>
      <trkpt lat="41.95035" lon="0.80658">
        <ele>701.9</ele>
        <time>2019-01-31T12:42:08Z</time>
      </trkpt>
      <trkpt lat="41.95028" lon="0.80669">
        <ele>699.5</ele>
        <time>2019-01-31T12:42:15Z</time>
      </trkpt>
      <trkpt lat="41.95022" lon="0.80681">
        <ele>696.6</ele>
        <time>2019-01-31T12:42:21Z</time>
      </trkpt>
      <trkpt lat="41.95013" lon="0.80686">
        <ele>695.6</ele>
        <time>2019-01-31T12:42:26Z</time>
      </trkpt>
      <trkpt lat="41.95003" lon="0.80689">
        <ele>695.1</ele>
        <time>2019-01-31T12:42:32Z</time>
      </trkpt>
      <trkpt lat="41.94993" lon="0.80689">
        <ele>694.3</ele>
        <time>2019-01-31T12:42:38Z</time>
      </trkpt>
      <trkpt lat="41.94983" lon="0.80693">
        <ele>693.8</ele>
        <time>2019-01-31T12:42:44Z</time>
      </trkpt>
      <trkpt lat="41.94973" lon="0.80696">
        <ele>692.8</ele>
        <time>2019-01-31T12:42:50Z</time>
      </trkpt>
      <trkpt lat="41.94963" lon="0.80702">
        <ele>690.9</ele>
        <time>2019-01-31T12:42:56Z</time>
      </trkpt>
      <trkpt lat="41.94954" lon="0.80705">
        <ele>689.5</ele>
        <time>2019-01-31T12:43:02Z</time>
      </trkpt>
      <trkpt lat="41.94944" lon="0.80709">
        <ele>688.4</ele>
        <time>2019-01-31T12:43:07Z</time>
      </trkpt>
      <trkpt lat="41.94933" lon="0.80712">
        <ele>687.5</ele>
        <time>2019-01-31T12:43:14Z</time>
      </trkpt>
      <trkpt lat="41.94925" lon="0.80717">
        <ele>685.6</ele>
        <time>2019-01-31T12:43:19Z</time>
      </trkpt>
      <trkpt lat="41.94915" lon="0.80716">
        <ele>685.5</ele>
        <time>2019-01-31T12:43:25Z</time>
      </trkpt>
      <trkpt lat="41.94904" lon="0.80715">
        <ele>684.6</ele>
        <time>2019-01-31T12:43:31Z</time>
      </trkpt>
      <trkpt lat="41.94895" lon="0.80717">
        <ele>683.1</ele>
        <time>2019-01-31T12:43:36Z</time>
      </trkpt>
      <trkpt lat="41.94885" lon="0.80718">
        <ele>682.1</ele>
        <time>2019-01-31T12:43:42Z</time>
      </trkpt>
      <trkpt lat="41.94874" lon="0.8072">
        <ele>680.2</ele>
        <time>2019-01-31T12:43:48Z</time>
      </trkpt>
      <trkpt lat="41.94864" lon="0.80719">
        <ele>678.3</ele>
        <time>2019-01-31T12:43:54Z</time>
      </trkpt>
      <trkpt lat="41.94856" lon="0.80725">
        <ele>676.5</ele>
        <time>2019-01-31T12:43:59Z</time>
      </trkpt>
      <trkpt lat="41.94848" lon="0.80734">
        <ele>677</ele>
        <time>2019-01-31T12:44:05Z</time>
      </trkpt>
      <trkpt lat="41.94843" lon="0.80744">
        <ele>677</ele>
        <time>2019-01-31T12:44:10Z</time>
      </trkpt>
      <trkpt lat="41.94839" lon="0.80757">
        <ele>676.5</ele>
        <time>2019-01-31T12:44:16Z</time>
      </trkpt>
      <trkpt lat="41.94833" lon="0.80769">
        <ele>676</ele>
        <time>2019-01-31T12:44:22Z</time>
      </trkpt>
      <trkpt lat="41.94828" lon="0.80779">
        <ele>676</ele>
        <time>2019-01-31T12:44:28Z</time>
      </trkpt>
      <trkpt lat="41.94822" lon="0.80791">
        <ele>675.4</ele>
        <time>2019-01-31T12:44:34Z</time>
      </trkpt>
      <trkpt lat="41.94816" lon="0.80801">
        <ele>674.9</ele>
        <time>2019-01-31T12:44:39Z</time>
      </trkpt>
      <trkpt lat="41.94809" lon="0.80812">
        <ele>674.6</ele>
        <time>2019-01-31T12:44:45Z</time>
      </trkpt>
      <trkpt lat="41.94803" lon="0.80823">
        <ele>674.6</ele>
        <time>2019-01-31T12:44:51Z</time>
      </trkpt>
      <trkpt lat="41.94795" lon="0.80832">
        <ele>674.6</ele>
        <time>2019-01-31T12:44:57Z</time>
      </trkpt>
      <trkpt lat="41.94788" lon="0.8084">
        <ele>674.5</ele>
        <time>2019-01-31T12:45:03Z</time>
      </trkpt>
      <trkpt lat="41.9478" lon="0.80848">
        <ele>674</ele>
        <time>2019-01-31T12:45:08Z</time>
      </trkpt>
      <trkpt lat="41.94776" lon="0.8086">
        <ele>674</ele>
        <time>2019-01-31T12:45:14Z</time>
      </trkpt>
      <trkpt lat="41.94773" lon="0.80874">
        <ele>673.6</ele>
        <time>2019-01-31T12:45:20Z</time>
      </trkpt>
      <trkpt lat="41.94771" lon="0.80888">
        <ele>674.1</ele>
        <time>2019-01-31T12:45:26Z</time>
      </trkpt>
      <trkpt lat="41.94771" lon="0.80902">
        <ele>674.1</ele>
        <time>2019-01-31T12:45:32Z</time>
      </trkpt>
      <trkpt lat="41.94767" lon="0.80915">
        <ele>674.1</ele>
        <time>2019-01-31T12:45:38Z</time>
      </trkpt>
      <trkpt lat="41.94762" lon="0.80926">
        <ele>674</ele>
        <time>2019-01-31T12:45:44Z</time>
      </trkpt>
      <trkpt lat="41.9476" lon="0.80939">
        <ele>673.5</ele>
        <time>2019-01-31T12:45:49Z</time>
      </trkpt>
      <trkpt lat="41.94762" lon="0.80952">
        <ele>673.6</ele>
        <time>2019-01-31T12:45:55Z</time>
      </trkpt>
      <trkpt lat="41.94763" lon="0.80964">
        <ele>673.5</ele>
        <time>2019-01-31T12:46:00Z</time>
      </trkpt>
      <trkpt lat="41.94761" lon="0.80977">
        <ele>674.1</ele>
        <time>2019-01-31T12:46:05Z</time>
      </trkpt>
      <trkpt lat="41.94763" lon="0.80991">
        <ele>674.1</ele>
        <time>2019-01-31T12:46:12Z</time>
      </trkpt>
      <trkpt lat="41.94756" lon="0.80993">
        <ele>653.9</ele>
        <time>2019-01-31T12:46:15Z</time>
      </trkpt>
      <trkpt lat="41.94746" lon="0.80995">
        <ele>654.9</ele>
        <time>2019-01-31T12:46:22Z</time>
      </trkpt>
      <trkpt lat="41.94734" lon="0.80998">
        <ele>655.7</ele>
        <time>2019-01-31T12:46:28Z</time>
      </trkpt>
      <trkpt lat="41.94726" lon="0.81004">
        <ele>657.2</ele>
        <time>2019-01-31T12:46:34Z</time>
      </trkpt>
      <trkpt lat="41.94717" lon="0.81012">
        <ele>658.1</ele>
        <time>2019-01-31T12:46:40Z</time>
      </trkpt>
      <trkpt lat="41.94709" lon="0.81023">
        <ele>658.6</ele>
        <time>2019-01-31T12:46:46Z</time>
      </trkpt>
      <trkpt lat="41.94699" lon="0.81037">
        <ele>660</ele>
        <time>2019-01-31T12:46:54Z</time>
      </trkpt>
      <trkpt lat="41.94691" lon="0.81048">
        <ele>660</ele>
        <time>2019-01-31T12:47:01Z</time>
      </trkpt>
      <trkpt lat="41.94678" lon="0.81061">
        <ele>660</ele>
        <time>2019-01-31T12:47:10Z</time>
      </trkpt>
      <trkpt lat="41.94666" lon="0.81068">
        <ele>660</ele>
        <time>2019-01-31T12:47:17Z</time>
      </trkpt>
      <trkpt lat="41.94655" lon="0.81072">
        <ele>660.1</ele>
        <time>2019-01-31T12:47:24Z</time>
      </trkpt>
      <trkpt lat="41.94644" lon="0.81075">
        <ele>659.7</ele>
        <time>2019-01-31T12:47:31Z</time>
      </trkpt>
      <trkpt lat="41.94632" lon="0.81074">
        <ele>659.7</ele>
        <time>2019-01-31T12:47:37Z</time>
      </trkpt>
      <trkpt lat="41.94619" lon="0.81073">
        <ele>659.1</ele>
        <time>2019-01-31T12:47:45Z</time>
      </trkpt>
      <trkpt lat="41.9461" lon="0.81072">
        <ele>659.2</ele>
        <time>2019-01-31T12:47:50Z</time>
      </trkpt>
      <trkpt lat="41.94603" lon="0.81067">
        <ele>659.1</ele>
        <time>2019-01-31T12:47:55Z</time>
      </trkpt>
      <trkpt lat="41.94595" lon="0.81061">
        <ele>658.2</ele>
        <time>2019-01-31T12:48:00Z</time>
      </trkpt>
      <trkpt lat="41.94589" lon="0.81052">
        <ele>658.2</ele>
        <time>2019-01-31T12:48:05Z</time>
      </trkpt>
      <trkpt lat="41.94582" lon="0.81045">
        <ele>658.1</ele>
        <time>2019-01-31T12:48:10Z</time>
      </trkpt>
      <trkpt lat="41.94574" lon="0.8104">
        <ele>658.6</ele>
        <time>2019-01-31T12:48:15Z</time>
      </trkpt>
      <trkpt lat="41.94564" lon="0.81032">
        <ele>659.7</ele>
        <time>2019-01-31T12:48:21Z</time>
      </trkpt>
      <trkpt lat="41.94556" lon="0.81024">
        <ele>660.1</ele>
        <time>2019-01-31T12:48:27Z</time>
      </trkpt>
      <trkpt lat="41.94548" lon="0.81019">
        <ele>660.6</ele>
        <time>2019-01-31T12:48:32Z</time>
      </trkpt>
      <trkpt lat="41.94538" lon="0.81013">
        <ele>660.6</ele>
        <time>2019-01-31T12:48:39Z</time>
      </trkpt>
      <trkpt lat="41.94528" lon="0.81011">
        <ele>660.6</ele>
        <time>2019-01-31T12:48:44Z</time>
      </trkpt>
      <trkpt lat="41.94516" lon="0.81009">
        <ele>661</ele>
        <time>2019-01-31T12:48:51Z</time>
      </trkpt>
      <trkpt lat="41.94505" lon="0.81007">
        <ele>661.6</ele>
        <time>2019-01-31T12:48:57Z</time>
      </trkpt>
      <trkpt lat="41.94492" lon="0.81005">
        <ele>662.1</ele>
        <time>2019-01-31T12:49:05Z</time>
      </trkpt>
      <trkpt lat="41.94483" lon="0.81004">
        <ele>662.5</ele>
        <time>2019-01-31T12:49:10Z</time>
      </trkpt>
      <trkpt lat="41.94473" lon="0.81002">
        <ele>663</ele>
        <time>2019-01-31T12:49:16Z</time>
      </trkpt>
      <trkpt lat="41.94464" lon="0.80999">
        <ele>662.9</ele>
        <time>2019-01-31T12:49:22Z</time>
      </trkpt>
      <trkpt lat="41.94454" lon="0.80993">
        <ele>663.4</ele>
        <time>2019-01-31T12:49:28Z</time>
      </trkpt>
      <trkpt lat="41.94444" lon="0.80987">
        <ele>663.4</ele>
        <time>2019-01-31T12:49:34Z</time>
      </trkpt>
      <trkpt lat="41.94434" lon="0.80982">
        <ele>664.5</ele>
        <time>2019-01-31T12:49:40Z</time>
      </trkpt>
      <trkpt lat="41.94426" lon="0.80973">
        <ele>664.4</ele>
        <time>2019-01-31T12:49:46Z</time>
      </trkpt>
      <trkpt lat="41.94422" lon="0.80961">
        <ele>664.5</ele>
        <time>2019-01-31T12:49:51Z</time>
      </trkpt>
      <trkpt lat="41.94419" lon="0.80948">
        <ele>664.9</ele>
        <time>2019-01-31T12:49:57Z</time>
      </trkpt>
      <trkpt lat="41.94415" lon="0.80933">
        <ele>666.3</ele>
        <time>2019-01-31T12:50:04Z</time>
      </trkpt>
      <trkpt lat="41.94413" lon="0.80921">
        <ele>665.3</ele>
        <time>2019-01-31T12:50:09Z</time>
      </trkpt>
      <trkpt lat="41.94408" lon="0.80911">
        <ele>665.3</ele>
        <time>2019-01-31T12:50:14Z</time>
      </trkpt>
      <trkpt lat="41.94401" lon="0.80902">
        <ele>665.4</ele>
        <time>2019-01-31T12:50:20Z</time>
      </trkpt>
      <trkpt lat="41.94394" lon="0.80892">
        <ele>666.4</ele>
        <time>2019-01-31T12:50:26Z</time>
      </trkpt>
      <trkpt lat="41.94388" lon="0.80881">
        <ele>666.3</ele>
        <time>2019-01-31T12:50:32Z</time>
      </trkpt>
      <trkpt lat="41.94384" lon="0.8087">
        <ele>667.2</ele>
        <time>2019-01-31T12:50:37Z</time>
      </trkpt>
      <trkpt lat="41.9438" lon="0.80859">
        <ele>667.7</ele>
        <time>2019-01-31T12:50:42Z</time>
      </trkpt>
      <trkpt lat="41.94376" lon="0.80848">
        <ele>667.8</ele>
        <time>2019-01-31T12:50:47Z</time>
      </trkpt>
      <trkpt lat="41.94374" lon="0.80837">
        <ele>668.3</ele>
        <time>2019-01-31T12:50:52Z</time>
      </trkpt>
      <trkpt lat="41.94374" lon="0.80824">
        <ele>668.2</ele>
        <time>2019-01-31T12:50:57Z</time>
      </trkpt>
      <trkpt lat="41.94373" lon="0.80811">
        <ele>668.2</ele>
        <time>2019-01-31T12:51:03Z</time>
      </trkpt>
      <trkpt lat="41.94376" lon="0.80799">
        <ele>668.8</ele>
        <time>2019-01-31T12:51:08Z</time>
      </trkpt>
      <trkpt lat="41.94378" lon="0.80785">
        <ele>669.2</ele>
        <time>2019-01-31T12:51:15Z</time>
      </trkpt>
      <trkpt lat="41.94379" lon="0.80773">
        <ele>669.3</ele>
        <time>2019-01-31T12:51:20Z</time>
      </trkpt>
      <trkpt lat="41.94378" lon="0.8076">
        <ele>669.7</ele>
        <time>2019-01-31T12:51:25Z</time>
      </trkpt>
      <trkpt lat="41.94379" lon="0.80747">
        <ele>669.8</ele>
        <time>2019-01-31T12:51:31Z</time>
      </trkpt>
      <trkpt lat="41.94379" lon="0.80732">
        <ele>670.1</ele>
        <time>2019-01-31T12:51:37Z</time>
      </trkpt>
      <trkpt lat="41.94381" lon="0.80718">
        <ele>670.1</ele>
        <time>2019-01-31T12:51:43Z</time>
      </trkpt>
      <trkpt lat="41.94384" lon="0.80705">
        <ele>670.6</ele>
        <time>2019-01-31T12:51:49Z</time>
      </trkpt>
      <trkpt lat="41.94388" lon="0.80692">
        <ele>671.1</ele>
        <time>2019-01-31T12:51:55Z</time>
      </trkpt>
      <trkpt lat="41.94391" lon="0.8068">
        <ele>672.2</ele>
        <time>2019-01-31T12:52:00Z</time>
      </trkpt>
      <trkpt lat="41.94393" lon="0.80665">
        <ele>672.5</ele>
        <time>2019-01-31T12:52:07Z</time>
      </trkpt>
      <trkpt lat="41.94394" lon="0.80651">
        <ele>673</ele>
        <time>2019-01-31T12:52:13Z</time>
      </trkpt>
      <trkpt lat="41.94394" lon="0.80636">
        <ele>673</ele>
        <time>2019-01-31T12:52:19Z</time>
      </trkpt>
      <trkpt lat="41.94394" lon="0.80622">
        <ele>673.6</ele>
        <time>2019-01-31T12:52:25Z</time>
      </trkpt>
      <trkpt lat="41.94391" lon="0.80607">
        <ele>673.6</ele>
        <time>2019-01-31T12:52:32Z</time>
      </trkpt>
      <trkpt lat="41.94385" lon="0.80594">
        <ele>673.6</ele>
        <time>2019-01-31T12:52:39Z</time>
      </trkpt>
      <trkpt lat="41.9438" lon="0.80581">
        <ele>674</ele>
        <time>2019-01-31T12:52:45Z</time>
      </trkpt>
      <trkpt lat="41.94375" lon="0.80569">
        <ele>674.5</ele>
        <time>2019-01-31T12:52:50Z</time>
      </trkpt>
      <trkpt lat="41.94368" lon="0.80558">
        <ele>674.9</ele>
        <time>2019-01-31T12:52:56Z</time>
      </trkpt>
      <trkpt lat="41.94361" lon="0.80548">
        <ele>675</ele>
        <time>2019-01-31T12:53:02Z</time>
      </trkpt>
      <trkpt lat="41.94353" lon="0.80538">
        <ele>675.5</ele>
        <time>2019-01-31T12:53:09Z</time>
      </trkpt>
      <trkpt lat="41.94345" lon="0.80529">
        <ele>675.9</ele>
        <time>2019-01-31T12:53:14Z</time>
      </trkpt>
      <trkpt lat="41.94337" lon="0.80523">
        <ele>676</ele>
        <time>2019-01-31T12:53:20Z</time>
      </trkpt>
      <trkpt lat="41.94329" lon="0.80518">
        <ele>676.5</ele>
        <time>2019-01-31T12:53:25Z</time>
      </trkpt>
      <trkpt lat="41.9432" lon="0.80512">
        <ele>676.5</ele>
        <time>2019-01-31T12:53:31Z</time>
      </trkpt>
      <trkpt lat="41.94311" lon="0.80507">
        <ele>676.9</ele>
        <time>2019-01-31T12:53:36Z</time>
      </trkpt>
      <trkpt lat="41.94302" lon="0.805">
        <ele>677.3</ele>
        <time>2019-01-31T12:53:42Z</time>
      </trkpt>
      <trkpt lat="41.94294" lon="0.80491">
        <ele>678.4</ele>
        <time>2019-01-31T12:53:48Z</time>
      </trkpt>
      <trkpt lat="41.94286" lon="0.8048">
        <ele>679.4</ele>
        <time>2019-01-31T12:53:55Z</time>
      </trkpt>
      <trkpt lat="41.94276" lon="0.8048">
        <ele>679.3</ele>
        <time>2019-01-31T12:54:00Z</time>
      </trkpt>
      <trkpt lat="41.94265" lon="0.80481">
        <ele>679.3</ele>
        <time>2019-01-31T12:54:07Z</time>
      </trkpt>
      <trkpt lat="41.94255" lon="0.80481">
        <ele>679.3</ele>
        <time>2019-01-31T12:54:12Z</time>
      </trkpt>
      <trkpt lat="41.94245" lon="0.80484">
        <ele>679.4</ele>
        <time>2019-01-31T12:54:18Z</time>
      </trkpt>
      <trkpt lat="41.94237" lon="0.80481">
        <ele>679.3</ele>
        <time>2019-01-31T12:54:23Z</time>
      </trkpt>
      <trkpt lat="41.94229" lon="0.80474">
        <ele>679.7</ele>
        <time>2019-01-31T12:54:28Z</time>
      </trkpt>
      <trkpt lat="41.94222" lon="0.80462">
        <ele>680.3</ele>
        <time>2019-01-31T12:54:35Z</time>
      </trkpt>
      <trkpt lat="41.94213" lon="0.80456">
        <ele>680.2</ele>
        <time>2019-01-31T12:54:41Z</time>
      </trkpt>
      <trkpt lat="41.94202" lon="0.80456">
        <ele>680.8</ele>
        <time>2019-01-31T12:54:47Z</time>
      </trkpt>
      <trkpt lat="41.94192" lon="0.80456">
        <ele>680.7</ele>
        <time>2019-01-31T12:54:53Z</time>
      </trkpt>
      <trkpt lat="41.94181" lon="0.80454">
        <ele>680.8</ele>
        <time>2019-01-31T12:54:59Z</time>
      </trkpt>
      <trkpt lat="41.94171" lon="0.80451">
        <ele>681.2</ele>
        <time>2019-01-31T12:55:05Z</time>
      </trkpt>
      <trkpt lat="41.94161" lon="0.8045">
        <ele>681.7</ele>
        <time>2019-01-31T12:55:11Z</time>
      </trkpt>
      <trkpt lat="41.94151" lon="0.80452">
        <ele>681.7</ele>
        <time>2019-01-31T12:55:16Z</time>
      </trkpt>
      <trkpt lat="41.94142" lon="0.80454">
        <ele>681.8</ele>
        <time>2019-01-31T12:55:21Z</time>
      </trkpt>
      <trkpt lat="41.94133" lon="0.80458">
        <ele>682.1</ele>
        <time>2019-01-31T12:55:27Z</time>
      </trkpt>
      <trkpt lat="41.94122" lon="0.80463">
        <ele>682.6</ele>
        <time>2019-01-31T12:55:33Z</time>
      </trkpt>
      <trkpt lat="41.94112" lon="0.80464">
        <ele>682.7</ele>
        <time>2019-01-31T12:55:39Z</time>
      </trkpt>
      <trkpt lat="41.94102" lon="0.80464">
        <ele>683.1</ele>
        <time>2019-01-31T12:55:45Z</time>
      </trkpt>
      <trkpt lat="41.94092" lon="0.80468">
        <ele>683.2</ele>
        <time>2019-01-31T12:55:51Z</time>
      </trkpt>
      <trkpt lat="41.94083" lon="0.80473">
        <ele>683.7</ele>
        <time>2019-01-31T12:55:56Z</time>
      </trkpt>
      <trkpt lat="41.94074" lon="0.80475">
        <ele>684.2</ele>
        <time>2019-01-31T12:56:02Z</time>
      </trkpt>
      <trkpt lat="41.94065" lon="0.80477">
        <ele>684.7</ele>
        <time>2019-01-31T12:56:07Z</time>
      </trkpt>
      <trkpt lat="41.94055" lon="0.80478">
        <ele>684.7</ele>
        <time>2019-01-31T12:56:12Z</time>
      </trkpt>
      <trkpt lat="41.94046" lon="0.80481">
        <ele>685</ele>
        <time>2019-01-31T12:56:18Z</time>
      </trkpt>
      <trkpt lat="41.94035" lon="0.80487">
        <ele>685</ele>
        <time>2019-01-31T12:56:24Z</time>
      </trkpt>
      <trkpt lat="41.94026" lon="0.80492">
        <ele>685</ele>
        <time>2019-01-31T12:56:30Z</time>
      </trkpt>
      <trkpt lat="41.94019" lon="0.80497">
        <ele>685.5</ele>
        <time>2019-01-31T12:56:35Z</time>
      </trkpt>
      <trkpt lat="41.94008" lon="0.80496">
        <ele>685.5</ele>
        <time>2019-01-31T12:56:41Z</time>
      </trkpt>
      <trkpt lat="41.93998" lon="0.80493">
        <ele>686.6</ele>
        <time>2019-01-31T12:56:47Z</time>
      </trkpt>
      <trkpt lat="41.93989" lon="0.80492">
        <ele>686.5</ele>
        <time>2019-01-31T12:56:52Z</time>
      </trkpt>
      <trkpt lat="41.9398" lon="0.80491">
        <ele>687</ele>
        <time>2019-01-31T12:56:57Z</time>
      </trkpt>
      <trkpt lat="41.93971" lon="0.80493">
        <ele>687.4</ele>
        <time>2019-01-31T12:57:03Z</time>
      </trkpt>
      <trkpt lat="41.93961" lon="0.80493">
        <ele>687.4</ele>
        <time>2019-01-31T12:57:08Z</time>
      </trkpt>
      <trkpt lat="41.9395" lon="0.80494">
        <ele>688</ele>
        <time>2019-01-31T12:57:14Z</time>
      </trkpt>
      <trkpt lat="41.9394" lon="0.80494">
        <ele>688.5</ele>
        <time>2019-01-31T12:57:20Z</time>
      </trkpt>
      <trkpt lat="41.93928" lon="0.80493">
        <ele>688.9</ele>
        <time>2019-01-31T12:57:27Z</time>
      </trkpt>
      <trkpt lat="41.93916" lon="0.8049">
        <ele>689.8</ele>
        <time>2019-01-31T12:57:34Z</time>
      </trkpt>
      <trkpt lat="41.93906" lon="0.80489">
        <ele>689.4</ele>
        <time>2019-01-31T12:57:40Z</time>
      </trkpt>
      <trkpt lat="41.93895" lon="0.8049">
        <ele>690.9</ele>
        <time>2019-01-31T12:57:46Z</time>
      </trkpt>
      <trkpt lat="41.93885" lon="0.80491">
        <ele>691.3</ele>
        <time>2019-01-31T12:57:52Z</time>
      </trkpt>
      <trkpt lat="41.93874" lon="0.80493">
        <ele>691.4</ele>
        <time>2019-01-31T12:57:58Z</time>
      </trkpt>
      <trkpt lat="41.93863" lon="0.80492">
        <ele>691.8</ele>
        <time>2019-01-31T12:58:04Z</time>
      </trkpt>
      <trkpt lat="41.93854" lon="0.80486">
        <ele>692.2</ele>
        <time>2019-01-31T12:58:10Z</time>
      </trkpt>
      <trkpt lat="41.93844" lon="0.80482">
        <ele>693.3</ele>
        <time>2019-01-31T12:58:16Z</time>
      </trkpt>
      <trkpt lat="41.93835" lon="0.80483">
        <ele>694.2</ele>
        <time>2019-01-31T12:58:21Z</time>
      </trkpt>
      <trkpt lat="41.93824" lon="0.80481">
        <ele>694.3</ele>
        <time>2019-01-31T12:58:27Z</time>
      </trkpt>
      <trkpt lat="41.93812" lon="0.80483">
        <ele>694.7</ele>
        <time>2019-01-31T12:58:34Z</time>
      </trkpt>
      <trkpt lat="41.938" lon="0.80486">
        <ele>695.1</ele>
        <time>2019-01-31T12:58:42Z</time>
      </trkpt>
      <trkpt lat="41.93791" lon="0.80493">
        <ele>696.1</ele>
        <time>2019-01-31T12:58:47Z</time>
      </trkpt>
      <trkpt lat="41.93781" lon="0.80488">
        <ele>696.2</ele>
        <time>2019-01-31T12:58:53Z</time>
      </trkpt>
      <trkpt lat="41.93771" lon="0.80485">
        <ele>696.2</ele>
        <time>2019-01-31T12:58:59Z</time>
      </trkpt>
      <trkpt lat="41.93761" lon="0.80483">
        <ele>696.1</ele>
        <time>2019-01-31T12:59:05Z</time>
      </trkpt>
      <trkpt lat="41.93751" lon="0.80485">
        <ele>695.6</ele>
        <time>2019-01-31T12:59:11Z</time>
      </trkpt>
      <trkpt lat="41.9374" lon="0.80487">
        <ele>695.6</ele>
        <time>2019-01-31T12:59:17Z</time>
      </trkpt>
      <trkpt lat="41.93731" lon="0.80482">
        <ele>695.6</ele>
        <time>2019-01-31T12:59:22Z</time>
      </trkpt>
      <trkpt lat="41.93721" lon="0.80484">
        <ele>695.6</ele>
        <time>2019-01-31T12:59:28Z</time>
      </trkpt>
      <trkpt lat="41.93713" lon="0.8049">
        <ele>695.1</ele>
        <time>2019-01-31T12:59:33Z</time>
      </trkpt>
      <trkpt lat="41.93703" lon="0.80497">
        <ele>694.6</ele>
        <time>2019-01-31T12:59:40Z</time>
      </trkpt>
      <trkpt lat="41.93694" lon="0.80502">
        <ele>694.2</ele>
        <time>2019-01-31T12:59:45Z</time>
      </trkpt>
      <trkpt lat="41.93685" lon="0.8051">
        <ele>693.7</ele>
        <time>2019-01-31T12:59:51Z</time>
      </trkpt>
      <trkpt lat="41.93677" lon="0.80519">
        <ele>693.2</ele>
        <time>2019-01-31T12:59:57Z</time>
      </trkpt>
      <trkpt lat="41.9367" lon="0.80529">
        <ele>692.3</ele>
        <time>2019-01-31T13:00:03Z</time>
      </trkpt>
      <trkpt lat="41.93664" lon="0.80539">
        <ele>691.4</ele>
        <time>2019-01-31T13:00:09Z</time>
      </trkpt>
      <trkpt lat="41.93658" lon="0.80549">
        <ele>690.9</ele>
        <time>2019-01-31T13:00:14Z</time>
      </trkpt>
      <trkpt lat="41.93652" lon="0.80559">
        <ele>690.9</ele>
        <time>2019-01-31T13:00:20Z</time>
      </trkpt>
      <trkpt lat="41.93646" lon="0.80569">
        <ele>689.8</ele>
        <time>2019-01-31T13:00:25Z</time>
      </trkpt>
      <trkpt lat="41.93637" lon="0.80576">
        <ele>689</ele>
        <time>2019-01-31T13:00:31Z</time>
      </trkpt>
      <trkpt lat="41.93628" lon="0.80582">
        <ele>687.5</ele>
        <time>2019-01-31T13:00:37Z</time>
      </trkpt>
      <trkpt lat="41.93618" lon="0.80587">
        <ele>686.6</ele>
        <time>2019-01-31T13:00:43Z</time>
      </trkpt>
      <trkpt lat="41.93609" lon="0.8059">
        <ele>685</ele>
        <time>2019-01-31T13:00:48Z</time>
      </trkpt>
      <trkpt lat="41.93598" lon="0.8059">
        <ele>684.2</ele>
        <time>2019-01-31T13:00:54Z</time>
      </trkpt>
      <trkpt lat="41.93588" lon="0.80592">
        <ele>683.1</ele>
        <time>2019-01-31T13:01:00Z</time>
      </trkpt>
      <trkpt lat="41.93578" lon="0.80593">
        <ele>681.7</ele>
        <time>2019-01-31T13:01:06Z</time>
      </trkpt>
      <trkpt lat="41.93568" lon="0.80593">
        <ele>681.3</ele>
        <time>2019-01-31T13:01:12Z</time>
      </trkpt>
      <trkpt lat="41.93557" lon="0.80595">
        <ele>679.8</ele>
        <time>2019-01-31T13:01:18Z</time>
      </trkpt>
      <trkpt lat="41.93547" lon="0.80601">
        <ele>678.9</ele>
        <time>2019-01-31T13:01:24Z</time>
      </trkpt>
      <trkpt lat="41.93537" lon="0.80603">
        <ele>677.9</ele>
        <time>2019-01-31T13:01:30Z</time>
      </trkpt>
      <trkpt lat="41.93528" lon="0.80604">
        <ele>677</ele>
        <time>2019-01-31T13:01:35Z</time>
      </trkpt>
      <trkpt lat="41.93517" lon="0.80607">
        <ele>675.9</ele>
        <time>2019-01-31T13:01:42Z</time>
      </trkpt>
      <trkpt lat="41.93507" lon="0.80613">
        <ele>674.5</ele>
        <time>2019-01-31T13:01:48Z</time>
      </trkpt>
      <trkpt lat="41.93498" lon="0.80619">
        <ele>673.1</ele>
        <time>2019-01-31T13:01:54Z</time>
      </trkpt>
      <trkpt lat="41.93488" lon="0.80624">
        <ele>671.2</ele>
        <time>2019-01-31T13:02:00Z</time>
      </trkpt>
      <trkpt lat="41.93478" lon="0.8063">
        <ele>669.2</ele>
        <time>2019-01-31T13:02:06Z</time>
      </trkpt>
      <trkpt lat="41.93469" lon="0.80635">
        <ele>667.2</ele>
        <time>2019-01-31T13:02:12Z</time>
      </trkpt>
      <trkpt lat="41.9346" lon="0.80641">
        <ele>665.8</ele>
        <time>2019-01-31T13:02:17Z</time>
      </trkpt>
      <trkpt lat="41.93451" lon="0.80646">
        <ele>663.4</ele>
        <time>2019-01-31T13:02:23Z</time>
      </trkpt>
      <trkpt lat="41.93442" lon="0.80651">
        <ele>662.4</ele>
        <time>2019-01-31T13:02:28Z</time>
      </trkpt>
      <trkpt lat="41.93433" lon="0.80654">
        <ele>661</ele>
        <time>2019-01-31T13:02:34Z</time>
      </trkpt>
      <trkpt lat="41.93425" lon="0.80647">
        <ele>659.2</ele>
        <time>2019-01-31T13:02:39Z</time>
      </trkpt>
      <trkpt lat="41.93415" lon="0.80649">
        <ele>657.2</ele>
        <time>2019-01-31T13:02:45Z</time>
      </trkpt>
      <trkpt lat="41.93409" lon="0.80661">
        <ele>654.9</ele>
        <time>2019-01-31T13:02:51Z</time>
      </trkpt>
      <trkpt lat="41.93405" lon="0.80673">
        <ele>652.8</ele>
        <time>2019-01-31T13:02:57Z</time>
      </trkpt>
      <trkpt lat="41.93403" lon="0.80684">
        <ele>650.9</ele>
        <time>2019-01-31T13:03:01Z</time>
      </trkpt>
      <trkpt lat="41.93397" lon="0.80676">
        <ele>648.5</ele>
        <time>2019-01-31T13:03:06Z</time>
      </trkpt>
      <trkpt lat="41.93391" lon="0.80662">
        <ele>647.2</ele>
        <time>2019-01-31T13:03:13Z</time>
      </trkpt>
      <trkpt lat="41.93387" lon="0.80651">
        <ele>644.7</ele>
        <time>2019-01-31T13:03:18Z</time>
      </trkpt>
      <trkpt lat="41.9338" lon="0.80651">
        <ele>643.2</ele>
        <time>2019-01-31T13:03:22Z</time>
      </trkpt>
      <trkpt lat="41.93378" lon="0.80664">
        <ele>640.4</ele>
        <time>2019-01-31T13:03:28Z</time>
      </trkpt>
      <trkpt lat="41.93374" lon="0.80677">
        <ele>638.4</ele>
        <time>2019-01-31T13:03:33Z</time>
      </trkpt>
      <trkpt lat="41.93372" lon="0.80689">
        <ele>637.1</ele>
        <time>2019-01-31T13:03:39Z</time>
      </trkpt>
      <trkpt lat="41.93369" lon="0.80704">
        <ele>635.1</ele>
        <time>2019-01-31T13:03:45Z</time>
      </trkpt>
      <trkpt lat="41.93367" lon="0.80716">
        <ele>634.6</ele>
        <time>2019-01-31T13:03:51Z</time>
      </trkpt>
      <trkpt lat="41.93368" lon="0.80725">
        <ele>633.2</ele>
        <time>2019-01-31T13:03:54Z</time>
      </trkpt>
      <trkpt lat="41.93364" lon="0.80711">
        <ele>631.7</ele>
        <time>2019-01-31T13:04:00Z</time>
      </trkpt>
      <trkpt lat="41.93362" lon="0.80697">
        <ele>630.2</ele>
        <time>2019-01-31T13:04:06Z</time>
      </trkpt>
      <trkpt lat="41.9336" lon="0.80684">
        <ele>628.9</ele>
        <time>2019-01-31T13:04:12Z</time>
      </trkpt>
      <trkpt lat="41.93357" lon="0.8067">
        <ele>626.9</ele>
        <time>2019-01-31T13:04:18Z</time>
      </trkpt>
      <trkpt lat="41.93354" lon="0.80656">
        <ele>624.9</ele>
        <time>2019-01-31T13:04:24Z</time>
      </trkpt>
      <trkpt lat="41.93349" lon="0.80644">
        <ele>623</ele>
        <time>2019-01-31T13:04:30Z</time>
      </trkpt>
      <trkpt lat="41.93344" lon="0.80632">
        <ele>621.1</ele>
        <time>2019-01-31T13:04:36Z</time>
      </trkpt>
      <trkpt lat="41.9334" lon="0.8062">
        <ele>620.6</ele>
        <time>2019-01-31T13:04:42Z</time>
      </trkpt>
      <trkpt lat="41.93336" lon="0.80606">
        <ele>619.8</ele>
        <time>2019-01-31T13:04:48Z</time>
      </trkpt>
      <trkpt lat="41.93331" lon="0.80592">
        <ele>618.2</ele>
        <time>2019-01-31T13:04:55Z</time>
      </trkpt>
      <trkpt lat="41.93328" lon="0.80579">
        <ele>616.4</ele>
        <time>2019-01-31T13:05:00Z</time>
      </trkpt>
      <trkpt lat="41.93324" lon="0.80568">
        <ele>614.4</ele>
        <time>2019-01-31T13:05:06Z</time>
      </trkpt>
      <trkpt lat="41.93321" lon="0.80556">
        <ele>612</ele>
        <time>2019-01-31T13:05:11Z</time>
      </trkpt>
      <trkpt lat="41.93318" lon="0.80543">
        <ele>611.1</ele>
        <time>2019-01-31T13:05:17Z</time>
      </trkpt>
      <trkpt lat="41.93317" lon="0.80528">
        <ele>609.2</ele>
        <time>2019-01-31T13:05:23Z</time>
      </trkpt>
      <trkpt lat="41.93316" lon="0.80513">
        <ele>607.2</ele>
        <time>2019-01-31T13:05:30Z</time>
      </trkpt>
      <trkpt lat="41.93314" lon="0.805">
        <ele>604.8</ele>
        <time>2019-01-31T13:05:35Z</time>
      </trkpt>
      <trkpt lat="41.93315" lon="0.80485">
        <ele>603.8</ele>
        <time>2019-01-31T13:05:41Z</time>
      </trkpt>
      <trkpt lat="41.93315" lon="0.80471">
        <ele>601.9</ele>
        <time>2019-01-31T13:05:48Z</time>
      </trkpt>
      <trkpt lat="41.93316" lon="0.80457">
        <ele>601</ele>
        <time>2019-01-31T13:05:53Z</time>
      </trkpt>
      <trkpt lat="41.93319" lon="0.80442">
        <ele>600.4</ele>
        <time>2019-01-31T13:06:00Z</time>
      </trkpt>
      <trkpt lat="41.9332" lon="0.80426">
        <ele>599</ele>
        <time>2019-01-31T13:06:07Z</time>
      </trkpt>
      <trkpt lat="41.93319" lon="0.80412">
        <ele>596.6</ele>
        <time>2019-01-31T13:06:13Z</time>
      </trkpt>
      <trkpt lat="41.93319" lon="0.80398">
        <ele>595.1</ele>
        <time>2019-01-31T13:06:19Z</time>
      </trkpt>
      <trkpt lat="41.93318" lon="0.80377">
        <ele>592.8</ele>
        <time>2019-01-31T13:06:28Z</time>
      </trkpt>
      <trkpt lat="41.93316" lon="0.80363">
        <ele>591.8</ele>
        <time>2019-01-31T13:06:34Z</time>
      </trkpt>
      <trkpt lat="41.93313" lon="0.80345">
        <ele>588.5</ele>
        <time>2019-01-31T13:06:42Z</time>
      </trkpt>
      <trkpt lat="41.93308" lon="0.80334">
        <ele>587</ele>
        <time>2019-01-31T13:06:48Z</time>
      </trkpt>
      <trkpt lat="41.93299" lon="0.8033">
        <ele>586.5</ele>
        <time>2019-01-31T13:06:53Z</time>
      </trkpt>
      <trkpt lat="41.9329" lon="0.80331">
        <ele>584.6</ele>
        <time>2019-01-31T13:06:58Z</time>
      </trkpt>
      <trkpt lat="41.9328" lon="0.80329">
        <ele>583.1</ele>
        <time>2019-01-31T13:07:04Z</time>
      </trkpt>
      <trkpt lat="41.9327" lon="0.80329">
        <ele>582.3</ele>
        <time>2019-01-31T13:07:10Z</time>
      </trkpt>
      <trkpt lat="41.9326" lon="0.80325">
        <ele>581.3</ele>
        <time>2019-01-31T13:07:15Z</time>
      </trkpt>
      <trkpt lat="41.93252" lon="0.80324">
        <ele>580.2</ele>
        <time>2019-01-31T13:07:20Z</time>
      </trkpt>
      <trkpt lat="41.93243" lon="0.80314">
        <ele>578.9</ele>
        <time>2019-01-31T13:07:26Z</time>
      </trkpt>
      <trkpt lat="41.93236" lon="0.80304">
        <ele>577</ele>
        <time>2019-01-31T13:07:32Z</time>
      </trkpt>
      <trkpt lat="41.93229" lon="0.80291">
        <ele>574.1</ele>
        <time>2019-01-31T13:07:39Z</time>
      </trkpt>
      <trkpt lat="41.93222" lon="0.80281">
        <ele>572.7</ele>
        <time>2019-01-31T13:07:45Z</time>
      </trkpt>
      <trkpt lat="41.93217" lon="0.8027">
        <ele>571.6</ele>
        <time>2019-01-31T13:07:50Z</time>
      </trkpt>
      <trkpt lat="41.9321" lon="0.80261">
        <ele>570.6</ele>
        <time>2019-01-31T13:07:56Z</time>
      </trkpt>
      <trkpt lat="41.93202" lon="0.8025">
        <ele>569.2</ele>
        <time>2019-01-31T13:08:03Z</time>
      </trkpt>
      <trkpt lat="41.93194" lon="0.80241">
        <ele>568.2</ele>
        <time>2019-01-31T13:08:08Z</time>
      </trkpt>
      <trkpt lat="41.93187" lon="0.80232">
        <ele>566.8</ele>
        <time>2019-01-31T13:08:14Z</time>
      </trkpt>
      <trkpt lat="41.93179" lon="0.80223">
        <ele>565.9</ele>
        <time>2019-01-31T13:08:20Z</time>
      </trkpt>
      <trkpt lat="41.93173" lon="0.80213">
        <ele>563.9</ele>
        <time>2019-01-31T13:08:25Z</time>
      </trkpt>
      <trkpt lat="41.93165" lon="0.80201">
        <ele>562.9</ele>
        <time>2019-01-31T13:08:32Z</time>
      </trkpt>
      <trkpt lat="41.93158" lon="0.80187">
        <ele>561.6</ele>
        <time>2019-01-31T13:08:39Z</time>
      </trkpt>
      <trkpt lat="41.93149" lon="0.80179">
        <ele>559.7</ele>
        <time>2019-01-31T13:08:46Z</time>
      </trkpt>
      <trkpt lat="41.93139" lon="0.80175">
        <ele>557.7</ele>
        <time>2019-01-31T13:08:51Z</time>
      </trkpt>
      <trkpt lat="41.93132" lon="0.80167">
        <ele>557.7</ele>
        <time>2019-01-31T13:08:57Z</time>
      </trkpt>
      <trkpt lat="41.93126" lon="0.80156">
        <ele>557.2</ele>
        <time>2019-01-31T13:09:03Z</time>
      </trkpt>
      <trkpt lat="41.93119" lon="0.80148">
        <ele>557.3</ele>
        <time>2019-01-31T13:09:08Z</time>
      </trkpt>
      <trkpt lat="41.93114" lon="0.80138">
        <ele>557.2</ele>
        <time>2019-01-31T13:09:13Z</time>
      </trkpt>
      <trkpt lat="41.93108" lon="0.80127">
        <ele>555.7</ele>
        <time>2019-01-31T13:09:19Z</time>
      </trkpt>
      <trkpt lat="41.93101" lon="0.80117">
        <ele>555.8</ele>
        <time>2019-01-31T13:09:25Z</time>
      </trkpt>
      <trkpt lat="41.93094" lon="0.80107">
        <ele>555.8</ele>
        <time>2019-01-31T13:09:30Z</time>
      </trkpt>
      <trkpt lat="41.93089" lon="0.80096">
        <ele>555.7</ele>
        <time>2019-01-31T13:09:36Z</time>
      </trkpt>
      <trkpt lat="41.93083" lon="0.80085">
        <ele>555.8</ele>
        <time>2019-01-31T13:09:42Z</time>
      </trkpt>
      <trkpt lat="41.93076" lon="0.80075">
        <ele>555.7</ele>
        <time>2019-01-31T13:09:47Z</time>
      </trkpt>
      <trkpt lat="41.93069" lon="0.80066">
        <ele>555.7</ele>
        <time>2019-01-31T13:09:53Z</time>
      </trkpt>
      <trkpt lat="41.93062" lon="0.80053">
        <ele>555.8</ele>
        <time>2019-01-31T13:10:00Z</time>
      </trkpt>
      <trkpt lat="41.93053" lon="0.80044">
        <ele>555.7</ele>
        <time>2019-01-31T13:10:06Z</time>
      </trkpt>
      <trkpt lat="41.93044" lon="0.80039">
        <ele>557.2</ele>
        <time>2019-01-31T13:10:12Z</time>
      </trkpt>
      <trkpt lat="41.93035" lon="0.80037">
        <ele>557.3</ele>
        <time>2019-01-31T13:10:17Z</time>
      </trkpt>
      <trkpt lat="41.93024" lon="0.80039">
        <ele>557.2</ele>
        <time>2019-01-31T13:10:23Z</time>
      </trkpt>
      <trkpt lat="41.93014" lon="0.80042">
        <ele>557.2</ele>
        <time>2019-01-31T13:10:29Z</time>
      </trkpt>
      <trkpt lat="41.93004" lon="0.80044">
        <ele>556.8</ele>
        <time>2019-01-31T13:10:35Z</time>
      </trkpt>
      <trkpt lat="41.92995" lon="0.80047">
        <ele>556.2</ele>
        <time>2019-01-31T13:10:41Z</time>
      </trkpt>
      <trkpt lat="41.92985" lon="0.80051">
        <ele>555.8</ele>
        <time>2019-01-31T13:10:46Z</time>
      </trkpt>
      <trkpt lat="41.92976" lon="0.80056">
        <ele>555.4</ele>
        <time>2019-01-31T13:10:52Z</time>
      </trkpt>
      <trkpt lat="41.92967" lon="0.80061">
        <ele>554.4</ele>
        <time>2019-01-31T13:10:58Z</time>
      </trkpt>
      <trkpt lat="41.92959" lon="0.80068">
        <ele>552.5</ele>
        <time>2019-01-31T13:11:03Z</time>
      </trkpt>
      <trkpt lat="41.92952" lon="0.80074">
        <ele>552.5</ele>
        <time>2019-01-31T13:11:08Z</time>
      </trkpt>
      <trkpt lat="41.92954" lon="0.80082">
        <ele>552.5</ele>
        <time>2019-01-31T13:11:12Z</time>
      </trkpt>
      <trkpt lat="41.92947" lon="0.80074">
        <ele>548.6</ele>
        <time>2019-01-31T13:11:17Z</time>
      </trkpt>
      <trkpt lat="41.92935" lon="0.80069">
        <ele>547.1</ele>
        <time>2019-01-31T13:11:24Z</time>
      </trkpt>
      <trkpt lat="41.92926" lon="0.80062">
        <ele>545.2</ele>
        <time>2019-01-31T13:11:30Z</time>
      </trkpt>
      <trkpt lat="41.92915" lon="0.8006">
        <ele>542.3</ele>
        <time>2019-01-31T13:11:37Z</time>
      </trkpt>
      <trkpt lat="41.92899" lon="0.80071">
        <ele>540.4</ele>
        <time>2019-01-31T13:11:47Z</time>
      </trkpt>
      <trkpt lat="41.92887" lon="0.80081">
        <ele>539</ele>
        <time>2019-01-31T13:11:55Z</time>
      </trkpt>
      <trkpt lat="41.92875" lon="0.80085">
        <ele>537.5</ele>
        <time>2019-01-31T13:12:02Z</time>
      </trkpt>
      <trkpt lat="41.92865" lon="0.80089">
        <ele>535.5</ele>
        <time>2019-01-31T13:12:08Z</time>
      </trkpt>
      <trkpt lat="41.92858" lon="0.80098">
        <ele>534.1</ele>
        <time>2019-01-31T13:12:14Z</time>
      </trkpt>
      <trkpt lat="41.92846" lon="0.80098">
        <ele>532.2</ele>
        <time>2019-01-31T13:12:20Z</time>
      </trkpt>
      <trkpt lat="41.92843" lon="0.80085">
        <ele>529.9</ele>
        <time>2019-01-31T13:12:26Z</time>
      </trkpt>
      <trkpt lat="41.92842" lon="0.80072">
        <ele>527.9</ele>
        <time>2019-01-31T13:12:32Z</time>
      </trkpt>
      <trkpt lat="41.9284" lon="0.8006">
        <ele>528</ele>
        <time>2019-01-31T13:12:37Z</time>
      </trkpt>
      <trkpt lat="41.92844" lon="0.80049">
        <ele>527</ele>
        <time>2019-01-31T13:12:42Z</time>
      </trkpt>
      <trkpt lat="41.9284" lon="0.80055">
        <ele>525.9</ele>
        <time>2019-01-31T13:12:45Z</time>
      </trkpt>
      <trkpt lat="41.92841" lon="0.80047">
        <ele>524</ele>
        <time>2019-01-31T13:12:49Z</time>
      </trkpt>
      <trkpt lat="41.92843" lon="0.80036">
        <ele>522.1</ele>
        <time>2019-01-31T13:12:54Z</time>
      </trkpt>
      <trkpt lat="41.92847" lon="0.80024">
        <ele>520.6</ele>
        <time>2019-01-31T13:12:59Z</time>
      </trkpt>
      <trkpt lat="41.9285" lon="0.8001">
        <ele>518.7</ele>
        <time>2019-01-31T13:13:05Z</time>
      </trkpt>
      <trkpt lat="41.9285" lon="0.79997">
        <ele>515.8</ele>
        <time>2019-01-31T13:13:11Z</time>
      </trkpt>
      <trkpt lat="41.92841" lon="0.79991">
        <ele>514.5</ele>
        <time>2019-01-31T13:13:17Z</time>
      </trkpt>
      <trkpt lat="41.92831" lon="0.79995">
        <ele>513.9</ele>
        <time>2019-01-31T13:13:23Z</time>
      </trkpt>
      <trkpt lat="41.92821" lon="0.79992">
        <ele>512.1</ele>
        <time>2019-01-31T13:13:29Z</time>
      </trkpt>
      <trkpt lat="41.92812" lon="0.79983">
        <ele>510.7</ele>
        <time>2019-01-31T13:13:35Z</time>
      </trkpt>
      <trkpt lat="41.92805" lon="0.79974">
        <ele>509.2</ele>
        <time>2019-01-31T13:13:41Z</time>
      </trkpt>
      <trkpt lat="41.92797" lon="0.79963">
        <ele>508.2</ele>
        <time>2019-01-31T13:13:47Z</time>
      </trkpt>
      <trkpt lat="41.9279" lon="0.79952">
        <ele>506.2</ele>
        <time>2019-01-31T13:13:53Z</time>
      </trkpt>
      <trkpt lat="41.92782" lon="0.79944">
        <ele>504.8</ele>
        <time>2019-01-31T13:13:59Z</time>
      </trkpt>
      <trkpt lat="41.92774" lon="0.79938">
        <ele>503.8</ele>
        <time>2019-01-31T13:14:04Z</time>
      </trkpt>
      <trkpt lat="41.92765" lon="0.79932">
        <ele>502.5</ele>
        <time>2019-01-31T13:14:10Z</time>
      </trkpt>
      <trkpt lat="41.92758" lon="0.79925">
        <ele>501.9</ele>
        <time>2019-01-31T13:14:15Z</time>
      </trkpt>
      <trkpt lat="41.92749" lon="0.7992">
        <ele>500.6</ele>
        <time>2019-01-31T13:14:21Z</time>
      </trkpt>
      <trkpt lat="41.92739" lon="0.79912">
        <ele>499.1</ele>
        <time>2019-01-31T13:14:27Z</time>
      </trkpt>
      <trkpt lat="41.92728" lon="0.79905">
        <ele>497.6</ele>
        <time>2019-01-31T13:14:34Z</time>
      </trkpt>
      <trkpt lat="41.92719" lon="0.79905">
        <ele>495.8</ele>
        <time>2019-01-31T13:14:39Z</time>
      </trkpt>
      <trkpt lat="41.92709" lon="0.79905">
        <ele>493.8</ele>
        <time>2019-01-31T13:14:45Z</time>
      </trkpt>
      <trkpt lat="41.92699" lon="0.79908">
        <ele>491.4</ele>
        <time>2019-01-31T13:14:51Z</time>
      </trkpt>
      <trkpt lat="41.9269" lon="0.7991">
        <ele>489.4</ele>
        <time>2019-01-31T13:14:56Z</time>
      </trkpt>
      <trkpt lat="41.92681" lon="0.79916">
        <ele>488</ele>
        <time>2019-01-31T13:15:01Z</time>
      </trkpt>
      <trkpt lat="41.92673" lon="0.79926">
        <ele>486.5</ele>
        <time>2019-01-31T13:15:08Z</time>
      </trkpt>
      <trkpt lat="41.92667" lon="0.79934">
        <ele>485.6</ele>
        <time>2019-01-31T13:15:13Z</time>
      </trkpt>
      <trkpt lat="41.9266" lon="0.79944">
        <ele>484.1</ele>
        <time>2019-01-31T13:15:18Z</time>
      </trkpt>
      <trkpt lat="41.92652" lon="0.79953">
        <ele>483.2</ele>
        <time>2019-01-31T13:15:24Z</time>
      </trkpt>
      <trkpt lat="41.92645" lon="0.79962">
        <ele>481.3</ele>
        <time>2019-01-31T13:15:30Z</time>
      </trkpt>
      <trkpt lat="41.92639" lon="0.79971">
        <ele>479.4</ele>
        <time>2019-01-31T13:15:35Z</time>
      </trkpt>
      <trkpt lat="41.92632" lon="0.79979">
        <ele>477.9</ele>
        <time>2019-01-31T13:15:40Z</time>
      </trkpt>
      <trkpt lat="41.92623" lon="0.79985">
        <ele>477</ele>
        <time>2019-01-31T13:15:46Z</time>
      </trkpt>
      <trkpt lat="41.92614" lon="0.79991">
        <ele>475.1</ele>
        <time>2019-01-31T13:15:52Z</time>
      </trkpt>
      <trkpt lat="41.92605" lon="0.79996">
        <ele>473.6</ele>
        <time>2019-01-31T13:15:58Z</time>
      </trkpt>
      <trkpt lat="41.92596" lon="0.8">
        <ele>471.6</ele>
        <time>2019-01-31T13:16:03Z</time>
      </trkpt>
      <trkpt lat="41.92586" lon="0.80005">
        <ele>470.2</ele>
        <time>2019-01-31T13:16:09Z</time>
      </trkpt>
      <trkpt lat="41.92577" lon="0.80009">
        <ele>469.2</ele>
        <time>2019-01-31T13:16:15Z</time>
      </trkpt>
      <trkpt lat="41.92568" lon="0.80012">
        <ele>467.9</ele>
        <time>2019-01-31T13:16:20Z</time>
      </trkpt>
      <trkpt lat="41.92559" lon="0.80016">
        <ele>465.9</ele>
        <time>2019-01-31T13:16:25Z</time>
      </trkpt>
      <trkpt lat="41.9255" lon="0.80018">
        <ele>465.5</ele>
        <time>2019-01-31T13:16:31Z</time>
      </trkpt>
      <trkpt lat="41.9254" lon="0.80022">
        <ele>463.5</ele>
        <time>2019-01-31T13:16:37Z</time>
      </trkpt>
      <trkpt lat="41.9253" lon="0.80027">
        <ele>462.5</ele>
        <time>2019-01-31T13:16:42Z</time>
      </trkpt>
      <trkpt lat="41.92521" lon="0.80032">
        <ele>461.6</ele>
        <time>2019-01-31T13:16:48Z</time>
      </trkpt>
      <trkpt lat="41.92513" lon="0.80038">
        <ele>460.7</ele>
        <time>2019-01-31T13:16:53Z</time>
      </trkpt>
      <trkpt lat="41.92505" lon="0.80045">
        <ele>459.6</ele>
        <time>2019-01-31T13:16:59Z</time>
      </trkpt>
      <trkpt lat="41.92498" lon="0.80052">
        <ele>458.3</ele>
        <time>2019-01-31T13:17:04Z</time>
      </trkpt>
      <trkpt lat="41.92489" lon="0.80059">
        <ele>457.3</ele>
        <time>2019-01-31T13:17:10Z</time>
      </trkpt>
      <trkpt lat="41.92479" lon="0.80067">
        <ele>455.8</ele>
        <time>2019-01-31T13:17:16Z</time>
      </trkpt>
      <trkpt lat="41.92472" lon="0.80074">
        <ele>454.3</ele>
        <time>2019-01-31T13:17:21Z</time>
      </trkpt>
      <trkpt lat="41.92463" lon="0.80082">
        <ele>452.9</ele>
        <time>2019-01-31T13:17:28Z</time>
      </trkpt>
      <trkpt lat="41.92455" lon="0.8009">
        <ele>452</ele>
        <time>2019-01-31T13:17:33Z</time>
      </trkpt>
      <trkpt lat="41.92448" lon="0.80099">
        <ele>450.6</ele>
        <time>2019-01-31T13:17:39Z</time>
      </trkpt>
      <trkpt lat="41.9244" lon="0.80107">
        <ele>449.5</ele>
        <time>2019-01-31T13:17:44Z</time>
      </trkpt>
      <trkpt lat="41.92433" lon="0.80114">
        <ele>447.6</ele>
        <time>2019-01-31T13:17:50Z</time>
      </trkpt>
      <trkpt lat="41.92427" lon="0.80126">
        <ele>446.1</ele>
        <time>2019-01-31T13:17:55Z</time>
      </trkpt>
      <trkpt lat="41.92425" lon="0.80139">
        <ele>444.3</ele>
        <time>2019-01-31T13:18:01Z</time>
      </trkpt>
      <trkpt lat="41.92425" lon="0.80153">
        <ele>441.8</ele>
        <time>2019-01-31T13:18:07Z</time>
      </trkpt>
      <trkpt lat="41.92426" lon="0.80167">
        <ele>440.5</ele>
        <time>2019-01-31T13:18:13Z</time>
      </trkpt>
      <trkpt lat="41.92429" lon="0.8018">
        <ele>438.9</ele>
        <time>2019-01-31T13:18:19Z</time>
      </trkpt>
      <trkpt lat="41.92432" lon="0.80192">
        <ele>437.5</ele>
        <time>2019-01-31T13:18:25Z</time>
      </trkpt>
      <trkpt lat="41.92435" lon="0.80206">
        <ele>436.5</ele>
        <time>2019-01-31T13:18:31Z</time>
      </trkpt>
      <trkpt lat="41.9244" lon="0.80218">
        <ele>435.1</ele>
        <time>2019-01-31T13:18:36Z</time>
      </trkpt>
      <trkpt lat="41.92444" lon="0.8023">
        <ele>433.7</ele>
        <time>2019-01-31T13:18:42Z</time>
      </trkpt>
      <trkpt lat="41.92446" lon="0.80242">
        <ele>432.3</ele>
        <time>2019-01-31T13:18:47Z</time>
      </trkpt>
      <trkpt lat="41.92446" lon="0.80255">
        <ele>431.2</ele>
        <time>2019-01-31T13:18:53Z</time>
      </trkpt>
      <trkpt lat="41.92446" lon="0.80268">
        <ele>430.4</ele>
        <time>2019-01-31T13:18:58Z</time>
      </trkpt>
      <trkpt lat="41.92446" lon="0.80281">
        <ele>428.9</ele>
        <time>2019-01-31T13:19:04Z</time>
      </trkpt>
      <trkpt lat="41.92445" lon="0.80292">
        <ele>428</ele>
        <time>2019-01-31T13:19:09Z</time>
      </trkpt>
      <trkpt lat="41.92445" lon="0.80305">
        <ele>426.4</ele>
        <time>2019-01-31T13:19:14Z</time>
      </trkpt>
      <trkpt lat="41.92443" lon="0.80319">
        <ele>425.6</ele>
        <time>2019-01-31T13:19:20Z</time>
      </trkpt>
      <trkpt lat="41.92442" lon="0.80331">
        <ele>423.7</ele>
        <time>2019-01-31T13:19:25Z</time>
      </trkpt>
      <trkpt lat="41.92439" lon="0.80344">
        <ele>422.1</ele>
        <time>2019-01-31T13:19:31Z</time>
      </trkpt>
      <trkpt lat="41.92437" lon="0.80356">
        <ele>420.2</ele>
        <time>2019-01-31T13:19:36Z</time>
      </trkpt>
      <trkpt lat="41.92434" lon="0.80371">
        <ele>418.8</ele>
        <time>2019-01-31T13:19:43Z</time>
      </trkpt>
      <trkpt lat="41.92432" lon="0.80383">
        <ele>416.8</ele>
        <time>2019-01-31T13:19:48Z</time>
      </trkpt>
      <trkpt lat="41.92428" lon="0.80395">
        <ele>414.9</ele>
        <time>2019-01-31T13:19:54Z</time>
      </trkpt>
      <trkpt lat="41.92426" lon="0.8041">
        <ele>413.1</ele>
        <time>2019-01-31T13:20:00Z</time>
      </trkpt>
      <trkpt lat="41.92423" lon="0.80425">
        <ele>411.2</ele>
        <time>2019-01-31T13:20:07Z</time>
      </trkpt>
      <trkpt lat="41.9242" lon="0.80439">
        <ele>410.2</ele>
        <time>2019-01-31T13:20:13Z</time>
      </trkpt>
      <trkpt lat="41.92417" lon="0.80453">
        <ele>409.2</ele>
        <time>2019-01-31T13:20:19Z</time>
      </trkpt>
      <trkpt lat="41.92411" lon="0.80466">
        <ele>409.2</ele>
        <time>2019-01-31T13:20:26Z</time>
      </trkpt>
      <trkpt lat="41.92409" lon="0.80482">
        <ele>409.6</ele>
        <time>2019-01-31T13:20:32Z</time>
      </trkpt>
      <trkpt lat="41.92408" lon="0.80495">
        <ele>410.2</ele>
        <time>2019-01-31T13:20:38Z</time>
      </trkpt>
      <trkpt lat="41.9241" lon="0.8051">
        <ele>412</ele>
        <time>2019-01-31T13:20:44Z</time>
      </trkpt>
      <trkpt lat="41.92413" lon="0.80524">
        <ele>414.4</ele>
        <time>2019-01-31T13:20:51Z</time>
      </trkpt>
      <trkpt lat="41.92416" lon="0.80538">
        <ele>415.5</ele>
        <time>2019-01-31T13:20:57Z</time>
      </trkpt>
      <trkpt lat="41.92418" lon="0.80551">
        <ele>416.9</ele>
        <time>2019-01-31T13:21:02Z</time>
      </trkpt>
      <trkpt lat="41.92419" lon="0.80565">
        <ele>418.3</ele>
        <time>2019-01-31T13:21:08Z</time>
      </trkpt>
      <trkpt lat="41.9242" lon="0.80578">
        <ele>418.7</ele>
        <time>2019-01-31T13:21:14Z</time>
      </trkpt>
      <trkpt lat="41.92421" lon="0.80593">
        <ele>419.8</ele>
        <time>2019-01-31T13:21:20Z</time>
      </trkpt>
      <trkpt lat="41.92423" lon="0.80606">
        <ele>420.3</ele>
        <time>2019-01-31T13:21:26Z</time>
      </trkpt>
      <trkpt lat="41.92422" lon="0.80621">
        <ele>421.1</ele>
        <time>2019-01-31T13:21:32Z</time>
      </trkpt>
      <trkpt lat="41.92423" lon="0.80633">
        <ele>422.7</ele>
        <time>2019-01-31T13:21:38Z</time>
      </trkpt>
      <trkpt lat="41.92422" lon="0.80646">
        <ele>424.1</ele>
        <time>2019-01-31T13:21:43Z</time>
      </trkpt>
      <trkpt lat="41.92419" lon="0.80661">
        <ele>425.5</ele>
        <time>2019-01-31T13:21:50Z</time>
      </trkpt>
      <trkpt lat="41.92415" lon="0.80676">
        <ele>426.9</ele>
        <time>2019-01-31T13:21:56Z</time>
      </trkpt>
      <trkpt lat="41.92411" lon="0.80688">
        <ele>427.9</ele>
        <time>2019-01-31T13:22:02Z</time>
      </trkpt>
      <trkpt lat="41.92406" lon="0.80701">
        <ele>428.9</ele>
        <time>2019-01-31T13:22:08Z</time>
      </trkpt>
      <trkpt lat="41.92399" lon="0.80715">
        <ele>430.8</ele>
        <time>2019-01-31T13:22:16Z</time>
      </trkpt>
      <trkpt lat="41.92392" lon="0.8073">
        <ele>432.2</ele>
        <time>2019-01-31T13:22:23Z</time>
      </trkpt>
      <trkpt lat="41.92392" lon="0.80745">
        <ele>435.1</ele>
        <time>2019-01-31T13:22:30Z</time>
      </trkpt>
      <trkpt lat="41.92394" lon="0.8076">
        <ele>437.6</ele>
        <time>2019-01-31T13:22:36Z</time>
      </trkpt>
      <trkpt lat="41.92395" lon="0.80774">
        <ele>438.9</ele>
        <time>2019-01-31T13:22:42Z</time>
      </trkpt>
      <trkpt lat="41.92395" lon="0.80787">
        <ele>440.5</ele>
        <time>2019-01-31T13:22:47Z</time>
      </trkpt>
      <trkpt lat="41.92392" lon="0.808">
        <ele>440.9</ele>
        <time>2019-01-31T13:22:53Z</time>
      </trkpt>
      <trkpt lat="41.92389" lon="0.80813">
        <ele>441.9</ele>
        <time>2019-01-31T13:22:59Z</time>
      </trkpt>
      <trkpt lat="41.92386" lon="0.80826">
        <ele>442.9</ele>
        <time>2019-01-31T13:23:05Z</time>
      </trkpt>
      <trkpt lat="41.92384" lon="0.80839">
        <ele>443.7</ele>
        <time>2019-01-31T13:23:10Z</time>
      </trkpt>
      <trkpt lat="41.92382" lon="0.80852">
        <ele>444.7</ele>
        <time>2019-01-31T13:23:16Z</time>
      </trkpt>
      <trkpt lat="41.92382" lon="0.80866">
        <ele>446.6</ele>
        <time>2019-01-31T13:23:22Z</time>
      </trkpt>
      <trkpt lat="41.92386" lon="0.80877">
        <ele>447.7</ele>
        <time>2019-01-31T13:23:28Z</time>
      </trkpt>
      <trkpt lat="41.92391" lon="0.80888">
        <ele>449.1</ele>
        <time>2019-01-31T13:23:33Z</time>
      </trkpt>
      <trkpt lat="41.92388" lon="0.80899">
        <ele>450.6</ele>
        <time>2019-01-31T13:23:38Z</time>
      </trkpt>
      <trkpt lat="41.9238" lon="0.80905">
        <ele>451.1</ele>
        <time>2019-01-31T13:23:43Z</time>
      </trkpt>
      <trkpt lat="41.92371" lon="0.80909">
        <ele>451.9</ele>
        <time>2019-01-31T13:23:49Z</time>
      </trkpt>
      <trkpt lat="41.9236" lon="0.80916">
        <ele>452.4</ele>
        <time>2019-01-31T13:23:55Z</time>
      </trkpt>
      <trkpt lat="41.9235" lon="0.80922">
        <ele>453.4</ele>
        <time>2019-01-31T13:24:02Z</time>
      </trkpt>
      <trkpt lat="41.92342" lon="0.80929">
        <ele>453.5</ele>
        <time>2019-01-31T13:24:07Z</time>
      </trkpt>
      <trkpt lat="41.92336" lon="0.80942">
        <ele>453.9</ele>
        <time>2019-01-31T13:24:14Z</time>
      </trkpt>
      <trkpt lat="41.92338" lon="0.80955">
        <ele>454.3</ele>
        <time>2019-01-31T13:24:19Z</time>
      </trkpt>
      <trkpt lat="41.92343" lon="0.80967">
        <ele>454.8</ele>
        <time>2019-01-31T13:24:25Z</time>
      </trkpt>
      <trkpt lat="41.92349" lon="0.80978">
        <ele>454.9</ele>
        <time>2019-01-31T13:24:31Z</time>
      </trkpt>
      <trkpt lat="41.92356" lon="0.8099">
        <ele>455.9</ele>
        <time>2019-01-31T13:24:38Z</time>
      </trkpt>
      <trkpt lat="41.92363" lon="0.81002">
        <ele>456.3</ele>
        <time>2019-01-31T13:24:44Z</time>
      </trkpt>
      <trkpt lat="41.9237" lon="0.81014">
        <ele>457.2</ele>
        <time>2019-01-31T13:24:51Z</time>
      </trkpt>
      <trkpt lat="41.92376" lon="0.81026">
        <ele>457.7</ele>
        <time>2019-01-31T13:24:57Z</time>
      </trkpt>
      <trkpt lat="41.92382" lon="0.81039">
        <ele>458.2</ele>
        <time>2019-01-31T13:25:03Z</time>
      </trkpt>
      <trkpt lat="41.92386" lon="0.81052">
        <ele>458.2</ele>
        <time>2019-01-31T13:25:09Z</time>
      </trkpt>
      <trkpt lat="41.92387" lon="0.81067">
        <ele>458.6</ele>
        <time>2019-01-31T13:25:15Z</time>
      </trkpt>
      <trkpt lat="41.9239" lon="0.81081">
        <ele>459.7</ele>
        <time>2019-01-31T13:25:22Z</time>
      </trkpt>
      <trkpt lat="41.92394" lon="0.81094">
        <ele>460.6</ele>
        <time>2019-01-31T13:25:28Z</time>
      </trkpt>
      <trkpt lat="41.92399" lon="0.81106">
        <ele>461.5</ele>
        <time>2019-01-31T13:25:33Z</time>
      </trkpt>
      <trkpt lat="41.92404" lon="0.81118">
        <ele>463</ele>
        <time>2019-01-31T13:25:40Z</time>
      </trkpt>
      <trkpt lat="41.92405" lon="0.81132">
        <ele>464.9</ele>
        <time>2019-01-31T13:25:45Z</time>
      </trkpt>
      <trkpt lat="41.92401" lon="0.81144">
        <ele>466.4</ele>
        <time>2019-01-31T13:25:51Z</time>
      </trkpt>
      <trkpt lat="41.92397" lon="0.81157">
        <ele>468.3</ele>
        <time>2019-01-31T13:25:57Z</time>
      </trkpt>
      <trkpt lat="41.92392" lon="0.8117">
        <ele>470.2</ele>
        <time>2019-01-31T13:26:04Z</time>
      </trkpt>
      <trkpt lat="41.92384" lon="0.81183">
        <ele>471.2</ele>
        <time>2019-01-31T13:26:11Z</time>
      </trkpt>
      <trkpt lat="41.92376" lon="0.81196">
        <ele>472.7</ele>
        <time>2019-01-31T13:26:18Z</time>
      </trkpt>
      <trkpt lat="41.9237" lon="0.8121">
        <ele>474</ele>
        <time>2019-01-31T13:26:24Z</time>
      </trkpt>
      <trkpt lat="41.92366" lon="0.81223">
        <ele>475.1</ele>
        <time>2019-01-31T13:26:30Z</time>
      </trkpt>
      <trkpt lat="41.92364" lon="0.81238">
        <ele>476.4</ele>
        <time>2019-01-31T13:26:37Z</time>
      </trkpt>
      <trkpt lat="41.92365" lon="0.81253">
        <ele>477.4</ele>
        <time>2019-01-31T13:26:43Z</time>
      </trkpt>
      <trkpt lat="41.92366" lon="0.81267">
        <ele>477.4</ele>
        <time>2019-01-31T13:26:49Z</time>
      </trkpt>
      <trkpt lat="41.92364" lon="0.81283">
        <ele>478.3</ele>
        <time>2019-01-31T13:26:56Z</time>
      </trkpt>
      <trkpt lat="41.92362" lon="0.813">
        <ele>478.4</ele>
        <time>2019-01-31T13:27:03Z</time>
      </trkpt>
      <trkpt lat="41.92361" lon="0.81315">
        <ele>479.3</ele>
        <time>2019-01-31T13:27:10Z</time>
      </trkpt>
      <trkpt lat="41.92359" lon="0.81328">
        <ele>479.4</ele>
        <time>2019-01-31T13:27:16Z</time>
      </trkpt>
      <trkpt lat="41.92356" lon="0.81341">
        <ele>479.3</ele>
        <time>2019-01-31T13:27:21Z</time>
      </trkpt>
      <trkpt lat="41.92351" lon="0.81354">
        <ele>479.8</ele>
        <time>2019-01-31T13:27:28Z</time>
      </trkpt>
      <trkpt lat="41.92347" lon="0.81367">
        <ele>479.9</ele>
        <time>2019-01-31T13:27:34Z</time>
      </trkpt>
      <trkpt lat="41.92343" lon="0.8138">
        <ele>479.9</ele>
        <time>2019-01-31T13:27:39Z</time>
      </trkpt>
      <trkpt lat="41.92339" lon="0.81394">
        <ele>479.8</ele>
        <time>2019-01-31T13:27:46Z</time>
      </trkpt>
      <trkpt lat="41.92335" lon="0.81408">
        <ele>478.9</ele>
        <time>2019-01-31T13:27:53Z</time>
      </trkpt>
      <trkpt lat="41.92329" lon="0.81421">
        <ele>478.3</ele>
        <time>2019-01-31T13:27:59Z</time>
      </trkpt>
      <trkpt lat="41.92323" lon="0.81434">
        <ele>476.9</ele>
        <time>2019-01-31T13:28:05Z</time>
      </trkpt>
      <trkpt lat="41.92318" lon="0.81446">
        <ele>476.4</ele>
        <time>2019-01-31T13:28:11Z</time>
      </trkpt>
      <trkpt lat="41.92314" lon="0.8146">
        <ele>475.6</ele>
        <time>2019-01-31T13:28:17Z</time>
      </trkpt>
      <trkpt lat="41.92312" lon="0.81477">
        <ele>474.1</ele>
        <time>2019-01-31T13:28:25Z</time>
      </trkpt>
      <trkpt lat="41.92311" lon="0.81494">
        <ele>474</ele>
        <time>2019-01-31T13:28:32Z</time>
      </trkpt>
      <trkpt lat="41.92308" lon="0.81512">
        <ele>474.1</ele>
        <time>2019-01-31T13:28:40Z</time>
      </trkpt>
      <trkpt lat="41.92306" lon="0.81527">
        <ele>474.5</ele>
        <time>2019-01-31T13:28:46Z</time>
      </trkpt>
      <trkpt lat="41.9231" lon="0.81541">
        <ele>475.6</ele>
        <time>2019-01-31T13:28:53Z</time>
      </trkpt>
      <trkpt lat="41.92313" lon="0.81555">
        <ele>477.4</ele>
        <time>2019-01-31T13:28:59Z</time>
      </trkpt>
      <trkpt lat="41.92313" lon="0.8157">
        <ele>477.4</ele>
        <time>2019-01-31T13:29:05Z</time>
      </trkpt>
      <trkpt lat="41.92311" lon="0.81585">
        <ele>476.9</ele>
        <time>2019-01-31T13:29:12Z</time>
      </trkpt>
      <trkpt lat="41.9231" lon="0.81599">
        <ele>476</ele>
        <time>2019-01-31T13:29:18Z</time>
      </trkpt>
      <trkpt lat="41.92308" lon="0.81612">
        <ele>475</ele>
        <time>2019-01-31T13:29:23Z</time>
      </trkpt>
      <trkpt lat="41.92303" lon="0.81624">
        <ele>474</ele>
        <time>2019-01-31T13:29:29Z</time>
      </trkpt>
      <trkpt lat="41.92296" lon="0.81635">
        <ele>472.6</ele>
        <time>2019-01-31T13:29:35Z</time>
      </trkpt>
      <trkpt lat="41.9229" lon="0.81645">
        <ele>471.1</ele>
        <time>2019-01-31T13:29:41Z</time>
      </trkpt>
      <trkpt lat="41.92283" lon="0.81657">
        <ele>469.3</ele>
        <time>2019-01-31T13:29:48Z</time>
      </trkpt>
      <trkpt lat="41.92277" lon="0.81669">
        <ele>467.4</ele>
        <time>2019-01-31T13:29:54Z</time>
      </trkpt>
      <trkpt lat="41.92272" lon="0.81682">
        <ele>466.4</ele>
        <time>2019-01-31T13:30:00Z</time>
      </trkpt>
      <trkpt lat="41.92265" lon="0.81693">
        <ele>464.9</ele>
        <time>2019-01-31T13:30:06Z</time>
      </trkpt>
      <trkpt lat="41.92259" lon="0.81705">
        <ele>463.4</ele>
        <time>2019-01-31T13:30:12Z</time>
      </trkpt>
      <trkpt lat="41.92252" lon="0.81715">
        <ele>461.5</ele>
        <time>2019-01-31T13:30:18Z</time>
      </trkpt>
      <trkpt lat="41.92242" lon="0.81724">
        <ele>461.5</ele>
        <time>2019-01-31T13:30:25Z</time>
      </trkpt>
      <trkpt lat="41.92234" lon="0.81735">
        <ele>461.5</ele>
        <time>2019-01-31T13:30:32Z</time>
      </trkpt>
      <trkpt lat="41.92227" lon="0.81749">
        <ele>462.5</ele>
        <time>2019-01-31T13:30:38Z</time>
      </trkpt>
      <trkpt lat="41.92223" lon="0.81763">
        <ele>463.4</ele>
        <time>2019-01-31T13:30:45Z</time>
      </trkpt>
      <trkpt lat="41.92221" lon="0.81779">
        <ele>464.5</ele>
        <time>2019-01-31T13:30:52Z</time>
      </trkpt>
      <trkpt lat="41.92219" lon="0.81793">
        <ele>466.3</ele>
        <time>2019-01-31T13:30:58Z</time>
      </trkpt>
      <trkpt lat="41.92218" lon="0.81807">
        <ele>467.8</ele>
        <time>2019-01-31T13:31:04Z</time>
      </trkpt>
      <trkpt lat="41.92216" lon="0.81821">
        <ele>469.7</ele>
        <time>2019-01-31T13:31:10Z</time>
      </trkpt>
      <trkpt lat="41.92212" lon="0.81835">
        <ele>471.1</ele>
        <time>2019-01-31T13:31:16Z</time>
      </trkpt>
      <trkpt lat="41.92207" lon="0.81848">
        <ele>472.2</ele>
        <time>2019-01-31T13:31:22Z</time>
      </trkpt>
      <trkpt lat="41.92203" lon="0.81863">
        <ele>472.6</ele>
        <time>2019-01-31T13:31:29Z</time>
      </trkpt>
      <trkpt lat="41.92202" lon="0.81877">
        <ele>472.6</ele>
        <time>2019-01-31T13:31:35Z</time>
      </trkpt>
      <trkpt lat="41.92202" lon="0.8189">
        <ele>473.1</ele>
        <time>2019-01-31T13:31:41Z</time>
      </trkpt>
      <trkpt lat="41.92201" lon="0.81901">
        <ele>473.2</ele>
        <time>2019-01-31T13:31:46Z</time>
      </trkpt>
      <trkpt lat="41.9219" lon="0.81906">
        <ele>473.5</ele>
        <time>2019-01-31T13:31:52Z</time>
      </trkpt>
      <trkpt lat="41.92179" lon="0.81903">
        <ele>474</ele>
        <time>2019-01-31T13:31:59Z</time>
      </trkpt>
      <trkpt lat="41.92166" lon="0.81901">
        <ele>474.6</ele>
        <time>2019-01-31T13:32:06Z</time>
      </trkpt>
      <trkpt lat="41.92155" lon="0.81903">
        <ele>474.6</ele>
        <time>2019-01-31T13:32:13Z</time>
      </trkpt>
      <trkpt lat="41.92145" lon="0.8191">
        <ele>475.1</ele>
        <time>2019-01-31T13:32:19Z</time>
      </trkpt>
      <trkpt lat="41.92136" lon="0.81917">
        <ele>475.9</ele>
        <time>2019-01-31T13:32:25Z</time>
      </trkpt>
      <trkpt lat="41.92126" lon="0.81926">
        <ele>477</ele>
        <time>2019-01-31T13:32:32Z</time>
      </trkpt>
      <trkpt lat="41.92116" lon="0.81936">
        <ele>477.4</ele>
        <time>2019-01-31T13:32:39Z</time>
      </trkpt>
      <trkpt lat="41.92109" lon="0.81949">
        <ele>478.4</ele>
        <time>2019-01-31T13:32:46Z</time>
      </trkpt>
      <trkpt lat="41.92101" lon="0.81961">
        <ele>479.3</ele>
        <time>2019-01-31T13:32:52Z</time>
      </trkpt>
      <trkpt lat="41.92092" lon="0.81971">
        <ele>480.9</ele>
        <time>2019-01-31T13:32:59Z</time>
      </trkpt>
      <trkpt lat="41.92085" lon="0.81984">
        <ele>481.8</ele>
        <time>2019-01-31T13:33:06Z</time>
      </trkpt>
      <trkpt lat="41.9209" lon="0.81995">
        <ele>482.7</ele>
        <time>2019-01-31T13:33:12Z</time>
      </trkpt>
      <trkpt lat="41.92099" lon="0.82003">
        <ele>485.1</ele>
        <time>2019-01-31T13:33:18Z</time>
      </trkpt>
      <trkpt lat="41.92107" lon="0.82009">
        <ele>485.7</ele>
        <time>2019-01-31T13:33:23Z</time>
      </trkpt>
      <trkpt lat="41.92115" lon="0.82015">
        <ele>486.6</ele>
        <time>2019-01-31T13:33:29Z</time>
      </trkpt>
      <trkpt lat="41.92122" lon="0.82022">
        <ele>486.5</ele>
        <time>2019-01-31T13:33:34Z</time>
      </trkpt>
      <trkpt lat="41.92129" lon="0.82034">
        <ele>488.1</ele>
        <time>2019-01-31T13:33:40Z</time>
      </trkpt>
      <trkpt lat="41.92134" lon="0.82048">
        <ele>488.4</ele>
        <time>2019-01-31T13:33:47Z</time>
      </trkpt>
      <trkpt lat="41.92136" lon="0.82062">
        <ele>489.9</ele>
        <time>2019-01-31T13:33:53Z</time>
      </trkpt>
      <trkpt lat="41.92133" lon="0.82077">
        <ele>491.4</ele>
        <time>2019-01-31T13:33:59Z</time>
      </trkpt>
      <trkpt lat="41.92128" lon="0.82091">
        <ele>493.3</ele>
        <time>2019-01-31T13:34:06Z</time>
      </trkpt>
      <trkpt lat="41.92122" lon="0.82106">
        <ele>494.3</ele>
        <time>2019-01-31T13:34:13Z</time>
      </trkpt>
      <trkpt lat="41.92118" lon="0.82117">
        <ele>495.3</ele>
        <time>2019-01-31T13:34:18Z</time>
      </trkpt>
      <trkpt lat="41.92114" lon="0.82129">
        <ele>497.1</ele>
        <time>2019-01-31T13:34:24Z</time>
      </trkpt>
      <trkpt lat="41.92109" lon="0.82143">
        <ele>498.1</ele>
        <time>2019-01-31T13:34:30Z</time>
      </trkpt>
      <trkpt lat="41.92105" lon="0.82156">
        <ele>499.5</ele>
        <time>2019-01-31T13:34:36Z</time>
      </trkpt>
      <trkpt lat="41.92103" lon="0.8217">
        <ele>500.6</ele>
        <time>2019-01-31T13:34:42Z</time>
      </trkpt>
      <trkpt lat="41.921" lon="0.82185">
        <ele>501</ele>
        <time>2019-01-31T13:34:49Z</time>
      </trkpt>
      <trkpt lat="41.92099" lon="0.822">
        <ele>501.4</ele>
        <time>2019-01-31T13:34:56Z</time>
      </trkpt>
      <trkpt lat="41.92098" lon="0.82215">
        <ele>502.5</ele>
        <time>2019-01-31T13:35:02Z</time>
      </trkpt>
      <trkpt lat="41.92099" lon="0.82227">
        <ele>503.9</ele>
        <time>2019-01-31T13:35:07Z</time>
      </trkpt>
      <trkpt lat="41.92097" lon="0.82239">
        <ele>504.9</ele>
        <time>2019-01-31T13:35:12Z</time>
      </trkpt>
      <trkpt lat="41.92092" lon="0.82249">
        <ele>505.4</ele>
        <time>2019-01-31T13:35:18Z</time>
      </trkpt>
      <trkpt lat="41.92083" lon="0.82257">
        <ele>505.8</ele>
        <time>2019-01-31T13:35:24Z</time>
      </trkpt>
      <trkpt lat="41.92073" lon="0.82263">
        <ele>505.8</ele>
        <time>2019-01-31T13:35:30Z</time>
      </trkpt>
      <trkpt lat="41.92065" lon="0.82271">
        <ele>506.2</ele>
        <time>2019-01-31T13:35:35Z</time>
      </trkpt>
      <trkpt lat="41.92057" lon="0.8228">
        <ele>506.7</ele>
        <time>2019-01-31T13:35:42Z</time>
      </trkpt>
      <trkpt lat="41.9205" lon="0.8229">
        <ele>506.8</ele>
        <time>2019-01-31T13:35:47Z</time>
      </trkpt>
      <trkpt lat="41.92044" lon="0.82301">
        <ele>506.7</ele>
        <time>2019-01-31T13:35:53Z</time>
      </trkpt>
      <trkpt lat="41.9204" lon="0.82314">
        <ele>507.2</ele>
        <time>2019-01-31T13:35:59Z</time>
      </trkpt>
      <trkpt lat="41.92036" lon="0.82325">
        <ele>507.8</ele>
        <time>2019-01-31T13:36:04Z</time>
      </trkpt>
      <trkpt lat="41.92031" lon="0.82335">
        <ele>509.7</ele>
        <time>2019-01-31T13:36:09Z</time>
      </trkpt>
      <trkpt lat="41.92024" lon="0.82345">
        <ele>509.6</ele>
        <time>2019-01-31T13:36:15Z</time>
      </trkpt>
      <trkpt lat="41.92015" lon="0.82352">
        <ele>509.7</ele>
        <time>2019-01-31T13:36:21Z</time>
      </trkpt>
      <trkpt lat="41.92004" lon="0.82357">
        <ele>509.7</ele>
        <time>2019-01-31T13:36:28Z</time>
      </trkpt>
      <trkpt lat="41.91995" lon="0.82364">
        <ele>508.7</ele>
        <time>2019-01-31T13:36:34Z</time>
      </trkpt>
      <trkpt lat="41.91991" lon="0.82377">
        <ele>507.8</ele>
        <time>2019-01-31T13:36:40Z</time>
      </trkpt>
      <trkpt lat="41.91998" lon="0.82388">
        <ele>507.7</ele>
        <time>2019-01-31T13:36:46Z</time>
      </trkpt>
      <trkpt lat="41.92005" lon="0.82396">
        <ele>506.7</ele>
        <time>2019-01-31T13:36:51Z</time>
      </trkpt>
      <trkpt lat="41.92014" lon="0.82405">
        <ele>505.3</ele>
        <time>2019-01-31T13:36:58Z</time>
      </trkpt>
      <trkpt lat="41.92022" lon="0.82413">
        <ele>504.3</ele>
        <time>2019-01-31T13:37:03Z</time>
      </trkpt>
      <trkpt lat="41.92029" lon="0.82421">
        <ele>503</ele>
        <time>2019-01-31T13:37:09Z</time>
      </trkpt>
      <trkpt lat="41.92037" lon="0.8243">
        <ele>502.9</ele>
        <time>2019-01-31T13:37:15Z</time>
      </trkpt>
      <trkpt lat="41.92044" lon="0.82437">
        <ele>502.9</ele>
        <time>2019-01-31T13:37:20Z</time>
      </trkpt>
      <trkpt lat="41.92053" lon="0.82446">
        <ele>503</ele>
        <time>2019-01-31T13:37:26Z</time>
      </trkpt>
      <trkpt lat="41.92061" lon="0.82455">
        <ele>503.4</ele>
        <time>2019-01-31T13:37:32Z</time>
      </trkpt>
      <trkpt lat="41.92069" lon="0.82464">
        <ele>503.4</ele>
        <time>2019-01-31T13:37:38Z</time>
      </trkpt>
      <trkpt lat="41.92076" lon="0.82475">
        <ele>504.9</ele>
        <time>2019-01-31T13:37:44Z</time>
      </trkpt>
      <trkpt lat="41.92083" lon="0.82487">
        <ele>505.8</ele>
        <time>2019-01-31T13:37:51Z</time>
      </trkpt>
      <trkpt lat="41.9209" lon="0.82497">
        <ele>506.7</ele>
        <time>2019-01-31T13:37:57Z</time>
      </trkpt>
      <trkpt lat="41.92096" lon="0.82509">
        <ele>508.1</ele>
        <time>2019-01-31T13:38:03Z</time>
      </trkpt>
      <trkpt lat="41.92102" lon="0.8252">
        <ele>509.7</ele>
        <time>2019-01-31T13:38:08Z</time>
      </trkpt>
      <trkpt lat="41.92107" lon="0.82533">
        <ele>510.7</ele>
        <time>2019-01-31T13:38:15Z</time>
      </trkpt>
      <trkpt lat="41.92113" lon="0.82543">
        <ele>510.6</ele>
        <time>2019-01-31T13:38:20Z</time>
      </trkpt>
      <trkpt lat="41.9212" lon="0.82552">
        <ele>510.7</ele>
        <time>2019-01-31T13:38:26Z</time>
      </trkpt>
      <trkpt lat="41.92127" lon="0.82561">
        <ele>510.7</ele>
        <time>2019-01-31T13:38:31Z</time>
      </trkpt>
      <trkpt lat="41.92136" lon="0.82569">
        <ele>510.6</ele>
        <time>2019-01-31T13:38:38Z</time>
      </trkpt>
      <trkpt lat="41.92147" lon="0.8257">
        <ele>509.2</ele>
        <time>2019-01-31T13:38:43Z</time>
      </trkpt>
      <trkpt lat="41.92156" lon="0.82567">
        <ele>508.2</ele>
        <time>2019-01-31T13:38:49Z</time>
      </trkpt>
      <trkpt lat="41.92164" lon="0.82562">
        <ele>507.2</ele>
        <time>2019-01-31T13:38:54Z</time>
      </trkpt>
      <trkpt lat="41.92172" lon="0.82565">
        <ele>505.7</ele>
        <time>2019-01-31T13:38:59Z</time>
      </trkpt>
      <trkpt lat="41.92179" lon="0.82574">
        <ele>505.3</ele>
        <time>2019-01-31T13:39:04Z</time>
      </trkpt>
      <trkpt lat="41.92184" lon="0.82585">
        <ele>505.3</ele>
        <time>2019-01-31T13:39:09Z</time>
      </trkpt>
      <trkpt lat="41.92185" lon="0.82598">
        <ele>505.4</ele>
        <time>2019-01-31T13:39:15Z</time>
      </trkpt>
      <trkpt lat="41.92182" lon="0.8261">
        <ele>504.4</ele>
        <time>2019-01-31T13:39:20Z</time>
      </trkpt>
      <trkpt lat="41.92173" lon="0.82617">
        <ele>503</ele>
        <time>2019-01-31T13:39:26Z</time>
      </trkpt>
      <trkpt lat="41.92162" lon="0.82622">
        <ele>501.4</ele>
        <time>2019-01-31T13:39:33Z</time>
      </trkpt>
      <trkpt lat="41.92152" lon="0.82625">
        <ele>500.6</ele>
        <time>2019-01-31T13:39:39Z</time>
      </trkpt>
      <trkpt lat="41.92141" lon="0.82627">
        <ele>499.1</ele>
        <time>2019-01-31T13:39:45Z</time>
      </trkpt>
      <trkpt lat="41.9213" lon="0.8263">
        <ele>497.7</ele>
        <time>2019-01-31T13:39:52Z</time>
      </trkpt>
      <trkpt lat="41.9212" lon="0.82632">
        <ele>497.6</ele>
        <time>2019-01-31T13:39:57Z</time>
      </trkpt>
      <trkpt lat="41.9211" lon="0.82634">
        <ele>497.6</ele>
        <time>2019-01-31T13:40:03Z</time>
      </trkpt>
      <trkpt lat="41.92101" lon="0.82638">
        <ele>497.7</ele>
        <time>2019-01-31T13:40:09Z</time>
      </trkpt>
      <trkpt lat="41.92091" lon="0.82641">
        <ele>497.6</ele>
        <time>2019-01-31T13:40:15Z</time>
      </trkpt>
      <trkpt lat="41.92081" lon="0.82647">
        <ele>497.6</ele>
        <time>2019-01-31T13:40:21Z</time>
      </trkpt>
      <trkpt lat="41.92073" lon="0.82656">
        <ele>497.6</ele>
        <time>2019-01-31T13:40:27Z</time>
      </trkpt>
      <trkpt lat="41.92068" lon="0.82668">
        <ele>497.6</ele>
        <time>2019-01-31T13:40:33Z</time>
      </trkpt>
      <trkpt lat="41.92063" lon="0.82678">
        <ele>498.2</ele>
        <time>2019-01-31T13:40:38Z</time>
      </trkpt>
      <trkpt lat="41.92057" lon="0.82691">
        <ele>498.2</ele>
        <time>2019-01-31T13:40:44Z</time>
      </trkpt>
      <trkpt lat="41.92051" lon="0.82702">
        <ele>498.2</ele>
        <time>2019-01-31T13:40:50Z</time>
      </trkpt>
      <trkpt lat="41.92045" lon="0.82715">
        <ele>498.6</ele>
        <time>2019-01-31T13:40:56Z</time>
      </trkpt>
      <trkpt lat="41.92045" lon="0.82728">
        <ele>498.6</ele>
        <time>2019-01-31T13:41:02Z</time>
      </trkpt>
      <trkpt lat="41.92046" lon="0.82741">
        <ele>499.1</ele>
        <time>2019-01-31T13:41:08Z</time>
      </trkpt>
      <trkpt lat="41.92043" lon="0.82754">
        <ele>500.5</ele>
        <time>2019-01-31T13:41:13Z</time>
      </trkpt>
      <trkpt lat="41.9204" lon="0.82767">
        <ele>500.5</ele>
        <time>2019-01-31T13:41:19Z</time>
      </trkpt>
      <trkpt lat="41.92035" lon="0.82778">
        <ele>500</ele>
        <time>2019-01-31T13:41:25Z</time>
      </trkpt>
      <trkpt lat="41.92028" lon="0.82785">
        <ele>499</ele>
        <time>2019-01-31T13:41:30Z</time>
      </trkpt>
      <trkpt lat="41.92018" lon="0.82792">
        <ele>498.5</ele>
        <time>2019-01-31T13:41:36Z</time>
      </trkpt>
      <trkpt lat="41.92008" lon="0.82797">
        <ele>497.7</ele>
        <time>2019-01-31T13:41:42Z</time>
      </trkpt>
      <trkpt lat="41.91999" lon="0.82802">
        <ele>496.7</ele>
        <time>2019-01-31T13:41:48Z</time>
      </trkpt>
      <trkpt lat="41.9199" lon="0.82806">
        <ele>495.7</ele>
        <time>2019-01-31T13:41:53Z</time>
      </trkpt>
      <trkpt lat="41.9198" lon="0.82811">
        <ele>494.7</ele>
        <time>2019-01-31T13:41:59Z</time>
      </trkpt>
      <trkpt lat="41.91972" lon="0.82818">
        <ele>491.8</ele>
        <time>2019-01-31T13:42:05Z</time>
      </trkpt>
      <trkpt lat="41.91965" lon="0.82828">
        <ele>492.8</ele>
        <time>2019-01-31T13:42:11Z</time>
      </trkpt>
      <trkpt lat="41.91957" lon="0.82837">
        <ele>492.8</ele>
        <time>2019-01-31T13:42:17Z</time>
      </trkpt>
      <trkpt lat="41.91949" lon="0.82846">
        <ele>493.2</ele>
        <time>2019-01-31T13:42:23Z</time>
      </trkpt>
      <trkpt lat="41.91942" lon="0.82856">
        <ele>494.2</ele>
        <time>2019-01-31T13:42:28Z</time>
      </trkpt>
      <trkpt lat="41.91935" lon="0.82868">
        <ele>494.2</ele>
        <time>2019-01-31T13:42:35Z</time>
      </trkpt>
      <trkpt lat="41.91929" lon="0.82881">
        <ele>494.2</ele>
        <time>2019-01-31T13:42:41Z</time>
      </trkpt>
      <trkpt lat="41.91923" lon="0.82893">
        <ele>494.3</ele>
        <time>2019-01-31T13:42:48Z</time>
      </trkpt>
      <trkpt lat="41.91917" lon="0.82903">
        <ele>494.2</ele>
        <time>2019-01-31T13:42:53Z</time>
      </trkpt>
      <trkpt lat="41.91911" lon="0.82916">
        <ele>493.8</ele>
        <time>2019-01-31T13:43:00Z</time>
      </trkpt>
      <trkpt lat="41.91904" lon="0.82926">
        <ele>492.4</ele>
        <time>2019-01-31T13:43:05Z</time>
      </trkpt>
      <trkpt lat="41.91899" lon="0.82937">
        <ele>492.3</ele>
        <time>2019-01-31T13:43:11Z</time>
      </trkpt>
      <trkpt lat="41.91894" lon="0.82949">
        <ele>492.4</ele>
        <time>2019-01-31T13:43:17Z</time>
      </trkpt>
      <trkpt lat="41.91889" lon="0.82961">
        <ele>492.9</ele>
        <time>2019-01-31T13:43:22Z</time>
      </trkpt>
      <trkpt lat="41.91886" lon="0.82973">
        <ele>492.9</ele>
        <time>2019-01-31T13:43:28Z</time>
      </trkpt>
      <trkpt lat="41.91884" lon="0.82987">
        <ele>492.9</ele>
        <time>2019-01-31T13:43:34Z</time>
      </trkpt>
      <trkpt lat="41.9188" lon="0.83">
        <ele>493.2</ele>
        <time>2019-01-31T13:43:40Z</time>
      </trkpt>
      <trkpt lat="41.91877" lon="0.83014">
        <ele>493.2</ele>
        <time>2019-01-31T13:43:46Z</time>
      </trkpt>
      <trkpt lat="41.91873" lon="0.83026">
        <ele>494.2</ele>
        <time>2019-01-31T13:43:52Z</time>
      </trkpt>
      <trkpt lat="41.91871" lon="0.8304">
        <ele>494.2</ele>
        <time>2019-01-31T13:43:58Z</time>
      </trkpt>
      <trkpt lat="41.91866" lon="0.83052">
        <ele>494.8</ele>
        <time>2019-01-31T13:44:04Z</time>
      </trkpt>
      <trkpt lat="41.91861" lon="0.83063">
        <ele>494.3</ele>
        <time>2019-01-31T13:44:09Z</time>
      </trkpt>
      <trkpt lat="41.91857" lon="0.83076">
        <ele>493.3</ele>
        <time>2019-01-31T13:44:15Z</time>
      </trkpt>
      <trkpt lat="41.91852" lon="0.83085">
        <ele>492.8</ele>
        <time>2019-01-31T13:44:20Z</time>
      </trkpt>
      <trkpt lat="41.91846" lon="0.83095">
        <ele>492.8</ele>
        <time>2019-01-31T13:44:25Z</time>
      </trkpt>
      <trkpt lat="41.91838" lon="0.83104">
        <ele>492.3</ele>
        <time>2019-01-31T13:44:31Z</time>
      </trkpt>
      <trkpt lat="41.91829" lon="0.83112">
        <ele>491.4</ele>
        <time>2019-01-31T13:44:37Z</time>
      </trkpt>
      <trkpt lat="41.91826" lon="0.83127">
        <ele>489.4</ele>
        <time>2019-01-31T13:44:44Z</time>
      </trkpt>
      <trkpt lat="41.91827" lon="0.83139">
        <ele>488.4</ele>
        <time>2019-01-31T13:44:49Z</time>
      </trkpt>
      <trkpt lat="41.91829" lon="0.8315">
        <ele>488.4</ele>
        <time>2019-01-31T13:44:54Z</time>
      </trkpt>
      <trkpt lat="41.91819" lon="0.83155">
        <ele>489.9</ele>
        <time>2019-01-31T13:45:00Z</time>
      </trkpt>
      <trkpt lat="41.91807" lon="0.83156">
        <ele>492.9</ele>
        <time>2019-01-31T13:45:07Z</time>
      </trkpt>
      <trkpt lat="41.91794" lon="0.83156">
        <ele>494.2</ele>
        <time>2019-01-31T13:45:14Z</time>
      </trkpt>
      <trkpt lat="41.91783" lon="0.83161">
        <ele>493.3</ele>
        <time>2019-01-31T13:45:21Z</time>
      </trkpt>
      <trkpt lat="41.91771" lon="0.83166">
        <ele>492.9</ele>
        <time>2019-01-31T13:45:28Z</time>
      </trkpt>
      <trkpt lat="41.9176" lon="0.83174">
        <ele>492.4</ele>
        <time>2019-01-31T13:45:36Z</time>
      </trkpt>
      <trkpt lat="41.91746" lon="0.83177">
        <ele>492.4</ele>
        <time>2019-01-31T13:45:43Z</time>
      </trkpt>
      <trkpt lat="41.91736" lon="0.83189">
        <ele>490.9</ele>
        <time>2019-01-31T13:45:51Z</time>
      </trkpt>
      <trkpt lat="41.91727" lon="0.83203">
        <ele>486.5</ele>
        <time>2019-01-31T13:45:59Z</time>
      </trkpt>
      <trkpt lat="41.91724" lon="0.83213">
        <ele>485.1</ele>
        <time>2019-01-31T13:46:04Z</time>
      </trkpt>
      <trkpt lat="41.91714" lon="0.83218">
        <ele>481.7</ele>
        <time>2019-01-31T13:46:10Z</time>
      </trkpt>
      <trkpt lat="41.91703" lon="0.83216">
        <ele>480.3</ele>
        <time>2019-01-31T13:46:16Z</time>
      </trkpt>
      <trkpt lat="41.91693" lon="0.83208">
        <ele>478.3</ele>
        <time>2019-01-31T13:46:22Z</time>
      </trkpt>
      <trkpt lat="41.91684" lon="0.83202">
        <ele>477</ele>
        <time>2019-01-31T13:46:28Z</time>
      </trkpt>
      <trkpt lat="41.91673" lon="0.83192">
        <ele>475.6</ele>
        <time>2019-01-31T13:46:36Z</time>
      </trkpt>
      <trkpt lat="41.91663" lon="0.83186">
        <ele>474.1</ele>
        <time>2019-01-31T13:46:42Z</time>
      </trkpt>
      <trkpt lat="41.91652" lon="0.83178">
        <ele>472.7</ele>
        <time>2019-01-31T13:46:49Z</time>
      </trkpt>
      <trkpt lat="41.91643" lon="0.8317">
        <ele>471.6</ele>
        <time>2019-01-31T13:46:56Z</time>
      </trkpt>
      <trkpt lat="41.91632" lon="0.83163">
        <ele>470.7</ele>
        <time>2019-01-31T13:47:03Z</time>
      </trkpt>
      <trkpt lat="41.91622" lon="0.83154">
        <ele>469.3</ele>
        <time>2019-01-31T13:47:09Z</time>
      </trkpt>
      <trkpt lat="41.91611" lon="0.83151">
        <ele>467.4</ele>
        <time>2019-01-31T13:47:16Z</time>
      </trkpt>
      <trkpt lat="41.91601" lon="0.83147">
        <ele>466</ele>
        <time>2019-01-31T13:47:22Z</time>
      </trkpt>
      <trkpt lat="41.91591" lon="0.83141">
        <ele>464.5</ele>
        <time>2019-01-31T13:47:28Z</time>
      </trkpt>
      <trkpt lat="41.91582" lon="0.83135">
        <ele>463</ele>
        <time>2019-01-31T13:47:34Z</time>
      </trkpt>
      <trkpt lat="41.91574" lon="0.83125">
        <ele>461</ele>
        <time>2019-01-31T13:47:40Z</time>
      </trkpt>
      <trkpt lat="41.91567" lon="0.83112">
        <ele>460.6</ele>
        <time>2019-01-31T13:47:47Z</time>
      </trkpt>
      <trkpt lat="41.91558" lon="0.83107">
        <ele>462</ele>
        <time>2019-01-31T13:47:53Z</time>
      </trkpt>
      <trkpt lat="41.91549" lon="0.83112">
        <ele>463.1</ele>
        <time>2019-01-31T13:47:58Z</time>
      </trkpt>
      <trkpt lat="41.9154" lon="0.83117">
        <ele>464.4</ele>
        <time>2019-01-31T13:48:04Z</time>
      </trkpt>
      <trkpt lat="41.91531" lon="0.8312">
        <ele>464.5</ele>
        <time>2019-01-31T13:48:09Z</time>
      </trkpt>
      <trkpt lat="41.91522" lon="0.83121">
        <ele>464.5</ele>
        <time>2019-01-31T13:48:14Z</time>
      </trkpt>
      <trkpt lat="41.91516" lon="0.83111">
        <ele>463.5</ele>
        <time>2019-01-31T13:48:19Z</time>
      </trkpt>
      <trkpt lat="41.91516" lon="0.83097">
        <ele>462.6</ele>
        <time>2019-01-31T13:48:25Z</time>
      </trkpt>
      <trkpt lat="41.91515" lon="0.83081">
        <ele>462.5</ele>
        <time>2019-01-31T13:48:33Z</time>
      </trkpt>
      <trkpt lat="41.91504" lon="0.83072">
        <ele>459.1</ele>
        <time>2019-01-31T13:48:40Z</time>
      </trkpt>
      <trkpt lat="41.91491" lon="0.83072">
        <ele>455.8</ele>
        <time>2019-01-31T13:48:47Z</time>
      </trkpt>
      <trkpt lat="41.91482" lon="0.83067">
        <ele>453.8</ele>
        <time>2019-01-31T13:48:53Z</time>
      </trkpt>
      <trkpt lat="41.91472" lon="0.83059">
        <ele>452</ele>
        <time>2019-01-31T13:48:59Z</time>
      </trkpt>
      <trkpt lat="41.91465" lon="0.83047">
        <ele>452</ele>
        <time>2019-01-31T13:49:06Z</time>
      </trkpt>
      <trkpt lat="41.91457" lon="0.83035">
        <ele>451.1</ele>
        <time>2019-01-31T13:49:13Z</time>
      </trkpt>
      <trkpt lat="41.9145" lon="0.83021">
        <ele>451.1</ele>
        <time>2019-01-31T13:49:20Z</time>
      </trkpt>
      <trkpt lat="41.91441" lon="0.83011">
        <ele>450.6</ele>
        <time>2019-01-31T13:49:27Z</time>
      </trkpt>
      <trkpt lat="41.91432" lon="0.83002">
        <ele>449.1</ele>
        <time>2019-01-31T13:49:33Z</time>
      </trkpt>
      <trkpt lat="41.91424" lon="0.82993">
        <ele>449.1</ele>
        <time>2019-01-31T13:49:39Z</time>
      </trkpt>
      <trkpt lat="41.91417" lon="0.82983">
        <ele>448.6</ele>
        <time>2019-01-31T13:49:45Z</time>
      </trkpt>
      <trkpt lat="41.9141" lon="0.8297">
        <ele>448.5</ele>
        <time>2019-01-31T13:49:51Z</time>
      </trkpt>
      <trkpt lat="41.91401" lon="0.82958">
        <ele>446.6</ele>
        <time>2019-01-31T13:49:59Z</time>
      </trkpt>
      <trkpt lat="41.91392" lon="0.82946">
        <ele>446.1</ele>
        <time>2019-01-31T13:50:06Z</time>
      </trkpt>
      <trkpt lat="41.91382" lon="0.82933">
        <ele>444.7</ele>
        <time>2019-01-31T13:50:14Z</time>
      </trkpt>
      <trkpt lat="41.91371" lon="0.82924">
        <ele>443.3</ele>
        <time>2019-01-31T13:50:21Z</time>
      </trkpt>
      <trkpt lat="41.91359" lon="0.82915">
        <ele>441.4</ele>
        <time>2019-01-31T13:50:29Z</time>
      </trkpt>
      <trkpt lat="41.91348" lon="0.82911">
        <ele>438.6</ele>
        <time>2019-01-31T13:50:36Z</time>
      </trkpt>
      <trkpt lat="41.9134" lon="0.82899">
        <ele>438.1</ele>
        <time>2019-01-31T13:50:42Z</time>
      </trkpt>
      <trkpt lat="41.91334" lon="0.82886">
        <ele>436.5</ele>
        <time>2019-01-31T13:50:49Z</time>
      </trkpt>
      <trkpt lat="41.91324" lon="0.8284">
        <ele>424.5</ele>
        <time>2019-01-31T13:51:10Z</time>
      </trkpt>
      <trkpt lat="41.91319" lon="0.82816">
        <ele>416.3</ele>
        <time>2019-01-31T13:51:20Z</time>
      </trkpt>
      <trkpt lat="41.91306" lon="0.82813">
        <ele>413.5</ele>
        <time>2019-01-31T13:51:28Z</time>
      </trkpt>
      <trkpt lat="41.91282" lon="0.82812">
        <ele>407.7</ele>
        <time>2019-01-31T13:51:41Z</time>
      </trkpt>
      <trkpt lat="41.91261" lon="0.82814">
        <ele>402.4</ele>
        <time>2019-01-31T13:51:54Z</time>
      </trkpt>
      <trkpt lat="41.91248" lon="0.82817">
        <ele>398.6</ele>
        <time>2019-01-31T13:52:01Z</time>
      </trkpt>
      <trkpt lat="41.91238" lon="0.82813">
        <ele>396.2</ele>
        <time>2019-01-31T13:52:07Z</time>
      </trkpt>
      <trkpt lat="41.91228" lon="0.8281">
        <ele>393.8</ele>
        <time>2019-01-31T13:52:13Z</time>
      </trkpt>
      <trkpt lat="41.91215" lon="0.82807">
        <ele>389.9</ele>
        <time>2019-01-31T13:52:20Z</time>
      </trkpt>
      <trkpt lat="41.91204" lon="0.82803">
        <ele>386.6</ele>
        <time>2019-01-31T13:52:27Z</time>
      </trkpt>
      <trkpt lat="41.91191" lon="0.82789">
        <ele>383.8</ele>
        <time>2019-01-31T13:52:37Z</time>
      </trkpt>
      <trkpt lat="41.91177" lon="0.82786">
        <ele>380.8</ele>
        <time>2019-01-31T13:52:45Z</time>
      </trkpt>
      <trkpt lat="41.91164" lon="0.82783">
        <ele>377</ele>
        <time>2019-01-31T13:52:52Z</time>
      </trkpt>
      <trkpt lat="41.91135" lon="0.82761">
        <ele>364.5</ele>
        <time>2019-01-31T13:53:11Z</time>
      </trkpt>
      <trkpt lat="41.91118" lon="0.8275">
        <ele>359.7</ele>
        <time>2019-01-31T13:53:22Z</time>
      </trkpt>
      <trkpt lat="41.91102" lon="0.82756">
        <ele>356.7</ele>
        <time>2019-01-31T13:53:31Z</time>
      </trkpt>
      <trkpt lat="41.91078" lon="0.82807">
        <ele>341.8</ele>
        <time>2019-01-31T13:53:57Z</time>
      </trkpt>
      <trkpt lat="41.91086" lon="0.8282">
        <ele>340.9</ele>
        <time>2019-01-31T13:54:04Z</time>
      </trkpt>
      <trkpt lat="41.91092" lon="0.82833">
        <ele>340.4</ele>
        <time>2019-01-31T13:54:10Z</time>
      </trkpt>
      <trkpt lat="41.91097" lon="0.82845">
        <ele>340.4</ele>
        <time>2019-01-31T13:54:16Z</time>
      </trkpt>
      <trkpt lat="41.911" lon="0.82862">
        <ele>338.6</ele>
        <time>2019-01-31T13:54:24Z</time>
      </trkpt>
      <trkpt lat="41.91106" lon="0.82874">
        <ele>337</ele>
        <time>2019-01-31T13:54:30Z</time>
      </trkpt>
      <trkpt lat="41.91108" lon="0.82888">
        <ele>335.6</ele>
        <time>2019-01-31T13:54:36Z</time>
      </trkpt>
      <trkpt lat="41.91115" lon="0.82899">
        <ele>336.2</ele>
        <time>2019-01-31T13:54:42Z</time>
      </trkpt>
      <trkpt lat="41.91122" lon="0.82909">
        <ele>336.2</ele>
        <time>2019-01-31T13:54:48Z</time>
      </trkpt>
      <trkpt lat="41.91128" lon="0.8292">
        <ele>336.6</ele>
        <time>2019-01-31T13:54:54Z</time>
      </trkpt>
      <trkpt lat="41.9113" lon="0.82935">
        <ele>336.7</ele>
        <time>2019-01-31T13:55:00Z</time>
      </trkpt>
      <trkpt lat="41.91136" lon="0.82947">
        <ele>337</ele>
        <time>2019-01-31T13:55:06Z</time>
      </trkpt>
      <trkpt lat="41.91141" lon="0.8296">
        <ele>338</ele>
        <time>2019-01-31T13:55:13Z</time>
      </trkpt>
      <trkpt lat="41.91147" lon="0.82971">
        <ele>339</ele>
        <time>2019-01-31T13:55:18Z</time>
      </trkpt>
      <trkpt lat="41.91154" lon="0.82981">
        <ele>339</ele>
        <time>2019-01-31T13:55:24Z</time>
      </trkpt>
      <trkpt lat="41.91162" lon="0.8299">
        <ele>339.9</ele>
        <time>2019-01-31T13:55:30Z</time>
      </trkpt>
      <trkpt lat="41.91171" lon="0.82996">
        <ele>341.4</ele>
        <time>2019-01-31T13:55:36Z</time>
      </trkpt>
      <trkpt lat="41.9118" lon="0.83003">
        <ele>342.9</ele>
        <time>2019-01-31T13:55:42Z</time>
      </trkpt>
      <trkpt lat="41.91178" lon="0.83017">
        <ele>343.9</ele>
        <time>2019-01-31T13:55:48Z</time>
      </trkpt>
      <trkpt lat="41.91168" lon="0.83022">
        <ele>344.7</ele>
        <time>2019-01-31T13:55:54Z</time>
      </trkpt>
      <trkpt lat="41.91157" lon="0.83023">
        <ele>344.7</ele>
        <time>2019-01-31T13:56:00Z</time>
      </trkpt>
      <trkpt lat="41.91149" lon="0.83028">
        <ele>344.7</ele>
        <time>2019-01-31T13:56:05Z</time>
      </trkpt>
      <trkpt lat="41.91141" lon="0.83038">
        <ele>343.3</ele>
        <time>2019-01-31T13:56:11Z</time>
      </trkpt>
      <trkpt lat="41.9114" lon="0.83053">
        <ele>343.4</ele>
        <time>2019-01-31T13:56:18Z</time>
      </trkpt>
      <trkpt lat="41.91128" lon="0.83072">
        <ele>346.3</ele>
        <time>2019-01-31T13:56:28Z</time>
      </trkpt>
      <trkpt lat="41.91117" lon="0.83072">
        <ele>352.4</ele>
        <time>2019-01-31T13:56:35Z</time>
      </trkpt>
      <trkpt lat="41.91133" lon="0.83097">
        <ele>349.5</ele>
        <time>2019-01-31T13:56:49Z</time>
      </trkpt>
      <trkpt lat="41.91145" lon="0.83114">
        <ele>350.1</ele>
        <time>2019-01-31T13:56:59Z</time>
      </trkpt>
      <trkpt lat="41.9114" lon="0.83129">
        <ele>351.1</ele>
        <time>2019-01-31T13:57:06Z</time>
      </trkpt>
      <trkpt lat="41.91132" lon="0.83142">
        <ele>352.4</ele>
        <time>2019-01-31T13:57:13Z</time>
      </trkpt>
      <trkpt lat="41.91126" lon="0.83154">
        <ele>353</ele>
        <time>2019-01-31T13:57:19Z</time>
      </trkpt>
      <trkpt lat="41.91119" lon="0.83146">
        <ele>353.4</ele>
        <time>2019-01-31T13:57:25Z</time>
      </trkpt>
      <trkpt lat="41.91113" lon="0.83133">
        <ele>355.4</ele>
        <time>2019-01-31T13:57:31Z</time>
      </trkpt>
      <trkpt lat="41.91105" lon="0.83124">
        <ele>355.9</ele>
        <time>2019-01-31T13:57:37Z</time>
      </trkpt>
      <trkpt lat="41.91097" lon="0.83114">
        <ele>357.7</ele>
        <time>2019-01-31T13:57:43Z</time>
      </trkpt>
      <trkpt lat="41.91095" lon="0.83112">
        <ele>356.7</ele>
        <time>2019-01-31T13:57:44Z</time>
      </trkpt>
      <trkpt lat="41.91099" lon="0.83118">
        <ele>356.8</ele>
        <time>2019-01-31T13:57:48Z</time>
      </trkpt>
      <trkpt lat="41.91105" lon="0.83129">
        <ele>355.3</ele>
        <time>2019-01-31T13:57:53Z</time>
      </trkpt>
      <trkpt lat="41.9111" lon="0.83139">
        <ele>353.4</ele>
        <time>2019-01-31T13:57:59Z</time>
      </trkpt>
      <trkpt lat="41.91111" lon="0.8315">
        <ele>352.9</ele>
        <time>2019-01-31T13:58:03Z</time>
      </trkpt>
      <trkpt lat="41.91114" lon="0.83163">
        <ele>352.5</ele>
        <time>2019-01-31T13:58:09Z</time>
      </trkpt>
      <trkpt lat="41.91114" lon="0.83176">
        <ele>352.5</ele>
        <time>2019-01-31T13:58:15Z</time>
      </trkpt>
      <trkpt lat="41.9111" lon="0.83188">
        <ele>352.5</ele>
        <time>2019-01-31T13:58:20Z</time>
      </trkpt>
      <trkpt lat="41.91102" lon="0.83198">
        <ele>352.4</ele>
        <time>2019-01-31T13:58:26Z</time>
      </trkpt>
      <trkpt lat="41.91098" lon="0.8321">
        <ele>351.9</ele>
        <time>2019-01-31T13:58:32Z</time>
      </trkpt>
      <trkpt lat="41.91103" lon="0.83223">
        <ele>352.4</ele>
        <time>2019-01-31T13:58:39Z</time>
      </trkpt>
      <trkpt lat="41.91116" lon="0.83227">
        <ele>351.6</ele>
        <time>2019-01-31T13:58:46Z</time>
      </trkpt>
      <trkpt lat="41.91128" lon="0.83224">
        <ele>350.6</ele>
        <time>2019-01-31T13:58:53Z</time>
      </trkpt>
      <trkpt lat="41.91137" lon="0.83219">
        <ele>349.6</ele>
        <time>2019-01-31T13:58:59Z</time>
      </trkpt>
      <trkpt lat="41.91147" lon="0.83216">
        <ele>348.1</ele>
        <time>2019-01-31T13:59:05Z</time>
      </trkpt>
      <trkpt lat="41.91156" lon="0.83212">
        <ele>348.1</ele>
        <time>2019-01-31T13:59:10Z</time>
      </trkpt>
      <trkpt lat="41.91166" lon="0.83211">
        <ele>347.2</ele>
        <time>2019-01-31T13:59:15Z</time>
      </trkpt>
      <trkpt lat="41.91175" lon="0.83209">
        <ele>347.2</ele>
        <time>2019-01-31T13:59:21Z</time>
      </trkpt>
      <trkpt lat="41.91183" lon="0.83214">
        <ele>346.3</ele>
        <time>2019-01-31T13:59:26Z</time>
      </trkpt>
      <trkpt lat="41.91188" lon="0.83224">
        <ele>345.7</ele>
        <time>2019-01-31T13:59:31Z</time>
      </trkpt>
      <trkpt lat="41.9119" lon="0.83239">
        <ele>345.7</ele>
        <time>2019-01-31T13:59:37Z</time>
      </trkpt>
      <trkpt lat="41.91191" lon="0.83252">
        <ele>345.3</ele>
        <time>2019-01-31T13:59:43Z</time>
      </trkpt>
      <trkpt lat="41.91192" lon="0.83264">
        <ele>344.7</ele>
        <time>2019-01-31T13:59:48Z</time>
      </trkpt>
      <trkpt lat="41.91194" lon="0.83278">
        <ele>343.9</ele>
        <time>2019-01-31T13:59:54Z</time>
      </trkpt>
      <trkpt lat="41.91197" lon="0.83291">
        <ele>342.9</ele>
        <time>2019-01-31T14:00:00Z</time>
      </trkpt>
      <trkpt lat="41.912" lon="0.83304">
        <ele>342.4</ele>
        <time>2019-01-31T14:00:06Z</time>
      </trkpt>
      <trkpt lat="41.91204" lon="0.83317">
        <ele>341.8</ele>
        <time>2019-01-31T14:00:12Z</time>
      </trkpt>
      <trkpt lat="41.91207" lon="0.83333">
        <ele>341.4</ele>
        <time>2019-01-31T14:00:19Z</time>
      </trkpt>
      <trkpt lat="41.9121" lon="0.83347">
        <ele>340</ele>
        <time>2019-01-31T14:00:25Z</time>
      </trkpt>
      <trkpt lat="41.91213" lon="0.8336">
        <ele>339.4</ele>
        <time>2019-01-31T14:00:31Z</time>
      </trkpt>
      <trkpt lat="41.91217" lon="0.83373">
        <ele>339.5</ele>
        <time>2019-01-31T14:00:37Z</time>
      </trkpt>
      <trkpt lat="41.91222" lon="0.83386">
        <ele>340</ele>
        <time>2019-01-31T14:00:43Z</time>
      </trkpt>
      <trkpt lat="41.91225" lon="0.83401">
        <ele>340</ele>
        <time>2019-01-31T14:00:50Z</time>
      </trkpt>
      <trkpt lat="41.91228" lon="0.83416">
        <ele>340.5</ele>
        <time>2019-01-31T14:00:56Z</time>
      </trkpt>
      <trkpt lat="41.91231" lon="0.83429">
        <ele>341.8</ele>
        <time>2019-01-31T14:01:02Z</time>
      </trkpt>
      <trkpt lat="41.91234" lon="0.8344">
        <ele>341.8</ele>
        <time>2019-01-31T14:01:07Z</time>
      </trkpt>
      <trkpt lat="41.91237" lon="0.83453">
        <ele>341.9</ele>
        <time>2019-01-31T14:01:13Z</time>
      </trkpt>
      <trkpt lat="41.91241" lon="0.83463">
        <ele>341.9</ele>
        <time>2019-01-31T14:01:18Z</time>
      </trkpt>
      <trkpt lat="41.91245" lon="0.83474">
        <ele>341.8</ele>
        <time>2019-01-31T14:01:23Z</time>
      </trkpt>
      <trkpt lat="41.91246" lon="0.83487">
        <ele>340.9</ele>
        <time>2019-01-31T14:01:28Z</time>
      </trkpt>
      <trkpt lat="41.91244" lon="0.83499">
        <ele>340.4</ele>
        <time>2019-01-31T14:01:34Z</time>
      </trkpt>
      <trkpt lat="41.91244" lon="0.83513">
        <ele>339.5</ele>
        <time>2019-01-31T14:01:40Z</time>
      </trkpt>
      <trkpt lat="41.91249" lon="0.83526">
        <ele>339.5</ele>
        <time>2019-01-31T14:01:46Z</time>
      </trkpt>
      <trkpt lat="41.91254" lon="0.83538">
        <ele>339.5</ele>
        <time>2019-01-31T14:01:52Z</time>
      </trkpt>
      <trkpt lat="41.91257" lon="0.83551">
        <ele>339.9</ele>
        <time>2019-01-31T14:01:57Z</time>
      </trkpt>
      <trkpt lat="41.91261" lon="0.83563">
        <ele>340</ele>
        <time>2019-01-31T14:02:03Z</time>
      </trkpt>
      <trkpt lat="41.91261" lon="0.83577">
        <ele>339.1</ele>
        <time>2019-01-31T14:02:09Z</time>
      </trkpt>
      <trkpt lat="41.91259" lon="0.8359">
        <ele>337</ele>
        <time>2019-01-31T14:02:15Z</time>
      </trkpt>
      <trkpt lat="41.91256" lon="0.83604">
        <ele>337.1</ele>
        <time>2019-01-31T14:02:21Z</time>
      </trkpt>
      <trkpt lat="41.91254" lon="0.83619">
        <ele>337.1</ele>
        <time>2019-01-31T14:02:27Z</time>
      </trkpt>
      <trkpt lat="41.91258" lon="0.83632">
        <ele>337.5</ele>
        <time>2019-01-31T14:02:33Z</time>
      </trkpt>
      <trkpt lat="41.91271" lon="0.83636">
        <ele>338.5</ele>
        <time>2019-01-31T14:02:40Z</time>
      </trkpt>
      <trkpt lat="41.91281" lon="0.83637">
        <ele>338.1</ele>
        <time>2019-01-31T14:02:47Z</time>
      </trkpt>
      <trkpt lat="41.91293" lon="0.83637">
        <ele>337</ele>
        <time>2019-01-31T14:02:53Z</time>
      </trkpt>
      <trkpt lat="41.91303" lon="0.83638">
        <ele>337.1</ele>
        <time>2019-01-31T14:02:59Z</time>
      </trkpt>
      <trkpt lat="41.91311" lon="0.83638">
        <ele>337</ele>
        <time>2019-01-31T14:03:04Z</time>
      </trkpt>
      <trkpt lat="41.91319" lon="0.8364">
        <ele>337</ele>
        <time>2019-01-31T14:03:08Z</time>
      </trkpt>
      <trkpt lat="41.91326" lon="0.83644">
        <ele>337</ele>
        <time>2019-01-31T14:03:13Z</time>
      </trkpt>
      <trkpt lat="41.91331" lon="0.83656">
        <ele>337</ele>
        <time>2019-01-31T14:03:19Z</time>
      </trkpt>
      <trkpt lat="41.91334" lon="0.83669">
        <ele>337.6</ele>
        <time>2019-01-31T14:03:24Z</time>
      </trkpt>
      <trkpt lat="41.91334" lon="0.83682">
        <ele>337.5</ele>
        <time>2019-01-31T14:03:30Z</time>
      </trkpt>
      <trkpt lat="41.91334" lon="0.83699">
        <ele>338</ele>
        <time>2019-01-31T14:03:37Z</time>
      </trkpt>
      <trkpt lat="41.91333" lon="0.83718">
        <ele>338.5</ele>
        <time>2019-01-31T14:03:45Z</time>
      </trkpt>
      <trkpt lat="41.91333" lon="0.83732">
        <ele>339</ele>
        <time>2019-01-31T14:03:51Z</time>
      </trkpt>
      <trkpt lat="41.91334" lon="0.83746">
        <ele>339</ele>
        <time>2019-01-31T14:03:57Z</time>
      </trkpt>
      <trkpt lat="41.91336" lon="0.83758">
        <ele>339.5</ele>
        <time>2019-01-31T14:04:02Z</time>
      </trkpt>
      <trkpt lat="41.91337" lon="0.8377">
        <ele>339.4</ele>
        <time>2019-01-31T14:04:08Z</time>
      </trkpt>
      <trkpt lat="41.91337" lon="0.83784">
        <ele>339.4</ele>
        <time>2019-01-31T14:04:13Z</time>
      </trkpt>
      <trkpt lat="41.91339" lon="0.83798">
        <ele>339.4</ele>
        <time>2019-01-31T14:04:20Z</time>
      </trkpt>
      <trkpt lat="41.91338" lon="0.83813">
        <ele>340.5</ele>
        <time>2019-01-31T14:04:26Z</time>
      </trkpt>
      <trkpt lat="41.91333" lon="0.83826">
        <ele>341</ele>
        <time>2019-01-31T14:04:32Z</time>
      </trkpt>
      <trkpt lat="41.91327" lon="0.83837">
        <ele>340.4</ele>
        <time>2019-01-31T14:04:38Z</time>
      </trkpt>
      <trkpt lat="41.9132" lon="0.8385">
        <ele>339.4</ele>
        <time>2019-01-31T14:04:45Z</time>
      </trkpt>
      <trkpt lat="41.91321" lon="0.83862">
        <ele>338.6</ele>
        <time>2019-01-31T14:04:50Z</time>
      </trkpt>
      <trkpt lat="41.91329" lon="0.8387">
        <ele>339</ele>
        <time>2019-01-31T14:04:56Z</time>
      </trkpt>
      <trkpt lat="41.91335" lon="0.83878">
        <ele>339</ele>
        <time>2019-01-31T14:05:01Z</time>
      </trkpt>
      <trkpt lat="41.91338" lon="0.83889">
        <ele>339</ele>
        <time>2019-01-31T14:05:06Z</time>
      </trkpt>
      <trkpt lat="41.91342" lon="0.83902">
        <ele>340.5</ele>
        <time>2019-01-31T14:05:12Z</time>
      </trkpt>
      <trkpt lat="41.91344" lon="0.83914">
        <ele>340.4</ele>
        <time>2019-01-31T14:05:17Z</time>
      </trkpt>
      <trkpt lat="41.91347" lon="0.83927">
        <ele>340.4</ele>
        <time>2019-01-31T14:05:22Z</time>
      </trkpt>
      <trkpt lat="41.91348" lon="0.83942">
        <ele>340.5</ele>
        <time>2019-01-31T14:05:29Z</time>
      </trkpt>
      <trkpt lat="41.91349" lon="0.83955">
        <ele>340.5</ele>
        <time>2019-01-31T14:05:34Z</time>
      </trkpt>
      <trkpt lat="41.91349" lon="0.83967">
        <ele>340.4</ele>
        <time>2019-01-31T14:05:40Z</time>
      </trkpt>
      <trkpt lat="41.91348" lon="0.8398">
        <ele>340.4</ele>
        <time>2019-01-31T14:05:45Z</time>
      </trkpt>
      <trkpt lat="41.91345" lon="0.83994">
        <ele>340.5</ele>
        <time>2019-01-31T14:05:52Z</time>
      </trkpt>
      <trkpt lat="41.91338" lon="0.84007">
        <ele>340.5</ele>
        <time>2019-01-31T14:05:58Z</time>
      </trkpt>
      <trkpt lat="41.91333" lon="0.84018">
        <ele>340.4</ele>
        <time>2019-01-31T14:06:04Z</time>
      </trkpt>
      <trkpt lat="41.91327" lon="0.8403">
        <ele>340.4</ele>
        <time>2019-01-31T14:06:10Z</time>
      </trkpt>
      <trkpt lat="41.91322" lon="0.84043">
        <ele>340</ele>
        <time>2019-01-31T14:06:16Z</time>
      </trkpt>
      <trkpt lat="41.91317" lon="0.84055">
        <ele>340</ele>
        <time>2019-01-31T14:06:22Z</time>
      </trkpt>
      <trkpt lat="41.91312" lon="0.84067">
        <ele>340</ele>
        <time>2019-01-31T14:06:28Z</time>
      </trkpt>
      <trkpt lat="41.91306" lon="0.84083">
        <ele>339</ele>
        <time>2019-01-31T14:06:36Z</time>
      </trkpt>
      <trkpt lat="41.91306" lon="0.84098">
        <ele>338.1</ele>
        <time>2019-01-31T14:06:42Z</time>
      </trkpt>
      <trkpt lat="41.91307" lon="0.84111">
        <ele>338.1</ele>
        <time>2019-01-31T14:06:47Z</time>
      </trkpt>
      <trkpt lat="41.91307" lon="0.84125">
        <ele>338.1</ele>
        <time>2019-01-31T14:06:53Z</time>
      </trkpt>
      <trkpt lat="41.91304" lon="0.84137">
        <ele>338.1</ele>
        <time>2019-01-31T14:06:59Z</time>
      </trkpt>
      <trkpt lat="41.91299" lon="0.84151">
        <ele>338.1</ele>
        <time>2019-01-31T14:07:05Z</time>
      </trkpt>
      <trkpt lat="41.91293" lon="0.84164">
        <ele>338.1</ele>
        <time>2019-01-31T14:07:12Z</time>
      </trkpt>
      <trkpt lat="41.91288" lon="0.84178">
        <ele>338</ele>
        <time>2019-01-31T14:07:18Z</time>
      </trkpt>
      <trkpt lat="41.91284" lon="0.84191">
        <ele>338.5</ele>
        <time>2019-01-31T14:07:25Z</time>
      </trkpt>
      <trkpt lat="41.91281" lon="0.84203">
        <ele>338.6</ele>
        <time>2019-01-31T14:07:30Z</time>
      </trkpt>
      <trkpt lat="41.91277" lon="0.84215">
        <ele>338.6</ele>
        <time>2019-01-31T14:07:35Z</time>
      </trkpt>
      <trkpt lat="41.91271" lon="0.84228">
        <ele>338.5</ele>
        <time>2019-01-31T14:07:42Z</time>
      </trkpt>
      <trkpt lat="41.91266" lon="0.8424">
        <ele>338.5</ele>
        <time>2019-01-31T14:07:48Z</time>
      </trkpt>
      <trkpt lat="41.9126" lon="0.84252">
        <ele>338.6</ele>
        <time>2019-01-31T14:07:54Z</time>
      </trkpt>
      <trkpt lat="41.91255" lon="0.84264">
        <ele>338.5</ele>
        <time>2019-01-31T14:08:00Z</time>
      </trkpt>
      <trkpt lat="41.9125" lon="0.84279">
        <ele>338.6</ele>
        <time>2019-01-31T14:08:06Z</time>
      </trkpt>
      <trkpt lat="41.91245" lon="0.84292">
        <ele>338.6</ele>
        <time>2019-01-31T14:08:13Z</time>
      </trkpt>
      <trkpt lat="41.91238" lon="0.84305">
        <ele>338.1</ele>
        <time>2019-01-31T14:08:20Z</time>
      </trkpt>
      <trkpt lat="41.91233" lon="0.84316">
        <ele>338.1</ele>
        <time>2019-01-31T14:08:25Z</time>
      </trkpt>
      <trkpt lat="41.91228" lon="0.8433">
        <ele>339</ele>
        <time>2019-01-31T14:08:32Z</time>
      </trkpt>
      <trkpt lat="41.91221" lon="0.84343">
        <ele>339.9</ele>
        <time>2019-01-31T14:08:38Z</time>
      </trkpt>
      <trkpt lat="41.91215" lon="0.84356">
        <ele>339.9</ele>
        <time>2019-01-31T14:08:45Z</time>
      </trkpt>
      <trkpt lat="41.91209" lon="0.84369">
        <ele>340.4</ele>
        <time>2019-01-31T14:08:52Z</time>
      </trkpt>
      <trkpt lat="41.91202" lon="0.8438">
        <ele>341.4</ele>
        <time>2019-01-31T14:08:58Z</time>
      </trkpt>
      <trkpt lat="41.91194" lon="0.84389">
        <ele>343.9</ele>
        <time>2019-01-31T14:09:04Z</time>
      </trkpt>
      <trkpt lat="41.91187" lon="0.84399">
        <ele>344.8</ele>
        <time>2019-01-31T14:09:10Z</time>
      </trkpt>
      <trkpt lat="41.91178" lon="0.84412">
        <ele>345.8</ele>
        <time>2019-01-31T14:09:17Z</time>
      </trkpt>
      <trkpt lat="41.91167" lon="0.84425">
        <ele>346.7</ele>
        <time>2019-01-31T14:09:26Z</time>
      </trkpt>
      <trkpt lat="41.91158" lon="0.84434">
        <ele>349.2</ele>
        <time>2019-01-31T14:09:32Z</time>
      </trkpt>
      <trkpt lat="41.91152" lon="0.84446">
        <ele>351</ele>
        <time>2019-01-31T14:09:38Z</time>
      </trkpt>
      <trkpt lat="41.91146" lon="0.84458">
        <ele>353</ele>
        <time>2019-01-31T14:09:44Z</time>
      </trkpt>
      <trkpt lat="41.9114" lon="0.84469">
        <ele>355.3</ele>
        <time>2019-01-31T14:09:50Z</time>
      </trkpt>
      <trkpt lat="41.91134" lon="0.84481">
        <ele>358.7</ele>
        <time>2019-01-31T14:09:56Z</time>
      </trkpt>
      <trkpt lat="41.91127" lon="0.8449">
        <ele>361.2</ele>
        <time>2019-01-31T14:10:02Z</time>
      </trkpt>
      <trkpt lat="41.91118" lon="0.84496">
        <ele>363</ele>
        <time>2019-01-31T14:10:08Z</time>
      </trkpt>
      <trkpt lat="41.91107" lon="0.84508">
        <ele>364.5</ele>
        <time>2019-01-31T14:10:15Z</time>
      </trkpt>
      <trkpt lat="41.911" lon="0.84518">
        <ele>362.5</ele>
        <time>2019-01-31T14:10:22Z</time>
      </trkpt>
      <trkpt lat="41.91096" lon="0.84548">
        <ele>356.7</ele>
        <time>2019-01-31T14:10:34Z</time>
      </trkpt>
      <trkpt lat="41.91099" lon="0.8456">
        <ele>352.5</ele>
        <time>2019-01-31T14:10:40Z</time>
      </trkpt>
      <trkpt lat="41.91098" lon="0.84574">
        <ele>350.1</ele>
        <time>2019-01-31T14:10:46Z</time>
      </trkpt>
      <trkpt lat="41.91093" lon="0.84587">
        <ele>349.1</ele>
        <time>2019-01-31T14:10:52Z</time>
      </trkpt>
      <trkpt lat="41.91088" lon="0.84601">
        <ele>346.7</ele>
        <time>2019-01-31T14:10:58Z</time>
      </trkpt>
      <trkpt lat="41.91081" lon="0.84617">
        <ele>343.3</ele>
        <time>2019-01-31T14:11:06Z</time>
      </trkpt>
      <trkpt lat="41.91075" lon="0.8463">
        <ele>341.8</ele>
        <time>2019-01-31T14:11:13Z</time>
      </trkpt>
      <trkpt lat="41.91073" lon="0.84645">
        <ele>339.4</ele>
        <time>2019-01-31T14:11:20Z</time>
      </trkpt>
      <trkpt lat="41.91071" lon="0.84663">
        <ele>338.5</ele>
        <time>2019-01-31T14:11:27Z</time>
      </trkpt>
      <trkpt lat="41.91067" lon="0.84677">
        <ele>336.6</ele>
        <time>2019-01-31T14:11:34Z</time>
      </trkpt>
      <trkpt lat="41.91064" lon="0.8469">
        <ele>337.1</ele>
        <time>2019-01-31T14:11:39Z</time>
      </trkpt>
      <trkpt lat="41.91062" lon="0.84704">
        <ele>338.6</ele>
        <time>2019-01-31T14:11:45Z</time>
      </trkpt>
      <trkpt lat="41.91057" lon="0.84718">
        <ele>337</ele>
        <time>2019-01-31T14:11:52Z</time>
      </trkpt>
      <trkpt lat="41.91052" lon="0.8473">
        <ele>337</ele>
        <time>2019-01-31T14:11:58Z</time>
      </trkpt>
      <trkpt lat="41.91047" lon="0.84744">
        <ele>339.5</ele>
        <time>2019-01-31T14:12:04Z</time>
      </trkpt>
      <trkpt lat="41.91041" lon="0.84755">
        <ele>341.5</ele>
        <time>2019-01-31T14:12:10Z</time>
      </trkpt>
      <trkpt lat="41.91029" lon="0.84766">
        <ele>344.2</ele>
        <time>2019-01-31T14:12:18Z</time>
      </trkpt>
      <trkpt lat="41.91018" lon="0.84768">
        <ele>347.7</ele>
        <time>2019-01-31T14:12:25Z</time>
      </trkpt>
      <trkpt lat="41.91008" lon="0.84778">
        <ele>350.5</ele>
        <time>2019-01-31T14:12:32Z</time>
      </trkpt>
      <trkpt lat="41.90991" lon="0.84781">
        <ele>350</ele>
        <time>2019-01-31T14:12:42Z</time>
      </trkpt>
      <trkpt lat="41.90983" lon="0.84785">
        <ele>349.2</ele>
        <time>2019-01-31T14:12:47Z</time>
      </trkpt>
      <trkpt lat="41.90974" lon="0.84796">
        <ele>347.1</ele>
        <time>2019-01-31T14:12:54Z</time>
      </trkpt>
      <trkpt lat="41.90964" lon="0.84806">
        <ele>347.6</ele>
        <time>2019-01-31T14:13:01Z</time>
      </trkpt>
      <trkpt lat="41.90969" lon="0.8482">
        <ele>347.6</ele>
        <time>2019-01-31T14:13:07Z</time>
      </trkpt>
      <trkpt lat="41.90976" lon="0.84831">
        <ele>347.6</ele>
        <time>2019-01-31T14:13:13Z</time>
      </trkpt>
      <trkpt lat="41.90985" lon="0.84837">
        <ele>347.7</ele>
        <time>2019-01-31T14:13:19Z</time>
      </trkpt>
      <trkpt lat="41.90995" lon="0.84842">
        <ele>347.7</ele>
        <time>2019-01-31T14:13:25Z</time>
      </trkpt>
      <trkpt lat="41.91004" lon="0.84848">
        <ele>350</ele>
        <time>2019-01-31T14:13:31Z</time>
      </trkpt>
      <trkpt lat="41.91013" lon="0.84857">
        <ele>351.1</ele>
        <time>2019-01-31T14:13:37Z</time>
      </trkpt>
      <trkpt lat="41.9102" lon="0.84866">
        <ele>351.6</ele>
        <time>2019-01-31T14:13:43Z</time>
      </trkpt>
      <trkpt lat="41.91025" lon="0.84876">
        <ele>352.9</ele>
        <time>2019-01-31T14:13:48Z</time>
      </trkpt>
      <trkpt lat="41.9103" lon="0.84891">
        <ele>352.9</ele>
        <time>2019-01-31T14:13:55Z</time>
      </trkpt>
      <trkpt lat="41.91035" lon="0.84906">
        <ele>353</ele>
        <time>2019-01-31T14:14:02Z</time>
      </trkpt>
      <trkpt lat="41.91041" lon="0.84919">
        <ele>354.4</ele>
        <time>2019-01-31T14:14:09Z</time>
      </trkpt>
      <trkpt lat="41.91043" lon="0.84933">
        <ele>355.3</ele>
        <time>2019-01-31T14:14:15Z</time>
      </trkpt>
      <trkpt lat="41.91047" lon="0.84946">
        <ele>355.4</ele>
        <time>2019-01-31T14:14:21Z</time>
      </trkpt>
      <trkpt lat="41.91053" lon="0.84959">
        <ele>353.9</ele>
        <time>2019-01-31T14:14:27Z</time>
      </trkpt>
      <trkpt lat="41.91055" lon="0.84975">
        <ele>353.5</ele>
        <time>2019-01-31T14:14:34Z</time>
      </trkpt>
      <trkpt lat="41.91055" lon="0.84992">
        <ele>352.4</ele>
        <time>2019-01-31T14:14:42Z</time>
      </trkpt>
      <trkpt lat="41.9106" lon="0.85005">
        <ele>351.5</ele>
        <time>2019-01-31T14:14:48Z</time>
      </trkpt>
      <trkpt lat="41.91063" lon="0.85019">
        <ele>350</ele>
        <time>2019-01-31T14:14:54Z</time>
      </trkpt>
      <trkpt lat="41.91068" lon="0.85032">
        <ele>348.1</ele>
        <time>2019-01-31T14:15:00Z</time>
      </trkpt>
      <trkpt lat="41.91074" lon="0.85046">
        <ele>345.2</ele>
        <time>2019-01-31T14:15:07Z</time>
      </trkpt>
      <trkpt lat="41.91076" lon="0.85061">
        <ele>343.3</ele>
        <time>2019-01-31T14:15:14Z</time>
      </trkpt>
      <trkpt lat="41.91079" lon="0.85075">
        <ele>341.9</ele>
        <time>2019-01-31T14:15:20Z</time>
      </trkpt>
      <trkpt lat="41.9108" lon="0.85089">
        <ele>341.8</ele>
        <time>2019-01-31T14:15:26Z</time>
      </trkpt>
      <trkpt lat="41.91076" lon="0.85104">
        <ele>342.3</ele>
        <time>2019-01-31T14:15:32Z</time>
      </trkpt>
      <trkpt lat="41.9107" lon="0.85115">
        <ele>343.8</ele>
        <time>2019-01-31T14:15:38Z</time>
      </trkpt>
      <trkpt lat="41.91061" lon="0.85122">
        <ele>344.2</ele>
        <time>2019-01-31T14:15:44Z</time>
      </trkpt>
      <trkpt lat="41.9105" lon="0.85128">
        <ele>347.2</ele>
        <time>2019-01-31T14:15:51Z</time>
      </trkpt>
      <trkpt lat="41.9104" lon="0.85136">
        <ele>346.3</ele>
        <time>2019-01-31T14:15:58Z</time>
      </trkpt>
      <trkpt lat="41.91028" lon="0.85155">
        <ele>341</ele>
        <time>2019-01-31T14:16:08Z</time>
      </trkpt>
      <trkpt lat="41.91018" lon="0.85161">
        <ele>339.1</ele>
        <time>2019-01-31T14:16:15Z</time>
      </trkpt>
      <trkpt lat="41.91008" lon="0.85162">
        <ele>340.4</ele>
        <time>2019-01-31T14:16:20Z</time>
      </trkpt>
      <trkpt lat="41.91" lon="0.85168">
        <ele>339.9</ele>
        <time>2019-01-31T14:16:26Z</time>
      </trkpt>
      <trkpt lat="41.90989" lon="0.85177">
        <ele>337</ele>
        <time>2019-01-31T14:16:33Z</time>
      </trkpt>
      <trkpt lat="41.90972" lon="0.85185">
        <ele>337</ele>
        <time>2019-01-31T14:16:43Z</time>
      </trkpt>
      <trkpt lat="41.90948" lon="0.85179">
        <ele>337.6</ele>
        <time>2019-01-31T14:16:57Z</time>
      </trkpt>
      <trkpt lat="41.90939" lon="0.85187">
        <ele>338</ele>
        <time>2019-01-31T14:17:03Z</time>
      </trkpt>
      <trkpt lat="41.90928" lon="0.8519">
        <ele>338.5</ele>
        <time>2019-01-31T14:17:09Z</time>
      </trkpt>
      <trkpt lat="41.90918" lon="0.85194">
        <ele>338.5</ele>
        <time>2019-01-31T14:17:16Z</time>
      </trkpt>
      <trkpt lat="41.90905" lon="0.85197">
        <ele>339.4</ele>
        <time>2019-01-31T14:17:23Z</time>
      </trkpt>
      <trkpt lat="41.90896" lon="0.85198">
        <ele>342.8</ele>
        <time>2019-01-31T14:17:28Z</time>
      </trkpt>
      <trkpt lat="41.90884" lon="0.85196">
        <ele>345.3</ele>
        <time>2019-01-31T14:17:35Z</time>
      </trkpt>
      <trkpt lat="41.90875" lon="0.85203">
        <ele>348.1</ele>
        <time>2019-01-31T14:17:41Z</time>
      </trkpt>
      <trkpt lat="41.90867" lon="0.85211">
        <ele>349.6</ele>
        <time>2019-01-31T14:17:47Z</time>
      </trkpt>
      <trkpt lat="41.90858" lon="0.85217">
        <ele>351</ele>
        <time>2019-01-31T14:17:53Z</time>
      </trkpt>
      <trkpt lat="41.90846" lon="0.85218">
        <ele>351.5</ele>
        <time>2019-01-31T14:18:00Z</time>
      </trkpt>
      <trkpt lat="41.90835" lon="0.85225">
        <ele>353</ele>
        <time>2019-01-31T14:18:06Z</time>
      </trkpt>
      <trkpt lat="41.90831" lon="0.8522">
        <ele>352.9</ele>
        <time>2019-01-31T14:18:09Z</time>
      </trkpt>
      <trkpt lat="41.90821" lon="0.85227">
        <ele>354.8</ele>
        <time>2019-01-31T14:18:16Z</time>
      </trkpt>
      <trkpt lat="41.9082" lon="0.8524">
        <ele>353.9</ele>
        <time>2019-01-31T14:18:22Z</time>
      </trkpt>
      <trkpt lat="41.90815" lon="0.8525">
        <ele>354</ele>
        <time>2019-01-31T14:18:27Z</time>
      </trkpt>
      <trkpt lat="41.90806" lon="0.85256">
        <ele>354.9</ele>
        <time>2019-01-31T14:18:33Z</time>
      </trkpt>
      <trkpt lat="41.90797" lon="0.85262">
        <ele>355.9</ele>
        <time>2019-01-31T14:18:38Z</time>
      </trkpt>
      <trkpt lat="41.90786" lon="0.85265">
        <ele>355.8</ele>
        <time>2019-01-31T14:18:45Z</time>
      </trkpt>
      <trkpt lat="41.90774" lon="0.85268">
        <ele>355.4</ele>
        <time>2019-01-31T14:18:52Z</time>
      </trkpt>
      <trkpt lat="41.90765" lon="0.85275">
        <ele>355.4</ele>
        <time>2019-01-31T14:18:58Z</time>
      </trkpt>
      <trkpt lat="41.90757" lon="0.85285">
        <ele>355.3</ele>
        <time>2019-01-31T14:19:04Z</time>
      </trkpt>
      <trkpt lat="41.9075" lon="0.85297">
        <ele>355.8</ele>
        <time>2019-01-31T14:19:10Z</time>
      </trkpt>
      <trkpt lat="41.90745" lon="0.85313">
        <ele>356.8</ele>
        <time>2019-01-31T14:19:18Z</time>
      </trkpt>
      <trkpt lat="41.90751" lon="0.85324">
        <ele>357.2</ele>
        <time>2019-01-31T14:19:23Z</time>
      </trkpt>
      <trkpt lat="41.90749" lon="0.85334">
        <ele>358.3</ele>
        <time>2019-01-31T14:19:28Z</time>
      </trkpt>
      <trkpt lat="41.90741" lon="0.85344">
        <ele>357.8</ele>
        <time>2019-01-31T14:19:34Z</time>
      </trkpt>
      <trkpt lat="41.90728" lon="0.85348">
        <ele>356.7</ele>
        <time>2019-01-31T14:19:42Z</time>
      </trkpt>
      <trkpt lat="41.90718" lon="0.85357">
        <ele>356.3</ele>
        <time>2019-01-31T14:19:49Z</time>
      </trkpt>
      <trkpt lat="41.90709" lon="0.85366">
        <ele>356.3</ele>
        <time>2019-01-31T14:19:55Z</time>
      </trkpt>
      <trkpt lat="41.90701" lon="0.85376">
        <ele>356.4</ele>
        <time>2019-01-31T14:20:01Z</time>
      </trkpt>
      <trkpt lat="41.90693" lon="0.85389">
        <ele>356.4</ele>
        <time>2019-01-31T14:20:09Z</time>
      </trkpt>
      <trkpt lat="41.90685" lon="0.854">
        <ele>354.4</ele>
        <time>2019-01-31T14:20:15Z</time>
      </trkpt>
      <trkpt lat="41.90679" lon="0.85416">
        <ele>353.9</ele>
        <time>2019-01-31T14:20:23Z</time>
      </trkpt>
      <trkpt lat="41.90671" lon="0.85429">
        <ele>352.4</ele>
        <time>2019-01-31T14:20:30Z</time>
      </trkpt>
      <trkpt lat="41.90665" lon="0.85443">
        <ele>351.6</ele>
        <time>2019-01-31T14:20:37Z</time>
      </trkpt>
      <trkpt lat="41.90657" lon="0.85455">
        <ele>350.5</ele>
        <time>2019-01-31T14:20:44Z</time>
      </trkpt>
      <trkpt lat="41.90652" lon="0.85468">
        <ele>348.1</ele>
        <time>2019-01-31T14:20:50Z</time>
      </trkpt>
      <trkpt lat="41.90646" lon="0.8548">
        <ele>346.3</ele>
        <time>2019-01-31T14:20:56Z</time>
      </trkpt>
      <trkpt lat="41.90641" lon="0.85495">
        <ele>343.8</ele>
        <time>2019-01-31T14:21:03Z</time>
      </trkpt>
      <trkpt lat="41.90632" lon="0.8551">
        <ele>343.9</ele>
        <time>2019-01-31T14:21:11Z</time>
      </trkpt>
      <trkpt lat="41.90625" lon="0.85527">
        <ele>344.3</ele>
        <time>2019-01-31T14:21:20Z</time>
      </trkpt>
      <trkpt lat="41.90625" lon="0.85544">
        <ele>345.8</ele>
        <time>2019-01-31T14:21:27Z</time>
      </trkpt>
      <trkpt lat="41.90626" lon="0.85558">
        <ele>346.6</ele>
        <time>2019-01-31T14:21:33Z</time>
      </trkpt>
      <trkpt lat="41.9063" lon="0.85572">
        <ele>349.1</ele>
        <time>2019-01-31T14:21:39Z</time>
      </trkpt>
      <trkpt lat="41.90631" lon="0.85586">
        <ele>349.1</ele>
        <time>2019-01-31T14:21:45Z</time>
      </trkpt>
      <trkpt lat="41.90624" lon="0.85599">
        <ele>349.1</ele>
        <time>2019-01-31T14:21:52Z</time>
      </trkpt>
      <trkpt lat="41.90616" lon="0.85609">
        <ele>348.6</ele>
        <time>2019-01-31T14:21:58Z</time>
      </trkpt>
      <trkpt lat="41.90609" lon="0.85623">
        <ele>347.6</ele>
        <time>2019-01-31T14:22:05Z</time>
      </trkpt>
      <trkpt lat="41.90602" lon="0.85636">
        <ele>346.7</ele>
        <time>2019-01-31T14:22:12Z</time>
      </trkpt>
      <trkpt lat="41.90596" lon="0.85652">
        <ele>344.7</ele>
        <time>2019-01-31T14:22:20Z</time>
      </trkpt>
      <trkpt lat="41.90589" lon="0.85667">
        <ele>344.8</ele>
        <time>2019-01-31T14:22:27Z</time>
      </trkpt>
      <trkpt lat="41.90583" lon="0.85677">
        <ele>346.3</ele>
        <time>2019-01-31T14:22:33Z</time>
      </trkpt>
      <trkpt lat="41.90577" lon="0.85687">
        <ele>347.7</ele>
        <time>2019-01-31T14:22:38Z</time>
      </trkpt>
      <trkpt lat="41.90566" lon="0.85699">
        <ele>348.6</ele>
        <time>2019-01-31T14:22:46Z</time>
      </trkpt>
      <trkpt lat="41.90562" lon="0.85722">
        <ele>349.5</ele>
        <time>2019-01-31T14:22:56Z</time>
      </trkpt>
      <trkpt lat="41.90569" lon="0.85739">
        <ele>350.6</ele>
        <time>2019-01-31T14:23:05Z</time>
      </trkpt>
      <trkpt lat="41.90578" lon="0.85751">
        <ele>351.9</ele>
        <time>2019-01-31T14:23:12Z</time>
      </trkpt>
      <trkpt lat="41.90586" lon="0.85766">
        <ele>352.9</ele>
        <time>2019-01-31T14:23:20Z</time>
      </trkpt>
      <trkpt lat="41.90593" lon="0.85779">
        <ele>353.5</ele>
        <time>2019-01-31T14:23:27Z</time>
      </trkpt>
      <trkpt lat="41.90601" lon="0.85791">
        <ele>353.9</ele>
        <time>2019-01-31T14:23:33Z</time>
      </trkpt>
      <trkpt lat="41.90608" lon="0.85804">
        <ele>354.3</ele>
        <time>2019-01-31T14:23:40Z</time>
      </trkpt>
      <trkpt lat="41.90608" lon="0.85822">
        <ele>354.3</ele>
        <time>2019-01-31T14:23:48Z</time>
      </trkpt>
      <trkpt lat="41.90606" lon="0.85843">
        <ele>354.8</ele>
        <time>2019-01-31T14:23:57Z</time>
      </trkpt>
      <trkpt lat="41.90607" lon="0.85863">
        <ele>355.9</ele>
        <time>2019-01-31T14:24:06Z</time>
      </trkpt>
      <trkpt lat="41.90614" lon="0.85874">
        <ele>356.3</ele>
        <time>2019-01-31T14:24:12Z</time>
      </trkpt>
      <trkpt lat="41.90614" lon="0.85895">
        <ele>358.2</ele>
        <time>2019-01-31T14:24:20Z</time>
      </trkpt>
      <trkpt lat="41.90609" lon="0.85911">
        <ele>359.6</ele>
        <time>2019-01-31T14:24:28Z</time>
      </trkpt>
      <trkpt lat="41.90603" lon="0.85929">
        <ele>362.1</ele>
        <time>2019-01-31T14:24:36Z</time>
      </trkpt>
      <trkpt lat="41.90598" lon="0.85945">
        <ele>363.5</ele>
        <time>2019-01-31T14:24:44Z</time>
      </trkpt>
      <trkpt lat="41.90595" lon="0.85962">
        <ele>367.3</ele>
        <time>2019-01-31T14:24:51Z</time>
      </trkpt>
      <trkpt lat="41.90591" lon="0.8598">
        <ele>370.8</ele>
        <time>2019-01-31T14:24:59Z</time>
      </trkpt>
      <trkpt lat="41.90585" lon="0.85995">
        <ele>373.7</ele>
        <time>2019-01-31T14:25:06Z</time>
      </trkpt>
      <trkpt lat="41.90583" lon="0.86013">
        <ele>377.4</ele>
        <time>2019-01-31T14:25:14Z</time>
      </trkpt>
      <trkpt lat="41.9058" lon="0.86029">
        <ele>380.4</ele>
        <time>2019-01-31T14:25:21Z</time>
      </trkpt>
      <trkpt lat="41.90576" lon="0.86046">
        <ele>380.4</ele>
        <time>2019-01-31T14:25:28Z</time>
      </trkpt>
      <trkpt lat="41.90574" lon="0.86065">
        <ele>378.9</ele>
        <time>2019-01-31T14:25:37Z</time>
      </trkpt>
      <trkpt lat="41.90572" lon="0.86082">
        <ele>379.3</ele>
        <time>2019-01-31T14:25:44Z</time>
      </trkpt>
      <trkpt lat="41.90575" lon="0.86099">
        <ele>381.4</ele>
        <time>2019-01-31T14:25:51Z</time>
      </trkpt>
      <trkpt lat="41.90578" lon="0.86114">
        <ele>384.2</ele>
        <time>2019-01-31T14:25:58Z</time>
      </trkpt>
      <trkpt lat="41.90583" lon="0.86126">
        <ele>386.2</ele>
        <time>2019-01-31T14:26:04Z</time>
      </trkpt>
      <trkpt lat="41.90588" lon="0.86138">
        <ele>387</ele>
        <time>2019-01-31T14:26:10Z</time>
      </trkpt>
      <trkpt lat="41.90592" lon="0.86153">
        <ele>388</ele>
        <time>2019-01-31T14:26:16Z</time>
      </trkpt>
      <trkpt lat="41.90592" lon="0.8617">
        <ele>389.5</ele>
        <time>2019-01-31T14:26:23Z</time>
      </trkpt>
      <trkpt lat="41.90592" lon="0.86185">
        <ele>392.4</ele>
        <time>2019-01-31T14:26:30Z</time>
      </trkpt>
      <trkpt lat="41.90586" lon="0.86198">
        <ele>392.3</ele>
        <time>2019-01-31T14:26:37Z</time>
      </trkpt>
      <trkpt lat="41.90574" lon="0.86212">
        <ele>391.9</ele>
        <time>2019-01-31T14:26:46Z</time>
      </trkpt>
      <trkpt lat="41.90565" lon="0.8622">
        <ele>389.4</ele>
        <time>2019-01-31T14:26:52Z</time>
      </trkpt>
      <trkpt lat="41.90559" lon="0.8623">
        <ele>388.5</ele>
        <time>2019-01-31T14:26:57Z</time>
      </trkpt>
      <trkpt lat="41.90552" lon="0.86244">
        <ele>388</ele>
        <time>2019-01-31T14:27:04Z</time>
      </trkpt>
      <trkpt lat="41.90551" lon="0.8626">
        <ele>388</ele>
        <time>2019-01-31T14:27:11Z</time>
      </trkpt>
      <trkpt lat="41.90544" lon="0.86274">
        <ele>388.1</ele>
        <time>2019-01-31T14:27:18Z</time>
      </trkpt>
      <trkpt lat="41.90547" lon="0.86292">
        <ele>387.1</ele>
        <time>2019-01-31T14:27:26Z</time>
      </trkpt>
      <trkpt lat="41.90558" lon="0.86298">
        <ele>386.5</ele>
        <time>2019-01-31T14:27:33Z</time>
      </trkpt>
      <trkpt lat="41.90566" lon="0.86303">
        <ele>386.5</ele>
        <time>2019-01-31T14:27:38Z</time>
      </trkpt>
      <trkpt lat="41.90574" lon="0.86311">
        <ele>387.1</ele>
        <time>2019-01-31T14:27:44Z</time>
      </trkpt>
      <trkpt lat="41.9058" lon="0.86322">
        <ele>388</ele>
        <time>2019-01-31T14:27:49Z</time>
      </trkpt>
      <trkpt lat="41.90586" lon="0.86335">
        <ele>388</ele>
        <time>2019-01-31T14:27:56Z</time>
      </trkpt>
      <trkpt lat="41.90595" lon="0.86349">
        <ele>388</ele>
        <time>2019-01-31T14:28:04Z</time>
      </trkpt>
      <trkpt lat="41.90599" lon="0.86368">
        <ele>388</ele>
        <time>2019-01-31T14:28:12Z</time>
      </trkpt>
      <trkpt lat="41.90602" lon="0.86382">
        <ele>388.1</ele>
        <time>2019-01-31T14:28:19Z</time>
      </trkpt>
      <trkpt lat="41.90597" lon="0.86396">
        <ele>388.1</ele>
        <time>2019-01-31T14:28:25Z</time>
      </trkpt>
      <trkpt lat="41.90589" lon="0.8641">
        <ele>388</ele>
        <time>2019-01-31T14:28:32Z</time>
      </trkpt>
      <trkpt lat="41.90581" lon="0.86428">
        <ele>388.5</ele>
        <time>2019-01-31T14:28:41Z</time>
      </trkpt>
      <trkpt lat="41.90583" lon="0.86442">
        <ele>389.9</ele>
        <time>2019-01-31T14:28:48Z</time>
      </trkpt>
      <trkpt lat="41.9059" lon="0.86452">
        <ele>390.9</ele>
        <time>2019-01-31T14:28:54Z</time>
      </trkpt>
      <trkpt lat="41.90599" lon="0.86465">
        <ele>391.8</ele>
        <time>2019-01-31T14:29:01Z</time>
      </trkpt>
      <trkpt lat="41.90604" lon="0.86479">
        <ele>394.2</ele>
        <time>2019-01-31T14:29:08Z</time>
      </trkpt>
      <trkpt lat="41.90606" lon="0.86494">
        <ele>393.8</ele>
        <time>2019-01-31T14:29:14Z</time>
      </trkpt>
      <trkpt lat="41.90606" lon="0.86512">
        <ele>394.7</ele>
        <time>2019-01-31T14:29:22Z</time>
      </trkpt>
      <trkpt lat="41.90605" lon="0.86529">
        <ele>395.7</ele>
        <time>2019-01-31T14:29:29Z</time>
      </trkpt>
      <trkpt lat="41.90599" lon="0.86545">
        <ele>396.3</ele>
        <time>2019-01-31T14:29:37Z</time>
      </trkpt>
      <trkpt lat="41.90603" lon="0.86561">
        <ele>397.2</ele>
        <time>2019-01-31T14:29:44Z</time>
      </trkpt>
      <trkpt lat="41.90601" lon="0.86584">
        <ele>397.1</ele>
        <time>2019-01-31T14:29:54Z</time>
      </trkpt>
      <trkpt lat="41.90605" lon="0.86597">
        <ele>396.2</ele>
        <time>2019-01-31T14:30:00Z</time>
      </trkpt>
      <trkpt lat="41.90611" lon="0.86609">
        <ele>396.2</ele>
        <time>2019-01-31T14:30:06Z</time>
      </trkpt>
      <trkpt lat="41.90614" lon="0.86627">
        <ele>394.7</ele>
        <time>2019-01-31T14:30:14Z</time>
      </trkpt>
      <trkpt lat="41.90606" lon="0.86645">
        <ele>396.2</ele>
        <time>2019-01-31T14:30:22Z</time>
      </trkpt>
      <trkpt lat="41.906" lon="0.86667">
        <ele>400</ele>
        <time>2019-01-31T14:30:33Z</time>
      </trkpt>
      <trkpt lat="41.90606" lon="0.86694">
        <ele>401.4</ele>
        <time>2019-01-31T14:30:45Z</time>
      </trkpt>
      <trkpt lat="41.90615" lon="0.86706">
        <ele>402.5</ele>
        <time>2019-01-31T14:30:52Z</time>
      </trkpt>
      <trkpt lat="41.9062" lon="0.86724">
        <ele>403.4</ele>
        <time>2019-01-31T14:31:00Z</time>
      </trkpt>
      <trkpt lat="41.9062" lon="0.86745">
        <ele>405.3</ele>
        <time>2019-01-31T14:31:09Z</time>
      </trkpt>
      <trkpt lat="41.90624" lon="0.86761">
        <ele>407.8</ele>
        <time>2019-01-31T14:31:16Z</time>
      </trkpt>
      <trkpt lat="41.90627" lon="0.8678">
        <ele>407.7</ele>
        <time>2019-01-31T14:31:25Z</time>
      </trkpt>
      <trkpt lat="41.90632" lon="0.86794">
        <ele>407.3</ele>
        <time>2019-01-31T14:31:31Z</time>
      </trkpt>
      <trkpt lat="41.90637" lon="0.86811">
        <ele>407.3</ele>
        <time>2019-01-31T14:31:39Z</time>
      </trkpt>
      <trkpt lat="41.90644" lon="0.86825">
        <ele>407.2</ele>
        <time>2019-01-31T14:31:46Z</time>
      </trkpt>
      <trkpt lat="41.90651" lon="0.86854">
        <ele>405.4</ele>
        <time>2019-01-31T14:31:59Z</time>
      </trkpt>
      <trkpt lat="41.90658" lon="0.86874">
        <ele>406.2</ele>
        <time>2019-01-31T14:32:09Z</time>
      </trkpt>
      <trkpt lat="41.90666" lon="0.86892">
        <ele>407.2</ele>
        <time>2019-01-31T14:32:17Z</time>
      </trkpt>
      <trkpt lat="41.90671" lon="0.86907">
        <ele>409.1</ele>
        <time>2019-01-31T14:32:24Z</time>
      </trkpt>
      <trkpt lat="41.90676" lon="0.86923">
        <ele>412.1</ele>
        <time>2019-01-31T14:32:32Z</time>
      </trkpt>
      <trkpt lat="41.9068" lon="0.86942">
        <ele>413.5</ele>
        <time>2019-01-31T14:32:40Z</time>
      </trkpt>
      <trkpt lat="41.90686" lon="0.86962">
        <ele>415.4</ele>
        <time>2019-01-31T14:32:49Z</time>
      </trkpt>
      <trkpt lat="41.90691" lon="0.86979">
        <ele>416</ele>
        <time>2019-01-31T14:32:57Z</time>
      </trkpt>
      <trkpt lat="41.90698" lon="0.86997">
        <ele>417.4</ele>
        <time>2019-01-31T14:33:06Z</time>
      </trkpt>
      <trkpt lat="41.90703" lon="0.87012">
        <ele>417.8</ele>
        <time>2019-01-31T14:33:13Z</time>
      </trkpt>
      <trkpt lat="41.90709" lon="0.87026">
        <ele>418.8</ele>
        <time>2019-01-31T14:33:20Z</time>
      </trkpt>
      <trkpt lat="41.90717" lon="0.87043">
        <ele>418.8</ele>
        <time>2019-01-31T14:33:28Z</time>
      </trkpt>
      <trkpt lat="41.90721" lon="0.87056">
        <ele>421.2</ele>
        <time>2019-01-31T14:33:34Z</time>
      </trkpt>
      <trkpt lat="41.90721" lon="0.87073">
        <ele>421.1</ele>
        <time>2019-01-31T14:33:42Z</time>
      </trkpt>
      <trkpt lat="41.90723" lon="0.87091">
        <ele>419.2</ele>
        <time>2019-01-31T14:33:49Z</time>
      </trkpt>
      <trkpt lat="41.90719" lon="0.87104">
        <ele>418.8</ele>
        <time>2019-01-31T14:33:55Z</time>
      </trkpt>
      <trkpt lat="41.90714" lon="0.87122">
        <ele>417.8</ele>
        <time>2019-01-31T14:34:03Z</time>
      </trkpt>
      <trkpt lat="41.90706" lon="0.87131">
        <ele>417.3</ele>
        <time>2019-01-31T14:34:09Z</time>
      </trkpt>
      <trkpt lat="41.90694" lon="0.87143">
        <ele>415.9</ele>
        <time>2019-01-31T14:34:18Z</time>
      </trkpt>
      <trkpt lat="41.90684" lon="0.87153">
        <ele>415.9</ele>
        <time>2019-01-31T14:34:25Z</time>
      </trkpt>
      <trkpt lat="41.90674" lon="0.87163">
        <ele>416</ele>
        <time>2019-01-31T14:34:32Z</time>
      </trkpt>
      <trkpt lat="41.90663" lon="0.87167">
        <ele>417.3</ele>
        <time>2019-01-31T14:34:39Z</time>
      </trkpt>
      <trkpt lat="41.90649" lon="0.8717">
        <ele>419.3</ele>
        <time>2019-01-31T14:34:47Z</time>
      </trkpt>
      <trkpt lat="41.90639" lon="0.87176">
        <ele>419.2</ele>
        <time>2019-01-31T14:34:53Z</time>
      </trkpt>
      <trkpt lat="41.90627" lon="0.87184">
        <ele>419.3</ele>
        <time>2019-01-31T14:35:00Z</time>
      </trkpt>
      <trkpt lat="41.90607" lon="0.87199">
        <ele>419.2</ele>
        <time>2019-01-31T14:35:14Z</time>
      </trkpt>
      <trkpt lat="41.90606" lon="0.87219">
        <ele>423.1</ele>
        <time>2019-01-31T14:35:22Z</time>
      </trkpt>
      <trkpt lat="41.90603" lon="0.87233">
        <ele>425</ele>
        <time>2019-01-31T14:35:29Z</time>
      </trkpt>
      <trkpt lat="41.90599" lon="0.87245">
        <ele>427.4</ele>
        <time>2019-01-31T14:35:34Z</time>
      </trkpt>
      <trkpt lat="41.90592" lon="0.87263">
        <ele>429.8</ele>
        <time>2019-01-31T14:35:43Z</time>
      </trkpt>
      <trkpt lat="41.9059" lon="0.8728">
        <ele>432.3</ele>
        <time>2019-01-31T14:35:50Z</time>
      </trkpt>
      <trkpt lat="41.90594" lon="0.87295">
        <ele>435.1</ele>
        <time>2019-01-31T14:35:57Z</time>
      </trkpt>
      <trkpt lat="41.90603" lon="0.87306">
        <ele>437.5</ele>
        <time>2019-01-31T14:36:04Z</time>
      </trkpt>
      <trkpt lat="41.90609" lon="0.87319">
        <ele>440.5</ele>
        <time>2019-01-31T14:36:10Z</time>
      </trkpt>
      <trkpt lat="41.90612" lon="0.8733">
        <ele>443.3</ele>
        <time>2019-01-31T14:36:15Z</time>
      </trkpt>
      <trkpt lat="41.90617" lon="0.87344">
        <ele>445.8</ele>
        <time>2019-01-31T14:36:22Z</time>
      </trkpt>
      <trkpt lat="41.90622" lon="0.87355">
        <ele>448.2</ele>
        <time>2019-01-31T14:36:27Z</time>
      </trkpt>
      <trkpt lat="41.9063" lon="0.87367">
        <ele>448.1</ele>
        <time>2019-01-31T14:36:34Z</time>
      </trkpt>
      <trkpt lat="41.90638" lon="0.87384">
        <ele>447.6</ele>
        <time>2019-01-31T14:36:43Z</time>
      </trkpt>
      <trkpt lat="41.90645" lon="0.874">
        <ele>446.6</ele>
        <time>2019-01-31T14:36:51Z</time>
      </trkpt>
      <trkpt lat="41.90649" lon="0.87419">
        <ele>445.3</ele>
        <time>2019-01-31T14:36:59Z</time>
      </trkpt>
      <trkpt lat="41.90647" lon="0.87434">
        <ele>445.2</ele>
        <time>2019-01-31T14:37:06Z</time>
      </trkpt>
      <trkpt lat="41.90647" lon="0.87449">
        <ele>446.1</ele>
        <time>2019-01-31T14:37:12Z</time>
      </trkpt>
      <trkpt lat="41.90654" lon="0.87457">
        <ele>448.5</ele>
        <time>2019-01-31T14:37:18Z</time>
      </trkpt>
      <trkpt lat="41.90662" lon="0.8747">
        <ele>449</ele>
        <time>2019-01-31T14:37:24Z</time>
      </trkpt>
      <trkpt lat="41.90669" lon="0.87481">
        <ele>449</ele>
        <time>2019-01-31T14:37:31Z</time>
      </trkpt>
      <trkpt lat="41.90677" lon="0.87495">
        <ele>448.6</ele>
        <time>2019-01-31T14:37:38Z</time>
      </trkpt>
      <trkpt lat="41.90684" lon="0.87506">
        <ele>448.6</ele>
        <time>2019-01-31T14:37:45Z</time>
      </trkpt>
      <trkpt lat="41.90686" lon="0.87521">
        <ele>447.6</ele>
        <time>2019-01-31T14:37:51Z</time>
      </trkpt>
      <trkpt lat="41.9068" lon="0.87537">
        <ele>447.6</ele>
        <time>2019-01-31T14:37:58Z</time>
      </trkpt>
      <trkpt lat="41.90676" lon="0.87552">
        <ele>447.1</ele>
        <time>2019-01-31T14:38:05Z</time>
      </trkpt>
      <trkpt lat="41.90672" lon="0.87565">
        <ele>447.2</ele>
        <time>2019-01-31T14:38:11Z</time>
      </trkpt>
      <trkpt lat="41.90667" lon="0.87581">
        <ele>445.2</ele>
        <time>2019-01-31T14:38:19Z</time>
      </trkpt>
      <trkpt lat="41.9067" lon="0.87595">
        <ele>445.2</ele>
        <time>2019-01-31T14:38:25Z</time>
      </trkpt>
      <trkpt lat="41.90673" lon="0.87607">
        <ele>445.2</ele>
        <time>2019-01-31T14:38:30Z</time>
      </trkpt>
      <trkpt lat="41.90678" lon="0.87621">
        <ele>446.7</ele>
        <time>2019-01-31T14:38:37Z</time>
      </trkpt>
      <trkpt lat="41.90683" lon="0.87634">
        <ele>446.7</ele>
        <time>2019-01-31T14:38:43Z</time>
      </trkpt>
      <trkpt lat="41.90688" lon="0.87647">
        <ele>446.1</ele>
        <time>2019-01-31T14:38:49Z</time>
      </trkpt>
      <trkpt lat="41.90694" lon="0.87661">
        <ele>445.3</ele>
        <time>2019-01-31T14:38:56Z</time>
      </trkpt>
      <trkpt lat="41.90698" lon="0.87678">
        <ele>444.3</ele>
        <time>2019-01-31T14:39:04Z</time>
      </trkpt>
      <trkpt lat="41.907" lon="0.87697">
        <ele>443.8</ele>
        <time>2019-01-31T14:39:12Z</time>
      </trkpt>
      <trkpt lat="41.90703" lon="0.87715">
        <ele>443.3</ele>
        <time>2019-01-31T14:39:20Z</time>
      </trkpt>
      <trkpt lat="41.90705" lon="0.87731">
        <ele>443.3</ele>
        <time>2019-01-31T14:39:27Z</time>
      </trkpt>
      <trkpt lat="41.90704" lon="0.87751">
        <ele>442.8</ele>
        <time>2019-01-31T14:39:35Z</time>
      </trkpt>
      <trkpt lat="41.90703" lon="0.87767">
        <ele>442.9</ele>
        <time>2019-01-31T14:39:42Z</time>
      </trkpt>
      <trkpt lat="41.90705" lon="0.87789">
        <ele>442.3</ele>
        <time>2019-01-31T14:39:52Z</time>
      </trkpt>
      <trkpt lat="41.90706" lon="0.87807">
        <ele>442.3</ele>
        <time>2019-01-31T14:39:59Z</time>
      </trkpt>
      <trkpt lat="41.90709" lon="0.87832">
        <ele>441.3</ele>
        <time>2019-01-31T14:40:10Z</time>
      </trkpt>
      <trkpt lat="41.90712" lon="0.87848">
        <ele>439.9</ele>
        <time>2019-01-31T14:40:17Z</time>
      </trkpt>
      <trkpt lat="41.90711" lon="0.87863">
        <ele>440.9</ele>
        <time>2019-01-31T14:40:23Z</time>
      </trkpt>
      <trkpt lat="41.90705" lon="0.87877">
        <ele>440</ele>
        <time>2019-01-31T14:40:30Z</time>
      </trkpt>
      <trkpt lat="41.907" lon="0.87889">
        <ele>439.4</ele>
        <time>2019-01-31T14:40:36Z</time>
      </trkpt>
      <trkpt lat="41.90707" lon="0.87892">
        <ele>436.6</ele>
        <time>2019-01-31T14:40:40Z</time>
      </trkpt>
      <trkpt lat="41.90714" lon="0.87879">
        <ele>435.1</ele>
        <time>2019-01-31T14:40:47Z</time>
      </trkpt>
      <trkpt lat="41.90722" lon="0.87868">
        <ele>434.6</ele>
        <time>2019-01-31T14:40:54Z</time>
      </trkpt>
      <trkpt lat="41.90729" lon="0.87857">
        <ele>433.6</ele>
        <time>2019-01-31T14:41:00Z</time>
      </trkpt>
      <trkpt lat="41.90733" lon="0.87858">
        <ele>430.4</ele>
        <time>2019-01-31T14:41:02Z</time>
      </trkpt>
      <trkpt lat="41.9073" lon="0.87874">
        <ele>428.4</ele>
        <time>2019-01-31T14:41:09Z</time>
      </trkpt>
      <trkpt lat="41.90726" lon="0.87888">
        <ele>425.6</ele>
        <time>2019-01-31T14:41:15Z</time>
      </trkpt>
      <trkpt lat="41.90725" lon="0.87901">
        <ele>423.7</ele>
        <time>2019-01-31T14:41:21Z</time>
      </trkpt>
      <trkpt lat="41.90726" lon="0.87911">
        <ele>421.1</ele>
        <time>2019-01-31T14:41:25Z</time>
      </trkpt>
      <trkpt lat="41.90733" lon="0.87902">
        <ele>418.8</ele>
        <time>2019-01-31T14:41:31Z</time>
      </trkpt>
      <trkpt lat="41.90741" lon="0.87895">
        <ele>417.9</ele>
        <time>2019-01-31T14:41:36Z</time>
      </trkpt>
      <trkpt lat="41.90748" lon="0.87893">
        <ele>415.4</ele>
        <time>2019-01-31T14:41:40Z</time>
      </trkpt>
      <trkpt lat="41.90753" lon="0.87895">
        <ele>412.6</ele>
        <time>2019-01-31T14:41:43Z</time>
      </trkpt>
      <trkpt lat="41.90749" lon="0.87909">
        <ele>408.7</ele>
        <time>2019-01-31T14:41:49Z</time>
      </trkpt>
      <trkpt lat="41.90746" lon="0.87922">
        <ele>407.2</ele>
        <time>2019-01-31T14:41:55Z</time>
      </trkpt>
      <trkpt lat="41.9075" lon="0.87934">
        <ele>405.3</ele>
        <time>2019-01-31T14:42:01Z</time>
      </trkpt>
      <trkpt lat="41.90756" lon="0.87944">
        <ele>403.4</ele>
        <time>2019-01-31T14:42:06Z</time>
      </trkpt>
      <trkpt lat="41.90763" lon="0.87956">
        <ele>398.6</ele>
        <time>2019-01-31T14:42:13Z</time>
      </trkpt>
      <trkpt lat="41.90763" lon="0.87968">
        <ele>397.1</ele>
        <time>2019-01-31T14:42:18Z</time>
      </trkpt>
      <trkpt lat="41.9077" lon="0.87966">
        <ele>449.1</ele>
        <time>2019-01-31T14:42:22Z</time>
      </trkpt>
      <trkpt lat="41.90769" lon="0.87951">
        <ele>484.1</ele>
        <time>2019-01-31T14:42:28Z</time>
      </trkpt>
      <trkpt lat="41.9078" lon="0.8795">
        <ele>472.1</ele>
        <time>2019-01-31T14:42:35Z</time>
      </trkpt>
      <trkpt lat="41.90787" lon="0.87958">
        <ele>471.1</ele>
        <time>2019-01-31T14:42:40Z</time>
      </trkpt>
      <trkpt lat="41.90789" lon="0.8797">
        <ele>472</ele>
        <time>2019-01-31T14:42:45Z</time>
      </trkpt>
      <trkpt lat="41.90788" lon="0.87983">
        <ele>472.1</ele>
        <time>2019-01-31T14:42:50Z</time>
      </trkpt>
      <trkpt lat="41.90792" lon="0.87996">
        <ele>470</ele>
        <time>2019-01-31T14:42:57Z</time>
      </trkpt>
      <trkpt lat="41.90797" lon="0.88007">
        <ele>470</ele>
        <time>2019-01-31T14:43:02Z</time>
      </trkpt>
      <trkpt lat="41.908" lon="0.88022">
        <ele>472</ele>
        <time>2019-01-31T14:43:09Z</time>
      </trkpt>
      <trkpt lat="41.90798" lon="0.88038">
        <ele>473.1</ele>
        <time>2019-01-31T14:43:16Z</time>
      </trkpt>
      <trkpt lat="41.90799" lon="0.88051">
        <ele>474</ele>
        <time>2019-01-31T14:43:21Z</time>
      </trkpt>
      <trkpt lat="41.90807" lon="0.88058">
        <ele>470</ele>
        <time>2019-01-31T14:43:26Z</time>
      </trkpt>
      <trkpt lat="41.90818" lon="0.88064">
        <ele>464.1</ele>
        <time>2019-01-31T14:43:33Z</time>
      </trkpt>
      <trkpt lat="41.90826" lon="0.88071">
        <ele>462</ele>
        <time>2019-01-31T14:43:39Z</time>
      </trkpt>
      <trkpt lat="41.90837" lon="0.88075">
        <ele>457</ele>
        <time>2019-01-31T14:43:45Z</time>
      </trkpt>
      <trkpt lat="41.90846" lon="0.88084">
        <ele>453.1</ele>
        <time>2019-01-31T14:43:51Z</time>
      </trkpt>
      <trkpt lat="41.90852" lon="0.88093">
        <ele>450.1</ele>
        <time>2019-01-31T14:43:57Z</time>
      </trkpt>
      <trkpt lat="41.9086" lon="0.88104">
        <ele>449.1</ele>
        <time>2019-01-31T14:44:03Z</time>
      </trkpt>
      <trkpt lat="41.90863" lon="0.88119">
        <ele>446</ele>
        <time>2019-01-31T14:44:10Z</time>
      </trkpt>
      <trkpt lat="41.90867" lon="0.88136">
        <ele>445</ele>
        <time>2019-01-31T14:44:17Z</time>
      </trkpt>
      <trkpt lat="41.90875" lon="0.88139">
        <ele>444</ele>
        <time>2019-01-31T14:44:22Z</time>
      </trkpt>
      <trkpt lat="41.90879" lon="0.88155">
        <ele>439</ele>
        <time>2019-01-31T14:44:30Z</time>
      </trkpt>
      <trkpt lat="41.90877" lon="0.88168">
        <ele>438.1</ele>
        <time>2019-01-31T14:44:35Z</time>
      </trkpt>
      <trkpt lat="41.90879" lon="0.88181">
        <ele>438.1</ele>
        <time>2019-01-31T14:44:41Z</time>
      </trkpt>
      <trkpt lat="41.90881" lon="0.88194">
        <ele>437</ele>
        <time>2019-01-31T14:44:47Z</time>
      </trkpt>
      <trkpt lat="41.90871" lon="0.88191">
        <ele>438.1</ele>
        <time>2019-01-31T14:44:53Z</time>
      </trkpt>
      <trkpt lat="41.90861" lon="0.88199">
        <ele>431</ele>
        <time>2019-01-31T14:44:59Z</time>
      </trkpt>
      <trkpt lat="41.90858" lon="0.88212">
        <ele>426</ele>
        <time>2019-01-31T14:45:05Z</time>
      </trkpt>
      <trkpt lat="41.9086" lon="0.88227">
        <ele>423.1</ele>
        <time>2019-01-31T14:45:12Z</time>
      </trkpt>
      <trkpt lat="41.90866" lon="0.88238">
        <ele>421</ele>
        <time>2019-01-31T14:45:18Z</time>
      </trkpt>
      <trkpt lat="41.90872" lon="0.8825">
        <ele>421</ele>
        <time>2019-01-31T14:45:24Z</time>
      </trkpt>
      <trkpt lat="41.90879" lon="0.88259">
        <ele>420</ele>
        <time>2019-01-31T14:45:29Z</time>
      </trkpt>
      <trkpt lat="41.90878" lon="0.88274">
        <ele>421.1</ele>
        <time>2019-01-31T14:45:35Z</time>
      </trkpt>
      <trkpt lat="41.90874" lon="0.88289">
        <ele>422.1</ele>
        <time>2019-01-31T14:45:42Z</time>
      </trkpt>
      <trkpt lat="41.90871" lon="0.883">
        <ele>421</ele>
        <time>2019-01-31T14:45:47Z</time>
      </trkpt>
      <trkpt lat="41.90861" lon="0.8831">
        <ele>423.1</ele>
        <time>2019-01-31T14:45:54Z</time>
      </trkpt>
      <trkpt lat="41.90857" lon="0.88321">
        <ele>422</ele>
        <time>2019-01-31T14:46:00Z</time>
      </trkpt>
      <trkpt lat="41.9085" lon="0.88332">
        <ele>419.1</ele>
        <time>2019-01-31T14:46:06Z</time>
      </trkpt>
      <trkpt lat="41.90844" lon="0.88343">
        <ele>418.1</ele>
        <time>2019-01-31T14:46:12Z</time>
      </trkpt>
      <trkpt lat="41.90837" lon="0.88354">
        <ele>418.1</ele>
        <time>2019-01-31T14:46:17Z</time>
      </trkpt>
      <trkpt lat="41.90827" lon="0.88364">
        <ele>417.1</ele>
        <time>2019-01-31T14:46:25Z</time>
      </trkpt>
      <trkpt lat="41.90825" lon="0.88382">
        <ele>415.1</ele>
        <time>2019-01-31T14:46:32Z</time>
      </trkpt>
      <trkpt lat="41.90824" lon="0.88395">
        <ele>414</ele>
        <time>2019-01-31T14:46:38Z</time>
      </trkpt>
      <trkpt lat="41.90822" lon="0.88409">
        <ele>414</ele>
        <time>2019-01-31T14:46:44Z</time>
      </trkpt>
      <trkpt lat="41.90819" lon="0.88424">
        <ele>418.1</ele>
        <time>2019-01-31T14:46:51Z</time>
      </trkpt>
      <trkpt lat="41.90817" lon="0.88439">
        <ele>418</ele>
        <time>2019-01-31T14:46:57Z</time>
      </trkpt>
      <trkpt lat="41.90812" lon="0.88451">
        <ele>418.1</ele>
        <time>2019-01-31T14:47:03Z</time>
      </trkpt>
      <trkpt lat="41.90803" lon="0.8846">
        <ele>418</ele>
        <time>2019-01-31T14:47:09Z</time>
      </trkpt>
      <trkpt lat="41.90793" lon="0.88455">
        <ele>419.1</ele>
        <time>2019-01-31T14:47:16Z</time>
      </trkpt>
      <trkpt lat="41.90778" lon="0.88458">
        <ele>419</ele>
        <time>2019-01-31T14:47:24Z</time>
      </trkpt>
      <trkpt lat="41.90752" lon="0.8847">
        <ele>418</ele>
        <time>2019-01-31T14:47:40Z</time>
      </trkpt>
      <trkpt lat="41.90745" lon="0.88486">
        <ele>416.1</ele>
        <time>2019-01-31T14:47:48Z</time>
      </trkpt>
      <trkpt lat="41.90735" lon="0.88499">
        <ele>415.1</ele>
        <time>2019-01-31T14:47:55Z</time>
      </trkpt>
      <trkpt lat="41.90719" lon="0.88505">
        <ele>415.1</ele>
        <time>2019-01-31T14:48:05Z</time>
      </trkpt>
      <trkpt lat="41.90687" lon="0.88513">
        <ele>415</ele>
        <time>2019-01-31T14:48:23Z</time>
      </trkpt>
      <trkpt lat="41.90679" lon="0.88521">
        <ele>416</ele>
        <time>2019-01-31T14:48:29Z</time>
      </trkpt>
      <trkpt lat="41.90669" lon="0.88526">
        <ele>415.1</ele>
        <time>2019-01-31T14:48:35Z</time>
      </trkpt>
      <trkpt lat="41.90662" lon="0.88534">
        <ele>413.1</ele>
        <time>2019-01-31T14:48:40Z</time>
      </trkpt>
      <trkpt lat="41.90672" lon="0.88543">
        <ele>408.1</ele>
        <time>2019-01-31T14:48:47Z</time>
      </trkpt>
      <trkpt lat="41.90665" lon="0.88563">
        <ele>406.1</ele>
        <time>2019-01-31T14:48:57Z</time>
      </trkpt>
      <trkpt lat="41.90665" lon="0.88578">
        <ele>406</ele>
        <time>2019-01-31T14:49:03Z</time>
      </trkpt>
      <trkpt lat="41.90654" lon="0.88583">
        <ele>405.1</ele>
        <time>2019-01-31T14:49:09Z</time>
      </trkpt>
      <trkpt lat="41.90683" lon="0.8859">
        <ele>408.1</ele>
        <time>2019-01-31T14:49:26Z</time>
      </trkpt>
      <trkpt lat="41.90698" lon="0.88593">
        <ele>410.1</ele>
        <time>2019-01-31T14:49:34Z</time>
      </trkpt>
      <trkpt lat="41.90708" lon="0.88601">
        <ele>410.1</ele>
        <time>2019-01-31T14:49:41Z</time>
      </trkpt>
      <trkpt lat="41.90719" lon="0.88605">
        <ele>410</ele>
        <time>2019-01-31T14:49:48Z</time>
      </trkpt>
      <trkpt lat="41.90728" lon="0.88613">
        <ele>412</ele>
        <time>2019-01-31T14:49:54Z</time>
      </trkpt>
      <trkpt lat="41.90738" lon="0.88621">
        <ele>411</ele>
        <time>2019-01-31T14:50:01Z</time>
      </trkpt>
      <trkpt lat="41.90748" lon="0.88621">
        <ele>415</ele>
        <time>2019-01-31T14:50:07Z</time>
      </trkpt>
      <trkpt lat="41.90758" lon="0.88623">
        <ele>420.1</ele>
        <time>2019-01-31T14:50:12Z</time>
      </trkpt>
      <trkpt lat="41.90769" lon="0.88623">
        <ele>422</ele>
        <time>2019-01-31T14:50:19Z</time>
      </trkpt>
      <trkpt lat="41.90779" lon="0.88633">
        <ele>424.1</ele>
        <time>2019-01-31T14:50:26Z</time>
      </trkpt>
      <trkpt lat="41.90787" lon="0.88648">
        <ele>430.1</ele>
        <time>2019-01-31T14:50:33Z</time>
      </trkpt>
      <trkpt lat="41.90795" lon="0.88653">
        <ele>431</ele>
        <time>2019-01-31T14:50:39Z</time>
      </trkpt>
      <trkpt lat="41.90801" lon="0.88663">
        <ele>430</ele>
        <time>2019-01-31T14:50:44Z</time>
      </trkpt>
      <trkpt lat="41.90812" lon="0.88668">
        <ele>428.1</ele>
        <time>2019-01-31T14:50:51Z</time>
      </trkpt>
      <trkpt lat="41.90818" lon="0.88678">
        <ele>425.1</ele>
        <time>2019-01-31T14:50:56Z</time>
      </trkpt>
      <trkpt lat="41.90825" lon="0.8869">
        <ele>423</ele>
        <time>2019-01-31T14:51:03Z</time>
      </trkpt>
      <trkpt lat="41.90832" lon="0.88708">
        <ele>418</ele>
        <time>2019-01-31T14:51:12Z</time>
      </trkpt>
      <trkpt lat="41.90831" lon="0.88727">
        <ele>412</ele>
        <time>2019-01-31T14:51:20Z</time>
      </trkpt>
      <trkpt lat="41.90826" lon="0.88748">
        <ele>328.1</ele>
        <time>2019-01-31T14:51:29Z</time>
      </trkpt>
      <trkpt lat="41.90849" lon="0.88768">
        <ele>350.2</ele>
        <time>2019-01-31T14:51:45Z</time>
      </trkpt>
      <trkpt lat="41.90874" lon="0.88768">
        <ele>368</ele>
        <time>2019-01-31T14:51:59Z</time>
      </trkpt>
      <trkpt lat="41.90889" lon="0.8876">
        <ele>372.8</ele>
        <time>2019-01-31T14:52:08Z</time>
      </trkpt>
      <trkpt lat="41.90897" lon="0.88748">
        <ele>368.8</ele>
        <time>2019-01-31T14:52:15Z</time>
      </trkpt>
      <trkpt lat="41.90898" lon="0.88747">
        <ele>368.6</ele>
        <time>2019-01-31T14:52:16Z</time>
      </trkpt>
      <trkpt lat="41.90909" lon="0.88733">
        <ele>362.8</ele>
        <time>2019-01-31T14:52:25Z</time>
      </trkpt>
      <trkpt lat="41.90924" lon="0.88709">
        <ele>351.4</ele>
        <time>2019-01-31T14:52:38Z</time>
      </trkpt>
      <trkpt lat="41.90929" lon="0.88694">
        <ele>338</ele>
        <time>2019-01-31T14:52:45Z</time>
      </trkpt>
      <trkpt lat="41.90947" lon="0.88682">
        <ele>343</ele>
        <time>2019-01-31T14:52:57Z</time>
      </trkpt>
      <trkpt lat="41.90941" lon="0.88693">
        <ele>344.3</ele>
        <time>2019-01-31T14:53:02Z</time>
      </trkpt>
      <trkpt lat="41.90931" lon="0.88701">
        <ele>344.3</ele>
        <time>2019-01-31T14:53:09Z</time>
      </trkpt>
      <trkpt lat="41.90914" lon="0.887">
        <ele>345.3</ele>
        <time>2019-01-31T14:53:18Z</time>
      </trkpt>
      <trkpt lat="41.90902" lon="0.88696">
        <ele>348.2</ele>
        <time>2019-01-31T14:53:25Z</time>
      </trkpt>
      <trkpt lat="41.90906" lon="0.88704">
        <ele>351.5</ele>
        <time>2019-01-31T14:53:30Z</time>
      </trkpt>
      <trkpt lat="41.90912" lon="0.88708">
        <ele>355</ele>
        <time>2019-01-31T14:53:33Z</time>
      </trkpt>
      <trkpt lat="41.90922" lon="0.88714">
        <ele>358.7</ele>
        <time>2019-01-31T14:53:39Z</time>
      </trkpt>
      <trkpt lat="41.90918" lon="0.8874">
        <ele>374.7</ele>
        <time>2019-01-31T14:53:51Z</time>
      </trkpt>
      <trkpt lat="41.90897" lon="0.88757">
        <ele>375.6</ele>
        <time>2019-01-31T14:54:04Z</time>
      </trkpt>
      <trkpt lat="41.90888" lon="0.88769">
        <ele>375.6</ele>
        <time>2019-01-31T14:54:12Z</time>
      </trkpt>
      <trkpt lat="41.90883" lon="0.88781">
        <ele>375.6</ele>
        <time>2019-01-31T14:54:17Z</time>
      </trkpt>
      <trkpt lat="41.9088" lon="0.88795">
        <ele>375.6</ele>
        <time>2019-01-31T14:54:24Z</time>
      </trkpt>
      <trkpt lat="41.90873" lon="0.88809">
        <ele>375.5</ele>
        <time>2019-01-31T14:54:31Z</time>
      </trkpt>
      <trkpt lat="41.90864" lon="0.88819">
        <ele>375.5</ele>
        <time>2019-01-31T14:54:37Z</time>
      </trkpt>
      <trkpt lat="41.90853" lon="0.88831">
        <ele>375.5</ele>
        <time>2019-01-31T14:54:46Z</time>
      </trkpt>
      <trkpt lat="41.90846" lon="0.88842">
        <ele>375.6</ele>
        <time>2019-01-31T14:54:52Z</time>
      </trkpt>
      <trkpt lat="41.90835" lon="0.8885">
        <ele>375.5</ele>
        <time>2019-01-31T14:54:59Z</time>
      </trkpt>
      <trkpt lat="41.90828" lon="0.8886">
        <ele>378.9</ele>
        <time>2019-01-31T14:55:05Z</time>
      </trkpt>
      <trkpt lat="41.90824" lon="0.88872">
        <ele>380.9</ele>
        <time>2019-01-31T14:55:10Z</time>
      </trkpt>
      <trkpt lat="41.90818" lon="0.88884">
        <ele>382.3</ele>
        <time>2019-01-31T14:55:16Z</time>
      </trkpt>
      <trkpt lat="41.90812" lon="0.88896">
        <ele>383.3</ele>
        <time>2019-01-31T14:55:23Z</time>
      </trkpt>
      <trkpt lat="41.90805" lon="0.88904">
        <ele>382.8</ele>
        <time>2019-01-31T14:55:28Z</time>
      </trkpt>
      <trkpt lat="41.90798" lon="0.8892">
        <ele>381.4</ele>
        <time>2019-01-31T14:55:36Z</time>
      </trkpt>
      <trkpt lat="41.90794" lon="0.88934">
        <ele>381.3</ele>
        <time>2019-01-31T14:55:42Z</time>
      </trkpt>
      <trkpt lat="41.9079" lon="0.88947">
        <ele>382.3</ele>
        <time>2019-01-31T14:55:48Z</time>
      </trkpt>
      <trkpt lat="41.90786" lon="0.88962">
        <ele>380.8</ele>
        <time>2019-01-31T14:55:55Z</time>
      </trkpt>
      <trkpt lat="41.90782" lon="0.88977">
        <ele>380.9</ele>
        <time>2019-01-31T14:56:02Z</time>
      </trkpt>
      <trkpt lat="41.90778" lon="0.88991">
        <ele>380</ele>
        <time>2019-01-31T14:56:08Z</time>
      </trkpt>
      <trkpt lat="41.90778" lon="0.89003">
        <ele>380.4</ele>
        <time>2019-01-31T14:56:13Z</time>
      </trkpt>
      <trkpt lat="41.90779" lon="0.89016">
        <ele>380.4</ele>
        <time>2019-01-31T14:56:19Z</time>
      </trkpt>
      <trkpt lat="41.90774" lon="0.89029">
        <ele>378.5</ele>
        <time>2019-01-31T14:56:25Z</time>
      </trkpt>
      <trkpt lat="41.90767" lon="0.89038">
        <ele>379.9</ele>
        <time>2019-01-31T14:56:31Z</time>
      </trkpt>
      <trkpt lat="41.90762" lon="0.89042">
        <ele>383.8</ele>
        <time>2019-01-31T14:56:34Z</time>
      </trkpt>
      <trkpt lat="41.90771" lon="0.89046">
        <ele>385.3</ele>
        <time>2019-01-31T14:56:39Z</time>
      </trkpt>
      <trkpt lat="41.90779" lon="0.8904">
        <ele>386.7</ele>
        <time>2019-01-31T14:56:45Z</time>
      </trkpt>
      <trkpt lat="41.90787" lon="0.89033">
        <ele>388</ele>
        <time>2019-01-31T14:56:50Z</time>
      </trkpt>
      <trkpt lat="41.90795" lon="0.89026">
        <ele>390.4</ele>
        <time>2019-01-31T14:56:56Z</time>
      </trkpt>
      <trkpt lat="41.90801" lon="0.89028">
        <ele>393.8</ele>
        <time>2019-01-31T14:56:59Z</time>
      </trkpt>
      <trkpt lat="41.908" lon="0.89043">
        <ele>396.8</ele>
        <time>2019-01-31T14:57:05Z</time>
      </trkpt>
      <trkpt lat="41.90797" lon="0.89058">
        <ele>398.7</ele>
        <time>2019-01-31T14:57:12Z</time>
      </trkpt>
      <trkpt lat="41.90799" lon="0.89062">
        <ele>402.1</ele>
        <time>2019-01-31T14:57:14Z</time>
      </trkpt>
      <trkpt lat="41.90807" lon="0.89056">
        <ele>404.5</ele>
        <time>2019-01-31T14:57:19Z</time>
      </trkpt>
      <trkpt lat="41.90816" lon="0.89049">
        <ele>406.4</ele>
        <time>2019-01-31T14:57:25Z</time>
      </trkpt>
      <trkpt lat="41.90824" lon="0.89043">
        <ele>408.2</ele>
        <time>2019-01-31T14:57:30Z</time>
      </trkpt>
      <trkpt lat="41.90834" lon="0.89044">
        <ele>409.2</ele>
        <time>2019-01-31T14:57:36Z</time>
      </trkpt>
      <trkpt lat="41.90836" lon="0.89058">
        <ele>412.2</ele>
        <time>2019-01-31T14:57:42Z</time>
      </trkpt>
      <trkpt lat="41.90845" lon="0.89057">
        <ele>414.6</ele>
        <time>2019-01-31T14:57:47Z</time>
      </trkpt>
      <trkpt lat="41.90854" lon="0.89055">
        <ele>416.5</ele>
        <time>2019-01-31T14:57:53Z</time>
      </trkpt>
      <trkpt lat="41.90864" lon="0.89055">
        <ele>418.3</ele>
        <time>2019-01-31T14:57:58Z</time>
      </trkpt>
      <trkpt lat="41.9086" lon="0.89068">
        <ele>420.7</ele>
        <time>2019-01-31T14:58:04Z</time>
      </trkpt>
      <trkpt lat="41.90864" lon="0.89076">
        <ele>423.7</ele>
        <time>2019-01-31T14:58:08Z</time>
      </trkpt>
      <trkpt lat="41.90873" lon="0.8908">
        <ele>426</ele>
        <time>2019-01-31T14:58:14Z</time>
      </trkpt>
      <trkpt lat="41.90882" lon="0.8909">
        <ele>427.9</ele>
        <time>2019-01-31T14:58:20Z</time>
      </trkpt>
      <trkpt lat="41.9089" lon="0.89098">
        <ele>430.9</ele>
        <time>2019-01-31T14:58:26Z</time>
      </trkpt>
      <trkpt lat="41.90899" lon="0.89104">
        <ele>433.3</ele>
        <time>2019-01-31T14:58:32Z</time>
      </trkpt>
      <trkpt lat="41.90907" lon="0.8911">
        <ele>435.7</ele>
        <time>2019-01-31T14:58:37Z</time>
      </trkpt>
      <trkpt lat="41.90915" lon="0.89121">
        <ele>437.2</ele>
        <time>2019-01-31T14:58:44Z</time>
      </trkpt>
      <trkpt lat="41.90918" lon="0.89137">
        <ele>439.1</ele>
        <time>2019-01-31T14:58:51Z</time>
      </trkpt>
      <trkpt lat="41.90923" lon="0.89151">
        <ele>440</ele>
        <time>2019-01-31T14:58:58Z</time>
      </trkpt>
      <trkpt lat="41.9093" lon="0.89163">
        <ele>440</ele>
        <time>2019-01-31T14:59:04Z</time>
      </trkpt>
      <trkpt lat="41.90938" lon="0.8917">
        <ele>440.4</ele>
        <time>2019-01-31T14:59:09Z</time>
      </trkpt>
      <trkpt lat="41.90945" lon="0.8918">
        <ele>441.4</ele>
        <time>2019-01-31T14:59:15Z</time>
      </trkpt>
      <trkpt lat="41.90952" lon="0.89192">
        <ele>442.3</ele>
        <time>2019-01-31T14:59:22Z</time>
      </trkpt>
      <trkpt lat="41.90959" lon="0.89202">
        <ele>443.3</ele>
        <time>2019-01-31T14:59:27Z</time>
      </trkpt>
      <trkpt lat="41.90966" lon="0.8921">
        <ele>444.3</ele>
        <time>2019-01-31T14:59:33Z</time>
      </trkpt>
      <trkpt lat="41.90975" lon="0.89217">
        <ele>446.3</ele>
        <time>2019-01-31T14:59:39Z</time>
      </trkpt>
      <trkpt lat="41.90983" lon="0.89223">
        <ele>449.1</ele>
        <time>2019-01-31T14:59:44Z</time>
      </trkpt>
      <trkpt lat="41.9099" lon="0.89226">
        <ele>451.5</ele>
        <time>2019-01-31T14:59:48Z</time>
      </trkpt>
      <trkpt lat="41.9099" lon="0.89215">
        <ele>453.5</ele>
        <time>2019-01-31T14:59:53Z</time>
      </trkpt>
      <trkpt lat="41.90992" lon="0.89203">
        <ele>455.9</ele>
        <time>2019-01-31T14:59:58Z</time>
      </trkpt>
      <trkpt lat="41.91" lon="0.89207">
        <ele>457.2</ele>
        <time>2019-01-31T15:00:03Z</time>
      </trkpt>
      <trkpt lat="41.9101" lon="0.89215">
        <ele>459.3</ele>
        <time>2019-01-31T15:00:10Z</time>
      </trkpt>
      <trkpt lat="41.91017" lon="0.89223">
        <ele>459.7</ele>
        <time>2019-01-31T15:00:15Z</time>
      </trkpt>
      <trkpt lat="41.91025" lon="0.89229">
        <ele>460.6</ele>
        <time>2019-01-31T15:00:20Z</time>
      </trkpt>
      <trkpt lat="41.91024" lon="0.8922">
        <ele>463</ele>
        <time>2019-01-31T15:00:24Z</time>
      </trkpt>
      <trkpt lat="41.91023" lon="0.89208">
        <ele>465.4</ele>
        <time>2019-01-31T15:00:30Z</time>
      </trkpt>
      <trkpt lat="41.91021" lon="0.89196">
        <ele>467.8</ele>
        <time>2019-01-31T15:00:35Z</time>
      </trkpt>
      <trkpt lat="41.91024" lon="0.89186">
        <ele>469.7</ele>
        <time>2019-01-31T15:00:39Z</time>
      </trkpt>
      <trkpt lat="41.91032" lon="0.89193">
        <ele>471.7</ele>
        <time>2019-01-31T15:00:45Z</time>
      </trkpt>
      <trkpt lat="41.91041" lon="0.892">
        <ele>473.1</ele>
        <time>2019-01-31T15:00:51Z</time>
      </trkpt>
      <trkpt lat="41.91049" lon="0.89207">
        <ele>475.5</ele>
        <time>2019-01-31T15:00:56Z</time>
      </trkpt>
      <trkpt lat="41.91053" lon="0.8921">
        <ele>477.9</ele>
        <time>2019-01-31T15:00:59Z</time>
      </trkpt>
      <trkpt lat="41.91051" lon="0.89198">
        <ele>479.8</ele>
        <time>2019-01-31T15:01:04Z</time>
      </trkpt>
      <trkpt lat="41.91048" lon="0.89186">
        <ele>481.9</ele>
        <time>2019-01-31T15:01:10Z</time>
      </trkpt>
      <trkpt lat="41.91046" lon="0.89174">
        <ele>484.2</ele>
        <time>2019-01-31T15:01:15Z</time>
      </trkpt>
      <trkpt lat="41.91042" lon="0.89163">
        <ele>486.6</ele>
        <time>2019-01-31T15:01:20Z</time>
      </trkpt>
      <trkpt lat="41.91051" lon="0.89164">
        <ele>488.6</ele>
        <time>2019-01-31T15:01:25Z</time>
      </trkpt>
      <trkpt lat="41.9106" lon="0.89171">
        <ele>489.5</ele>
        <time>2019-01-31T15:01:31Z</time>
      </trkpt>
      <trkpt lat="41.91068" lon="0.89179">
        <ele>491.4</ele>
        <time>2019-01-31T15:01:37Z</time>
      </trkpt>
      <trkpt lat="41.91076" lon="0.89189">
        <ele>493.3</ele>
        <time>2019-01-31T15:01:43Z</time>
      </trkpt>
      <trkpt lat="41.91083" lon="0.89199">
        <ele>495.3</ele>
        <time>2019-01-31T15:01:49Z</time>
      </trkpt>
      <trkpt lat="41.9109" lon="0.89209">
        <ele>497.2</ele>
        <time>2019-01-31T15:01:55Z</time>
      </trkpt>
      <trkpt lat="41.91098" lon="0.89217">
        <ele>498.7</ele>
        <time>2019-01-31T15:02:01Z</time>
      </trkpt>
      <trkpt lat="41.91094" lon="0.89207">
        <ele>500.6</ele>
        <time>2019-01-31T15:02:06Z</time>
      </trkpt>
      <trkpt lat="41.91092" lon="0.89195">
        <ele>503.4</ele>
        <time>2019-01-31T15:02:11Z</time>
      </trkpt>
      <trkpt lat="41.91088" lon="0.89183">
        <ele>505.4</ele>
        <time>2019-01-31T15:02:17Z</time>
      </trkpt>
      <trkpt lat="41.91086" lon="0.89169">
        <ele>507.2</ele>
        <time>2019-01-31T15:02:23Z</time>
      </trkpt>
      <trkpt lat="41.91084" lon="0.89156">
        <ele>509.2</ele>
        <time>2019-01-31T15:02:28Z</time>
      </trkpt>
      <trkpt lat="41.91082" lon="0.89145">
        <ele>511.7</ele>
        <time>2019-01-31T15:02:33Z</time>
      </trkpt>
      <trkpt lat="41.91085" lon="0.89136">
        <ele>513.5</ele>
        <time>2019-01-31T15:02:37Z</time>
      </trkpt>
      <trkpt lat="41.91094" lon="0.89142">
        <ele>515</ele>
        <time>2019-01-31T15:02:43Z</time>
      </trkpt>
      <trkpt lat="41.91102" lon="0.8915">
        <ele>517.4</ele>
        <time>2019-01-31T15:02:49Z</time>
      </trkpt>
      <trkpt lat="41.91111" lon="0.89159">
        <ele>518.8</ele>
        <time>2019-01-31T15:02:55Z</time>
      </trkpt>
      <trkpt lat="41.9112" lon="0.89167">
        <ele>519.3</ele>
        <time>2019-01-31T15:03:01Z</time>
      </trkpt>
      <trkpt lat="41.91128" lon="0.89175">
        <ele>520.7</ele>
        <time>2019-01-31T15:03:07Z</time>
      </trkpt>
      <trkpt lat="41.9113" lon="0.89169">
        <ele>523.2</ele>
        <time>2019-01-31T15:03:10Z</time>
      </trkpt>
      <trkpt lat="41.91129" lon="0.89157">
        <ele>525.1</ele>
        <time>2019-01-31T15:03:15Z</time>
      </trkpt>
      <trkpt lat="41.91127" lon="0.89145">
        <ele>527.5</ele>
        <time>2019-01-31T15:03:21Z</time>
      </trkpt>
      <trkpt lat="41.91125" lon="0.89133">
        <ele>529.3</ele>
        <time>2019-01-31T15:03:26Z</time>
      </trkpt>
      <trkpt lat="41.91122" lon="0.8912">
        <ele>531.8</ele>
        <time>2019-01-31T15:03:31Z</time>
      </trkpt>
      <trkpt lat="41.9112" lon="0.89107">
        <ele>533.8</ele>
        <time>2019-01-31T15:03:37Z</time>
      </trkpt>
      <trkpt lat="41.91118" lon="0.89095">
        <ele>535.6</ele>
        <time>2019-01-31T15:03:43Z</time>
      </trkpt>
      <trkpt lat="41.91128" lon="0.89098">
        <ele>538.1</ele>
        <time>2019-01-31T15:03:49Z</time>
      </trkpt>
      <trkpt lat="41.91136" lon="0.89106">
        <ele>539.4</ele>
        <time>2019-01-31T15:03:54Z</time>
      </trkpt>
      <trkpt lat="41.91144" lon="0.89114">
        <ele>540.4</ele>
        <time>2019-01-31T15:04:00Z</time>
      </trkpt>
      <trkpt lat="41.91152" lon="0.89122">
        <ele>541.9</ele>
        <time>2019-01-31T15:04:06Z</time>
      </trkpt>
      <trkpt lat="41.91159" lon="0.89131">
        <ele>543.3</ele>
        <time>2019-01-31T15:04:11Z</time>
      </trkpt>
      <trkpt lat="41.91166" lon="0.89133">
        <ele>544.7</ele>
        <time>2019-01-31T15:04:15Z</time>
      </trkpt>
      <trkpt lat="41.9116" lon="0.89123">
        <ele>545.7</ele>
        <time>2019-01-31T15:04:20Z</time>
      </trkpt>
      <trkpt lat="41.91156" lon="0.89111">
        <ele>548.1</ele>
        <time>2019-01-31T15:04:26Z</time>
      </trkpt>
      <trkpt lat="41.91151" lon="0.89099">
        <ele>549.1</ele>
        <time>2019-01-31T15:04:32Z</time>
      </trkpt>
      <trkpt lat="41.91155" lon="0.89092">
        <ele>551.5</ele>
        <time>2019-01-31T15:04:36Z</time>
      </trkpt>
      <trkpt lat="41.91164" lon="0.89098">
        <ele>552.9</ele>
        <time>2019-01-31T15:04:41Z</time>
      </trkpt>
      <trkpt lat="41.91173" lon="0.89105">
        <ele>554.9</ele>
        <time>2019-01-31T15:04:48Z</time>
      </trkpt>
      <trkpt lat="41.91181" lon="0.89112">
        <ele>556.3</ele>
        <time>2019-01-31T15:04:53Z</time>
      </trkpt>
      <trkpt lat="41.9119" lon="0.89119">
        <ele>557.8</ele>
        <time>2019-01-31T15:04:59Z</time>
      </trkpt>
      <trkpt lat="41.91198" lon="0.89124">
        <ele>559.7</ele>
        <time>2019-01-31T15:05:04Z</time>
      </trkpt>
      <trkpt lat="41.91195" lon="0.89115">
        <ele>562.5</ele>
        <time>2019-01-31T15:05:09Z</time>
      </trkpt>
      <trkpt lat="41.91191" lon="0.89102">
        <ele>564.9</ele>
        <time>2019-01-31T15:05:14Z</time>
      </trkpt>
      <trkpt lat="41.91189" lon="0.89091">
        <ele>566.5</ele>
        <time>2019-01-31T15:05:19Z</time>
      </trkpt>
      <trkpt lat="41.91184" lon="0.89079">
        <ele>568.9</ele>
        <time>2019-01-31T15:05:25Z</time>
      </trkpt>
      <trkpt lat="41.91186" lon="0.89071">
        <ele>570.7</ele>
        <time>2019-01-31T15:05:29Z</time>
      </trkpt>
      <trkpt lat="41.91195" lon="0.89079">
        <ele>572.1</ele>
        <time>2019-01-31T15:05:35Z</time>
      </trkpt>
      <trkpt lat="41.91203" lon="0.89086">
        <ele>573.1</ele>
        <time>2019-01-31T15:05:40Z</time>
      </trkpt>
      <trkpt lat="41.91212" lon="0.89094">
        <ele>574.5</ele>
        <time>2019-01-31T15:05:46Z</time>
      </trkpt>
      <trkpt lat="41.91219" lon="0.89098">
        <ele>576.1</ele>
        <time>2019-01-31T15:05:51Z</time>
      </trkpt>
      <trkpt lat="41.91215" lon="0.89088">
        <ele>578.5</ele>
        <time>2019-01-31T15:05:56Z</time>
      </trkpt>
      <trkpt lat="41.91212" lon="0.89075">
        <ele>580.4</ele>
        <time>2019-01-31T15:06:01Z</time>
      </trkpt>
      <trkpt lat="41.91209" lon="0.89063">
        <ele>582.7</ele>
        <time>2019-01-31T15:06:07Z</time>
      </trkpt>
      <trkpt lat="41.91206" lon="0.89052">
        <ele>584.7</ele>
        <time>2019-01-31T15:06:11Z</time>
      </trkpt>
      <trkpt lat="41.91209" lon="0.89047">
        <ele>586.5</ele>
        <time>2019-01-31T15:06:14Z</time>
      </trkpt>
      <trkpt lat="41.91217" lon="0.89054">
        <ele>588.1</ele>
        <time>2019-01-31T15:06:20Z</time>
      </trkpt>
      <trkpt lat="41.91226" lon="0.89061">
        <ele>590</ele>
        <time>2019-01-31T15:06:26Z</time>
      </trkpt>
      <trkpt lat="41.91235" lon="0.89067">
        <ele>591.9</ele>
        <time>2019-01-31T15:06:32Z</time>
      </trkpt>
      <trkpt lat="41.91243" lon="0.89076">
        <ele>593.3</ele>
        <time>2019-01-31T15:06:37Z</time>
      </trkpt>
      <trkpt lat="41.91251" lon="0.89082">
        <ele>594.2</ele>
        <time>2019-01-31T15:06:43Z</time>
      </trkpt>
      <trkpt lat="41.91244" lon="0.89073">
        <ele>595.8</ele>
        <time>2019-01-31T15:06:48Z</time>
      </trkpt>
      <trkpt lat="41.91239" lon="0.89062">
        <ele>596.6</ele>
        <time>2019-01-31T15:06:53Z</time>
      </trkpt>
      <trkpt lat="41.91234" lon="0.89051">
        <ele>597.7</ele>
        <time>2019-01-31T15:06:59Z</time>
      </trkpt>
      <trkpt lat="41.91229" lon="0.89039">
        <ele>598.6</ele>
        <time>2019-01-31T15:07:05Z</time>
      </trkpt>
      <trkpt lat="41.91225" lon="0.89029">
        <ele>600.1</ele>
        <time>2019-01-31T15:07:10Z</time>
      </trkpt>
      <trkpt lat="41.9122" lon="0.89018">
        <ele>601.4</ele>
        <time>2019-01-31T15:07:15Z</time>
      </trkpt>
      <trkpt lat="41.91215" lon="0.89007">
        <ele>601.9</ele>
        <time>2019-01-31T15:07:21Z</time>
      </trkpt>
      <trkpt lat="41.9122" lon="0.89002">
        <ele>604.3</ele>
        <time>2019-01-31T15:07:25Z</time>
      </trkpt>
      <trkpt lat="41.91229" lon="0.89004">
        <ele>607.7</ele>
        <time>2019-01-31T15:07:30Z</time>
      </trkpt>
      <trkpt lat="41.91239" lon="0.8901">
        <ele>610.6</ele>
        <time>2019-01-31T15:07:36Z</time>
      </trkpt>
      <trkpt lat="41.91247" lon="0.89016">
        <ele>612</ele>
        <time>2019-01-31T15:07:41Z</time>
      </trkpt>
      <trkpt lat="41.91255" lon="0.89021">
        <ele>614.4</ele>
        <time>2019-01-31T15:07:46Z</time>
      </trkpt>
      <trkpt lat="41.91264" lon="0.89027">
        <ele>616.4</ele>
        <time>2019-01-31T15:07:52Z</time>
      </trkpt>
      <trkpt lat="41.91272" lon="0.89036">
        <ele>617.9</ele>
        <time>2019-01-31T15:07:58Z</time>
      </trkpt>
      <trkpt lat="41.91271" lon="0.89031">
        <ele>619.7</ele>
        <time>2019-01-31T15:08:00Z</time>
      </trkpt>
      <trkpt lat="41.91268" lon="0.89019">
        <ele>620.2</ele>
        <time>2019-01-31T15:08:06Z</time>
      </trkpt>
      <trkpt lat="41.91274" lon="0.89017">
        <ele>622.1</ele>
        <time>2019-01-31T15:08:09Z</time>
      </trkpt>
      <trkpt lat="41.91282" lon="0.89027">
        <ele>624.1</ele>
        <time>2019-01-31T15:08:15Z</time>
      </trkpt>
      <trkpt lat="41.9129" lon="0.89035">
        <ele>625.6</ele>
        <time>2019-01-31T15:08:21Z</time>
      </trkpt>
      <trkpt lat="41.91299" lon="0.89042">
        <ele>626.5</ele>
        <time>2019-01-31T15:08:27Z</time>
      </trkpt>
      <trkpt lat="41.91307" lon="0.89051">
        <ele>628</ele>
        <time>2019-01-31T15:08:33Z</time>
      </trkpt>
      <trkpt lat="41.91316" lon="0.89058">
        <ele>628.5</ele>
        <time>2019-01-31T15:08:39Z</time>
      </trkpt>
      <trkpt lat="41.91324" lon="0.89067">
        <ele>629.3</ele>
        <time>2019-01-31T15:08:45Z</time>
      </trkpt>
      <trkpt lat="41.9133" lon="0.89076">
        <ele>630.3</ele>
        <time>2019-01-31T15:08:50Z</time>
      </trkpt>
      <trkpt lat="41.91338" lon="0.89085">
        <ele>631.7</ele>
        <time>2019-01-31T15:08:56Z</time>
      </trkpt>
      <trkpt lat="41.91344" lon="0.89096">
        <ele>632.8</ele>
        <time>2019-01-31T15:09:02Z</time>
      </trkpt>
      <trkpt lat="41.9135" lon="0.89107">
        <ele>634.1</ele>
        <time>2019-01-31T15:09:08Z</time>
      </trkpt>
      <trkpt lat="41.91357" lon="0.89118">
        <ele>635.7</ele>
        <time>2019-01-31T15:09:14Z</time>
      </trkpt>
      <trkpt lat="41.91363" lon="0.8913">
        <ele>636.6</ele>
        <time>2019-01-31T15:09:20Z</time>
      </trkpt>
      <trkpt lat="41.91369" lon="0.89139">
        <ele>637</ele>
        <time>2019-01-31T15:09:25Z</time>
      </trkpt>
      <trkpt lat="41.91366" lon="0.89128">
        <ele>639</ele>
        <time>2019-01-31T15:09:30Z</time>
      </trkpt>
      <trkpt lat="41.91363" lon="0.89116">
        <ele>640.5</ele>
        <time>2019-01-31T15:09:36Z</time>
      </trkpt>
      <trkpt lat="41.9136" lon="0.89103">
        <ele>641.4</ele>
        <time>2019-01-31T15:09:41Z</time>
      </trkpt>
      <trkpt lat="41.91356" lon="0.89091">
        <ele>642.4</ele>
        <time>2019-01-31T15:09:47Z</time>
      </trkpt>
      <trkpt lat="41.91353" lon="0.89079">
        <ele>643.3</ele>
        <time>2019-01-31T15:09:52Z</time>
      </trkpt>
      <trkpt lat="41.9135" lon="0.89065">
        <ele>644.7</ele>
        <time>2019-01-31T15:09:58Z</time>
      </trkpt>
      <trkpt lat="41.91346" lon="0.89052">
        <ele>645.8</ele>
        <time>2019-01-31T15:10:04Z</time>
      </trkpt>
      <trkpt lat="41.91344" lon="0.8904">
        <ele>647.7</ele>
        <time>2019-01-31T15:10:09Z</time>
      </trkpt>
      <trkpt lat="41.91342" lon="0.89028">
        <ele>648.2</ele>
        <time>2019-01-31T15:10:15Z</time>
      </trkpt>
      <trkpt lat="41.91339" lon="0.89015">
        <ele>649.6</ele>
        <time>2019-01-31T15:10:21Z</time>
      </trkpt>
      <trkpt lat="41.91337" lon="0.89003">
        <ele>651.1</ele>
        <time>2019-01-31T15:10:26Z</time>
      </trkpt>
      <trkpt lat="41.91344" lon="0.8901">
        <ele>652.5</ele>
        <time>2019-01-31T15:10:31Z</time>
      </trkpt>
      <trkpt lat="41.91351" lon="0.89021">
        <ele>653</ele>
        <time>2019-01-31T15:10:37Z</time>
      </trkpt>
      <trkpt lat="41.91359" lon="0.89031">
        <ele>654.9</ele>
        <time>2019-01-31T15:10:43Z</time>
      </trkpt>
      <trkpt lat="41.91365" lon="0.89041">
        <ele>656.7</ele>
        <time>2019-01-31T15:10:49Z</time>
      </trkpt>
      <trkpt lat="41.91373" lon="0.8905">
        <ele>658.6</ele>
        <time>2019-01-31T15:10:55Z</time>
      </trkpt>
      <trkpt lat="41.9138" lon="0.8906">
        <ele>660.6</ele>
        <time>2019-01-31T15:11:01Z</time>
      </trkpt>
      <trkpt lat="41.9138" lon="0.89055">
        <ele>661.5</ele>
        <time>2019-01-31T15:11:03Z</time>
      </trkpt>
      <trkpt lat="41.91375" lon="0.89045">
        <ele>663.6</ele>
        <time>2019-01-31T15:11:08Z</time>
      </trkpt>
      <trkpt lat="41.91373" lon="0.89033">
        <ele>665</ele>
        <time>2019-01-31T15:11:13Z</time>
      </trkpt>
      <trkpt lat="41.91369" lon="0.89019">
        <ele>666</ele>
        <time>2019-01-31T15:11:19Z</time>
      </trkpt>
      <trkpt lat="41.91368" lon="0.89007">
        <ele>667.3</ele>
        <time>2019-01-31T15:11:25Z</time>
      </trkpt>
      <trkpt lat="41.91368" lon="0.88993">
        <ele>668.8</ele>
        <time>2019-01-31T15:11:31Z</time>
      </trkpt>
      <trkpt lat="41.91369" lon="0.8898">
        <ele>669.7</ele>
        <time>2019-01-31T15:11:36Z</time>
      </trkpt>
      <trkpt lat="41.91372" lon="0.88967">
        <ele>671.7</ele>
        <time>2019-01-31T15:11:42Z</time>
      </trkpt>
      <trkpt lat="41.91375" lon="0.88954">
        <ele>673.2</ele>
        <time>2019-01-31T15:11:48Z</time>
      </trkpt>
      <trkpt lat="41.91385" lon="0.88951">
        <ele>673.6</ele>
        <time>2019-01-31T15:11:54Z</time>
      </trkpt>
      <trkpt lat="41.91392" lon="0.88961">
        <ele>674.1</ele>
        <time>2019-01-31T15:12:00Z</time>
      </trkpt>
      <trkpt lat="41.91401" lon="0.88968">
        <ele>675</ele>
        <time>2019-01-31T15:12:06Z</time>
      </trkpt>
      <trkpt lat="41.91406" lon="0.8898">
        <ele>675.5</ele>
        <time>2019-01-31T15:12:11Z</time>
      </trkpt>
      <trkpt lat="41.91408" lon="0.88992">
        <ele>676.9</ele>
        <time>2019-01-31T15:12:17Z</time>
      </trkpt>
      <trkpt lat="41.91407" lon="0.89006">
        <ele>677.9</ele>
        <time>2019-01-31T15:12:23Z</time>
      </trkpt>
      <trkpt lat="41.91413" lon="0.89016">
        <ele>678.9</ele>
        <time>2019-01-31T15:12:28Z</time>
      </trkpt>
      <trkpt lat="41.91419" lon="0.89029">
        <ele>680.4</ele>
        <time>2019-01-31T15:12:35Z</time>
      </trkpt>
      <trkpt lat="41.91424" lon="0.8904">
        <ele>681.2</ele>
        <time>2019-01-31T15:12:40Z</time>
      </trkpt>
      <trkpt lat="41.9143" lon="0.89052">
        <ele>682.8</ele>
        <time>2019-01-31T15:12:46Z</time>
      </trkpt>
      <trkpt lat="41.91435" lon="0.89063">
        <ele>683.7</ele>
        <time>2019-01-31T15:12:52Z</time>
      </trkpt>
      <trkpt lat="41.91441" lon="0.89075">
        <ele>684.1</ele>
        <time>2019-01-31T15:12:58Z</time>
      </trkpt>
      <trkpt lat="41.91446" lon="0.89087">
        <ele>685.2</ele>
        <time>2019-01-31T15:13:04Z</time>
      </trkpt>
      <trkpt lat="41.9145" lon="0.891">
        <ele>685.2</ele>
        <time>2019-01-31T15:13:10Z</time>
      </trkpt>
      <trkpt lat="41.91454" lon="0.89112">
        <ele>685.1</ele>
        <time>2019-01-31T15:13:15Z</time>
      </trkpt>
      <trkpt lat="41.91458" lon="0.89125">
        <ele>685.1</ele>
        <time>2019-01-31T15:13:21Z</time>
      </trkpt>
      <trkpt lat="41.91461" lon="0.89139">
        <ele>685.1</ele>
        <time>2019-01-31T15:13:27Z</time>
      </trkpt>
      <trkpt lat="41.91466" lon="0.89152">
        <ele>685.2</ele>
        <time>2019-01-31T15:13:34Z</time>
      </trkpt>
      <trkpt lat="41.91471" lon="0.89165">
        <ele>685.2</ele>
        <time>2019-01-31T15:13:40Z</time>
      </trkpt>
      <trkpt lat="41.91477" lon="0.89178">
        <ele>685.2</ele>
        <time>2019-01-31T15:13:46Z</time>
      </trkpt>
      <trkpt lat="41.91482" lon="0.8919">
        <ele>683.6</ele>
        <time>2019-01-31T15:13:52Z</time>
      </trkpt>
      <trkpt lat="41.91487" lon="0.89203">
        <ele>683.3</ele>
        <time>2019-01-31T15:13:58Z</time>
      </trkpt>
      <trkpt lat="41.91491" lon="0.89216">
        <ele>682.2</ele>
        <time>2019-01-31T15:14:04Z</time>
      </trkpt>
      <trkpt lat="41.91496" lon="0.89226">
        <ele>681.7</ele>
        <time>2019-01-31T15:14:10Z</time>
      </trkpt>
      <trkpt lat="41.91502" lon="0.89239">
        <ele>680.3</ele>
        <time>2019-01-31T15:14:16Z</time>
      </trkpt>
      <trkpt lat="41.91509" lon="0.89249">
        <ele>678.5</ele>
        <time>2019-01-31T15:14:22Z</time>
      </trkpt>
      <trkpt lat="41.91518" lon="0.89253">
        <ele>675.9</ele>
        <time>2019-01-31T15:14:28Z</time>
      </trkpt>
      <trkpt lat="41.91528" lon="0.89253">
        <ele>672.6</ele>
        <time>2019-01-31T15:14:33Z</time>
      </trkpt>
      <trkpt lat="41.91538" lon="0.89253">
        <ele>669.7</ele>
        <time>2019-01-31T15:14:39Z</time>
      </trkpt>
      <trkpt lat="41.91547" lon="0.89254">
        <ele>666</ele>
        <time>2019-01-31T15:14:44Z</time>
      </trkpt>
      <trkpt lat="41.91557" lon="0.89256">
        <ele>662.1</ele>
        <time>2019-01-31T15:14:50Z</time>
      </trkpt>
      <trkpt lat="41.91567" lon="0.89256">
        <ele>658.7</ele>
        <time>2019-01-31T15:14:56Z</time>
      </trkpt>
      <trkpt lat="41.91577" lon="0.89254">
        <ele>655.9</ele>
        <time>2019-01-31T15:15:01Z</time>
      </trkpt>
      <trkpt lat="41.91587" lon="0.89252">
        <ele>652.9</ele>
        <time>2019-01-31T15:15:08Z</time>
      </trkpt>
      <trkpt lat="41.91597" lon="0.8925">
        <ele>651.1</ele>
        <time>2019-01-31T15:15:13Z</time>
      </trkpt>
      <trkpt lat="41.91608" lon="0.89248">
        <ele>648.6</ele>
        <time>2019-01-31T15:15:20Z</time>
      </trkpt>
      <trkpt lat="41.91619" lon="0.89248">
        <ele>645.3</ele>
        <time>2019-01-31T15:15:26Z</time>
      </trkpt>
      <trkpt lat="41.91629" lon="0.89253">
        <ele>641.4</ele>
        <time>2019-01-31T15:15:32Z</time>
      </trkpt>
      <trkpt lat="41.91638" lon="0.89258">
        <ele>637</ele>
        <time>2019-01-31T15:15:37Z</time>
      </trkpt>
      <trkpt lat="41.91648" lon="0.89262">
        <ele>633.2</ele>
        <time>2019-01-31T15:15:43Z</time>
      </trkpt>
      <trkpt lat="41.91659" lon="0.89264">
        <ele>629.3</ele>
        <time>2019-01-31T15:15:50Z</time>
      </trkpt>
      <trkpt lat="41.91669" lon="0.89265">
        <ele>627</ele>
        <time>2019-01-31T15:15:55Z</time>
      </trkpt>
      <trkpt lat="41.91679" lon="0.8927">
        <ele>623.2</ele>
        <time>2019-01-31T15:16:02Z</time>
      </trkpt>
      <trkpt lat="41.91687" lon="0.89278">
        <ele>619.7</ele>
        <time>2019-01-31T15:16:07Z</time>
      </trkpt>
      <trkpt lat="41.91696" lon="0.89287">
        <ele>615.9</ele>
        <time>2019-01-31T15:16:14Z</time>
      </trkpt>
      <trkpt lat="41.91705" lon="0.89293">
        <ele>612.1</ele>
        <time>2019-01-31T15:16:19Z</time>
      </trkpt>
      <trkpt lat="41.91715" lon="0.89299">
        <ele>607.8</ele>
        <time>2019-01-31T15:16:25Z</time>
      </trkpt>
      <trkpt lat="41.91723" lon="0.89307">
        <ele>605.3</ele>
        <time>2019-01-31T15:16:32Z</time>
      </trkpt>
      <trkpt lat="41.91733" lon="0.89314">
        <ele>601.4</ele>
        <time>2019-01-31T15:16:38Z</time>
      </trkpt>
      <trkpt lat="41.91743" lon="0.8932">
        <ele>598.1</ele>
        <time>2019-01-31T15:16:44Z</time>
      </trkpt>
      <trkpt lat="41.91753" lon="0.89325">
        <ele>593.3</ele>
        <time>2019-01-31T15:16:50Z</time>
      </trkpt>
      <trkpt lat="41.91763" lon="0.89326">
        <ele>589</ele>
        <time>2019-01-31T15:16:56Z</time>
      </trkpt>
      <trkpt lat="41.91772" lon="0.8933">
        <ele>585.6</ele>
        <time>2019-01-31T15:17:01Z</time>
      </trkpt>
      <trkpt lat="41.91783" lon="0.89333">
        <ele>581.7</ele>
        <time>2019-01-31T15:17:07Z</time>
      </trkpt>
      <trkpt lat="41.91794" lon="0.89334">
        <ele>579</ele>
        <time>2019-01-31T15:17:14Z</time>
      </trkpt>
      <trkpt lat="41.91805" lon="0.89338">
        <ele>575.1</ele>
        <time>2019-01-31T15:17:20Z</time>
      </trkpt>
      <trkpt lat="41.91813" lon="0.89343">
        <ele>572.2</ele>
        <time>2019-01-31T15:17:25Z</time>
      </trkpt>
      <trkpt lat="41.91822" lon="0.89343">
        <ele>569.8</ele>
        <time>2019-01-31T15:17:31Z</time>
      </trkpt>
      <trkpt lat="41.91832" lon="0.89341">
        <ele>571.2</ele>
        <time>2019-01-31T15:17:36Z</time>
      </trkpt>
      <trkpt lat="41.91842" lon="0.89337">
        <ele>572.2</ele>
        <time>2019-01-31T15:17:42Z</time>
      </trkpt>
      <trkpt lat="41.91852" lon="0.89334">
        <ele>574</ele>
        <time>2019-01-31T15:17:48Z</time>
      </trkpt>
      <trkpt lat="41.91863" lon="0.89333">
        <ele>574.1</ele>
        <time>2019-01-31T15:17:54Z</time>
      </trkpt>
      <trkpt lat="41.91872" lon="0.89327">
        <ele>575.5</ele>
        <time>2019-01-31T15:18:00Z</time>
      </trkpt>
      <trkpt lat="41.9188" lon="0.89322">
        <ele>576.5</ele>
        <time>2019-01-31T15:18:05Z</time>
      </trkpt>
      <trkpt lat="41.91888" lon="0.89313">
        <ele>577.4</ele>
        <time>2019-01-31T15:18:11Z</time>
      </trkpt>
      <trkpt lat="41.91898" lon="0.89307">
        <ele>578.4</ele>
        <time>2019-01-31T15:18:17Z</time>
      </trkpt>
      <trkpt lat="41.91909" lon="0.89301">
        <ele>578.9</ele>
        <time>2019-01-31T15:18:24Z</time>
      </trkpt>
      <trkpt lat="41.91919" lon="0.89297">
        <ele>580.3</ele>
        <time>2019-01-31T15:18:30Z</time>
      </trkpt>
      <trkpt lat="41.91931" lon="0.89294">
        <ele>581.3</ele>
        <time>2019-01-31T15:18:37Z</time>
      </trkpt>
      <trkpt lat="41.91942" lon="0.8929">
        <ele>582.8</ele>
        <time>2019-01-31T15:18:44Z</time>
      </trkpt>
      <trkpt lat="41.91953" lon="0.89282">
        <ele>584.2</ele>
        <time>2019-01-31T15:18:51Z</time>
      </trkpt>
      <trkpt lat="41.9196" lon="0.89273">
        <ele>584.6</ele>
        <time>2019-01-31T15:18:56Z</time>
      </trkpt>
      <trkpt lat="41.91968" lon="0.89265">
        <ele>585.2</ele>
        <time>2019-01-31T15:19:02Z</time>
      </trkpt>
      <trkpt lat="41.91976" lon="0.89254">
        <ele>586.5</ele>
        <time>2019-01-31T15:19:09Z</time>
      </trkpt>
      <trkpt lat="41.91986" lon="0.89249">
        <ele>589.4</ele>
        <time>2019-01-31T15:19:15Z</time>
      </trkpt>
      <trkpt lat="41.91991" lon="0.89261">
        <ele>592.3</ele>
        <time>2019-01-31T15:19:21Z</time>
      </trkpt>
      <trkpt lat="41.91999" lon="0.89266">
        <ele>596.3</ele>
        <time>2019-01-31T15:19:26Z</time>
      </trkpt>
      <trkpt lat="41.92005" lon="0.89276">
        <ele>599.5</ele>
        <time>2019-01-31T15:19:31Z</time>
      </trkpt>
      <trkpt lat="41.92015" lon="0.89274">
        <ele>603.4</ele>
        <time>2019-01-31T15:19:37Z</time>
      </trkpt>
      <trkpt lat="41.92024" lon="0.8927">
        <ele>605.9</ele>
        <time>2019-01-31T15:19:43Z</time>
      </trkpt>
      <trkpt lat="41.9203" lon="0.89261">
        <ele>607.7</ele>
        <time>2019-01-31T15:19:48Z</time>
      </trkpt>
      <trkpt lat="41.92038" lon="0.89252">
        <ele>610.6</ele>
        <time>2019-01-31T15:19:54Z</time>
      </trkpt>
      <trkpt lat="41.92048" lon="0.89247">
        <ele>613.6</ele>
        <time>2019-01-31T15:20:00Z</time>
      </trkpt>
      <trkpt lat="41.92057" lon="0.89241">
        <ele>616</ele>
        <time>2019-01-31T15:20:06Z</time>
      </trkpt>
      <trkpt lat="41.92062" lon="0.89254">
        <ele>617.3</ele>
        <time>2019-01-31T15:20:12Z</time>
      </trkpt>
      <trkpt lat="41.92062" lon="0.89266">
        <ele>615.9</ele>
        <time>2019-01-31T15:20:17Z</time>
      </trkpt>
      <trkpt lat="41.92063" lon="0.89279">
        <ele>615.9</ele>
        <time>2019-01-31T15:20:22Z</time>
      </trkpt>
      <trkpt lat="41.92063" lon="0.89294">
        <ele>617.8</ele>
        <time>2019-01-31T15:20:29Z</time>
      </trkpt>
      <trkpt lat="41.92063" lon="0.89307">
        <ele>619.2</ele>
        <time>2019-01-31T15:20:34Z</time>
      </trkpt>
      <trkpt lat="41.92066" lon="0.89321">
        <ele>622.2</ele>
        <time>2019-01-31T15:20:40Z</time>
      </trkpt>
      <trkpt lat="41.92068" lon="0.89335">
        <ele>624.5</ele>
        <time>2019-01-31T15:20:46Z</time>
      </trkpt>
      <trkpt lat="41.9207" lon="0.89349">
        <ele>627.4</ele>
        <time>2019-01-31T15:20:53Z</time>
      </trkpt>
      <trkpt lat="41.92072" lon="0.89363">
        <ele>629.9</ele>
        <time>2019-01-31T15:20:58Z</time>
      </trkpt>
      <trkpt lat="41.92074" lon="0.89376">
        <ele>632.8</ele>
        <time>2019-01-31T15:21:04Z</time>
      </trkpt>
      <trkpt lat="41.92077" lon="0.8939">
        <ele>635.1</ele>
        <time>2019-01-31T15:21:10Z</time>
      </trkpt>
      <trkpt lat="41.92079" lon="0.89403">
        <ele>637</ele>
        <time>2019-01-31T15:21:16Z</time>
      </trkpt>
      <trkpt lat="41.92079" lon="0.89416">
        <ele>638.6</ele>
        <time>2019-01-31T15:21:22Z</time>
      </trkpt>
      <trkpt lat="41.9208" lon="0.89429">
        <ele>640.5</ele>
        <time>2019-01-31T15:21:27Z</time>
      </trkpt>
      <trkpt lat="41.9208" lon="0.89443">
        <ele>642.3</ele>
        <time>2019-01-31T15:21:33Z</time>
      </trkpt>
      <trkpt lat="41.9208" lon="0.89458">
        <ele>643.7</ele>
        <time>2019-01-31T15:21:39Z</time>
      </trkpt>
      <trkpt lat="41.9208" lon="0.8947">
        <ele>645.2</ele>
        <time>2019-01-31T15:21:45Z</time>
      </trkpt>
      <trkpt lat="41.9208" lon="0.89485">
        <ele>647.1</ele>
        <time>2019-01-31T15:21:51Z</time>
      </trkpt>
      <trkpt lat="41.92082" lon="0.895">
        <ele>649</ele>
        <time>2019-01-31T15:21:57Z</time>
      </trkpt>
      <trkpt lat="41.92083" lon="0.89514">
        <ele>651</ele>
        <time>2019-01-31T15:22:03Z</time>
      </trkpt>
      <trkpt lat="41.92083" lon="0.89527">
        <ele>652</ele>
        <time>2019-01-31T15:22:09Z</time>
      </trkpt>
      <trkpt lat="41.92084" lon="0.89542">
        <ele>653.4</ele>
        <time>2019-01-31T15:22:15Z</time>
      </trkpt>
      <trkpt lat="41.92086" lon="0.89555">
        <ele>654.9</ele>
        <time>2019-01-31T15:22:21Z</time>
      </trkpt>
      <trkpt lat="41.92089" lon="0.8957">
        <ele>655.4</ele>
        <time>2019-01-31T15:22:28Z</time>
      </trkpt>
      <trkpt lat="41.92093" lon="0.89584">
        <ele>655.9</ele>
        <time>2019-01-31T15:22:34Z</time>
      </trkpt>
      <trkpt lat="41.92098" lon="0.89597">
        <ele>655.3</ele>
        <time>2019-01-31T15:22:40Z</time>
      </trkpt>
      <trkpt lat="41.92102" lon="0.89611">
        <ele>655.3</ele>
        <time>2019-01-31T15:22:47Z</time>
      </trkpt>
      <trkpt lat="41.92108" lon="0.89624">
        <ele>655.3</ele>
        <time>2019-01-31T15:22:53Z</time>
      </trkpt>
      <trkpt lat="41.92113" lon="0.89636">
        <ele>655.3</ele>
        <time>2019-01-31T15:22:59Z</time>
      </trkpt>
      <trkpt lat="41.92119" lon="0.8965">
        <ele>655.4</ele>
        <time>2019-01-31T15:23:06Z</time>
      </trkpt>
      <trkpt lat="41.92123" lon="0.89665">
        <ele>655.4</ele>
        <time>2019-01-31T15:23:13Z</time>
      </trkpt>
      <trkpt lat="41.92126" lon="0.89678">
        <ele>653.5</ele>
        <time>2019-01-31T15:23:19Z</time>
      </trkpt>
      <trkpt lat="41.92128" lon="0.89692">
        <ele>652.9</ele>
        <time>2019-01-31T15:23:25Z</time>
      </trkpt>
      <trkpt lat="41.9213" lon="0.89709">
        <ele>652.5</ele>
        <time>2019-01-31T15:23:32Z</time>
      </trkpt>
      <trkpt lat="41.9213" lon="0.89722">
        <ele>652</ele>
        <time>2019-01-31T15:23:37Z</time>
      </trkpt>
      <trkpt lat="41.9213" lon="0.89736">
        <ele>651.4</ele>
        <time>2019-01-31T15:23:43Z</time>
      </trkpt>
      <trkpt lat="41.9213" lon="0.8975">
        <ele>651.5</ele>
        <time>2019-01-31T15:23:49Z</time>
      </trkpt>
      <trkpt lat="41.9213" lon="0.89764">
        <ele>651</ele>
        <time>2019-01-31T15:23:55Z</time>
      </trkpt>
      <trkpt lat="41.92129" lon="0.8978">
        <ele>650.5</ele>
        <time>2019-01-31T15:24:02Z</time>
      </trkpt>
      <trkpt lat="41.92127" lon="0.89797">
        <ele>650</ele>
        <time>2019-01-31T15:24:09Z</time>
      </trkpt>
      <trkpt lat="41.92127" lon="0.8981">
        <ele>649.5</ele>
        <time>2019-01-31T15:24:15Z</time>
      </trkpt>
      <trkpt lat="41.92125" lon="0.89824">
        <ele>649.6</ele>
        <time>2019-01-31T15:24:21Z</time>
      </trkpt>
      <trkpt lat="41.92123" lon="0.8984">
        <ele>649.6</ele>
        <time>2019-01-31T15:24:28Z</time>
      </trkpt>
      <trkpt lat="41.92122" lon="0.89857">
        <ele>649.5</ele>
        <time>2019-01-31T15:24:35Z</time>
      </trkpt>
      <trkpt lat="41.92124" lon="0.89872">
        <ele>649.6</ele>
        <time>2019-01-31T15:24:41Z</time>
      </trkpt>
      <trkpt lat="41.92128" lon="0.89885">
        <ele>649.1</ele>
        <time>2019-01-31T15:24:47Z</time>
      </trkpt>
      <trkpt lat="41.92132" lon="0.89898">
        <ele>648.2</ele>
        <time>2019-01-31T15:24:53Z</time>
      </trkpt>
      <trkpt lat="41.92136" lon="0.8991">
        <ele>648.2</ele>
        <time>2019-01-31T15:24:59Z</time>
      </trkpt>
      <trkpt lat="41.92141" lon="0.89922">
        <ele>647.6</ele>
        <time>2019-01-31T15:25:05Z</time>
      </trkpt>
      <trkpt lat="41.92145" lon="0.89936">
        <ele>646.6</ele>
        <time>2019-01-31T15:25:11Z</time>
      </trkpt>
      <trkpt lat="41.9215" lon="0.89948">
        <ele>646.1</ele>
        <time>2019-01-31T15:25:17Z</time>
      </trkpt>
      <trkpt lat="41.92155" lon="0.89961">
        <ele>645.7</ele>
        <time>2019-01-31T15:25:23Z</time>
      </trkpt>
      <trkpt lat="41.92159" lon="0.89973">
        <ele>645.8</ele>
        <time>2019-01-31T15:25:29Z</time>
      </trkpt>
      <trkpt lat="41.92163" lon="0.89985">
        <ele>645.2</ele>
        <time>2019-01-31T15:25:35Z</time>
      </trkpt>
      <trkpt lat="41.92167" lon="0.89998">
        <ele>644.8</ele>
        <time>2019-01-31T15:25:41Z</time>
      </trkpt>
      <trkpt lat="41.9217" lon="0.90012">
        <ele>644.2</ele>
        <time>2019-01-31T15:25:47Z</time>
      </trkpt>
      <trkpt lat="41.92173" lon="0.90026">
        <ele>643.7</ele>
        <time>2019-01-31T15:25:53Z</time>
      </trkpt>
      <trkpt lat="41.92175" lon="0.90041">
        <ele>643.3</ele>
        <time>2019-01-31T15:25:59Z</time>
      </trkpt>
      <trkpt lat="41.92176" lon="0.90055">
        <ele>642.9</ele>
        <time>2019-01-31T15:26:05Z</time>
      </trkpt>
      <trkpt lat="41.92178" lon="0.90069">
        <ele>642.9</ele>
        <time>2019-01-31T15:26:12Z</time>
      </trkpt>
      <trkpt lat="41.9218" lon="0.90083">
        <ele>642.3</ele>
        <time>2019-01-31T15:26:17Z</time>
      </trkpt>
      <trkpt lat="41.92183" lon="0.90095">
        <ele>641.9</ele>
        <time>2019-01-31T15:26:23Z</time>
      </trkpt>
      <trkpt lat="41.92186" lon="0.90108">
        <ele>641.8</ele>
        <time>2019-01-31T15:26:29Z</time>
      </trkpt>
      <trkpt lat="41.92188" lon="0.90122">
        <ele>641.8</ele>
        <time>2019-01-31T15:26:34Z</time>
      </trkpt>
      <trkpt lat="41.92191" lon="0.90135">
        <ele>641.4</ele>
        <time>2019-01-31T15:26:40Z</time>
      </trkpt>
      <trkpt lat="41.92195" lon="0.90147">
        <ele>641.3</ele>
        <time>2019-01-31T15:26:46Z</time>
      </trkpt>
      <trkpt lat="41.92199" lon="0.90159">
        <ele>641</ele>
        <time>2019-01-31T15:26:52Z</time>
      </trkpt>
      <trkpt lat="41.922" lon="0.90172">
        <ele>640.5</ele>
        <time>2019-01-31T15:26:57Z</time>
      </trkpt>
      <trkpt lat="41.92199" lon="0.90185">
        <ele>640.4</ele>
        <time>2019-01-31T15:27:03Z</time>
      </trkpt>
      <trkpt lat="41.92196" lon="0.90198">
        <ele>640.4</ele>
        <time>2019-01-31T15:27:09Z</time>
      </trkpt>
      <trkpt lat="41.92194" lon="0.90213">
        <ele>640.5</ele>
        <time>2019-01-31T15:27:15Z</time>
      </trkpt>
      <trkpt lat="41.92194" lon="0.90227">
        <ele>640.4</ele>
        <time>2019-01-31T15:27:21Z</time>
      </trkpt>
      <trkpt lat="41.92196" lon="0.90239">
        <ele>640.4</ele>
        <time>2019-01-31T15:27:26Z</time>
      </trkpt>
      <trkpt lat="41.92198" lon="0.90253">
        <ele>640.4</ele>
        <time>2019-01-31T15:27:32Z</time>
      </trkpt>
      <trkpt lat="41.92201" lon="0.90265">
        <ele>640.4</ele>
        <time>2019-01-31T15:27:38Z</time>
      </trkpt>
      <trkpt lat="41.92203" lon="0.90278">
        <ele>640.4</ele>
        <time>2019-01-31T15:27:43Z</time>
      </trkpt>
      <trkpt lat="41.92206" lon="0.90291">
        <ele>640.5</ele>
        <time>2019-01-31T15:27:49Z</time>
      </trkpt>
      <trkpt lat="41.92206" lon="0.90305">
        <ele>640.5</ele>
        <time>2019-01-31T15:27:55Z</time>
      </trkpt>
      <trkpt lat="41.92207" lon="0.90318">
        <ele>641.4</ele>
        <time>2019-01-31T15:28:01Z</time>
      </trkpt>
      <trkpt lat="41.92208" lon="0.90333">
        <ele>641.3</ele>
        <time>2019-01-31T15:28:07Z</time>
      </trkpt>
      <trkpt lat="41.9221" lon="0.90348">
        <ele>641.8</ele>
        <time>2019-01-31T15:28:13Z</time>
      </trkpt>
      <trkpt lat="41.92212" lon="0.90363">
        <ele>641.9</ele>
        <time>2019-01-31T15:28:20Z</time>
      </trkpt>
      <trkpt lat="41.92214" lon="0.90377">
        <ele>642.3</ele>
        <time>2019-01-31T15:28:26Z</time>
      </trkpt>
      <trkpt lat="41.92214" lon="0.90391">
        <ele>642.4</ele>
        <time>2019-01-31T15:28:32Z</time>
      </trkpt>
      <trkpt lat="41.92215" lon="0.90404">
        <ele>642.3</ele>
        <time>2019-01-31T15:28:38Z</time>
      </trkpt>
      <trkpt lat="41.92216" lon="0.90418">
        <ele>642.9</ele>
        <time>2019-01-31T15:28:43Z</time>
      </trkpt>
      <trkpt lat="41.92216" lon="0.9043">
        <ele>642.8</ele>
        <time>2019-01-31T15:28:49Z</time>
      </trkpt>
      <trkpt lat="41.92216" lon="0.90444">
        <ele>642.8</ele>
        <time>2019-01-31T15:28:54Z</time>
      </trkpt>
      <trkpt lat="41.92216" lon="0.90458">
        <ele>642.9</ele>
        <time>2019-01-31T15:29:00Z</time>
      </trkpt>
      <trkpt lat="41.92217" lon="0.90471">
        <ele>642.9</ele>
        <time>2019-01-31T15:29:06Z</time>
      </trkpt>
      <trkpt lat="41.92217" lon="0.90485">
        <ele>642.8</ele>
        <time>2019-01-31T15:29:12Z</time>
      </trkpt>
      <trkpt lat="41.92219" lon="0.90498">
        <ele>642.9</ele>
        <time>2019-01-31T15:29:18Z</time>
      </trkpt>
      <trkpt lat="41.9222" lon="0.90511">
        <ele>642.8</ele>
        <time>2019-01-31T15:29:23Z</time>
      </trkpt>
      <trkpt lat="41.92221" lon="0.90527">
        <ele>641.3</ele>
        <time>2019-01-31T15:29:30Z</time>
      </trkpt>
      <trkpt lat="41.92222" lon="0.90541">
        <ele>640.9</ele>
        <time>2019-01-31T15:29:36Z</time>
      </trkpt>
      <trkpt lat="41.92223" lon="0.90554">
        <ele>640.4</ele>
        <time>2019-01-31T15:29:42Z</time>
      </trkpt>
      <trkpt lat="41.92225" lon="0.90569">
        <ele>640</ele>
        <time>2019-01-31T15:29:48Z</time>
      </trkpt>
      <trkpt lat="41.92227" lon="0.90583">
        <ele>640</ele>
        <time>2019-01-31T15:29:54Z</time>
      </trkpt>
      <trkpt lat="41.92227" lon="0.90597">
        <ele>639.9</ele>
        <time>2019-01-31T15:30:00Z</time>
      </trkpt>
      <trkpt lat="41.92226" lon="0.90611">
        <ele>639.9</ele>
        <time>2019-01-31T15:30:06Z</time>
      </trkpt>
      <trkpt lat="41.92225" lon="0.90627">
        <ele>640</ele>
        <time>2019-01-31T15:30:13Z</time>
      </trkpt>
      <trkpt lat="41.92224" lon="0.9064">
        <ele>641.3</ele>
        <time>2019-01-31T15:30:18Z</time>
      </trkpt>
      <trkpt lat="41.92227" lon="0.90655">
        <ele>641.9</ele>
        <time>2019-01-31T15:30:25Z</time>
      </trkpt>
      <trkpt lat="41.92232" lon="0.90666">
        <ele>641.9</ele>
        <time>2019-01-31T15:30:30Z</time>
      </trkpt>
      <trkpt lat="41.9224" lon="0.90673">
        <ele>642.9</ele>
        <time>2019-01-31T15:30:36Z</time>
      </trkpt>
      <trkpt lat="41.92247" lon="0.90683">
        <ele>644.3</ele>
        <time>2019-01-31T15:30:41Z</time>
      </trkpt>
      <trkpt lat="41.92252" lon="0.90694">
        <ele>644.2</ele>
        <time>2019-01-31T15:30:47Z</time>
      </trkpt>
      <trkpt lat="41.92257" lon="0.90707">
        <ele>644.2</ele>
        <time>2019-01-31T15:30:53Z</time>
      </trkpt>
      <trkpt lat="41.92261" lon="0.90721">
        <ele>644.3</ele>
        <time>2019-01-31T15:31:00Z</time>
      </trkpt>
      <trkpt lat="41.92264" lon="0.90733">
        <ele>644.2</ele>
        <time>2019-01-31T15:31:05Z</time>
      </trkpt>
      <trkpt lat="41.92267" lon="0.90747">
        <ele>644.2</ele>
        <time>2019-01-31T15:31:11Z</time>
      </trkpt>
      <trkpt lat="41.92271" lon="0.90758">
        <ele>644.7</ele>
        <time>2019-01-31T15:31:17Z</time>
      </trkpt>
      <trkpt lat="41.92276" lon="0.90771">
        <ele>644.7</ele>
        <time>2019-01-31T15:31:23Z</time>
      </trkpt>
      <trkpt lat="41.92278" lon="0.90785">
        <ele>645.3</ele>
        <time>2019-01-31T15:31:29Z</time>
      </trkpt>
      <trkpt lat="41.92281" lon="0.90799">
        <ele>645.2</ele>
        <time>2019-01-31T15:31:35Z</time>
      </trkpt>
      <trkpt lat="41.92284" lon="0.90813">
        <ele>645.8</ele>
        <time>2019-01-31T15:31:41Z</time>
      </trkpt>
      <trkpt lat="41.92285" lon="0.90827">
        <ele>646.1</ele>
        <time>2019-01-31T15:31:47Z</time>
      </trkpt>
      <trkpt lat="41.92286" lon="0.90843">
        <ele>646.7</ele>
        <time>2019-01-31T15:31:54Z</time>
      </trkpt>
      <trkpt lat="41.92288" lon="0.9086">
        <ele>647.6</ele>
        <time>2019-01-31T15:32:01Z</time>
      </trkpt>
      <trkpt lat="41.9229" lon="0.90873">
        <ele>648.2</ele>
        <time>2019-01-31T15:32:07Z</time>
      </trkpt>
      <trkpt lat="41.92293" lon="0.90886">
        <ele>649.1</ele>
        <time>2019-01-31T15:32:13Z</time>
      </trkpt>
      <trkpt lat="41.92294" lon="0.90902">
        <ele>650</ele>
        <time>2019-01-31T15:32:19Z</time>
      </trkpt>
      <trkpt lat="41.92294" lon="0.90915">
        <ele>650.5</ele>
        <time>2019-01-31T15:32:25Z</time>
      </trkpt>
      <trkpt lat="41.92292" lon="0.90929">
        <ele>651</ele>
        <time>2019-01-31T15:32:31Z</time>
      </trkpt>
      <trkpt lat="41.92292" lon="0.90941">
        <ele>651.9</ele>
        <time>2019-01-31T15:32:36Z</time>
      </trkpt>
      <trkpt lat="41.92291" lon="0.90955">
        <ele>652.9</ele>
        <time>2019-01-31T15:32:42Z</time>
      </trkpt>
      <trkpt lat="41.92291" lon="0.9097">
        <ele>653.9</ele>
        <time>2019-01-31T15:32:49Z</time>
      </trkpt>
      <trkpt lat="41.92289" lon="0.90982">
        <ele>654.9</ele>
        <time>2019-01-31T15:32:54Z</time>
      </trkpt>
      <trkpt lat="41.92283" lon="0.90995">
        <ele>655.9</ele>
        <time>2019-01-31T15:33:00Z</time>
      </trkpt>
      <trkpt lat="41.92278" lon="0.91008">
        <ele>656.3</ele>
        <time>2019-01-31T15:33:07Z</time>
      </trkpt>
      <trkpt lat="41.92275" lon="0.91023">
        <ele>657.2</ele>
        <time>2019-01-31T15:33:13Z</time>
      </trkpt>
      <trkpt lat="41.92274" lon="0.91036">
        <ele>658.6</ele>
        <time>2019-01-31T15:33:19Z</time>
      </trkpt>
      <trkpt lat="41.92269" lon="0.91049">
        <ele>659.7</ele>
        <time>2019-01-31T15:33:25Z</time>
      </trkpt>
      <trkpt lat="41.92263" lon="0.9106">
        <ele>660.2</ele>
        <time>2019-01-31T15:33:31Z</time>
      </trkpt>
      <trkpt lat="41.92256" lon="0.9107">
        <ele>661</ele>
        <time>2019-01-31T15:33:37Z</time>
      </trkpt>
      <trkpt lat="41.9225" lon="0.91082">
        <ele>662.5</ele>
        <time>2019-01-31T15:33:42Z</time>
      </trkpt>
      <trkpt lat="41.92248" lon="0.91096">
        <ele>664</ele>
        <time>2019-01-31T15:33:49Z</time>
      </trkpt>
      <trkpt lat="41.92246" lon="0.91112">
        <ele>664.9</ele>
        <time>2019-01-31T15:33:56Z</time>
      </trkpt>
      <trkpt lat="41.92244" lon="0.91126">
        <ele>665</ele>
        <time>2019-01-31T15:34:01Z</time>
      </trkpt>
      <trkpt lat="41.92241" lon="0.91141">
        <ele>666</ele>
        <time>2019-01-31T15:34:08Z</time>
      </trkpt>
      <trkpt lat="41.9224" lon="0.91156">
        <ele>666</ele>
        <time>2019-01-31T15:34:14Z</time>
      </trkpt>
      <trkpt lat="41.92237" lon="0.9117">
        <ele>665.9</ele>
        <time>2019-01-31T15:34:21Z</time>
      </trkpt>
      <trkpt lat="41.92235" lon="0.91185">
        <ele>665.9</ele>
        <time>2019-01-31T15:34:27Z</time>
      </trkpt>
      <trkpt lat="41.92233" lon="0.91198">
        <ele>666</ele>
        <time>2019-01-31T15:34:33Z</time>
      </trkpt>
      <trkpt lat="41.92231" lon="0.91212">
        <ele>664.4</ele>
        <time>2019-01-31T15:34:39Z</time>
      </trkpt>
      <trkpt lat="41.9223" lon="0.91228">
        <ele>664.5</ele>
        <time>2019-01-31T15:34:46Z</time>
      </trkpt>
      <trkpt lat="41.92228" lon="0.91242">
        <ele>663.9</ele>
        <time>2019-01-31T15:34:52Z</time>
      </trkpt>
      <trkpt lat="41.92227" lon="0.91255">
        <ele>663.5</ele>
        <time>2019-01-31T15:34:57Z</time>
      </trkpt>
      <trkpt lat="41.92225" lon="0.91271">
        <ele>663.6</ele>
        <time>2019-01-31T15:35:04Z</time>
      </trkpt>
      <trkpt lat="41.92223" lon="0.91285">
        <ele>663.6</ele>
        <time>2019-01-31T15:35:10Z</time>
      </trkpt>
      <trkpt lat="41.92224" lon="0.91299">
        <ele>663.6</ele>
        <time>2019-01-31T15:35:16Z</time>
      </trkpt>
      <trkpt lat="41.92226" lon="0.91312">
        <ele>665</ele>
        <time>2019-01-31T15:35:22Z</time>
      </trkpt>
      <trkpt lat="41.92231" lon="0.91327">
        <ele>665</ele>
        <time>2019-01-31T15:35:29Z</time>
      </trkpt>
      <trkpt lat="41.92235" lon="0.9134">
        <ele>665</ele>
        <time>2019-01-31T15:35:35Z</time>
      </trkpt>
      <trkpt lat="41.9224" lon="0.91351">
        <ele>664.9</ele>
        <time>2019-01-31T15:35:40Z</time>
      </trkpt>
      <trkpt lat="41.92246" lon="0.91362">
        <ele>665.4</ele>
        <time>2019-01-31T15:35:46Z</time>
      </trkpt>
      <trkpt lat="41.92253" lon="0.9137">
        <ele>665.9</ele>
        <time>2019-01-31T15:35:52Z</time>
      </trkpt>
      <trkpt lat="41.92263" lon="0.91378">
        <ele>667.4</ele>
        <time>2019-01-31T15:35:58Z</time>
      </trkpt>
      <trkpt lat="41.92273" lon="0.91387">
        <ele>668.7</ele>
        <time>2019-01-31T15:36:05Z</time>
      </trkpt>
      <trkpt lat="41.92281" lon="0.91394">
        <ele>669.7</ele>
        <time>2019-01-31T15:36:11Z</time>
      </trkpt>
      <trkpt lat="41.92291" lon="0.914">
        <ele>670.7</ele>
        <time>2019-01-31T15:36:17Z</time>
      </trkpt>
      <trkpt lat="41.92302" lon="0.91405">
        <ele>672.7</ele>
        <time>2019-01-31T15:36:24Z</time>
      </trkpt>
      <trkpt lat="41.92313" lon="0.91409">
        <ele>673.2</ele>
        <time>2019-01-31T15:36:30Z</time>
      </trkpt>
      <trkpt lat="41.92323" lon="0.91414">
        <ele>673.6</ele>
        <time>2019-01-31T15:36:36Z</time>
      </trkpt>
      <trkpt lat="41.92332" lon="0.91417">
        <ele>674</ele>
        <time>2019-01-31T15:36:42Z</time>
      </trkpt>
      <trkpt lat="41.92343" lon="0.91421">
        <ele>674.1</ele>
        <time>2019-01-31T15:36:48Z</time>
      </trkpt>
      <trkpt lat="41.92351" lon="0.91428">
        <ele>674.1</ele>
        <time>2019-01-31T15:36:53Z</time>
      </trkpt>
      <trkpt lat="41.9236" lon="0.91436">
        <ele>674</ele>
        <time>2019-01-31T15:37:00Z</time>
      </trkpt>
      <trkpt lat="41.92368" lon="0.91448">
        <ele>672.6</ele>
        <time>2019-01-31T15:37:06Z</time>
      </trkpt>
      <trkpt lat="41.9237" lon="0.91462">
        <ele>672.1</ele>
        <time>2019-01-31T15:37:12Z</time>
      </trkpt>
      <trkpt lat="41.92371" lon="0.91478">
        <ele>671.6</ele>
        <time>2019-01-31T15:37:19Z</time>
      </trkpt>
      <trkpt lat="41.92372" lon="0.91493">
        <ele>671.6</ele>
        <time>2019-01-31T15:37:26Z</time>
      </trkpt>
      <trkpt lat="41.92373" lon="0.91508">
        <ele>671.1</ele>
        <time>2019-01-31T15:37:32Z</time>
      </trkpt>
      <trkpt lat="41.92374" lon="0.91522">
        <ele>671.1</ele>
        <time>2019-01-31T15:37:38Z</time>
      </trkpt>
      <trkpt lat="41.92378" lon="0.91537">
        <ele>671.1</ele>
        <time>2019-01-31T15:37:45Z</time>
      </trkpt>
      <trkpt lat="41.92383" lon="0.91552">
        <ele>671.2</ele>
        <time>2019-01-31T15:37:51Z</time>
      </trkpt>
      <trkpt lat="41.92388" lon="0.91566">
        <ele>672.6</ele>
        <time>2019-01-31T15:37:58Z</time>
      </trkpt>
      <trkpt lat="41.92393" lon="0.91581">
        <ele>672.2</ele>
        <time>2019-01-31T15:38:05Z</time>
      </trkpt>
      <trkpt lat="41.92397" lon="0.91594">
        <ele>672.2</ele>
        <time>2019-01-31T15:38:11Z</time>
      </trkpt>
      <trkpt lat="41.92402" lon="0.91606">
        <ele>670.8</ele>
        <time>2019-01-31T15:38:17Z</time>
      </trkpt>
      <trkpt lat="41.92405" lon="0.91619">
        <ele>669.7</ele>
        <time>2019-01-31T15:38:23Z</time>
      </trkpt>
      <trkpt lat="41.92402" lon="0.91633">
        <ele>668.8</ele>
        <time>2019-01-31T15:38:29Z</time>
      </trkpt>
      <trkpt lat="41.92394" lon="0.91644">
        <ele>668.3</ele>
        <time>2019-01-31T15:38:35Z</time>
      </trkpt>
      <trkpt lat="41.92385" lon="0.91655">
        <ele>667.8</ele>
        <time>2019-01-31T15:38:42Z</time>
      </trkpt>
      <trkpt lat="41.92376" lon="0.91664">
        <ele>666.3</ele>
        <time>2019-01-31T15:38:49Z</time>
      </trkpt>
      <trkpt lat="41.92366" lon="0.91672">
        <ele>664.9</ele>
        <time>2019-01-31T15:38:56Z</time>
      </trkpt>
      <trkpt lat="41.92356" lon="0.91678">
        <ele>664.5</ele>
        <time>2019-01-31T15:39:02Z</time>
      </trkpt>
      <trkpt lat="41.92346" lon="0.91686">
        <ele>663.1</ele>
        <time>2019-01-31T15:39:08Z</time>
      </trkpt>
      <trkpt lat="41.92337" lon="0.91695">
        <ele>662.1</ele>
        <time>2019-01-31T15:39:15Z</time>
      </trkpt>
      <trkpt lat="41.92332" lon="0.9171">
        <ele>660.6</ele>
        <time>2019-01-31T15:39:22Z</time>
      </trkpt>
      <trkpt lat="41.92331" lon="0.91725">
        <ele>659.6</ele>
        <time>2019-01-31T15:39:28Z</time>
      </trkpt>
      <trkpt lat="41.92336" lon="0.91738">
        <ele>660.1</ele>
        <time>2019-01-31T15:39:34Z</time>
      </trkpt>
      <trkpt lat="41.92342" lon="0.91749">
        <ele>659.7</ele>
        <time>2019-01-31T15:39:40Z</time>
      </trkpt>
      <trkpt lat="41.92351" lon="0.91759">
        <ele>661.1</ele>
        <time>2019-01-31T15:39:47Z</time>
      </trkpt>
      <trkpt lat="41.9236" lon="0.91765">
        <ele>661.5</ele>
        <time>2019-01-31T15:39:52Z</time>
      </trkpt>
      <trkpt lat="41.9237" lon="0.91771">
        <ele>661.5</ele>
        <time>2019-01-31T15:39:59Z</time>
      </trkpt>
      <trkpt lat="41.92379" lon="0.91776">
        <ele>661.6</ele>
        <time>2019-01-31T15:40:04Z</time>
      </trkpt>
      <trkpt lat="41.92389" lon="0.9178">
        <ele>661.5</ele>
        <time>2019-01-31T15:40:10Z</time>
      </trkpt>
      <trkpt lat="41.92398" lon="0.91785">
        <ele>661.5</ele>
        <time>2019-01-31T15:40:16Z</time>
      </trkpt>
      <trkpt lat="41.92409" lon="0.9179">
        <ele>661.5</ele>
        <time>2019-01-31T15:40:23Z</time>
      </trkpt>
      <trkpt lat="41.92419" lon="0.91795">
        <ele>661.6</ele>
        <time>2019-01-31T15:40:29Z</time>
      </trkpt>
      <trkpt lat="41.92429" lon="0.91799">
        <ele>660.1</ele>
        <time>2019-01-31T15:40:35Z</time>
      </trkpt>
      <trkpt lat="41.92439" lon="0.91801">
        <ele>660.2</ele>
        <time>2019-01-31T15:40:41Z</time>
      </trkpt>
      <trkpt lat="41.9245" lon="0.91803">
        <ele>660.2</ele>
        <time>2019-01-31T15:40:47Z</time>
      </trkpt>
      <trkpt lat="41.9246" lon="0.91805">
        <ele>659.6</ele>
        <time>2019-01-31T15:40:53Z</time>
      </trkpt>
      <trkpt lat="41.9247" lon="0.91807">
        <ele>659.6</ele>
        <time>2019-01-31T15:40:58Z</time>
      </trkpt>
      <trkpt lat="41.9248" lon="0.9181">
        <ele>659.1</ele>
        <time>2019-01-31T15:41:04Z</time>
      </trkpt>
      <trkpt lat="41.9249" lon="0.91813">
        <ele>659.1</ele>
        <time>2019-01-31T15:41:10Z</time>
      </trkpt>
      <trkpt lat="41.92501" lon="0.91818">
        <ele>658.6</ele>
        <time>2019-01-31T15:41:17Z</time>
      </trkpt>
      <trkpt lat="41.92512" lon="0.91822">
        <ele>658.6</ele>
        <time>2019-01-31T15:41:23Z</time>
      </trkpt>
      <trkpt lat="41.92522" lon="0.91828">
        <ele>658.6</ele>
        <time>2019-01-31T15:41:30Z</time>
      </trkpt>
      <trkpt lat="41.92532" lon="0.91832">
        <ele>658.6</ele>
        <time>2019-01-31T15:41:35Z</time>
      </trkpt>
      <trkpt lat="41.92541" lon="0.91837">
        <ele>658.6</ele>
        <time>2019-01-31T15:41:41Z</time>
      </trkpt>
      <trkpt lat="41.9255" lon="0.91842">
        <ele>658.7</ele>
        <time>2019-01-31T15:41:47Z</time>
      </trkpt>
      <trkpt lat="41.92559" lon="0.91846">
        <ele>658.3</ele>
        <time>2019-01-31T15:41:52Z</time>
      </trkpt>
      <trkpt lat="41.92568" lon="0.91848">
        <ele>657.8</ele>
        <time>2019-01-31T15:41:57Z</time>
      </trkpt>
      <trkpt lat="41.92578" lon="0.91847">
        <ele>657.2</ele>
        <time>2019-01-31T15:42:03Z</time>
      </trkpt>
      <trkpt lat="41.92588" lon="0.91848">
        <ele>656.8</ele>
        <time>2019-01-31T15:42:09Z</time>
      </trkpt>
      <trkpt lat="41.926" lon="0.91849">
        <ele>656.2</ele>
        <time>2019-01-31T15:42:15Z</time>
      </trkpt>
      <trkpt lat="41.92611" lon="0.91853">
        <ele>655.3</ele>
        <time>2019-01-31T15:42:22Z</time>
      </trkpt>
      <trkpt lat="41.92621" lon="0.91856">
        <ele>654.3</ele>
        <time>2019-01-31T15:42:28Z</time>
      </trkpt>
      <trkpt lat="41.92632" lon="0.91862">
        <ele>653</ele>
        <time>2019-01-31T15:42:35Z</time>
      </trkpt>
      <trkpt lat="41.92643" lon="0.91866">
        <ele>651.9</ele>
        <time>2019-01-31T15:42:41Z</time>
      </trkpt>
      <trkpt lat="41.92653" lon="0.91871">
        <ele>650.6</ele>
        <time>2019-01-31T15:42:47Z</time>
      </trkpt>
      <trkpt lat="41.92664" lon="0.91874">
        <ele>649.1</ele>
        <time>2019-01-31T15:42:54Z</time>
      </trkpt>
      <trkpt lat="41.92675" lon="0.91878">
        <ele>648.7</ele>
        <time>2019-01-31T15:43:00Z</time>
      </trkpt>
      <trkpt lat="41.92685" lon="0.91881">
        <ele>648.2</ele>
        <time>2019-01-31T15:43:06Z</time>
      </trkpt>
      <trkpt lat="41.92696" lon="0.91886">
        <ele>646.6</ele>
        <time>2019-01-31T15:43:13Z</time>
      </trkpt>
      <trkpt lat="41.92708" lon="0.91891">
        <ele>646.6</ele>
        <time>2019-01-31T15:43:20Z</time>
      </trkpt>
      <trkpt lat="41.92719" lon="0.91896">
        <ele>645.7</ele>
        <time>2019-01-31T15:43:26Z</time>
      </trkpt>
      <trkpt lat="41.92729" lon="0.91901">
        <ele>645.7</ele>
        <time>2019-01-31T15:43:33Z</time>
      </trkpt>
      <trkpt lat="41.92739" lon="0.91906">
        <ele>645.2</ele>
        <time>2019-01-31T15:43:39Z</time>
      </trkpt>
      <trkpt lat="41.9275" lon="0.91909">
        <ele>644.2</ele>
        <time>2019-01-31T15:43:45Z</time>
      </trkpt>
      <trkpt lat="41.92761" lon="0.91912">
        <ele>643.7</ele>
        <time>2019-01-31T15:43:52Z</time>
      </trkpt>
      <trkpt lat="41.92771" lon="0.91915">
        <ele>643.4</ele>
        <time>2019-01-31T15:43:57Z</time>
      </trkpt>
      <trkpt lat="41.9278" lon="0.9192">
        <ele>642.4</ele>
        <time>2019-01-31T15:44:03Z</time>
      </trkpt>
      <trkpt lat="41.92791" lon="0.91925">
        <ele>641</ele>
        <time>2019-01-31T15:44:10Z</time>
      </trkpt>
      <trkpt lat="41.92801" lon="0.91934">
        <ele>640.4</ele>
        <time>2019-01-31T15:44:17Z</time>
      </trkpt>
      <trkpt lat="41.9281" lon="0.91946">
        <ele>640</ele>
        <time>2019-01-31T15:44:24Z</time>
      </trkpt>
      <trkpt lat="41.92818" lon="0.91956">
        <ele>640</ele>
        <time>2019-01-31T15:44:30Z</time>
      </trkpt>
      <trkpt lat="41.92824" lon="0.91966">
        <ele>640</ele>
        <time>2019-01-31T15:44:36Z</time>
      </trkpt>
      <trkpt lat="41.92832" lon="0.91976">
        <ele>641.3</ele>
        <time>2019-01-31T15:44:41Z</time>
      </trkpt>
      <trkpt lat="41.92839" lon="0.91985">
        <ele>641.8</ele>
        <time>2019-01-31T15:44:47Z</time>
      </trkpt>
      <trkpt lat="41.92847" lon="0.91995">
        <ele>642.8</ele>
        <time>2019-01-31T15:44:53Z</time>
      </trkpt>
      <trkpt lat="41.92854" lon="0.92004">
        <ele>643.4</ele>
        <time>2019-01-31T15:44:59Z</time>
      </trkpt>
      <trkpt lat="41.92862" lon="0.92013">
        <ele>643.8</ele>
        <time>2019-01-31T15:45:05Z</time>
      </trkpt>
      <trkpt lat="41.92869" lon="0.92019">
        <ele>644.8</ele>
        <time>2019-01-31T15:45:10Z</time>
      </trkpt>
      <trkpt lat="41.92879" lon="0.92026">
        <ele>644.8</ele>
        <time>2019-01-31T15:45:16Z</time>
      </trkpt>
      <trkpt lat="41.92889" lon="0.92028">
        <ele>644.8</ele>
        <time>2019-01-31T15:45:22Z</time>
      </trkpt>
      <trkpt lat="41.92899" lon="0.92028">
        <ele>644.7</ele>
        <time>2019-01-31T15:45:28Z</time>
      </trkpt>
      <trkpt lat="41.92911" lon="0.92026">
        <ele>644.7</ele>
        <time>2019-01-31T15:45:35Z</time>
      </trkpt>
      <trkpt lat="41.92922" lon="0.92021">
        <ele>644.7</ele>
        <time>2019-01-31T15:45:41Z</time>
      </trkpt>
      <trkpt lat="41.92932" lon="0.92017">
        <ele>644.3</ele>
        <time>2019-01-31T15:45:47Z</time>
      </trkpt>
      <trkpt lat="41.92942" lon="0.9201">
        <ele>644.8</ele>
        <time>2019-01-31T15:45:54Z</time>
      </trkpt>
      <trkpt lat="41.92952" lon="0.92003">
        <ele>644.2</ele>
        <time>2019-01-31T15:46:00Z</time>
      </trkpt>
      <trkpt lat="41.92961" lon="0.91995">
        <ele>644.2</ele>
        <time>2019-01-31T15:46:06Z</time>
      </trkpt>
      <trkpt lat="41.9297" lon="0.91988">
        <ele>644.8</ele>
        <time>2019-01-31T15:46:12Z</time>
      </trkpt>
      <trkpt lat="41.92978" lon="0.91978">
        <ele>645.2</ele>
        <time>2019-01-31T15:46:19Z</time>
      </trkpt>
      <trkpt lat="41.92986" lon="0.91968">
        <ele>645.8</ele>
        <time>2019-01-31T15:46:25Z</time>
      </trkpt>
      <trkpt lat="41.92993" lon="0.91958">
        <ele>646.1</ele>
        <time>2019-01-31T15:46:31Z</time>
      </trkpt>
      <trkpt lat="41.93001" lon="0.9195">
        <ele>646.1</ele>
        <time>2019-01-31T15:46:36Z</time>
      </trkpt>
      <trkpt lat="41.93009" lon="0.91941">
        <ele>646.6</ele>
        <time>2019-01-31T15:46:42Z</time>
      </trkpt>
      <trkpt lat="41.93018" lon="0.91931">
        <ele>646.6</ele>
        <time>2019-01-31T15:46:49Z</time>
      </trkpt>
      <trkpt lat="41.93027" lon="0.91921">
        <ele>646.2</ele>
        <time>2019-01-31T15:46:55Z</time>
      </trkpt>
      <trkpt lat="41.93035" lon="0.91912">
        <ele>646.2</ele>
        <time>2019-01-31T15:47:01Z</time>
      </trkpt>
      <trkpt lat="41.93042" lon="0.91903">
        <ele>646.1</ele>
        <time>2019-01-31T15:47:07Z</time>
      </trkpt>
      <trkpt lat="41.93051" lon="0.91894">
        <ele>647.6</ele>
        <time>2019-01-31T15:47:14Z</time>
      </trkpt>
      <trkpt lat="41.9306" lon="0.91887">
        <ele>647.6</ele>
        <time>2019-01-31T15:47:19Z</time>
      </trkpt>
      <trkpt lat="41.9307" lon="0.91881">
        <ele>647.6</ele>
        <time>2019-01-31T15:47:26Z</time>
      </trkpt>
      <trkpt lat="41.93079" lon="0.91875">
        <ele>647.1</ele>
        <time>2019-01-31T15:47:31Z</time>
      </trkpt>
      <trkpt lat="41.93088" lon="0.91868">
        <ele>647.7</ele>
        <time>2019-01-31T15:47:37Z</time>
      </trkpt>
      <trkpt lat="41.93098" lon="0.91861">
        <ele>647.7</ele>
        <time>2019-01-31T15:47:44Z</time>
      </trkpt>
      <trkpt lat="41.93107" lon="0.91855">
        <ele>648.7</ele>
        <time>2019-01-31T15:47:49Z</time>
      </trkpt>
      <trkpt lat="41.93116" lon="0.91849">
        <ele>649</ele>
        <time>2019-01-31T15:47:55Z</time>
      </trkpt>
      <trkpt lat="41.93126" lon="0.91848">
        <ele>649.6</ele>
        <time>2019-01-31T15:48:01Z</time>
      </trkpt>
      <trkpt lat="41.93135" lon="0.9185">
        <ele>648.2</ele>
        <time>2019-01-31T15:48:06Z</time>
      </trkpt>
      <trkpt lat="41.93146" lon="0.91851">
        <ele>646.6</ele>
        <time>2019-01-31T15:48:12Z</time>
      </trkpt>
      <trkpt lat="41.93157" lon="0.91848">
        <ele>645.7</ele>
        <time>2019-01-31T15:48:19Z</time>
      </trkpt>
      <trkpt lat="41.93167" lon="0.91845">
        <ele>645.2</ele>
        <time>2019-01-31T15:48:25Z</time>
      </trkpt>
      <trkpt lat="41.93177" lon="0.91842">
        <ele>643.7</ele>
        <time>2019-01-31T15:48:31Z</time>
      </trkpt>
      <trkpt lat="41.93188" lon="0.91841">
        <ele>642.8</ele>
        <time>2019-01-31T15:48:37Z</time>
      </trkpt>
      <trkpt lat="41.93199" lon="0.91843">
        <ele>641.4</ele>
        <time>2019-01-31T15:48:43Z</time>
      </trkpt>
      <trkpt lat="41.93211" lon="0.91845">
        <ele>640</ele>
        <time>2019-01-31T15:48:50Z</time>
      </trkpt>
      <trkpt lat="41.93222" lon="0.91846">
        <ele>639.4</ele>
        <time>2019-01-31T15:48:56Z</time>
      </trkpt>
      <trkpt lat="41.93233" lon="0.91848">
        <ele>639</ele>
        <time>2019-01-31T15:49:03Z</time>
      </trkpt>
      <trkpt lat="41.93244" lon="0.91849">
        <ele>638.9</ele>
        <time>2019-01-31T15:49:09Z</time>
      </trkpt>
      <trkpt lat="41.93254" lon="0.91846">
        <ele>638.5</ele>
        <time>2019-01-31T15:49:15Z</time>
      </trkpt>
      <trkpt lat="41.93264" lon="0.91842">
        <ele>638.6</ele>
        <time>2019-01-31T15:49:21Z</time>
      </trkpt>
      <trkpt lat="41.93275" lon="0.91836">
        <ele>638.6</ele>
        <time>2019-01-31T15:49:28Z</time>
      </trkpt>
      <trkpt lat="41.93285" lon="0.91832">
        <ele>638.5</ele>
        <time>2019-01-31T15:49:34Z</time>
      </trkpt>
      <trkpt lat="41.93294" lon="0.91828">
        <ele>638.5</ele>
        <time>2019-01-31T15:49:39Z</time>
      </trkpt>
      <trkpt lat="41.93304" lon="0.91826">
        <ele>638.5</ele>
        <time>2019-01-31T15:49:45Z</time>
      </trkpt>
      <trkpt lat="41.93315" lon="0.91825">
        <ele>638.5</ele>
        <time>2019-01-31T15:49:51Z</time>
      </trkpt>
      <trkpt lat="41.93325" lon="0.91825">
        <ele>638.1</ele>
        <time>2019-01-31T15:49:57Z</time>
      </trkpt>
      <trkpt lat="41.93334" lon="0.91829">
        <ele>637</ele>
        <time>2019-01-31T15:50:02Z</time>
      </trkpt>
      <trkpt lat="41.93342" lon="0.91838">
        <ele>636.1</ele>
        <time>2019-01-31T15:50:08Z</time>
      </trkpt>
      <trkpt lat="41.93346" lon="0.91851">
        <ele>636.1</ele>
        <time>2019-01-31T15:50:14Z</time>
      </trkpt>
      <trkpt lat="41.93342" lon="0.91864">
        <ele>636.1</ele>
        <time>2019-01-31T15:50:20Z</time>
      </trkpt>
      <trkpt lat="41.93335" lon="0.91875">
        <ele>636.2</ele>
        <time>2019-01-31T15:50:26Z</time>
      </trkpt>
      <trkpt lat="41.93327" lon="0.91886">
        <ele>638.1</ele>
        <time>2019-01-31T15:50:33Z</time>
      </trkpt>
      <trkpt lat="41.93319" lon="0.91896">
        <ele>638.5</ele>
        <time>2019-01-31T15:50:39Z</time>
      </trkpt>
      <trkpt lat="41.93314" lon="0.91907">
        <ele>638.9</ele>
        <time>2019-01-31T15:50:45Z</time>
      </trkpt>
      <trkpt lat="41.93308" lon="0.91917">
        <ele>639.4</ele>
        <time>2019-01-31T15:50:50Z</time>
      </trkpt>
      <trkpt lat="41.93303" lon="0.91928">
        <ele>639.9</ele>
        <time>2019-01-31T15:50:56Z</time>
      </trkpt>
      <trkpt lat="41.93297" lon="0.91936">
        <ele>640.9</ele>
        <time>2019-01-31T15:51:01Z</time>
      </trkpt>
      <trkpt lat="41.93289" lon="0.91946">
        <ele>641.3</ele>
        <time>2019-01-31T15:51:07Z</time>
      </trkpt>
      <trkpt lat="41.93282" lon="0.91956">
        <ele>642.9</ele>
        <time>2019-01-31T15:51:12Z</time>
      </trkpt>
      <trkpt lat="41.93275" lon="0.91968">
        <ele>643.4</ele>
        <time>2019-01-31T15:51:19Z</time>
      </trkpt>
      <trkpt lat="41.93265" lon="0.91976">
        <ele>643.7</ele>
        <time>2019-01-31T15:51:26Z</time>
      </trkpt>
      <trkpt lat="41.93255" lon="0.91982">
        <ele>643.8</ele>
        <time>2019-01-31T15:51:32Z</time>
      </trkpt>
      <trkpt lat="41.93248" lon="0.91993">
        <ele>643.7</ele>
        <time>2019-01-31T15:51:38Z</time>
      </trkpt>
      <trkpt lat="41.93248" lon="0.92006">
        <ele>644.2</ele>
        <time>2019-01-31T15:51:44Z</time>
      </trkpt>
      <trkpt lat="41.93253" lon="0.92015">
        <ele>642.9</ele>
        <time>2019-01-31T15:51:49Z</time>
      </trkpt>
      <trkpt lat="41.93261" lon="0.92025">
        <ele>642.4</ele>
        <time>2019-01-31T15:51:55Z</time>
      </trkpt>
      <trkpt lat="41.93269" lon="0.92033">
        <ele>641.8</ele>
        <time>2019-01-31T15:52:01Z</time>
      </trkpt>
      <trkpt lat="41.93278" lon="0.92042">
        <ele>641.3</ele>
        <time>2019-01-31T15:52:07Z</time>
      </trkpt>
      <trkpt lat="41.93286" lon="0.9205">
        <ele>640.9</ele>
        <time>2019-01-31T15:52:13Z</time>
      </trkpt>
      <trkpt lat="41.93295" lon="0.92056">
        <ele>640.4</ele>
        <time>2019-01-31T15:52:18Z</time>
      </trkpt>
      <trkpt lat="41.93305" lon="0.92058">
        <ele>639.9</ele>
        <time>2019-01-31T15:52:24Z</time>
      </trkpt>
      <trkpt lat="41.93316" lon="0.92058">
        <ele>639.9</ele>
        <time>2019-01-31T15:52:30Z</time>
      </trkpt>
      <trkpt lat="41.93327" lon="0.92063">
        <ele>640</ele>
        <time>2019-01-31T15:52:37Z</time>
      </trkpt>
      <trkpt lat="41.93333" lon="0.92075">
        <ele>639.9</ele>
        <time>2019-01-31T15:52:43Z</time>
      </trkpt>
      <trkpt lat="41.93332" lon="0.9209">
        <ele>641.9</ele>
        <time>2019-01-31T15:52:49Z</time>
      </trkpt>
      <trkpt lat="41.9333" lon="0.92103">
        <ele>642.4</ele>
        <time>2019-01-31T15:52:55Z</time>
      </trkpt>
      <trkpt lat="41.93329" lon="0.92117">
        <ele>643.4</ele>
        <time>2019-01-31T15:53:01Z</time>
      </trkpt>
      <trkpt lat="41.93328" lon="0.92131">
        <ele>644.3</ele>
        <time>2019-01-31T15:53:07Z</time>
      </trkpt>
      <trkpt lat="41.93327" lon="0.92147">
        <ele>644.2</ele>
        <time>2019-01-31T15:53:14Z</time>
      </trkpt>
      <trkpt lat="41.93327" lon="0.92161">
        <ele>644.2</ele>
        <time>2019-01-31T15:53:20Z</time>
      </trkpt>
      <trkpt lat="41.93326" lon="0.92175">
        <ele>644.3</ele>
        <time>2019-01-31T15:53:26Z</time>
      </trkpt>
      <trkpt lat="41.93325" lon="0.92188">
        <ele>644.2</ele>
        <time>2019-01-31T15:53:32Z</time>
      </trkpt>
      <trkpt lat="41.93325" lon="0.92202">
        <ele>643.4</ele>
        <time>2019-01-31T15:53:37Z</time>
      </trkpt>
      <trkpt lat="41.93325" lon="0.92215">
        <ele>643.3</ele>
        <time>2019-01-31T15:53:43Z</time>
      </trkpt>
      <trkpt lat="41.93327" lon="0.92228">
        <ele>642.8</ele>
        <time>2019-01-31T15:53:49Z</time>
      </trkpt>
      <trkpt lat="41.93331" lon="0.9224">
        <ele>642.4</ele>
        <time>2019-01-31T15:53:54Z</time>
      </trkpt>
      <trkpt lat="41.9334" lon="0.92246">
        <ele>641.9</ele>
        <time>2019-01-31T15:54:00Z</time>
      </trkpt>
      <trkpt lat="41.9335" lon="0.92253">
        <ele>640.4</ele>
        <time>2019-01-31T15:54:06Z</time>
      </trkpt>
      <trkpt lat="41.93357" lon="0.92262">
        <ele>638.9</ele>
        <time>2019-01-31T15:54:12Z</time>
      </trkpt>
      <trkpt lat="41.93364" lon="0.92272">
        <ele>638</ele>
        <time>2019-01-31T15:54:18Z</time>
      </trkpt>
      <trkpt lat="41.93369" lon="0.92284">
        <ele>637.5</ele>
        <time>2019-01-31T15:54:24Z</time>
      </trkpt>
      <trkpt lat="41.93369" lon="0.92301">
        <ele>636.1</ele>
        <time>2019-01-31T15:54:31Z</time>
      </trkpt>
      <trkpt lat="41.93368" lon="0.92316">
        <ele>634.1</ele>
        <time>2019-01-31T15:54:37Z</time>
      </trkpt>
      <trkpt lat="41.93372" lon="0.92329">
        <ele>632.2</ele>
        <time>2019-01-31T15:54:43Z</time>
      </trkpt>
      <trkpt lat="41.93381" lon="0.92338">
        <ele>629.9</ele>
        <time>2019-01-31T15:54:50Z</time>
      </trkpt>
      <trkpt lat="41.93391" lon="0.92339">
        <ele>629.3</ele>
        <time>2019-01-31T15:54:55Z</time>
      </trkpt>
      <trkpt lat="41.93401" lon="0.92335">
        <ele>628</ele>
        <time>2019-01-31T15:55:02Z</time>
      </trkpt>
      <trkpt lat="41.93414" lon="0.92331">
        <ele>625.5</ele>
        <time>2019-01-31T15:55:09Z</time>
      </trkpt>
      <trkpt lat="41.93426" lon="0.92329">
        <ele>624</ele>
        <time>2019-01-31T15:55:16Z</time>
      </trkpt>
      <trkpt lat="41.93438" lon="0.92327">
        <ele>622.2</ele>
        <time>2019-01-31T15:55:23Z</time>
      </trkpt>
      <trkpt lat="41.93449" lon="0.92323">
        <ele>621.3</ele>
        <time>2019-01-31T15:55:30Z</time>
      </trkpt>
      <trkpt lat="41.93462" lon="0.92317">
        <ele>620.8</ele>
        <time>2019-01-31T15:55:37Z</time>
      </trkpt>
      <trkpt lat="41.93474" lon="0.92312">
        <ele>619.7</ele>
        <time>2019-01-31T15:55:44Z</time>
      </trkpt>
      <trkpt lat="41.93487" lon="0.92308">
        <ele>617.8</ele>
        <time>2019-01-31T15:55:52Z</time>
      </trkpt>
      <trkpt lat="41.935" lon="0.92305">
        <ele>617.4</ele>
        <time>2019-01-31T15:56:00Z</time>
      </trkpt>
      <trkpt lat="41.93514" lon="0.92301">
        <ele>616.8</ele>
        <time>2019-01-31T15:56:08Z</time>
      </trkpt>
      <trkpt lat="41.93526" lon="0.92297">
        <ele>616.9</ele>
        <time>2019-01-31T15:56:15Z</time>
      </trkpt>
      <trkpt lat="41.93537" lon="0.92297">
        <ele>616.8</ele>
        <time>2019-01-31T15:56:21Z</time>
      </trkpt>
      <trkpt lat="41.9355" lon="0.92298">
        <ele>616.9</ele>
        <time>2019-01-31T15:56:28Z</time>
      </trkpt>
      <trkpt lat="41.9356" lon="0.92302">
        <ele>616.4</ele>
        <time>2019-01-31T15:56:34Z</time>
      </trkpt>
      <trkpt lat="41.93571" lon="0.92306">
        <ele>615</ele>
        <time>2019-01-31T15:56:41Z</time>
      </trkpt>
      <trkpt lat="41.93582" lon="0.92311">
        <ele>613.5</ele>
        <time>2019-01-31T15:56:47Z</time>
      </trkpt>
      <trkpt lat="41.9359" lon="0.92323">
        <ele>612.6</ele>
        <time>2019-01-31T15:56:55Z</time>
      </trkpt>
      <trkpt lat="41.93598" lon="0.92335">
        <ele>610.7</ele>
        <time>2019-01-31T15:57:01Z</time>
      </trkpt>
      <trkpt lat="41.93599" lon="0.92348">
        <ele>608.7</ele>
        <time>2019-01-31T15:57:07Z</time>
      </trkpt>
      <trkpt lat="41.93591" lon="0.92351">
        <ele>607.2</ele>
        <time>2019-01-31T15:57:12Z</time>
      </trkpt>
      <trkpt lat="41.9358" lon="0.92348">
        <ele>605.8</ele>
        <time>2019-01-31T15:57:18Z</time>
      </trkpt>
      <trkpt lat="41.93571" lon="0.92346">
        <ele>605.3</ele>
        <time>2019-01-31T15:57:23Z</time>
      </trkpt>
      <trkpt lat="41.9356" lon="0.92344">
        <ele>604</ele>
        <time>2019-01-31T15:57:30Z</time>
      </trkpt>
      <trkpt lat="41.93549" lon="0.92344">
        <ele>603.5</ele>
        <time>2019-01-31T15:57:36Z</time>
      </trkpt>
      <trkpt lat="41.93538" lon="0.92349">
        <ele>602.4</ele>
        <time>2019-01-31T15:57:42Z</time>
      </trkpt>
      <trkpt lat="41.93529" lon="0.92352">
        <ele>601.1</ele>
        <time>2019-01-31T15:57:48Z</time>
      </trkpt>
      <trkpt lat="41.93517" lon="0.92353">
        <ele>600</ele>
        <time>2019-01-31T15:57:54Z</time>
      </trkpt>
      <trkpt lat="41.93507" lon="0.92355">
        <ele>598.7</ele>
        <time>2019-01-31T15:58:00Z</time>
      </trkpt>
      <trkpt lat="41.93497" lon="0.9236">
        <ele>598.1</ele>
        <time>2019-01-31T15:58:06Z</time>
      </trkpt>
      <trkpt lat="41.93488" lon="0.92368">
        <ele>597.2</ele>
        <time>2019-01-31T15:58:13Z</time>
      </trkpt>
      <trkpt lat="41.93478" lon="0.92375">
        <ele>595.7</ele>
        <time>2019-01-31T15:58:19Z</time>
      </trkpt>
      <trkpt lat="41.93468" lon="0.92384">
        <ele>595.2</ele>
        <time>2019-01-31T15:58:26Z</time>
      </trkpt>
      <trkpt lat="41.9346" lon="0.92396">
        <ele>594.2</ele>
        <time>2019-01-31T15:58:33Z</time>
      </trkpt>
      <trkpt lat="41.93454" lon="0.9241">
        <ele>592.3</ele>
        <time>2019-01-31T15:58:40Z</time>
      </trkpt>
      <trkpt lat="41.93456" lon="0.92428">
        <ele>591.5</ele>
        <time>2019-01-31T15:58:48Z</time>
      </trkpt>
      <trkpt lat="41.9346" lon="0.92441">
        <ele>591.5</ele>
        <time>2019-01-31T15:58:53Z</time>
      </trkpt>
      <trkpt lat="41.93463" lon="0.92456">
        <ele>591.4</ele>
        <time>2019-01-31T15:59:00Z</time>
      </trkpt>
      <trkpt lat="41.93464" lon="0.92474">
        <ele>591.4</ele>
        <time>2019-01-31T15:59:08Z</time>
      </trkpt>
      <trkpt lat="41.9346" lon="0.92488">
        <ele>591.4</ele>
        <time>2019-01-31T15:59:14Z</time>
      </trkpt>
      <trkpt lat="41.93454" lon="0.92499">
        <ele>591.5</ele>
        <time>2019-01-31T15:59:20Z</time>
      </trkpt>
      <trkpt lat="41.93449" lon="0.9251">
        <ele>591.5</ele>
        <time>2019-01-31T15:59:25Z</time>
      </trkpt>
      <trkpt lat="41.93443" lon="0.92522">
        <ele>590.4</ele>
        <time>2019-01-31T15:59:32Z</time>
      </trkpt>
      <trkpt lat="41.93438" lon="0.92533">
        <ele>589</ele>
        <time>2019-01-31T15:59:37Z</time>
      </trkpt>
      <trkpt lat="41.93442" lon="0.92545">
        <ele>589.4</ele>
        <time>2019-01-31T15:59:42Z</time>
      </trkpt>
      <trkpt lat="41.93451" lon="0.9255">
        <ele>588.6</ele>
        <time>2019-01-31T15:59:48Z</time>
      </trkpt>
      <trkpt lat="41.93461" lon="0.92555">
        <ele>588.6</ele>
        <time>2019-01-31T15:59:54Z</time>
      </trkpt>
      <trkpt lat="41.93472" lon="0.92558">
        <ele>588.6</ele>
        <time>2019-01-31T16:00:00Z</time>
      </trkpt>
      <trkpt lat="41.93481" lon="0.92564">
        <ele>588.5</ele>
        <time>2019-01-31T16:00:07Z</time>
      </trkpt>
      <trkpt lat="41.93491" lon="0.92568">
        <ele>587.6</ele>
        <time>2019-01-31T16:00:12Z</time>
      </trkpt>
      <trkpt lat="41.93502" lon="0.9257">
        <ele>587.1</ele>
        <time>2019-01-31T16:00:19Z</time>
      </trkpt>
      <trkpt lat="41.93513" lon="0.92572">
        <ele>587.1</ele>
        <time>2019-01-31T16:00:25Z</time>
      </trkpt>
      <trkpt lat="41.93525" lon="0.92574">
        <ele>587.1</ele>
        <time>2019-01-31T16:00:32Z</time>
      </trkpt>
      <trkpt lat="41.93536" lon="0.92579">
        <ele>584.7</ele>
        <time>2019-01-31T16:00:39Z</time>
      </trkpt>
      <trkpt lat="41.93547" lon="0.92582">
        <ele>583.3</ele>
        <time>2019-01-31T16:00:45Z</time>
      </trkpt>
      <trkpt lat="41.93559" lon="0.92585">
        <ele>583.2</ele>
        <time>2019-01-31T16:00:52Z</time>
      </trkpt>
      <trkpt lat="41.93571" lon="0.9259">
        <ele>582.7</ele>
        <time>2019-01-31T16:00:59Z</time>
      </trkpt>
      <trkpt lat="41.93582" lon="0.92597">
        <ele>580.4</ele>
        <time>2019-01-31T16:01:06Z</time>
      </trkpt>
      <trkpt lat="41.93594" lon="0.92606">
        <ele>579.4</ele>
        <time>2019-01-31T16:01:14Z</time>
      </trkpt>
      <trkpt lat="41.93604" lon="0.92607">
        <ele>578.4</ele>
        <time>2019-01-31T16:01:20Z</time>
      </trkpt>
      <trkpt lat="41.93615" lon="0.92614">
        <ele>575.5</ele>
        <time>2019-01-31T16:01:26Z</time>
      </trkpt>
      <trkpt lat="41.93626" lon="0.9262">
        <ele>574.6</ele>
        <time>2019-01-31T16:01:33Z</time>
      </trkpt>
      <trkpt lat="41.93638" lon="0.92632">
        <ele>574.5</ele>
        <time>2019-01-31T16:01:42Z</time>
      </trkpt>
      <trkpt lat="41.93646" lon="0.92643">
        <ele>574</ele>
        <time>2019-01-31T16:01:49Z</time>
      </trkpt>
      <trkpt lat="41.93654" lon="0.92656">
        <ele>574</ele>
        <time>2019-01-31T16:01:56Z</time>
      </trkpt>
      <trkpt lat="41.93661" lon="0.92668">
        <ele>574</ele>
        <time>2019-01-31T16:02:02Z</time>
      </trkpt>
      <trkpt lat="41.93665" lon="0.92681">
        <ele>575.5</ele>
        <time>2019-01-31T16:02:08Z</time>
      </trkpt>
      <trkpt lat="41.93668" lon="0.92694">
        <ele>576.9</ele>
        <time>2019-01-31T16:02:14Z</time>
      </trkpt>
      <trkpt lat="41.93667" lon="0.92709">
        <ele>578.4</ele>
        <time>2019-01-31T16:02:20Z</time>
      </trkpt>
      <trkpt lat="41.93671" lon="0.9272">
        <ele>580.4</ele>
        <time>2019-01-31T16:02:26Z</time>
      </trkpt>
      <trkpt lat="41.9368" lon="0.92719">
        <ele>581.7</ele>
        <time>2019-01-31T16:02:31Z</time>
      </trkpt>
      <trkpt lat="41.9369" lon="0.92717">
        <ele>583.3</ele>
        <time>2019-01-31T16:02:37Z</time>
      </trkpt>
      <trkpt lat="41.93701" lon="0.92713">
        <ele>585.2</ele>
        <time>2019-01-31T16:02:43Z</time>
      </trkpt>
      <trkpt lat="41.93712" lon="0.92705">
        <ele>587</ele>
        <time>2019-01-31T16:02:50Z</time>
      </trkpt>
      <trkpt lat="41.93721" lon="0.92698">
        <ele>589.4</ele>
        <time>2019-01-31T16:02:56Z</time>
      </trkpt>
      <trkpt lat="41.93729" lon="0.92701">
        <ele>591.8</ele>
        <time>2019-01-31T16:03:01Z</time>
      </trkpt>
      <trkpt lat="41.93731" lon="0.92716">
        <ele>592.9</ele>
        <time>2019-01-31T16:03:07Z</time>
      </trkpt>
      <trkpt lat="41.93727" lon="0.92729">
        <ele>593.4</ele>
        <time>2019-01-31T16:03:14Z</time>
      </trkpt>
      <trkpt lat="41.93721" lon="0.92741">
        <ele>593.9</ele>
        <time>2019-01-31T16:03:20Z</time>
      </trkpt>
      <trkpt lat="41.93713" lon="0.92749">
        <ele>594.7</ele>
        <time>2019-01-31T16:03:25Z</time>
      </trkpt>
      <trkpt lat="41.93704" lon="0.92758">
        <ele>595.7</ele>
        <time>2019-01-31T16:03:32Z</time>
      </trkpt>
      <trkpt lat="41.93696" lon="0.92767">
        <ele>597.1</ele>
        <time>2019-01-31T16:03:38Z</time>
      </trkpt>
      <trkpt lat="41.93689" lon="0.92777">
        <ele>598.1</ele>
        <time>2019-01-31T16:03:44Z</time>
      </trkpt>
      <trkpt lat="41.93685" lon="0.92789">
        <ele>599</ele>
        <time>2019-01-31T16:03:49Z</time>
      </trkpt>
      <trkpt lat="41.93684" lon="0.92802">
        <ele>600.1</ele>
        <time>2019-01-31T16:03:55Z</time>
      </trkpt>
      <trkpt lat="41.93684" lon="0.92816">
        <ele>601.5</ele>
        <time>2019-01-31T16:04:01Z</time>
      </trkpt>
      <trkpt lat="41.93682" lon="0.92828">
        <ele>602.4</ele>
        <time>2019-01-31T16:04:06Z</time>
      </trkpt>
      <trkpt lat="41.93678" lon="0.92841">
        <ele>604</ele>
        <time>2019-01-31T16:04:12Z</time>
      </trkpt>
      <trkpt lat="41.93672" lon="0.92851">
        <ele>603.9</ele>
        <time>2019-01-31T16:04:18Z</time>
      </trkpt>
      <trkpt lat="41.93665" lon="0.92861">
        <ele>604.8</ele>
        <time>2019-01-31T16:04:23Z</time>
      </trkpt>
      <trkpt lat="41.93656" lon="0.9287">
        <ele>605.4</ele>
        <time>2019-01-31T16:04:30Z</time>
      </trkpt>
      <trkpt lat="41.93649" lon="0.9288">
        <ele>606.7</ele>
        <time>2019-01-31T16:04:35Z</time>
      </trkpt>
      <trkpt lat="41.93642" lon="0.92888">
        <ele>607.7</ele>
        <time>2019-01-31T16:04:41Z</time>
      </trkpt>
      <trkpt lat="41.93636" lon="0.92899">
        <ele>608.8</ele>
        <time>2019-01-31T16:04:47Z</time>
      </trkpt>
      <trkpt lat="41.93632" lon="0.92909">
        <ele>609.1</ele>
        <time>2019-01-31T16:04:52Z</time>
      </trkpt>
      <trkpt lat="41.93623" lon="0.92917">
        <ele>610.7</ele>
        <time>2019-01-31T16:04:58Z</time>
      </trkpt>
      <trkpt lat="41.93615" lon="0.92925">
        <ele>612.1</ele>
        <time>2019-01-31T16:05:03Z</time>
      </trkpt>
      <trkpt lat="41.93608" lon="0.92935">
        <ele>613</ele>
        <time>2019-01-31T16:05:09Z</time>
      </trkpt>
      <trkpt lat="41.93602" lon="0.92946">
        <ele>613.9</ele>
        <time>2019-01-31T16:05:15Z</time>
      </trkpt>
      <trkpt lat="41.93597" lon="0.92957">
        <ele>614.4</ele>
        <time>2019-01-31T16:05:21Z</time>
      </trkpt>
      <trkpt lat="41.9359" lon="0.92968">
        <ele>614.5</ele>
        <time>2019-01-31T16:05:27Z</time>
      </trkpt>
      <trkpt lat="41.93583" lon="0.92978">
        <ele>615</ele>
        <time>2019-01-31T16:05:32Z</time>
      </trkpt>
      <trkpt lat="41.93576" lon="0.92987">
        <ele>616</ele>
        <time>2019-01-31T16:05:38Z</time>
      </trkpt>
      <trkpt lat="41.93574" lon="0.93">
        <ele>616.3</ele>
        <time>2019-01-31T16:05:44Z</time>
      </trkpt>
      <trkpt lat="41.93578" lon="0.93011">
        <ele>617.3</ele>
        <time>2019-01-31T16:05:49Z</time>
      </trkpt>
      <trkpt lat="41.93589" lon="0.9301">
        <ele>619.3</ele>
        <time>2019-01-31T16:05:55Z</time>
      </trkpt>
      <trkpt lat="41.93599" lon="0.93005">
        <ele>620.8</ele>
        <time>2019-01-31T16:06:01Z</time>
      </trkpt>
      <trkpt lat="41.93609" lon="0.92999">
        <ele>621.7</ele>
        <time>2019-01-31T16:06:07Z</time>
      </trkpt>
      <trkpt lat="41.93618" lon="0.92993">
        <ele>622.6</ele>
        <time>2019-01-31T16:06:13Z</time>
      </trkpt>
      <trkpt lat="41.93628" lon="0.92988">
        <ele>624.1</ele>
        <time>2019-01-31T16:06:19Z</time>
      </trkpt>
      <trkpt lat="41.93638" lon="0.92986">
        <ele>625.6</ele>
        <time>2019-01-31T16:06:25Z</time>
      </trkpt>
      <trkpt lat="41.93649" lon="0.92988">
        <ele>627.4</ele>
        <time>2019-01-31T16:06:31Z</time>
      </trkpt>
      <trkpt lat="41.93659" lon="0.92989">
        <ele>628.9</ele>
        <time>2019-01-31T16:06:37Z</time>
      </trkpt>
      <trkpt lat="41.93669" lon="0.92988">
        <ele>630.3</ele>
        <time>2019-01-31T16:06:43Z</time>
      </trkpt>
      <trkpt lat="41.9368" lon="0.92985">
        <ele>631.7</ele>
        <time>2019-01-31T16:06:49Z</time>
      </trkpt>
      <trkpt lat="41.93691" lon="0.92981">
        <ele>633.7</ele>
        <time>2019-01-31T16:06:55Z</time>
      </trkpt>
      <trkpt lat="41.937" lon="0.92977">
        <ele>635.6</ele>
        <time>2019-01-31T16:07:01Z</time>
      </trkpt>
      <trkpt lat="41.93709" lon="0.92971">
        <ele>637.1</ele>
        <time>2019-01-31T16:07:07Z</time>
      </trkpt>
      <trkpt lat="41.93719" lon="0.92964">
        <ele>638.6</ele>
        <time>2019-01-31T16:07:13Z</time>
      </trkpt>
      <trkpt lat="41.93727" lon="0.92957">
        <ele>640</ele>
        <time>2019-01-31T16:07:19Z</time>
      </trkpt>
      <trkpt lat="41.93734" lon="0.92951">
        <ele>641.4</ele>
        <time>2019-01-31T16:07:24Z</time>
      </trkpt>
      <trkpt lat="41.93743" lon="0.92943">
        <ele>642.9</ele>
        <time>2019-01-31T16:07:30Z</time>
      </trkpt>
      <trkpt lat="41.93752" lon="0.92935">
        <ele>644.2</ele>
        <time>2019-01-31T16:07:36Z</time>
      </trkpt>
      <trkpt lat="41.9376" lon="0.92927">
        <ele>645.8</ele>
        <time>2019-01-31T16:07:42Z</time>
      </trkpt>
      <trkpt lat="41.93769" lon="0.9292">
        <ele>647.2</ele>
        <time>2019-01-31T16:07:48Z</time>
      </trkpt>
      <trkpt lat="41.93778" lon="0.92914">
        <ele>649.5</ele>
        <time>2019-01-31T16:07:53Z</time>
      </trkpt>
      <trkpt lat="41.93787" lon="0.92909">
        <ele>651.9</ele>
        <time>2019-01-31T16:07:59Z</time>
      </trkpt>
      <trkpt lat="41.93796" lon="0.92902">
        <ele>654.3</ele>
        <time>2019-01-31T16:08:05Z</time>
      </trkpt>
      <trkpt lat="41.93803" lon="0.92895">
        <ele>655.3</ele>
        <time>2019-01-31T16:08:10Z</time>
      </trkpt>
      <trkpt lat="41.93811" lon="0.92889">
        <ele>657.2</ele>
        <time>2019-01-31T16:08:15Z</time>
      </trkpt>
      <trkpt lat="41.9382" lon="0.92882">
        <ele>659.7</ele>
        <time>2019-01-31T16:08:21Z</time>
      </trkpt>
      <trkpt lat="41.93827" lon="0.92874">
        <ele>661.5</ele>
        <time>2019-01-31T16:08:26Z</time>
      </trkpt>
      <trkpt lat="41.93835" lon="0.92865">
        <ele>663.5</ele>
        <time>2019-01-31T16:08:32Z</time>
      </trkpt>
      <trkpt lat="41.93842" lon="0.92856">
        <ele>665.9</ele>
        <time>2019-01-31T16:08:38Z</time>
      </trkpt>
      <trkpt lat="41.9385" lon="0.92849">
        <ele>667.9</ele>
        <time>2019-01-31T16:08:43Z</time>
      </trkpt>
      <trkpt lat="41.93859" lon="0.92841">
        <ele>670.3</ele>
        <time>2019-01-31T16:08:49Z</time>
      </trkpt>
      <trkpt lat="41.93867" lon="0.92833">
        <ele>672.1</ele>
        <time>2019-01-31T16:08:55Z</time>
      </trkpt>
      <trkpt lat="41.93876" lon="0.92826">
        <ele>674.1</ele>
        <time>2019-01-31T16:09:01Z</time>
      </trkpt>
      <trkpt lat="41.93884" lon="0.92819">
        <ele>676.5</ele>
        <time>2019-01-31T16:09:06Z</time>
      </trkpt>
      <trkpt lat="41.93892" lon="0.92813">
        <ele>677.9</ele>
        <time>2019-01-31T16:09:12Z</time>
      </trkpt>
      <trkpt lat="41.939" lon="0.92807">
        <ele>679.8</ele>
        <time>2019-01-31T16:09:17Z</time>
      </trkpt>
      <trkpt lat="41.93909" lon="0.928">
        <ele>680.8</ele>
        <time>2019-01-31T16:09:23Z</time>
      </trkpt>
      <trkpt lat="41.93918" lon="0.92795">
        <ele>681.8</ele>
        <time>2019-01-31T16:09:29Z</time>
      </trkpt>
      <trkpt lat="41.93928" lon="0.92789">
        <ele>682.3</ele>
        <time>2019-01-31T16:09:35Z</time>
      </trkpt>
      <trkpt lat="41.93938" lon="0.92786">
        <ele>682.8</ele>
        <time>2019-01-31T16:09:41Z</time>
      </trkpt>
      <trkpt lat="41.93948" lon="0.92783">
        <ele>683.7</ele>
        <time>2019-01-31T16:09:46Z</time>
      </trkpt>
      <trkpt lat="41.93959" lon="0.92782">
        <ele>684.7</ele>
        <time>2019-01-31T16:09:52Z</time>
      </trkpt>
      <trkpt lat="41.9397" lon="0.92781">
        <ele>686.1</ele>
        <time>2019-01-31T16:09:59Z</time>
      </trkpt>
      <trkpt lat="41.93982" lon="0.92783">
        <ele>687</ele>
        <time>2019-01-31T16:10:06Z</time>
      </trkpt>
      <trkpt lat="41.93994" lon="0.92784">
        <ele>687.6</ele>
        <time>2019-01-31T16:10:12Z</time>
      </trkpt>
      <trkpt lat="41.94005" lon="0.92783">
        <ele>687.6</ele>
        <time>2019-01-31T16:10:19Z</time>
      </trkpt>
      <trkpt lat="41.94017" lon="0.9278">
        <ele>689.4</ele>
        <time>2019-01-31T16:10:26Z</time>
      </trkpt>
      <trkpt lat="41.94028" lon="0.92777">
        <ele>690.4</ele>
        <time>2019-01-31T16:10:32Z</time>
      </trkpt>
      <trkpt lat="41.94039" lon="0.92774">
        <ele>691.9</ele>
        <time>2019-01-31T16:10:39Z</time>
      </trkpt>
      <trkpt lat="41.94049" lon="0.92772">
        <ele>693.4</ele>
        <time>2019-01-31T16:10:45Z</time>
      </trkpt>
      <trkpt lat="41.94061" lon="0.92771">
        <ele>694.7</ele>
        <time>2019-01-31T16:10:51Z</time>
      </trkpt>
      <trkpt lat="41.94072" lon="0.92771">
        <ele>696.1</ele>
        <time>2019-01-31T16:10:58Z</time>
      </trkpt>
      <trkpt lat="41.94084" lon="0.92772">
        <ele>698.6</ele>
        <time>2019-01-31T16:11:05Z</time>
      </trkpt>
      <trkpt lat="41.94095" lon="0.92775">
        <ele>700.9</ele>
        <time>2019-01-31T16:11:11Z</time>
      </trkpt>
      <trkpt lat="41.94106" lon="0.9278">
        <ele>702.5</ele>
        <time>2019-01-31T16:11:17Z</time>
      </trkpt>
      <trkpt lat="41.94115" lon="0.92786">
        <ele>704.4</ele>
        <time>2019-01-31T16:11:24Z</time>
      </trkpt>
      <trkpt lat="41.94126" lon="0.92781">
        <ele>706.7</ele>
        <time>2019-01-31T16:11:30Z</time>
      </trkpt>
      <trkpt lat="41.94128" lon="0.92769">
        <ele>708.3</ele>
        <time>2019-01-31T16:11:35Z</time>
      </trkpt>
      <trkpt lat="41.94128" lon="0.92756">
        <ele>709.1</ele>
        <time>2019-01-31T16:11:41Z</time>
      </trkpt>
      <trkpt lat="41.94132" lon="0.92744">
        <ele>709.6</ele>
        <time>2019-01-31T16:11:46Z</time>
      </trkpt>
      <trkpt lat="41.94142" lon="0.92745">
        <ele>711</ele>
        <time>2019-01-31T16:11:52Z</time>
      </trkpt>
      <trkpt lat="41.94148" lon="0.92754">
        <ele>712.1</ele>
        <time>2019-01-31T16:11:57Z</time>
      </trkpt>
      <trkpt lat="41.94153" lon="0.92766">
        <ele>713.5</ele>
        <time>2019-01-31T16:12:03Z</time>
      </trkpt>
      <trkpt lat="41.94161" lon="0.92775">
        <ele>714.9</ele>
        <time>2019-01-31T16:12:09Z</time>
      </trkpt>
      <trkpt lat="41.94171" lon="0.92778">
        <ele>717.3</ele>
        <time>2019-01-31T16:12:15Z</time>
      </trkpt>
      <trkpt lat="41.94182" lon="0.92777">
        <ele>718.8</ele>
        <time>2019-01-31T16:12:21Z</time>
      </trkpt>
      <trkpt lat="41.94193" lon="0.92775">
        <ele>720.3</ele>
        <time>2019-01-31T16:12:27Z</time>
      </trkpt>
      <trkpt lat="41.94202" lon="0.92782">
        <ele>722.2</ele>
        <time>2019-01-31T16:12:33Z</time>
      </trkpt>
      <trkpt lat="41.94202" lon="0.92795">
        <ele>723.5</ele>
        <time>2019-01-31T16:12:39Z</time>
      </trkpt>
      <trkpt lat="41.94201" lon="0.92809">
        <ele>725.1</ele>
        <time>2019-01-31T16:12:45Z</time>
      </trkpt>
      <trkpt lat="41.94206" lon="0.92821">
        <ele>725.9</ele>
        <time>2019-01-31T16:12:50Z</time>
      </trkpt>
      <trkpt lat="41.94218" lon="0.9282">
        <ele>728.3</ele>
        <time>2019-01-31T16:12:57Z</time>
      </trkpt>
      <trkpt lat="41.94225" lon="0.92817">
        <ele>730.3</ele>
        <time>2019-01-31T16:13:01Z</time>
      </trkpt>
      <trkpt lat="41.94231" lon="0.92811">
        <ele>730.4</ele>
        <time>2019-01-31T16:13:06Z</time>
      </trkpt>
      <trkpt lat="41.94243" lon="0.92808">
        <ele>732.8</ele>
        <time>2019-01-31T16:13:13Z</time>
      </trkpt>
      <trkpt lat="41.94253" lon="0.92805">
        <ele>735.1</ele>
        <time>2019-01-31T16:13:19Z</time>
      </trkpt>
      <trkpt lat="41.94263" lon="0.92802">
        <ele>737</ele>
        <time>2019-01-31T16:13:24Z</time>
      </trkpt>
      <trkpt lat="41.94274" lon="0.92797">
        <ele>738.9</ele>
        <time>2019-01-31T16:13:31Z</time>
      </trkpt>
      <trkpt lat="41.94284" lon="0.92793">
        <ele>740.4</ele>
        <time>2019-01-31T16:13:37Z</time>
      </trkpt>
      <trkpt lat="41.94294" lon="0.92788">
        <ele>742.8</ele>
        <time>2019-01-31T16:13:43Z</time>
      </trkpt>
      <trkpt lat="41.94305" lon="0.92784">
        <ele>743.8</ele>
        <time>2019-01-31T16:13:50Z</time>
      </trkpt>
      <trkpt lat="41.94316" lon="0.92782">
        <ele>745.6</ele>
        <time>2019-01-31T16:13:56Z</time>
      </trkpt>
      <trkpt lat="41.94327" lon="0.92783">
        <ele>747.6</ele>
        <time>2019-01-31T16:14:02Z</time>
      </trkpt>
      <trkpt lat="41.94339" lon="0.92785">
        <ele>749</ele>
        <time>2019-01-31T16:14:09Z</time>
      </trkpt>
      <trkpt lat="41.94351" lon="0.9279">
        <ele>750.9</ele>
        <time>2019-01-31T16:14:16Z</time>
      </trkpt>
      <trkpt lat="41.94362" lon="0.92791">
        <ele>752.9</ele>
        <time>2019-01-31T16:14:23Z</time>
      </trkpt>
      <trkpt lat="41.94374" lon="0.92791">
        <ele>753.8</ele>
        <time>2019-01-31T16:14:29Z</time>
      </trkpt>
      <trkpt lat="41.94384" lon="0.92792">
        <ele>755.7</ele>
        <time>2019-01-31T16:14:35Z</time>
      </trkpt>
      <trkpt lat="41.94396" lon="0.92793">
        <ele>757.3</ele>
        <time>2019-01-31T16:14:42Z</time>
      </trkpt>
      <trkpt lat="41.94409" lon="0.92793">
        <ele>759.1</ele>
        <time>2019-01-31T16:14:50Z</time>
      </trkpt>
      <trkpt lat="41.94423" lon="0.92796">
        <ele>761.6</ele>
        <time>2019-01-31T16:14:57Z</time>
      </trkpt>
      <trkpt lat="41.94435" lon="0.92798">
        <ele>763</ele>
        <time>2019-01-31T16:15:05Z</time>
      </trkpt>
      <trkpt lat="41.94446" lon="0.92802">
        <ele>764.5</ele>
        <time>2019-01-31T16:15:11Z</time>
      </trkpt>
      <trkpt lat="41.94456" lon="0.92806">
        <ele>765.8</ele>
        <time>2019-01-31T16:15:17Z</time>
      </trkpt>
      <trkpt lat="41.94466" lon="0.92812">
        <ele>766.8</ele>
        <time>2019-01-31T16:15:23Z</time>
      </trkpt>
      <trkpt lat="41.94477" lon="0.92819">
        <ele>767.8</ele>
        <time>2019-01-31T16:15:30Z</time>
      </trkpt>
      <trkpt lat="41.94486" lon="0.92826">
        <ele>767.9</ele>
        <time>2019-01-31T16:15:36Z</time>
      </trkpt>
      <trkpt lat="41.94495" lon="0.92832">
        <ele>768.3</ele>
        <time>2019-01-31T16:15:42Z</time>
      </trkpt>
      <trkpt lat="41.94501" lon="0.92823">
        <ele>768.7</ele>
        <time>2019-01-31T16:15:48Z</time>
      </trkpt>
      <trkpt lat="41.94499" lon="0.92809">
        <ele>769.8</ele>
        <time>2019-01-31T16:15:54Z</time>
      </trkpt>
      <trkpt lat="41.94497" lon="0.92795">
        <ele>770.3</ele>
        <time>2019-01-31T16:15:59Z</time>
      </trkpt>
      <trkpt lat="41.94495" lon="0.92781">
        <ele>771.1</ele>
        <time>2019-01-31T16:16:06Z</time>
      </trkpt>
      <trkpt lat="41.94492" lon="0.92766">
        <ele>771.6</ele>
        <time>2019-01-31T16:16:12Z</time>
      </trkpt>
      <trkpt lat="41.94491" lon="0.92751">
        <ele>772.2</ele>
        <time>2019-01-31T16:16:18Z</time>
      </trkpt>
      <trkpt lat="41.9449" lon="0.92738">
        <ele>773.1</ele>
        <time>2019-01-31T16:16:24Z</time>
      </trkpt>
      <trkpt lat="41.94491" lon="0.92724">
        <ele>774.1</ele>
        <time>2019-01-31T16:16:30Z</time>
      </trkpt>
      <trkpt lat="41.94498" lon="0.92713">
        <ele>775</ele>
        <time>2019-01-31T16:16:36Z</time>
      </trkpt>
      <trkpt lat="41.94508" lon="0.92712">
        <ele>775.4</ele>
        <time>2019-01-31T16:16:42Z</time>
      </trkpt>
      <trkpt lat="41.94517" lon="0.92719">
        <ele>776</ele>
        <time>2019-01-31T16:16:48Z</time>
      </trkpt>
      <trkpt lat="41.94527" lon="0.92727">
        <ele>777.5</ele>
        <time>2019-01-31T16:16:55Z</time>
      </trkpt>
      <trkpt lat="41.94534" lon="0.92735">
        <ele>778.9</ele>
        <time>2019-01-31T16:17:00Z</time>
      </trkpt>
      <trkpt lat="41.94544" lon="0.92741">
        <ele>780.3</ele>
        <time>2019-01-31T16:17:06Z</time>
      </trkpt>
      <trkpt lat="41.94554" lon="0.92749">
        <ele>782.2</ele>
        <time>2019-01-31T16:17:13Z</time>
      </trkpt>
      <trkpt lat="41.94564" lon="0.92753">
        <ele>783.7</ele>
        <time>2019-01-31T16:17:19Z</time>
      </trkpt>
      <trkpt lat="41.94575" lon="0.92755">
        <ele>784.1</ele>
        <time>2019-01-31T16:17:25Z</time>
      </trkpt>
      <trkpt lat="41.94587" lon="0.92754">
        <ele>785.1</ele>
        <time>2019-01-31T16:17:32Z</time>
      </trkpt>
      <trkpt lat="41.94598" lon="0.92753">
        <ele>785.6</ele>
        <time>2019-01-31T16:17:38Z</time>
      </trkpt>
      <trkpt lat="41.94609" lon="0.92752">
        <ele>785.6</ele>
        <time>2019-01-31T16:17:45Z</time>
      </trkpt>
      <trkpt lat="41.94621" lon="0.92748">
        <ele>785.5</ele>
        <time>2019-01-31T16:17:51Z</time>
      </trkpt>
      <trkpt lat="41.94632" lon="0.92744">
        <ele>785.5</ele>
        <time>2019-01-31T16:17:58Z</time>
      </trkpt>
      <trkpt lat="41.94646" lon="0.92742">
        <ele>787.6</ele>
        <time>2019-01-31T16:18:06Z</time>
      </trkpt>
      <trkpt lat="41.94659" lon="0.92748">
        <ele>788.4</ele>
        <time>2019-01-31T16:18:14Z</time>
      </trkpt>
      <trkpt lat="41.94671" lon="0.92743">
        <ele>788.5</ele>
        <time>2019-01-31T16:18:21Z</time>
      </trkpt>
      <trkpt lat="41.94678" lon="0.9273">
        <ele>788.4</ele>
        <time>2019-01-31T16:18:28Z</time>
      </trkpt>
      <trkpt lat="41.94687" lon="0.92727">
        <ele>789.5</ele>
        <time>2019-01-31T16:18:33Z</time>
      </trkpt>
      <trkpt lat="41.94696" lon="0.92735">
        <ele>791.4</ele>
        <time>2019-01-31T16:18:39Z</time>
      </trkpt>
      <trkpt lat="41.94702" lon="0.92747">
        <ele>793.3</ele>
        <time>2019-01-31T16:18:45Z</time>
      </trkpt>
      <trkpt lat="41.94705" lon="0.92761">
        <ele>794.2</ele>
        <time>2019-01-31T16:18:52Z</time>
      </trkpt>
      <trkpt lat="41.94704" lon="0.92778">
        <ele>795.3</ele>
        <time>2019-01-31T16:18:59Z</time>
      </trkpt>
      <trkpt lat="41.94706" lon="0.92797">
        <ele>796.6</ele>
        <time>2019-01-31T16:19:07Z</time>
      </trkpt>
      <trkpt lat="41.94715" lon="0.92806">
        <ele>800</ele>
        <time>2019-01-31T16:19:14Z</time>
      </trkpt>
      <trkpt lat="41.94725" lon="0.92812">
        <ele>801.9</ele>
        <time>2019-01-31T16:19:20Z</time>
      </trkpt>
      <trkpt lat="41.94734" lon="0.9282">
        <ele>803.3</ele>
        <time>2019-01-31T16:19:26Z</time>
      </trkpt>
      <trkpt lat="41.94741" lon="0.92831">
        <ele>805.8</ele>
        <time>2019-01-31T16:19:32Z</time>
      </trkpt>
      <trkpt lat="41.94749" lon="0.92844">
        <ele>808.1</ele>
        <time>2019-01-31T16:19:40Z</time>
      </trkpt>
      <trkpt lat="41.94757" lon="0.92853">
        <ele>811.1</ele>
        <time>2019-01-31T16:19:46Z</time>
      </trkpt>
      <trkpt lat="41.94766" lon="0.92861">
        <ele>813</ele>
        <time>2019-01-31T16:19:52Z</time>
      </trkpt>
      <trkpt lat="41.94777" lon="0.92867">
        <ele>815.3</ele>
        <time>2019-01-31T16:19:58Z</time>
      </trkpt>
      <trkpt lat="41.94787" lon="0.92867">
        <ele>816.9</ele>
        <time>2019-01-31T16:20:04Z</time>
      </trkpt>
      <trkpt lat="41.94791" lon="0.92855">
        <ele>817.3</ele>
        <time>2019-01-31T16:20:10Z</time>
      </trkpt>
      <trkpt lat="41.94786" lon="0.92843">
        <ele>817.3</ele>
        <time>2019-01-31T16:20:15Z</time>
      </trkpt>
      <trkpt lat="41.94782" lon="0.92828">
        <ele>818.2</ele>
        <time>2019-01-31T16:20:22Z</time>
      </trkpt>
      <trkpt lat="41.94781" lon="0.92813">
        <ele>819.2</ele>
        <time>2019-01-31T16:20:28Z</time>
      </trkpt>
      <trkpt lat="41.94781" lon="0.928">
        <ele>819.7</ele>
        <time>2019-01-31T16:20:34Z</time>
      </trkpt>
      <trkpt lat="41.94784" lon="0.92784">
        <ele>820.6</ele>
        <time>2019-01-31T16:20:41Z</time>
      </trkpt>
      <trkpt lat="41.94788" lon="0.92771">
        <ele>822.1</ele>
        <time>2019-01-31T16:20:47Z</time>
      </trkpt>
      <trkpt lat="41.94794" lon="0.92756">
        <ele>823.5</ele>
        <time>2019-01-31T16:20:54Z</time>
      </trkpt>
      <trkpt lat="41.948" lon="0.92744">
        <ele>825.1</ele>
        <time>2019-01-31T16:21:01Z</time>
      </trkpt>
      <trkpt lat="41.94802" lon="0.9273">
        <ele>826.4</ele>
        <time>2019-01-31T16:21:07Z</time>
      </trkpt>
      <trkpt lat="41.948" lon="0.92715">
        <ele>826.4</ele>
        <time>2019-01-31T16:21:13Z</time>
      </trkpt>
      <trkpt lat="41.94795" lon="0.92702">
        <ele>826.5</ele>
        <time>2019-01-31T16:21:20Z</time>
      </trkpt>
      <trkpt lat="41.9479" lon="0.92691">
        <ele>826.4</ele>
        <time>2019-01-31T16:21:25Z</time>
      </trkpt>
      <trkpt lat="41.94785" lon="0.92677">
        <ele>825.1</ele>
        <time>2019-01-31T16:21:32Z</time>
      </trkpt>
      <trkpt lat="41.94782" lon="0.92663">
        <ele>825.1</ele>
        <time>2019-01-31T16:21:38Z</time>
      </trkpt>
      <trkpt lat="41.9478" lon="0.92651">
        <ele>825</ele>
        <time>2019-01-31T16:21:43Z</time>
      </trkpt>
      <trkpt lat="41.94781" lon="0.92636">
        <ele>827.4</ele>
        <time>2019-01-31T16:21:50Z</time>
      </trkpt>
      <trkpt lat="41.94783" lon="0.9262">
        <ele>829.4</ele>
        <time>2019-01-31T16:21:56Z</time>
      </trkpt>
      <trkpt lat="41.94788" lon="0.92606">
        <ele>831.2</ele>
        <time>2019-01-31T16:22:03Z</time>
      </trkpt>
      <trkpt lat="41.94789" lon="0.92591">
        <ele>832.7</ele>
        <time>2019-01-31T16:22:09Z</time>
      </trkpt>
      <trkpt lat="41.94791" lon="0.92577">
        <ele>833.6</ele>
        <time>2019-01-31T16:22:15Z</time>
      </trkpt>
      <trkpt lat="41.94796" lon="0.92565">
        <ele>833.7</ele>
        <time>2019-01-31T16:22:21Z</time>
      </trkpt>
      <trkpt lat="41.94802" lon="0.92553">
        <ele>833.6</ele>
        <time>2019-01-31T16:22:28Z</time>
      </trkpt>
      <trkpt lat="41.94808" lon="0.92542">
        <ele>833.7</ele>
        <time>2019-01-31T16:22:33Z</time>
      </trkpt>
      <trkpt lat="41.94813" lon="0.9253">
        <ele>833.7</ele>
        <time>2019-01-31T16:22:39Z</time>
      </trkpt>
      <trkpt lat="41.9482" lon="0.92518">
        <ele>833.7</ele>
        <time>2019-01-31T16:22:45Z</time>
      </trkpt>
      <trkpt lat="41.94828" lon="0.92508">
        <ele>834.1</ele>
        <time>2019-01-31T16:22:52Z</time>
      </trkpt>
      <trkpt lat="41.94836" lon="0.925">
        <ele>835</ele>
        <time>2019-01-31T16:22:57Z</time>
      </trkpt>
      <trkpt lat="41.94843" lon="0.92489">
        <ele>833.6</ele>
        <time>2019-01-31T16:23:04Z</time>
      </trkpt>
      <trkpt lat="41.94851" lon="0.92481">
        <ele>833.7</ele>
        <time>2019-01-31T16:23:09Z</time>
      </trkpt>
      <trkpt lat="41.94862" lon="0.92473">
        <ele>833.1</ele>
        <time>2019-01-31T16:23:16Z</time>
      </trkpt>
      <trkpt lat="41.94872" lon="0.92467">
        <ele>833.1</ele>
        <time>2019-01-31T16:23:23Z</time>
      </trkpt>
      <trkpt lat="41.94881" lon="0.9246">
        <ele>833.7</ele>
        <time>2019-01-31T16:23:28Z</time>
      </trkpt>
      <trkpt lat="41.9489" lon="0.92452">
        <ele>833.2</ele>
        <time>2019-01-31T16:23:35Z</time>
      </trkpt>
      <trkpt lat="41.94901" lon="0.92445">
        <ele>833.1</ele>
        <time>2019-01-31T16:23:42Z</time>
      </trkpt>
      <trkpt lat="41.9491" lon="0.9244">
        <ele>833.2</ele>
        <time>2019-01-31T16:23:47Z</time>
      </trkpt>
      <trkpt lat="41.94919" lon="0.92436">
        <ele>833.1</ele>
        <time>2019-01-31T16:23:53Z</time>
      </trkpt>
      <trkpt lat="41.94932" lon="0.92431">
        <ele>833.2</ele>
        <time>2019-01-31T16:24:00Z</time>
      </trkpt>
      <trkpt lat="41.94941" lon="0.92426">
        <ele>832.6</ele>
        <time>2019-01-31T16:24:06Z</time>
      </trkpt>
      <trkpt lat="41.94951" lon="0.9242">
        <ele>832.2</ele>
        <time>2019-01-31T16:24:12Z</time>
      </trkpt>
      <trkpt lat="41.9496" lon="0.92415">
        <ele>832.2</ele>
        <time>2019-01-31T16:24:18Z</time>
      </trkpt>
      <trkpt lat="41.94969" lon="0.92409">
        <ele>832.2</ele>
        <time>2019-01-31T16:24:24Z</time>
      </trkpt>
      <trkpt lat="41.94977" lon="0.92399">
        <ele>833.7</ele>
        <time>2019-01-31T16:24:30Z</time>
      </trkpt>
      <trkpt lat="41.94983" lon="0.92386">
        <ele>835.1</ele>
        <time>2019-01-31T16:24:36Z</time>
      </trkpt>
      <trkpt lat="41.94992" lon="0.92378">
        <ele>836.1</ele>
        <time>2019-01-31T16:24:43Z</time>
      </trkpt>
      <trkpt lat="41.95" lon="0.92385">
        <ele>836.5</ele>
        <time>2019-01-31T16:24:48Z</time>
      </trkpt>
      <trkpt lat="41.95007" lon="0.92395">
        <ele>837.5</ele>
        <time>2019-01-31T16:24:54Z</time>
      </trkpt>
      <trkpt lat="41.95015" lon="0.92407">
        <ele>839.4</ele>
        <time>2019-01-31T16:25:01Z</time>
      </trkpt>
      <trkpt lat="41.95021" lon="0.92419">
        <ele>841.4</ele>
        <time>2019-01-31T16:25:07Z</time>
      </trkpt>
      <trkpt lat="41.95027" lon="0.9243">
        <ele>843.2</ele>
        <time>2019-01-31T16:25:13Z</time>
      </trkpt>
      <trkpt lat="41.95036" lon="0.92431">
        <ele>845.2</ele>
        <time>2019-01-31T16:25:18Z</time>
      </trkpt>
      <trkpt lat="41.95041" lon="0.9242">
        <ele>846.1</ele>
        <time>2019-01-31T16:25:24Z</time>
      </trkpt>
      <trkpt lat="41.95041" lon="0.92407">
        <ele>847.5</ele>
        <time>2019-01-31T16:25:29Z</time>
      </trkpt>
      <trkpt lat="41.95042" lon="0.92394">
        <ele>847.5</ele>
        <time>2019-01-31T16:25:35Z</time>
      </trkpt>
      <trkpt lat="41.9505" lon="0.924">
        <ele>850</ele>
        <time>2019-01-31T16:25:40Z</time>
      </trkpt>
      <trkpt lat="41.95057" lon="0.9241">
        <ele>851</ele>
        <time>2019-01-31T16:25:46Z</time>
      </trkpt>
      <trkpt lat="41.95064" lon="0.92421">
        <ele>852.4</ele>
        <time>2019-01-31T16:25:52Z</time>
      </trkpt>
      <trkpt lat="41.9507" lon="0.92433">
        <ele>854.4</ele>
        <time>2019-01-31T16:25:58Z</time>
      </trkpt>
      <trkpt lat="41.95073" lon="0.92448">
        <ele>855.2</ele>
        <time>2019-01-31T16:26:05Z</time>
      </trkpt>
      <trkpt lat="41.95073" lon="0.92464">
        <ele>857.2</ele>
        <time>2019-01-31T16:26:11Z</time>
      </trkpt>
      <trkpt lat="41.9507" lon="0.92478">
        <ele>857.6</ele>
        <time>2019-01-31T16:26:18Z</time>
      </trkpt>
      <trkpt lat="41.9507" lon="0.92493">
        <ele>859.2</ele>
        <time>2019-01-31T16:26:24Z</time>
      </trkpt>
      <trkpt lat="41.95079" lon="0.92496">
        <ele>860.6</ele>
        <time>2019-01-31T16:26:30Z</time>
      </trkpt>
      <trkpt lat="41.95086" lon="0.92486">
        <ele>862.9</ele>
        <time>2019-01-31T16:26:35Z</time>
      </trkpt>
      <trkpt lat="41.95091" lon="0.92474">
        <ele>863.9</ele>
        <time>2019-01-31T16:26:41Z</time>
      </trkpt>
      <trkpt lat="41.95095" lon="0.92461">
        <ele>864.8</ele>
        <time>2019-01-31T16:26:47Z</time>
      </trkpt>
      <trkpt lat="41.95097" lon="0.92447">
        <ele>867.3</ele>
        <time>2019-01-31T16:26:53Z</time>
      </trkpt>
      <trkpt lat="41.95098" lon="0.92432">
        <ele>868.7</ele>
        <time>2019-01-31T16:27:00Z</time>
      </trkpt>
      <trkpt lat="41.95099" lon="0.92418">
        <ele>870.2</ele>
        <time>2019-01-31T16:27:05Z</time>
      </trkpt>
      <trkpt lat="41.95104" lon="0.92414">
        <ele>870.7</ele>
        <time>2019-01-31T16:27:09Z</time>
      </trkpt>
      <trkpt lat="41.95112" lon="0.92423">
        <ele>871.7</ele>
        <time>2019-01-31T16:27:15Z</time>
      </trkpt>
      <trkpt lat="41.95115" lon="0.92437">
        <ele>873</ele>
        <time>2019-01-31T16:27:21Z</time>
      </trkpt>
      <trkpt lat="41.95118" lon="0.92452">
        <ele>874.5</ele>
        <time>2019-01-31T16:27:28Z</time>
      </trkpt>
      <trkpt lat="41.95123" lon="0.92468">
        <ele>876.5</ele>
        <time>2019-01-31T16:27:35Z</time>
      </trkpt>
      <trkpt lat="41.95129" lon="0.92481">
        <ele>878.4</ele>
        <time>2019-01-31T16:27:42Z</time>
      </trkpt>
      <trkpt lat="41.95134" lon="0.92495">
        <ele>880.7</ele>
        <time>2019-01-31T16:27:48Z</time>
      </trkpt>
      <trkpt lat="41.95139" lon="0.92508">
        <ele>883.1</ele>
        <time>2019-01-31T16:27:55Z</time>
      </trkpt>
      <trkpt lat="41.95145" lon="0.92521">
        <ele>885.6</ele>
        <time>2019-01-31T16:28:01Z</time>
      </trkpt>
      <trkpt lat="41.9515" lon="0.92534">
        <ele>888</ele>
        <time>2019-01-31T16:28:07Z</time>
      </trkpt>
      <trkpt lat="41.95153" lon="0.92548">
        <ele>890.4</ele>
        <time>2019-01-31T16:28:13Z</time>
      </trkpt>
      <trkpt lat="41.95155" lon="0.92561">
        <ele>890.8</ele>
        <time>2019-01-31T16:28:19Z</time>
      </trkpt>
      <trkpt lat="41.9516" lon="0.92572">
        <ele>894.2</ele>
        <time>2019-01-31T16:28:24Z</time>
      </trkpt>
      <trkpt lat="41.95165" lon="0.92567">
        <ele>896.1</ele>
        <time>2019-01-31T16:28:28Z</time>
      </trkpt>
      <trkpt lat="41.95167" lon="0.92554">
        <ele>897.5</ele>
        <time>2019-01-31T16:28:33Z</time>
      </trkpt>
      <trkpt lat="41.9517" lon="0.92542">
        <ele>897.6</ele>
        <time>2019-01-31T16:28:39Z</time>
      </trkpt>
      <trkpt lat="41.95172" lon="0.92529">
        <ele>898</ele>
        <time>2019-01-31T16:28:44Z</time>
      </trkpt>
      <trkpt lat="41.95175" lon="0.92516">
        <ele>898.5</ele>
        <time>2019-01-31T16:28:50Z</time>
      </trkpt>
      <trkpt lat="41.95177" lon="0.92503">
        <ele>898.5</ele>
        <time>2019-01-31T16:28:56Z</time>
      </trkpt>
      <trkpt lat="41.95179" lon="0.92489">
        <ele>899.5</ele>
        <time>2019-01-31T16:29:02Z</time>
      </trkpt>
      <trkpt lat="41.95182" lon="0.92474">
        <ele>900.9</ele>
        <time>2019-01-31T16:29:09Z</time>
      </trkpt>
      <trkpt lat="41.95187" lon="0.92473">
        <ele>901.4</ele>
        <time>2019-01-31T16:29:12Z</time>
      </trkpt>
      <trkpt lat="41.95188" lon="0.92485">
        <ele>902.9</ele>
        <time>2019-01-31T16:29:17Z</time>
      </trkpt>
      <trkpt lat="41.95188" lon="0.925">
        <ele>903.9</ele>
        <time>2019-01-31T16:29:23Z</time>
      </trkpt>
      <trkpt lat="41.95189" lon="0.92515">
        <ele>905.7</ele>
        <time>2019-01-31T16:29:29Z</time>
      </trkpt>
      <trkpt lat="41.9519" lon="0.9253">
        <ele>906.7</ele>
        <time>2019-01-31T16:29:36Z</time>
      </trkpt>
      <trkpt lat="41.9519" lon="0.92547">
        <ele>906.8</ele>
        <time>2019-01-31T16:29:43Z</time>
      </trkpt>
      <trkpt lat="41.9519" lon="0.92564">
        <ele>907.2</ele>
        <time>2019-01-31T16:29:50Z</time>
      </trkpt>
      <trkpt lat="41.9519" lon="0.92582">
        <ele>908.7</ele>
        <time>2019-01-31T16:29:58Z</time>
      </trkpt>
      <trkpt lat="41.95188" lon="0.92599">
        <ele>908.7</ele>
        <time>2019-01-31T16:30:05Z</time>
      </trkpt>
      <trkpt lat="41.95184" lon="0.92615">
        <ele>908.6</ele>
        <time>2019-01-31T16:30:13Z</time>
      </trkpt>
      <trkpt lat="41.95178" lon="0.92627">
        <ele>909.1</ele>
        <time>2019-01-31T16:30:19Z</time>
      </trkpt>
      <trkpt lat="41.95171" lon="0.92639">
        <ele>909.2</ele>
        <time>2019-01-31T16:30:25Z</time>
      </trkpt>
      <trkpt lat="41.95164" lon="0.92649">
        <ele>909.5</ele>
        <time>2019-01-31T16:30:31Z</time>
      </trkpt>
      <trkpt lat="41.95154" lon="0.9266">
        <ele>910</ele>
        <time>2019-01-31T16:30:38Z</time>
      </trkpt>
      <trkpt lat="41.95147" lon="0.92671">
        <ele>911.6</ele>
        <time>2019-01-31T16:30:45Z</time>
      </trkpt>
      <trkpt lat="41.95156" lon="0.92675">
        <ele>912.9</ele>
        <time>2019-01-31T16:30:50Z</time>
      </trkpt>
      <trkpt lat="41.95167" lon="0.92669">
        <ele>914</ele>
        <time>2019-01-31T16:30:57Z</time>
      </trkpt>
      <trkpt lat="41.95177" lon="0.92664">
        <ele>915.9</ele>
        <time>2019-01-31T16:31:03Z</time>
      </trkpt>
      <trkpt lat="41.95186" lon="0.92656">
        <ele>916.9</ele>
        <time>2019-01-31T16:31:09Z</time>
      </trkpt>
      <trkpt lat="41.95197" lon="0.92649">
        <ele>917.8</ele>
        <time>2019-01-31T16:31:16Z</time>
      </trkpt>
      <trkpt lat="41.95206" lon="0.92639">
        <ele>920.2</ele>
        <time>2019-01-31T16:31:23Z</time>
      </trkpt>
      <trkpt lat="41.95211" lon="0.92625">
        <ele>921.1</ele>
        <time>2019-01-31T16:31:29Z</time>
      </trkpt>
      <trkpt lat="41.95218" lon="0.92629">
        <ele>923</ele>
        <time>2019-01-31T16:31:33Z</time>
      </trkpt>
      <trkpt lat="41.95213" lon="0.92642">
        <ele>924.9</ele>
        <time>2019-01-31T16:31:40Z</time>
      </trkpt>
      <trkpt lat="41.95208" lon="0.92654">
        <ele>926.5</ele>
        <time>2019-01-31T16:31:46Z</time>
      </trkpt>
      <trkpt lat="41.95216" lon="0.92655">
        <ele>928.8</ele>
        <time>2019-01-31T16:31:51Z</time>
      </trkpt>
      <trkpt lat="41.95225" lon="0.92647">
        <ele>930.8</ele>
        <time>2019-01-31T16:31:57Z</time>
      </trkpt>
      <trkpt lat="41.95234" lon="0.92637">
        <ele>932.6</ele>
        <time>2019-01-31T16:32:03Z</time>
      </trkpt>
      <trkpt lat="41.95239" lon="0.92624">
        <ele>933.7</ele>
        <time>2019-01-31T16:32:10Z</time>
      </trkpt>
      <trkpt lat="41.95244" lon="0.9261">
        <ele>934.2</ele>
        <time>2019-01-31T16:32:16Z</time>
      </trkpt>
      <trkpt lat="41.95247" lon="0.92592">
        <ele>935</ele>
        <time>2019-01-31T16:32:24Z</time>
      </trkpt>
      <trkpt lat="41.95242" lon="0.92601">
        <ele>935</ele>
        <time>2019-01-31T16:32:29Z</time>
      </trkpt>
      <trkpt lat="41.95238" lon="0.92614">
        <ele>933.6</ele>
        <time>2019-01-31T16:32:35Z</time>
      </trkpt>
      <trkpt lat="41.95233" lon="0.92626">
        <ele>932.1</ele>
        <time>2019-01-31T16:32:41Z</time>
      </trkpt>
      <trkpt lat="41.95224" lon="0.92637">
        <ele>931.2</ele>
        <time>2019-01-31T16:32:48Z</time>
      </trkpt>
      <trkpt lat="41.95217" lon="0.92648">
        <ele>929.8</ele>
        <time>2019-01-31T16:32:54Z</time>
      </trkpt>
      <trkpt lat="41.9521" lon="0.92657">
        <ele>927.9</ele>
        <time>2019-01-31T16:33:00Z</time>
      </trkpt>
      <trkpt lat="41.95201" lon="0.92663">
        <ele>926.5</ele>
        <time>2019-01-31T16:33:06Z</time>
      </trkpt>
      <trkpt lat="41.95202" lon="0.92664">
        <ele>927</ele>
        <time>2019-01-31T16:33:06Z</time>
      </trkpt>
      <trkpt lat="41.95211" lon="0.92659">
        <ele>926.9</ele>
        <time>2019-01-31T16:33:12Z</time>
      </trkpt>
      <trkpt lat="41.95218" lon="0.92651">
        <ele>928.9</ele>
        <time>2019-01-31T16:33:17Z</time>
      </trkpt>
      <trkpt lat="41.95225" lon="0.9264">
        <ele>930.8</ele>
        <time>2019-01-31T16:33:23Z</time>
      </trkpt>
      <trkpt lat="41.95232" lon="0.92631">
        <ele>932.1</ele>
        <time>2019-01-31T16:33:29Z</time>
      </trkpt>
      <trkpt lat="41.95237" lon="0.92618">
        <ele>933.7</ele>
        <time>2019-01-31T16:33:35Z</time>
      </trkpt>
      <trkpt lat="41.95243" lon="0.92604">
        <ele>933.7</ele>
        <time>2019-01-31T16:33:42Z</time>
      </trkpt>
      <trkpt lat="41.95251" lon="0.92592">
        <ele>934.5</ele>
        <time>2019-01-31T16:33:49Z</time>
      </trkpt>
      <trkpt lat="41.95259" lon="0.92584">
        <ele>935.5</ele>
        <time>2019-01-31T16:33:55Z</time>
      </trkpt>
      <trkpt lat="41.95265" lon="0.92591">
        <ele>937.4</ele>
        <time>2019-01-31T16:33:59Z</time>
      </trkpt>
      <trkpt lat="41.95258" lon="0.92604">
        <ele>938.9</ele>
        <time>2019-01-31T16:34:06Z</time>
      </trkpt>
      <trkpt lat="41.95252" lon="0.92614">
        <ele>939.8</ele>
        <time>2019-01-31T16:34:11Z</time>
      </trkpt>
      <trkpt lat="41.95247" lon="0.92626">
        <ele>940.4</ele>
        <time>2019-01-31T16:34:18Z</time>
      </trkpt>
      <trkpt lat="41.95245" lon="0.92641">
        <ele>941.4</ele>
        <time>2019-01-31T16:34:24Z</time>
      </trkpt>
      <trkpt lat="41.95243" lon="0.92656">
        <ele>942.3</ele>
        <time>2019-01-31T16:34:30Z</time>
      </trkpt>
      <trkpt lat="41.9524" lon="0.92669">
        <ele>943.3</ele>
        <time>2019-01-31T16:34:36Z</time>
      </trkpt>
      <trkpt lat="41.95234" lon="0.92679">
        <ele>944.2</ele>
        <time>2019-01-31T16:34:41Z</time>
      </trkpt>
      <trkpt lat="41.95228" lon="0.92688">
        <ele>945.2</ele>
        <time>2019-01-31T16:34:47Z</time>
      </trkpt>
      <trkpt lat="41.95222" lon="0.92698">
        <ele>946.1</ele>
        <time>2019-01-31T16:34:52Z</time>
      </trkpt>
      <trkpt lat="41.95216" lon="0.92709">
        <ele>946.6</ele>
        <time>2019-01-31T16:34:58Z</time>
      </trkpt>
      <trkpt lat="41.95209" lon="0.92719">
        <ele>947.5</ele>
        <time>2019-01-31T16:35:04Z</time>
      </trkpt>
      <trkpt lat="41.95201" lon="0.92729">
        <ele>947.6</ele>
        <time>2019-01-31T16:35:10Z</time>
      </trkpt>
      <trkpt lat="41.95191" lon="0.92737">
        <ele>947.5</ele>
        <time>2019-01-31T16:35:16Z</time>
      </trkpt>
      <trkpt lat="41.95182" lon="0.92741">
        <ele>946.1</ele>
        <time>2019-01-31T16:35:22Z</time>
      </trkpt>
      <trkpt lat="41.95171" lon="0.92747">
        <ele>945.7</ele>
        <time>2019-01-31T16:35:29Z</time>
      </trkpt>
      <trkpt lat="41.95161" lon="0.9275">
        <ele>945.2</ele>
        <time>2019-01-31T16:35:35Z</time>
      </trkpt>
      <trkpt lat="41.9515" lon="0.92751">
        <ele>945.2</ele>
        <time>2019-01-31T16:35:41Z</time>
      </trkpt>
      <trkpt lat="41.95139" lon="0.9275">
        <ele>945.1</ele>
        <time>2019-01-31T16:35:47Z</time>
      </trkpt>
      <trkpt lat="41.95129" lon="0.92749">
        <ele>945.2</ele>
        <time>2019-01-31T16:35:53Z</time>
      </trkpt>
      <trkpt lat="41.95118" lon="0.92748">
        <ele>946.1</ele>
        <time>2019-01-31T16:36:00Z</time>
      </trkpt>
      <trkpt lat="41.95108" lon="0.92749">
        <ele>946.6</ele>
        <time>2019-01-31T16:36:05Z</time>
      </trkpt>
      <trkpt lat="41.95096" lon="0.9275">
        <ele>947.5</ele>
        <time>2019-01-31T16:36:12Z</time>
      </trkpt>
      <trkpt lat="41.95086" lon="0.92749">
        <ele>949</ele>
        <time>2019-01-31T16:36:18Z</time>
      </trkpt>
      <trkpt lat="41.95075" lon="0.9275">
        <ele>949.5</ele>
        <time>2019-01-31T16:36:24Z</time>
      </trkpt>
      <trkpt lat="41.95067" lon="0.92758">
        <ele>950.5</ele>
        <time>2019-01-31T16:36:30Z</time>
      </trkpt>
      <trkpt lat="41.95066" lon="0.92772">
        <ele>951</ele>
        <time>2019-01-31T16:36:36Z</time>
      </trkpt>
      <trkpt lat="41.95071" lon="0.92786">
        <ele>952.3</ele>
        <time>2019-01-31T16:36:42Z</time>
      </trkpt>
      <trkpt lat="41.95077" lon="0.92798">
        <ele>953.3</ele>
        <time>2019-01-31T16:36:48Z</time>
      </trkpt>
      <trkpt lat="41.95083" lon="0.92809">
        <ele>954.3</ele>
        <time>2019-01-31T16:36:54Z</time>
      </trkpt>
      <trkpt lat="41.95087" lon="0.92822">
        <ele>954.7</ele>
        <time>2019-01-31T16:37:00Z</time>
      </trkpt>
      <trkpt lat="41.95093" lon="0.92832">
        <ele>956.2</ele>
        <time>2019-01-31T16:37:06Z</time>
      </trkpt>
      <trkpt lat="41.951" lon="0.92841">
        <ele>957.1</ele>
        <time>2019-01-31T16:37:11Z</time>
      </trkpt>
      <trkpt lat="41.95109" lon="0.92849">
        <ele>958.1</ele>
        <time>2019-01-31T16:37:17Z</time>
      </trkpt>
      <trkpt lat="41.95117" lon="0.92857">
        <ele>958.1</ele>
        <time>2019-01-31T16:37:23Z</time>
      </trkpt>
      <trkpt lat="41.95125" lon="0.92866">
        <ele>959.1</ele>
        <time>2019-01-31T16:37:29Z</time>
      </trkpt>
      <trkpt lat="41.95133" lon="0.92874">
        <ele>960</ele>
        <time>2019-01-31T16:37:34Z</time>
      </trkpt>
      <trkpt lat="41.95141" lon="0.92884">
        <ele>960.5</ele>
        <time>2019-01-31T16:37:41Z</time>
      </trkpt>
      <trkpt lat="41.95148" lon="0.92894">
        <ele>961.6</ele>
        <time>2019-01-31T16:37:46Z</time>
      </trkpt>
      <trkpt lat="41.95154" lon="0.92903">
        <ele>962.4</ele>
        <time>2019-01-31T16:37:52Z</time>
      </trkpt>
      <trkpt lat="41.9516" lon="0.92913">
        <ele>963.4</ele>
        <time>2019-01-31T16:37:57Z</time>
      </trkpt>
      <trkpt lat="41.95166" lon="0.92923">
        <ele>964.4</ele>
        <time>2019-01-31T16:38:03Z</time>
      </trkpt>
      <trkpt lat="41.95172" lon="0.92936">
        <ele>965.3</ele>
        <time>2019-01-31T16:38:09Z</time>
      </trkpt>
      <trkpt lat="41.95177" lon="0.92949">
        <ele>966.4</ele>
        <time>2019-01-31T16:38:15Z</time>
      </trkpt>
      <trkpt lat="41.95181" lon="0.92963">
        <ele>968.2</ele>
        <time>2019-01-31T16:38:22Z</time>
      </trkpt>
      <trkpt lat="41.95188" lon="0.92975">
        <ele>969.6</ele>
        <time>2019-01-31T16:38:28Z</time>
      </trkpt>
      <trkpt lat="41.95196" lon="0.92986">
        <ele>971.1</ele>
        <time>2019-01-31T16:38:35Z</time>
      </trkpt>
      <trkpt lat="41.95204" lon="0.92993">
        <ele>972</ele>
        <time>2019-01-31T16:38:40Z</time>
      </trkpt>
      <trkpt lat="41.95212" lon="0.93002">
        <ele>973</ele>
        <time>2019-01-31T16:38:46Z</time>
      </trkpt>
      <trkpt lat="41.9522" lon="0.93011">
        <ele>974.5</ele>
        <time>2019-01-31T16:38:52Z</time>
      </trkpt>
      <trkpt lat="41.95229" lon="0.93019">
        <ele>975.5</ele>
        <time>2019-01-31T16:38:58Z</time>
      </trkpt>
      <trkpt lat="41.95235" lon="0.93028">
        <ele>976.4</ele>
        <time>2019-01-31T16:39:04Z</time>
      </trkpt>
      <trkpt lat="41.95242" lon="0.93038">
        <ele>977.4</ele>
        <time>2019-01-31T16:39:09Z</time>
      </trkpt>
      <trkpt lat="41.95248" lon="0.93048">
        <ele>978.9</ele>
        <time>2019-01-31T16:39:15Z</time>
      </trkpt>
      <trkpt lat="41.95253" lon="0.93059">
        <ele>979.7</ele>
        <time>2019-01-31T16:39:20Z</time>
      </trkpt>
      <trkpt lat="41.95258" lon="0.93071">
        <ele>980.3</ele>
        <time>2019-01-31T16:39:26Z</time>
      </trkpt>
      <trkpt lat="41.95263" lon="0.93084">
        <ele>980.7</ele>
        <time>2019-01-31T16:39:32Z</time>
      </trkpt>
      <trkpt lat="41.95269" lon="0.93096">
        <ele>981.2</ele>
        <time>2019-01-31T16:39:38Z</time>
      </trkpt>
      <trkpt lat="41.95274" lon="0.93108">
        <ele>982.1</ele>
        <time>2019-01-31T16:39:44Z</time>
      </trkpt>
      <trkpt lat="41.95279" lon="0.9312">
        <ele>983.1</ele>
        <time>2019-01-31T16:39:50Z</time>
      </trkpt>
      <trkpt lat="41.95283" lon="0.93133">
        <ele>984.1</ele>
        <time>2019-01-31T16:39:56Z</time>
      </trkpt>
      <trkpt lat="41.95283" lon="0.9315">
        <ele>985.1</ele>
        <time>2019-01-31T16:40:04Z</time>
      </trkpt>
      <trkpt lat="41.95279" lon="0.93169">
        <ele>985.6</ele>
        <time>2019-01-31T16:40:12Z</time>
      </trkpt>
      <trkpt lat="41.95275" lon="0.93186">
        <ele>986.6</ele>
        <time>2019-01-31T16:40:20Z</time>
      </trkpt>
      <trkpt lat="41.95274" lon="0.93201">
        <ele>987.4</ele>
        <time>2019-01-31T16:40:26Z</time>
      </trkpt>
      <trkpt lat="41.95272" lon="0.93215">
        <ele>988.5</ele>
        <time>2019-01-31T16:40:32Z</time>
      </trkpt>
      <trkpt lat="41.95272" lon="0.93231">
        <ele>990.4</ele>
        <time>2019-01-31T16:40:39Z</time>
      </trkpt>
      <trkpt lat="41.95275" lon="0.93244">
        <ele>991.4</ele>
        <time>2019-01-31T16:40:45Z</time>
      </trkpt>
      <trkpt lat="41.95277" lon="0.93258">
        <ele>992.2</ele>
        <time>2019-01-31T16:40:51Z</time>
      </trkpt>
      <trkpt lat="41.9528" lon="0.93273">
        <ele>993.2</ele>
        <time>2019-01-31T16:40:57Z</time>
      </trkpt>
      <trkpt lat="41.95284" lon="0.93292">
        <ele>995.1</ele>
        <time>2019-01-31T16:41:06Z</time>
      </trkpt>
      <trkpt lat="41.95287" lon="0.93309">
        <ele>996.5</ele>
        <time>2019-01-31T16:41:13Z</time>
      </trkpt>
      <trkpt lat="41.9529" lon="0.93324">
        <ele>998</ele>
        <time>2019-01-31T16:41:20Z</time>
      </trkpt>
      <trkpt lat="41.95293" lon="0.93338">
        <ele>999.4</ele>
        <time>2019-01-31T16:41:26Z</time>
      </trkpt>
      <trkpt lat="41.95294" lon="0.93358">
        <ele>1001</ele>
        <time>2019-01-31T16:41:35Z</time>
      </trkpt>
      <trkpt lat="41.95293" lon="0.93376">
        <ele>1001.4</ele>
        <time>2019-01-31T16:41:42Z</time>
      </trkpt>
      <trkpt lat="41.95289" lon="0.93391">
        <ele>1001.9</ele>
        <time>2019-01-31T16:41:49Z</time>
      </trkpt>
      <trkpt lat="41.9528" lon="0.93402">
        <ele>1002.9</ele>
        <time>2019-01-31T16:41:56Z</time>
      </trkpt>
      <trkpt lat="41.95269" lon="0.93408">
        <ele>1003.9</ele>
        <time>2019-01-31T16:42:02Z</time>
      </trkpt>
      <trkpt lat="41.95259" lon="0.93412">
        <ele>1004.8</ele>
        <time>2019-01-31T16:42:08Z</time>
      </trkpt>
      <trkpt lat="41.9525" lon="0.93419">
        <ele>1005.2</ele>
        <time>2019-01-31T16:42:14Z</time>
      </trkpt>
      <trkpt lat="41.95245" lon="0.9343">
        <ele>1006.3</ele>
        <time>2019-01-31T16:42:20Z</time>
      </trkpt>
      <trkpt lat="41.95242" lon="0.93443">
        <ele>1007.1</ele>
        <time>2019-01-31T16:42:26Z</time>
      </trkpt>
      <trkpt lat="41.95241" lon="0.93456">
        <ele>1008.6</ele>
        <time>2019-01-31T16:42:32Z</time>
      </trkpt>
      <trkpt lat="41.95242" lon="0.93473">
        <ele>1009.5</ele>
        <time>2019-01-31T16:42:39Z</time>
      </trkpt>
      <trkpt lat="41.95244" lon="0.9349">
        <ele>1011.1</ele>
        <time>2019-01-31T16:42:46Z</time>
      </trkpt>
      <trkpt lat="41.95246" lon="0.93508">
        <ele>1013</ele>
        <time>2019-01-31T16:42:54Z</time>
      </trkpt>
      <trkpt lat="41.95247" lon="0.93526">
        <ele>1014</ele>
        <time>2019-01-31T16:43:01Z</time>
      </trkpt>
      <trkpt lat="41.9524" lon="0.93542">
        <ele>1014.8</ele>
        <time>2019-01-31T16:43:09Z</time>
      </trkpt>
      <trkpt lat="41.95231" lon="0.93549">
        <ele>1016.3</ele>
        <time>2019-01-31T16:43:16Z</time>
      </trkpt>
      <trkpt lat="41.9522" lon="0.93551">
        <ele>1016.7</ele>
        <time>2019-01-31T16:43:22Z</time>
      </trkpt>
      <trkpt lat="41.95209" lon="0.93552">
        <ele>1017.7</ele>
        <time>2019-01-31T16:43:28Z</time>
      </trkpt>
      <trkpt lat="41.95198" lon="0.93553">
        <ele>1019.2</ele>
        <time>2019-01-31T16:43:34Z</time>
      </trkpt>
      <trkpt lat="41.95188" lon="0.93556">
        <ele>1020.1</ele>
        <time>2019-01-31T16:43:40Z</time>
      </trkpt>
      <trkpt lat="41.95177" lon="0.93558">
        <ele>1020.6</ele>
        <time>2019-01-31T16:43:46Z</time>
      </trkpt>
      <trkpt lat="41.95167" lon="0.9356">
        <ele>1022</ele>
        <time>2019-01-31T16:43:53Z</time>
      </trkpt>
      <trkpt lat="41.95157" lon="0.93559">
        <ele>1023</ele>
        <time>2019-01-31T16:43:58Z</time>
      </trkpt>
      <trkpt lat="41.95147" lon="0.93559">
        <ele>1024</ele>
        <time>2019-01-31T16:44:04Z</time>
      </trkpt>
      <trkpt lat="41.95136" lon="0.9356">
        <ele>1024.9</ele>
        <time>2019-01-31T16:44:10Z</time>
      </trkpt>
      <trkpt lat="41.95126" lon="0.93564">
        <ele>1026</ele>
        <time>2019-01-31T16:44:16Z</time>
      </trkpt>
      <trkpt lat="41.95124" lon="0.93575">
        <ele>1026.8</ele>
        <time>2019-01-31T16:44:21Z</time>
      </trkpt>
      <trkpt lat="41.9513" lon="0.93584">
        <ele>1027.4</ele>
        <time>2019-01-31T16:44:26Z</time>
      </trkpt>
      <trkpt lat="41.95139" lon="0.93591">
        <ele>1028.3</ele>
        <time>2019-01-31T16:44:32Z</time>
      </trkpt>
      <trkpt lat="41.95149" lon="0.93597">
        <ele>1028.9</ele>
        <time>2019-01-31T16:44:38Z</time>
      </trkpt>
      <trkpt lat="41.95157" lon="0.93604">
        <ele>1029.2</ele>
        <time>2019-01-31T16:44:44Z</time>
      </trkpt>
      <trkpt lat="41.95166" lon="0.93611">
        <ele>1029.2</ele>
        <time>2019-01-31T16:44:50Z</time>
      </trkpt>
      <trkpt lat="41.95175" lon="0.93618">
        <ele>1029.7</ele>
        <time>2019-01-31T16:44:56Z</time>
      </trkpt>
      <trkpt lat="41.95183" lon="0.93625">
        <ele>1030.2</ele>
        <time>2019-01-31T16:45:01Z</time>
      </trkpt>
      <trkpt lat="41.95192" lon="0.93633">
        <ele>1031.7</ele>
        <time>2019-01-31T16:45:07Z</time>
      </trkpt>
      <trkpt lat="41.95201" lon="0.93641">
        <ele>1031.6</ele>
        <time>2019-01-31T16:45:13Z</time>
      </trkpt>
      <trkpt lat="41.95208" lon="0.9365">
        <ele>1032.7</ele>
        <time>2019-01-31T16:45:19Z</time>
      </trkpt>
      <trkpt lat="41.95216" lon="0.93659">
        <ele>1034</ele>
        <time>2019-01-31T16:45:25Z</time>
      </trkpt>
      <trkpt lat="41.95223" lon="0.93668">
        <ele>1035</ele>
        <time>2019-01-31T16:45:31Z</time>
      </trkpt>
      <trkpt lat="41.95231" lon="0.93676">
        <ele>1036</ele>
        <time>2019-01-31T16:45:36Z</time>
      </trkpt>
      <trkpt lat="41.95238" lon="0.93683">
        <ele>1037.5</ele>
        <time>2019-01-31T16:45:41Z</time>
      </trkpt>
      <trkpt lat="41.95247" lon="0.93692">
        <ele>1038.8</ele>
        <time>2019-01-31T16:45:48Z</time>
      </trkpt>
      <trkpt lat="41.95257" lon="0.93697">
        <ele>1040.4</ele>
        <time>2019-01-31T16:45:54Z</time>
      </trkpt>
      <trkpt lat="41.95267" lon="0.93697">
        <ele>1041.7</ele>
        <time>2019-01-31T16:45:59Z</time>
      </trkpt>
      <trkpt lat="41.95276" lon="0.93694">
        <ele>1043.7</ele>
        <time>2019-01-31T16:46:05Z</time>
      </trkpt>
      <trkpt lat="41.95288" lon="0.93693">
        <ele>1045.1</ele>
        <time>2019-01-31T16:46:11Z</time>
      </trkpt>
      <trkpt lat="41.95299" lon="0.93691">
        <ele>1046.6</ele>
        <time>2019-01-31T16:46:18Z</time>
      </trkpt>
      <trkpt lat="41.95311" lon="0.93689">
        <ele>1047.6</ele>
        <time>2019-01-31T16:46:25Z</time>
      </trkpt>
      <trkpt lat="41.95323" lon="0.93688">
        <ele>1048.9</ele>
        <time>2019-01-31T16:46:32Z</time>
      </trkpt>
      <trkpt lat="41.95335" lon="0.93687">
        <ele>1050</ele>
        <time>2019-01-31T16:46:39Z</time>
      </trkpt>
      <trkpt lat="41.95346" lon="0.93686">
        <ele>1051</ele>
        <time>2019-01-31T16:46:45Z</time>
      </trkpt>
      <trkpt lat="41.95358" lon="0.93683">
        <ele>1051.9</ele>
        <time>2019-01-31T16:46:52Z</time>
      </trkpt>
      <trkpt lat="41.95367" lon="0.93677">
        <ele>1053.7</ele>
        <time>2019-01-31T16:46:57Z</time>
      </trkpt>
      <trkpt lat="41.9537" lon="0.93664">
        <ele>1055.2</ele>
        <time>2019-01-31T16:47:03Z</time>
      </trkpt>
      <trkpt lat="41.95372" lon="0.93648">
        <ele>1056.7</ele>
        <time>2019-01-31T16:47:10Z</time>
      </trkpt>
      <trkpt lat="41.95375" lon="0.93634">
        <ele>1057.6</ele>
        <time>2019-01-31T16:47:16Z</time>
      </trkpt>
      <trkpt lat="41.95379" lon="0.9362">
        <ele>1059</ele>
        <time>2019-01-31T16:47:23Z</time>
      </trkpt>
      <trkpt lat="41.95382" lon="0.93606">
        <ele>1060</ele>
        <time>2019-01-31T16:47:29Z</time>
      </trkpt>
      <trkpt lat="41.95385" lon="0.93592">
        <ele>1060.6</ele>
        <time>2019-01-31T16:47:35Z</time>
      </trkpt>
      <trkpt lat="41.95388" lon="0.93579">
        <ele>1061.5</ele>
        <time>2019-01-31T16:47:41Z</time>
      </trkpt>
      <trkpt lat="41.95393" lon="0.93567">
        <ele>1063</ele>
        <time>2019-01-31T16:47:47Z</time>
      </trkpt>
      <trkpt lat="41.95399" lon="0.93555">
        <ele>1064.3</ele>
        <time>2019-01-31T16:47:53Z</time>
      </trkpt>
      <trkpt lat="41.95406" lon="0.93544">
        <ele>1065.9</ele>
        <time>2019-01-31T16:47:59Z</time>
      </trkpt>
      <trkpt lat="41.95414" lon="0.93533">
        <ele>1067.3</ele>
        <time>2019-01-31T16:48:06Z</time>
      </trkpt>
      <trkpt lat="41.95422" lon="0.93522">
        <ele>1068.2</ele>
        <time>2019-01-31T16:48:12Z</time>
      </trkpt>
      <trkpt lat="41.95429" lon="0.93511">
        <ele>1069.7</ele>
        <time>2019-01-31T16:48:18Z</time>
      </trkpt>
      <trkpt lat="41.95436" lon="0.93501">
        <ele>1070.7</ele>
        <time>2019-01-31T16:48:24Z</time>
      </trkpt>
      <trkpt lat="41.95442" lon="0.9349">
        <ele>1071.5</ele>
        <time>2019-01-31T16:48:30Z</time>
      </trkpt>
      <trkpt lat="41.95448" lon="0.93477">
        <ele>1073</ele>
        <time>2019-01-31T16:48:37Z</time>
      </trkpt>
      <trkpt lat="41.95453" lon="0.93464">
        <ele>1073.9</ele>
        <time>2019-01-31T16:48:43Z</time>
      </trkpt>
      <trkpt lat="41.95458" lon="0.93451">
        <ele>1074.5</ele>
        <time>2019-01-31T16:48:49Z</time>
      </trkpt>
      <trkpt lat="41.95464" lon="0.93439">
        <ele>1074.4</ele>
        <time>2019-01-31T16:48:55Z</time>
      </trkpt>
      <trkpt lat="41.9547" lon="0.93427">
        <ele>1075.5</ele>
        <time>2019-01-31T16:49:01Z</time>
      </trkpt>
      <trkpt lat="41.95477" lon="0.93418">
        <ele>1075.9</ele>
        <time>2019-01-31T16:49:07Z</time>
      </trkpt>
      <trkpt lat="41.95486" lon="0.93414">
        <ele>1076.8</ele>
        <time>2019-01-31T16:49:12Z</time>
      </trkpt>
      <trkpt lat="41.95495" lon="0.93418">
        <ele>1077.9</ele>
        <time>2019-01-31T16:49:18Z</time>
      </trkpt>
      <trkpt lat="41.95501" lon="0.9343">
        <ele>1078.3</ele>
        <time>2019-01-31T16:49:24Z</time>
      </trkpt>
      <trkpt lat="41.95507" lon="0.93441">
        <ele>1079.8</ele>
        <time>2019-01-31T16:49:30Z</time>
      </trkpt>
      <trkpt lat="41.95512" lon="0.93454">
        <ele>1081.2</ele>
        <time>2019-01-31T16:49:36Z</time>
      </trkpt>
      <trkpt lat="41.95516" lon="0.93466">
        <ele>1082.1</ele>
        <time>2019-01-31T16:49:42Z</time>
      </trkpt>
      <trkpt lat="41.95521" lon="0.93479">
        <ele>1083.1</ele>
        <time>2019-01-31T16:49:47Z</time>
      </trkpt>
      <trkpt lat="41.95525" lon="0.9349">
        <ele>1083.5</ele>
        <time>2019-01-31T16:49:53Z</time>
      </trkpt>
      <trkpt lat="41.95531" lon="0.93504">
        <ele>1084.5</ele>
        <time>2019-01-31T16:50:00Z</time>
      </trkpt>
      <trkpt lat="41.95536" lon="0.93516">
        <ele>1084.5</ele>
        <time>2019-01-31T16:50:06Z</time>
      </trkpt>
      <trkpt lat="41.95542" lon="0.93528">
        <ele>1085.1</ele>
        <time>2019-01-31T16:50:12Z</time>
      </trkpt>
      <trkpt lat="41.95549" lon="0.93539">
        <ele>1086.1</ele>
        <time>2019-01-31T16:50:18Z</time>
      </trkpt>
      <trkpt lat="41.95554" lon="0.93551">
        <ele>1086.5</ele>
        <time>2019-01-31T16:50:24Z</time>
      </trkpt>
      <trkpt lat="41.9556" lon="0.93563">
        <ele>1087</ele>
        <time>2019-01-31T16:50:30Z</time>
      </trkpt>
      <trkpt lat="41.95565" lon="0.93574">
        <ele>1088.5</ele>
        <time>2019-01-31T16:50:35Z</time>
      </trkpt>
      <trkpt lat="41.95573" lon="0.93583">
        <ele>1088.8</ele>
        <time>2019-01-31T16:50:41Z</time>
      </trkpt>
      <trkpt lat="41.95581" lon="0.93593">
        <ele>1089.4</ele>
        <time>2019-01-31T16:50:47Z</time>
      </trkpt>
      <trkpt lat="41.95589" lon="0.93602">
        <ele>1089.9</ele>
        <time>2019-01-31T16:50:54Z</time>
      </trkpt>
      <trkpt lat="41.95597" lon="0.9361">
        <ele>1090.8</ele>
        <time>2019-01-31T16:50:59Z</time>
      </trkpt>
      <trkpt lat="41.95606" lon="0.93618">
        <ele>1091.2</ele>
        <time>2019-01-31T16:51:05Z</time>
      </trkpt>
      <trkpt lat="41.95616" lon="0.93623">
        <ele>1092.3</ele>
        <time>2019-01-31T16:51:11Z</time>
      </trkpt>
      <trkpt lat="41.95627" lon="0.93624">
        <ele>1093.3</ele>
        <time>2019-01-31T16:51:18Z</time>
      </trkpt>
      <trkpt lat="41.95636" lon="0.93622">
        <ele>1095.2</ele>
        <time>2019-01-31T16:51:23Z</time>
      </trkpt>
      <trkpt lat="41.95647" lon="0.93619">
        <ele>1096.5</ele>
        <time>2019-01-31T16:51:30Z</time>
      </trkpt>
      <trkpt lat="41.95658" lon="0.93617">
        <ele>1097.5</ele>
        <time>2019-01-31T16:51:36Z</time>
      </trkpt>
      <trkpt lat="41.95668" lon="0.93616">
        <ele>1099</ele>
        <time>2019-01-31T16:51:42Z</time>
      </trkpt>
      <trkpt lat="41.95679" lon="0.93616">
        <ele>1099.4</ele>
        <time>2019-01-31T16:51:48Z</time>
      </trkpt>
      <trkpt lat="41.95689" lon="0.93617">
        <ele>1100.5</ele>
        <time>2019-01-31T16:51:54Z</time>
      </trkpt>
      <trkpt lat="41.957" lon="0.9362">
        <ele>1101</ele>
        <time>2019-01-31T16:52:00Z</time>
      </trkpt>
      <trkpt lat="41.95709" lon="0.93624">
        <ele>1101</ele>
        <time>2019-01-31T16:52:06Z</time>
      </trkpt>
      <trkpt lat="41.95719" lon="0.93628">
        <ele>1100.9</ele>
        <time>2019-01-31T16:52:12Z</time>
      </trkpt>
      <trkpt lat="41.95727" lon="0.93633">
        <ele>1100.9</ele>
        <time>2019-01-31T16:52:17Z</time>
      </trkpt>
      <trkpt lat="41.95738" lon="0.93637">
        <ele>1099</ele>
        <time>2019-01-31T16:52:23Z</time>
      </trkpt>
      <trkpt lat="41.95747" lon="0.9364">
        <ele>1098.1</ele>
        <time>2019-01-31T16:52:28Z</time>
      </trkpt>
      <trkpt lat="41.95757" lon="0.93642">
        <ele>1097</ele>
        <time>2019-01-31T16:52:34Z</time>
      </trkpt>
      <trkpt lat="41.95766" lon="0.93646">
        <ele>1096.1</ele>
        <time>2019-01-31T16:52:40Z</time>
      </trkpt>
      <trkpt lat="41.95776" lon="0.93648">
        <ele>1095.2</ele>
        <time>2019-01-31T16:52:45Z</time>
      </trkpt>
      <trkpt lat="41.95785" lon="0.93651">
        <ele>1094.1</ele>
        <time>2019-01-31T16:52:51Z</time>
      </trkpt>
      <trkpt lat="41.95796" lon="0.93655">
        <ele>1092.8</ele>
        <time>2019-01-31T16:52:57Z</time>
      </trkpt>
      <trkpt lat="41.95807" lon="0.93658">
        <ele>1091.7</ele>
        <time>2019-01-31T16:53:03Z</time>
      </trkpt>
      <trkpt lat="41.95818" lon="0.93661">
        <ele>1090.3</ele>
        <time>2019-01-31T16:53:10Z</time>
      </trkpt>
      <trkpt lat="41.95828" lon="0.93666">
        <ele>1088.8</ele>
        <time>2019-01-31T16:53:16Z</time>
      </trkpt>
      <trkpt lat="41.95838" lon="0.9367">
        <ele>1087.9</ele>
        <time>2019-01-31T16:53:22Z</time>
      </trkpt>
      <trkpt lat="41.95848" lon="0.93675">
        <ele>1086</ele>
        <time>2019-01-31T16:53:28Z</time>
      </trkpt>
      <trkpt lat="41.95858" lon="0.93679">
        <ele>1084.5</ele>
        <time>2019-01-31T16:53:34Z</time>
      </trkpt>
      <trkpt lat="41.95869" lon="0.93682">
        <ele>1083.2</ele>
        <time>2019-01-31T16:53:40Z</time>
      </trkpt>
      <trkpt lat="41.95879" lon="0.93684">
        <ele>1082.1</ele>
        <time>2019-01-31T16:53:46Z</time>
      </trkpt>
      <trkpt lat="41.95892" lon="0.93684">
        <ele>1080.7</ele>
        <time>2019-01-31T16:53:53Z</time>
      </trkpt>
      <trkpt lat="41.95902" lon="0.93685">
        <ele>1079.7</ele>
        <time>2019-01-31T16:54:00Z</time>
      </trkpt>
      <trkpt lat="41.95914" lon="0.93686">
        <ele>1078.4</ele>
        <time>2019-01-31T16:54:06Z</time>
      </trkpt>
      <trkpt lat="41.95927" lon="0.93686">
        <ele>1077.3</ele>
        <time>2019-01-31T16:54:14Z</time>
      </trkpt>
      <trkpt lat="41.95937" lon="0.93686">
        <ele>1076.4</ele>
        <time>2019-01-31T16:54:19Z</time>
      </trkpt>
      <trkpt lat="41.95948" lon="0.93685">
        <ele>1076.3</ele>
        <time>2019-01-31T16:54:26Z</time>
      </trkpt>
      <trkpt lat="41.95959" lon="0.93677">
        <ele>1075.5</ele>
        <time>2019-01-31T16:54:33Z</time>
      </trkpt>
      <trkpt lat="41.95966" lon="0.93668">
        <ele>1074.4</ele>
        <time>2019-01-31T16:54:38Z</time>
      </trkpt>
      <trkpt lat="41.95974" lon="0.93658">
        <ele>1073.9</ele>
        <time>2019-01-31T16:54:45Z</time>
      </trkpt>
      <trkpt lat="41.95982" lon="0.93648">
        <ele>1073.5</ele>
        <time>2019-01-31T16:54:51Z</time>
      </trkpt>
      <trkpt lat="41.9599" lon="0.93639">
        <ele>1072.6</ele>
        <time>2019-01-31T16:54:57Z</time>
      </trkpt>
      <trkpt lat="41.95994" lon="0.93632">
        <ele>1072.1</ele>
        <time>2019-01-31T16:55:01Z</time>
      </trkpt>
      <trkpt lat="41.96004" lon="0.93625">
        <ele>1074</ele>
        <time>2019-01-31T16:55:07Z</time>
      </trkpt>
      <trkpt lat="41.96013" lon="0.93619">
        <ele>1073.9</ele>
        <time>2019-01-31T16:55:13Z</time>
      </trkpt>
      <trkpt lat="41.96023" lon="0.93614">
        <ele>1074.9</ele>
        <time>2019-01-31T16:55:19Z</time>
      </trkpt>
      <trkpt lat="41.96032" lon="0.93614">
        <ele>1076</ele>
        <time>2019-01-31T16:55:24Z</time>
      </trkpt>
      <trkpt lat="41.96042" lon="0.93612">
        <ele>1076.3</ele>
        <time>2019-01-31T16:55:30Z</time>
      </trkpt>
      <trkpt lat="41.96051" lon="0.93614">
        <ele>1077.8</ele>
        <time>2019-01-31T16:55:35Z</time>
      </trkpt>
      <trkpt lat="41.9606" lon="0.93616">
        <ele>1078.4</ele>
        <time>2019-01-31T16:55:40Z</time>
      </trkpt>
      <trkpt lat="41.96069" lon="0.93621">
        <ele>1079.2</ele>
        <time>2019-01-31T16:55:46Z</time>
      </trkpt>
      <trkpt lat="41.96096" lon="0.9368">
        <ele>1104.2</ele>
        <time>2019-01-31T16:56:15Z</time>
      </trkpt>
      <trkpt lat="41.96102" lon="0.93692">
        <ele>1104.3</ele>
        <time>2019-01-31T16:56:21Z</time>
      </trkpt>
      <trkpt lat="41.9611" lon="0.93707">
        <ele>1104.3</ele>
        <time>2019-01-31T16:56:29Z</time>
      </trkpt>
      <trkpt lat="41.96119" lon="0.93719">
        <ele>1104.2</ele>
        <time>2019-01-31T16:56:37Z</time>
      </trkpt>
      <trkpt lat="41.96127" lon="0.93728">
        <ele>1104.2</ele>
        <time>2019-01-31T16:56:43Z</time>
      </trkpt>
      <trkpt lat="41.96134" lon="0.93738">
        <ele>1103.7</ele>
        <time>2019-01-31T16:56:49Z</time>
      </trkpt>
      <trkpt lat="41.96143" lon="0.93748">
        <ele>1103.3</ele>
        <time>2019-01-31T16:56:55Z</time>
      </trkpt>
      <trkpt lat="41.9615" lon="0.93758">
        <ele>1103.4</ele>
        <time>2019-01-31T16:57:01Z</time>
      </trkpt>
      <trkpt lat="41.9616" lon="0.93765">
        <ele>1102.4</ele>
        <time>2019-01-31T16:57:07Z</time>
      </trkpt>
      <trkpt lat="41.96169" lon="0.93775">
        <ele>1102.3</ele>
        <time>2019-01-31T16:57:14Z</time>
      </trkpt>
      <trkpt lat="41.96179" lon="0.93784">
        <ele>1102.3</ele>
        <time>2019-01-31T16:57:21Z</time>
      </trkpt>
      <trkpt lat="41.96187" lon="0.93793">
        <ele>1103.3</ele>
        <time>2019-01-31T16:57:27Z</time>
      </trkpt>
      <trkpt lat="41.96195" lon="0.93803">
        <ele>1104.2</ele>
        <time>2019-01-31T16:57:33Z</time>
      </trkpt>
      <trkpt lat="41.96203" lon="0.9381">
        <ele>1105.3</ele>
        <time>2019-01-31T16:57:38Z</time>
      </trkpt>
      <trkpt lat="41.96211" lon="0.93821">
        <ele>1106.7</ele>
        <time>2019-01-31T16:57:45Z</time>
      </trkpt>
      <trkpt lat="41.96217" lon="0.9383">
        <ele>1107.7</ele>
        <time>2019-01-31T16:57:50Z</time>
      </trkpt>
      <trkpt lat="41.96224" lon="0.93839">
        <ele>1109.1</ele>
        <time>2019-01-31T16:57:56Z</time>
      </trkpt>
      <trkpt lat="41.96232" lon="0.93848">
        <ele>1110</ele>
        <time>2019-01-31T16:58:02Z</time>
      </trkpt>
      <trkpt lat="41.96238" lon="0.9386">
        <ele>1111.5</ele>
        <time>2019-01-31T16:58:08Z</time>
      </trkpt>
      <trkpt lat="41.96244" lon="0.93872">
        <ele>1112.5</ele>
        <time>2019-01-31T16:58:14Z</time>
      </trkpt>
      <trkpt lat="41.9625" lon="0.93883">
        <ele>1113.4</ele>
        <time>2019-01-31T16:58:19Z</time>
      </trkpt>
      <trkpt lat="41.96256" lon="0.93895">
        <ele>1114.3</ele>
        <time>2019-01-31T16:58:26Z</time>
      </trkpt>
      <trkpt lat="41.96262" lon="0.93907">
        <ele>1114.4</ele>
        <time>2019-01-31T16:58:32Z</time>
      </trkpt>
      <trkpt lat="41.96267" lon="0.93918">
        <ele>1114.8</ele>
        <time>2019-01-31T16:58:37Z</time>
      </trkpt>
      <trkpt lat="41.96272" lon="0.93928">
        <ele>1115.3</ele>
        <time>2019-01-31T16:58:43Z</time>
      </trkpt>
      <trkpt lat="41.96274" lon="0.93923">
        <ele>1115.3</ele>
        <time>2019-01-31T16:58:45Z</time>
      </trkpt>
      <trkpt lat="41.96274" lon="0.93908">
        <ele>1115.4</ele>
        <time>2019-01-31T16:58:51Z</time>
      </trkpt>
      <trkpt lat="41.96276" lon="0.93895">
        <ele>1115.4</ele>
        <time>2019-01-31T16:58:57Z</time>
      </trkpt>
      <trkpt lat="41.9628" lon="0.93883">
        <ele>1115.4</ele>
        <time>2019-01-31T16:59:03Z</time>
      </trkpt>
      <trkpt lat="41.96289" lon="0.93873">
        <ele>1115.4</ele>
        <time>2019-01-31T16:59:09Z</time>
      </trkpt>
      <trkpt lat="41.96298" lon="0.93866">
        <ele>1115.9</ele>
        <time>2019-01-31T16:59:15Z</time>
      </trkpt>
      <trkpt lat="41.96308" lon="0.93859">
        <ele>1116.2</ele>
        <time>2019-01-31T16:59:22Z</time>
      </trkpt>
      <trkpt lat="41.96316" lon="0.93852">
        <ele>1117.2</ele>
        <time>2019-01-31T16:59:27Z</time>
      </trkpt>
      <trkpt lat="41.96326" lon="0.93848">
        <ele>1118.3</ele>
        <time>2019-01-31T16:59:33Z</time>
      </trkpt>
      <trkpt lat="41.96334" lon="0.93844">
        <ele>1118.3</ele>
        <time>2019-01-31T16:59:38Z</time>
      </trkpt>
      <trkpt lat="41.96343" lon="0.93841">
        <ele>1118.6</ele>
        <time>2019-01-31T16:59:43Z</time>
      </trkpt>
      <trkpt lat="41.96352" lon="0.93839">
        <ele>1119.1</ele>
        <time>2019-01-31T16:59:48Z</time>
      </trkpt>
      <trkpt lat="41.96361" lon="0.93838">
        <ele>1120.2</ele>
        <time>2019-01-31T16:59:54Z</time>
      </trkpt>
      <trkpt lat="41.96372" lon="0.93836">
        <ele>1120.2</ele>
        <time>2019-01-31T17:00:00Z</time>
      </trkpt>
      <trkpt lat="41.96382" lon="0.93837">
        <ele>1120.6</ele>
        <time>2019-01-31T17:00:06Z</time>
      </trkpt>
      <trkpt lat="41.96391" lon="0.93839">
        <ele>1120.2</ele>
        <time>2019-01-31T17:00:11Z</time>
      </trkpt>
      <trkpt lat="41.964" lon="0.93842">
        <ele>1120.1</ele>
        <time>2019-01-31T17:00:16Z</time>
      </trkpt>
      <trkpt lat="41.96411" lon="0.93844">
        <ele>1120.2</ele>
        <time>2019-01-31T17:00:22Z</time>
      </trkpt>
      <trkpt lat="41.96421" lon="0.93844">
        <ele>1120.2</ele>
        <time>2019-01-31T17:00:28Z</time>
      </trkpt>
      <trkpt lat="41.9643" lon="0.93842">
        <ele>1120.1</ele>
        <time>2019-01-31T17:00:34Z</time>
      </trkpt>
      <trkpt lat="41.9644" lon="0.93841">
        <ele>1120.2</ele>
        <time>2019-01-31T17:00:39Z</time>
      </trkpt>
      <trkpt lat="41.96451" lon="0.93841">
        <ele>1120.2</ele>
        <time>2019-01-31T17:00:45Z</time>
      </trkpt>
      <trkpt lat="41.96462" lon="0.93843">
        <ele>1119.6</ele>
        <time>2019-01-31T17:00:52Z</time>
      </trkpt>
      <trkpt lat="41.96473" lon="0.93845">
        <ele>1119.6</ele>
        <time>2019-01-31T17:00:58Z</time>
      </trkpt>
      <trkpt lat="41.96485" lon="0.93845">
        <ele>1121</ele>
        <time>2019-01-31T17:01:05Z</time>
      </trkpt>
      <trkpt lat="41.96496" lon="0.93844">
        <ele>1122.1</ele>
        <time>2019-01-31T17:01:12Z</time>
      </trkpt>
      <trkpt lat="41.9651" lon="0.93842">
        <ele>1123.1</ele>
        <time>2019-01-31T17:01:19Z</time>
      </trkpt>
      <trkpt lat="41.96521" lon="0.9384">
        <ele>1123.5</ele>
        <time>2019-01-31T17:01:26Z</time>
      </trkpt>
      <trkpt lat="41.96534" lon="0.93838">
        <ele>1125.4</ele>
        <time>2019-01-31T17:01:33Z</time>
      </trkpt>
      <trkpt lat="41.96547" lon="0.93833">
        <ele>1126.4</ele>
        <time>2019-01-31T17:01:41Z</time>
      </trkpt>
      <trkpt lat="41.96559" lon="0.93828">
        <ele>1126.8</ele>
        <time>2019-01-31T17:01:48Z</time>
      </trkpt>
      <trkpt lat="41.96569" lon="0.9382">
        <ele>1127.3</ele>
        <time>2019-01-31T17:01:55Z</time>
      </trkpt>
      <trkpt lat="41.96579" lon="0.93815">
        <ele>1128.2</ele>
        <time>2019-01-31T17:02:01Z</time>
      </trkpt>
      <trkpt lat="41.96589" lon="0.93807">
        <ele>1129.2</ele>
        <time>2019-01-31T17:02:08Z</time>
      </trkpt>
      <trkpt lat="41.96601" lon="0.93799">
        <ele>1130.2</ele>
        <time>2019-01-31T17:02:15Z</time>
      </trkpt>
      <trkpt lat="41.96611" lon="0.93794">
        <ele>1130.7</ele>
        <time>2019-01-31T17:02:21Z</time>
      </trkpt>
      <trkpt lat="41.9662" lon="0.9379">
        <ele>1131.7</ele>
        <time>2019-01-31T17:02:27Z</time>
      </trkpt>
      <trkpt lat="41.9663" lon="0.93784">
        <ele>1132.1</ele>
        <time>2019-01-31T17:02:33Z</time>
      </trkpt>
      <trkpt lat="41.9664" lon="0.93779">
        <ele>1133.2</ele>
        <time>2019-01-31T17:02:39Z</time>
      </trkpt>
      <trkpt lat="41.96651" lon="0.93774">
        <ele>1134.1</ele>
        <time>2019-01-31T17:02:45Z</time>
      </trkpt>
      <trkpt lat="41.96662" lon="0.9377">
        <ele>1134.6</ele>
        <time>2019-01-31T17:02:52Z</time>
      </trkpt>
      <trkpt lat="41.96672" lon="0.93765">
        <ele>1135.6</ele>
        <time>2019-01-31T17:02:58Z</time>
      </trkpt>
      <trkpt lat="41.96682" lon="0.93761">
        <ele>1135.9</ele>
        <time>2019-01-31T17:03:04Z</time>
      </trkpt>
      <trkpt lat="41.96692" lon="0.93755">
        <ele>1137.5</ele>
        <time>2019-01-31T17:03:11Z</time>
      </trkpt>
      <trkpt lat="41.96702" lon="0.93749">
        <ele>1137.5</ele>
        <time>2019-01-31T17:03:17Z</time>
      </trkpt>
      <trkpt lat="41.96712" lon="0.93745">
        <ele>1138.4</ele>
        <time>2019-01-31T17:03:23Z</time>
      </trkpt>
      <trkpt lat="41.96721" lon="0.93741">
        <ele>1138.8</ele>
        <time>2019-01-31T17:03:28Z</time>
      </trkpt>
      <trkpt lat="41.96732" lon="0.93736">
        <ele>1139.8</ele>
        <time>2019-01-31T17:03:35Z</time>
      </trkpt>
      <trkpt lat="41.96742" lon="0.93729">
        <ele>1140.7</ele>
        <time>2019-01-31T17:03:41Z</time>
      </trkpt>
      <trkpt lat="41.96751" lon="0.93721">
        <ele>1141.7</ele>
        <time>2019-01-31T17:03:47Z</time>
      </trkpt>
      <trkpt lat="41.9676" lon="0.93713">
        <ele>1142.7</ele>
        <time>2019-01-31T17:03:54Z</time>
      </trkpt>
      <trkpt lat="41.96768" lon="0.93702">
        <ele>1143.7</ele>
        <time>2019-01-31T17:04:00Z</time>
      </trkpt>
      <trkpt lat="41.96776" lon="0.93692">
        <ele>1145.1</ele>
        <time>2019-01-31T17:04:06Z</time>
      </trkpt>
      <trkpt lat="41.96784" lon="0.93681">
        <ele>1145.7</ele>
        <time>2019-01-31T17:04:13Z</time>
      </trkpt>
      <trkpt lat="41.96791" lon="0.93671">
        <ele>1146.6</ele>
        <time>2019-01-31T17:04:19Z</time>
      </trkpt>
      <trkpt lat="41.96799" lon="0.93661">
        <ele>1148</ele>
        <time>2019-01-31T17:04:25Z</time>
      </trkpt>
      <trkpt lat="41.96807" lon="0.9365">
        <ele>1148.4</ele>
        <time>2019-01-31T17:04:31Z</time>
      </trkpt>
      <trkpt lat="41.96814" lon="0.9364">
        <ele>1149.5</ele>
        <time>2019-01-31T17:04:38Z</time>
      </trkpt>
      <trkpt lat="41.96822" lon="0.93628">
        <ele>1150.4</ele>
        <time>2019-01-31T17:04:44Z</time>
      </trkpt>
      <trkpt lat="41.96829" lon="0.93618">
        <ele>1151.3</ele>
        <time>2019-01-31T17:04:50Z</time>
      </trkpt>
      <trkpt lat="41.96836" lon="0.93609">
        <ele>1152.3</ele>
        <time>2019-01-31T17:04:56Z</time>
      </trkpt>
      <trkpt lat="41.96845" lon="0.93599">
        <ele>1153.2</ele>
        <time>2019-01-31T17:05:02Z</time>
      </trkpt>
      <trkpt lat="41.96853" lon="0.9359">
        <ele>1153.3</ele>
        <time>2019-01-31T17:05:08Z</time>
      </trkpt>
      <trkpt lat="41.96862" lon="0.93582">
        <ele>1154.8</ele>
        <time>2019-01-31T17:05:15Z</time>
      </trkpt>
      <trkpt lat="41.96872" lon="0.93575">
        <ele>1154.7</ele>
        <time>2019-01-31T17:05:21Z</time>
      </trkpt>
      <trkpt lat="41.96881" lon="0.93568">
        <ele>1155.2</ele>
        <time>2019-01-31T17:05:27Z</time>
      </trkpt>
      <trkpt lat="41.96892" lon="0.93559">
        <ele>1156.7</ele>
        <time>2019-01-31T17:05:34Z</time>
      </trkpt>
      <trkpt lat="41.96902" lon="0.9355">
        <ele>1157.2</ele>
        <time>2019-01-31T17:05:41Z</time>
      </trkpt>
      <trkpt lat="41.96913" lon="0.93542">
        <ele>1158.5</ele>
        <time>2019-01-31T17:05:48Z</time>
      </trkpt>
      <trkpt lat="41.96923" lon="0.93538">
        <ele>1159</ele>
        <time>2019-01-31T17:05:55Z</time>
      </trkpt>
      <trkpt lat="41.96933" lon="0.93541">
        <ele>1159.5</ele>
        <time>2019-01-31T17:06:00Z</time>
      </trkpt>
      <trkpt lat="41.96944" lon="0.93545">
        <ele>1160.5</ele>
        <time>2019-01-31T17:06:07Z</time>
      </trkpt>
      <trkpt lat="41.96954" lon="0.93551">
        <ele>1161.5</ele>
        <time>2019-01-31T17:06:13Z</time>
      </trkpt>
      <trkpt lat="41.96965" lon="0.93556">
        <ele>1161.9</ele>
        <time>2019-01-31T17:06:20Z</time>
      </trkpt>
      <trkpt lat="41.96976" lon="0.93562">
        <ele>1162.9</ele>
        <time>2019-01-31T17:06:26Z</time>
      </trkpt>
      <trkpt lat="41.96986" lon="0.93568">
        <ele>1163.3</ele>
        <time>2019-01-31T17:06:32Z</time>
      </trkpt>
      <trkpt lat="41.96998" lon="0.9357">
        <ele>1164.4</ele>
        <time>2019-01-31T17:06:40Z</time>
      </trkpt>
      <trkpt lat="41.9701" lon="0.93565">
        <ele>1165.7</ele>
        <time>2019-01-31T17:06:47Z</time>
      </trkpt>
      <trkpt lat="41.9702" lon="0.93561">
        <ele>1166.3</ele>
        <time>2019-01-31T17:06:53Z</time>
      </trkpt>
      <trkpt lat="41.97024" lon="0.93564">
        <ele>1167.3</ele>
        <time>2019-01-31T17:06:56Z</time>
      </trkpt>
      <trkpt lat="41.97022" lon="0.93569">
        <ele>1166.3</ele>
        <time>2019-01-31T17:06:58Z</time>
      </trkpt>
      <trkpt lat="41.97019" lon="0.9358">
        <ele>1166.3</ele>
        <time>2019-01-31T17:07:03Z</time>
      </trkpt>
      <trkpt lat="41.9701" lon="0.93589">
        <ele>1168.1</ele>
        <time>2019-01-31T17:07:10Z</time>
      </trkpt>
      <trkpt lat="41.97001" lon="0.93593">
        <ele>1168.6</ele>
        <time>2019-01-31T17:07:16Z</time>
      </trkpt>
      <trkpt lat="41.96994" lon="0.93602">
        <ele>1172.5</ele>
        <time>2019-01-31T17:07:21Z</time>
      </trkpt>
      <trkpt lat="41.96982" lon="0.93606">
        <ele>1175.5</ele>
        <time>2019-01-31T17:07:28Z</time>
      </trkpt>
      <trkpt lat="41.96968" lon="0.93608">
        <ele>1178.8</ele>
        <time>2019-01-31T17:07:36Z</time>
      </trkpt>
      <trkpt lat="41.96956" lon="0.93612">
        <ele>1181.1</ele>
        <time>2019-01-31T17:07:43Z</time>
      </trkpt>
      <trkpt lat="41.96951" lon="0.93621">
        <ele>1183</ele>
        <time>2019-01-31T17:07:48Z</time>
      </trkpt>
      <trkpt lat="41.96959" lon="0.9363">
        <ele>1186.5</ele>
        <time>2019-01-31T17:07:54Z</time>
      </trkpt>
      <trkpt lat="41.9697" lon="0.9364">
        <ele>1188.9</ele>
        <time>2019-01-31T17:08:01Z</time>
      </trkpt>
      <trkpt lat="41.96979" lon="0.93651">
        <ele>1192.3</ele>
        <time>2019-01-31T17:08:09Z</time>
      </trkpt>
      <trkpt lat="41.96991" lon="0.93662">
        <ele>1195.5</ele>
        <time>2019-01-31T17:08:17Z</time>
      </trkpt>
      <trkpt lat="41.97" lon="0.93672">
        <ele>1198.9</ele>
        <time>2019-01-31T17:08:24Z</time>
      </trkpt>
      <trkpt lat="41.97011" lon="0.93681">
        <ele>1202.3</ele>
        <time>2019-01-31T17:08:31Z</time>
      </trkpt>
      <trkpt lat="41.97023" lon="0.93689">
        <ele>1205.2</ele>
        <time>2019-01-31T17:08:38Z</time>
      </trkpt>
      <trkpt lat="41.97036" lon="0.93691">
        <ele>1208.6</ele>
        <time>2019-01-31T17:08:46Z</time>
      </trkpt>
      <trkpt lat="41.9705" lon="0.93689">
        <ele>1212</ele>
        <time>2019-01-31T17:08:54Z</time>
      </trkpt>
      <trkpt lat="41.97061" lon="0.93695">
        <ele>1215.2</ele>
        <time>2019-01-31T17:09:01Z</time>
      </trkpt>
      <trkpt lat="41.97058" lon="0.93708">
        <ele>1218.1</ele>
        <time>2019-01-31T17:09:07Z</time>
      </trkpt>
      <trkpt lat="41.97056" lon="0.93722">
        <ele>1221.5</ele>
        <time>2019-01-31T17:09:13Z</time>
      </trkpt>
      <trkpt lat="41.97052" lon="0.93736">
        <ele>1224</ele>
        <time>2019-01-31T17:09:19Z</time>
      </trkpt>
      <trkpt lat="41.97048" lon="0.9375">
        <ele>1226.8</ele>
        <time>2019-01-31T17:09:26Z</time>
      </trkpt>
      <trkpt lat="41.97042" lon="0.93764">
        <ele>1230.2</ele>
        <time>2019-01-31T17:09:32Z</time>
      </trkpt>
      <trkpt lat="41.97033" lon="0.93776">
        <ele>1233.6</ele>
        <time>2019-01-31T17:09:40Z</time>
      </trkpt>
      <trkpt lat="41.97026" lon="0.93787">
        <ele>1236.4</ele>
        <time>2019-01-31T17:09:46Z</time>
      </trkpt>
      <trkpt lat="41.97021" lon="0.938">
        <ele>1239.3</ele>
        <time>2019-01-31T17:09:52Z</time>
      </trkpt>
      <trkpt lat="41.97026" lon="0.93808">
        <ele>1241.2</ele>
        <time>2019-01-31T17:09:57Z</time>
      </trkpt>
      <trkpt lat="41.97038" lon="0.93807">
        <ele>1241.7</ele>
        <time>2019-01-31T17:10:03Z</time>
      </trkpt>
      <trkpt lat="41.97049" lon="0.93804">
        <ele>1242.3</ele>
        <time>2019-01-31T17:10:10Z</time>
      </trkpt>
      <trkpt lat="41.9706" lon="0.93804">
        <ele>1243.6</ele>
        <time>2019-01-31T17:10:16Z</time>
      </trkpt>
      <trkpt lat="41.9707" lon="0.93805">
        <ele>1245.1</ele>
        <time>2019-01-31T17:10:22Z</time>
      </trkpt>
      <trkpt lat="41.9708" lon="0.93811">
        <ele>1246.1</ele>
        <time>2019-01-31T17:10:28Z</time>
      </trkpt>
      <trkpt lat="41.97092" lon="0.93812">
        <ele>1247.5</ele>
        <time>2019-01-31T17:10:34Z</time>
      </trkpt>
      <trkpt lat="41.97103" lon="0.93812">
        <ele>1249.5</ele>
        <time>2019-01-31T17:10:41Z</time>
      </trkpt>
      <trkpt lat="41.97115" lon="0.93808">
        <ele>1251.3</ele>
        <time>2019-01-31T17:10:48Z</time>
      </trkpt>
      <trkpt lat="41.97125" lon="0.93806">
        <ele>1253.2</ele>
        <time>2019-01-31T17:10:54Z</time>
      </trkpt>
      <trkpt lat="41.97137" lon="0.93802">
        <ele>1255.1</ele>
        <time>2019-01-31T17:11:01Z</time>
      </trkpt>
      <trkpt lat="41.97147" lon="0.93801">
        <ele>1257.5</ele>
        <time>2019-01-31T17:11:07Z</time>
      </trkpt>
      <trkpt lat="41.97153" lon="0.9381">
        <ele>1258.5</ele>
        <time>2019-01-31T17:11:12Z</time>
      </trkpt>
      <trkpt lat="41.97157" lon="0.93823">
        <ele>1258.5</ele>
        <time>2019-01-31T17:11:18Z</time>
      </trkpt>
      <trkpt lat="41.97164" lon="0.93833">
        <ele>1258.6</ele>
        <time>2019-01-31T17:11:24Z</time>
      </trkpt>
      <trkpt lat="41.97175" lon="0.9384">
        <ele>1260</ele>
        <time>2019-01-31T17:11:31Z</time>
      </trkpt>
      <trkpt lat="41.97185" lon="0.93836">
        <ele>1262.4</ele>
        <time>2019-01-31T17:11:37Z</time>
      </trkpt>
      <trkpt lat="41.97196" lon="0.93832">
        <ele>1263.4</ele>
        <time>2019-01-31T17:11:43Z</time>
      </trkpt>
      <trkpt lat="41.97206" lon="0.93828">
        <ele>1265.7</ele>
        <time>2019-01-31T17:11:49Z</time>
      </trkpt>
      <trkpt lat="41.97217" lon="0.93826">
        <ele>1267.7</ele>
        <time>2019-01-31T17:11:55Z</time>
      </trkpt>
      <trkpt lat="41.97227" lon="0.93823">
        <ele>1270.1</ele>
        <time>2019-01-31T17:12:01Z</time>
      </trkpt>
      <trkpt lat="41.97234" lon="0.93814">
        <ele>1272.4</ele>
        <time>2019-01-31T17:12:07Z</time>
      </trkpt>
      <trkpt lat="41.97234" lon="0.93801">
        <ele>1275.8</ele>
        <time>2019-01-31T17:12:12Z</time>
      </trkpt>
      <trkpt lat="41.9723" lon="0.93788">
        <ele>1276.8</ele>
        <time>2019-01-31T17:12:18Z</time>
      </trkpt>
      <trkpt lat="41.97225" lon="0.93776">
        <ele>1277.3</ele>
        <time>2019-01-31T17:12:24Z</time>
      </trkpt>
      <trkpt lat="41.97224" lon="0.93762">
        <ele>1278.3</ele>
        <time>2019-01-31T17:12:30Z</time>
      </trkpt>
      <trkpt lat="41.97231" lon="0.93754">
        <ele>1278.8</ele>
        <time>2019-01-31T17:12:35Z</time>
      </trkpt>
      <trkpt lat="41.9724" lon="0.93757">
        <ele>1280.2</ele>
        <time>2019-01-31T17:12:41Z</time>
      </trkpt>
      <trkpt lat="41.97244" lon="0.9377">
        <ele>1281.2</ele>
        <time>2019-01-31T17:12:47Z</time>
      </trkpt>
      <trkpt lat="41.97253" lon="0.93775">
        <ele>1281.6</ele>
        <time>2019-01-31T17:12:52Z</time>
      </trkpt>
      <trkpt lat="41.97263" lon="0.93775">
        <ele>1282.2</ele>
        <time>2019-01-31T17:12:58Z</time>
      </trkpt>
      <trkpt lat="41.97276" lon="0.93774">
        <ele>1282.6</ele>
        <time>2019-01-31T17:13:05Z</time>
      </trkpt>
      <trkpt lat="41.97285" lon="0.93779">
        <ele>1283</ele>
        <time>2019-01-31T17:13:11Z</time>
      </trkpt>
      <trkpt lat="41.97296" lon="0.9378">
        <ele>1283.6</ele>
        <time>2019-01-31T17:13:17Z</time>
      </trkpt>
      <trkpt lat="41.97306" lon="0.93781">
        <ele>1284</ele>
        <time>2019-01-31T17:13:23Z</time>
      </trkpt>
      <trkpt lat="41.97316" lon="0.93784">
        <ele>1284.9</ele>
        <time>2019-01-31T17:13:29Z</time>
      </trkpt>
      <trkpt lat="41.97326" lon="0.93788">
        <ele>1284.9</ele>
        <time>2019-01-31T17:13:35Z</time>
      </trkpt>
      <trkpt lat="41.97336" lon="0.93792">
        <ele>1285.9</ele>
        <time>2019-01-31T17:13:41Z</time>
      </trkpt>
      <trkpt lat="41.97344" lon="0.93799">
        <ele>1286.9</ele>
        <time>2019-01-31T17:13:46Z</time>
      </trkpt>
      <trkpt lat="41.97355" lon="0.93804">
        <ele>1287</ele>
        <time>2019-01-31T17:13:53Z</time>
      </trkpt>
      <trkpt lat="41.97365" lon="0.93806">
        <ele>1287.9</ele>
        <time>2019-01-31T17:13:58Z</time>
      </trkpt>
      <trkpt lat="41.97375" lon="0.9381">
        <ele>1288.8</ele>
        <time>2019-01-31T17:14:05Z</time>
      </trkpt>
      <trkpt lat="41.97386" lon="0.93816">
        <ele>1290.8</ele>
        <time>2019-01-31T17:14:11Z</time>
      </trkpt>
      <trkpt lat="41.97396" lon="0.9382">
        <ele>1292.3</ele>
        <time>2019-01-31T17:14:17Z</time>
      </trkpt>
      <trkpt lat="41.97407" lon="0.93824">
        <ele>1293.1</ele>
        <time>2019-01-31T17:14:24Z</time>
      </trkpt>
      <trkpt lat="41.97418" lon="0.93827">
        <ele>1294.2</ele>
        <time>2019-01-31T17:14:30Z</time>
      </trkpt>
      <trkpt lat="41.97428" lon="0.93833">
        <ele>1295.1</ele>
        <time>2019-01-31T17:14:36Z</time>
      </trkpt>
      <trkpt lat="41.97437" lon="0.93833">
        <ele>1297.9</ele>
        <time>2019-01-31T17:14:42Z</time>
      </trkpt>
      <trkpt lat="41.97451" lon="0.93832">
        <ele>1301.8</ele>
        <time>2019-01-31T17:14:49Z</time>
      </trkpt>
      <trkpt lat="41.97459" lon="0.93828">
        <ele>1304.2</ele>
        <time>2019-01-31T17:14:54Z</time>
      </trkpt>
      <trkpt lat="41.97459" lon="0.93814">
        <ele>1306.2</ele>
        <time>2019-01-31T17:15:01Z</time>
      </trkpt>
      <trkpt lat="41.97469" lon="0.9381">
        <ele>1308.5</ele>
        <time>2019-01-31T17:15:07Z</time>
      </trkpt>
      <trkpt lat="41.9748" lon="0.93813">
        <ele>1311</ele>
        <time>2019-01-31T17:15:13Z</time>
      </trkpt>
      <trkpt lat="41.97491" lon="0.93819">
        <ele>1312.8</ele>
        <time>2019-01-31T17:15:20Z</time>
      </trkpt>
      <trkpt lat="41.975" lon="0.93828">
        <ele>1314.7</ele>
        <time>2019-01-31T17:15:26Z</time>
      </trkpt>
      <trkpt lat="41.97508" lon="0.93839">
        <ele>1316.2</ele>
        <time>2019-01-31T17:15:33Z</time>
      </trkpt>
      <trkpt lat="41.97515" lon="0.93851">
        <ele>1318.7</ele>
        <time>2019-01-31T17:15:39Z</time>
      </trkpt>
      <trkpt lat="41.97522" lon="0.93867">
        <ele>1321</ele>
        <time>2019-01-31T17:15:47Z</time>
      </trkpt>
      <trkpt lat="41.97529" lon="0.93881">
        <ele>1323.9</ele>
        <time>2019-01-31T17:15:54Z</time>
      </trkpt>
      <trkpt lat="41.97536" lon="0.93892">
        <ele>1325.8</ele>
        <time>2019-01-31T17:16:00Z</time>
      </trkpt>
      <trkpt lat="41.97544" lon="0.93901">
        <ele>1328.2</ele>
        <time>2019-01-31T17:16:06Z</time>
      </trkpt>
      <trkpt lat="41.97553" lon="0.93911">
        <ele>1330.6</ele>
        <time>2019-01-31T17:16:13Z</time>
      </trkpt>
      <trkpt lat="41.97563" lon="0.93919">
        <ele>1333.5</ele>
        <time>2019-01-31T17:16:20Z</time>
      </trkpt>
      <trkpt lat="41.97572" lon="0.93927">
        <ele>1336.4</ele>
        <time>2019-01-31T17:16:26Z</time>
      </trkpt>
      <trkpt lat="41.97582" lon="0.93935">
        <ele>1338.9</ele>
        <time>2019-01-31T17:16:32Z</time>
      </trkpt>
      <trkpt lat="41.97591" lon="0.93942">
        <ele>1340.8</ele>
        <time>2019-01-31T17:16:38Z</time>
      </trkpt>
      <trkpt lat="41.97598" lon="0.93952">
        <ele>1343.2</ele>
        <time>2019-01-31T17:16:44Z</time>
      </trkpt>
      <trkpt lat="41.97604" lon="0.93962">
        <ele>1346</ele>
        <time>2019-01-31T17:16:50Z</time>
      </trkpt>
      <trkpt lat="41.97608" lon="0.93974">
        <ele>1348.5</ele>
        <time>2019-01-31T17:16:55Z</time>
      </trkpt>
      <trkpt lat="41.97614" lon="0.93986">
        <ele>1351.4</ele>
        <time>2019-01-31T17:17:02Z</time>
      </trkpt>
      <trkpt lat="41.9762" lon="0.93995">
        <ele>1353.8</ele>
        <time>2019-01-31T17:17:07Z</time>
      </trkpt>
      <trkpt lat="41.97629" lon="0.94002">
        <ele>1356.1</ele>
        <time>2019-01-31T17:17:13Z</time>
      </trkpt>
      <trkpt lat="41.97639" lon="0.94006">
        <ele>1359</ele>
        <time>2019-01-31T17:17:19Z</time>
      </trkpt>
      <trkpt lat="41.9765" lon="0.94008">
        <ele>1361.8</ele>
        <time>2019-01-31T17:17:25Z</time>
      </trkpt>
      <trkpt lat="41.97657" lon="0.94009">
        <ele>1363.8</ele>
        <time>2019-01-31T17:17:29Z</time>
      </trkpt>
      <trkpt lat="41.97664" lon="0.94001">
        <ele>1364.7</ele>
        <time>2019-01-31T17:17:35Z</time>
      </trkpt>
      <trkpt lat="41.97673" lon="0.93993">
        <ele>1365.8</ele>
        <time>2019-01-31T17:17:41Z</time>
      </trkpt>
      <trkpt lat="41.9768" lon="0.93984">
        <ele>1366.2</ele>
        <time>2019-01-31T17:17:46Z</time>
      </trkpt>
      <trkpt lat="41.97689" lon="0.93976">
        <ele>1367.2</ele>
        <time>2019-01-31T17:17:52Z</time>
      </trkpt>
      <trkpt lat="41.97696" lon="0.93966">
        <ele>1368.7</ele>
        <time>2019-01-31T17:17:58Z</time>
      </trkpt>
      <trkpt lat="41.97702" lon="0.93956">
        <ele>1369.6</ele>
        <time>2019-01-31T17:18:04Z</time>
      </trkpt>
      <trkpt lat="41.97711" lon="0.93955">
        <ele>1371.1</ele>
        <time>2019-01-31T17:18:08Z</time>
      </trkpt>
      <trkpt lat="41.97717" lon="0.93966">
        <ele>1373</ele>
        <time>2019-01-31T17:18:14Z</time>
      </trkpt>
      <trkpt lat="41.97722" lon="0.93979">
        <ele>1374.3</ele>
        <time>2019-01-31T17:18:20Z</time>
      </trkpt>
      <trkpt lat="41.97725" lon="0.9399">
        <ele>1376.8</ele>
        <time>2019-01-31T17:18:26Z</time>
      </trkpt>
      <trkpt lat="41.97731" lon="0.94001">
        <ele>1378.8</ele>
        <time>2019-01-31T17:18:31Z</time>
      </trkpt>
      <trkpt lat="41.97737" lon="0.9401">
        <ele>1380.7</ele>
        <time>2019-01-31T17:18:36Z</time>
      </trkpt>
      <trkpt lat="41.97745" lon="0.94018">
        <ele>1382.5</ele>
        <time>2019-01-31T17:18:42Z</time>
      </trkpt>
      <trkpt lat="41.97752" lon="0.94027">
        <ele>1384</ele>
        <time>2019-01-31T17:18:48Z</time>
      </trkpt>
      <trkpt lat="41.97758" lon="0.94038">
        <ele>1385.5</ele>
        <time>2019-01-31T17:18:53Z</time>
      </trkpt>
      <trkpt lat="41.97764" lon="0.94047">
        <ele>1386.5</ele>
        <time>2019-01-31T17:18:59Z</time>
      </trkpt>
      <trkpt lat="41.9777" lon="0.94058">
        <ele>1387.9</ele>
        <time>2019-01-31T17:19:04Z</time>
      </trkpt>
      <trkpt lat="41.97774" lon="0.94068">
        <ele>1388.9</ele>
        <time>2019-01-31T17:19:09Z</time>
      </trkpt>
      <trkpt lat="41.97775" lon="0.9408">
        <ele>1389.8</ele>
        <time>2019-01-31T17:19:14Z</time>
      </trkpt>
      <trkpt lat="41.97776" lon="0.94093">
        <ele>1391.3</ele>
        <time>2019-01-31T17:19:20Z</time>
      </trkpt>
      <trkpt lat="41.97798" lon="0.94097">
        <ele>1385.9</ele>
        <time>2019-01-31T17:19:33Z</time>
      </trkpt>
      <trkpt lat="41.978" lon="0.94085">
        <ele>1384</ele>
        <time>2019-01-31T17:19:38Z</time>
      </trkpt>
      <trkpt lat="41.97799" lon="0.94075">
        <ele>1383</ele>
        <time>2019-01-31T17:19:42Z</time>
      </trkpt>
      <trkpt lat="41.9779" lon="0.94069">
        <ele>1383.1</ele>
        <time>2019-01-31T17:19:48Z</time>
      </trkpt>
      <trkpt lat="41.97783" lon="0.94066">
        <ele>1383.1</ele>
        <time>2019-01-31T17:19:52Z</time>
      </trkpt>
      <trkpt lat="41.97776" lon="0.94058">
        <ele>1382.1</ele>
        <time>2019-01-31T17:19:58Z</time>
      </trkpt>
      <trkpt lat="41.97767" lon="0.94053">
        <ele>1381.1</ele>
        <time>2019-01-31T17:20:03Z</time>
      </trkpt>
      <trkpt lat="41.97761" lon="0.94043">
        <ele>1380.2</ele>
        <time>2019-01-31T17:20:09Z</time>
      </trkpt>
      <trkpt lat="41.97754" lon="0.94034">
        <ele>1378.8</ele>
        <time>2019-01-31T17:20:14Z</time>
      </trkpt>
      <trkpt lat="41.97747" lon="0.94022">
        <ele>1376.9</ele>
        <time>2019-01-31T17:20:21Z</time>
      </trkpt>
      <trkpt lat="41.97745" lon="0.9401">
        <ele>1375.9</ele>
        <time>2019-01-31T17:20:26Z</time>
      </trkpt>
      <trkpt lat="41.9774" lon="0.94">
        <ele>1374.4</ele>
        <time>2019-01-31T17:20:31Z</time>
      </trkpt>
      <trkpt lat="41.97737" lon="0.93989">
        <ele>1373.4</ele>
        <time>2019-01-31T17:20:36Z</time>
      </trkpt>
      <trkpt lat="41.97731" lon="0.93978">
        <ele>1370.5</ele>
        <time>2019-01-31T17:20:42Z</time>
      </trkpt>
      <trkpt lat="41.97723" lon="0.93972">
        <ele>1368.6</ele>
        <time>2019-01-31T17:20:47Z</time>
      </trkpt>
      <trkpt lat="41.97714" lon="0.93971">
        <ele>1366.3</ele>
        <time>2019-01-31T17:20:52Z</time>
      </trkpt>
      <trkpt lat="41.97704" lon="0.93976">
        <ele>1364.7</ele>
        <time>2019-01-31T17:20:58Z</time>
      </trkpt>
      <trkpt lat="41.97695" lon="0.93981">
        <ele>1363.8</ele>
        <time>2019-01-31T17:21:04Z</time>
      </trkpt>
      <trkpt lat="41.97687" lon="0.9398">
        <ele>1361.9</ele>
        <time>2019-01-31T17:21:08Z</time>
      </trkpt>
      <trkpt lat="41.9768" lon="0.9399">
        <ele>1359.4</ele>
        <time>2019-01-31T17:21:14Z</time>
      </trkpt>
      <trkpt lat="41.97672" lon="0.93998">
        <ele>1359.1</ele>
        <time>2019-01-31T17:21:20Z</time>
      </trkpt>
      <trkpt lat="41.97664" lon="0.94006">
        <ele>1358.1</ele>
        <time>2019-01-31T17:21:26Z</time>
      </trkpt>
      <trkpt lat="41.97655" lon="0.94014">
        <ele>1357.1</ele>
        <time>2019-01-31T17:21:32Z</time>
      </trkpt>
      <trkpt lat="41.97646" lon="0.94023">
        <ele>1355.7</ele>
        <time>2019-01-31T17:21:38Z</time>
      </trkpt>
      <trkpt lat="41.97637" lon="0.94028">
        <ele>1354.2</ele>
        <time>2019-01-31T17:21:44Z</time>
      </trkpt>
      <trkpt lat="41.97628" lon="0.94035">
        <ele>1353.7</ele>
        <time>2019-01-31T17:21:50Z</time>
      </trkpt>
      <trkpt lat="41.97621" lon="0.94045">
        <ele>1352.7</ele>
        <time>2019-01-31T17:21:56Z</time>
      </trkpt>
      <trkpt lat="41.97615" lon="0.94056">
        <ele>1351.8</ele>
        <time>2019-01-31T17:22:01Z</time>
      </trkpt>
      <trkpt lat="41.9761" lon="0.94066">
        <ele>1351.4</ele>
        <time>2019-01-31T17:22:07Z</time>
      </trkpt>
      <trkpt lat="41.97605" lon="0.94077">
        <ele>1350.3</ele>
        <time>2019-01-31T17:22:12Z</time>
      </trkpt>
      <trkpt lat="41.97601" lon="0.9409">
        <ele>1349.5</ele>
        <time>2019-01-31T17:22:18Z</time>
      </trkpt>
      <trkpt lat="41.97597" lon="0.94103">
        <ele>1348.4</ele>
        <time>2019-01-31T17:22:24Z</time>
      </trkpt>
      <trkpt lat="41.97594" lon="0.94115">
        <ele>1348.5</ele>
        <time>2019-01-31T17:22:29Z</time>
      </trkpt>
      <trkpt lat="41.97589" lon="0.94128">
        <ele>1346.6</ele>
        <time>2019-01-31T17:22:36Z</time>
      </trkpt>
      <trkpt lat="41.97586" lon="0.9414">
        <ele>1345.5</ele>
        <time>2019-01-31T17:22:41Z</time>
      </trkpt>
      <trkpt lat="41.97582" lon="0.94153">
        <ele>1344.5</ele>
        <time>2019-01-31T17:22:47Z</time>
      </trkpt>
      <trkpt lat="41.97577" lon="0.94168">
        <ele>1343.6</ele>
        <time>2019-01-31T17:22:54Z</time>
      </trkpt>
      <trkpt lat="41.97573" lon="0.94183">
        <ele>1342.6</ele>
        <time>2019-01-31T17:23:00Z</time>
      </trkpt>
      <trkpt lat="41.9757" lon="0.94194">
        <ele>1342.1</ele>
        <time>2019-01-31T17:23:06Z</time>
      </trkpt>
      <trkpt lat="41.97568" lon="0.94206">
        <ele>1341.8</ele>
        <time>2019-01-31T17:23:11Z</time>
      </trkpt>
      <trkpt lat="41.97565" lon="0.94218">
        <ele>1340.8</ele>
        <time>2019-01-31T17:23:16Z</time>
      </trkpt>
      <trkpt lat="41.97562" lon="0.94229">
        <ele>1339.8</ele>
        <time>2019-01-31T17:23:21Z</time>
      </trkpt>
      <trkpt lat="41.9756" lon="0.94244">
        <ele>1338.4</ele>
        <time>2019-01-31T17:23:28Z</time>
      </trkpt>
      <trkpt lat="41.97558" lon="0.94259">
        <ele>1337.3</ele>
        <time>2019-01-31T17:23:34Z</time>
      </trkpt>
      <trkpt lat="41.97555" lon="0.94274">
        <ele>1336</ele>
        <time>2019-01-31T17:23:41Z</time>
      </trkpt>
      <trkpt lat="41.97552" lon="0.94286">
        <ele>1334.9</ele>
        <time>2019-01-31T17:23:46Z</time>
      </trkpt>
      <trkpt lat="41.97547" lon="0.94296">
        <ele>1334.9</ele>
        <time>2019-01-31T17:23:51Z</time>
      </trkpt>
      <trkpt lat="41.97546" lon="0.94309">
        <ele>1335</ele>
        <time>2019-01-31T17:23:57Z</time>
      </trkpt>
      <trkpt lat="41.97542" lon="0.94321">
        <ele>1334.9</ele>
        <time>2019-01-31T17:24:02Z</time>
      </trkpt>
      <trkpt lat="41.97535" lon="0.9433">
        <ele>1334.9</ele>
        <time>2019-01-31T17:24:08Z</time>
      </trkpt>
      <trkpt lat="41.97527" lon="0.94338">
        <ele>1336.4</ele>
        <time>2019-01-31T17:24:14Z</time>
      </trkpt>
      <trkpt lat="41.9752" lon="0.94347">
        <ele>1337.4</ele>
        <time>2019-01-31T17:24:19Z</time>
      </trkpt>
      <trkpt lat="41.97513" lon="0.94357">
        <ele>1338.4</ele>
        <time>2019-01-31T17:24:25Z</time>
      </trkpt>
      <trkpt lat="41.97505" lon="0.94365">
        <ele>1338.8</ele>
        <time>2019-01-31T17:24:30Z</time>
      </trkpt>
      <trkpt lat="41.97497" lon="0.94373">
        <ele>1338.9</ele>
        <time>2019-01-31T17:24:36Z</time>
      </trkpt>
      <trkpt lat="41.97492" lon="0.94386">
        <ele>1338.9</ele>
        <time>2019-01-31T17:24:42Z</time>
      </trkpt>
      <trkpt lat="41.97493" lon="0.94399">
        <ele>1336.5</ele>
        <time>2019-01-31T17:24:48Z</time>
      </trkpt>
      <trkpt lat="41.97495" lon="0.94413">
        <ele>1334.6</ele>
        <time>2019-01-31T17:24:54Z</time>
      </trkpt>
      <trkpt lat="41.97496" lon="0.94426">
        <ele>1332.1</ele>
        <time>2019-01-31T17:25:00Z</time>
      </trkpt>
      <trkpt lat="41.97496" lon="0.94439">
        <ele>1330.2</ele>
        <time>2019-01-31T17:25:05Z</time>
      </trkpt>
      <trkpt lat="41.97496" lon="0.94452">
        <ele>1328.7</ele>
        <time>2019-01-31T17:25:11Z</time>
      </trkpt>
      <trkpt lat="41.97495" lon="0.94467">
        <ele>1326.8</ele>
        <time>2019-01-31T17:25:17Z</time>
      </trkpt>
      <trkpt lat="41.97493" lon="0.9448">
        <ele>1325.4</ele>
        <time>2019-01-31T17:25:23Z</time>
      </trkpt>
      <trkpt lat="41.97491" lon="0.94495">
        <ele>1323.9</ele>
        <time>2019-01-31T17:25:29Z</time>
      </trkpt>
      <trkpt lat="41.97488" lon="0.94507">
        <ele>1323</ele>
        <time>2019-01-31T17:25:35Z</time>
      </trkpt>
      <trkpt lat="41.97483" lon="0.9452">
        <ele>1321.6</ele>
        <time>2019-01-31T17:25:41Z</time>
      </trkpt>
      <trkpt lat="41.97477" lon="0.94533">
        <ele>1320.1</ele>
        <time>2019-01-31T17:25:47Z</time>
      </trkpt>
      <trkpt lat="41.9747" lon="0.94541">
        <ele>1319.1</ele>
        <time>2019-01-31T17:25:52Z</time>
      </trkpt>
      <trkpt lat="41.97463" lon="0.94549">
        <ele>1318.1</ele>
        <time>2019-01-31T17:25:58Z</time>
      </trkpt>
      <trkpt lat="41.97456" lon="0.94557">
        <ele>1317.6</ele>
        <time>2019-01-31T17:26:03Z</time>
      </trkpt>
      <trkpt lat="41.97449" lon="0.94565">
        <ele>1316.7</ele>
        <time>2019-01-31T17:26:08Z</time>
      </trkpt>
      <trkpt lat="41.97441" lon="0.94573">
        <ele>1315.7</ele>
        <time>2019-01-31T17:26:14Z</time>
      </trkpt>
      <trkpt lat="41.97434" lon="0.94581">
        <ele>1314.7</ele>
        <time>2019-01-31T17:26:19Z</time>
      </trkpt>
      <trkpt lat="41.97428" lon="0.94588">
        <ele>1314.3</ele>
        <time>2019-01-31T17:26:24Z</time>
      </trkpt>
      <trkpt lat="41.9742" lon="0.94597">
        <ele>1312.9</ele>
        <time>2019-01-31T17:26:30Z</time>
      </trkpt>
      <trkpt lat="41.97412" lon="0.94604">
        <ele>1311.9</ele>
        <time>2019-01-31T17:26:35Z</time>
      </trkpt>
      <trkpt lat="41.97404" lon="0.94612">
        <ele>1310.9</ele>
        <time>2019-01-31T17:26:41Z</time>
      </trkpt>
      <trkpt lat="41.97396" lon="0.94622">
        <ele>1310</ele>
        <time>2019-01-31T17:26:47Z</time>
      </trkpt>
      <trkpt lat="41.97389" lon="0.94633">
        <ele>1309.5</ele>
        <time>2019-01-31T17:26:53Z</time>
      </trkpt>
      <trkpt lat="41.97382" lon="0.94643">
        <ele>1308.6</ele>
        <time>2019-01-31T17:26:59Z</time>
      </trkpt>
      <trkpt lat="41.97373" lon="0.94651">
        <ele>1307.5</ele>
        <time>2019-01-31T17:27:05Z</time>
      </trkpt>
      <trkpt lat="41.97364" lon="0.94658">
        <ele>1306.6</ele>
        <time>2019-01-31T17:27:11Z</time>
      </trkpt>
      <trkpt lat="41.97356" lon="0.94667">
        <ele>1305.6</ele>
        <time>2019-01-31T17:27:17Z</time>
      </trkpt>
      <trkpt lat="41.97347" lon="0.94673">
        <ele>1305.2</ele>
        <time>2019-01-31T17:27:23Z</time>
      </trkpt>
      <trkpt lat="41.97338" lon="0.9468">
        <ele>1304.2</ele>
        <time>2019-01-31T17:27:29Z</time>
      </trkpt>
      <trkpt lat="41.97329" lon="0.94686">
        <ele>1302.7</ele>
        <time>2019-01-31T17:27:35Z</time>
      </trkpt>
      <trkpt lat="41.9732" lon="0.9469">
        <ele>1301.9</ele>
        <time>2019-01-31T17:27:40Z</time>
      </trkpt>
      <trkpt lat="41.9731" lon="0.94695">
        <ele>1300.9</ele>
        <time>2019-01-31T17:27:46Z</time>
      </trkpt>
      <trkpt lat="41.97302" lon="0.94699">
        <ele>1300.3</ele>
        <time>2019-01-31T17:27:51Z</time>
      </trkpt>
      <trkpt lat="41.97293" lon="0.94702">
        <ele>1300.3</ele>
        <time>2019-01-31T17:27:56Z</time>
      </trkpt>
      <trkpt lat="41.97285" lon="0.94704">
        <ele>1300.3</ele>
        <time>2019-01-31T17:28:01Z</time>
      </trkpt>
      <trkpt lat="41.97276" lon="0.94708">
        <ele>1300.3</ele>
        <time>2019-01-31T17:28:07Z</time>
      </trkpt>
      <trkpt lat="41.97266" lon="0.94711">
        <ele>1300.3</ele>
        <time>2019-01-31T17:28:12Z</time>
      </trkpt>
      <trkpt lat="41.97256" lon="0.94714">
        <ele>1300.4</ele>
        <time>2019-01-31T17:28:18Z</time>
      </trkpt>
      <trkpt lat="41.97246" lon="0.94716">
        <ele>1301.8</ele>
        <time>2019-01-31T17:28:24Z</time>
      </trkpt>
      <trkpt lat="41.97236" lon="0.9472">
        <ele>1302.2</ele>
        <time>2019-01-31T17:28:30Z</time>
      </trkpt>
      <trkpt lat="41.97226" lon="0.94726">
        <ele>1302.2</ele>
        <time>2019-01-31T17:28:36Z</time>
      </trkpt>
      <trkpt lat="41.97219" lon="0.94734">
        <ele>1302.2</ele>
        <time>2019-01-31T17:28:41Z</time>
      </trkpt>
      <trkpt lat="41.97213" lon="0.94744">
        <ele>1302.3</ele>
        <time>2019-01-31T17:28:47Z</time>
      </trkpt>
      <trkpt lat="41.9721" lon="0.94755">
        <ele>1301.3</ele>
        <time>2019-01-31T17:28:52Z</time>
      </trkpt>
      <trkpt lat="41.97207" lon="0.94766">
        <ele>1300.8</ele>
        <time>2019-01-31T17:28:57Z</time>
      </trkpt>
      <trkpt lat="41.97205" lon="0.94778">
        <ele>1299.9</ele>
        <time>2019-01-31T17:29:02Z</time>
      </trkpt>
      <trkpt lat="41.972" lon="0.94788">
        <ele>1299.5</ele>
        <time>2019-01-31T17:29:07Z</time>
      </trkpt>
      <trkpt lat="41.97199" lon="0.94799">
        <ele>1299.4</ele>
        <time>2019-01-31T17:29:12Z</time>
      </trkpt>
      <trkpt lat="41.97199" lon="0.94813">
        <ele>1299.5</ele>
        <time>2019-01-31T17:29:18Z</time>
      </trkpt>
      <trkpt lat="41.97199" lon="0.94826">
        <ele>1299.5</ele>
        <time>2019-01-31T17:29:23Z</time>
      </trkpt>
      <trkpt lat="41.97198" lon="0.94838">
        <ele>1299.5</ele>
        <time>2019-01-31T17:29:28Z</time>
      </trkpt>
      <trkpt lat="41.97197" lon="0.94851">
        <ele>1299.5</ele>
        <time>2019-01-31T17:29:34Z</time>
      </trkpt>
      <trkpt lat="41.97196" lon="0.94864">
        <ele>1299.4</ele>
        <time>2019-01-31T17:29:40Z</time>
      </trkpt>
      <trkpt lat="41.97194" lon="0.94877">
        <ele>1298.9</ele>
        <time>2019-01-31T17:29:45Z</time>
      </trkpt>
      <trkpt lat="41.97193" lon="0.94892">
        <ele>1299</ele>
        <time>2019-01-31T17:29:51Z</time>
      </trkpt>
      <trkpt lat="41.97192" lon="0.94906">
        <ele>1298.5</ele>
        <time>2019-01-31T17:29:58Z</time>
      </trkpt>
      <trkpt lat="41.97192" lon="0.94919">
        <ele>1297.4</ele>
        <time>2019-01-31T17:30:03Z</time>
      </trkpt>
      <trkpt lat="41.97191" lon="0.94933">
        <ele>1297</ele>
        <time>2019-01-31T17:30:09Z</time>
      </trkpt>
      <trkpt lat="41.97189" lon="0.94945">
        <ele>1296.1</ele>
        <time>2019-01-31T17:30:14Z</time>
      </trkpt>
      <trkpt lat="41.97188" lon="0.94959">
        <ele>1295</ele>
        <time>2019-01-31T17:30:20Z</time>
      </trkpt>
      <trkpt lat="41.97186" lon="0.94971">
        <ele>1294.6</ele>
        <time>2019-01-31T17:30:25Z</time>
      </trkpt>
      <trkpt lat="41.97184" lon="0.94984">
        <ele>1293.1</ele>
        <time>2019-01-31T17:30:31Z</time>
      </trkpt>
      <trkpt lat="41.97182" lon="0.94997">
        <ele>1291.7</ele>
        <time>2019-01-31T17:30:37Z</time>
      </trkpt>
      <trkpt lat="41.9718" lon="0.9501">
        <ele>1291.3</ele>
        <time>2019-01-31T17:30:42Z</time>
      </trkpt>
      <trkpt lat="41.97179" lon="0.95022">
        <ele>1289.3</ele>
        <time>2019-01-31T17:30:48Z</time>
      </trkpt>
      <trkpt lat="41.97177" lon="0.95035">
        <ele>1288.8</ele>
        <time>2019-01-31T17:30:53Z</time>
      </trkpt>
      <trkpt lat="41.97175" lon="0.95048">
        <ele>1286.9</ele>
        <time>2019-01-31T17:30:59Z</time>
      </trkpt>
      <trkpt lat="41.97172" lon="0.95061">
        <ele>1285.5</ele>
        <time>2019-01-31T17:31:05Z</time>
      </trkpt>
      <trkpt lat="41.97169" lon="0.95073">
        <ele>1284</ele>
        <time>2019-01-31T17:31:10Z</time>
      </trkpt>
      <trkpt lat="41.97165" lon="0.95086">
        <ele>1282.5</ele>
        <time>2019-01-31T17:31:16Z</time>
      </trkpt>
      <trkpt lat="41.97161" lon="0.95099">
        <ele>1281.2</ele>
        <time>2019-01-31T17:31:22Z</time>
      </trkpt>
      <trkpt lat="41.97158" lon="0.95111">
        <ele>1279.3</ele>
        <time>2019-01-31T17:31:27Z</time>
      </trkpt>
      <trkpt lat="41.97156" lon="0.95124">
        <ele>1278.3</ele>
        <time>2019-01-31T17:31:33Z</time>
      </trkpt>
      <trkpt lat="41.97154" lon="0.95137">
        <ele>1276.4</ele>
        <time>2019-01-31T17:31:38Z</time>
      </trkpt>
      <trkpt lat="41.97153" lon="0.9515">
        <ele>1274</ele>
        <time>2019-01-31T17:31:44Z</time>
      </trkpt>
      <trkpt lat="41.97152" lon="0.95165">
        <ele>1272</ele>
        <time>2019-01-31T17:31:51Z</time>
      </trkpt>
      <trkpt lat="41.97149" lon="0.95178">
        <ele>1269.6</ele>
        <time>2019-01-31T17:31:56Z</time>
      </trkpt>
      <trkpt lat="41.97144" lon="0.9519">
        <ele>1268.1</ele>
        <time>2019-01-31T17:32:02Z</time>
      </trkpt>
      <trkpt lat="41.97141" lon="0.95203">
        <ele>1267.2</ele>
        <time>2019-01-31T17:32:08Z</time>
      </trkpt>
      <trkpt lat="41.97138" lon="0.95215">
        <ele>1266.8</ele>
        <time>2019-01-31T17:32:13Z</time>
      </trkpt>
      <trkpt lat="41.97138" lon="0.95229">
        <ele>1265.8</ele>
        <time>2019-01-31T17:32:19Z</time>
      </trkpt>
      <trkpt lat="41.97136" lon="0.95242">
        <ele>1264.9</ele>
        <time>2019-01-31T17:32:24Z</time>
      </trkpt>
      <trkpt lat="41.97135" lon="0.95254">
        <ele>1263.9</ele>
        <time>2019-01-31T17:32:30Z</time>
      </trkpt>
      <trkpt lat="41.97133" lon="0.95267">
        <ele>1262.8</ele>
        <time>2019-01-31T17:32:36Z</time>
      </trkpt>
      <trkpt lat="41.97131" lon="0.9528">
        <ele>1262.5</ele>
        <time>2019-01-31T17:32:41Z</time>
      </trkpt>
      <trkpt lat="41.9713" lon="0.95294">
        <ele>1262</ele>
        <time>2019-01-31T17:32:47Z</time>
      </trkpt>
      <trkpt lat="41.97129" lon="0.95307">
        <ele>1262</ele>
        <time>2019-01-31T17:32:53Z</time>
      </trkpt>
      <trkpt lat="41.97127" lon="0.95319">
        <ele>1261.9</ele>
        <time>2019-01-31T17:32:58Z</time>
      </trkpt>
      <trkpt lat="41.97124" lon="0.95332">
        <ele>1261.9</ele>
        <time>2019-01-31T17:33:04Z</time>
      </trkpt>
      <trkpt lat="41.9712" lon="0.95345">
        <ele>1264.3</ele>
        <time>2019-01-31T17:33:09Z</time>
      </trkpt>
      <trkpt lat="41.97118" lon="0.95358">
        <ele>1265.3</ele>
        <time>2019-01-31T17:33:15Z</time>
      </trkpt>
      <trkpt lat="41.97116" lon="0.9537">
        <ele>1266.7</ele>
        <time>2019-01-31T17:33:20Z</time>
      </trkpt>
      <trkpt lat="41.97115" lon="0.95382">
        <ele>1268.6</ele>
        <time>2019-01-31T17:33:26Z</time>
      </trkpt>
      <trkpt lat="41.97113" lon="0.95394">
        <ele>1270.5</ele>
        <time>2019-01-31T17:33:31Z</time>
      </trkpt>
      <trkpt lat="41.97111" lon="0.95407">
        <ele>1271.5</ele>
        <time>2019-01-31T17:33:37Z</time>
      </trkpt>
      <trkpt lat="41.97109" lon="0.95421">
        <ele>1274.4</ele>
        <time>2019-01-31T17:33:43Z</time>
      </trkpt>
      <trkpt lat="41.97107" lon="0.95434">
        <ele>1275.9</ele>
        <time>2019-01-31T17:33:48Z</time>
      </trkpt>
      <trkpt lat="41.97103" lon="0.95447">
        <ele>1277.4</ele>
        <time>2019-01-31T17:33:54Z</time>
      </trkpt>
      <trkpt lat="41.97101" lon="0.95459">
        <ele>1278.7</ele>
        <time>2019-01-31T17:34:00Z</time>
      </trkpt>
      <trkpt lat="41.97102" lon="0.95472">
        <ele>1280.1</ele>
        <time>2019-01-31T17:34:05Z</time>
      </trkpt>
      <trkpt lat="41.97106" lon="0.95483">
        <ele>1282.1</ele>
        <time>2019-01-31T17:34:10Z</time>
      </trkpt>
      <trkpt lat="41.97107" lon="0.95496">
        <ele>1282.1</ele>
        <time>2019-01-31T17:34:16Z</time>
      </trkpt>
      <trkpt lat="41.97102" lon="0.95506">
        <ele>1280.2</ele>
        <time>2019-01-31T17:34:21Z</time>
      </trkpt>
      <trkpt lat="41.97093" lon="0.95513">
        <ele>1281.7</ele>
        <time>2019-01-31T17:34:27Z</time>
      </trkpt>
      <trkpt lat="41.971" lon="0.95518">
        <ele>1281.2</ele>
        <time>2019-01-31T17:34:31Z</time>
      </trkpt>
      <trkpt lat="41.97099" lon="0.95531">
        <ele>1279.2</ele>
        <time>2019-01-31T17:34:36Z</time>
      </trkpt>
      <trkpt lat="41.97097" lon="0.95543">
        <ele>1278.2</ele>
        <time>2019-01-31T17:34:42Z</time>
      </trkpt>
      <trkpt lat="41.97096" lon="0.95555">
        <ele>1276.9</ele>
        <time>2019-01-31T17:34:47Z</time>
      </trkpt>
      <trkpt lat="41.97097" lon="0.95567">
        <ele>1274.9</ele>
        <time>2019-01-31T17:34:52Z</time>
      </trkpt>
      <trkpt lat="41.971" lon="0.95578">
        <ele>1272.4</ele>
        <time>2019-01-31T17:34:57Z</time>
      </trkpt>
      <trkpt lat="41.97102" lon="0.95593">
        <ele>1269.1</ele>
        <time>2019-01-31T17:35:03Z</time>
      </trkpt>
      <trkpt lat="41.97102" lon="0.95607">
        <ele>1266.7</ele>
        <time>2019-01-31T17:35:09Z</time>
      </trkpt>
      <trkpt lat="41.97103" lon="0.9562">
        <ele>1263.8</ele>
        <time>2019-01-31T17:35:15Z</time>
      </trkpt>
      <trkpt lat="41.97104" lon="0.95634">
        <ele>1260.9</ele>
        <time>2019-01-31T17:35:21Z</time>
      </trkpt>
      <trkpt lat="41.97106" lon="0.95648">
        <ele>1258.5</ele>
        <time>2019-01-31T17:35:27Z</time>
      </trkpt>
      <trkpt lat="41.97108" lon="0.9566">
        <ele>1256.2</ele>
        <time>2019-01-31T17:35:32Z</time>
      </trkpt>
      <trkpt lat="41.97111" lon="0.95674">
        <ele>1252.7</ele>
        <time>2019-01-31T17:35:38Z</time>
      </trkpt>
      <trkpt lat="41.97119" lon="0.95682">
        <ele>1248.5</ele>
        <time>2019-01-31T17:35:44Z</time>
      </trkpt>
      <trkpt lat="41.97127" lon="0.95688">
        <ele>1245.5</ele>
        <time>2019-01-31T17:35:49Z</time>
      </trkpt>
      <trkpt lat="41.97137" lon="0.95693">
        <ele>1243.2</ele>
        <time>2019-01-31T17:35:55Z</time>
      </trkpt>
      <trkpt lat="41.97145" lon="0.95694">
        <ele>1240.3</ele>
        <time>2019-01-31T17:36:00Z</time>
      </trkpt>
      <trkpt lat="41.97156" lon="0.95698">
        <ele>1237.4</ele>
        <time>2019-01-31T17:36:06Z</time>
      </trkpt>
      <trkpt lat="41.97165" lon="0.95702">
        <ele>1235.4</ele>
        <time>2019-01-31T17:36:11Z</time>
      </trkpt>
      <trkpt lat="41.97175" lon="0.95706">
        <ele>1232.6</ele>
        <time>2019-01-31T17:36:18Z</time>
      </trkpt>
      <trkpt lat="41.97183" lon="0.95711">
        <ele>1229.7</ele>
        <time>2019-01-31T17:36:23Z</time>
      </trkpt>
      <trkpt lat="41.97192" lon="0.95717">
        <ele>1226.3</ele>
        <time>2019-01-31T17:36:28Z</time>
      </trkpt>
      <trkpt lat="41.97202" lon="0.9572">
        <ele>1224</ele>
        <time>2019-01-31T17:36:34Z</time>
      </trkpt>
      <trkpt lat="41.97212" lon="0.95726">
        <ele>1220.6</ele>
        <time>2019-01-31T17:36:40Z</time>
      </trkpt>
      <trkpt lat="41.9722" lon="0.95737">
        <ele>1216.8</ele>
        <time>2019-01-31T17:36:47Z</time>
      </trkpt>
      <trkpt lat="41.97231" lon="0.95739">
        <ele>1214.9</ele>
        <time>2019-01-31T17:36:53Z</time>
      </trkpt>
      <trkpt lat="41.9724" lon="0.95741">
        <ele>1211.9</ele>
        <time>2019-01-31T17:36:59Z</time>
      </trkpt>
      <trkpt lat="41.9725" lon="0.95745">
        <ele>1209.5</ele>
        <time>2019-01-31T17:37:04Z</time>
      </trkpt>
      <trkpt lat="41.97261" lon="0.95748">
        <ele>1207.2</ele>
        <time>2019-01-31T17:37:11Z</time>
      </trkpt>
      <trkpt lat="41.97272" lon="0.95749">
        <ele>1204.7</ele>
        <time>2019-01-31T17:37:17Z</time>
      </trkpt>
      <trkpt lat="41.97281" lon="0.95749">
        <ele>1203.2</ele>
        <time>2019-01-31T17:37:23Z</time>
      </trkpt>
      <trkpt lat="41.9729" lon="0.95749">
        <ele>1202.4</ele>
        <time>2019-01-31T17:37:28Z</time>
      </trkpt>
      <trkpt lat="41.973" lon="0.95751">
        <ele>1200.3</ele>
        <time>2019-01-31T17:37:33Z</time>
      </trkpt>
      <trkpt lat="41.97301" lon="0.95763">
        <ele>1197.9</ele>
        <time>2019-01-31T17:37:38Z</time>
      </trkpt>
      <trkpt lat="41.97294" lon="0.95773">
        <ele>1196.5</ele>
        <time>2019-01-31T17:37:44Z</time>
      </trkpt>
      <trkpt lat="41.97287" lon="0.95784">
        <ele>1194.1</ele>
        <time>2019-01-31T17:37:50Z</time>
      </trkpt>
      <trkpt lat="41.97282" lon="0.95795">
        <ele>1191.2</ele>
        <time>2019-01-31T17:37:56Z</time>
      </trkpt>
      <trkpt lat="41.97277" lon="0.95807">
        <ele>1189.3</ele>
        <time>2019-01-31T17:38:01Z</time>
      </trkpt>
      <trkpt lat="41.97273" lon="0.95821">
        <ele>1187</ele>
        <time>2019-01-31T17:38:08Z</time>
      </trkpt>
      <trkpt lat="41.97267" lon="0.95832">
        <ele>1184.1</ele>
        <time>2019-01-31T17:38:13Z</time>
      </trkpt>
      <trkpt lat="41.97264" lon="0.95846">
        <ele>1181.7</ele>
        <time>2019-01-31T17:38:20Z</time>
      </trkpt>
      <trkpt lat="41.97261" lon="0.95858">
        <ele>1179.7</ele>
        <time>2019-01-31T17:38:25Z</time>
      </trkpt>
      <trkpt lat="41.97258" lon="0.95871">
        <ele>1177.8</ele>
        <time>2019-01-31T17:38:31Z</time>
      </trkpt>
      <trkpt lat="41.97257" lon="0.95886">
        <ele>1175.5</ele>
        <time>2019-01-31T17:38:37Z</time>
      </trkpt>
      <trkpt lat="41.97253" lon="0.959">
        <ele>1173</ele>
        <time>2019-01-31T17:38:44Z</time>
      </trkpt>
      <trkpt lat="41.97249" lon="0.95911">
        <ele>1169.6</ele>
        <time>2019-01-31T17:38:49Z</time>
      </trkpt>
      <trkpt lat="41.97255" lon="0.95917">
        <ele>1167.2</ele>
        <time>2019-01-31T17:38:54Z</time>
      </trkpt>
      <trkpt lat="41.97263" lon="0.95922">
        <ele>1164.9</ele>
        <time>2019-01-31T17:38:59Z</time>
      </trkpt>
      <trkpt lat="41.97273" lon="0.95924">
        <ele>1162</ele>
        <time>2019-01-31T17:39:04Z</time>
      </trkpt>
      <trkpt lat="41.97283" lon="0.95917">
        <ele>1159</ele>
        <time>2019-01-31T17:39:10Z</time>
      </trkpt>
      <trkpt lat="41.97292" lon="0.95908">
        <ele>1157.7</ele>
        <time>2019-01-31T17:39:17Z</time>
      </trkpt>
      <trkpt lat="41.97301" lon="0.95903">
        <ele>1155.2</ele>
        <time>2019-01-31T17:39:23Z</time>
      </trkpt>
      <trkpt lat="41.97311" lon="0.9591">
        <ele>1153.3</ele>
        <time>2019-01-31T17:39:29Z</time>
      </trkpt>
      <trkpt lat="41.97321" lon="0.95915">
        <ele>1151.3</ele>
        <time>2019-01-31T17:39:35Z</time>
      </trkpt>
      <trkpt lat="41.97323" lon="0.95928">
        <ele>1149.9</ele>
        <time>2019-01-31T17:39:41Z</time>
      </trkpt>
      <trkpt lat="41.97317" lon="0.95936">
        <ele>1147.1</ele>
        <time>2019-01-31T17:39:46Z</time>
      </trkpt>
      <trkpt lat="41.97316" lon="0.95949">
        <ele>1144.6</ele>
        <time>2019-01-31T17:39:52Z</time>
      </trkpt>
      <trkpt lat="41.97316" lon="0.95962">
        <ele>1141.7</ele>
        <time>2019-01-31T17:39:57Z</time>
      </trkpt>
      <trkpt lat="41.97315" lon="0.95975">
        <ele>1138.9</ele>
        <time>2019-01-31T17:40:03Z</time>
      </trkpt>
      <trkpt lat="41.97315" lon="0.95989">
        <ele>1135.9</ele>
        <time>2019-01-31T17:40:09Z</time>
      </trkpt>
      <trkpt lat="41.97313" lon="0.96004">
        <ele>1134.1</ele>
        <time>2019-01-31T17:40:16Z</time>
      </trkpt>
      <trkpt lat="41.97316" lon="0.96016">
        <ele>1131.1</ele>
        <time>2019-01-31T17:40:21Z</time>
      </trkpt>
      <trkpt lat="41.9732" lon="0.96027">
        <ele>1127.9</ele>
        <time>2019-01-31T17:40:26Z</time>
      </trkpt>
      <trkpt lat="41.97325" lon="0.96038">
        <ele>1125</ele>
        <time>2019-01-31T17:40:31Z</time>
      </trkpt>
      <trkpt lat="41.97329" lon="0.96051">
        <ele>1122.6</ele>
        <time>2019-01-31T17:40:37Z</time>
      </trkpt>
      <trkpt lat="41.97331" lon="0.96065">
        <ele>1119.6</ele>
        <time>2019-01-31T17:40:43Z</time>
      </trkpt>
      <trkpt lat="41.97337" lon="0.96074">
        <ele>1116.3</ele>
        <time>2019-01-31T17:40:48Z</time>
      </trkpt>
      <trkpt lat="41.97341" lon="0.96085">
        <ele>1113</ele>
        <time>2019-01-31T17:40:54Z</time>
      </trkpt>
      <trkpt lat="41.97344" lon="0.96098">
        <ele>1109.5</ele>
        <time>2019-01-31T17:41:00Z</time>
      </trkpt>
      <trkpt lat="41.9735" lon="0.9611">
        <ele>1105.7</ele>
        <time>2019-01-31T17:41:06Z</time>
      </trkpt>
      <trkpt lat="41.97356" lon="0.96121">
        <ele>1102.4</ele>
        <time>2019-01-31T17:41:12Z</time>
      </trkpt>
      <trkpt lat="41.97364" lon="0.9613">
        <ele>1098.9</ele>
        <time>2019-01-31T17:41:17Z</time>
      </trkpt>
      <trkpt lat="41.97372" lon="0.96141">
        <ele>1095.6</ele>
        <time>2019-01-31T17:41:24Z</time>
      </trkpt>
      <trkpt lat="41.97378" lon="0.96152">
        <ele>1092.8</ele>
        <time>2019-01-31T17:41:30Z</time>
      </trkpt>
      <trkpt lat="41.97385" lon="0.96164">
        <ele>1088.5</ele>
        <time>2019-01-31T17:41:36Z</time>
      </trkpt>
      <trkpt lat="41.97389" lon="0.96176">
        <ele>1085.1</ele>
        <time>2019-01-31T17:41:42Z</time>
      </trkpt>
      <trkpt lat="41.97397" lon="0.96185">
        <ele>1081.7</ele>
        <time>2019-01-31T17:41:47Z</time>
      </trkpt>
      <trkpt lat="41.97406" lon="0.96193">
        <ele>1078.4</ele>
        <time>2019-01-31T17:41:54Z</time>
      </trkpt>
      <trkpt lat="41.97415" lon="0.96202">
        <ele>1074.5</ele>
        <time>2019-01-31T17:42:00Z</time>
      </trkpt>
      <trkpt lat="41.97422" lon="0.96214">
        <ele>1071.6</ele>
        <time>2019-01-31T17:42:07Z</time>
      </trkpt>
      <trkpt lat="41.97424" lon="0.96228">
        <ele>1068.6</ele>
        <time>2019-01-31T17:42:13Z</time>
      </trkpt>
      <trkpt lat="41.97429" lon="0.96241">
        <ele>1066.2</ele>
        <time>2019-01-31T17:42:19Z</time>
      </trkpt>
      <trkpt lat="41.97436" lon="0.96249">
        <ele>1063</ele>
        <time>2019-01-31T17:42:24Z</time>
      </trkpt>
      <trkpt lat="41.97443" lon="0.96258">
        <ele>1059.6</ele>
        <time>2019-01-31T17:42:30Z</time>
      </trkpt>
      <trkpt lat="41.97451" lon="0.96269">
        <ele>1056.2</ele>
        <time>2019-01-31T17:42:36Z</time>
      </trkpt>
      <trkpt lat="41.97459" lon="0.96279">
        <ele>1053.4</ele>
        <time>2019-01-31T17:42:42Z</time>
      </trkpt>
      <trkpt lat="41.97464" lon="0.96291">
        <ele>1049.9</ele>
        <time>2019-01-31T17:42:49Z</time>
      </trkpt>
      <trkpt lat="41.97473" lon="0.96299">
        <ele>1048</ele>
        <time>2019-01-31T17:42:55Z</time>
      </trkpt>
      <trkpt lat="41.97479" lon="0.9631">
        <ele>1045.6</ele>
        <time>2019-01-31T17:43:00Z</time>
      </trkpt>
      <trkpt lat="41.97486" lon="0.96322">
        <ele>1042.7</ele>
        <time>2019-01-31T17:43:07Z</time>
      </trkpt>
      <trkpt lat="41.97489" lon="0.96336">
        <ele>1040.4</ele>
        <time>2019-01-31T17:43:13Z</time>
      </trkpt>
      <trkpt lat="41.97489" lon="0.9635">
        <ele>1037</ele>
        <time>2019-01-31T17:43:19Z</time>
      </trkpt>
      <trkpt lat="41.9749" lon="0.96364">
        <ele>1034.5</ele>
        <time>2019-01-31T17:43:25Z</time>
      </trkpt>
      <trkpt lat="41.97494" lon="0.96378">
        <ele>1031.6</ele>
        <time>2019-01-31T17:43:31Z</time>
      </trkpt>
      <trkpt lat="41.97496" lon="0.96391">
        <ele>1029.8</ele>
        <time>2019-01-31T17:43:37Z</time>
      </trkpt>
      <trkpt lat="41.97498" lon="0.96404">
        <ele>1026.3</ele>
        <time>2019-01-31T17:43:43Z</time>
      </trkpt>
      <trkpt lat="41.97501" lon="0.96418">
        <ele>1024</ele>
        <time>2019-01-31T17:43:49Z</time>
      </trkpt>
      <trkpt lat="41.97507" lon="0.96429">
        <ele>1021.6</ele>
        <time>2019-01-31T17:43:55Z</time>
      </trkpt>
      <trkpt lat="41.97513" lon="0.96441">
        <ele>1019.2</ele>
        <time>2019-01-31T17:44:01Z</time>
      </trkpt>
      <trkpt lat="41.97512" lon="0.96455">
        <ele>1016.7</ele>
        <time>2019-01-31T17:44:07Z</time>
      </trkpt>
      <trkpt lat="41.97518" lon="0.96466">
        <ele>1015.4</ele>
        <time>2019-01-31T17:44:13Z</time>
      </trkpt>
      <trkpt lat="41.97524" lon="0.96476">
        <ele>1013.5</ele>
        <time>2019-01-31T17:44:18Z</time>
      </trkpt>
      <trkpt lat="41.97533" lon="0.96484">
        <ele>1012</ele>
        <time>2019-01-31T17:44:24Z</time>
      </trkpt>
      <trkpt lat="41.97539" lon="0.96495">
        <ele>1009.6</ele>
        <time>2019-01-31T17:44:29Z</time>
      </trkpt>
      <trkpt lat="41.97547" lon="0.96506">
        <ele>1007.6</ele>
        <time>2019-01-31T17:44:36Z</time>
      </trkpt>
      <trkpt lat="41.97555" lon="0.96517">
        <ele>1005.7</ele>
        <time>2019-01-31T17:44:43Z</time>
      </trkpt>
      <trkpt lat="41.97562" lon="0.96528">
        <ele>1002.9</ele>
        <time>2019-01-31T17:44:49Z</time>
      </trkpt>
      <trkpt lat="41.97568" lon="0.9654">
        <ele>1001</ele>
        <time>2019-01-31T17:44:55Z</time>
      </trkpt>
      <trkpt lat="41.97574" lon="0.96552">
        <ele>998.6</ele>
        <time>2019-01-31T17:45:01Z</time>
      </trkpt>
      <trkpt lat="41.97579" lon="0.96565">
        <ele>995.6</ele>
        <time>2019-01-31T17:45:07Z</time>
      </trkpt>
      <trkpt lat="41.97582" lon="0.96579">
        <ele>992.2</ele>
        <time>2019-01-31T17:45:13Z</time>
      </trkpt>
      <trkpt lat="41.97583" lon="0.96593">
        <ele>988.9</ele>
        <time>2019-01-31T17:45:19Z</time>
      </trkpt>
      <trkpt lat="41.97584" lon="0.96609">
        <ele>985.6</ele>
        <time>2019-01-31T17:45:26Z</time>
      </trkpt>
      <trkpt lat="41.97586" lon="0.96621">
        <ele>982.6</ele>
        <time>2019-01-31T17:45:32Z</time>
      </trkpt>
      <trkpt lat="41.97588" lon="0.96634">
        <ele>979.3</ele>
        <time>2019-01-31T17:45:38Z</time>
      </trkpt>
      <trkpt lat="41.97587" lon="0.96649">
        <ele>975.9</ele>
        <time>2019-01-31T17:45:44Z</time>
      </trkpt>
      <trkpt lat="41.97593" lon="0.9666">
        <ele>973.5</ele>
        <time>2019-01-31T17:45:50Z</time>
      </trkpt>
      <trkpt lat="41.97599" lon="0.96673">
        <ele>970.1</ele>
        <time>2019-01-31T17:45:56Z</time>
      </trkpt>
      <trkpt lat="41.97605" lon="0.96685">
        <ele>967.3</ele>
        <time>2019-01-31T17:46:02Z</time>
      </trkpt>
      <trkpt lat="41.97612" lon="0.96696">
        <ele>964.9</ele>
        <time>2019-01-31T17:46:08Z</time>
      </trkpt>
      <trkpt lat="41.97618" lon="0.9671">
        <ele>961.9</ele>
        <time>2019-01-31T17:46:15Z</time>
      </trkpt>
      <trkpt lat="41.97623" lon="0.96724">
        <ele>959.2</ele>
        <time>2019-01-31T17:46:22Z</time>
      </trkpt>
      <trkpt lat="41.97628" lon="0.96735">
        <ele>956.2</ele>
        <time>2019-01-31T17:46:27Z</time>
      </trkpt>
      <trkpt lat="41.97634" lon="0.96746">
        <ele>952.4</ele>
        <time>2019-01-31T17:46:33Z</time>
      </trkpt>
      <trkpt lat="41.97638" lon="0.96759">
        <ele>948.6</ele>
        <time>2019-01-31T17:46:39Z</time>
      </trkpt>
      <trkpt lat="41.97645" lon="0.96768">
        <ele>946.2</ele>
        <time>2019-01-31T17:46:44Z</time>
      </trkpt>
      <trkpt lat="41.97653" lon="0.96779">
        <ele>942.2</ele>
        <time>2019-01-31T17:46:51Z</time>
      </trkpt>
      <trkpt lat="41.97659" lon="0.96791">
        <ele>938.9</ele>
        <time>2019-01-31T17:46:57Z</time>
      </trkpt>
      <trkpt lat="41.97667" lon="0.96805">
        <ele>935.5</ele>
        <time>2019-01-31T17:47:05Z</time>
      </trkpt>
      <trkpt lat="41.97671" lon="0.96817">
        <ele>932.1</ele>
        <time>2019-01-31T17:47:10Z</time>
      </trkpt>
      <trkpt lat="41.97675" lon="0.96828">
        <ele>928.8</ele>
        <time>2019-01-31T17:47:16Z</time>
      </trkpt>
      <trkpt lat="41.97682" lon="0.96837">
        <ele>926.5</ele>
        <time>2019-01-31T17:47:21Z</time>
      </trkpt>
      <trkpt lat="41.97691" lon="0.96837">
        <ele>924</ele>
        <time>2019-01-31T17:47:26Z</time>
      </trkpt>
      <trkpt lat="41.97701" lon="0.96841">
        <ele>921.2</ele>
        <time>2019-01-31T17:47:32Z</time>
      </trkpt>
      <trkpt lat="41.97699" lon="0.96856">
        <ele>919.3</ele>
        <time>2019-01-31T17:47:38Z</time>
      </trkpt>
      <trkpt lat="41.97694" lon="0.96869">
        <ele>917.2</ele>
        <time>2019-01-31T17:47:44Z</time>
      </trkpt>
      <trkpt lat="41.97691" lon="0.96883">
        <ele>914.8</ele>
        <time>2019-01-31T17:47:51Z</time>
      </trkpt>
      <trkpt lat="41.97688" lon="0.96896">
        <ele>912</ele>
        <time>2019-01-31T17:47:56Z</time>
      </trkpt>
      <trkpt lat="41.9768" lon="0.96905">
        <ele>910.1</ele>
        <time>2019-01-31T17:48:02Z</time>
      </trkpt>
      <trkpt lat="41.9767" lon="0.96904">
        <ele>908.2</ele>
        <time>2019-01-31T17:48:08Z</time>
      </trkpt>
      <trkpt lat="41.9766" lon="0.96901">
        <ele>906.7</ele>
        <time>2019-01-31T17:48:14Z</time>
      </trkpt>
      <trkpt lat="41.97651" lon="0.96902">
        <ele>906.2</ele>
        <time>2019-01-31T17:48:19Z</time>
      </trkpt>
      <trkpt lat="41.9764" lon="0.96903">
        <ele>903.3</ele>
        <time>2019-01-31T17:48:26Z</time>
      </trkpt>
      <trkpt lat="41.9763" lon="0.96906">
        <ele>900</ele>
        <time>2019-01-31T17:48:31Z</time>
      </trkpt>
      <trkpt lat="41.97628" lon="0.96916">
        <ele>898.6</ele>
        <time>2019-01-31T17:48:36Z</time>
      </trkpt>
      <trkpt lat="41.97631" lon="0.96928">
        <ele>898</ele>
        <time>2019-01-31T17:48:41Z</time>
      </trkpt>
      <trkpt lat="41.97634" lon="0.9694">
        <ele>897.6</ele>
        <time>2019-01-31T17:48:46Z</time>
      </trkpt>
      <trkpt lat="41.97636" lon="0.96953">
        <ele>897.5</ele>
        <time>2019-01-31T17:48:52Z</time>
      </trkpt>
      <trkpt lat="41.97635" lon="0.96967">
        <ele>897.6</ele>
        <time>2019-01-31T17:48:58Z</time>
      </trkpt>
      <trkpt lat="41.97635" lon="0.96982">
        <ele>897.6</ele>
        <time>2019-01-31T17:49:05Z</time>
      </trkpt>
      <trkpt lat="41.97632" lon="0.96996">
        <ele>899.6</ele>
        <time>2019-01-31T17:49:11Z</time>
      </trkpt>
      <trkpt lat="41.97627" lon="0.9701">
        <ele>900.9</ele>
        <time>2019-01-31T17:49:17Z</time>
      </trkpt>
      <trkpt lat="41.97624" lon="0.97023">
        <ele>903.3</ele>
        <time>2019-01-31T17:49:23Z</time>
      </trkpt>
      <trkpt lat="41.97625" lon="0.97037">
        <ele>904.3</ele>
        <time>2019-01-31T17:49:29Z</time>
      </trkpt>
      <trkpt lat="41.97623" lon="0.97051">
        <ele>904.8</ele>
        <time>2019-01-31T17:49:35Z</time>
      </trkpt>
      <trkpt lat="41.97622" lon="0.97065">
        <ele>903.3</ele>
        <time>2019-01-31T17:49:41Z</time>
      </trkpt>
      <trkpt lat="41.97622" lon="0.97079">
        <ele>901.9</ele>
        <time>2019-01-31T17:49:47Z</time>
      </trkpt>
      <trkpt lat="41.97624" lon="0.97093">
        <ele>899.6</ele>
        <time>2019-01-31T17:49:53Z</time>
      </trkpt>
      <trkpt lat="41.97624" lon="0.97106">
        <ele>898</ele>
        <time>2019-01-31T17:49:59Z</time>
      </trkpt>
      <trkpt lat="41.97623" lon="0.97121">
        <ele>895.6</ele>
        <time>2019-01-31T17:50:05Z</time>
      </trkpt>
      <trkpt lat="41.97624" lon="0.97134">
        <ele>893.8</ele>
        <time>2019-01-31T17:50:10Z</time>
      </trkpt>
      <trkpt lat="41.97624" lon="0.97148">
        <ele>891.4</ele>
        <time>2019-01-31T17:50:16Z</time>
      </trkpt>
      <trkpt lat="41.97623" lon="0.97164">
        <ele>888.4</ele>
        <time>2019-01-31T17:50:23Z</time>
      </trkpt>
      <trkpt lat="41.97624" lon="0.97178">
        <ele>885.5</ele>
        <time>2019-01-31T17:50:29Z</time>
      </trkpt>
      <trkpt lat="41.97624" lon="0.97192">
        <ele>883.1</ele>
        <time>2019-01-31T17:50:35Z</time>
      </trkpt>
      <trkpt lat="41.97623" lon="0.97207">
        <ele>880.2</ele>
        <time>2019-01-31T17:50:42Z</time>
      </trkpt>
      <trkpt lat="41.9762" lon="0.97222">
        <ele>877.8</ele>
        <time>2019-01-31T17:50:48Z</time>
      </trkpt>
      <trkpt lat="41.97617" lon="0.97237">
        <ele>875.9</ele>
        <time>2019-01-31T17:50:55Z</time>
      </trkpt>
      <trkpt lat="41.97613" lon="0.9725">
        <ele>873.5</ele>
        <time>2019-01-31T17:51:01Z</time>
      </trkpt>
      <trkpt lat="41.97608" lon="0.97263">
        <ele>871.7</ele>
        <time>2019-01-31T17:51:07Z</time>
      </trkpt>
      <trkpt lat="41.97604" lon="0.97278">
        <ele>869.8</ele>
        <time>2019-01-31T17:51:14Z</time>
      </trkpt>
      <trkpt lat="41.97599" lon="0.97292">
        <ele>867.4</ele>
        <time>2019-01-31T17:51:20Z</time>
      </trkpt>
      <trkpt lat="41.97596" lon="0.97305">
        <ele>864.5</ele>
        <time>2019-01-31T17:51:26Z</time>
      </trkpt>
      <trkpt lat="41.976" lon="0.97313">
        <ele>862.5</ele>
        <time>2019-01-31T17:51:30Z</time>
      </trkpt>
      <trkpt lat="41.97609" lon="0.97311">
        <ele>860.1</ele>
        <time>2019-01-31T17:51:36Z</time>
      </trkpt>
      <trkpt lat="41.97619" lon="0.97309">
        <ele>858.7</ele>
        <time>2019-01-31T17:51:41Z</time>
      </trkpt>
      <trkpt lat="41.97628" lon="0.97305">
        <ele>856.2</ele>
        <time>2019-01-31T17:51:47Z</time>
      </trkpt>
      <trkpt lat="41.9764" lon="0.97302">
        <ele>854.8</ele>
        <time>2019-01-31T17:51:54Z</time>
      </trkpt>
      <trkpt lat="41.97651" lon="0.973">
        <ele>852.8</ele>
        <time>2019-01-31T17:52:00Z</time>
      </trkpt>
      <trkpt lat="41.97662" lon="0.973">
        <ele>850</ele>
        <time>2019-01-31T17:52:06Z</time>
      </trkpt>
      <trkpt lat="41.97672" lon="0.97301">
        <ele>848</ele>
        <time>2019-01-31T17:52:12Z</time>
      </trkpt>
      <trkpt lat="41.97682" lon="0.973">
        <ele>845.6</ele>
        <time>2019-01-31T17:52:18Z</time>
      </trkpt>
      <trkpt lat="41.97694" lon="0.97302">
        <ele>842.7</ele>
        <time>2019-01-31T17:52:25Z</time>
      </trkpt>
      <trkpt lat="41.97705" lon="0.973">
        <ele>841.4</ele>
        <time>2019-01-31T17:52:31Z</time>
      </trkpt>
      <trkpt lat="41.97715" lon="0.97298">
        <ele>840.4</ele>
        <time>2019-01-31T17:52:37Z</time>
      </trkpt>
      <trkpt lat="41.97726" lon="0.97296">
        <ele>839.5</ele>
        <time>2019-01-31T17:52:43Z</time>
      </trkpt>
      <trkpt lat="41.97736" lon="0.97292">
        <ele>838.4</ele>
        <time>2019-01-31T17:52:49Z</time>
      </trkpt>
      <trkpt lat="41.97745" lon="0.97287">
        <ele>837.1</ele>
        <time>2019-01-31T17:52:55Z</time>
      </trkpt>
      <trkpt lat="41.97755" lon="0.97281">
        <ele>835.5</ele>
        <time>2019-01-31T17:53:01Z</time>
      </trkpt>
      <trkpt lat="41.97765" lon="0.97275">
        <ele>833.6</ele>
        <time>2019-01-31T17:53:07Z</time>
      </trkpt>
      <trkpt lat="41.97773" lon="0.97269">
        <ele>832.6</ele>
        <time>2019-01-31T17:53:13Z</time>
      </trkpt>
      <trkpt lat="41.97782" lon="0.97261">
        <ele>831.3</ele>
        <time>2019-01-31T17:53:18Z</time>
      </trkpt>
      <trkpt lat="41.97791" lon="0.97257">
        <ele>829.3</ele>
        <time>2019-01-31T17:53:24Z</time>
      </trkpt>
      <trkpt lat="41.97798" lon="0.97265">
        <ele>827.5</ele>
        <time>2019-01-31T17:53:29Z</time>
      </trkpt>
      <trkpt lat="41.97797" lon="0.97278">
        <ele>826</ele>
        <time>2019-01-31T17:53:35Z</time>
      </trkpt>
      <trkpt lat="41.97794" lon="0.97291">
        <ele>824</ele>
        <time>2019-01-31T17:53:41Z</time>
      </trkpt>
      <trkpt lat="41.97789" lon="0.97304">
        <ele>822.6</ele>
        <time>2019-01-31T17:53:47Z</time>
      </trkpt>
      <trkpt lat="41.97788" lon="0.97318">
        <ele>820.7</ele>
        <time>2019-01-31T17:53:53Z</time>
      </trkpt>
      <trkpt lat="41.97788" lon="0.97333">
        <ele>818.2</ele>
        <time>2019-01-31T17:53:59Z</time>
      </trkpt>
      <trkpt lat="41.97786" lon="0.97348">
        <ele>816.4</ele>
        <time>2019-01-31T17:54:06Z</time>
      </trkpt>
      <trkpt lat="41.97783" lon="0.97364">
        <ele>814.4</ele>
        <time>2019-01-31T17:54:13Z</time>
      </trkpt>
      <trkpt lat="41.97779" lon="0.97379">
        <ele>812.9</ele>
        <time>2019-01-31T17:54:19Z</time>
      </trkpt>
      <trkpt lat="41.97775" lon="0.97394">
        <ele>810.2</ele>
        <time>2019-01-31T17:54:26Z</time>
      </trkpt>
      <trkpt lat="41.97772" lon="0.97406">
        <ele>808.1</ele>
        <time>2019-01-31T17:54:32Z</time>
      </trkpt>
      <trkpt lat="41.97769" lon="0.9742">
        <ele>805.8</ele>
        <time>2019-01-31T17:54:38Z</time>
      </trkpt>
      <trkpt lat="41.97763" lon="0.97432">
        <ele>805.2</ele>
        <time>2019-01-31T17:54:44Z</time>
      </trkpt>
      <trkpt lat="41.97757" lon="0.97443">
        <ele>804.9</ele>
        <time>2019-01-31T17:54:50Z</time>
      </trkpt>
      <trkpt lat="41.97746" lon="0.97448">
        <ele>804.8</ele>
        <time>2019-01-31T17:54:56Z</time>
      </trkpt>
      <trkpt lat="41.97736" lon="0.97455">
        <ele>806.8</ele>
        <time>2019-01-31T17:55:03Z</time>
      </trkpt>
      <trkpt lat="41.97731" lon="0.97469">
        <ele>803.3</ele>
        <time>2019-01-31T17:55:09Z</time>
      </trkpt>
      <trkpt lat="41.97727" lon="0.97481">
        <ele>802</ele>
        <time>2019-01-31T17:55:15Z</time>
      </trkpt>
      <trkpt lat="41.97719" lon="0.97489">
        <ele>802</ele>
        <time>2019-01-31T17:55:21Z</time>
      </trkpt>
      <trkpt lat="41.9771" lon="0.975">
        <ele>801.9</ele>
        <time>2019-01-31T17:55:28Z</time>
      </trkpt>
      <trkpt lat="41.97702" lon="0.97509">
        <ele>801.4</ele>
        <time>2019-01-31T17:55:34Z</time>
      </trkpt>
      <trkpt lat="41.97693" lon="0.9752">
        <ele>800.4</ele>
        <time>2019-01-31T17:55:41Z</time>
      </trkpt>
      <trkpt lat="41.97685" lon="0.97531">
        <ele>800.1</ele>
        <time>2019-01-31T17:55:47Z</time>
      </trkpt>
      <trkpt lat="41.97679" lon="0.97543">
        <ele>800</ele>
        <time>2019-01-31T17:55:53Z</time>
      </trkpt>
      <trkpt lat="41.97673" lon="0.97554">
        <ele>799</ele>
        <time>2019-01-31T17:55:59Z</time>
      </trkpt>
      <trkpt lat="41.97667" lon="0.97566">
        <ele>796.7</ele>
        <time>2019-01-31T17:56:06Z</time>
      </trkpt>
      <trkpt lat="41.97662" lon="0.9758">
        <ele>794.7</ele>
        <time>2019-01-31T17:56:12Z</time>
      </trkpt>
      <trkpt lat="41.97655" lon="0.97594">
        <ele>792.7</ele>
        <time>2019-01-31T17:56:19Z</time>
      </trkpt>
      <trkpt lat="41.97648" lon="0.97607">
        <ele>790.8</ele>
        <time>2019-01-31T17:56:26Z</time>
      </trkpt>
      <trkpt lat="41.97637" lon="0.97613">
        <ele>790.4</ele>
        <time>2019-01-31T17:56:33Z</time>
      </trkpt>
      <trkpt lat="41.97624" lon="0.97612">
        <ele>790</ele>
        <time>2019-01-31T17:56:40Z</time>
      </trkpt>
      <trkpt lat="41.97614" lon="0.97611">
        <ele>788.4</ele>
        <time>2019-01-31T17:56:46Z</time>
      </trkpt>
      <trkpt lat="41.97617" lon="0.97622">
        <ele>786</ele>
        <time>2019-01-31T17:56:51Z</time>
      </trkpt>
      <trkpt lat="41.97618" lon="0.97635">
        <ele>782.7</ele>
        <time>2019-01-31T17:56:56Z</time>
      </trkpt>
      <trkpt lat="41.97622" lon="0.97647">
        <ele>781.2</ele>
        <time>2019-01-31T17:57:02Z</time>
      </trkpt>
      <trkpt lat="41.97621" lon="0.97662">
        <ele>779.4</ele>
        <time>2019-01-31T17:57:08Z</time>
      </trkpt>
      <trkpt lat="41.97618" lon="0.97676">
        <ele>778.9</ele>
        <time>2019-01-31T17:57:14Z</time>
      </trkpt>
      <trkpt lat="41.97617" lon="0.97689">
        <ele>777.4</ele>
        <time>2019-01-31T17:57:20Z</time>
      </trkpt>
      <trkpt lat="41.97621" lon="0.97702">
        <ele>776</ele>
        <time>2019-01-31T17:57:26Z</time>
      </trkpt>
      <trkpt lat="41.97621" lon="0.97716">
        <ele>773.6</ele>
        <time>2019-01-31T17:57:32Z</time>
      </trkpt>
      <trkpt lat="41.97616" lon="0.97727">
        <ele>772.2</ele>
        <time>2019-01-31T17:57:38Z</time>
      </trkpt>
      <trkpt lat="41.97613" lon="0.9774">
        <ele>770.2</ele>
        <time>2019-01-31T17:57:43Z</time>
      </trkpt>
      <trkpt lat="41.97611" lon="0.97753">
        <ele>769.8</ele>
        <time>2019-01-31T17:57:49Z</time>
      </trkpt>
      <trkpt lat="41.97612" lon="0.97765">
        <ele>769.7</ele>
        <time>2019-01-31T17:57:54Z</time>
      </trkpt>
      <trkpt lat="41.97618" lon="0.97774">
        <ele>771.6</ele>
        <time>2019-01-31T17:57:59Z</time>
      </trkpt>
      <trkpt lat="41.97624" lon="0.97784">
        <ele>773.1</ele>
        <time>2019-01-31T17:58:05Z</time>
      </trkpt>
      <trkpt lat="41.97627" lon="0.97799">
        <ele>774.1</ele>
        <time>2019-01-31T17:58:11Z</time>
      </trkpt>
      <trkpt lat="41.9763" lon="0.97812">
        <ele>775</ele>
        <time>2019-01-31T17:58:17Z</time>
      </trkpt>
      <trkpt lat="41.97631" lon="0.97825">
        <ele>775.9</ele>
        <time>2019-01-31T17:58:22Z</time>
      </trkpt>
      <trkpt lat="41.97634" lon="0.97837">
        <ele>776</ele>
        <time>2019-01-31T17:58:28Z</time>
      </trkpt>
      <trkpt lat="41.97639" lon="0.9785">
        <ele>776</ele>
        <time>2019-01-31T17:58:34Z</time>
      </trkpt>
      <trkpt lat="41.97642" lon="0.97862">
        <ele>776.9</ele>
        <time>2019-01-31T17:58:40Z</time>
      </trkpt>
      <trkpt lat="41.97647" lon="0.97873">
        <ele>778.4</ele>
        <time>2019-01-31T17:58:45Z</time>
      </trkpt>
      <trkpt lat="41.97655" lon="0.9788">
        <ele>778.4</ele>
        <time>2019-01-31T17:58:51Z</time>
      </trkpt>
      <trkpt lat="41.97663" lon="0.97886">
        <ele>779.4</ele>
        <time>2019-01-31T17:58:56Z</time>
      </trkpt>
      <trkpt lat="41.97671" lon="0.97891">
        <ele>780.3</ele>
        <time>2019-01-31T17:59:01Z</time>
      </trkpt>
      <trkpt lat="41.97667" lon="0.9789">
        <ele>785.1</ele>
        <time>2019-01-31T17:59:03Z</time>
      </trkpt>
      <trkpt lat="41.97671" lon="0.97894">
        <ele>787.6</ele>
        <time>2019-01-31T17:59:06Z</time>
      </trkpt>
      <trkpt lat="41.97681" lon="0.97914">
        <ele>787.5</ele>
        <time>2019-01-31T17:59:16Z</time>
      </trkpt>
      <trkpt lat="41.97688" lon="0.97933">
        <ele>784.2</ele>
        <time>2019-01-31T17:59:25Z</time>
      </trkpt>
      <trkpt lat="41.97689" lon="0.97934">
        <ele>790.4</ele>
        <time>2019-01-31T17:59:26Z</time>
      </trkpt>
      <trkpt lat="41.97692" lon="0.97943">
        <ele>789</ele>
        <time>2019-01-31T17:59:30Z</time>
      </trkpt>
      <trkpt lat="41.97694" lon="0.97949">
        <ele>791.8</ele>
        <time>2019-01-31T17:59:33Z</time>
      </trkpt>
      <trkpt lat="41.97694" lon="0.97951">
        <ele>791.8</ele>
        <time>2019-01-31T17:59:34Z</time>
      </trkpt>
      <trkpt lat="41.97694" lon="0.97953">
        <ele>792.4</ele>
        <time>2019-01-31T17:59:35Z</time>
      </trkpt>
      <trkpt lat="41.97696" lon="0.97961">
        <ele>792.7</ele>
        <time>2019-01-31T17:59:38Z</time>
      </trkpt>
      <trkpt lat="41.977" lon="0.97971">
        <ele>794.8</ele>
        <time>2019-01-31T17:59:43Z</time>
      </trkpt>
      <trkpt lat="41.9771" lon="0.97989">
        <ele>798</ele>
        <time>2019-01-31T17:59:52Z</time>
      </trkpt>
      <trkpt lat="41.97712" lon="0.97995">
        <ele>797.6</ele>
        <time>2019-01-31T17:59:55Z</time>
      </trkpt>
      <trkpt lat="41.97718" lon="0.98009">
        <ele>800.1</ele>
        <time>2019-01-31T18:00:02Z</time>
      </trkpt>
      <trkpt lat="41.97721" lon="0.98013">
        <ele>800.1</ele>
        <time>2019-01-31T18:00:04Z</time>
      </trkpt>
      <trkpt lat="41.97722" lon="0.98016">
        <ele>799</ele>
        <time>2019-01-31T18:00:06Z</time>
      </trkpt>
      <trkpt lat="41.97727" lon="0.98034">
        <ele>804.4</ele>
        <time>2019-01-31T18:00:14Z</time>
      </trkpt>
      <trkpt lat="41.97732" lon="0.9805">
        <ele>804.4</ele>
        <time>2019-01-31T18:00:22Z</time>
      </trkpt>
      <trkpt lat="41.97733" lon="0.9806">
        <ele>807.3</ele>
        <time>2019-01-31T18:00:26Z</time>
      </trkpt>
      <trkpt lat="41.97733" lon="0.98066">
        <ele>807.3</ele>
        <time>2019-01-31T18:00:28Z</time>
      </trkpt>
      <trkpt lat="41.97734" lon="0.98067">
        <ele>807.3</ele>
        <time>2019-01-31T18:00:29Z</time>
      </trkpt>
      <trkpt lat="41.97734" lon="0.98073">
        <ele>808.1</ele>
        <time>2019-01-31T18:00:31Z</time>
      </trkpt>
      <trkpt lat="41.97737" lon="0.98095">
        <ele>807.7</ele>
        <time>2019-01-31T18:00:41Z</time>
      </trkpt>
      <trkpt lat="41.97741" lon="0.98103">
        <ele>807.6</ele>
        <time>2019-01-31T18:00:45Z</time>
      </trkpt>
      <trkpt lat="41.97747" lon="0.98127">
        <ele>806.7</ele>
        <time>2019-01-31T18:00:56Z</time>
      </trkpt>
      <trkpt lat="41.97749" lon="0.98156">
        <ele>806.7</ele>
        <time>2019-01-31T18:01:08Z</time>
      </trkpt>
      <trkpt lat="41.97751" lon="0.98179">
        <ele>805.3</ele>
        <time>2019-01-31T18:01:18Z</time>
      </trkpt>
      <trkpt lat="41.97755" lon="0.98198">
        <ele>803.8</ele>
        <time>2019-01-31T18:01:26Z</time>
      </trkpt>
      <trkpt lat="41.97764" lon="0.98217">
        <ele>801.9</ele>
        <time>2019-01-31T18:01:36Z</time>
      </trkpt>
      <trkpt lat="41.97767" lon="0.98217">
        <ele>801.9</ele>
        <time>2019-01-31T18:01:38Z</time>
      </trkpt>
      <trkpt lat="41.97774" lon="0.98219">
        <ele>800.4</ele>
        <time>2019-01-31T18:01:42Z</time>
      </trkpt>
      <trkpt lat="41.97797" lon="0.98218">
        <ele>798.1</ele>
        <time>2019-01-31T18:01:55Z</time>
      </trkpt>
      <trkpt lat="41.97811" lon="0.98213">
        <ele>796.1</ele>
        <time>2019-01-31T18:02:03Z</time>
      </trkpt>
      <trkpt lat="41.97828" lon="0.98207">
        <ele>793.2</ele>
        <time>2019-01-31T18:02:13Z</time>
      </trkpt>
      <trkpt lat="41.97844" lon="0.98199">
        <ele>792.7</ele>
        <time>2019-01-31T18:02:23Z</time>
      </trkpt>
      <trkpt lat="41.9786" lon="0.98195">
        <ele>790.8</ele>
        <time>2019-01-31T18:02:32Z</time>
      </trkpt>
      <trkpt lat="41.97862" lon="0.98195">
        <ele>790.8</ele>
        <time>2019-01-31T18:02:33Z</time>
      </trkpt>
      <trkpt lat="41.97865" lon="0.98205">
        <ele>788</ele>
        <time>2019-01-31T18:02:38Z</time>
      </trkpt>
      <trkpt lat="41.97864" lon="0.98217">
        <ele>787.6</ele>
        <time>2019-01-31T18:02:43Z</time>
      </trkpt>
      <trkpt lat="41.97865" lon="0.98227">
        <ele>787.6</ele>
        <time>2019-01-31T18:02:48Z</time>
      </trkpt>
      <trkpt lat="41.97867" lon="0.98231">
        <ele>786.5</ele>
        <time>2019-01-31T18:02:50Z</time>
      </trkpt>
      <trkpt lat="41.9787" lon="0.98236">
        <ele>788</ele>
        <time>2019-01-31T18:02:53Z</time>
      </trkpt>
      <trkpt lat="41.97875" lon="0.98243">
        <ele>789.5</ele>
        <time>2019-01-31T18:02:56Z</time>
      </trkpt>
      <trkpt lat="41.97882" lon="0.98251">
        <ele>789.5</ele>
        <time>2019-01-31T18:03:02Z</time>
      </trkpt>
      <trkpt lat="41.97891" lon="0.98262">
        <ele>790.3</ele>
        <time>2019-01-31T18:03:09Z</time>
      </trkpt>
      <trkpt lat="41.97897" lon="0.98268">
        <ele>789</ele>
        <time>2019-01-31T18:03:13Z</time>
      </trkpt>
      <trkpt lat="41.97898" lon="0.98268">
        <ele>790.4</ele>
        <time>2019-01-31T18:03:14Z</time>
      </trkpt>
      <trkpt lat="41.97904" lon="0.98276">
        <ele>789.4</ele>
        <time>2019-01-31T18:03:19Z</time>
      </trkpt>
      <trkpt lat="41.97909" lon="0.98279">
        <ele>790.8</ele>
        <time>2019-01-31T18:03:21Z</time>
      </trkpt>
      <trkpt lat="41.97912" lon="0.98281">
        <ele>791.4</ele>
        <time>2019-01-31T18:03:23Z</time>
      </trkpt>
      <trkpt lat="41.97922" lon="0.98288">
        <ele>793.8</ele>
        <time>2019-01-31T18:03:30Z</time>
      </trkpt>
      <trkpt lat="41.97925" lon="0.98291">
        <ele>790.4</ele>
        <time>2019-01-31T18:03:32Z</time>
      </trkpt>
      <trkpt lat="41.97941" lon="0.98297">
        <ele>792.7</ele>
        <time>2019-01-31T18:03:41Z</time>
      </trkpt>
      <trkpt lat="41.97949" lon="0.98299">
        <ele>796.7</ele>
        <time>2019-01-31T18:03:46Z</time>
      </trkpt>
      <trkpt lat="41.9795" lon="0.983">
        <ele>796.7</ele>
        <time>2019-01-31T18:03:47Z</time>
      </trkpt>
      <trkpt lat="41.97951" lon="0.983">
        <ele>792.3</ele>
        <time>2019-01-31T18:03:48Z</time>
      </trkpt>
      <trkpt lat="41.97953" lon="0.983">
        <ele>796.2</ele>
        <time>2019-01-31T18:03:48Z</time>
      </trkpt>
      <trkpt lat="41.97957" lon="0.98301">
        <ele>799.1</ele>
        <time>2019-01-31T18:03:51Z</time>
      </trkpt>
      <trkpt lat="41.9796" lon="0.98302">
        <ele>795.6</ele>
        <time>2019-01-31T18:03:53Z</time>
      </trkpt>
      <trkpt lat="41.97962" lon="0.98304">
        <ele>799</ele>
        <time>2019-01-31T18:03:54Z</time>
      </trkpt>
      <trkpt lat="41.97981" lon="0.9831">
        <ele>800</ele>
        <time>2019-01-31T18:04:05Z</time>
      </trkpt>
      <trkpt lat="41.97986" lon="0.98312">
        <ele>799.1</ele>
        <time>2019-01-31T18:04:08Z</time>
      </trkpt>
      <trkpt lat="41.97992" lon="0.98314">
        <ele>802.4</ele>
        <time>2019-01-31T18:04:12Z</time>
      </trkpt>
      <trkpt lat="41.97994" lon="0.98315">
        <ele>798.6</ele>
        <time>2019-01-31T18:04:13Z</time>
      </trkpt>
      <trkpt lat="41.97998" lon="0.98316">
        <ele>803.4</ele>
        <time>2019-01-31T18:04:15Z</time>
      </trkpt>
      <trkpt lat="41.98" lon="0.98317">
        <ele>800.1</ele>
        <time>2019-01-31T18:04:17Z</time>
      </trkpt>
      <trkpt lat="41.98006" lon="0.98319">
        <ele>803.4</ele>
        <time>2019-01-31T18:04:20Z</time>
      </trkpt>
      <trkpt lat="41.98008" lon="0.9832">
        <ele>800.5</ele>
        <time>2019-01-31T18:04:21Z</time>
      </trkpt>
      <trkpt lat="41.98023" lon="0.98324">
        <ele>801.9</ele>
        <time>2019-01-31T18:04:30Z</time>
      </trkpt>
      <trkpt lat="41.98026" lon="0.98324">
        <ele>805.2</ele>
        <time>2019-01-31T18:04:31Z</time>
      </trkpt>
      <trkpt lat="41.98028" lon="0.98324">
        <ele>802.5</ele>
        <time>2019-01-31T18:04:33Z</time>
      </trkpt>
      <trkpt lat="41.98031" lon="0.98324">
        <ele>805.2</ele>
        <time>2019-01-31T18:04:34Z</time>
      </trkpt>
      <trkpt lat="41.98037" lon="0.98325">
        <ele>806.7</ele>
        <time>2019-01-31T18:04:38Z</time>
      </trkpt>
      <trkpt lat="41.9805" lon="0.98324">
        <ele>810.2</ele>
        <time>2019-01-31T18:04:45Z</time>
      </trkpt>
      <trkpt lat="41.98051" lon="0.98324">
        <ele>807.2</ele>
        <time>2019-01-31T18:04:46Z</time>
      </trkpt>
      <trkpt lat="41.98054" lon="0.98324">
        <ele>810.6</ele>
        <time>2019-01-31T18:04:48Z</time>
      </trkpt>
      <trkpt lat="41.98071" lon="0.98328">
        <ele>811.6</ele>
        <time>2019-01-31T18:04:57Z</time>
      </trkpt>
      <trkpt lat="41.98084" lon="0.98332">
        <ele>812.9</ele>
        <time>2019-01-31T18:05:05Z</time>
      </trkpt>
      <trkpt lat="41.98097" lon="0.98337">
        <ele>815.3</ele>
        <time>2019-01-31T18:05:13Z</time>
      </trkpt>
      <trkpt lat="41.98114" lon="0.98342">
        <ele>817.8</ele>
        <time>2019-01-31T18:05:23Z</time>
      </trkpt>
      <trkpt lat="41.98117" lon="0.98342">
        <ele>815</ele>
        <time>2019-01-31T18:05:25Z</time>
      </trkpt>
      <trkpt lat="41.98119" lon="0.98342">
        <ele>818.3</ele>
        <time>2019-01-31T18:05:25Z</time>
      </trkpt>
      <trkpt lat="41.98123" lon="0.98342">
        <ele>817.8</ele>
        <time>2019-01-31T18:05:28Z</time>
      </trkpt>
      <trkpt lat="41.98127" lon="0.98343">
        <ele>820.1</ele>
        <time>2019-01-31T18:05:30Z</time>
      </trkpt>
      <trkpt lat="41.98132" lon="0.98345">
        <ele>822.6</ele>
        <time>2019-01-31T18:05:33Z</time>
      </trkpt>
      <trkpt lat="41.98136" lon="0.98346">
        <ele>821.2</ele>
        <time>2019-01-31T18:05:36Z</time>
      </trkpt>
      <trkpt lat="41.98141" lon="0.98346">
        <ele>823.5</ele>
        <time>2019-01-31T18:05:39Z</time>
      </trkpt>
      <trkpt lat="41.98144" lon="0.98345">
        <ele>824</ele>
        <time>2019-01-31T18:05:40Z</time>
      </trkpt>
      <trkpt lat="41.98147" lon="0.98346">
        <ele>820.1</ele>
        <time>2019-01-31T18:05:42Z</time>
      </trkpt>
      <trkpt lat="41.98147" lon="0.98347">
        <ele>823</ele>
        <time>2019-01-31T18:05:42Z</time>
      </trkpt>
      <trkpt lat="41.98154" lon="0.9835">
        <ele>822.1</ele>
        <time>2019-01-31T18:05:46Z</time>
      </trkpt>
      <trkpt lat="41.98176" lon="0.98358">
        <ele>827</ele>
        <time>2019-01-31T18:05:59Z</time>
      </trkpt>
      <trkpt lat="41.98192" lon="0.98363">
        <ele>828.9</ele>
        <time>2019-01-31T18:06:09Z</time>
      </trkpt>
      <trkpt lat="41.98207" lon="0.98371">
        <ele>832.7</ele>
        <time>2019-01-31T18:06:18Z</time>
      </trkpt>
      <trkpt lat="41.98222" lon="0.98372">
        <ele>834.2</ele>
        <time>2019-01-31T18:06:27Z</time>
      </trkpt>
      <trkpt lat="41.98229" lon="0.98372">
        <ele>837</ele>
        <time>2019-01-31T18:06:31Z</time>
      </trkpt>
      <trkpt lat="41.9825" lon="0.98377">
        <ele>836.5</ele>
        <time>2019-01-31T18:06:42Z</time>
      </trkpt>
      <trkpt lat="41.98253" lon="0.98379">
        <ele>839.5</ele>
        <time>2019-01-31T18:06:45Z</time>
      </trkpt>
      <trkpt lat="41.9827" lon="0.98391">
        <ele>839.9</ele>
        <time>2019-01-31T18:06:55Z</time>
      </trkpt>
      <trkpt lat="41.98296" lon="0.98408">
        <ele>837.9</ele>
        <time>2019-01-31T18:07:12Z</time>
      </trkpt>
      <trkpt lat="41.98299" lon="0.9841">
        <ele>838</ele>
        <time>2019-01-31T18:07:14Z</time>
      </trkpt>
      <trkpt lat="41.98309" lon="0.98411">
        <ele>838</ele>
        <time>2019-01-31T18:07:20Z</time>
      </trkpt>
      <trkpt lat="41.98314" lon="0.98412">
        <ele>837.6</ele>
        <time>2019-01-31T18:07:23Z</time>
      </trkpt>
      <trkpt lat="41.98327" lon="0.98418">
        <ele>836</ele>
        <time>2019-01-31T18:07:31Z</time>
      </trkpt>
      <trkpt lat="41.98327" lon="0.98424">
        <ele>834.1</ele>
        <time>2019-01-31T18:07:33Z</time>
      </trkpt>
      <trkpt lat="41.98325" lon="0.98439">
        <ele>831.2</ele>
        <time>2019-01-31T18:07:39Z</time>
      </trkpt>
      <trkpt lat="41.98325" lon="0.9844">
        <ele>831.3</ele>
        <time>2019-01-31T18:07:40Z</time>
      </trkpt>
      <trkpt lat="41.98328" lon="0.98445">
        <ele>829.3</ele>
        <time>2019-01-31T18:07:43Z</time>
      </trkpt>
      <trkpt lat="41.98331" lon="0.98447">
        <ele>828.8</ele>
        <time>2019-01-31T18:07:45Z</time>
      </trkpt>
      <trkpt lat="41.97628" lon="0.94035">
        <ele>1353.8</ele>
        <time>2019-01-31T19:48:44Z</time>
      </trkpt>
      <trkpt lat="41.97621" lon="0.94045">
        <ele>1352.8</ele>
        <time>2019-01-31T19:48:49Z</time>
      </trkpt>
      <trkpt lat="41.97615" lon="0.94056">
        <ele>1351.8</ele>
        <time>2019-01-31T19:48:55Z</time>
      </trkpt>
      <trkpt lat="41.9761" lon="0.94066">
        <ele>1351.3</ele>
        <time>2019-01-31T19:49:01Z</time>
      </trkpt>
      <trkpt lat="41.97605" lon="0.94077">
        <ele>1350.3</ele>
        <time>2019-01-31T19:49:06Z</time>
      </trkpt>
      <trkpt lat="41.97601" lon="0.9409">
        <ele>1349.4</ele>
        <time>2019-01-31T19:49:12Z</time>
      </trkpt>
      <trkpt lat="41.97597" lon="0.94103">
        <ele>1348.5</ele>
        <time>2019-01-31T19:49:18Z</time>
      </trkpt>
      <trkpt lat="41.97594" lon="0.94115">
        <ele>1348.4</ele>
        <time>2019-01-31T19:49:23Z</time>
      </trkpt>
      <trkpt lat="41.97589" lon="0.94128">
        <ele>1346.6</ele>
        <time>2019-01-31T19:49:30Z</time>
      </trkpt>
      <trkpt lat="41.97586" lon="0.9414">
        <ele>1345.6</ele>
        <time>2019-01-31T19:49:35Z</time>
      </trkpt>
      <trkpt lat="41.97582" lon="0.94153">
        <ele>1344.5</ele>
        <time>2019-01-31T19:49:41Z</time>
      </trkpt>
      <trkpt lat="41.97577" lon="0.94168">
        <ele>1343.6</ele>
        <time>2019-01-31T19:49:48Z</time>
      </trkpt>
      <trkpt lat="41.97573" lon="0.94183">
        <ele>1342.6</ele>
        <time>2019-01-31T19:49:54Z</time>
      </trkpt>
      <trkpt lat="41.9757" lon="0.94194">
        <ele>1342.1</ele>
        <time>2019-01-31T19:50:00Z</time>
      </trkpt>
      <trkpt lat="41.97568" lon="0.94206">
        <ele>1341.7</ele>
        <time>2019-01-31T19:50:05Z</time>
      </trkpt>
      <trkpt lat="41.97565" lon="0.94218">
        <ele>1340.7</ele>
        <time>2019-01-31T19:50:10Z</time>
      </trkpt>
      <trkpt lat="41.97562" lon="0.94229">
        <ele>1339.8</ele>
        <time>2019-01-31T19:50:15Z</time>
      </trkpt>
      <trkpt lat="41.9756" lon="0.94244">
        <ele>1338.3</ele>
        <time>2019-01-31T19:50:21Z</time>
      </trkpt>
      <trkpt lat="41.97558" lon="0.94259">
        <ele>1337.4</ele>
        <time>2019-01-31T19:50:28Z</time>
      </trkpt>
      <trkpt lat="41.97555" lon="0.94274">
        <ele>1335.9</ele>
        <time>2019-01-31T19:50:35Z</time>
      </trkpt>
      <trkpt lat="41.97552" lon="0.94286">
        <ele>1334.9</ele>
        <time>2019-01-31T19:50:40Z</time>
      </trkpt>
      <trkpt lat="41.97547" lon="0.94296">
        <ele>1335</ele>
        <time>2019-01-31T19:50:45Z</time>
      </trkpt>
      <trkpt lat="41.97546" lon="0.94309">
        <ele>1335</ele>
        <time>2019-01-31T19:50:51Z</time>
      </trkpt>
      <trkpt lat="41.97542" lon="0.94321">
        <ele>1335</ele>
        <time>2019-01-31T19:50:56Z</time>
      </trkpt>
      <trkpt lat="41.97535" lon="0.9433">
        <ele>1334.9</ele>
        <time>2019-01-31T19:51:02Z</time>
      </trkpt>
      <trkpt lat="41.97527" lon="0.94338">
        <ele>1336.4</ele>
        <time>2019-01-31T19:51:07Z</time>
      </trkpt>
      <trkpt lat="41.9752" lon="0.94347">
        <ele>1337.4</ele>
        <time>2019-01-31T19:51:13Z</time>
      </trkpt>
      <trkpt lat="41.97513" lon="0.94357">
        <ele>1338.3</ele>
        <time>2019-01-31T19:51:19Z</time>
      </trkpt>
      <trkpt lat="41.97505" lon="0.94365">
        <ele>1338.9</ele>
        <time>2019-01-31T19:51:24Z</time>
      </trkpt>
      <trkpt lat="41.97497" lon="0.94373">
        <ele>1338.8</ele>
        <time>2019-01-31T19:51:30Z</time>
      </trkpt>
      <trkpt lat="41.97492" lon="0.94386">
        <ele>1338.9</ele>
        <time>2019-01-31T19:51:36Z</time>
      </trkpt>
      <trkpt lat="41.97493" lon="0.94399">
        <ele>1336.5</ele>
        <time>2019-01-31T19:51:42Z</time>
      </trkpt>
      <trkpt lat="41.97495" lon="0.94413">
        <ele>1334.6</ele>
        <time>2019-01-31T19:51:48Z</time>
      </trkpt>
      <trkpt lat="41.97496" lon="0.94426">
        <ele>1332.1</ele>
        <time>2019-01-31T19:51:54Z</time>
      </trkpt>
      <trkpt lat="41.97496" lon="0.94439">
        <ele>1330.1</ele>
        <time>2019-01-31T19:51:59Z</time>
      </trkpt>
      <trkpt lat="41.97496" lon="0.94452">
        <ele>1328.7</ele>
        <time>2019-01-31T19:52:05Z</time>
      </trkpt>
      <trkpt lat="41.97495" lon="0.94467">
        <ele>1326.8</ele>
        <time>2019-01-31T19:52:11Z</time>
      </trkpt>
      <trkpt lat="41.97493" lon="0.9448">
        <ele>1325.4</ele>
        <time>2019-01-31T19:52:17Z</time>
      </trkpt>
      <trkpt lat="41.97491" lon="0.94495">
        <ele>1324</ele>
        <time>2019-01-31T19:52:23Z</time>
      </trkpt>
      <trkpt lat="41.97488" lon="0.94507">
        <ele>1322.9</ele>
        <time>2019-01-31T19:52:29Z</time>
      </trkpt>
      <trkpt lat="41.97483" lon="0.9452">
        <ele>1321.6</ele>
        <time>2019-01-31T19:52:35Z</time>
      </trkpt>
      <trkpt lat="41.97477" lon="0.94533">
        <ele>1320.1</ele>
        <time>2019-01-31T19:52:41Z</time>
      </trkpt>
      <trkpt lat="41.9747" lon="0.94541">
        <ele>1319.2</ele>
        <time>2019-01-31T19:52:46Z</time>
      </trkpt>
      <trkpt lat="41.97463" lon="0.94549">
        <ele>1318.1</ele>
        <time>2019-01-31T19:52:52Z</time>
      </trkpt>
      <trkpt lat="41.97456" lon="0.94557">
        <ele>1317.7</ele>
        <time>2019-01-31T19:52:57Z</time>
      </trkpt>
      <trkpt lat="41.97449" lon="0.94565">
        <ele>1316.8</ele>
        <time>2019-01-31T19:53:02Z</time>
      </trkpt>
      <trkpt lat="41.97441" lon="0.94573">
        <ele>1315.7</ele>
        <time>2019-01-31T19:53:08Z</time>
      </trkpt>
      <trkpt lat="41.97434" lon="0.94581">
        <ele>1314.7</ele>
        <time>2019-01-31T19:53:13Z</time>
      </trkpt>
      <trkpt lat="41.97428" lon="0.94588">
        <ele>1314.4</ele>
        <time>2019-01-31T19:53:18Z</time>
      </trkpt>
      <trkpt lat="41.9742" lon="0.94597">
        <ele>1312.8</ele>
        <time>2019-01-31T19:53:24Z</time>
      </trkpt>
      <trkpt lat="41.97412" lon="0.94604">
        <ele>1311.9</ele>
        <time>2019-01-31T19:53:29Z</time>
      </trkpt>
      <trkpt lat="41.97404" lon="0.94612">
        <ele>1311</ele>
        <time>2019-01-31T19:53:35Z</time>
      </trkpt>
      <trkpt lat="41.97396" lon="0.94622">
        <ele>1310</ele>
        <time>2019-01-31T19:53:41Z</time>
      </trkpt>
      <trkpt lat="41.97389" lon="0.94633">
        <ele>1309.6</ele>
        <time>2019-01-31T19:53:47Z</time>
      </trkpt>
      <trkpt lat="41.97382" lon="0.94643">
        <ele>1308.6</ele>
        <time>2019-01-31T19:53:53Z</time>
      </trkpt>
      <trkpt lat="41.97373" lon="0.94651">
        <ele>1307.5</ele>
        <time>2019-01-31T19:53:59Z</time>
      </trkpt>
      <trkpt lat="41.97364" lon="0.94658">
        <ele>1306.6</ele>
        <time>2019-01-31T19:54:05Z</time>
      </trkpt>
      <trkpt lat="41.97356" lon="0.94667">
        <ele>1305.6</ele>
        <time>2019-01-31T19:54:11Z</time>
      </trkpt>
      <trkpt lat="41.97347" lon="0.94673">
        <ele>1305.1</ele>
        <time>2019-01-31T19:54:17Z</time>
      </trkpt>
      <trkpt lat="41.97338" lon="0.9468">
        <ele>1304.2</ele>
        <time>2019-01-31T19:54:23Z</time>
      </trkpt>
      <trkpt lat="41.97329" lon="0.94686">
        <ele>1302.7</ele>
        <time>2019-01-31T19:54:29Z</time>
      </trkpt>
      <trkpt lat="41.9732" lon="0.9469">
        <ele>1301.8</ele>
        <time>2019-01-31T19:54:34Z</time>
      </trkpt>
      <trkpt lat="41.9731" lon="0.94695">
        <ele>1300.9</ele>
        <time>2019-01-31T19:54:40Z</time>
      </trkpt>
      <trkpt lat="41.97302" lon="0.94699">
        <ele>1300.3</ele>
        <time>2019-01-31T19:54:45Z</time>
      </trkpt>
      <trkpt lat="41.97293" lon="0.94702">
        <ele>1300.4</ele>
        <time>2019-01-31T19:54:50Z</time>
      </trkpt>
      <trkpt lat="41.97285" lon="0.94704">
        <ele>1300.4</ele>
        <time>2019-01-31T19:54:55Z</time>
      </trkpt>
      <trkpt lat="41.97276" lon="0.94708">
        <ele>1300.3</ele>
        <time>2019-01-31T19:55:01Z</time>
      </trkpt>
      <trkpt lat="41.97266" lon="0.94711">
        <ele>1300.3</ele>
        <time>2019-01-31T19:55:06Z</time>
      </trkpt>
      <trkpt lat="41.97256" lon="0.94714">
        <ele>1300.3</ele>
        <time>2019-01-31T19:55:12Z</time>
      </trkpt>
      <trkpt lat="41.97246" lon="0.94716">
        <ele>1301.8</ele>
        <time>2019-01-31T19:55:18Z</time>
      </trkpt>
      <trkpt lat="41.97236" lon="0.9472">
        <ele>1302.3</ele>
        <time>2019-01-31T19:55:24Z</time>
      </trkpt>
      <trkpt lat="41.97226" lon="0.94726">
        <ele>1302.2</ele>
        <time>2019-01-31T19:55:30Z</time>
      </trkpt>
      <trkpt lat="41.97219" lon="0.94734">
        <ele>1302.3</ele>
        <time>2019-01-31T19:55:35Z</time>
      </trkpt>
      <trkpt lat="41.97213" lon="0.94744">
        <ele>1302.3</ele>
        <time>2019-01-31T19:55:41Z</time>
      </trkpt>
      <trkpt lat="41.9721" lon="0.94755">
        <ele>1301.4</ele>
        <time>2019-01-31T19:55:46Z</time>
      </trkpt>
      <trkpt lat="41.97207" lon="0.94766">
        <ele>1300.9</ele>
        <time>2019-01-31T19:55:51Z</time>
      </trkpt>
      <trkpt lat="41.97205" lon="0.94778">
        <ele>1299.9</ele>
        <time>2019-01-31T19:55:56Z</time>
      </trkpt>
      <trkpt lat="41.972" lon="0.94788">
        <ele>1299.5</ele>
        <time>2019-01-31T19:56:01Z</time>
      </trkpt>
      <trkpt lat="41.97199" lon="0.94799">
        <ele>1299.4</ele>
        <time>2019-01-31T19:56:06Z</time>
      </trkpt>
      <trkpt lat="41.97199" lon="0.94813">
        <ele>1299.4</ele>
        <time>2019-01-31T19:56:12Z</time>
      </trkpt>
      <trkpt lat="41.97199" lon="0.94826">
        <ele>1299.4</ele>
        <time>2019-01-31T19:56:17Z</time>
      </trkpt>
      <trkpt lat="41.97198" lon="0.94838">
        <ele>1299.5</ele>
        <time>2019-01-31T19:56:22Z</time>
      </trkpt>
      <trkpt lat="41.97197" lon="0.94851">
        <ele>1299.5</ele>
        <time>2019-01-31T19:56:28Z</time>
      </trkpt>
      <trkpt lat="41.97196" lon="0.94864">
        <ele>1299.5</ele>
        <time>2019-01-31T19:56:33Z</time>
      </trkpt>
      <trkpt lat="41.97194" lon="0.94877">
        <ele>1298.9</ele>
        <time>2019-01-31T19:56:39Z</time>
      </trkpt>
      <trkpt lat="41.97193" lon="0.94892">
        <ele>1298.9</ele>
        <time>2019-01-31T19:56:45Z</time>
      </trkpt>
      <trkpt lat="41.97192" lon="0.94906">
        <ele>1298.4</ele>
        <time>2019-01-31T19:56:52Z</time>
      </trkpt>
      <trkpt lat="41.97192" lon="0.94919">
        <ele>1297.5</ele>
        <time>2019-01-31T19:56:57Z</time>
      </trkpt>
      <trkpt lat="41.97191" lon="0.94933">
        <ele>1297.1</ele>
        <time>2019-01-31T19:57:03Z</time>
      </trkpt>
      <trkpt lat="41.97189" lon="0.94945">
        <ele>1296</ele>
        <time>2019-01-31T19:57:08Z</time>
      </trkpt>
      <trkpt lat="41.97188" lon="0.94959">
        <ele>1295</ele>
        <time>2019-01-31T19:57:14Z</time>
      </trkpt>
      <trkpt lat="41.97186" lon="0.94971">
        <ele>1294.6</ele>
        <time>2019-01-31T19:57:19Z</time>
      </trkpt>
      <trkpt lat="41.97184" lon="0.94984">
        <ele>1293.1</ele>
        <time>2019-01-31T19:57:25Z</time>
      </trkpt>
      <trkpt lat="41.97182" lon="0.94997">
        <ele>1291.7</ele>
        <time>2019-01-31T19:57:31Z</time>
      </trkpt>
      <trkpt lat="41.9718" lon="0.9501">
        <ele>1291.3</ele>
        <time>2019-01-31T19:57:36Z</time>
      </trkpt>
      <trkpt lat="41.97179" lon="0.95022">
        <ele>1289.3</ele>
        <time>2019-01-31T19:57:42Z</time>
      </trkpt>
      <trkpt lat="41.97177" lon="0.95035">
        <ele>1288.9</ele>
        <time>2019-01-31T19:57:47Z</time>
      </trkpt>
      <trkpt lat="41.97175" lon="0.95048">
        <ele>1287</ele>
        <time>2019-01-31T19:57:53Z</time>
      </trkpt>
      <trkpt lat="41.97172" lon="0.95061">
        <ele>1285.5</ele>
        <time>2019-01-31T19:57:58Z</time>
      </trkpt>
      <trkpt lat="41.97169" lon="0.95073">
        <ele>1284</ele>
        <time>2019-01-31T19:58:04Z</time>
      </trkpt>
      <trkpt lat="41.97165" lon="0.95086">
        <ele>1282.6</ele>
        <time>2019-01-31T19:58:10Z</time>
      </trkpt>
      <trkpt lat="41.97161" lon="0.95099">
        <ele>1281.1</ele>
        <time>2019-01-31T19:58:16Z</time>
      </trkpt>
      <trkpt lat="41.97158" lon="0.95111">
        <ele>1279.2</ele>
        <time>2019-01-31T19:58:21Z</time>
      </trkpt>
      <trkpt lat="41.97156" lon="0.95124">
        <ele>1278.3</ele>
        <time>2019-01-31T19:58:27Z</time>
      </trkpt>
      <trkpt lat="41.97154" lon="0.95137">
        <ele>1276.4</ele>
        <time>2019-01-31T19:58:32Z</time>
      </trkpt>
      <trkpt lat="41.97153" lon="0.9515">
        <ele>1274</ele>
        <time>2019-01-31T19:58:38Z</time>
      </trkpt>
      <trkpt lat="41.97152" lon="0.95165">
        <ele>1272.1</ele>
        <time>2019-01-31T19:58:45Z</time>
      </trkpt>
      <trkpt lat="41.97149" lon="0.95178">
        <ele>1269.6</ele>
        <time>2019-01-31T19:58:50Z</time>
      </trkpt>
      <trkpt lat="41.97144" lon="0.9519">
        <ele>1268.1</ele>
        <time>2019-01-31T19:58:56Z</time>
      </trkpt>
      <trkpt lat="41.97141" lon="0.95203">
        <ele>1267.3</ele>
        <time>2019-01-31T19:59:02Z</time>
      </trkpt>
      <trkpt lat="41.97138" lon="0.95215">
        <ele>1266.7</ele>
        <time>2019-01-31T19:59:07Z</time>
      </trkpt>
      <trkpt lat="41.97138" lon="0.95229">
        <ele>1265.8</ele>
        <time>2019-01-31T19:59:13Z</time>
      </trkpt>
      <trkpt lat="41.97136" lon="0.95242">
        <ele>1264.8</ele>
        <time>2019-01-31T19:59:18Z</time>
      </trkpt>
      <trkpt lat="41.97135" lon="0.95254">
        <ele>1263.8</ele>
        <time>2019-01-31T19:59:24Z</time>
      </trkpt>
      <trkpt lat="41.97133" lon="0.95267">
        <ele>1262.9</ele>
        <time>2019-01-31T19:59:30Z</time>
      </trkpt>
      <trkpt lat="41.97131" lon="0.9528">
        <ele>1262.4</ele>
        <time>2019-01-31T19:59:35Z</time>
      </trkpt>
      <trkpt lat="41.9713" lon="0.95294">
        <ele>1261.9</ele>
        <time>2019-01-31T19:59:41Z</time>
      </trkpt>
      <trkpt lat="41.97129" lon="0.95307">
        <ele>1261.9</ele>
        <time>2019-01-31T19:59:47Z</time>
      </trkpt>
      <trkpt lat="41.97127" lon="0.95319">
        <ele>1262</ele>
        <time>2019-01-31T19:59:52Z</time>
      </trkpt>
      <trkpt lat="41.97124" lon="0.95332">
        <ele>1261.9</ele>
        <time>2019-01-31T19:59:57Z</time>
      </trkpt>
      <trkpt lat="41.9712" lon="0.95345">
        <ele>1264.3</ele>
        <time>2019-01-31T20:00:03Z</time>
      </trkpt>
      <trkpt lat="41.97118" lon="0.95358">
        <ele>1265.2</ele>
        <time>2019-01-31T20:00:09Z</time>
      </trkpt>
      <trkpt lat="41.97116" lon="0.9537">
        <ele>1266.7</ele>
        <time>2019-01-31T20:00:14Z</time>
      </trkpt>
      <trkpt lat="41.97115" lon="0.95382">
        <ele>1268.6</ele>
        <time>2019-01-31T20:00:20Z</time>
      </trkpt>
      <trkpt lat="41.97113" lon="0.95394">
        <ele>1270.5</ele>
        <time>2019-01-31T20:00:25Z</time>
      </trkpt>
      <trkpt lat="41.97111" lon="0.95407">
        <ele>1271.6</ele>
        <time>2019-01-31T20:00:31Z</time>
      </trkpt>
      <trkpt lat="41.97109" lon="0.95421">
        <ele>1274.5</ele>
        <time>2019-01-31T20:00:37Z</time>
      </trkpt>
      <trkpt lat="41.97107" lon="0.95434">
        <ele>1275.8</ele>
        <time>2019-01-31T20:00:42Z</time>
      </trkpt>
      <trkpt lat="41.97103" lon="0.95447">
        <ele>1277.4</ele>
        <time>2019-01-31T20:00:48Z</time>
      </trkpt>
      <trkpt lat="41.97101" lon="0.95459">
        <ele>1278.7</ele>
        <time>2019-01-31T20:00:53Z</time>
      </trkpt>
      <trkpt lat="41.97102" lon="0.95472">
        <ele>1280.2</ele>
        <time>2019-01-31T20:00:59Z</time>
      </trkpt>
      <trkpt lat="41.97106" lon="0.95483">
        <ele>1282.1</ele>
        <time>2019-01-31T20:01:04Z</time>
      </trkpt>
      <trkpt lat="41.97107" lon="0.95496">
        <ele>1282.1</ele>
        <time>2019-01-31T20:01:10Z</time>
      </trkpt>
      <trkpt lat="41.97102" lon="0.95506">
        <ele>1280.1</ele>
        <time>2019-01-31T20:01:15Z</time>
      </trkpt>
      <trkpt lat="41.97093" lon="0.95513">
        <ele>1281.6</ele>
        <time>2019-01-31T20:01:20Z</time>
      </trkpt>
      <trkpt lat="41.971" lon="0.95518">
        <ele>1281.1</ele>
        <time>2019-01-31T20:01:25Z</time>
      </trkpt>
      <trkpt lat="41.97099" lon="0.95531">
        <ele>1279.3</ele>
        <time>2019-01-31T20:01:30Z</time>
      </trkpt>
      <trkpt lat="41.97097" lon="0.95543">
        <ele>1278.3</ele>
        <time>2019-01-31T20:01:36Z</time>
      </trkpt>
      <trkpt lat="41.97096" lon="0.95555">
        <ele>1276.9</ele>
        <time>2019-01-31T20:01:41Z</time>
      </trkpt>
      <trkpt lat="41.97097" lon="0.95567">
        <ele>1274.9</ele>
        <time>2019-01-31T20:01:46Z</time>
      </trkpt>
      <trkpt lat="41.971" lon="0.95578">
        <ele>1272.5</ele>
        <time>2019-01-31T20:01:51Z</time>
      </trkpt>
      <trkpt lat="41.97102" lon="0.95593">
        <ele>1269.1</ele>
        <time>2019-01-31T20:01:57Z</time>
      </trkpt>
      <trkpt lat="41.97102" lon="0.95607">
        <ele>1266.8</ele>
        <time>2019-01-31T20:02:03Z</time>
      </trkpt>
      <trkpt lat="41.97103" lon="0.9562">
        <ele>1263.8</ele>
        <time>2019-01-31T20:02:09Z</time>
      </trkpt>
      <trkpt lat="41.97104" lon="0.95634">
        <ele>1261</ele>
        <time>2019-01-31T20:02:15Z</time>
      </trkpt>
      <trkpt lat="41.97106" lon="0.95648">
        <ele>1258.5</ele>
        <time>2019-01-31T20:02:21Z</time>
      </trkpt>
      <trkpt lat="41.97108" lon="0.9566">
        <ele>1256.1</ele>
        <time>2019-01-31T20:02:26Z</time>
      </trkpt>
      <trkpt lat="41.97111" lon="0.95674">
        <ele>1252.8</ele>
        <time>2019-01-31T20:02:32Z</time>
      </trkpt>
      <trkpt lat="41.97119" lon="0.95682">
        <ele>1248.5</ele>
        <time>2019-01-31T20:02:38Z</time>
      </trkpt>
      <trkpt lat="41.97127" lon="0.95688">
        <ele>1245.5</ele>
        <time>2019-01-31T20:02:43Z</time>
      </trkpt>
      <trkpt lat="41.97137" lon="0.95693">
        <ele>1243.2</ele>
        <time>2019-01-31T20:02:49Z</time>
      </trkpt>
      <trkpt lat="41.97145" lon="0.95694">
        <ele>1240.3</ele>
        <time>2019-01-31T20:02:54Z</time>
      </trkpt>
      <trkpt lat="41.97156" lon="0.95698">
        <ele>1237.5</ele>
        <time>2019-01-31T20:03:00Z</time>
      </trkpt>
      <trkpt lat="41.97165" lon="0.95702">
        <ele>1235.4</ele>
        <time>2019-01-31T20:03:05Z</time>
      </trkpt>
      <trkpt lat="41.97175" lon="0.95706">
        <ele>1232.7</ele>
        <time>2019-01-31T20:03:12Z</time>
      </trkpt>
      <trkpt lat="41.97183" lon="0.95711">
        <ele>1229.8</ele>
        <time>2019-01-31T20:03:17Z</time>
      </trkpt>
      <trkpt lat="41.97192" lon="0.95717">
        <ele>1226.3</ele>
        <time>2019-01-31T20:03:22Z</time>
      </trkpt>
      <trkpt lat="41.97202" lon="0.9572">
        <ele>1223.9</ele>
        <time>2019-01-31T20:03:28Z</time>
      </trkpt>
      <trkpt lat="41.97212" lon="0.95726">
        <ele>1220.6</ele>
        <time>2019-01-31T20:03:34Z</time>
      </trkpt>
      <trkpt lat="41.9722" lon="0.95737">
        <ele>1216.8</ele>
        <time>2019-01-31T20:03:41Z</time>
      </trkpt>
      <trkpt lat="41.97231" lon="0.95739">
        <ele>1214.9</ele>
        <time>2019-01-31T20:03:47Z</time>
      </trkpt>
      <trkpt lat="41.9724" lon="0.95741">
        <ele>1211.9</ele>
        <time>2019-01-31T20:03:52Z</time>
      </trkpt>
      <trkpt lat="41.9725" lon="0.95745">
        <ele>1209.6</ele>
        <time>2019-01-31T20:03:58Z</time>
      </trkpt>
      <trkpt lat="41.97261" lon="0.95748">
        <ele>1207.2</ele>
        <time>2019-01-31T20:04:05Z</time>
      </trkpt>
      <trkpt lat="41.97272" lon="0.95749">
        <ele>1204.7</ele>
        <time>2019-01-31T20:04:11Z</time>
      </trkpt>
      <trkpt lat="41.97281" lon="0.95749">
        <ele>1203.2</ele>
        <time>2019-01-31T20:04:16Z</time>
      </trkpt>
      <trkpt lat="41.9729" lon="0.95749">
        <ele>1202.3</ele>
        <time>2019-01-31T20:04:22Z</time>
      </trkpt>
      <trkpt lat="41.973" lon="0.95751">
        <ele>1200.3</ele>
        <time>2019-01-31T20:04:27Z</time>
      </trkpt>
      <trkpt lat="41.97301" lon="0.95763">
        <ele>1197.9</ele>
        <time>2019-01-31T20:04:32Z</time>
      </trkpt>
      <trkpt lat="41.97294" lon="0.95773">
        <ele>1196.6</ele>
        <time>2019-01-31T20:04:38Z</time>
      </trkpt>
      <trkpt lat="41.97287" lon="0.95784">
        <ele>1194.1</ele>
        <time>2019-01-31T20:04:44Z</time>
      </trkpt>
      <trkpt lat="41.97282" lon="0.95795">
        <ele>1191.3</ele>
        <time>2019-01-31T20:04:50Z</time>
      </trkpt>
      <trkpt lat="41.97277" lon="0.95807">
        <ele>1189.4</ele>
        <time>2019-01-31T20:04:55Z</time>
      </trkpt>
      <trkpt lat="41.97273" lon="0.95821">
        <ele>1187</ele>
        <time>2019-01-31T20:05:02Z</time>
      </trkpt>
      <trkpt lat="41.97267" lon="0.95832">
        <ele>1184</ele>
        <time>2019-01-31T20:05:07Z</time>
      </trkpt>
      <trkpt lat="41.97264" lon="0.95846">
        <ele>1181.6</ele>
        <time>2019-01-31T20:05:14Z</time>
      </trkpt>
      <trkpt lat="41.97261" lon="0.95858">
        <ele>1179.8</ele>
        <time>2019-01-31T20:05:19Z</time>
      </trkpt>
      <trkpt lat="41.97258" lon="0.95871">
        <ele>1177.8</ele>
        <time>2019-01-31T20:05:25Z</time>
      </trkpt>
      <trkpt lat="41.97257" lon="0.95886">
        <ele>1175.4</ele>
        <time>2019-01-31T20:05:31Z</time>
      </trkpt>
      <trkpt lat="41.97253" lon="0.959">
        <ele>1173</ele>
        <time>2019-01-31T20:05:38Z</time>
      </trkpt>
      <trkpt lat="41.97249" lon="0.95911">
        <ele>1169.7</ele>
        <time>2019-01-31T20:05:43Z</time>
      </trkpt>
      <trkpt lat="41.97255" lon="0.95917">
        <ele>1167.3</ele>
        <time>2019-01-31T20:05:47Z</time>
      </trkpt>
      <trkpt lat="41.97263" lon="0.95922">
        <ele>1164.9</ele>
        <time>2019-01-31T20:05:52Z</time>
      </trkpt>
      <trkpt lat="41.97273" lon="0.95924">
        <ele>1162</ele>
        <time>2019-01-31T20:05:58Z</time>
      </trkpt>
      <trkpt lat="41.97283" lon="0.95917">
        <ele>1159</ele>
        <time>2019-01-31T20:06:04Z</time>
      </trkpt>
      <trkpt lat="41.97292" lon="0.95908">
        <ele>1157.6</ele>
        <time>2019-01-31T20:06:11Z</time>
      </trkpt>
      <trkpt lat="41.97301" lon="0.95903">
        <ele>1155.3</ele>
        <time>2019-01-31T20:06:17Z</time>
      </trkpt>
      <trkpt lat="41.97311" lon="0.9591">
        <ele>1153.2</ele>
        <time>2019-01-31T20:06:23Z</time>
      </trkpt>
      <trkpt lat="41.97321" lon="0.95915">
        <ele>1151.4</ele>
        <time>2019-01-31T20:06:29Z</time>
      </trkpt>
      <trkpt lat="41.97323" lon="0.95928">
        <ele>1149.9</ele>
        <time>2019-01-31T20:06:35Z</time>
      </trkpt>
      <trkpt lat="41.97317" lon="0.95936">
        <ele>1147</ele>
        <time>2019-01-31T20:06:40Z</time>
      </trkpt>
      <trkpt lat="41.97316" lon="0.95949">
        <ele>1144.6</ele>
        <time>2019-01-31T20:06:46Z</time>
      </trkpt>
      <trkpt lat="41.97316" lon="0.95962">
        <ele>1141.8</ele>
        <time>2019-01-31T20:06:51Z</time>
      </trkpt>
      <trkpt lat="41.97315" lon="0.95975">
        <ele>1138.9</ele>
        <time>2019-01-31T20:06:57Z</time>
      </trkpt>
      <trkpt lat="41.97315" lon="0.95989">
        <ele>1135.9</ele>
        <time>2019-01-31T20:07:03Z</time>
      </trkpt>
      <trkpt lat="41.97313" lon="0.96004">
        <ele>1134.1</ele>
        <time>2019-01-31T20:07:09Z</time>
      </trkpt>
      <trkpt lat="41.97316" lon="0.96016">
        <ele>1131.2</ele>
        <time>2019-01-31T20:07:15Z</time>
      </trkpt>
      <trkpt lat="41.9732" lon="0.96027">
        <ele>1127.9</ele>
        <time>2019-01-31T20:07:20Z</time>
      </trkpt>
      <trkpt lat="41.97325" lon="0.96038">
        <ele>1124.9</ele>
        <time>2019-01-31T20:07:25Z</time>
      </trkpt>
      <trkpt lat="41.97329" lon="0.96051">
        <ele>1122.6</ele>
        <time>2019-01-31T20:07:31Z</time>
      </trkpt>
      <trkpt lat="41.97331" lon="0.96065">
        <ele>1119.6</ele>
        <time>2019-01-31T20:07:37Z</time>
      </trkpt>
      <trkpt lat="41.97337" lon="0.96074">
        <ele>1116.2</ele>
        <time>2019-01-31T20:07:42Z</time>
      </trkpt>
      <trkpt lat="41.97341" lon="0.96085">
        <ele>1113</ele>
        <time>2019-01-31T20:07:48Z</time>
      </trkpt>
      <trkpt lat="41.97344" lon="0.96098">
        <ele>1109.6</ele>
        <time>2019-01-31T20:07:54Z</time>
      </trkpt>
      <trkpt lat="41.9735" lon="0.9611">
        <ele>1105.7</ele>
        <time>2019-01-31T20:08:00Z</time>
      </trkpt>
      <trkpt lat="41.97356" lon="0.96121">
        <ele>1102.3</ele>
        <time>2019-01-31T20:08:05Z</time>
      </trkpt>
      <trkpt lat="41.97364" lon="0.9613">
        <ele>1099</ele>
        <time>2019-01-31T20:08:11Z</time>
      </trkpt>
      <trkpt lat="41.97372" lon="0.96141">
        <ele>1095.6</ele>
        <time>2019-01-31T20:08:18Z</time>
      </trkpt>
      <trkpt lat="41.97378" lon="0.96152">
        <ele>1092.8</ele>
        <time>2019-01-31T20:08:24Z</time>
      </trkpt>
      <trkpt lat="41.97385" lon="0.96164">
        <ele>1088.5</ele>
        <time>2019-01-31T20:08:30Z</time>
      </trkpt>
      <trkpt lat="41.97389" lon="0.96176">
        <ele>1085.1</ele>
        <time>2019-01-31T20:08:36Z</time>
      </trkpt>
      <trkpt lat="41.97397" lon="0.96185">
        <ele>1081.6</ele>
        <time>2019-01-31T20:08:41Z</time>
      </trkpt>
      <trkpt lat="41.97406" lon="0.96193">
        <ele>1078.3</ele>
        <time>2019-01-31T20:08:48Z</time>
      </trkpt>
      <trkpt lat="41.97415" lon="0.96202">
        <ele>1074.4</ele>
        <time>2019-01-31T20:08:54Z</time>
      </trkpt>
      <trkpt lat="41.97422" lon="0.96214">
        <ele>1071.5</ele>
        <time>2019-01-31T20:09:01Z</time>
      </trkpt>
      <trkpt lat="41.97424" lon="0.96228">
        <ele>1068.7</ele>
        <time>2019-01-31T20:09:07Z</time>
      </trkpt>
      <trkpt lat="41.97428" lon="0.96241">
        <ele>1066.2</ele>
        <time>2019-01-31T20:09:13Z</time>
      </trkpt>
      <trkpt lat="41.97436" lon="0.96249">
        <ele>1063</ele>
        <time>2019-01-31T20:09:18Z</time>
      </trkpt>
      <trkpt lat="41.97443" lon="0.96258">
        <ele>1059.6</ele>
        <time>2019-01-31T20:09:24Z</time>
      </trkpt>
      <trkpt lat="41.97451" lon="0.96269">
        <ele>1056.2</ele>
        <time>2019-01-31T20:09:30Z</time>
      </trkpt>
      <trkpt lat="41.97459" lon="0.96279">
        <ele>1053.4</ele>
        <time>2019-01-31T20:09:36Z</time>
      </trkpt>
      <trkpt lat="41.97464" lon="0.96291">
        <ele>1049.9</ele>
        <time>2019-01-31T20:09:43Z</time>
      </trkpt>
      <trkpt lat="41.97473" lon="0.96299">
        <ele>1048</ele>
        <time>2019-01-31T20:09:48Z</time>
      </trkpt>
      <trkpt lat="41.97479" lon="0.9631">
        <ele>1045.6</ele>
        <time>2019-01-31T20:09:54Z</time>
      </trkpt>
      <trkpt lat="41.97486" lon="0.96322">
        <ele>1042.7</ele>
        <time>2019-01-31T20:10:01Z</time>
      </trkpt>
      <trkpt lat="41.97489" lon="0.96336">
        <ele>1040.3</ele>
        <time>2019-01-31T20:10:07Z</time>
      </trkpt>
      <trkpt lat="41.97489" lon="0.9635">
        <ele>1037</ele>
        <time>2019-01-31T20:10:13Z</time>
      </trkpt>
      <trkpt lat="41.9749" lon="0.96364">
        <ele>1034.6</ele>
        <time>2019-01-31T20:10:19Z</time>
      </trkpt>
      <trkpt lat="41.97494" lon="0.96378">
        <ele>1031.7</ele>
        <time>2019-01-31T20:10:25Z</time>
      </trkpt>
      <trkpt lat="41.97496" lon="0.96391">
        <ele>1029.8</ele>
        <time>2019-01-31T20:10:31Z</time>
      </trkpt>
      <trkpt lat="41.97498" lon="0.96404">
        <ele>1026.4</ele>
        <time>2019-01-31T20:10:37Z</time>
      </trkpt>
      <trkpt lat="41.97501" lon="0.96418">
        <ele>1024</ele>
        <time>2019-01-31T20:10:43Z</time>
      </trkpt>
      <trkpt lat="41.97507" lon="0.96429">
        <ele>1021.5</ele>
        <time>2019-01-31T20:10:49Z</time>
      </trkpt>
      <trkpt lat="41.97513" lon="0.96441">
        <ele>1019.1</ele>
        <time>2019-01-31T20:10:54Z</time>
      </trkpt>
      <trkpt lat="41.97512" lon="0.96455">
        <ele>1016.7</ele>
        <time>2019-01-31T20:11:01Z</time>
      </trkpt>
      <trkpt lat="41.97518" lon="0.96466">
        <ele>1015.4</ele>
        <time>2019-01-31T20:11:06Z</time>
      </trkpt>
      <trkpt lat="41.97524" lon="0.96476">
        <ele>1013.4</ele>
        <time>2019-01-31T20:11:12Z</time>
      </trkpt>
      <trkpt lat="41.97533" lon="0.96484">
        <ele>1012</ele>
        <time>2019-01-31T20:11:18Z</time>
      </trkpt>
      <trkpt lat="41.97539" lon="0.96495">
        <ele>1009.6</ele>
        <time>2019-01-31T20:11:23Z</time>
      </trkpt>
      <trkpt lat="41.97547" lon="0.96506">
        <ele>1007.7</ele>
        <time>2019-01-31T20:11:30Z</time>
      </trkpt>
      <trkpt lat="41.97555" lon="0.96517">
        <ele>1005.8</ele>
        <time>2019-01-31T20:11:37Z</time>
      </trkpt>
      <trkpt lat="41.97562" lon="0.96528">
        <ele>1002.9</ele>
        <time>2019-01-31T20:11:43Z</time>
      </trkpt>
      <trkpt lat="41.97568" lon="0.9654">
        <ele>1001</ele>
        <time>2019-01-31T20:11:49Z</time>
      </trkpt>
      <trkpt lat="41.97574" lon="0.96552">
        <ele>998.5</ele>
        <time>2019-01-31T20:11:55Z</time>
      </trkpt>
      <trkpt lat="41.97579" lon="0.96565">
        <ele>995.6</ele>
        <time>2019-01-31T20:12:01Z</time>
      </trkpt>
      <trkpt lat="41.97582" lon="0.96579">
        <ele>992.2</ele>
        <time>2019-01-31T20:12:07Z</time>
      </trkpt>
      <trkpt lat="41.97583" lon="0.96593">
        <ele>989</ele>
        <time>2019-01-31T20:12:13Z</time>
      </trkpt>
      <trkpt lat="41.97584" lon="0.96609">
        <ele>985.6</ele>
        <time>2019-01-31T20:12:20Z</time>
      </trkpt>
      <trkpt lat="41.97586" lon="0.96621">
        <ele>982.7</ele>
        <time>2019-01-31T20:12:26Z</time>
      </trkpt>
      <trkpt lat="41.97588" lon="0.96634">
        <ele>979.3</ele>
        <time>2019-01-31T20:12:31Z</time>
      </trkpt>
      <trkpt lat="41.97587" lon="0.96649">
        <ele>976</ele>
        <time>2019-01-31T20:12:38Z</time>
      </trkpt>
      <trkpt lat="41.97593" lon="0.9666">
        <ele>973.5</ele>
        <time>2019-01-31T20:12:44Z</time>
      </trkpt>
      <trkpt lat="41.97599" lon="0.96673">
        <ele>970.2</ele>
        <time>2019-01-31T20:12:50Z</time>
      </trkpt>
      <trkpt lat="41.97605" lon="0.96685">
        <ele>967.2</ele>
        <time>2019-01-31T20:12:56Z</time>
      </trkpt>
      <trkpt lat="41.97612" lon="0.96696">
        <ele>964.8</ele>
        <time>2019-01-31T20:13:02Z</time>
      </trkpt>
      <trkpt lat="41.97618" lon="0.9671">
        <ele>961.9</ele>
        <time>2019-01-31T20:13:09Z</time>
      </trkpt>
      <trkpt lat="41.97623" lon="0.96724">
        <ele>959.1</ele>
        <time>2019-01-31T20:13:16Z</time>
      </trkpt>
      <trkpt lat="41.97628" lon="0.96735">
        <ele>956.3</ele>
        <time>2019-01-31T20:13:21Z</time>
      </trkpt>
      <trkpt lat="41.97634" lon="0.96746">
        <ele>952.4</ele>
        <time>2019-01-31T20:13:27Z</time>
      </trkpt>
      <trkpt lat="41.97638" lon="0.96759">
        <ele>948.6</ele>
        <time>2019-01-31T20:13:33Z</time>
      </trkpt>
      <trkpt lat="41.97645" lon="0.96768">
        <ele>946.2</ele>
        <time>2019-01-31T20:13:38Z</time>
      </trkpt>
      <trkpt lat="41.97653" lon="0.96779">
        <ele>942.2</ele>
        <time>2019-01-31T20:13:45Z</time>
      </trkpt>
      <trkpt lat="41.97659" lon="0.96791">
        <ele>939</ele>
        <time>2019-01-31T20:13:51Z</time>
      </trkpt>
      <trkpt lat="41.97667" lon="0.96805">
        <ele>935.6</ele>
        <time>2019-01-31T20:13:59Z</time>
      </trkpt>
      <trkpt lat="41.97671" lon="0.96817">
        <ele>932.1</ele>
        <time>2019-01-31T20:14:04Z</time>
      </trkpt>
      <trkpt lat="41.97675" lon="0.96828">
        <ele>928.8</ele>
        <time>2019-01-31T20:14:10Z</time>
      </trkpt>
      <trkpt lat="41.97682" lon="0.96837">
        <ele>926.4</ele>
        <time>2019-01-31T20:14:15Z</time>
      </trkpt>
      <trkpt lat="41.97691" lon="0.96837">
        <ele>924</ele>
        <time>2019-01-31T20:14:20Z</time>
      </trkpt>
      <trkpt lat="41.97701" lon="0.96841">
        <ele>921.2</ele>
        <time>2019-01-31T20:14:26Z</time>
      </trkpt>
      <trkpt lat="41.97699" lon="0.96856">
        <ele>919.3</ele>
        <time>2019-01-31T20:14:32Z</time>
      </trkpt>
      <trkpt lat="41.97694" lon="0.96869">
        <ele>917.3</ele>
        <time>2019-01-31T20:14:38Z</time>
      </trkpt>
      <trkpt lat="41.97691" lon="0.96883">
        <ele>914.9</ele>
        <time>2019-01-31T20:14:45Z</time>
      </trkpt>
      <trkpt lat="41.97688" lon="0.96896">
        <ele>912.1</ele>
        <time>2019-01-31T20:14:50Z</time>
      </trkpt>
      <trkpt lat="41.9768" lon="0.96905">
        <ele>910.1</ele>
        <time>2019-01-31T20:14:56Z</time>
      </trkpt>
      <trkpt lat="41.9767" lon="0.96904">
        <ele>908.2</ele>
        <time>2019-01-31T20:15:02Z</time>
      </trkpt>
      <trkpt lat="41.9766" lon="0.96901">
        <ele>906.7</ele>
        <time>2019-01-31T20:15:08Z</time>
      </trkpt>
      <trkpt lat="41.97651" lon="0.96902">
        <ele>906.3</ele>
        <time>2019-01-31T20:15:13Z</time>
      </trkpt>
      <trkpt lat="41.9764" lon="0.96903">
        <ele>903.3</ele>
        <time>2019-01-31T20:15:19Z</time>
      </trkpt>
      <trkpt lat="41.9763" lon="0.96906">
        <ele>899.9</ele>
        <time>2019-01-31T20:15:25Z</time>
      </trkpt>
      <trkpt lat="41.97628" lon="0.96916">
        <ele>898.5</ele>
        <time>2019-01-31T20:15:30Z</time>
      </trkpt>
      <trkpt lat="41.97631" lon="0.96928">
        <ele>898</ele>
        <time>2019-01-31T20:15:35Z</time>
      </trkpt>
      <trkpt lat="41.97634" lon="0.9694">
        <ele>897.6</ele>
        <time>2019-01-31T20:15:40Z</time>
      </trkpt>
      <trkpt lat="41.97636" lon="0.96953">
        <ele>897.6</ele>
        <time>2019-01-31T20:15:46Z</time>
      </trkpt>
      <trkpt lat="41.97635" lon="0.96967">
        <ele>897.6</ele>
        <time>2019-01-31T20:15:52Z</time>
      </trkpt>
      <trkpt lat="41.97635" lon="0.96982">
        <ele>897.6</ele>
        <time>2019-01-31T20:15:58Z</time>
      </trkpt>
      <trkpt lat="41.97632" lon="0.96996">
        <ele>899.5</ele>
        <time>2019-01-31T20:16:05Z</time>
      </trkpt>
      <trkpt lat="41.97627" lon="0.9701">
        <ele>900.9</ele>
        <time>2019-01-31T20:16:11Z</time>
      </trkpt>
      <trkpt lat="41.97624" lon="0.97023">
        <ele>903.4</ele>
        <time>2019-01-31T20:16:17Z</time>
      </trkpt>
      <trkpt lat="41.97625" lon="0.97037">
        <ele>904.3</ele>
        <time>2019-01-31T20:16:23Z</time>
      </trkpt>
      <trkpt lat="41.97623" lon="0.97051">
        <ele>904.7</ele>
        <time>2019-01-31T20:16:29Z</time>
      </trkpt>
      <trkpt lat="41.97622" lon="0.97065">
        <ele>903.4</ele>
        <time>2019-01-31T20:16:35Z</time>
      </trkpt>
      <trkpt lat="41.97622" lon="0.97079">
        <ele>902</ele>
        <time>2019-01-31T20:16:41Z</time>
      </trkpt>
      <trkpt lat="41.97624" lon="0.97093">
        <ele>899.5</ele>
        <time>2019-01-31T20:16:47Z</time>
      </trkpt>
      <trkpt lat="41.97624" lon="0.97106">
        <ele>898.1</ele>
        <time>2019-01-31T20:16:53Z</time>
      </trkpt>
      <trkpt lat="41.97623" lon="0.97121">
        <ele>895.7</ele>
        <time>2019-01-31T20:16:59Z</time>
      </trkpt>
      <trkpt lat="41.97624" lon="0.97134">
        <ele>893.8</ele>
        <time>2019-01-31T20:17:04Z</time>
      </trkpt>
      <trkpt lat="41.97624" lon="0.97148">
        <ele>891.3</ele>
        <time>2019-01-31T20:17:10Z</time>
      </trkpt>
      <trkpt lat="41.97623" lon="0.97164">
        <ele>888.5</ele>
        <time>2019-01-31T20:17:17Z</time>
      </trkpt>
      <trkpt lat="41.97624" lon="0.97178">
        <ele>885.5</ele>
        <time>2019-01-31T20:17:23Z</time>
      </trkpt>
      <trkpt lat="41.97624" lon="0.97192">
        <ele>883.1</ele>
        <time>2019-01-31T20:17:29Z</time>
      </trkpt>
      <trkpt lat="41.97623" lon="0.97207">
        <ele>880.2</ele>
        <time>2019-01-31T20:17:36Z</time>
      </trkpt>
      <trkpt lat="41.9762" lon="0.97222">
        <ele>877.9</ele>
        <time>2019-01-31T20:17:42Z</time>
      </trkpt>
      <trkpt lat="41.97617" lon="0.97237">
        <ele>875.9</ele>
        <time>2019-01-31T20:17:49Z</time>
      </trkpt>
      <trkpt lat="41.97613" lon="0.9725">
        <ele>873.6</ele>
        <time>2019-01-31T20:17:55Z</time>
      </trkpt>
      <trkpt lat="41.97608" lon="0.97263">
        <ele>871.6</ele>
        <time>2019-01-31T20:18:01Z</time>
      </trkpt>
      <trkpt lat="41.97604" lon="0.97278">
        <ele>869.8</ele>
        <time>2019-01-31T20:18:07Z</time>
      </trkpt>
      <trkpt lat="41.97599" lon="0.97292">
        <ele>867.3</ele>
        <time>2019-01-31T20:18:14Z</time>
      </trkpt>
      <trkpt lat="41.97596" lon="0.97305">
        <ele>864.5</ele>
        <time>2019-01-31T20:18:20Z</time>
      </trkpt>
      <trkpt lat="41.976" lon="0.97313">
        <ele>862.4</ele>
        <time>2019-01-31T20:18:24Z</time>
      </trkpt>
      <trkpt lat="41.97609" lon="0.97311">
        <ele>860</ele>
        <time>2019-01-31T20:18:30Z</time>
      </trkpt>
      <trkpt lat="41.97619" lon="0.97309">
        <ele>858.6</ele>
        <time>2019-01-31T20:18:35Z</time>
      </trkpt>
      <trkpt lat="41.97628" lon="0.97305">
        <ele>856.2</ele>
        <time>2019-01-31T20:18:41Z</time>
      </trkpt>
      <trkpt lat="41.9764" lon="0.97302">
        <ele>854.9</ele>
        <time>2019-01-31T20:18:48Z</time>
      </trkpt>
      <trkpt lat="41.97651" lon="0.973">
        <ele>852.9</ele>
        <time>2019-01-31T20:18:54Z</time>
      </trkpt>
      <trkpt lat="41.97662" lon="0.973">
        <ele>850</ele>
        <time>2019-01-31T20:19:00Z</time>
      </trkpt>
      <trkpt lat="41.97672" lon="0.97301">
        <ele>848</ele>
        <time>2019-01-31T20:19:06Z</time>
      </trkpt>
      <trkpt lat="41.97682" lon="0.973">
        <ele>845.6</ele>
        <time>2019-01-31T20:19:12Z</time>
      </trkpt>
      <trkpt lat="41.97694" lon="0.97302">
        <ele>842.7</ele>
        <time>2019-01-31T20:19:19Z</time>
      </trkpt>
      <trkpt lat="41.97705" lon="0.973">
        <ele>841.3</ele>
        <time>2019-01-31T20:19:25Z</time>
      </trkpt>
      <trkpt lat="41.97715" lon="0.97298">
        <ele>840.4</ele>
        <time>2019-01-31T20:19:31Z</time>
      </trkpt>
      <trkpt lat="41.97726" lon="0.97296">
        <ele>839.4</ele>
        <time>2019-01-31T20:19:37Z</time>
      </trkpt>
      <trkpt lat="41.97736" lon="0.97292">
        <ele>838.4</ele>
        <time>2019-01-31T20:19:43Z</time>
      </trkpt>
      <trkpt lat="41.97745" lon="0.97287">
        <ele>837</ele>
        <time>2019-01-31T20:19:49Z</time>
      </trkpt>
      <trkpt lat="41.97755" lon="0.97281">
        <ele>835.5</ele>
        <time>2019-01-31T20:19:55Z</time>
      </trkpt>
      <trkpt lat="41.97765" lon="0.97275">
        <ele>833.7</ele>
        <time>2019-01-31T20:20:01Z</time>
      </trkpt>
      <trkpt lat="41.97773" lon="0.97269">
        <ele>832.6</ele>
        <time>2019-01-31T20:20:07Z</time>
      </trkpt>
      <trkpt lat="41.97782" lon="0.97261">
        <ele>831.3</ele>
        <time>2019-01-31T20:20:12Z</time>
      </trkpt>
      <trkpt lat="41.97791" lon="0.97257">
        <ele>829.3</ele>
        <time>2019-01-31T20:20:18Z</time>
      </trkpt>
      <trkpt lat="41.97798" lon="0.97265">
        <ele>827.4</ele>
        <time>2019-01-31T20:20:23Z</time>
      </trkpt>
      <trkpt lat="41.97797" lon="0.97278">
        <ele>825.9</ele>
        <time>2019-01-31T20:20:29Z</time>
      </trkpt>
      <trkpt lat="41.97794" lon="0.97291">
        <ele>824</ele>
        <time>2019-01-31T20:20:35Z</time>
      </trkpt>
      <trkpt lat="41.97789" lon="0.97304">
        <ele>822.7</ele>
        <time>2019-01-31T20:20:41Z</time>
      </trkpt>
      <trkpt lat="41.97788" lon="0.97318">
        <ele>820.6</ele>
        <time>2019-01-31T20:20:47Z</time>
      </trkpt>
      <trkpt lat="41.97788" lon="0.97333">
        <ele>818.2</ele>
        <time>2019-01-31T20:20:53Z</time>
      </trkpt>
      <trkpt lat="41.97786" lon="0.97348">
        <ele>816.4</ele>
        <time>2019-01-31T20:21:00Z</time>
      </trkpt>
      <trkpt lat="41.97783" lon="0.97364">
        <ele>814.4</ele>
        <time>2019-01-31T20:21:07Z</time>
      </trkpt>
      <trkpt lat="41.97779" lon="0.97379">
        <ele>812.9</ele>
        <time>2019-01-31T20:21:13Z</time>
      </trkpt>
      <trkpt lat="41.97775" lon="0.97394">
        <ele>810.2</ele>
        <time>2019-01-31T20:21:20Z</time>
      </trkpt>
      <trkpt lat="41.97772" lon="0.97406">
        <ele>808.1</ele>
        <time>2019-01-31T20:21:26Z</time>
      </trkpt>
      <trkpt lat="41.97769" lon="0.9742">
        <ele>805.8</ele>
        <time>2019-01-31T20:21:32Z</time>
      </trkpt>
      <trkpt lat="41.97763" lon="0.97432">
        <ele>805.3</ele>
        <time>2019-01-31T20:21:38Z</time>
      </trkpt>
      <trkpt lat="41.97757" lon="0.97443">
        <ele>804.9</ele>
        <time>2019-01-31T20:21:44Z</time>
      </trkpt>
      <trkpt lat="41.97746" lon="0.97448">
        <ele>804.8</ele>
        <time>2019-01-31T20:21:50Z</time>
      </trkpt>
      <trkpt lat="41.97736" lon="0.97455">
        <ele>806.7</ele>
        <time>2019-01-31T20:21:57Z</time>
      </trkpt>
      <trkpt lat="41.97731" lon="0.97469">
        <ele>803.3</ele>
        <time>2019-01-31T20:22:03Z</time>
      </trkpt>
      <trkpt lat="41.97727" lon="0.97481">
        <ele>802</ele>
        <time>2019-01-31T20:22:09Z</time>
      </trkpt>
      <trkpt lat="41.97719" lon="0.97489">
        <ele>802</ele>
        <time>2019-01-31T20:22:15Z</time>
      </trkpt>
      <trkpt lat="41.9771" lon="0.975">
        <ele>801.9</ele>
        <time>2019-01-31T20:22:22Z</time>
      </trkpt>
      <trkpt lat="41.97702" lon="0.97509">
        <ele>801.4</ele>
        <time>2019-01-31T20:22:28Z</time>
      </trkpt>
      <trkpt lat="41.97693" lon="0.9752">
        <ele>800.4</ele>
        <time>2019-01-31T20:22:35Z</time>
      </trkpt>
      <trkpt lat="41.97685" lon="0.97531">
        <ele>800</ele>
        <time>2019-01-31T20:22:41Z</time>
      </trkpt>
      <trkpt lat="41.97679" lon="0.97543">
        <ele>800.1</ele>
        <time>2019-01-31T20:22:47Z</time>
      </trkpt>
      <trkpt lat="41.97673" lon="0.97554">
        <ele>799.1</ele>
        <time>2019-01-31T20:22:53Z</time>
      </trkpt>
      <trkpt lat="41.97667" lon="0.97566">
        <ele>796.6</ele>
        <time>2019-01-31T20:23:00Z</time>
      </trkpt>
      <trkpt lat="41.97662" lon="0.9758">
        <ele>794.7</ele>
        <time>2019-01-31T20:23:06Z</time>
      </trkpt>
      <trkpt lat="41.97655" lon="0.97594">
        <ele>792.7</ele>
        <time>2019-01-31T20:23:13Z</time>
      </trkpt>
      <trkpt lat="41.97648" lon="0.97607">
        <ele>790.9</ele>
        <time>2019-01-31T20:23:20Z</time>
      </trkpt>
      <trkpt lat="41.97637" lon="0.97613">
        <ele>790.3</ele>
        <time>2019-01-31T20:23:27Z</time>
      </trkpt>
      <trkpt lat="41.97624" lon="0.97612">
        <ele>790</ele>
        <time>2019-01-31T20:23:34Z</time>
      </trkpt>
      <trkpt lat="41.97614" lon="0.97611">
        <ele>788.4</ele>
        <time>2019-01-31T20:23:40Z</time>
      </trkpt>
      <trkpt lat="41.97617" lon="0.97622">
        <ele>786.1</ele>
        <time>2019-01-31T20:23:45Z</time>
      </trkpt>
      <trkpt lat="41.97618" lon="0.97635">
        <ele>782.7</ele>
        <time>2019-01-31T20:23:50Z</time>
      </trkpt>
      <trkpt lat="41.97622" lon="0.97647">
        <ele>781.3</ele>
        <time>2019-01-31T20:23:56Z</time>
      </trkpt>
      <trkpt lat="41.97621" lon="0.97662">
        <ele>779.4</ele>
        <time>2019-01-31T20:24:02Z</time>
      </trkpt>
      <trkpt lat="41.97618" lon="0.97676">
        <ele>778.9</ele>
        <time>2019-01-31T20:24:08Z</time>
      </trkpt>
      <trkpt lat="41.97617" lon="0.97689">
        <ele>777.4</ele>
        <time>2019-01-31T20:24:14Z</time>
      </trkpt>
      <trkpt lat="41.97621" lon="0.97702">
        <ele>775.9</ele>
        <time>2019-01-31T20:24:20Z</time>
      </trkpt>
      <trkpt lat="41.97621" lon="0.97716">
        <ele>773.5</ele>
        <time>2019-01-31T20:24:26Z</time>
      </trkpt>
      <trkpt lat="41.97616" lon="0.97727">
        <ele>772.2</ele>
        <time>2019-01-31T20:24:32Z</time>
      </trkpt>
      <trkpt lat="41.97613" lon="0.9774">
        <ele>770.3</ele>
        <time>2019-01-31T20:24:37Z</time>
      </trkpt>
      <trkpt lat="41.97611" lon="0.97753">
        <ele>769.7</ele>
        <time>2019-01-31T20:24:43Z</time>
      </trkpt>
      <trkpt lat="41.97612" lon="0.97765">
        <ele>769.8</ele>
        <time>2019-01-31T20:24:48Z</time>
      </trkpt>
      <trkpt lat="41.97618" lon="0.97774">
        <ele>771.6</ele>
        <time>2019-01-31T20:24:53Z</time>
      </trkpt>
      <trkpt lat="41.97624" lon="0.97784">
        <ele>773.1</ele>
        <time>2019-01-31T20:24:59Z</time>
      </trkpt>
      <trkpt lat="41.97627" lon="0.97799">
        <ele>774.1</ele>
        <time>2019-01-31T20:25:05Z</time>
      </trkpt>
      <trkpt lat="41.9763" lon="0.97812">
        <ele>775</ele>
        <time>2019-01-31T20:25:11Z</time>
      </trkpt>
      <trkpt lat="41.97631" lon="0.97825">
        <ele>775.9</ele>
        <time>2019-01-31T20:25:16Z</time>
      </trkpt>
      <trkpt lat="41.97634" lon="0.97837">
        <ele>775.9</ele>
        <time>2019-01-31T20:25:22Z</time>
      </trkpt>
      <trkpt lat="41.97639" lon="0.9785">
        <ele>776</ele>
        <time>2019-01-31T20:25:28Z</time>
      </trkpt>
      <trkpt lat="41.97642" lon="0.97862">
        <ele>777</ele>
        <time>2019-01-31T20:25:34Z</time>
      </trkpt>
      <trkpt lat="41.97647" lon="0.97873">
        <ele>778.3</ele>
        <time>2019-01-31T20:25:39Z</time>
      </trkpt>
      <trkpt lat="41.97655" lon="0.9788">
        <ele>778.3</ele>
        <time>2019-01-31T20:25:45Z</time>
      </trkpt>
      <trkpt lat="41.97663" lon="0.97886">
        <ele>779.4</ele>
        <time>2019-01-31T20:25:50Z</time>
      </trkpt>
      <trkpt lat="41.97671" lon="0.97891">
        <ele>780.4</ele>
        <time>2019-01-31T20:25:55Z</time>
      </trkpt>
      <trkpt lat="41.97678" lon="0.97903">
        <ele>780.8</ele>
        <time>2019-01-31T20:26:01Z</time>
      </trkpt>
      <trkpt lat="41.97683" lon="0.97915">
        <ele>781.2</ele>
        <time>2019-01-31T20:26:07Z</time>
      </trkpt>
      <trkpt lat="41.97687" lon="0.97928">
        <ele>782.7</ele>
        <time>2019-01-31T20:26:13Z</time>
      </trkpt>
      <trkpt lat="41.97692" lon="0.9794">
        <ele>784.1</ele>
        <time>2019-01-31T20:26:19Z</time>
      </trkpt>
      <trkpt lat="41.97695" lon="0.97953">
        <ele>786</ele>
        <time>2019-01-31T20:26:24Z</time>
      </trkpt>
      <trkpt lat="41.97699" lon="0.97964">
        <ele>787.5</ele>
        <time>2019-01-31T20:26:30Z</time>
      </trkpt>
      <trkpt lat="41.97704" lon="0.97975">
        <ele>789.4</ele>
        <time>2019-01-31T20:26:35Z</time>
      </trkpt>
      <trkpt lat="41.97709" lon="0.97985">
        <ele>790.9</ele>
        <time>2019-01-31T20:26:41Z</time>
      </trkpt>
      <trkpt lat="41.97715" lon="0.97995">
        <ele>792.4</ele>
        <time>2019-01-31T20:26:46Z</time>
      </trkpt>
      <trkpt lat="41.9772" lon="0.98005">
        <ele>794.3</ele>
        <time>2019-01-31T20:26:51Z</time>
      </trkpt>
      <trkpt lat="41.97725" lon="0.98017">
        <ele>796.2</ele>
        <time>2019-01-31T20:26:57Z</time>
      </trkpt>
      <trkpt lat="41.97729" lon="0.9803">
        <ele>797.6</ele>
        <time>2019-01-31T20:27:03Z</time>
      </trkpt>
      <trkpt lat="41.97732" lon="0.98042">
        <ele>799.1</ele>
        <time>2019-01-31T20:27:08Z</time>
      </trkpt>
      <trkpt lat="41.97732" lon="0.98056">
        <ele>800.4</ele>
        <time>2019-01-31T20:27:14Z</time>
      </trkpt>
      <trkpt lat="41.97733" lon="0.98069">
        <ele>802.4</ele>
        <time>2019-01-31T20:27:20Z</time>
      </trkpt>
      <trkpt lat="41.97734" lon="0.98083">
        <ele>803.3</ele>
        <time>2019-01-31T20:27:26Z</time>
      </trkpt>
      <trkpt lat="41.97737" lon="0.98096">
        <ele>803.8</ele>
        <time>2019-01-31T20:27:31Z</time>
      </trkpt>
      <trkpt lat="41.9774" lon="0.98109">
        <ele>802.5</ele>
        <time>2019-01-31T20:27:37Z</time>
      </trkpt>
      <trkpt lat="41.97745" lon="0.98122">
        <ele>802.4</ele>
        <time>2019-01-31T20:27:43Z</time>
      </trkpt>
      <trkpt lat="41.97747" lon="0.98135">
        <ele>802.4</ele>
        <time>2019-01-31T20:27:49Z</time>
      </trkpt>
      <trkpt lat="41.97749" lon="0.98148">
        <ele>802</ele>
        <time>2019-01-31T20:27:54Z</time>
      </trkpt>
      <trkpt lat="41.9775" lon="0.98162">
        <ele>801.4</ele>
        <time>2019-01-31T20:28:01Z</time>
      </trkpt>
      <trkpt lat="41.97752" lon="0.98175">
        <ele>800.4</ele>
        <time>2019-01-31T20:28:06Z</time>
      </trkpt>
      <trkpt lat="41.97754" lon="0.98188">
        <ele>800</ele>
        <time>2019-01-31T20:28:12Z</time>
      </trkpt>
      <trkpt lat="41.97756" lon="0.98202">
        <ele>798.5</ele>
        <time>2019-01-31T20:28:18Z</time>
      </trkpt>
      <trkpt lat="41.97762" lon="0.98211">
        <ele>797.6</ele>
        <time>2019-01-31T20:28:23Z</time>
      </trkpt>
      <trkpt lat="41.97772" lon="0.98215">
        <ele>796.6</ele>
        <time>2019-01-31T20:28:29Z</time>
      </trkpt>
      <trkpt lat="41.97783" lon="0.98217">
        <ele>794.8</ele>
        <time>2019-01-31T20:28:35Z</time>
      </trkpt>
      <trkpt lat="41.97794" lon="0.98214">
        <ele>793.8</ele>
        <time>2019-01-31T20:28:42Z</time>
      </trkpt>
      <trkpt lat="41.97805" lon="0.9821">
        <ele>791.9</ele>
        <time>2019-01-31T20:28:48Z</time>
      </trkpt>
      <trkpt lat="41.97816" lon="0.98207">
        <ele>790.4</ele>
        <time>2019-01-31T20:28:55Z</time>
      </trkpt>
      <trkpt lat="41.97827" lon="0.98203">
        <ele>789.5</ele>
        <time>2019-01-31T20:29:01Z</time>
      </trkpt>
      <trkpt lat="41.97836" lon="0.982">
        <ele>788.4</ele>
        <time>2019-01-31T20:29:07Z</time>
      </trkpt>
      <trkpt lat="41.97847" lon="0.98195">
        <ele>787.6</ele>
        <time>2019-01-31T20:29:13Z</time>
      </trkpt>
      <trkpt lat="41.97857" lon="0.9819">
        <ele>786</ele>
        <time>2019-01-31T20:29:19Z</time>
      </trkpt>
      <trkpt lat="41.97865" lon="0.98195">
        <ele>784.1</ele>
        <time>2019-01-31T20:29:24Z</time>
      </trkpt>
      <trkpt lat="41.97863" lon="0.98209">
        <ele>781.7</ele>
        <time>2019-01-31T20:29:30Z</time>
      </trkpt>
      <trkpt lat="41.97867" lon="0.98221">
        <ele>781.2</ele>
        <time>2019-01-31T20:29:36Z</time>
      </trkpt>
      <trkpt lat="41.97872" lon="0.98235">
        <ele>781.3</ele>
        <time>2019-01-31T20:29:42Z</time>
      </trkpt>
      <trkpt lat="41.97877" lon="0.98246">
        <ele>781.3</ele>
        <time>2019-01-31T20:29:48Z</time>
      </trkpt>
      <trkpt lat="41.97884" lon="0.98256">
        <ele>782.2</ele>
        <time>2019-01-31T20:29:54Z</time>
      </trkpt>
      <trkpt lat="41.97892" lon="0.98264">
        <ele>783.6</ele>
        <time>2019-01-31T20:29:59Z</time>
      </trkpt>
      <trkpt lat="41.979" lon="0.98271">
        <ele>784.1</ele>
        <time>2019-01-31T20:30:05Z</time>
      </trkpt>
      <trkpt lat="41.97909" lon="0.98279">
        <ele>784.7</ele>
        <time>2019-01-31T20:30:11Z</time>
      </trkpt>
      <trkpt lat="41.97917" lon="0.98285">
        <ele>785.5</ele>
        <time>2019-01-31T20:30:16Z</time>
      </trkpt>
      <trkpt lat="41.97925" lon="0.98289">
        <ele>787.1</ele>
        <time>2019-01-31T20:30:21Z</time>
      </trkpt>
      <trkpt lat="41.97935" lon="0.98293">
        <ele>787.5</ele>
        <time>2019-01-31T20:30:27Z</time>
      </trkpt>
      <trkpt lat="41.97944" lon="0.98296">
        <ele>788.9</ele>
        <time>2019-01-31T20:30:33Z</time>
      </trkpt>
      <trkpt lat="41.97954" lon="0.983">
        <ele>790.8</ele>
        <time>2019-01-31T20:30:39Z</time>
      </trkpt>
      <trkpt lat="41.97965" lon="0.98303">
        <ele>791.9</ele>
        <time>2019-01-31T20:30:44Z</time>
      </trkpt>
      <trkpt lat="41.97975" lon="0.98306">
        <ele>793.3</ele>
        <time>2019-01-31T20:30:51Z</time>
      </trkpt>
      <trkpt lat="41.97985" lon="0.9831">
        <ele>794.3</ele>
        <time>2019-01-31T20:30:57Z</time>
      </trkpt>
      <trkpt lat="41.97994" lon="0.98314">
        <ele>795.2</ele>
        <time>2019-01-31T20:31:02Z</time>
      </trkpt>
      <trkpt lat="41.98003" lon="0.98318">
        <ele>796.6</ele>
        <time>2019-01-31T20:31:08Z</time>
      </trkpt>
      <trkpt lat="41.98013" lon="0.98321">
        <ele>797.6</ele>
        <time>2019-01-31T20:31:13Z</time>
      </trkpt>
      <trkpt lat="41.98022" lon="0.98325">
        <ele>798</ele>
        <time>2019-01-31T20:31:19Z</time>
      </trkpt>
      <trkpt lat="41.98032" lon="0.98326">
        <ele>799.1</ele>
        <time>2019-01-31T20:31:24Z</time>
      </trkpt>
      <trkpt lat="41.98042" lon="0.98326">
        <ele>800.4</ele>
        <time>2019-01-31T20:31:30Z</time>
      </trkpt>
      <trkpt lat="41.98051" lon="0.98327">
        <ele>802.4</ele>
        <time>2019-01-31T20:31:35Z</time>
      </trkpt>
      <trkpt lat="41.98061" lon="0.98328">
        <ele>803.3</ele>
        <time>2019-01-31T20:31:41Z</time>
      </trkpt>
      <trkpt lat="41.98071" lon="0.98329">
        <ele>805.3</ele>
        <time>2019-01-31T20:31:47Z</time>
      </trkpt>
      <trkpt lat="41.98081" lon="0.98331">
        <ele>806.8</ele>
        <time>2019-01-31T20:31:53Z</time>
      </trkpt>
      <trkpt lat="41.9809" lon="0.98333">
        <ele>807.6</ele>
        <time>2019-01-31T20:31:58Z</time>
      </trkpt>
      <trkpt lat="41.981" lon="0.98337">
        <ele>809.2</ele>
        <time>2019-01-31T20:32:04Z</time>
      </trkpt>
      <trkpt lat="41.98109" lon="0.98342">
        <ele>810.2</ele>
        <time>2019-01-31T20:32:09Z</time>
      </trkpt>
      <trkpt lat="41.98118" lon="0.98346">
        <ele>811.1</ele>
        <time>2019-01-31T20:32:15Z</time>
      </trkpt>
      <trkpt lat="41.98128" lon="0.98345">
        <ele>813</ele>
        <time>2019-01-31T20:32:20Z</time>
      </trkpt>
      <trkpt lat="41.98138" lon="0.98347">
        <ele>814.4</ele>
        <time>2019-01-31T20:32:26Z</time>
      </trkpt>
      <trkpt lat="41.98148" lon="0.9835">
        <ele>815.9</ele>
        <time>2019-01-31T20:32:32Z</time>
      </trkpt>
      <trkpt lat="41.98158" lon="0.98354">
        <ele>817.3</ele>
        <time>2019-01-31T20:32:38Z</time>
      </trkpt>
      <trkpt lat="41.98167" lon="0.98358">
        <ele>818.2</ele>
        <time>2019-01-31T20:32:44Z</time>
      </trkpt>
      <trkpt lat="41.98177" lon="0.98362">
        <ele>819.7</ele>
        <time>2019-01-31T20:32:49Z</time>
      </trkpt>
      <trkpt lat="41.98186" lon="0.98365">
        <ele>821.7</ele>
        <time>2019-01-31T20:32:55Z</time>
      </trkpt>
      <trkpt lat="41.98196" lon="0.98366">
        <ele>823</ele>
        <time>2019-01-31T20:33:00Z</time>
      </trkpt>
      <trkpt lat="41.98205" lon="0.9837">
        <ele>824.6</ele>
        <time>2019-01-31T20:33:06Z</time>
      </trkpt>
      <trkpt lat="41.98215" lon="0.98375">
        <ele>826.4</ele>
        <time>2019-01-31T20:33:12Z</time>
      </trkpt>
      <trkpt lat="41.98225" lon="0.98377">
        <ele>827.4</ele>
        <time>2019-01-31T20:33:18Z</time>
      </trkpt>
      <trkpt lat="41.98235" lon="0.98377">
        <ele>828.8</ele>
        <time>2019-01-31T20:33:24Z</time>
      </trkpt>
      <trkpt lat="41.98245" lon="0.98374">
        <ele>830.2</ele>
        <time>2019-01-31T20:33:29Z</time>
      </trkpt>
      <trkpt lat="41.98254" lon="0.98377">
        <ele>831.8</ele>
        <time>2019-01-31T20:33:35Z</time>
      </trkpt>
      <trkpt lat="41.98263" lon="0.98382">
        <ele>832.6</ele>
        <time>2019-01-31T20:33:40Z</time>
      </trkpt>
      <trkpt lat="41.98273" lon="0.98389">
        <ele>833.6</ele>
        <time>2019-01-31T20:33:47Z</time>
      </trkpt>
      <trkpt lat="41.98282" lon="0.98395">
        <ele>834.2</ele>
        <time>2019-01-31T20:33:52Z</time>
      </trkpt>
      <trkpt lat="41.9829" lon="0.98401">
        <ele>834.1</ele>
        <time>2019-01-31T20:33:58Z</time>
      </trkpt>
      <trkpt lat="41.98299" lon="0.98406">
        <ele>832.7</ele>
        <time>2019-01-31T20:34:03Z</time>
      </trkpt>
      <trkpt lat="41.98308" lon="0.98414">
        <ele>831.3</ele>
        <time>2019-01-31T20:34:10Z</time>
      </trkpt>
      <trkpt lat="41.98311" lon="0.98428">
        <ele>830.8</ele>
        <time>2019-01-31T20:34:16Z</time>
      </trkpt>
      <trkpt lat="41.98308" lon="0.98444">
        <ele>828.9</ele>
        <time>2019-01-31T20:34:23Z</time>
      </trkpt>
      <trkpt lat="41.98303" lon="0.98456">
        <ele>827.5</ele>
        <time>2019-01-31T20:34:29Z</time>
      </trkpt>
      <trkpt lat="41.98298" lon="0.98469">
        <ele>825.1</ele>
        <time>2019-01-31T20:34:35Z</time>
      </trkpt>
      <trkpt lat="41.98293" lon="0.9848">
        <ele>824</ele>
        <time>2019-01-31T20:34:40Z</time>
      </trkpt>
      <trkpt lat="41.98289" lon="0.98491">
        <ele>822.1</ele>
        <time>2019-01-31T20:34:46Z</time>
      </trkpt>
      <trkpt lat="41.98284" lon="0.98503">
        <ele>820.6</ele>
        <time>2019-01-31T20:34:52Z</time>
      </trkpt>
      <trkpt lat="41.98279" lon="0.98515">
        <ele>819.8</ele>
        <time>2019-01-31T20:34:57Z</time>
      </trkpt>
      <trkpt lat="41.98272" lon="0.98527">
        <ele>818.8</ele>
        <time>2019-01-31T20:35:04Z</time>
      </trkpt>
      <trkpt lat="41.98265" lon="0.98537">
        <ele>817.3</ele>
        <time>2019-01-31T20:35:09Z</time>
      </trkpt>
      <trkpt lat="41.98259" lon="0.98549">
        <ele>816.4</ele>
        <time>2019-01-31T20:35:16Z</time>
      </trkpt>
      <trkpt lat="41.98253" lon="0.98559">
        <ele>815</ele>
        <time>2019-01-31T20:35:21Z</time>
      </trkpt>
      <trkpt lat="41.98247" lon="0.9857">
        <ele>812.5</ele>
        <time>2019-01-31T20:35:27Z</time>
      </trkpt>
      <trkpt lat="41.98241" lon="0.98581">
        <ele>811</ele>
        <time>2019-01-31T20:35:33Z</time>
      </trkpt>
      <trkpt lat="41.98235" lon="0.98592">
        <ele>809.6</ele>
        <time>2019-01-31T20:35:38Z</time>
      </trkpt>
      <trkpt lat="41.9823" lon="0.98604">
        <ele>806.2</ele>
        <time>2019-01-31T20:35:44Z</time>
      </trkpt>
      <trkpt lat="41.98223" lon="0.98615">
        <ele>805.2</ele>
        <time>2019-01-31T20:35:51Z</time>
      </trkpt>
      <trkpt lat="41.98215" lon="0.98626">
        <ele>803.8</ele>
        <time>2019-01-31T20:35:57Z</time>
      </trkpt>
      <trkpt lat="41.98208" lon="0.98637">
        <ele>802.5</ele>
        <time>2019-01-31T20:36:03Z</time>
      </trkpt>
      <trkpt lat="41.98201" lon="0.98648">
        <ele>801</ele>
        <time>2019-01-31T20:36:09Z</time>
      </trkpt>
      <trkpt lat="41.98195" lon="0.98661">
        <ele>799.5</ele>
        <time>2019-01-31T20:36:16Z</time>
      </trkpt>
      <trkpt lat="41.9819" lon="0.98674">
        <ele>797.6</ele>
        <time>2019-01-31T20:36:22Z</time>
      </trkpt>
      <trkpt lat="41.98185" lon="0.98688">
        <ele>796.1</ele>
        <time>2019-01-31T20:36:28Z</time>
      </trkpt>
      <trkpt lat="41.98181" lon="0.98701">
        <ele>795.2</ele>
        <time>2019-01-31T20:36:35Z</time>
      </trkpt>
      <trkpt lat="41.98178" lon="0.98715">
        <ele>794.3</ele>
        <time>2019-01-31T20:36:41Z</time>
      </trkpt>
      <trkpt lat="41.98174" lon="0.98729">
        <ele>793.3</ele>
        <time>2019-01-31T20:36:47Z</time>
      </trkpt>
      <trkpt lat="41.98171" lon="0.98742">
        <ele>792.7</ele>
        <time>2019-01-31T20:36:53Z</time>
      </trkpt>
      <trkpt lat="41.98168" lon="0.98755">
        <ele>791.8</ele>
        <time>2019-01-31T20:36:59Z</time>
      </trkpt>
      <trkpt lat="41.98164" lon="0.98767">
        <ele>790.8</ele>
        <time>2019-01-31T20:37:04Z</time>
      </trkpt>
      <trkpt lat="41.98159" lon="0.98778">
        <ele>789</ele>
        <time>2019-01-31T20:37:10Z</time>
      </trkpt>
      <trkpt lat="41.98155" lon="0.98788">
        <ele>788.9</ele>
        <time>2019-01-31T20:37:15Z</time>
      </trkpt>
      <trkpt lat="41.9815" lon="0.98799">
        <ele>786.6</ele>
        <time>2019-01-31T20:37:20Z</time>
      </trkpt>
      <trkpt lat="41.98145" lon="0.98811">
        <ele>785.1</ele>
        <time>2019-01-31T20:37:26Z</time>
      </trkpt>
      <trkpt lat="41.98141" lon="0.98821">
        <ele>783.2</ele>
        <time>2019-01-31T20:37:31Z</time>
      </trkpt>
      <trkpt lat="41.98138" lon="0.98833">
        <ele>781.3</ele>
        <time>2019-01-31T20:37:36Z</time>
      </trkpt>
      <trkpt lat="41.98134" lon="0.98846">
        <ele>779.8</ele>
        <time>2019-01-31T20:37:42Z</time>
      </trkpt>
      <trkpt lat="41.9813" lon="0.98858">
        <ele>778.9</ele>
        <time>2019-01-31T20:37:48Z</time>
      </trkpt>
      <trkpt lat="41.98125" lon="0.98871">
        <ele>776.9</ele>
        <time>2019-01-31T20:37:54Z</time>
      </trkpt>
      <trkpt lat="41.98121" lon="0.98883">
        <ele>775.4</ele>
        <time>2019-01-31T20:38:00Z</time>
      </trkpt>
      <trkpt lat="41.98117" lon="0.98897">
        <ele>773.5</ele>
        <time>2019-01-31T20:38:06Z</time>
      </trkpt>
      <trkpt lat="41.98111" lon="0.9891">
        <ele>772.6</ele>
        <time>2019-01-31T20:38:12Z</time>
      </trkpt>
      <trkpt lat="41.98105" lon="0.98922">
        <ele>770.7</ele>
        <time>2019-01-31T20:38:19Z</time>
      </trkpt>
      <trkpt lat="41.98098" lon="0.98935">
        <ele>769.2</ele>
        <time>2019-01-31T20:38:25Z</time>
      </trkpt>
      <trkpt lat="41.98091" lon="0.98947">
        <ele>767.4</ele>
        <time>2019-01-31T20:38:32Z</time>
      </trkpt>
      <trkpt lat="41.98083" lon="0.98959">
        <ele>765.8</ele>
        <time>2019-01-31T20:38:38Z</time>
      </trkpt>
      <trkpt lat="41.98077" lon="0.9897">
        <ele>765.4</ele>
        <time>2019-01-31T20:38:45Z</time>
      </trkpt>
      <trkpt lat="41.98073" lon="0.98983">
        <ele>764.5</ele>
        <time>2019-01-31T20:38:51Z</time>
      </trkpt>
      <trkpt lat="41.98072" lon="0.98998">
        <ele>763.5</ele>
        <time>2019-01-31T20:38:57Z</time>
      </trkpt>
      <trkpt lat="41.98073" lon="0.9901">
        <ele>762</ele>
        <time>2019-01-31T20:39:02Z</time>
      </trkpt>
      <trkpt lat="41.98077" lon="0.99022">
        <ele>760.5</ele>
        <time>2019-01-31T20:39:08Z</time>
      </trkpt>
      <trkpt lat="41.98082" lon="0.99034">
        <ele>758.6</ele>
        <time>2019-01-31T20:39:13Z</time>
      </trkpt>
      <trkpt lat="41.98086" lon="0.99047">
        <ele>756.8</ele>
        <time>2019-01-31T20:39:19Z</time>
      </trkpt>
      <trkpt lat="41.98091" lon="0.99061">
        <ele>755.8</ele>
        <time>2019-01-31T20:39:26Z</time>
      </trkpt>
      <trkpt lat="41.98095" lon="0.99074">
        <ele>754.4</ele>
        <time>2019-01-31T20:39:32Z</time>
      </trkpt>
      <trkpt lat="41.981" lon="0.99087">
        <ele>753.8</ele>
        <time>2019-01-31T20:39:38Z</time>
      </trkpt>
      <trkpt lat="41.98105" lon="0.991">
        <ele>752.9</ele>
        <time>2019-01-31T20:39:45Z</time>
      </trkpt>
      <trkpt lat="41.98109" lon="0.99115">
        <ele>751.4</ele>
        <time>2019-01-31T20:39:51Z</time>
      </trkpt>
      <trkpt lat="41.98112" lon="0.99129">
        <ele>750.5</ele>
        <time>2019-01-31T20:39:58Z</time>
      </trkpt>
      <trkpt lat="41.98115" lon="0.99143">
        <ele>750.6</ele>
        <time>2019-01-31T20:40:04Z</time>
      </trkpt>
      <trkpt lat="41.98117" lon="0.99157">
        <ele>749.1</ele>
        <time>2019-01-31T20:40:10Z</time>
      </trkpt>
      <trkpt lat="41.98118" lon="0.99172">
        <ele>748.5</ele>
        <time>2019-01-31T20:40:16Z</time>
      </trkpt>
      <trkpt lat="41.98114" lon="0.99185">
        <ele>747.6</ele>
        <time>2019-01-31T20:40:22Z</time>
      </trkpt>
      <trkpt lat="41.98109" lon="0.99198">
        <ele>746.2</ele>
        <time>2019-01-31T20:40:28Z</time>
      </trkpt>
      <trkpt lat="41.98102" lon="0.99208">
        <ele>744.7</ele>
        <time>2019-01-31T20:40:34Z</time>
      </trkpt>
      <trkpt lat="41.98098" lon="0.99219">
        <ele>742.9</ele>
        <time>2019-01-31T20:40:39Z</time>
      </trkpt>
      <trkpt lat="41.98103" lon="0.99228">
        <ele>741.3</ele>
        <time>2019-01-31T20:40:44Z</time>
      </trkpt>
      <trkpt lat="41.98111" lon="0.99229">
        <ele>740.4</ele>
        <time>2019-01-31T20:40:49Z</time>
      </trkpt>
      <trkpt lat="41.98122" lon="0.99231">
        <ele>739.9</ele>
        <time>2019-01-31T20:40:55Z</time>
      </trkpt>
      <trkpt lat="41.98132" lon="0.99234">
        <ele>739.5</ele>
        <time>2019-01-31T20:41:01Z</time>
      </trkpt>
      <trkpt lat="41.98141" lon="0.99237">
        <ele>738.5</ele>
        <time>2019-01-31T20:41:06Z</time>
      </trkpt>
      <trkpt lat="41.98151" lon="0.99234">
        <ele>737.6</ele>
        <time>2019-01-31T20:41:12Z</time>
      </trkpt>
      <trkpt lat="41.98159" lon="0.99228">
        <ele>736.5</ele>
        <time>2019-01-31T20:41:18Z</time>
      </trkpt>
      <trkpt lat="41.98168" lon="0.99221">
        <ele>736</ele>
        <time>2019-01-31T20:41:23Z</time>
      </trkpt>
      <trkpt lat="41.98176" lon="0.99215">
        <ele>735.1</ele>
        <time>2019-01-31T20:41:29Z</time>
      </trkpt>
      <trkpt lat="41.98185" lon="0.99209">
        <ele>734.6</ele>
        <time>2019-01-31T20:41:34Z</time>
      </trkpt>
      <trkpt lat="41.98189" lon="0.99198">
        <ele>734.2</ele>
        <time>2019-01-31T20:41:40Z</time>
      </trkpt>
      <trkpt lat="41.98186" lon="0.99186">
        <ele>733.2</ele>
        <time>2019-01-31T20:41:45Z</time>
      </trkpt>
      <trkpt lat="41.98182" lon="0.99173">
        <ele>731.2</ele>
        <time>2019-01-31T20:41:51Z</time>
      </trkpt>
      <trkpt lat="41.9818" lon="0.99161">
        <ele>730.3</ele>
        <time>2019-01-31T20:41:56Z</time>
      </trkpt>
      <trkpt lat="41.98179" lon="0.99148">
        <ele>729.9</ele>
        <time>2019-01-31T20:42:02Z</time>
      </trkpt>
      <trkpt lat="41.9818" lon="0.99134">
        <ele>728.4</ele>
        <time>2019-01-31T20:42:08Z</time>
      </trkpt>
      <trkpt lat="41.98182" lon="0.99121">
        <ele>727.5</ele>
        <time>2019-01-31T20:42:13Z</time>
      </trkpt>
      <trkpt lat="41.98182" lon="0.99108">
        <ele>726.4</ele>
        <time>2019-01-31T20:42:19Z</time>
      </trkpt>
      <trkpt lat="41.98184" lon="0.99094">
        <ele>725.5</ele>
        <time>2019-01-31T20:42:25Z</time>
      </trkpt>
      <trkpt lat="41.98187" lon="0.99081">
        <ele>724.6</ele>
        <time>2019-01-31T20:42:31Z</time>
      </trkpt>
      <trkpt lat="41.9819" lon="0.99068">
        <ele>723.6</ele>
        <time>2019-01-31T20:42:37Z</time>
      </trkpt>
      <trkpt lat="41.98192" lon="0.99054">
        <ele>722.7</ele>
        <time>2019-01-31T20:42:42Z</time>
      </trkpt>
      <trkpt lat="41.98193" lon="0.9904">
        <ele>721.7</ele>
        <time>2019-01-31T20:42:48Z</time>
      </trkpt>
      <trkpt lat="41.98194" lon="0.99027">
        <ele>720.7</ele>
        <time>2019-01-31T20:42:54Z</time>
      </trkpt>
      <trkpt lat="41.982" lon="0.99015">
        <ele>719.8</ele>
        <time>2019-01-31T20:43:00Z</time>
      </trkpt>
      <trkpt lat="41.98208" lon="0.99008">
        <ele>718.7</ele>
        <time>2019-01-31T20:43:06Z</time>
      </trkpt>
      <trkpt lat="41.98217" lon="0.99">
        <ele>717.4</ele>
        <time>2019-01-31T20:43:12Z</time>
      </trkpt>
      <trkpt lat="41.98226" lon="0.98996">
        <ele>715.8</ele>
        <time>2019-01-31T20:43:18Z</time>
      </trkpt>
      <trkpt lat="41.98232" lon="0.99008">
        <ele>713.9</ele>
        <time>2019-01-31T20:43:24Z</time>
      </trkpt>
      <trkpt lat="41.98238" lon="0.99021">
        <ele>711</ele>
        <time>2019-01-31T20:43:30Z</time>
      </trkpt>
      <trkpt lat="41.98242" lon="0.99035">
        <ele>708.2</ele>
        <time>2019-01-31T20:43:37Z</time>
      </trkpt>
      <trkpt lat="41.98248" lon="0.99046">
        <ele>706.2</ele>
        <time>2019-01-31T20:43:42Z</time>
      </trkpt>
      <trkpt lat="41.98254" lon="0.99057">
        <ele>704.8</ele>
        <time>2019-01-31T20:43:48Z</time>
      </trkpt>
      <trkpt lat="41.98259" lon="0.99068">
        <ele>704.8</ele>
        <time>2019-01-31T20:43:54Z</time>
      </trkpt>
      <trkpt lat="41.98269" lon="0.99072">
        <ele>703.8</ele>
        <time>2019-01-31T20:44:00Z</time>
      </trkpt>
      <trkpt lat="41.98279" lon="0.99073">
        <ele>703</ele>
        <time>2019-01-31T20:44:05Z</time>
      </trkpt>
      <trkpt lat="41.98289" lon="0.99074">
        <ele>701.5</ele>
        <time>2019-01-31T20:44:11Z</time>
      </trkpt>
      <trkpt lat="41.98298" lon="0.99073">
        <ele>700.5</ele>
        <time>2019-01-31T20:44:16Z</time>
      </trkpt>
      <trkpt lat="41.98307" lon="0.9908">
        <ele>699.6</ele>
        <time>2019-01-31T20:44:22Z</time>
      </trkpt>
      <trkpt lat="41.98317" lon="0.99081">
        <ele>698.5</ele>
        <time>2019-01-31T20:44:28Z</time>
      </trkpt>
      <trkpt lat="41.98328" lon="0.99079">
        <ele>696.6</ele>
        <time>2019-01-31T20:44:34Z</time>
      </trkpt>
      <trkpt lat="41.98336" lon="0.99072">
        <ele>695.7</ele>
        <time>2019-01-31T20:44:40Z</time>
      </trkpt>
      <trkpt lat="41.98345" lon="0.99069">
        <ele>694.3</ele>
        <time>2019-01-31T20:44:45Z</time>
      </trkpt>
      <trkpt lat="41.98354" lon="0.99068">
        <ele>693.4</ele>
        <time>2019-01-31T20:44:50Z</time>
      </trkpt>
      <trkpt lat="41.98364" lon="0.99069">
        <ele>691.8</ele>
        <time>2019-01-31T20:44:56Z</time>
      </trkpt>
      <trkpt lat="41.98373" lon="0.99075">
        <ele>691.3</ele>
        <time>2019-01-31T20:45:02Z</time>
      </trkpt>
      <trkpt lat="41.98382" lon="0.99081">
        <ele>690.8</ele>
        <time>2019-01-31T20:45:07Z</time>
      </trkpt>
      <trkpt lat="41.98391" lon="0.99085">
        <ele>689.5</ele>
        <time>2019-01-31T20:45:13Z</time>
      </trkpt>
      <trkpt lat="41.98401" lon="0.99089">
        <ele>689</ele>
        <time>2019-01-31T20:45:19Z</time>
      </trkpt>
      <trkpt lat="41.98409" lon="0.99094">
        <ele>687.6</ele>
        <time>2019-01-31T20:45:24Z</time>
      </trkpt>
      <trkpt lat="41.9842" lon="0.99098">
        <ele>686</ele>
        <time>2019-01-31T20:45:30Z</time>
      </trkpt>
      <trkpt lat="41.98429" lon="0.99102">
        <ele>684.6</ele>
        <time>2019-01-31T20:45:36Z</time>
      </trkpt>
      <trkpt lat="41.98438" lon="0.99107">
        <ele>683.7</ele>
        <time>2019-01-31T20:45:41Z</time>
      </trkpt>
      <trkpt lat="41.98448" lon="0.99111">
        <ele>682.7</ele>
        <time>2019-01-31T20:45:47Z</time>
      </trkpt>
      <trkpt lat="41.98457" lon="0.99115">
        <ele>682.3</ele>
        <time>2019-01-31T20:45:53Z</time>
      </trkpt>
      <trkpt lat="41.98467" lon="0.99119">
        <ele>680.9</ele>
        <time>2019-01-31T20:45:59Z</time>
      </trkpt>
      <trkpt lat="41.98477" lon="0.99122">
        <ele>679.4</ele>
        <time>2019-01-31T20:46:05Z</time>
      </trkpt>
      <trkpt lat="41.98488" lon="0.99126">
        <ele>678.5</ele>
        <time>2019-01-31T20:46:11Z</time>
      </trkpt>
      <trkpt lat="41.98499" lon="0.99131">
        <ele>677.4</ele>
        <time>2019-01-31T20:46:18Z</time>
      </trkpt>
      <trkpt lat="41.98509" lon="0.99134">
        <ele>676.5</ele>
        <time>2019-01-31T20:46:24Z</time>
      </trkpt>
      <trkpt lat="41.98519" lon="0.99141">
        <ele>675</ele>
        <time>2019-01-31T20:46:30Z</time>
      </trkpt>
      <trkpt lat="41.98526" lon="0.99151">
        <ele>674</ele>
        <time>2019-01-31T20:46:36Z</time>
      </trkpt>
      <trkpt lat="41.98532" lon="0.99158">
        <ele>672.6</ele>
        <time>2019-01-31T20:46:41Z</time>
      </trkpt>
      <trkpt lat="41.98541" lon="0.99159">
        <ele>670.3</ele>
        <time>2019-01-31T20:46:45Z</time>
      </trkpt>
      <trkpt lat="41.98549" lon="0.99155">
        <ele>668.3</ele>
        <time>2019-01-31T20:46:50Z</time>
      </trkpt>
      <trkpt lat="41.98554" lon="0.99145">
        <ele>666.3</ele>
        <time>2019-01-31T20:46:55Z</time>
      </trkpt>
      <trkpt lat="41.98551" lon="0.99132">
        <ele>665.9</ele>
        <time>2019-01-31T20:47:01Z</time>
      </trkpt>
      <trkpt lat="41.98547" lon="0.99119">
        <ele>663.9</ele>
        <time>2019-01-31T20:47:07Z</time>
      </trkpt>
      <trkpt lat="41.98547" lon="0.99106">
        <ele>662.6</ele>
        <time>2019-01-31T20:47:13Z</time>
      </trkpt>
      <trkpt lat="41.98555" lon="0.99094">
        <ele>660.6</ele>
        <time>2019-01-31T20:47:19Z</time>
      </trkpt>
      <trkpt lat="41.98564" lon="0.9909">
        <ele>661</ele>
        <time>2019-01-31T20:47:25Z</time>
      </trkpt>
      <trkpt lat="41.98575" lon="0.99093">
        <ele>660.1</ele>
        <time>2019-01-31T20:47:32Z</time>
      </trkpt>
      <trkpt lat="41.98585" lon="0.99101">
        <ele>658.6</ele>
        <time>2019-01-31T20:47:38Z</time>
      </trkpt>
      <trkpt lat="41.98594" lon="0.99112">
        <ele>656.7</ele>
        <time>2019-01-31T20:47:45Z</time>
      </trkpt>
      <trkpt lat="41.98603" lon="0.99123">
        <ele>655.9</ele>
        <time>2019-01-31T20:47:52Z</time>
      </trkpt>
      <trkpt lat="41.98611" lon="0.99134">
        <ele>654.4</ele>
        <time>2019-01-31T20:47:59Z</time>
      </trkpt>
      <trkpt lat="41.9862" lon="0.99142">
        <ele>653.4</ele>
        <time>2019-01-31T20:48:05Z</time>
      </trkpt>
      <trkpt lat="41.98629" lon="0.99148">
        <ele>652.5</ele>
        <time>2019-01-31T20:48:10Z</time>
      </trkpt>
      <trkpt lat="41.98639" lon="0.99148">
        <ele>652.9</ele>
        <time>2019-01-31T20:48:16Z</time>
      </trkpt>
      <trkpt lat="41.98647" lon="0.99143">
        <ele>652.9</ele>
        <time>2019-01-31T20:48:21Z</time>
      </trkpt>
      <trkpt lat="41.98656" lon="0.9914">
        <ele>653</ele>
        <time>2019-01-31T20:48:26Z</time>
      </trkpt>
      <trkpt lat="41.98665" lon="0.99139">
        <ele>653.9</ele>
        <time>2019-01-31T20:48:32Z</time>
      </trkpt>
      <trkpt lat="41.98674" lon="0.99136">
        <ele>653.8</ele>
        <time>2019-01-31T20:48:37Z</time>
      </trkpt>
      <trkpt lat="41.98683" lon="0.99128">
        <ele>653.8</ele>
        <time>2019-01-31T20:48:43Z</time>
      </trkpt>
      <trkpt lat="41.98686" lon="0.99119">
        <ele>654.3</ele>
        <time>2019-01-31T20:48:48Z</time>
      </trkpt>
      <trkpt lat="41.98689" lon="0.99107">
        <ele>654.4</ele>
        <time>2019-01-31T20:48:53Z</time>
      </trkpt>
      <trkpt lat="41.98692" lon="0.99095">
        <ele>654.8</ele>
        <time>2019-01-31T20:48:58Z</time>
      </trkpt>
      <trkpt lat="41.98696" lon="0.99083">
        <ele>655.3</ele>
        <time>2019-01-31T20:49:04Z</time>
      </trkpt>
      <trkpt lat="41.987" lon="0.99071">
        <ele>655.4</ele>
        <time>2019-01-31T20:49:09Z</time>
      </trkpt>
      <trkpt lat="41.98705" lon="0.99057">
        <ele>655.8</ele>
        <time>2019-01-31T20:49:16Z</time>
      </trkpt>
      <trkpt lat="41.98712" lon="0.99044">
        <ele>656.2</ele>
        <time>2019-01-31T20:49:23Z</time>
      </trkpt>
      <trkpt lat="41.9872" lon="0.99036">
        <ele>656.2</ele>
        <time>2019-01-31T20:49:29Z</time>
      </trkpt>
      <trkpt lat="41.98726" lon="0.99027">
        <ele>656.3</ele>
        <time>2019-01-31T20:49:34Z</time>
      </trkpt>
      <trkpt lat="41.98731" lon="0.99015">
        <ele>655.3</ele>
        <time>2019-01-31T20:49:39Z</time>
      </trkpt>
      <trkpt lat="41.98735" lon="0.99004">
        <ele>654.3</ele>
        <time>2019-01-31T20:49:45Z</time>
      </trkpt>
      <trkpt lat="41.98739" lon="0.98992">
        <ele>653.4</ele>
        <time>2019-01-31T20:49:50Z</time>
      </trkpt>
      <trkpt lat="41.98746" lon="0.98981">
        <ele>652.9</ele>
        <time>2019-01-31T20:49:57Z</time>
      </trkpt>
      <trkpt lat="41.98755" lon="0.98974">
        <ele>653</ele>
        <time>2019-01-31T20:50:02Z</time>
      </trkpt>
      <trkpt lat="41.98764" lon="0.9897">
        <ele>653</ele>
        <time>2019-01-31T20:50:08Z</time>
      </trkpt>
      <trkpt lat="41.98773" lon="0.98963">
        <ele>652.9</ele>
        <time>2019-01-31T20:50:14Z</time>
      </trkpt>
      <trkpt lat="41.98778" lon="0.98953">
        <ele>652.9</ele>
        <time>2019-01-31T20:50:19Z</time>
      </trkpt>
      <trkpt lat="41.98785" lon="0.98947">
        <ele>653</ele>
        <time>2019-01-31T20:50:24Z</time>
      </trkpt>
      <trkpt lat="41.98794" lon="0.9895">
        <ele>653.8</ele>
        <time>2019-01-31T20:50:29Z</time>
      </trkpt>
      <trkpt lat="41.98804" lon="0.98953">
        <ele>654.4</ele>
        <time>2019-01-31T20:50:35Z</time>
      </trkpt>
      <trkpt lat="41.98814" lon="0.98954">
        <ele>655.4</ele>
        <time>2019-01-31T20:50:40Z</time>
      </trkpt>
      <trkpt lat="41.98824" lon="0.98951">
        <ele>655.3</ele>
        <time>2019-01-31T20:50:46Z</time>
      </trkpt>
      <trkpt lat="41.98833" lon="0.98944">
        <ele>655.3</ele>
        <time>2019-01-31T20:50:52Z</time>
      </trkpt>
      <trkpt lat="41.9884" lon="0.98936">
        <ele>653.5</ele>
        <time>2019-01-31T20:50:58Z</time>
      </trkpt>
      <trkpt lat="41.98847" lon="0.98926">
        <ele>652.9</ele>
        <time>2019-01-31T20:51:04Z</time>
      </trkpt>
      <trkpt lat="41.98854" lon="0.98919">
        <ele>652.9</ele>
        <time>2019-01-31T20:51:09Z</time>
      </trkpt>
      <trkpt lat="41.98863" lon="0.98912">
        <ele>652</ele>
        <time>2019-01-31T20:51:15Z</time>
      </trkpt>
      <trkpt lat="41.98871" lon="0.98904">
        <ele>651.5</ele>
        <time>2019-01-31T20:51:20Z</time>
      </trkpt>
      <trkpt lat="41.98877" lon="0.98895">
        <ele>651.5</ele>
        <time>2019-01-31T20:51:25Z</time>
      </trkpt>
      <trkpt lat="41.98884" lon="0.98886">
        <ele>651.4</ele>
        <time>2019-01-31T20:51:31Z</time>
      </trkpt>
      <trkpt lat="41.98891" lon="0.98878">
        <ele>651.5</ele>
        <time>2019-01-31T20:51:36Z</time>
      </trkpt>
      <trkpt lat="41.989" lon="0.9887">
        <ele>651.4</ele>
        <time>2019-01-31T20:51:42Z</time>
      </trkpt>
      <trkpt lat="41.98908" lon="0.98862">
        <ele>651.4</ele>
        <time>2019-01-31T20:51:48Z</time>
      </trkpt>
      <trkpt lat="41.98915" lon="0.98853">
        <ele>651.4</ele>
        <time>2019-01-31T20:51:53Z</time>
      </trkpt>
      <trkpt lat="41.98922" lon="0.98843">
        <ele>651.4</ele>
        <time>2019-01-31T20:51:59Z</time>
      </trkpt>
      <trkpt lat="41.98928" lon="0.98833">
        <ele>651.5</ele>
        <time>2019-01-31T20:52:05Z</time>
      </trkpt>
      <trkpt lat="41.98933" lon="0.98821">
        <ele>651.5</ele>
        <time>2019-01-31T20:52:11Z</time>
      </trkpt>
      <trkpt lat="41.98937" lon="0.98809">
        <ele>649.6</ele>
        <time>2019-01-31T20:52:16Z</time>
      </trkpt>
      <trkpt lat="41.98945" lon="0.98804">
        <ele>649.1</ele>
        <time>2019-01-31T20:52:21Z</time>
      </trkpt>
      <trkpt lat="41.98955" lon="0.98801">
        <ele>647.6</ele>
        <time>2019-01-31T20:52:27Z</time>
      </trkpt>
      <trkpt lat="41.98965" lon="0.98799">
        <ele>646.6</ele>
        <time>2019-01-31T20:52:33Z</time>
      </trkpt>
      <trkpt lat="41.98973" lon="0.98791">
        <ele>647.2</ele>
        <time>2019-01-31T20:52:39Z</time>
      </trkpt>
      <trkpt lat="41.98979" lon="0.9878">
        <ele>646.7</ele>
        <time>2019-01-31T20:52:44Z</time>
      </trkpt>
      <trkpt lat="41.98982" lon="0.98766">
        <ele>646.1</ele>
        <time>2019-01-31T20:52:51Z</time>
      </trkpt>
      <trkpt lat="41.98988" lon="0.98754">
        <ele>643.7</ele>
        <time>2019-01-31T20:52:57Z</time>
      </trkpt>
      <trkpt lat="41.98994" lon="0.98742">
        <ele>641.8</ele>
        <time>2019-01-31T20:53:03Z</time>
      </trkpt>
      <trkpt lat="41.98999" lon="0.98729">
        <ele>640.5</ele>
        <time>2019-01-31T20:53:09Z</time>
      </trkpt>
      <trkpt lat="41.99001" lon="0.98715">
        <ele>639.5</ele>
        <time>2019-01-31T20:53:15Z</time>
      </trkpt>
      <trkpt lat="41.99006" lon="0.98705">
        <ele>639</ele>
        <time>2019-01-31T20:53:20Z</time>
      </trkpt>
      <trkpt lat="41.99015" lon="0.98705">
        <ele>640.9</ele>
        <time>2019-01-31T20:53:25Z</time>
      </trkpt>
      <trkpt lat="41.99024" lon="0.98714">
        <ele>642.3</ele>
        <time>2019-01-31T20:53:32Z</time>
      </trkpt>
      <trkpt lat="41.99034" lon="0.98727">
        <ele>643.3</ele>
        <time>2019-01-31T20:53:40Z</time>
      </trkpt>
      <trkpt lat="41.99042" lon="0.98738">
        <ele>643.7</ele>
        <time>2019-01-31T20:53:46Z</time>
      </trkpt>
      <trkpt lat="41.9905" lon="0.98748">
        <ele>644.2</ele>
        <time>2019-01-31T20:53:53Z</time>
      </trkpt>
      <trkpt lat="41.99059" lon="0.98757">
        <ele>645.7</ele>
        <time>2019-01-31T20:53:59Z</time>
      </trkpt>
      <trkpt lat="41.99065" lon="0.98766">
        <ele>647.1</ele>
        <time>2019-01-31T20:54:04Z</time>
      </trkpt>
      <trkpt lat="41.99068" lon="0.98779">
        <ele>648.2</ele>
        <time>2019-01-31T20:54:10Z</time>
      </trkpt>
      <trkpt lat="41.99072" lon="0.98792">
        <ele>650</ele>
        <time>2019-01-31T20:54:16Z</time>
      </trkpt>
      <trkpt lat="41.99078" lon="0.98804">
        <ele>651.5</ele>
        <time>2019-01-31T20:54:22Z</time>
      </trkpt>
      <trkpt lat="41.99087" lon="0.98809">
        <ele>653.5</ele>
        <time>2019-01-31T20:54:27Z</time>
      </trkpt>
      <trkpt lat="41.99096" lon="0.98811">
        <ele>654.9</ele>
        <time>2019-01-31T20:54:33Z</time>
      </trkpt>
      <trkpt lat="41.99105" lon="0.98814">
        <ele>655.9</ele>
        <time>2019-01-31T20:54:38Z</time>
      </trkpt>
      <trkpt lat="41.99115" lon="0.98816">
        <ele>657.8</ele>
        <time>2019-01-31T20:54:44Z</time>
      </trkpt>
      <trkpt lat="41.99125" lon="0.98819">
        <ele>658.7</ele>
        <time>2019-01-31T20:54:50Z</time>
      </trkpt>
      <trkpt lat="41.99136" lon="0.9882">
        <ele>661</ele>
        <time>2019-01-31T20:54:56Z</time>
      </trkpt>
      <trkpt lat="41.99147" lon="0.98821">
        <ele>663</ele>
        <time>2019-01-31T20:55:02Z</time>
      </trkpt>
      <trkpt lat="41.99158" lon="0.98822">
        <ele>664.4</ele>
        <time>2019-01-31T20:55:09Z</time>
      </trkpt>
      <trkpt lat="41.99169" lon="0.98826">
        <ele>664.9</ele>
        <time>2019-01-31T20:55:15Z</time>
      </trkpt>
      <trkpt lat="41.9918" lon="0.98836">
        <ele>665.9</ele>
        <time>2019-01-31T20:55:23Z</time>
      </trkpt>
      <trkpt lat="41.99186" lon="0.98847">
        <ele>667.4</ele>
        <time>2019-01-31T20:55:29Z</time>
      </trkpt>
      <trkpt lat="41.9919" lon="0.98861">
        <ele>668.4</ele>
        <time>2019-01-31T20:55:35Z</time>
      </trkpt>
      <trkpt lat="41.99194" lon="0.98876">
        <ele>668.7</ele>
        <time>2019-01-31T20:55:42Z</time>
      </trkpt>
      <trkpt lat="41.992" lon="0.98888">
        <ele>669.8</ele>
        <time>2019-01-31T20:55:48Z</time>
      </trkpt>
      <trkpt lat="41.99207" lon="0.98895">
        <ele>670.3</ele>
        <time>2019-01-31T20:55:53Z</time>
      </trkpt>
      <trkpt lat="41.99216" lon="0.989">
        <ele>671.6</ele>
        <time>2019-01-31T20:55:59Z</time>
      </trkpt>
      <trkpt lat="41.99225" lon="0.98907">
        <ele>672.2</ele>
        <time>2019-01-31T20:56:04Z</time>
      </trkpt>
      <trkpt lat="41.99226" lon="0.98919">
        <ele>672.6</ele>
        <time>2019-01-31T20:56:10Z</time>
      </trkpt>
      <trkpt lat="41.99223" lon="0.98931">
        <ele>673.5</ele>
        <time>2019-01-31T20:56:15Z</time>
      </trkpt>
      <trkpt lat="41.99217" lon="0.98943">
        <ele>674.5</ele>
        <time>2019-01-31T20:56:21Z</time>
      </trkpt>
      <trkpt lat="41.9921" lon="0.98957">
        <ele>676</ele>
        <time>2019-01-31T20:56:29Z</time>
      </trkpt>
      <trkpt lat="41.99206" lon="0.9897">
        <ele>677.4</ele>
        <time>2019-01-31T20:56:34Z</time>
      </trkpt>
      <trkpt lat="41.9921" lon="0.9898">
        <ele>678</ele>
        <time>2019-01-31T20:56:39Z</time>
      </trkpt>
      <trkpt lat="41.99218" lon="0.98987">
        <ele>678.9</ele>
        <time>2019-01-31T20:56:44Z</time>
      </trkpt>
      <trkpt lat="41.99226" lon="0.98995">
        <ele>679.8</ele>
        <time>2019-01-31T20:56:50Z</time>
      </trkpt>
      <trkpt lat="41.99233" lon="0.99006">
        <ele>681.3</ele>
        <time>2019-01-31T20:56:56Z</time>
      </trkpt>
      <trkpt lat="41.99239" lon="0.99014">
        <ele>682.2</ele>
        <time>2019-01-31T20:57:01Z</time>
      </trkpt>
      <trkpt lat="41.99246" lon="0.99023">
        <ele>682.7</ele>
        <time>2019-01-31T20:57:07Z</time>
      </trkpt>
      <trkpt lat="41.99255" lon="0.99037">
        <ele>683.6</ele>
        <time>2019-01-31T20:57:14Z</time>
      </trkpt>
      <trkpt lat="41.99261" lon="0.99048">
        <ele>684.1</ele>
        <time>2019-01-31T20:57:21Z</time>
      </trkpt>
      <trkpt lat="41.99266" lon="0.9906">
        <ele>685.1</ele>
        <time>2019-01-31T20:57:26Z</time>
      </trkpt>
      <trkpt lat="41.99269" lon="0.99073">
        <ele>686</ele>
        <time>2019-01-31T20:57:32Z</time>
      </trkpt>
      <trkpt lat="41.99271" lon="0.99088">
        <ele>687.1</ele>
        <time>2019-01-31T20:57:38Z</time>
      </trkpt>
      <trkpt lat="41.99273" lon="0.99103">
        <ele>687.1</ele>
        <time>2019-01-31T20:57:45Z</time>
      </trkpt>
      <trkpt lat="41.99272" lon="0.99117">
        <ele>685.7</ele>
        <time>2019-01-31T20:57:51Z</time>
      </trkpt>
      <trkpt lat="41.99272" lon="0.99131">
        <ele>685.2</ele>
        <time>2019-01-31T20:57:57Z</time>
      </trkpt>
      <trkpt lat="41.99272" lon="0.99145">
        <ele>684.7</ele>
        <time>2019-01-31T20:58:03Z</time>
      </trkpt>
      <trkpt lat="41.99274" lon="0.99159">
        <ele>684.2</ele>
        <time>2019-01-31T20:58:09Z</time>
      </trkpt>
      <trkpt lat="41.99277" lon="0.99172">
        <ele>683.6</ele>
        <time>2019-01-31T20:58:15Z</time>
      </trkpt>
      <trkpt lat="41.99282" lon="0.99185">
        <ele>683.2</ele>
        <time>2019-01-31T20:58:21Z</time>
      </trkpt>
      <trkpt lat="41.99286" lon="0.99199">
        <ele>682.2</ele>
        <time>2019-01-31T20:58:27Z</time>
      </trkpt>
      <trkpt lat="41.9929" lon="0.99211">
        <ele>682.3</ele>
        <time>2019-01-31T20:58:33Z</time>
      </trkpt>
      <trkpt lat="41.99292" lon="0.99223">
        <ele>681.2</ele>
        <time>2019-01-31T20:58:38Z</time>
      </trkpt>
      <trkpt lat="41.99296" lon="0.99235">
        <ele>681.3</ele>
        <time>2019-01-31T20:58:44Z</time>
      </trkpt>
      <trkpt lat="41.993" lon="0.99248">
        <ele>680.8</ele>
        <time>2019-01-31T20:58:49Z</time>
      </trkpt>
      <trkpt lat="41.99304" lon="0.99261">
        <ele>680.4</ele>
        <time>2019-01-31T20:58:55Z</time>
      </trkpt>
      <trkpt lat="41.99307" lon="0.99274">
        <ele>680.3</ele>
        <time>2019-01-31T20:59:01Z</time>
      </trkpt>
      <trkpt lat="41.99312" lon="0.99287">
        <ele>679.9</ele>
        <time>2019-01-31T20:59:07Z</time>
      </trkpt>
      <trkpt lat="41.99316" lon="0.993">
        <ele>679.9</ele>
        <time>2019-01-31T20:59:14Z</time>
      </trkpt>
      <trkpt lat="41.99321" lon="0.99316">
        <ele>679.3</ele>
        <time>2019-01-31T20:59:21Z</time>
      </trkpt>
      <trkpt lat="41.99325" lon="0.99329">
        <ele>678.8</ele>
        <time>2019-01-31T20:59:27Z</time>
      </trkpt>
      <trkpt lat="41.99327" lon="0.99343">
        <ele>678.4</ele>
        <time>2019-01-31T20:59:33Z</time>
      </trkpt>
      <trkpt lat="41.99328" lon="0.99357">
        <ele>678</ele>
        <time>2019-01-31T20:59:39Z</time>
      </trkpt>
      <trkpt lat="41.99329" lon="0.9937">
        <ele>677.5</ele>
        <time>2019-01-31T20:59:44Z</time>
      </trkpt>
      <trkpt lat="41.99328" lon="0.99382">
        <ele>677.4</ele>
        <time>2019-01-31T20:59:50Z</time>
      </trkpt>
      <trkpt lat="41.99323" lon="0.9939">
        <ele>678</ele>
        <time>2019-01-31T20:59:54Z</time>
      </trkpt>
      <trkpt lat="41.99316" lon="0.99389">
        <ele>676.4</ele>
        <time>2019-01-31T20:59:58Z</time>
      </trkpt>
      <trkpt lat="41.99307" lon="0.99391">
        <ele>675.5</ele>
        <time>2019-01-31T21:00:03Z</time>
      </trkpt>
      <trkpt lat="41.993" lon="0.99401">
        <ele>673.6</ele>
        <time>2019-01-31T21:00:09Z</time>
      </trkpt>
      <trkpt lat="41.99292" lon="0.99413">
        <ele>672.7</ele>
        <time>2019-01-31T21:00:15Z</time>
      </trkpt>
      <trkpt lat="41.99285" lon="0.99425">
        <ele>671.6</ele>
        <time>2019-01-31T21:00:22Z</time>
      </trkpt>
      <trkpt lat="41.9928" lon="0.99438">
        <ele>671.1</ele>
        <time>2019-01-31T21:00:28Z</time>
      </trkpt>
      <trkpt lat="41.99274" lon="0.9945">
        <ele>670.7</ele>
        <time>2019-01-31T21:00:35Z</time>
      </trkpt>
      <trkpt lat="41.9927" lon="0.99462">
        <ele>669.3</ele>
        <time>2019-01-31T21:00:40Z</time>
      </trkpt>
      <trkpt lat="41.99265" lon="0.99475">
        <ele>668.8</ele>
        <time>2019-01-31T21:00:46Z</time>
      </trkpt>
      <trkpt lat="41.99263" lon="0.99488">
        <ele>668.3</ele>
        <time>2019-01-31T21:00:52Z</time>
      </trkpt>
      <trkpt lat="41.99263" lon="0.995">
        <ele>668.4</ele>
        <time>2019-01-31T21:00:57Z</time>
      </trkpt>
      <trkpt lat="41.99263" lon="0.99515">
        <ele>668.4</ele>
        <time>2019-01-31T21:01:03Z</time>
      </trkpt>
      <trkpt lat="41.99263" lon="0.99529">
        <ele>667.9</ele>
        <time>2019-01-31T21:01:09Z</time>
      </trkpt>
      <trkpt lat="41.99263" lon="0.99543">
        <ele>667.8</ele>
        <time>2019-01-31T21:01:15Z</time>
      </trkpt>
      <trkpt lat="41.99266" lon="0.99558">
        <ele>667.3</ele>
        <time>2019-01-31T21:01:22Z</time>
      </trkpt>
      <trkpt lat="41.99267" lon="0.99571">
        <ele>667.3</ele>
        <time>2019-01-31T21:01:28Z</time>
      </trkpt>
      <trkpt lat="41.9927" lon="0.99583">
        <ele>666.8</ele>
        <time>2019-01-31T21:01:33Z</time>
      </trkpt>
      <trkpt lat="41.99273" lon="0.99595">
        <ele>666.3</ele>
        <time>2019-01-31T21:01:38Z</time>
      </trkpt>
      <trkpt lat="41.99277" lon="0.99609">
        <ele>665.9</ele>
        <time>2019-01-31T21:01:45Z</time>
      </trkpt>
      <trkpt lat="41.99281" lon="0.99624">
        <ele>665</ele>
        <time>2019-01-31T21:01:51Z</time>
      </trkpt>
      <trkpt lat="41.99285" lon="0.99636">
        <ele>665</ele>
        <time>2019-01-31T21:01:57Z</time>
      </trkpt>
      <trkpt lat="41.99288" lon="0.9965">
        <ele>664</ele>
        <time>2019-01-31T21:02:03Z</time>
      </trkpt>
      <trkpt lat="41.99287" lon="0.99666">
        <ele>663.5</ele>
        <time>2019-01-31T21:02:10Z</time>
      </trkpt>
      <trkpt lat="41.99285" lon="0.99678">
        <ele>663.6</ele>
        <time>2019-01-31T21:02:15Z</time>
      </trkpt>
      <trkpt lat="41.9928" lon="0.99693">
        <ele>663.6</ele>
        <time>2019-01-31T21:02:22Z</time>
      </trkpt>
      <trkpt lat="41.99272" lon="0.99704">
        <ele>663.1</ele>
        <time>2019-01-31T21:02:29Z</time>
      </trkpt>
      <trkpt lat="41.99263" lon="0.99713">
        <ele>662.5</ele>
        <time>2019-01-31T21:02:36Z</time>
      </trkpt>
      <trkpt lat="41.99254" lon="0.99719">
        <ele>662</ele>
        <time>2019-01-31T21:02:41Z</time>
      </trkpt>
      <trkpt lat="41.99246" lon="0.99725">
        <ele>661.5</ele>
        <time>2019-01-31T21:02:47Z</time>
      </trkpt>
      <trkpt lat="41.99235" lon="0.99733">
        <ele>661.6</ele>
        <time>2019-01-31T21:02:53Z</time>
      </trkpt>
      <trkpt lat="41.99226" lon="0.99741">
        <ele>660.6</ele>
        <time>2019-01-31T21:03:00Z</time>
      </trkpt>
      <trkpt lat="41.99219" lon="0.99752">
        <ele>660.6</ele>
        <time>2019-01-31T21:03:06Z</time>
      </trkpt>
      <trkpt lat="41.99213" lon="0.99764">
        <ele>659.7</ele>
        <time>2019-01-31T21:03:12Z</time>
      </trkpt>
      <trkpt lat="41.99209" lon="0.99779">
        <ele>658.6</ele>
        <time>2019-01-31T21:03:19Z</time>
      </trkpt>
      <trkpt lat="41.99206" lon="0.99794">
        <ele>657.8</ele>
        <time>2019-01-31T21:03:25Z</time>
      </trkpt>
      <trkpt lat="41.99204" lon="0.99807">
        <ele>657.2</ele>
        <time>2019-01-31T21:03:31Z</time>
      </trkpt>
      <trkpt lat="41.99196" lon="0.99827">
        <ele>655.3</ele>
        <time>2019-01-31T21:03:41Z</time>
      </trkpt>
      <trkpt lat="41.99185" lon="0.99831">
        <ele>653.9</ele>
        <time>2019-01-31T21:03:47Z</time>
      </trkpt>
      <trkpt lat="41.99176" lon="0.99831">
        <ele>652.4</ele>
        <time>2019-01-31T21:03:52Z</time>
      </trkpt>
      <trkpt lat="41.99166" lon="0.99831">
        <ele>650.5</ele>
        <time>2019-01-31T21:03:58Z</time>
      </trkpt>
      <trkpt lat="41.99155" lon="0.99832">
        <ele>649</ele>
        <time>2019-01-31T21:04:04Z</time>
      </trkpt>
      <trkpt lat="41.99144" lon="0.99831">
        <ele>648.1</ele>
        <time>2019-01-31T21:04:10Z</time>
      </trkpt>
      <trkpt lat="41.99133" lon="0.99832">
        <ele>646.6</ele>
        <time>2019-01-31T21:04:17Z</time>
      </trkpt>
      <trkpt lat="41.99123" lon="0.99833">
        <ele>645.2</ele>
        <time>2019-01-31T21:04:23Z</time>
      </trkpt>
      <trkpt lat="41.99112" lon="0.99835">
        <ele>644.8</ele>
        <time>2019-01-31T21:04:29Z</time>
      </trkpt>
      <trkpt lat="41.99101" lon="0.99842">
        <ele>643.8</ele>
        <time>2019-01-31T21:04:36Z</time>
      </trkpt>
      <trkpt lat="41.99091" lon="0.99851">
        <ele>642.9</ele>
        <time>2019-01-31T21:04:43Z</time>
      </trkpt>
      <trkpt lat="41.99082" lon="0.99859">
        <ele>642.3</ele>
        <time>2019-01-31T21:04:49Z</time>
      </trkpt>
      <trkpt lat="41.99072" lon="0.99866">
        <ele>641.3</ele>
        <time>2019-01-31T21:04:55Z</time>
      </trkpt>
      <trkpt lat="41.99065" lon="0.99871">
        <ele>641.3</ele>
        <time>2019-01-31T21:05:00Z</time>
      </trkpt>
      <trkpt lat="41.99055" lon="0.99878">
        <ele>640.9</ele>
        <time>2019-01-31T21:05:06Z</time>
      </trkpt>
      <trkpt lat="41.99047" lon="0.99883">
        <ele>640.9</ele>
        <time>2019-01-31T21:05:11Z</time>
      </trkpt>
      <trkpt lat="41.99038" lon="0.9989">
        <ele>641</ele>
        <time>2019-01-31T21:05:17Z</time>
      </trkpt>
      <trkpt lat="41.9903" lon="0.99898">
        <ele>640.4</ele>
        <time>2019-01-31T21:05:23Z</time>
      </trkpt>
      <trkpt lat="41.99022" lon="0.99906">
        <ele>640.4</ele>
        <time>2019-01-31T21:05:29Z</time>
      </trkpt>
      <trkpt lat="41.99016" lon="0.99912">
        <ele>639.9</ele>
        <time>2019-01-31T21:05:33Z</time>
      </trkpt>
      <trkpt lat="41.99012" lon="0.99923">
        <ele>639</ele>
        <time>2019-01-31T21:05:38Z</time>
      </trkpt>
      <trkpt lat="41.99005" lon="0.99936">
        <ele>638.5</ele>
        <time>2019-01-31T21:05:45Z</time>
      </trkpt>
      <trkpt lat="41.99001" lon="0.99944">
        <ele>638.1</ele>
        <time>2019-01-31T21:05:49Z</time>
      </trkpt>
      <trkpt lat="41.98998" lon="0.99956">
        <ele>638</ele>
        <time>2019-01-31T21:05:54Z</time>
      </trkpt>
      <trkpt lat="41.98994" lon="0.99968">
        <ele>637.5</ele>
        <time>2019-01-31T21:06:00Z</time>
      </trkpt>
      <trkpt lat="41.98987" lon="0.99978">
        <ele>637</ele>
        <time>2019-01-31T21:06:06Z</time>
      </trkpt>
      <trkpt lat="41.98983" lon="0.99987">
        <ele>637</ele>
        <time>2019-01-31T21:06:10Z</time>
      </trkpt>
      <trkpt lat="41.98975" lon="0.99997">
        <ele>636.1</ele>
        <time>2019-01-31T21:06:17Z</time>
      </trkpt>
      <trkpt lat="41.98966" lon="1.00005">
        <ele>635.7</ele>
        <time>2019-01-31T21:06:23Z</time>
      </trkpt>
      <trkpt lat="41.98956" lon="1.00003">
        <ele>635.6</ele>
        <time>2019-01-31T21:06:29Z</time>
      </trkpt>
      <trkpt lat="41.98947" lon="1.00002">
        <ele>635.2</ele>
        <time>2019-01-31T21:06:34Z</time>
      </trkpt>
      <trkpt lat="41.98938" lon="1.00001">
        <ele>634.2</ele>
        <time>2019-01-31T21:06:39Z</time>
      </trkpt>
      <trkpt lat="41.98926" lon="1.00003">
        <ele>633.2</ele>
        <time>2019-01-31T21:06:46Z</time>
      </trkpt>
      <trkpt lat="41.98917" lon="1.00008">
        <ele>633.3</ele>
        <time>2019-01-31T21:06:51Z</time>
      </trkpt>
      <trkpt lat="41.98908" lon="1.0001">
        <ele>632.2</ele>
        <time>2019-01-31T21:06:56Z</time>
      </trkpt>
      <trkpt lat="41.98898" lon="1.00012">
        <ele>631.7</ele>
        <time>2019-01-31T21:07:02Z</time>
      </trkpt>
      <trkpt lat="41.98889" lon="1.00014">
        <ele>631.2</ele>
        <time>2019-01-31T21:07:08Z</time>
      </trkpt>
      <trkpt lat="41.98883" lon="1.00017">
        <ele>629.9</ele>
        <time>2019-01-31T21:07:11Z</time>
      </trkpt>
      <trkpt lat="41.98874" lon="1.00019">
        <ele>629.4</ele>
        <time>2019-01-31T21:07:16Z</time>
      </trkpt>
      <trkpt lat="41.98863" lon="1.00018">
        <ele>628.5</ele>
        <time>2019-01-31T21:07:23Z</time>
      </trkpt>
      <trkpt lat="41.98854" lon="1.0002">
        <ele>627.5</ele>
        <time>2019-01-31T21:07:28Z</time>
      </trkpt>
      <trkpt lat="41.98843" lon="1.00022">
        <ele>626</ele>
        <time>2019-01-31T21:07:34Z</time>
      </trkpt>
      <trkpt lat="41.98833" lon="1.00025">
        <ele>625.5</ele>
        <time>2019-01-31T21:07:40Z</time>
      </trkpt>
      <trkpt lat="41.98826" lon="1.00035">
        <ele>624.5</ele>
        <time>2019-01-31T21:07:46Z</time>
      </trkpt>
      <trkpt lat="41.9882" lon="1.00048">
        <ele>623.2</ele>
        <time>2019-01-31T21:07:52Z</time>
      </trkpt>
      <trkpt lat="41.98815" lon="1.0006">
        <ele>622.6</ele>
        <time>2019-01-31T21:07:58Z</time>
      </trkpt>
      <trkpt lat="41.98812" lon="1.00076">
        <ele>621.2</ele>
        <time>2019-01-31T21:08:05Z</time>
      </trkpt>
      <trkpt lat="41.98806" lon="1.0009">
        <ele>620.2</ele>
        <time>2019-01-31T21:08:12Z</time>
      </trkpt>
      <trkpt lat="41.988" lon="1.00099">
        <ele>619.3</ele>
        <time>2019-01-31T21:08:17Z</time>
      </trkpt>
      <trkpt lat="41.98792" lon="1.00107">
        <ele>617.3</ele>
        <time>2019-01-31T21:08:23Z</time>
      </trkpt>
      <trkpt lat="41.98782" lon="1.00113">
        <ele>616.3</ele>
        <time>2019-01-31T21:08:29Z</time>
      </trkpt>
      <trkpt lat="41.98772" lon="1.00113">
        <ele>615.4</ele>
        <time>2019-01-31T21:08:35Z</time>
      </trkpt>
      <trkpt lat="41.98764" lon="1.00112">
        <ele>615</ele>
        <time>2019-01-31T21:08:40Z</time>
      </trkpt>
      <trkpt lat="41.98756" lon="1.00111">
        <ele>613.9</ele>
        <time>2019-01-31T21:08:44Z</time>
      </trkpt>
      <trkpt lat="41.98749" lon="1.00106">
        <ele>613.5</ele>
        <time>2019-01-31T21:08:49Z</time>
      </trkpt>
      <trkpt lat="41.98742" lon="1.00101">
        <ele>612.6</ele>
        <time>2019-01-31T21:08:53Z</time>
      </trkpt>
      <trkpt lat="41.98734" lon="1.00097">
        <ele>611.5</ele>
        <time>2019-01-31T21:08:58Z</time>
      </trkpt>
      <trkpt lat="41.98725" lon="1.00091">
        <ele>610.1</ele>
        <time>2019-01-31T21:09:04Z</time>
      </trkpt>
      <trkpt lat="41.98717" lon="1.00094">
        <ele>609.1</ele>
        <time>2019-01-31T21:09:09Z</time>
      </trkpt>
      <trkpt lat="41.98715" lon="1.00105">
        <ele>607.3</ele>
        <time>2019-01-31T21:09:14Z</time>
      </trkpt>
      <trkpt lat="41.9872" lon="1.00118">
        <ele>607.2</ele>
        <time>2019-01-31T21:09:20Z</time>
      </trkpt>
      <trkpt lat="41.98723" lon="1.0013">
        <ele>607.2</ele>
        <time>2019-01-31T21:09:25Z</time>
      </trkpt>
      <trkpt lat="41.98726" lon="1.00144">
        <ele>608.8</ele>
        <time>2019-01-31T21:09:31Z</time>
      </trkpt>
      <trkpt lat="41.98725" lon="1.00157">
        <ele>609.2</ele>
        <time>2019-01-31T21:09:37Z</time>
      </trkpt>
      <trkpt lat="41.98721" lon="1.00169">
        <ele>610.6</ele>
        <time>2019-01-31T21:09:42Z</time>
      </trkpt>
      <trkpt lat="41.98716" lon="1.0018">
        <ele>610.7</ele>
        <time>2019-01-31T21:09:48Z</time>
      </trkpt>
      <trkpt lat="41.98713" lon="1.00192">
        <ele>612</ele>
        <time>2019-01-31T21:09:53Z</time>
      </trkpt>
      <trkpt lat="41.98713" lon="1.00205">
        <ele>613</ele>
        <time>2019-01-31T21:09:59Z</time>
      </trkpt>
      <trkpt lat="41.98715" lon="1.00217">
        <ele>613.9</ele>
        <time>2019-01-31T21:10:04Z</time>
      </trkpt>
      <trkpt lat="41.98715" lon="1.00229">
        <ele>615.4</ele>
        <time>2019-01-31T21:10:09Z</time>
      </trkpt>
      <trkpt lat="41.98713" lon="1.00243">
        <ele>617.4</ele>
        <time>2019-01-31T21:10:15Z</time>
      </trkpt>
      <trkpt lat="41.98711" lon="1.00257">
        <ele>617.8</ele>
        <time>2019-01-31T21:10:21Z</time>
      </trkpt>
      <trkpt lat="41.9871" lon="1.00272">
        <ele>617.8</ele>
        <time>2019-01-31T21:10:28Z</time>
      </trkpt>
      <trkpt lat="41.98707" lon="1.00285">
        <ele>617.8</ele>
        <time>2019-01-31T21:10:33Z</time>
      </trkpt>
      <trkpt lat="41.98706" lon="1.00299">
        <ele>617.9</ele>
        <time>2019-01-31T21:10:39Z</time>
      </trkpt>
      <trkpt lat="41.98706" lon="1.00312">
        <ele>617.9</ele>
        <time>2019-01-31T21:10:45Z</time>
      </trkpt>
      <trkpt lat="41.98705" lon="1.00324">
        <ele>618.4</ele>
        <time>2019-01-31T21:10:50Z</time>
      </trkpt>
      <trkpt lat="41.98704" lon="1.00338">
        <ele>616.9</ele>
        <time>2019-01-31T21:10:56Z</time>
      </trkpt>
      <trkpt lat="41.98702" lon="1.00351">
        <ele>616.4</ele>
        <time>2019-01-31T21:11:02Z</time>
      </trkpt>
      <trkpt lat="41.98701" lon="1.00363">
        <ele>615.9</ele>
        <time>2019-01-31T21:11:07Z</time>
      </trkpt>
      <trkpt lat="41.98701" lon="1.00376">
        <ele>615.9</ele>
        <time>2019-01-31T21:11:12Z</time>
      </trkpt>
      <trkpt lat="41.987" lon="1.00388">
        <ele>615.5</ele>
        <time>2019-01-31T21:11:18Z</time>
      </trkpt>
      <trkpt lat="41.98698" lon="1.00403">
        <ele>614.4</ele>
        <time>2019-01-31T21:11:24Z</time>
      </trkpt>
      <trkpt lat="41.98696" lon="1.00417">
        <ele>614</ele>
        <time>2019-01-31T21:11:30Z</time>
      </trkpt>
      <trkpt lat="41.98694" lon="1.00431">
        <ele>613.9</ele>
        <time>2019-01-31T21:11:36Z</time>
      </trkpt>
      <trkpt lat="41.98695" lon="1.00444">
        <ele>614</ele>
        <time>2019-01-31T21:11:42Z</time>
      </trkpt>
      <trkpt lat="41.98693" lon="1.00458">
        <ele>614</ele>
        <time>2019-01-31T21:11:48Z</time>
      </trkpt>
      <trkpt lat="41.98686" lon="1.0047">
        <ele>613.6</ele>
        <time>2019-01-31T21:11:54Z</time>
      </trkpt>
      <trkpt lat="41.98679" lon="1.0048">
        <ele>613.1</ele>
        <time>2019-01-31T21:12:00Z</time>
      </trkpt>
      <trkpt lat="41.98673" lon="1.00491">
        <ele>612.5</ele>
        <time>2019-01-31T21:12:06Z</time>
      </trkpt>
      <trkpt lat="41.98668" lon="1.00503">
        <ele>612</ele>
        <time>2019-01-31T21:12:12Z</time>
      </trkpt>
      <trkpt lat="41.98664" lon="1.00515">
        <ele>611.1</ele>
        <time>2019-01-31T21:12:18Z</time>
      </trkpt>
      <trkpt lat="41.9866" lon="1.00528">
        <ele>609.7</ele>
        <time>2019-01-31T21:12:23Z</time>
      </trkpt>
      <trkpt lat="41.98654" lon="1.0054">
        <ele>609.2</ele>
        <time>2019-01-31T21:12:29Z</time>
      </trkpt>
      <trkpt lat="41.9865" lon="1.00552">
        <ele>608.2</ele>
        <time>2019-01-31T21:12:35Z</time>
      </trkpt>
      <trkpt lat="41.98647" lon="1.00563">
        <ele>607.3</ele>
        <time>2019-01-31T21:12:40Z</time>
      </trkpt>
      <trkpt lat="41.98642" lon="1.00577">
        <ele>606.7</ele>
        <time>2019-01-31T21:12:47Z</time>
      </trkpt>
      <trkpt lat="41.98638" lon="1.0059">
        <ele>606.3</ele>
        <time>2019-01-31T21:12:53Z</time>
      </trkpt>
      <trkpt lat="41.98634" lon="1.00603">
        <ele>606.4</ele>
        <time>2019-01-31T21:12:59Z</time>
      </trkpt>
      <trkpt lat="41.9863" lon="1.00615">
        <ele>606.4</ele>
        <time>2019-01-31T21:13:04Z</time>
      </trkpt>
      <trkpt lat="41.98623" lon="1.00625">
        <ele>606.4</ele>
        <time>2019-01-31T21:13:10Z</time>
      </trkpt>
      <trkpt lat="41.98616" lon="1.00634">
        <ele>606.3</ele>
        <time>2019-01-31T21:13:16Z</time>
      </trkpt>
      <trkpt lat="41.98609" lon="1.00644">
        <ele>606.3</ele>
        <time>2019-01-31T21:13:22Z</time>
      </trkpt>
      <trkpt lat="41.986" lon="1.00652">
        <ele>605.8</ele>
        <time>2019-01-31T21:13:28Z</time>
      </trkpt>
      <trkpt lat="41.98595" lon="1.00664">
        <ele>607.3</ele>
        <time>2019-01-31T21:13:33Z</time>
      </trkpt>
      <trkpt lat="41.98595" lon="1.00676">
        <ele>608.2</ele>
        <time>2019-01-31T21:13:39Z</time>
      </trkpt>
      <trkpt lat="41.98598" lon="1.00688">
        <ele>608.2</ele>
        <time>2019-01-31T21:13:44Z</time>
      </trkpt>
      <trkpt lat="41.98601" lon="1.007">
        <ele>606.7</ele>
        <time>2019-01-31T21:13:49Z</time>
      </trkpt>
      <trkpt lat="41.98602" lon="1.00713">
        <ele>606.4</ele>
        <time>2019-01-31T21:13:55Z</time>
      </trkpt>
      <trkpt lat="41.98604" lon="1.00725">
        <ele>605.9</ele>
        <time>2019-01-31T21:14:00Z</time>
      </trkpt>
      <trkpt lat="41.98607" lon="1.00739">
        <ele>605.4</ele>
        <time>2019-01-31T21:14:06Z</time>
      </trkpt>
      <trkpt lat="41.98612" lon="1.0075">
        <ele>604.8</ele>
        <time>2019-01-31T21:14:12Z</time>
      </trkpt>
      <trkpt lat="41.98618" lon="1.0076">
        <ele>604.3</ele>
        <time>2019-01-31T21:14:17Z</time>
      </trkpt>
      <trkpt lat="41.98625" lon="1.0077">
        <ele>603.9</ele>
        <time>2019-01-31T21:14:23Z</time>
      </trkpt>
      <trkpt lat="41.98631" lon="1.00779">
        <ele>603.9</ele>
        <time>2019-01-31T21:14:28Z</time>
      </trkpt>
      <trkpt lat="41.98638" lon="1.00789">
        <ele>603.4</ele>
        <time>2019-01-31T21:14:34Z</time>
      </trkpt>
      <trkpt lat="41.98644" lon="1.00799">
        <ele>603.5</ele>
        <time>2019-01-31T21:14:39Z</time>
      </trkpt>
      <trkpt lat="41.9865" lon="1.0081">
        <ele>603.5</ele>
        <time>2019-01-31T21:14:45Z</time>
      </trkpt>
      <trkpt lat="41.98655" lon="1.00822">
        <ele>603.5</ele>
        <time>2019-01-31T21:14:51Z</time>
      </trkpt>
      <trkpt lat="41.9866" lon="1.00833">
        <ele>603.5</ele>
        <time>2019-01-31T21:14:57Z</time>
      </trkpt>
      <trkpt lat="41.98662" lon="1.00848">
        <ele>602.5</ele>
        <time>2019-01-31T21:15:03Z</time>
      </trkpt>
      <trkpt lat="41.98659" lon="1.00862">
        <ele>602.5</ele>
        <time>2019-01-31T21:15:09Z</time>
      </trkpt>
      <trkpt lat="41.98653" lon="1.00875">
        <ele>601.4</ele>
        <time>2019-01-31T21:15:16Z</time>
      </trkpt>
      <trkpt lat="41.98648" lon="1.00887">
        <ele>601</ele>
        <time>2019-01-31T21:15:22Z</time>
      </trkpt>
      <trkpt lat="41.98642" lon="1.00898">
        <ele>600.5</ele>
        <time>2019-01-31T21:15:28Z</time>
      </trkpt>
      <trkpt lat="41.98636" lon="1.0091">
        <ele>600</ele>
        <time>2019-01-31T21:15:33Z</time>
      </trkpt>
      <trkpt lat="41.98632" lon="1.00922">
        <ele>599.1</ele>
        <time>2019-01-31T21:15:39Z</time>
      </trkpt>
      <trkpt lat="41.98628" lon="1.00935">
        <ele>598.2</ele>
        <time>2019-01-31T21:15:45Z</time>
      </trkpt>
      <trkpt lat="41.98629" lon="1.00948">
        <ele>597.6</ele>
        <time>2019-01-31T21:15:51Z</time>
      </trkpt>
      <trkpt lat="41.98638" lon="1.00957">
        <ele>597.7</ele>
        <time>2019-01-31T21:15:57Z</time>
      </trkpt>
      <trkpt lat="41.98647" lon="1.00962">
        <ele>596.7</ele>
        <time>2019-01-31T21:16:02Z</time>
      </trkpt>
      <trkpt lat="41.98656" lon="1.00965">
        <ele>596.6</ele>
        <time>2019-01-31T21:16:08Z</time>
      </trkpt>
      <trkpt lat="41.98665" lon="1.00968">
        <ele>596.2</ele>
        <time>2019-01-31T21:16:13Z</time>
      </trkpt>
      <trkpt lat="41.98675" lon="1.00971">
        <ele>595.8</ele>
        <time>2019-01-31T21:16:19Z</time>
      </trkpt>
      <trkpt lat="41.98685" lon="1.00975">
        <ele>595.2</ele>
        <time>2019-01-31T21:16:25Z</time>
      </trkpt>
      <trkpt lat="41.98696" lon="1.00979">
        <ele>595.2</ele>
        <time>2019-01-31T21:16:31Z</time>
      </trkpt>
      <trkpt lat="41.98706" lon="1.00984">
        <ele>595.3</ele>
        <time>2019-01-31T21:16:37Z</time>
      </trkpt>
      <trkpt lat="41.98715" lon="1.0099">
        <ele>595.8</ele>
        <time>2019-01-31T21:16:43Z</time>
      </trkpt>
      <trkpt lat="41.98724" lon="1.00997">
        <ele>595.8</ele>
        <time>2019-01-31T21:16:49Z</time>
      </trkpt>
      <trkpt lat="41.98733" lon="1.01004">
        <ele>595.8</ele>
        <time>2019-01-31T21:16:55Z</time>
      </trkpt>
      <trkpt lat="41.98741" lon="1.01011">
        <ele>595.8</ele>
        <time>2019-01-31T21:17:01Z</time>
      </trkpt>
      <trkpt lat="41.98751" lon="1.01018">
        <ele>595.8</ele>
        <time>2019-01-31T21:17:07Z</time>
      </trkpt>
      <trkpt lat="41.9876" lon="1.0102">
        <ele>595.2</ele>
        <time>2019-01-31T21:17:12Z</time>
      </trkpt>
      <trkpt lat="41.98772" lon="1.0102">
        <ele>594.2</ele>
        <time>2019-01-31T21:17:19Z</time>
      </trkpt>
      <trkpt lat="41.98781" lon="1.01017">
        <ele>593.9</ele>
        <time>2019-01-31T21:17:25Z</time>
      </trkpt>
      <trkpt lat="41.9879" lon="1.01018">
        <ele>593.8</ele>
        <time>2019-01-31T21:17:30Z</time>
      </trkpt>
      <trkpt lat="41.98801" lon="1.01023">
        <ele>593.8</ele>
        <time>2019-01-31T21:17:36Z</time>
      </trkpt>
      <trkpt lat="41.9881" lon="1.01028">
        <ele>593.8</ele>
        <time>2019-01-31T21:17:42Z</time>
      </trkpt>
      <trkpt lat="41.9882" lon="1.01033">
        <ele>593.9</ele>
        <time>2019-01-31T21:17:48Z</time>
      </trkpt>
      <trkpt lat="41.98829" lon="1.01037">
        <ele>593.9</ele>
        <time>2019-01-31T21:17:54Z</time>
      </trkpt>
      <trkpt lat="41.9884" lon="1.01042">
        <ele>593.8</ele>
        <time>2019-01-31T21:18:00Z</time>
      </trkpt>
      <trkpt lat="41.98849" lon="1.01047">
        <ele>593.9</ele>
        <time>2019-01-31T21:18:06Z</time>
      </trkpt>
      <trkpt lat="41.98858" lon="1.01053">
        <ele>593.3</ele>
        <time>2019-01-31T21:18:11Z</time>
      </trkpt>
      <trkpt lat="41.98868" lon="1.01062">
        <ele>593.4</ele>
        <time>2019-01-31T21:18:18Z</time>
      </trkpt>
      <trkpt lat="41.98876" lon="1.01071">
        <ele>592.9</ele>
        <time>2019-01-31T21:18:24Z</time>
      </trkpt>
      <trkpt lat="41.98885" lon="1.01081">
        <ele>592.3</ele>
        <time>2019-01-31T21:18:31Z</time>
      </trkpt>
      <trkpt lat="41.98894" lon="1.01091">
        <ele>591.8</ele>
        <time>2019-01-31T21:18:38Z</time>
      </trkpt>
      <trkpt lat="41.98904" lon="1.01098">
        <ele>590.9</ele>
        <time>2019-01-31T21:18:44Z</time>
      </trkpt>
      <trkpt lat="41.98913" lon="1.01106">
        <ele>590</ele>
        <time>2019-01-31T21:18:50Z</time>
      </trkpt>
      <trkpt lat="41.98922" lon="1.01112">
        <ele>590</ele>
        <time>2019-01-31T21:18:56Z</time>
      </trkpt>
      <trkpt lat="41.98931" lon="1.01119">
        <ele>589.9</ele>
        <time>2019-01-31T21:19:02Z</time>
      </trkpt>
      <trkpt lat="41.98938" lon="1.01129">
        <ele>589.9</ele>
        <time>2019-01-31T21:19:08Z</time>
      </trkpt>
      <trkpt lat="41.98944" lon="1.01139">
        <ele>590</ele>
        <time>2019-01-31T21:19:13Z</time>
      </trkpt>
      <trkpt lat="41.9895" lon="1.0115">
        <ele>590</ele>
        <time>2019-01-31T21:19:19Z</time>
      </trkpt>
      <trkpt lat="41.98956" lon="1.01161">
        <ele>589.9</ele>
        <time>2019-01-31T21:19:24Z</time>
      </trkpt>
      <trkpt lat="41.98961" lon="1.01173">
        <ele>591.4</ele>
        <time>2019-01-31T21:19:31Z</time>
      </trkpt>
      <trkpt lat="41.98964" lon="1.01186">
        <ele>592.4</ele>
        <time>2019-01-31T21:19:36Z</time>
      </trkpt>
      <trkpt lat="41.98963" lon="1.012">
        <ele>593.3</ele>
        <time>2019-01-31T21:19:42Z</time>
      </trkpt>
      <trkpt lat="41.9896" lon="1.01215">
        <ele>594.2</ele>
        <time>2019-01-31T21:19:48Z</time>
      </trkpt>
      <trkpt lat="41.98957" lon="1.01229">
        <ele>595.2</ele>
        <time>2019-01-31T21:19:55Z</time>
      </trkpt>
      <trkpt lat="41.98956" lon="1.01243">
        <ele>596.2</ele>
        <time>2019-01-31T21:20:01Z</time>
      </trkpt>
      <trkpt lat="41.98955" lon="1.01256">
        <ele>597.6</ele>
        <time>2019-01-31T21:20:06Z</time>
      </trkpt>
      <trkpt lat="41.9895" lon="1.01267">
        <ele>597.7</ele>
        <time>2019-01-31T21:20:12Z</time>
      </trkpt>
      <trkpt lat="41.98943" lon="1.01278">
        <ele>598.7</ele>
        <time>2019-01-31T21:20:18Z</time>
      </trkpt>
      <trkpt lat="41.98939" lon="1.01289">
        <ele>599</ele>
        <time>2019-01-31T21:20:23Z</time>
      </trkpt>
      <trkpt lat="41.98935" lon="1.01302">
        <ele>599.6</ele>
        <time>2019-01-31T21:20:29Z</time>
      </trkpt>
      <trkpt lat="41.98932" lon="1.01317">
        <ele>600.1</ele>
        <time>2019-01-31T21:20:36Z</time>
      </trkpt>
      <trkpt lat="41.9893" lon="1.01331">
        <ele>601</ele>
        <time>2019-01-31T21:20:42Z</time>
      </trkpt>
      <trkpt lat="41.98928" lon="1.01345">
        <ele>601.4</ele>
        <time>2019-01-31T21:20:48Z</time>
      </trkpt>
      <trkpt lat="41.98927" lon="1.01359">
        <ele>601.4</ele>
        <time>2019-01-31T21:20:54Z</time>
      </trkpt>
      <trkpt lat="41.98925" lon="1.01373">
        <ele>601.4</ele>
        <time>2019-01-31T21:21:00Z</time>
      </trkpt>
      <trkpt lat="41.98922" lon="1.01386">
        <ele>601.4</ele>
        <time>2019-01-31T21:21:06Z</time>
      </trkpt>
      <trkpt lat="41.9892" lon="1.01399">
        <ele>601.4</ele>
        <time>2019-01-31T21:21:11Z</time>
      </trkpt>
      <trkpt lat="41.98917" lon="1.01412">
        <ele>601.4</ele>
        <time>2019-01-31T21:21:17Z</time>
      </trkpt>
      <trkpt lat="41.98917" lon="1.01426">
        <ele>601.5</ele>
        <time>2019-01-31T21:21:23Z</time>
      </trkpt>
      <trkpt lat="41.98917" lon="1.01439">
        <ele>601.5</ele>
        <time>2019-01-31T21:21:29Z</time>
      </trkpt>
      <trkpt lat="41.98917" lon="1.01452">
        <ele>601.4</ele>
        <time>2019-01-31T21:21:34Z</time>
      </trkpt>
      <trkpt lat="41.98913" lon="1.01467">
        <ele>601.5</ele>
        <time>2019-01-31T21:21:41Z</time>
      </trkpt>
      <trkpt lat="41.98906" lon="1.01478">
        <ele>600.1</ele>
        <time>2019-01-31T21:21:47Z</time>
      </trkpt>
      <trkpt lat="41.98897" lon="1.01484">
        <ele>598.6</ele>
        <time>2019-01-31T21:21:53Z</time>
      </trkpt>
      <trkpt lat="41.98888" lon="1.0149">
        <ele>598.1</ele>
        <time>2019-01-31T21:21:58Z</time>
      </trkpt>
      <trkpt lat="41.9888" lon="1.01499">
        <ele>597.6</ele>
        <time>2019-01-31T21:22:05Z</time>
      </trkpt>
      <trkpt lat="41.98876" lon="1.0151">
        <ele>597.7</ele>
        <time>2019-01-31T21:22:10Z</time>
      </trkpt>
      <trkpt lat="41.98876" lon="1.01523">
        <ele>596.6</ele>
        <time>2019-01-31T21:22:15Z</time>
      </trkpt>
      <trkpt lat="41.98881" lon="1.01534">
        <ele>595.7</ele>
        <time>2019-01-31T21:22:21Z</time>
      </trkpt>
      <trkpt lat="41.98886" lon="1.01545">
        <ele>595.3</ele>
        <time>2019-01-31T21:22:26Z</time>
      </trkpt>
      <trkpt lat="41.98894" lon="1.01553">
        <ele>595.2</ele>
        <time>2019-01-31T21:22:32Z</time>
      </trkpt>
      <trkpt lat="41.98902" lon="1.01559">
        <ele>594.3</ele>
        <time>2019-01-31T21:22:38Z</time>
      </trkpt>
      <trkpt lat="41.98911" lon="1.01565">
        <ele>593.4</ele>
        <time>2019-01-31T21:22:43Z</time>
      </trkpt>
      <trkpt lat="41.9892" lon="1.01573">
        <ele>592.3</ele>
        <time>2019-01-31T21:22:49Z</time>
      </trkpt>
      <trkpt lat="41.98929" lon="1.01582">
        <ele>591.4</ele>
        <time>2019-01-31T21:22:56Z</time>
      </trkpt>
      <trkpt lat="41.98938" lon="1.01591">
        <ele>590.9</ele>
        <time>2019-01-31T21:23:02Z</time>
      </trkpt>
      <trkpt lat="41.98946" lon="1.016">
        <ele>589.9</ele>
        <time>2019-01-31T21:23:08Z</time>
      </trkpt>
      <trkpt lat="41.98954" lon="1.01609">
        <ele>589.4</ele>
        <time>2019-01-31T21:23:14Z</time>
      </trkpt>
      <trkpt lat="41.98962" lon="1.0162">
        <ele>589.1</ele>
        <time>2019-01-31T21:23:20Z</time>
      </trkpt>
      <trkpt lat="41.98968" lon="1.0163">
        <ele>588.6</ele>
        <time>2019-01-31T21:23:26Z</time>
      </trkpt>
      <trkpt lat="41.98976" lon="1.01639">
        <ele>588</ele>
        <time>2019-01-31T21:23:32Z</time>
      </trkpt>
      <trkpt lat="41.98982" lon="1.01649">
        <ele>587.6</ele>
        <time>2019-01-31T21:23:38Z</time>
      </trkpt>
      <trkpt lat="41.9899" lon="1.0166">
        <ele>587</ele>
        <time>2019-01-31T21:23:44Z</time>
      </trkpt>
      <trkpt lat="41.98996" lon="1.0167">
        <ele>586.6</ele>
        <time>2019-01-31T21:23:50Z</time>
      </trkpt>
      <trkpt lat="41.99004" lon="1.01679">
        <ele>586.6</ele>
        <time>2019-01-31T21:23:55Z</time>
      </trkpt>
      <trkpt lat="41.99015" lon="1.01682">
        <ele>586.1</ele>
        <time>2019-01-31T21:24:02Z</time>
      </trkpt>
      <trkpt lat="41.99025" lon="1.01683">
        <ele>585.6</ele>
        <time>2019-01-31T21:24:08Z</time>
      </trkpt>
      <trkpt lat="41.99035" lon="1.01685">
        <ele>585.7</ele>
        <time>2019-01-31T21:24:13Z</time>
      </trkpt>
      <trkpt lat="41.99045" lon="1.01687">
        <ele>586.2</ele>
        <time>2019-01-31T21:24:19Z</time>
      </trkpt>
      <trkpt lat="41.99054" lon="1.0169">
        <ele>586.2</ele>
        <time>2019-01-31T21:24:25Z</time>
      </trkpt>
      <trkpt lat="41.99064" lon="1.01695">
        <ele>586.1</ele>
        <time>2019-01-31T21:24:30Z</time>
      </trkpt>
      <trkpt lat="41.99073" lon="1.01699">
        <ele>585.7</ele>
        <time>2019-01-31T21:24:36Z</time>
      </trkpt>
      <trkpt lat="41.99083" lon="1.01704">
        <ele>585.6</ele>
        <time>2019-01-31T21:24:42Z</time>
      </trkpt>
      <trkpt lat="41.99092" lon="1.01707">
        <ele>585.7</ele>
        <time>2019-01-31T21:24:48Z</time>
      </trkpt>
      <trkpt lat="41.99102" lon="1.01708">
        <ele>585.7</ele>
        <time>2019-01-31T21:24:53Z</time>
      </trkpt>
      <trkpt lat="41.99113" lon="1.01708">
        <ele>585.7</ele>
        <time>2019-01-31T21:24:59Z</time>
      </trkpt>
      <trkpt lat="41.99124" lon="1.01708">
        <ele>585.6</ele>
        <time>2019-01-31T21:25:06Z</time>
      </trkpt>
      <trkpt lat="41.99133" lon="1.01706">
        <ele>585.6</ele>
        <time>2019-01-31T21:25:11Z</time>
      </trkpt>
      <trkpt lat="41.99143" lon="1.01703">
        <ele>585.6</ele>
        <time>2019-01-31T21:25:17Z</time>
      </trkpt>
      <trkpt lat="41.99153" lon="1.017">
        <ele>585.7</ele>
        <time>2019-01-31T21:25:23Z</time>
      </trkpt>
      <trkpt lat="41.99162" lon="1.01695">
        <ele>585.7</ele>
        <time>2019-01-31T21:25:28Z</time>
      </trkpt>
      <trkpt lat="41.99172" lon="1.01692">
        <ele>585.1</ele>
        <time>2019-01-31T21:25:34Z</time>
      </trkpt>
      <trkpt lat="41.99182" lon="1.01693">
        <ele>584.7</ele>
        <time>2019-01-31T21:25:40Z</time>
      </trkpt>
      <trkpt lat="41.99191" lon="1.01699">
        <ele>584.2</ele>
        <time>2019-01-31T21:25:46Z</time>
      </trkpt>
      <trkpt lat="41.99199" lon="1.01708">
        <ele>584.1</ele>
        <time>2019-01-31T21:25:51Z</time>
      </trkpt>
      <trkpt lat="41.99205" lon="1.0172">
        <ele>584.1</ele>
        <time>2019-01-31T21:25:58Z</time>
      </trkpt>
      <trkpt lat="41.9921" lon="1.01734">
        <ele>584.1</ele>
        <time>2019-01-31T21:26:04Z</time>
      </trkpt>
      <trkpt lat="41.99215" lon="1.01748">
        <ele>584.1</ele>
        <time>2019-01-31T21:26:11Z</time>
      </trkpt>
      <trkpt lat="41.99219" lon="1.01763">
        <ele>585.6</ele>
        <time>2019-01-31T21:26:18Z</time>
      </trkpt>
      <trkpt lat="41.99225" lon="1.01777">
        <ele>587</ele>
        <time>2019-01-31T21:26:24Z</time>
      </trkpt>
      <trkpt lat="41.99232" lon="1.01787">
        <ele>588.1</ele>
        <time>2019-01-31T21:26:30Z</time>
      </trkpt>
      <trkpt lat="41.99241" lon="1.01796">
        <ele>589.4</ele>
        <time>2019-01-31T21:26:37Z</time>
      </trkpt>
      <trkpt lat="41.9925" lon="1.01802">
        <ele>591.5</ele>
        <time>2019-01-31T21:26:42Z</time>
      </trkpt>
      <trkpt lat="41.9926" lon="1.01806">
        <ele>592.4</ele>
        <time>2019-01-31T21:26:48Z</time>
      </trkpt>
      <trkpt lat="41.99269" lon="1.01809">
        <ele>593.3</ele>
        <time>2019-01-31T21:26:54Z</time>
      </trkpt>
      <trkpt lat="41.99279" lon="1.01814">
        <ele>594.7</ele>
        <time>2019-01-31T21:27:00Z</time>
      </trkpt>
      <trkpt lat="41.99286" lon="1.01824">
        <ele>595.3</ele>
        <time>2019-01-31T21:27:06Z</time>
      </trkpt>
      <trkpt lat="41.99292" lon="1.01835">
        <ele>595.2</ele>
        <time>2019-01-31T21:27:11Z</time>
      </trkpt>
      <trkpt lat="41.99299" lon="1.01846">
        <ele>595.2</ele>
        <time>2019-01-31T21:27:17Z</time>
      </trkpt>
      <trkpt lat="41.99304" lon="1.01857">
        <ele>595.2</ele>
        <time>2019-01-31T21:27:23Z</time>
      </trkpt>
      <trkpt lat="41.99309" lon="1.01867">
        <ele>595.8</ele>
        <time>2019-01-31T21:27:28Z</time>
      </trkpt>
      <trkpt lat="41.99313" lon="1.01879">
        <ele>595.7</ele>
        <time>2019-01-31T21:27:34Z</time>
      </trkpt>
      <trkpt lat="41.99316" lon="1.01892">
        <ele>594.2</ele>
        <time>2019-01-31T21:27:39Z</time>
      </trkpt>
      <trkpt lat="41.99321" lon="1.01904">
        <ele>594.2</ele>
        <time>2019-01-31T21:27:45Z</time>
      </trkpt>
      <trkpt lat="41.99326" lon="1.01915">
        <ele>594.3</ele>
        <time>2019-01-31T21:27:51Z</time>
      </trkpt>
      <trkpt lat="41.9933" lon="1.01925">
        <ele>594.3</ele>
        <time>2019-01-31T21:27:56Z</time>
      </trkpt>
      <trkpt lat="41.99336" lon="1.01938">
        <ele>593.8</ele>
        <time>2019-01-31T21:28:02Z</time>
      </trkpt>
      <trkpt lat="41.9934" lon="1.01952">
        <ele>594.3</ele>
        <time>2019-01-31T21:28:09Z</time>
      </trkpt>
      <trkpt lat="41.99345" lon="1.01966">
        <ele>594.2</ele>
        <time>2019-01-31T21:28:15Z</time>
      </trkpt>
      <trkpt lat="41.9935" lon="1.01978">
        <ele>594.2</ele>
        <time>2019-01-31T21:28:21Z</time>
      </trkpt>
      <trkpt lat="41.99354" lon="1.0199">
        <ele>593.8</ele>
        <time>2019-01-31T21:28:26Z</time>
      </trkpt>
      <trkpt lat="41.99357" lon="1.02002">
        <ele>593.9</ele>
        <time>2019-01-31T21:28:32Z</time>
      </trkpt>
      <trkpt lat="41.99363" lon="1.02013">
        <ele>593.3</ele>
        <time>2019-01-31T21:28:38Z</time>
      </trkpt>
      <trkpt lat="41.99367" lon="1.02026">
        <ele>593.4</ele>
        <time>2019-01-31T21:28:44Z</time>
      </trkpt>
      <trkpt lat="41.99371" lon="1.02038">
        <ele>592.8</ele>
        <time>2019-01-31T21:28:49Z</time>
      </trkpt>
      <trkpt lat="41.99375" lon="1.0205">
        <ele>592.4</ele>
        <time>2019-01-31T21:28:55Z</time>
      </trkpt>
      <trkpt lat="41.9938" lon="1.02064">
        <ele>592.3</ele>
        <time>2019-01-31T21:29:01Z</time>
      </trkpt>
      <trkpt lat="41.99382" lon="1.02079">
        <ele>592.3</ele>
        <time>2019-01-31T21:29:08Z</time>
      </trkpt>
      <trkpt lat="41.99387" lon="1.02093">
        <ele>592.4</ele>
        <time>2019-01-31T21:29:15Z</time>
      </trkpt>
      <trkpt lat="41.99391" lon="1.02108">
        <ele>592.3</ele>
        <time>2019-01-31T21:29:21Z</time>
      </trkpt>
      <trkpt lat="41.99396" lon="1.02121">
        <ele>592.3</ele>
        <time>2019-01-31T21:29:27Z</time>
      </trkpt>
      <trkpt lat="41.99402" lon="1.02132">
        <ele>592.3</ele>
        <time>2019-01-31T21:29:33Z</time>
      </trkpt>
      <trkpt lat="41.9941" lon="1.02143">
        <ele>591.9</ele>
        <time>2019-01-31T21:29:40Z</time>
      </trkpt>
      <trkpt lat="41.99415" lon="1.02156">
        <ele>591.8</ele>
        <time>2019-01-31T21:29:46Z</time>
      </trkpt>
      <trkpt lat="41.99418" lon="1.02174">
        <ele>592.4</ele>
        <time>2019-01-31T21:29:54Z</time>
      </trkpt>
      <trkpt lat="41.99422" lon="1.0219">
        <ele>592.4</ele>
        <time>2019-01-31T21:30:01Z</time>
      </trkpt>
      <trkpt lat="41.99427" lon="1.02206">
        <ele>592.3</ele>
        <time>2019-01-31T21:30:08Z</time>
      </trkpt>
      <trkpt lat="41.99424" lon="1.02225">
        <ele>592.8</ele>
        <time>2019-01-31T21:30:17Z</time>
      </trkpt>
      <trkpt lat="41.99425" lon="1.02241">
        <ele>592.9</ele>
        <time>2019-01-31T21:30:23Z</time>
      </trkpt>
      <trkpt lat="41.99429" lon="1.02255">
        <ele>592.8</ele>
        <time>2019-01-31T21:30:30Z</time>
      </trkpt>
      <trkpt lat="41.99439" lon="1.02268">
        <ele>596.2</ele>
        <time>2019-01-31T21:30:38Z</time>
      </trkpt>
      <trkpt lat="41.9945" lon="1.02296">
        <ele>599</ele>
        <time>2019-01-31T21:30:51Z</time>
      </trkpt>
      <trkpt lat="41.99465" lon="1.02312">
        <ele>601</ele>
        <time>2019-01-31T21:31:02Z</time>
      </trkpt>
      <trkpt lat="41.99486" lon="1.02314">
        <ele>603.9</ele>
        <time>2019-01-31T21:31:14Z</time>
      </trkpt>
      <trkpt lat="41.99511" lon="1.02341">
        <ele>606.7</ele>
        <time>2019-01-31T21:31:33Z</time>
      </trkpt>
    </trkseg>
  </trk>
</gpx>